<?xml version="1.0" encoding="UTF-8"?>
<gpx version="1.1" creator="https://www.youtrack.es" xsi:schemaLocation="http://www.topografix.com/GPX/1/1 http://www.topografix.com/GPX/1/1/gpx.xsd http://www.garmin.com/xmlschemas/GpxExtensions/v3 http://www.garmin.com/xmlschemas/GpxExtensionsv3.xsd http://www.garmin.com/xmlschemas/TrackPointExtension/v1 http://www.garmin.com/xmlschemas/TrackPointExtensionv1.xsd" xmlns:gpxtpx="http://www.garmin.com/xmlschemas/TrackPointExtension/v1" xmlns:gpxx="http://www.garmin.com/xmlschemas/GpxExtensions/v3" xmlns:xsi="http://www.w3.org/2001/XMLSchema-instance">
  <metadata>
    <link href="https://www.youtrack.es">
      <text>YouTrack.es</text>
    </link>
    <time>2026-05-09T00:42:14Z</time>
  </metadata>
  <trk>
    <src>https://www.youtrack.es</src>
    <link href="https://www.youtrack.es/ruta/31094-huesca-jaca">
      <text>YouTrack.es</text>
    </link>
    <trkseg>
      <trkpt lat="42.1292139217" lon="-0.4030692950">
        <ele>363.04</ele>
        <time>2022-04-14T05:52:24Z</time>
      </trkpt>
      <trkpt lat="42.1292238962" lon="-0.4030682053">
        <ele>363.04</ele>
        <time>2022-04-14T05:52:25Z</time>
      </trkpt>
      <trkpt lat="42.1293728426" lon="-0.4031172395">
        <ele>364.96</ele>
        <time>2022-04-14T05:52:39Z</time>
      </trkpt>
      <trkpt lat="42.1295875870" lon="-0.4032002203">
        <ele>364.00</ele>
        <time>2022-04-14T05:52:57Z</time>
      </trkpt>
      <trkpt lat="42.1297349408" lon="-0.4032856319">
        <ele>364.96</ele>
        <time>2022-04-14T05:53:14Z</time>
      </trkpt>
      <trkpt lat="42.1297407243" lon="-0.4032914154">
        <ele>364.96</ele>
        <time>2022-04-14T05:53:15Z</time>
      </trkpt>
      <trkpt lat="42.1298894193" lon="-0.4033599794">
        <ele>366.40</ele>
        <time>2022-04-14T05:53:28Z</time>
      </trkpt>
      <trkpt lat="42.1299060155" lon="-0.4033634160">
        <ele>364.96</ele>
        <time>2022-04-14T05:53:30Z</time>
      </trkpt>
      <trkpt lat="42.1299428120" lon="-0.4033768270">
        <ele>366.88</ele>
        <time>2022-04-14T05:53:36Z</time>
      </trkpt>
      <trkpt lat="42.1299954504" lon="-0.4034019727">
        <ele>367.84</ele>
        <time>2022-04-14T05:53:43Z</time>
      </trkpt>
      <trkpt lat="42.1300073527" lon="-0.4034118634">
        <ele>365.92</ele>
        <time>2022-04-14T05:53:45Z</time>
      </trkpt>
      <trkpt lat="42.1301043313" lon="-0.4034497496">
        <ele>366.40</ele>
        <time>2022-04-14T05:54:01Z</time>
      </trkpt>
      <trkpt lat="42.1301273815" lon="-0.4035291262">
        <ele>366.88</ele>
        <time>2022-04-14T05:54:15Z</time>
      </trkpt>
      <trkpt lat="42.1302831173" lon="-0.4036323912">
        <ele>367.36</ele>
        <time>2022-04-14T05:54:30Z</time>
      </trkpt>
      <trkpt lat="42.1305701975" lon="-0.4037706088">
        <ele>367.36</ele>
        <time>2022-04-14T05:54:50Z</time>
      </trkpt>
      <trkpt lat="42.1308789868" lon="-0.4038582835">
        <ele>367.84</ele>
        <time>2022-04-14T05:55:06Z</time>
      </trkpt>
      <trkpt lat="42.1310472954" lon="-0.4037714470">
        <ele>368.32</ele>
        <time>2022-04-14T05:55:24Z</time>
      </trkpt>
      <trkpt lat="42.1311612893" lon="-0.4035722092">
        <ele>368.80</ele>
        <time>2022-04-14T05:55:44Z</time>
      </trkpt>
      <trkpt lat="42.1312325355" lon="-0.4036214110">
        <ele>368.80</ele>
        <time>2022-04-14T05:56:03Z</time>
      </trkpt>
      <trkpt lat="42.1312470362" lon="-0.4036140349">
        <ele>368.80</ele>
        <time>2022-04-14T05:56:04Z</time>
      </trkpt>
      <trkpt lat="42.1315137483" lon="-0.4037129413">
        <ele>369.28</ele>
        <time>2022-04-14T05:56:19Z</time>
      </trkpt>
      <trkpt lat="42.1315840725" lon="-0.4037491512">
        <ele>370.73</ele>
        <time>2022-04-14T05:56:23Z</time>
      </trkpt>
      <trkpt lat="42.1319441590" lon="-0.4039364029">
        <ele>370.24</ele>
        <time>2022-04-14T05:56:47Z</time>
      </trkpt>
      <trkpt lat="42.1321778465" lon="-0.4040628858">
        <ele>370.24</ele>
        <time>2022-04-14T05:57:00Z</time>
      </trkpt>
      <trkpt lat="42.1323345881" lon="-0.4042368103">
        <ele>370.73</ele>
        <time>2022-04-14T05:57:13Z</time>
      </trkpt>
      <trkpt lat="42.1323640924" lon="-0.4042426776">
        <ele>370.73</ele>
        <time>2022-04-14T05:57:16Z</time>
      </trkpt>
      <trkpt lat="42.1325646713" lon="-0.4043195397">
        <ele>371.21</ele>
        <time>2022-04-14T05:57:32Z</time>
      </trkpt>
      <trkpt lat="42.1327597182" lon="-0.4044275824">
        <ele>371.21</ele>
        <time>2022-04-14T05:57:48Z</time>
      </trkpt>
      <trkpt lat="42.1327976044" lon="-0.4044857528">
        <ele>371.21</ele>
        <time>2022-04-14T05:57:53Z</time>
      </trkpt>
      <trkpt lat="42.1328188945" lon="-0.4044924583">
        <ele>371.21</ele>
        <time>2022-04-14T05:57:55Z</time>
      </trkpt>
      <trkpt lat="42.1328992769" lon="-0.4045105632">
        <ele>372.65</ele>
        <time>2022-04-14T05:58:00Z</time>
      </trkpt>
      <trkpt lat="42.1330425236" lon="-0.4044946376">
        <ele>373.61</ele>
        <time>2022-04-14T05:58:12Z</time>
      </trkpt>
      <trkpt lat="42.1330757160" lon="-0.4044836573">
        <ele>373.61</ele>
        <time>2022-04-14T05:58:14Z</time>
      </trkpt>
      <trkpt lat="42.1331917215" lon="-0.4044182785">
        <ele>373.61</ele>
        <time>2022-04-14T05:58:24Z</time>
      </trkpt>
      <trkpt lat="42.1332555078" lon="-0.4042104073">
        <ele>374.09</ele>
        <time>2022-04-14T05:58:39Z</time>
      </trkpt>
      <trkpt lat="42.1333889477" lon="-0.4038661625">
        <ele>374.57</ele>
        <time>2022-04-14T05:58:53Z</time>
      </trkpt>
      <trkpt lat="42.1334547456" lon="-0.4036500771">
        <ele>374.57</ele>
        <time>2022-04-14T05:59:06Z</time>
      </trkpt>
      <trkpt lat="42.1335125808" lon="-0.4033370968">
        <ele>375.05</ele>
        <time>2022-04-14T05:59:22Z</time>
      </trkpt>
      <trkpt lat="42.1335340384" lon="-0.4032500926">
        <ele>375.05</ele>
        <time>2022-04-14T05:59:27Z</time>
      </trkpt>
      <trkpt lat="42.1335437614" lon="-0.4032215104">
        <ele>375.05</ele>
        <time>2022-04-14T05:59:29Z</time>
      </trkpt>
      <trkpt lat="42.1336171869" lon="-0.4031619150">
        <ele>375.05</ele>
        <time>2022-04-14T05:59:41Z</time>
      </trkpt>
      <trkpt lat="42.1337373834" lon="-0.4031840432">
        <ele>375.05</ele>
        <time>2022-04-14T05:59:56Z</time>
      </trkpt>
      <trkpt lat="42.1338303387" lon="-0.4032192472">
        <ele>375.05</ele>
        <time>2022-04-14T06:00:09Z</time>
      </trkpt>
      <trkpt lat="42.1338853240" lon="-0.4032305628">
        <ele>375.53</ele>
        <time>2022-04-14T06:00:15Z</time>
      </trkpt>
      <trkpt lat="42.1339004952" lon="-0.4032368492">
        <ele>375.53</ele>
        <time>2022-04-14T06:00:17Z</time>
      </trkpt>
      <trkpt lat="42.1340106335" lon="-0.4033047426">
        <ele>375.53</ele>
        <time>2022-04-14T06:00:28Z</time>
      </trkpt>
      <trkpt lat="42.1340870764" lon="-0.4032765795">
        <ele>376.01</ele>
        <time>2022-04-14T06:00:42Z</time>
      </trkpt>
      <trkpt lat="42.1340783592" lon="-0.4032081831">
        <ele>377.45</ele>
        <time>2022-04-14T06:00:54Z</time>
      </trkpt>
      <trkpt lat="42.1341031697" lon="-0.4031704646">
        <ele>377.45</ele>
        <time>2022-04-14T06:01:08Z</time>
      </trkpt>
      <trkpt lat="42.1341168322" lon="-0.4031628370">
        <ele>374.09</ele>
        <time>2022-04-14T06:01:13Z</time>
      </trkpt>
      <trkpt lat="42.1341197658" lon="-0.4031649325">
        <ele>374.09</ele>
        <time>2022-04-14T06:01:14Z</time>
      </trkpt>
      <trkpt lat="42.1341226157" lon="-0.4031674471">
        <ele>379.38</ele>
        <time>2022-04-14T06:01:15Z</time>
      </trkpt>
      <trkpt lat="42.1341255493" lon="-0.4031697940">
        <ele>375.05</ele>
        <time>2022-04-14T06:01:16Z</time>
      </trkpt>
      <trkpt lat="42.1341278125" lon="-0.4031662736">
        <ele>380.34</ele>
        <time>2022-04-14T06:01:17Z</time>
      </trkpt>
      <trkpt lat="42.1341289021" lon="-0.4031651840">
        <ele>377.94</ele>
        <time>2022-04-14T06:01:18Z</time>
      </trkpt>
      <trkpt lat="42.1341953706" lon="-0.4030754976">
        <ele>376.01</ele>
        <time>2022-04-14T06:01:36Z</time>
      </trkpt>
      <trkpt lat="42.1342325862" lon="-0.4030480050">
        <ele>378.90</ele>
        <time>2022-04-14T06:02:02Z</time>
      </trkpt>
      <trkpt lat="42.1342796925" lon="-0.4029796086">
        <ele>378.90</ele>
        <time>2022-04-14T06:02:27Z</time>
      </trkpt>
      <trkpt lat="42.1344572213" lon="-0.4029341787">
        <ele>379.38</ele>
        <time>2022-04-14T06:02:56Z</time>
      </trkpt>
      <trkpt lat="42.1343796887" lon="-0.4029490985">
        <ele>379.86</ele>
        <time>2022-04-14T06:03:20Z</time>
      </trkpt>
      <trkpt lat="42.1344785113" lon="-0.4027743358">
        <ele>380.34</ele>
        <time>2022-04-14T06:03:49Z</time>
      </trkpt>
      <trkpt lat="42.1345133800" lon="-0.4026823863">
        <ele>380.34</ele>
        <time>2022-04-14T06:04:29Z</time>
      </trkpt>
      <trkpt lat="42.1345397830" lon="-0.4026777763">
        <ele>380.34</ele>
        <time>2022-04-14T06:05:00Z</time>
      </trkpt>
      <trkpt lat="42.1344462410" lon="-0.4028849769">
        <ele>380.82</ele>
        <time>2022-04-14T06:05:17Z</time>
      </trkpt>
      <trkpt lat="42.1345194988" lon="-0.4030105378">
        <ele>379.86</ele>
        <time>2022-04-14T06:05:30Z</time>
      </trkpt>
      <trkpt lat="42.1345741488" lon="-0.4030185845">
        <ele>379.86</ele>
        <time>2022-04-14T06:05:35Z</time>
      </trkpt>
      <trkpt lat="42.1345884819" lon="-0.4030128010">
        <ele>379.86</ele>
        <time>2022-04-14T06:05:36Z</time>
      </trkpt>
      <trkpt lat="42.1346088499" lon="-0.4030097835">
        <ele>379.86</ele>
        <time>2022-04-14T06:05:38Z</time>
      </trkpt>
      <trkpt lat="42.1346190758" lon="-0.4030092806">
        <ele>379.86</ele>
        <time>2022-04-14T06:05:39Z</time>
      </trkpt>
      <trkpt lat="42.1346308105" lon="-0.4030046705">
        <ele>379.86</ele>
        <time>2022-04-14T06:05:40Z</time>
      </trkpt>
      <trkpt lat="42.1346843708" lon="-0.4029850569">
        <ele>379.86</ele>
        <time>2022-04-14T06:05:44Z</time>
      </trkpt>
      <trkpt lat="42.1346961055" lon="-0.4029892478">
        <ele>379.86</ele>
        <time>2022-04-14T06:05:45Z</time>
      </trkpt>
      <trkpt lat="42.1347243525" lon="-0.4030065145">
        <ele>379.86</ele>
        <time>2022-04-14T06:05:47Z</time>
      </trkpt>
      <trkpt lat="42.1348817647" lon="-0.4031295609">
        <ele>380.34</ele>
        <time>2022-04-14T06:06:01Z</time>
      </trkpt>
      <trkpt lat="42.1350109298" lon="-0.4032133799">
        <ele>380.34</ele>
        <time>2022-04-14T06:06:15Z</time>
      </trkpt>
      <trkpt lat="42.1351213194" lon="-0.4032538645">
        <ele>380.82</ele>
        <time>2022-04-14T06:06:28Z</time>
      </trkpt>
      <trkpt lat="42.1352527477" lon="-0.4032433033">
        <ele>380.82</ele>
        <time>2022-04-14T06:06:41Z</time>
      </trkpt>
      <trkpt lat="42.1352904662" lon="-0.4032420460">
        <ele>382.26</ele>
        <time>2022-04-14T06:06:44Z</time>
      </trkpt>
      <trkpt lat="42.1354305279" lon="-0.4032733105">
        <ele>382.26</ele>
        <time>2022-04-14T06:06:56Z</time>
      </trkpt>
      <trkpt lat="42.1354610380" lon="-0.4032762442">
        <ele>382.26</ele>
        <time>2022-04-14T06:06:59Z</time>
      </trkpt>
      <trkpt lat="42.1355427615" lon="-0.4032557085">
        <ele>382.74</ele>
        <time>2022-04-14T06:07:04Z</time>
      </trkpt>
      <trkpt lat="42.1356680710" lon="-0.4031974543">
        <ele>383.22</ele>
        <time>2022-04-14T06:07:17Z</time>
      </trkpt>
      <trkpt lat="42.1357515547" lon="-0.4032507632">
        <ele>383.70</ele>
        <time>2022-04-14T06:07:24Z</time>
      </trkpt>
      <trkpt lat="42.1358281653" lon="-0.4033389408">
        <ele>383.70</ele>
        <time>2022-04-14T06:07:36Z</time>
      </trkpt>
      <trkpt lat="42.1358756069" lon="-0.4035109375">
        <ele>384.66</ele>
        <time>2022-04-14T06:07:49Z</time>
      </trkpt>
      <trkpt lat="42.1358720027" lon="-0.4035479855">
        <ele>384.66</ele>
        <time>2022-04-14T06:08:00Z</time>
      </trkpt>
      <trkpt lat="42.1358927898" lon="-0.4035104346">
        <ele>385.15</ele>
        <time>2022-04-14T06:08:03Z</time>
      </trkpt>
      <trkpt lat="42.1361132339" lon="-0.4035920743">
        <ele>385.15</ele>
        <time>2022-04-14T06:08:14Z</time>
      </trkpt>
      <trkpt lat="42.1362648625" lon="-0.4036085028">
        <ele>385.15</ele>
        <time>2022-04-14T06:08:21Z</time>
      </trkpt>
      <trkpt lat="42.1364791039" lon="-0.4035958461">
        <ele>385.63</ele>
        <time>2022-04-14T06:08:40Z</time>
      </trkpt>
      <trkpt lat="42.1367590595" lon="-0.4035354126">
        <ele>385.63</ele>
        <time>2022-04-14T06:08:58Z</time>
      </trkpt>
      <trkpt lat="42.1370048169" lon="-0.4035144579">
        <ele>386.11</ele>
        <time>2022-04-14T06:09:16Z</time>
      </trkpt>
      <trkpt lat="42.1373387519" lon="-0.4034909885">
        <ele>386.11</ele>
        <time>2022-04-14T06:09:35Z</time>
      </trkpt>
      <trkpt lat="42.1373926476" lon="-0.4035556130">
        <ele>386.11</ele>
        <time>2022-04-14T06:09:44Z</time>
      </trkpt>
      <trkpt lat="42.1374173742" lon="-0.4035548586">
        <ele>386.11</ele>
        <time>2022-04-14T06:09:46Z</time>
      </trkpt>
      <trkpt lat="42.1375651471" lon="-0.4036752228">
        <ele>386.59</ele>
        <time>2022-04-14T06:10:00Z</time>
      </trkpt>
      <trkpt lat="42.1376701724" lon="-0.4037813377">
        <ele>386.59</ele>
        <time>2022-04-14T06:10:09Z</time>
      </trkpt>
      <trkpt lat="42.1377878543" lon="-0.4038417712">
        <ele>386.59</ele>
        <time>2022-04-14T06:10:16Z</time>
      </trkpt>
      <trkpt lat="42.1378907003" lon="-0.4040106665">
        <ele>387.07</ele>
        <time>2022-04-14T06:10:30Z</time>
      </trkpt>
      <trkpt lat="42.1380098071" lon="-0.4040338006">
        <ele>387.55</ele>
        <time>2022-04-14T06:10:40Z</time>
      </trkpt>
      <trkpt lat="42.1381747629" lon="-0.4041040409">
        <ele>388.03</ele>
        <time>2022-04-14T06:10:56Z</time>
      </trkpt>
      <trkpt lat="42.1382188518" lon="-0.4042060487">
        <ele>388.99</ele>
        <time>2022-04-14T06:11:07Z</time>
      </trkpt>
      <trkpt lat="42.1382943727" lon="-0.4042704217">
        <ele>389.95</ele>
        <time>2022-04-14T06:11:13Z</time>
      </trkpt>
      <trkpt lat="42.1384227835" lon="-0.4045829829">
        <ele>390.91</ele>
        <time>2022-04-14T06:11:28Z</time>
      </trkpt>
      <trkpt lat="42.1384590771" lon="-0.4046052787">
        <ele>390.91</ele>
        <time>2022-04-14T06:11:30Z</time>
      </trkpt>
      <trkpt lat="42.1384597477" lon="-0.4047182668">
        <ele>390.91</ele>
        <time>2022-04-14T06:11:35Z</time>
      </trkpt>
      <trkpt lat="42.1385149844" lon="-0.4047825560">
        <ele>390.91</ele>
        <time>2022-04-14T06:11:40Z</time>
      </trkpt>
      <trkpt lat="42.1385478415" lon="-0.4047982302">
        <ele>390.91</ele>
        <time>2022-04-14T06:11:42Z</time>
      </trkpt>
      <trkpt lat="42.1385739092" lon="-0.4048514552">
        <ele>390.91</ele>
        <time>2022-04-14T06:11:45Z</time>
      </trkpt>
      <trkpt lat="42.1385916788" lon="-0.4048664588">
        <ele>390.91</ele>
        <time>2022-04-14T06:11:46Z</time>
      </trkpt>
      <trkpt lat="42.1386667807" lon="-0.4051690456">
        <ele>391.87</ele>
        <time>2022-04-14T06:12:02Z</time>
      </trkpt>
      <trkpt lat="42.1387069300" lon="-0.4052503500">
        <ele>389.95</ele>
        <time>2022-04-14T06:12:08Z</time>
      </trkpt>
      <trkpt lat="42.1387078520" lon="-0.4052572232">
        <ele>393.32</ele>
        <time>2022-04-14T06:12:09Z</time>
      </trkpt>
      <trkpt lat="42.1387142222" lon="-0.4052915890">
        <ele>392.36</ele>
        <time>2022-04-14T06:12:12Z</time>
      </trkpt>
      <trkpt lat="42.1386031620" lon="-0.4055026453">
        <ele>393.80</ele>
        <time>2022-04-14T06:12:25Z</time>
      </trkpt>
      <trkpt lat="42.1386813652" lon="-0.4054117016">
        <ele>392.84</ele>
        <time>2022-04-14T06:12:35Z</time>
      </trkpt>
      <trkpt lat="42.1388066746" lon="-0.4053003900">
        <ele>392.84</ele>
        <time>2022-04-14T06:12:43Z</time>
      </trkpt>
      <trkpt lat="42.1388401184" lon="-0.4052790161">
        <ele>393.32</ele>
        <time>2022-04-14T06:12:45Z</time>
      </trkpt>
      <trkpt lat="42.1390450560" lon="-0.4051867314">
        <ele>393.80</ele>
        <time>2022-04-14T06:13:02Z</time>
      </trkpt>
      <trkpt lat="42.1391427889" lon="-0.4051739071">
        <ele>394.28</ele>
        <time>2022-04-14T06:13:20Z</time>
      </trkpt>
      <trkpt lat="42.1392590459" lon="-0.4050917644">
        <ele>394.28</ele>
        <time>2022-04-14T06:13:27Z</time>
      </trkpt>
      <trkpt lat="42.1394653246" lon="-0.4050018266">
        <ele>394.28</ele>
        <time>2022-04-14T06:13:39Z</time>
      </trkpt>
      <trkpt lat="42.1395260096" lon="-0.4049927741">
        <ele>394.28</ele>
        <time>2022-04-14T06:13:43Z</time>
      </trkpt>
      <trkpt lat="42.1396190487" lon="-0.4049326759">
        <ele>394.76</ele>
        <time>2022-04-14T06:13:49Z</time>
      </trkpt>
      <trkpt lat="42.1396589465" lon="-0.4049272276">
        <ele>394.76</ele>
        <time>2022-04-14T06:13:53Z</time>
      </trkpt>
      <trkpt lat="42.1397177875" lon="-0.4048731644">
        <ele>394.76</ele>
        <time>2022-04-14T06:13:58Z</time>
      </trkpt>
      <trkpt lat="42.1397941466" lon="-0.4047963861">
        <ele>395.24</ele>
        <time>2022-04-14T06:14:07Z</time>
      </trkpt>
      <trkpt lat="42.1398013551" lon="-0.4047990683">
        <ele>395.24</ele>
        <time>2022-04-14T06:14:08Z</time>
      </trkpt>
      <trkpt lat="42.1398204658" lon="-0.4047765210">
        <ele>395.24</ele>
        <time>2022-04-14T06:14:10Z</time>
      </trkpt>
      <trkpt lat="42.1398503892" lon="-0.4047351982">
        <ele>396.20</ele>
        <time>2022-04-14T06:14:13Z</time>
      </trkpt>
      <trkpt lat="42.1399481222" lon="-0.4049604200">
        <ele>396.68</ele>
        <time>2022-04-14T06:14:21Z</time>
      </trkpt>
      <trkpt lat="42.1400002576" lon="-0.4049309995">
        <ele>396.68</ele>
        <time>2022-04-14T06:14:28Z</time>
      </trkpt>
      <trkpt lat="42.1401046962" lon="-0.4047750961">
        <ele>397.16</ele>
        <time>2022-04-14T06:14:41Z</time>
      </trkpt>
      <trkpt lat="42.1401473600" lon="-0.4047320969">
        <ele>397.64</ele>
        <time>2022-04-14T06:14:46Z</time>
      </trkpt>
      <trkpt lat="42.1403014194" lon="-0.4046644550">
        <ele>397.64</ele>
        <time>2022-04-14T06:14:59Z</time>
      </trkpt>
      <trkpt lat="42.1405564807" lon="-0.4048600048">
        <ele>397.64</ele>
        <time>2022-04-14T06:15:14Z</time>
      </trkpt>
      <trkpt lat="42.1408386994" lon="-0.4051212687">
        <ele>397.64</ele>
        <time>2022-04-14T06:15:30Z</time>
      </trkpt>
      <trkpt lat="42.1410780866" lon="-0.4051704705">
        <ele>398.12</ele>
        <time>2022-04-14T06:15:45Z</time>
      </trkpt>
      <trkpt lat="42.1412914898" lon="-0.4052522779">
        <ele>398.12</ele>
        <time>2022-04-14T06:16:00Z</time>
      </trkpt>
      <trkpt lat="42.1415586211" lon="-0.4053282179">
        <ele>398.60</ele>
        <time>2022-04-14T06:16:17Z</time>
      </trkpt>
      <trkpt lat="42.1416531689" lon="-0.4053479154">
        <ele>398.60</ele>
        <time>2022-04-14T06:16:23Z</time>
      </trkpt>
      <trkpt lat="42.1418870240" lon="-0.4054247774">
        <ele>399.08</ele>
        <time>2022-04-14T06:16:40Z</time>
      </trkpt>
      <trkpt lat="42.1421289258" lon="-0.4055067524">
        <ele>398.12</ele>
        <time>2022-04-14T06:16:57Z</time>
      </trkpt>
      <trkpt lat="42.1422674786" lon="-0.4055229295">
        <ele>397.64</ele>
        <time>2022-04-14T06:17:07Z</time>
      </trkpt>
      <trkpt lat="42.1424692310" lon="-0.4056960158">
        <ele>398.12</ele>
        <time>2022-04-14T06:17:24Z</time>
      </trkpt>
      <trkpt lat="42.1424907725" lon="-0.4057106841">
        <ele>398.12</ele>
        <time>2022-04-14T06:17:26Z</time>
      </trkpt>
      <trkpt lat="42.1425404772" lon="-0.4057339020">
        <ele>398.60</ele>
        <time>2022-04-14T06:17:30Z</time>
      </trkpt>
      <trkpt lat="42.1425633598" lon="-0.4057438765">
        <ele>398.60</ele>
        <time>2022-04-14T06:17:32Z</time>
      </trkpt>
      <trkpt lat="42.1426496934" lon="-0.4057606403">
        <ele>398.60</ele>
        <time>2022-04-14T06:17:38Z</time>
      </trkpt>
      <trkpt lat="42.1427490190" lon="-0.4057841934">
        <ele>398.60</ele>
        <time>2022-04-14T06:17:45Z</time>
      </trkpt>
      <trkpt lat="42.1428341791" lon="-0.4058497399">
        <ele>399.08</ele>
        <time>2022-04-14T06:17:52Z</time>
      </trkpt>
      <trkpt lat="42.1431044117" lon="-0.4060671665">
        <ele>399.57</ele>
        <time>2022-04-14T06:18:13Z</time>
      </trkpt>
      <trkpt lat="42.1433206648" lon="-0.4061747901">
        <ele>400.05</ele>
        <time>2022-04-14T06:18:30Z</time>
      </trkpt>
      <trkpt lat="42.1435297932" lon="-0.4063254967">
        <ele>400.53</ele>
        <time>2022-04-14T06:18:48Z</time>
      </trkpt>
      <trkpt lat="42.1435432881" lon="-0.4063757043">
        <ele>400.53</ele>
        <time>2022-04-14T06:18:52Z</time>
      </trkpt>
      <trkpt lat="42.1436934080" lon="-0.4066223837">
        <ele>400.53</ele>
        <time>2022-04-14T06:19:08Z</time>
      </trkpt>
      <trkpt lat="42.1437191404" lon="-0.4066724237">
        <ele>401.97</ele>
        <time>2022-04-14T06:19:11Z</time>
      </trkpt>
      <trkpt lat="42.1437789034" lon="-0.4068289138">
        <ele>402.45</ele>
        <time>2022-04-14T06:19:22Z</time>
      </trkpt>
      <trkpt lat="42.1438580286" lon="-0.4071207717">
        <ele>403.89</ele>
        <time>2022-04-14T06:19:38Z</time>
      </trkpt>
      <trkpt lat="42.1438999381" lon="-0.4073901661">
        <ele>404.85</ele>
        <time>2022-04-14T06:19:53Z</time>
      </trkpt>
      <trkpt lat="42.1439247485" lon="-0.4076307267">
        <ele>405.33</ele>
        <time>2022-04-14T06:20:06Z</time>
      </trkpt>
      <trkpt lat="42.1439862717" lon="-0.4078427888">
        <ele>404.85</ele>
        <time>2022-04-14T06:20:21Z</time>
      </trkpt>
      <trkpt lat="42.1440759581" lon="-0.4080667533">
        <ele>404.85</ele>
        <time>2022-04-14T06:20:34Z</time>
      </trkpt>
      <trkpt lat="42.1441279259" lon="-0.4082478024">
        <ele>405.33</ele>
        <time>2022-04-14T06:20:45Z</time>
      </trkpt>
      <trkpt lat="42.1441302728" lon="-0.4082704335">
        <ele>405.33</ele>
        <time>2022-04-14T06:20:46Z</time>
      </trkpt>
      <trkpt lat="42.1442129184" lon="-0.4084949009">
        <ele>405.81</ele>
        <time>2022-04-14T06:21:00Z</time>
      </trkpt>
      <trkpt lat="42.1442899480" lon="-0.4087748565">
        <ele>406.29</ele>
        <time>2022-04-14T06:21:15Z</time>
      </trkpt>
      <trkpt lat="42.1443286724" lon="-0.4089082964">
        <ele>406.29</ele>
        <time>2022-04-14T06:21:25Z</time>
      </trkpt>
      <trkpt lat="42.1443504654" lon="-0.4090680555">
        <ele>406.77</ele>
        <time>2022-04-14T06:21:31Z</time>
      </trkpt>
      <trkpt lat="42.1443647146" lon="-0.4091679677">
        <ele>406.77</ele>
        <time>2022-04-14T06:21:37Z</time>
      </trkpt>
      <trkpt lat="42.1444179397" lon="-0.4094811995">
        <ele>407.26</ele>
        <time>2022-04-14T06:21:52Z</time>
      </trkpt>
      <trkpt lat="42.1444625314" lon="-0.4097572993">
        <ele>407.74</ele>
        <time>2022-04-14T06:22:07Z</time>
      </trkpt>
      <trkpt lat="42.1444868390" lon="-0.4099674337">
        <ele>409.18</ele>
        <time>2022-04-14T06:22:19Z</time>
      </trkpt>
      <trkpt lat="42.1444858331" lon="-0.4099948425">
        <ele>409.66</ele>
        <time>2022-04-14T06:22:21Z</time>
      </trkpt>
      <trkpt lat="42.1444626153" lon="-0.4101579543">
        <ele>411.10</ele>
        <time>2022-04-14T06:22:31Z</time>
      </trkpt>
      <trkpt lat="42.1445422433" lon="-0.4103109241">
        <ele>412.06</ele>
        <time>2022-04-14T06:22:44Z</time>
      </trkpt>
      <trkpt lat="42.1445709094" lon="-0.4104394186">
        <ele>412.06</ele>
        <time>2022-04-14T06:22:56Z</time>
      </trkpt>
      <trkpt lat="42.1447754279" lon="-0.4106324539">
        <ele>412.54</ele>
        <time>2022-04-14T06:23:11Z</time>
      </trkpt>
      <trkpt lat="42.1448371187" lon="-0.4106814880">
        <ele>412.54</ele>
        <time>2022-04-14T06:23:16Z</time>
      </trkpt>
      <trkpt lat="42.1448395494" lon="-0.4109470267">
        <ele>413.02</ele>
        <time>2022-04-14T06:23:31Z</time>
      </trkpt>
      <trkpt lat="42.1448417287" lon="-0.4109644610">
        <ele>413.02</ele>
        <time>2022-04-14T06:23:32Z</time>
      </trkpt>
      <trkpt lat="42.1447990648" lon="-0.4110271577">
        <ele>411.58</ele>
        <time>2022-04-14T06:23:39Z</time>
      </trkpt>
      <trkpt lat="42.1447479352" lon="-0.4110253137">
        <ele>411.10</ele>
        <time>2022-04-14T06:23:45Z</time>
      </trkpt>
      <trkpt lat="42.1447284054" lon="-0.4110398144">
        <ele>411.10</ele>
        <time>2022-04-14T06:23:47Z</time>
      </trkpt>
      <trkpt lat="42.1446479391" lon="-0.4112389684">
        <ele>411.58</ele>
        <time>2022-04-14T06:24:01Z</time>
      </trkpt>
      <trkpt lat="42.1446766052" lon="-0.4115054291">
        <ele>412.06</ele>
        <time>2022-04-14T06:24:16Z</time>
      </trkpt>
      <trkpt lat="42.1447197720" lon="-0.4117335845">
        <ele>412.54</ele>
        <time>2022-04-14T06:24:29Z</time>
      </trkpt>
      <trkpt lat="42.1447386313" lon="-0.4119210877">
        <ele>412.54</ele>
        <time>2022-04-14T06:24:39Z</time>
      </trkpt>
      <trkpt lat="42.1447119769" lon="-0.4121584632">
        <ele>413.02</ele>
        <time>2022-04-14T06:24:51Z</time>
      </trkpt>
      <trkpt lat="42.1446541417" lon="-0.4124204814">
        <ele>413.50</ele>
        <time>2022-04-14T06:25:06Z</time>
      </trkpt>
      <trkpt lat="42.1446148306" lon="-0.4126140196">
        <ele>413.98</ele>
        <time>2022-04-14T06:25:18Z</time>
      </trkpt>
      <trkpt lat="42.1445808839" lon="-0.4128415044">
        <ele>414.47</ele>
        <time>2022-04-14T06:25:33Z</time>
      </trkpt>
      <trkpt lat="42.1445507091" lon="-0.4130631220">
        <ele>414.95</ele>
        <time>2022-04-14T06:25:46Z</time>
      </trkpt>
      <trkpt lat="42.1445038542" lon="-0.4131786246">
        <ele>414.95</ele>
        <time>2022-04-14T06:25:53Z</time>
      </trkpt>
      <trkpt lat="42.1444914490" lon="-0.4134349432">
        <ele>415.43</ele>
        <time>2022-04-14T06:26:07Z</time>
      </trkpt>
      <trkpt lat="42.1445489489" lon="-0.4136548005">
        <ele>415.91</ele>
        <time>2022-04-14T06:26:21Z</time>
      </trkpt>
      <trkpt lat="42.1446733363" lon="-0.4138464946">
        <ele>416.39</ele>
        <time>2022-04-14T06:26:36Z</time>
      </trkpt>
      <trkpt lat="42.1448186785" lon="-0.4139982071">
        <ele>417.35</ele>
        <time>2022-04-14T06:26:51Z</time>
      </trkpt>
      <trkpt lat="42.1449288167" lon="-0.4141298868">
        <ele>417.35</ele>
        <time>2022-04-14T06:27:03Z</time>
      </trkpt>
      <trkpt lat="42.1450318303" lon="-0.4143620655">
        <ele>417.83</ele>
        <time>2022-04-14T06:27:16Z</time>
      </trkpt>
      <trkpt lat="42.1451030765" lon="-0.4144949187">
        <ele>417.83</ele>
        <time>2022-04-14T06:27:27Z</time>
      </trkpt>
      <trkpt lat="42.1452032402" lon="-0.4146588687">
        <ele>418.31</ele>
        <time>2022-04-14T06:27:41Z</time>
      </trkpt>
      <trkpt lat="42.1452908311" lon="-0.4148721881">
        <ele>418.79</ele>
        <time>2022-04-14T06:27:58Z</time>
      </trkpt>
      <trkpt lat="42.1452995483" lon="-0.4148752894">
        <ele>414.47</ele>
        <time>2022-04-14T06:27:59Z</time>
      </trkpt>
      <trkpt lat="42.1453017276" lon="-0.4148793127">
        <ele>417.83</ele>
        <time>2022-04-14T06:28:00Z</time>
      </trkpt>
      <trkpt lat="42.1453070920" lon="-0.4148767982">
        <ele>419.27</ele>
        <time>2022-04-14T06:28:01Z</time>
      </trkpt>
      <trkpt lat="42.1454184037" lon="-0.4149218090">
        <ele>417.83</ele>
        <time>2022-04-14T06:28:26Z</time>
      </trkpt>
      <trkpt lat="42.1454381850" lon="-0.4150447715">
        <ele>418.31</ele>
        <time>2022-04-14T06:28:57Z</time>
      </trkpt>
      <trkpt lat="42.1454585530" lon="-0.4150842503">
        <ele>419.75</ele>
        <time>2022-04-14T06:29:03Z</time>
      </trkpt>
      <trkpt lat="42.1455196571" lon="-0.4149744473">
        <ele>420.71</ele>
        <time>2022-04-14T06:29:24Z</time>
      </trkpt>
      <trkpt lat="42.1455727983" lon="-0.4148894548">
        <ele>419.75</ele>
        <time>2022-04-14T06:29:52Z</time>
      </trkpt>
      <trkpt lat="42.1456640773" lon="-0.4148579389">
        <ele>421.68</ele>
        <time>2022-04-14T06:30:18Z</time>
      </trkpt>
      <trkpt lat="42.1455581300" lon="-0.4149041232">
        <ele>420.71</ele>
        <time>2022-04-14T06:30:42Z</time>
      </trkpt>
      <trkpt lat="42.1455003787" lon="-0.4149454460">
        <ele>421.68</ele>
        <time>2022-04-14T06:31:05Z</time>
      </trkpt>
      <trkpt lat="42.1455515083" lon="-0.4148750380">
        <ele>423.12</ele>
        <time>2022-04-14T06:31:28Z</time>
      </trkpt>
      <trkpt lat="42.1455902327" lon="-0.4149917141">
        <ele>425.04</ele>
        <time>2022-04-14T06:31:45Z</time>
      </trkpt>
      <trkpt lat="42.1457444597" lon="-0.4150866810">
        <ele>425.52</ele>
        <time>2022-04-14T06:31:57Z</time>
      </trkpt>
      <trkpt lat="42.1458101738" lon="-0.4153109808">
        <ele>425.52</ele>
        <time>2022-04-14T06:32:10Z</time>
      </trkpt>
      <trkpt lat="42.1458386723" lon="-0.4155685566">
        <ele>426.48</ele>
        <time>2022-04-14T06:32:25Z</time>
      </trkpt>
      <trkpt lat="42.1458418574" lon="-0.4155949596">
        <ele>426.48</ele>
        <time>2022-04-14T06:32:27Z</time>
      </trkpt>
      <trkpt lat="42.1459120139" lon="-0.4158538766">
        <ele>426.96</ele>
        <time>2022-04-14T06:32:42Z</time>
      </trkpt>
      <trkpt lat="42.1460059751" lon="-0.4160128813">
        <ele>427.44</ele>
        <time>2022-04-14T06:32:53Z</time>
      </trkpt>
      <trkpt lat="42.1460659895" lon="-0.4161685333">
        <ele>427.92</ele>
        <time>2022-04-14T06:33:03Z</time>
      </trkpt>
      <trkpt lat="42.1461083181" lon="-0.4162643384">
        <ele>428.40</ele>
        <time>2022-04-14T06:33:09Z</time>
      </trkpt>
      <trkpt lat="42.1461241599" lon="-0.4162878916">
        <ele>428.40</ele>
        <time>2022-04-14T06:33:11Z</time>
      </trkpt>
      <trkpt lat="42.1461669076" lon="-0.4164087586">
        <ele>428.89</ele>
        <time>2022-04-14T06:33:18Z</time>
      </trkpt>
      <trkpt lat="42.1461870242" lon="-0.4164779093">
        <ele>429.37</ele>
        <time>2022-04-14T06:33:23Z</time>
      </trkpt>
      <trkpt lat="42.1462761238" lon="-0.4167276062">
        <ele>430.33</ele>
        <time>2022-04-14T06:33:38Z</time>
      </trkpt>
      <trkpt lat="42.1463301871" lon="-0.4168870300">
        <ele>430.81</ele>
        <time>2022-04-14T06:33:48Z</time>
      </trkpt>
      <trkpt lat="42.1463834122" lon="-0.4171283450">
        <ele>432.25</ele>
        <time>2022-04-14T06:34:03Z</time>
      </trkpt>
      <trkpt lat="42.1464517247" lon="-0.4173371382">
        <ele>433.21</ele>
        <time>2022-04-14T06:34:16Z</time>
      </trkpt>
      <trkpt lat="42.1465316880" lon="-0.4175313469">
        <ele>433.69</ele>
        <time>2022-04-14T06:34:29Z</time>
      </trkpt>
      <trkpt lat="42.1466310136" lon="-0.4177089594">
        <ele>433.69</ele>
        <time>2022-04-14T06:34:41Z</time>
      </trkpt>
      <trkpt lat="42.1466411557" lon="-0.4177336022">
        <ele>434.17</ele>
        <time>2022-04-14T06:34:43Z</time>
      </trkpt>
      <trkpt lat="42.1467294171" lon="-0.4179677926">
        <ele>434.65</ele>
        <time>2022-04-14T06:34:58Z</time>
      </trkpt>
      <trkpt lat="42.1468009148" lon="-0.4182248656">
        <ele>434.65</ele>
        <time>2022-04-14T06:35:13Z</time>
      </trkpt>
      <trkpt lat="42.1468856558" lon="-0.4184420407">
        <ele>435.61</ele>
        <time>2022-04-14T06:35:26Z</time>
      </trkpt>
      <trkpt lat="42.1469603386" lon="-0.4186738003">
        <ele>436.10</ele>
        <time>2022-04-14T06:35:41Z</time>
      </trkpt>
      <trkpt lat="42.1470478456" lon="-0.4189237487">
        <ele>436.10</ele>
        <time>2022-04-14T06:35:56Z</time>
      </trkpt>
      <trkpt lat="42.1471464168" lon="-0.4192099907">
        <ele>436.58</ele>
        <time>2022-04-14T06:36:13Z</time>
      </trkpt>
      <trkpt lat="42.1472221892" lon="-0.4194113240">
        <ele>437.54</ele>
        <time>2022-04-14T06:36:26Z</time>
      </trkpt>
      <trkpt lat="42.1473127138" lon="-0.4196026828">
        <ele>437.54</ele>
        <time>2022-04-14T06:36:39Z</time>
      </trkpt>
      <trkpt lat="42.1474604867" lon="-0.4198479373">
        <ele>438.02</ele>
        <time>2022-04-14T06:36:56Z</time>
      </trkpt>
      <trkpt lat="42.1475980338" lon="-0.4200471751">
        <ele>438.02</ele>
        <time>2022-04-14T06:37:11Z</time>
      </trkpt>
      <trkpt lat="42.1477390174" lon="-0.4202506039">
        <ele>438.98</ele>
        <time>2022-04-14T06:37:26Z</time>
      </trkpt>
      <trkpt lat="42.1478805039" lon="-0.4204430524">
        <ele>438.98</ele>
        <time>2022-04-14T06:37:40Z</time>
      </trkpt>
      <trkpt lat="42.1479911450" lon="-0.4206093494">
        <ele>439.46</ele>
        <time>2022-04-14T06:37:54Z</time>
      </trkpt>
      <trkpt lat="42.1481037978" lon="-0.4208252672">
        <ele>439.46</ele>
        <time>2022-04-14T06:38:09Z</time>
      </trkpt>
      <trkpt lat="42.1481823362" lon="-0.4209993593">
        <ele>439.94</ele>
        <time>2022-04-14T06:38:20Z</time>
      </trkpt>
      <trkpt lat="42.1481996030" lon="-0.4210977629">
        <ele>439.94</ele>
        <time>2022-04-14T06:38:25Z</time>
      </trkpt>
      <trkpt lat="42.1483249124" lon="-0.4213148542">
        <ele>439.94</ele>
        <time>2022-04-14T06:38:39Z</time>
      </trkpt>
      <trkpt lat="42.1484308597" lon="-0.4215270840">
        <ele>440.42</ele>
        <time>2022-04-14T06:38:53Z</time>
      </trkpt>
      <trkpt lat="42.1485318616" lon="-0.4217744339">
        <ele>440.90</ele>
        <time>2022-04-14T06:39:07Z</time>
      </trkpt>
      <trkpt lat="42.1485528164" lon="-0.4218308441">
        <ele>440.90</ele>
        <time>2022-04-14T06:39:11Z</time>
      </trkpt>
      <trkpt lat="42.1486376412" lon="-0.4220610112">
        <ele>441.86</ele>
        <time>2022-04-14T06:39:25Z</time>
      </trkpt>
      <trkpt lat="42.1487309318" lon="-0.4223348480">
        <ele>442.82</ele>
        <time>2022-04-14T06:39:41Z</time>
      </trkpt>
      <trkpt lat="42.1488196123" lon="-0.4225771688">
        <ele>442.82</ele>
        <time>2022-04-14T06:39:56Z</time>
      </trkpt>
      <trkpt lat="42.1488525532" lon="-0.4226706270">
        <ele>442.82</ele>
        <time>2022-04-14T06:40:01Z</time>
      </trkpt>
      <trkpt lat="42.1488751844" lon="-0.4227498360">
        <ele>443.31</ele>
        <time>2022-04-14T06:40:06Z</time>
      </trkpt>
      <trkpt lat="42.1488771122" lon="-0.4227959365">
        <ele>443.31</ele>
        <time>2022-04-14T06:40:09Z</time>
      </trkpt>
      <trkpt lat="42.1489804611" lon="-0.4230197333">
        <ele>444.27</ele>
        <time>2022-04-14T06:40:22Z</time>
      </trkpt>
      <trkpt lat="42.1490469296" lon="-0.4232295323">
        <ele>444.27</ele>
        <time>2022-04-14T06:40:35Z</time>
      </trkpt>
      <trkpt lat="42.1491581574" lon="-0.4234623816">
        <ele>444.75</ele>
        <time>2022-04-14T06:40:50Z</time>
      </trkpt>
      <trkpt lat="42.1492608357" lon="-0.4236690793">
        <ele>444.75</ele>
        <time>2022-04-14T06:41:04Z</time>
      </trkpt>
      <trkpt lat="42.1493555512" lon="-0.4238627013">
        <ele>445.23</ele>
        <time>2022-04-14T06:41:17Z</time>
      </trkpt>
      <trkpt lat="42.1494588163" lon="-0.4241076205">
        <ele>445.23</ele>
        <time>2022-04-14T06:41:32Z</time>
      </trkpt>
      <trkpt lat="42.1495861374" lon="-0.4243470076">
        <ele>445.71</ele>
        <time>2022-04-14T06:41:48Z</time>
      </trkpt>
      <trkpt lat="42.1496873908" lon="-0.4245531186">
        <ele>446.19</ele>
        <time>2022-04-14T06:42:02Z</time>
      </trkpt>
      <trkpt lat="42.1496951021" lon="-0.4245660268">
        <ele>446.19</ele>
        <time>2022-04-14T06:42:03Z</time>
      </trkpt>
      <trkpt lat="42.1496984549" lon="-0.4245849699">
        <ele>446.19</ele>
        <time>2022-04-14T06:42:04Z</time>
      </trkpt>
      <trkpt lat="42.1497199964" lon="-0.4246367700">
        <ele>446.19</ele>
        <time>2022-04-14T06:42:07Z</time>
      </trkpt>
      <trkpt lat="42.1497919131" lon="-0.4248535261">
        <ele>446.67</ele>
        <time>2022-04-14T06:42:21Z</time>
      </trkpt>
      <trkpt lat="42.1498188190" lon="-0.4249138758">
        <ele>446.67</ele>
        <time>2022-04-14T06:42:26Z</time>
      </trkpt>
      <trkpt lat="42.1499075834" lon="-0.4251361638">
        <ele>446.67</ele>
        <time>2022-04-14T06:42:41Z</time>
      </trkpt>
      <trkpt lat="42.1499732137" lon="-0.4253476392">
        <ele>447.15</ele>
        <time>2022-04-14T06:42:54Z</time>
      </trkpt>
      <trkpt lat="42.1500685997" lon="-0.4255591147">
        <ele>447.63</ele>
        <time>2022-04-14T06:43:15Z</time>
      </trkpt>
      <trkpt lat="42.1502445359" lon="-0.4262357019">
        <ele>448.11</ele>
        <time>2022-04-14T06:43:34Z</time>
      </trkpt>
      <trkpt lat="42.1503131837" lon="-0.4260974005">
        <ele>448.59</ele>
        <time>2022-04-14T06:43:45Z</time>
      </trkpt>
      <trkpt lat="42.1504778881" lon="-0.4259756953">
        <ele>449.55</ele>
        <time>2022-04-14T06:43:58Z</time>
      </trkpt>
      <trkpt lat="42.1505076438" lon="-0.4259363841">
        <ele>449.55</ele>
        <time>2022-04-14T06:44:01Z</time>
      </trkpt>
      <trkpt lat="42.1505462844" lon="-0.4258658923">
        <ele>449.55</ele>
        <time>2022-04-14T06:44:05Z</time>
      </trkpt>
      <trkpt lat="42.1506560873" lon="-0.4257846717">
        <ele>450.03</ele>
        <time>2022-04-14T06:44:23Z</time>
      </trkpt>
      <trkpt lat="42.1506499685" lon="-0.4257681593">
        <ele>450.52</ele>
        <time>2022-04-14T06:44:42Z</time>
      </trkpt>
      <trkpt lat="42.1507169399" lon="-0.4256959073">
        <ele>450.52</ele>
        <time>2022-04-14T06:44:48Z</time>
      </trkpt>
      <trkpt lat="42.1508893557" lon="-0.4255273473">
        <ele>451.48</ele>
        <time>2022-04-14T06:45:05Z</time>
      </trkpt>
      <trkpt lat="42.1510068700" lon="-0.4254182987">
        <ele>451.96</ele>
        <time>2022-04-14T06:45:16Z</time>
      </trkpt>
      <trkpt lat="42.1511349455" lon="-0.4253449570">
        <ele>453.40</ele>
        <time>2022-04-14T06:45:27Z</time>
      </trkpt>
      <trkpt lat="42.1512743365" lon="-0.4252323043">
        <ele>453.40</ele>
        <time>2022-04-14T06:45:39Z</time>
      </trkpt>
      <trkpt lat="42.1513616759" lon="-0.4251333140">
        <ele>453.40</ele>
        <time>2022-04-14T06:45:47Z</time>
      </trkpt>
      <trkpt lat="42.1514159907" lon="-0.4250792507">
        <ele>453.88</ele>
        <time>2022-04-14T06:45:53Z</time>
      </trkpt>
      <trkpt lat="42.1514455788" lon="-0.4250662588">
        <ele>453.88</ele>
        <time>2022-04-14T06:45:55Z</time>
      </trkpt>
      <trkpt lat="42.1515793540" lon="-0.4249757342">
        <ele>453.88</ele>
        <time>2022-04-14T06:46:07Z</time>
      </trkpt>
      <trkpt lat="42.1517188288" lon="-0.4248658475">
        <ele>454.36</ele>
        <time>2022-04-14T06:46:19Z</time>
      </trkpt>
      <trkpt lat="42.1518568788" lon="-0.4247577209">
        <ele>454.84</ele>
        <time>2022-04-14T06:46:31Z</time>
      </trkpt>
      <trkpt lat="42.1520261932" lon="-0.4246408772">
        <ele>454.84</ele>
        <time>2022-04-14T06:46:44Z</time>
      </trkpt>
      <trkpt lat="42.1521470603" lon="-0.4245530348">
        <ele>455.32</ele>
        <time>2022-04-14T06:46:54Z</time>
      </trkpt>
      <trkpt lat="42.1522535104" lon="-0.4244797770">
        <ele>455.32</ele>
        <time>2022-04-14T06:47:03Z</time>
      </trkpt>
      <trkpt lat="42.1523119323" lon="-0.4244236182">
        <ele>455.32</ele>
        <time>2022-04-14T06:47:08Z</time>
      </trkpt>
      <trkpt lat="42.1524607949" lon="-0.4243473429">
        <ele>455.80</ele>
        <time>2022-04-14T06:47:20Z</time>
      </trkpt>
      <trkpt lat="42.1524912212" lon="-0.4243369494">
        <ele>455.80</ele>
        <time>2022-04-14T06:47:23Z</time>
      </trkpt>
      <trkpt lat="42.1526288521" lon="-0.4242413118">
        <ele>455.80</ele>
        <time>2022-04-14T06:47:34Z</time>
      </trkpt>
      <trkpt lat="42.1527596097" lon="-0.4241276532">
        <ele>456.28</ele>
        <time>2022-04-14T06:47:46Z</time>
      </trkpt>
      <trkpt lat="42.1528798901" lon="-0.4240579996">
        <ele>456.28</ele>
        <time>2022-04-14T06:47:56Z</time>
      </trkpt>
      <trkpt lat="42.1531104762" lon="-0.4239585903">
        <ele>456.28</ele>
        <time>2022-04-14T06:48:12Z</time>
      </trkpt>
      <trkpt lat="42.1531845722" lon="-0.4239246435">
        <ele>456.76</ele>
        <time>2022-04-14T06:48:18Z</time>
      </trkpt>
      <trkpt lat="42.1533546411" lon="-0.4238233063">
        <ele>456.76</ele>
        <time>2022-04-14T06:48:31Z</time>
      </trkpt>
      <trkpt lat="42.1535040904" lon="-0.4237400740">
        <ele>456.76</ele>
        <time>2022-04-14T06:48:42Z</time>
      </trkpt>
      <trkpt lat="42.1536608320" lon="-0.4236728512">
        <ele>457.24</ele>
        <time>2022-04-14T06:48:54Z</time>
      </trkpt>
      <trkpt lat="42.1538553759" lon="-0.4235759564">
        <ele>457.72</ele>
        <time>2022-04-14T06:49:10Z</time>
      </trkpt>
      <trkpt lat="42.1540269535" lon="-0.4235114157">
        <ele>458.69</ele>
        <time>2022-04-14T06:49:23Z</time>
      </trkpt>
      <trkpt lat="42.1542670112" lon="-0.4234134313">
        <ele>459.17</ele>
        <time>2022-04-14T06:49:41Z</time>
      </trkpt>
      <trkpt lat="42.1543055680" lon="-0.4233935662">
        <ele>459.17</ele>
        <time>2022-04-14T06:49:45Z</time>
      </trkpt>
      <trkpt lat="42.1544643212" lon="-0.4233615473">
        <ele>459.65</ele>
        <time>2022-04-14T06:49:56Z</time>
      </trkpt>
      <trkpt lat="42.1545055602" lon="-0.4233938176">
        <ele>459.65</ele>
        <time>2022-04-14T06:50:00Z</time>
      </trkpt>
      <trkpt lat="42.1547024511" lon="-0.4235156905">
        <ele>459.65</ele>
        <time>2022-04-14T06:50:17Z</time>
      </trkpt>
      <trkpt lat="42.1547824983" lon="-0.4235746153">
        <ele>460.61</ele>
        <time>2022-04-14T06:50:23Z</time>
      </trkpt>
      <trkpt lat="42.1549358033" lon="-0.4236963205">
        <ele>460.61</ele>
        <time>2022-04-14T06:50:37Z</time>
      </trkpt>
      <trkpt lat="42.1550711710" lon="-0.4238661379">
        <ele>461.09</ele>
        <time>2022-04-14T06:50:51Z</time>
      </trkpt>
      <trkpt lat="42.1551993303" lon="-0.4240258131">
        <ele>461.09</ele>
        <time>2022-04-14T06:51:04Z</time>
      </trkpt>
      <trkpt lat="42.1553441696" lon="-0.4241861589">
        <ele>461.09</ele>
        <time>2022-04-14T06:51:19Z</time>
      </trkpt>
      <trkpt lat="42.1554248873" lon="-0.4242911842">
        <ele>461.57</ele>
        <time>2022-04-14T06:51:27Z</time>
      </trkpt>
      <trkpt lat="42.1554592531" lon="-0.4243426491">
        <ele>461.57</ele>
        <time>2022-04-14T06:51:32Z</time>
      </trkpt>
      <trkpt lat="42.1556186769" lon="-0.4245081078">
        <ele>462.05</ele>
        <time>2022-04-14T06:51:46Z</time>
      </trkpt>
      <trkpt lat="42.1557513624" lon="-0.4246573895">
        <ele>462.05</ele>
        <time>2022-04-14T06:51:58Z</time>
      </trkpt>
      <trkpt lat="42.1557854768" lon="-0.4247084353">
        <ele>462.53</ele>
        <time>2022-04-14T06:52:04Z</time>
      </trkpt>
      <trkpt lat="42.1558492631" lon="-0.4248118680">
        <ele>462.53</ele>
        <time>2022-04-14T06:52:10Z</time>
      </trkpt>
      <trkpt lat="42.1559998859" lon="-0.4250230920">
        <ele>463.01</ele>
        <time>2022-04-14T06:52:25Z</time>
      </trkpt>
      <trkpt lat="42.1561645065" lon="-0.4252226651">
        <ele>463.49</ele>
        <time>2022-04-14T06:52:41Z</time>
      </trkpt>
      <trkpt lat="42.1561917476" lon="-0.4252681788">
        <ele>463.49</ele>
        <time>2022-04-14T06:52:44Z</time>
      </trkpt>
      <trkpt lat="42.1562308911" lon="-0.4253709409">
        <ele>464.45</ele>
        <time>2022-04-14T06:52:50Z</time>
      </trkpt>
      <trkpt lat="42.1563563682" lon="-0.4255550914">
        <ele>464.45</ele>
        <time>2022-04-14T06:53:04Z</time>
      </trkpt>
      <trkpt lat="42.1564901434" lon="-0.4257259984">
        <ele>464.45</ele>
        <time>2022-04-14T06:53:18Z</time>
      </trkpt>
      <trkpt lat="42.1566402633" lon="-0.4259048682">
        <ele>464.93</ele>
        <time>2022-04-14T06:53:33Z</time>
      </trkpt>
      <trkpt lat="42.1566478070" lon="-0.4259110708">
        <ele>464.93</ele>
        <time>2022-04-14T06:53:34Z</time>
      </trkpt>
      <trkpt lat="42.1567928977" lon="-0.4260621127">
        <ele>464.93</ele>
        <time>2022-04-14T06:53:48Z</time>
      </trkpt>
      <trkpt lat="42.1569190454" lon="-0.4262595903">
        <ele>464.93</ele>
        <time>2022-04-14T06:54:02Z</time>
      </trkpt>
      <trkpt lat="42.1570174489" lon="-0.4264679644">
        <ele>465.90</ele>
        <time>2022-04-14T06:54:16Z</time>
      </trkpt>
      <trkpt lat="42.1571007650" lon="-0.4267018195">
        <ele>466.86</ele>
        <time>2022-04-14T06:54:30Z</time>
      </trkpt>
      <trkpt lat="42.1572347078" lon="-0.4269069247">
        <ele>467.34</ele>
        <time>2022-04-14T06:54:46Z</time>
      </trkpt>
      <trkpt lat="42.1573594306" lon="-0.4271021392">
        <ele>467.34</ele>
        <time>2022-04-14T06:55:01Z</time>
      </trkpt>
      <trkpt lat="42.1574996598" lon="-0.4272818472">
        <ele>467.82</ele>
        <time>2022-04-14T06:55:16Z</time>
      </trkpt>
      <trkpt lat="42.1576465946" lon="-0.4274696019">
        <ele>468.30</ele>
        <time>2022-04-14T06:55:32Z</time>
      </trkpt>
      <trkpt lat="42.1577577386" lon="-0.4275843501">
        <ele>468.78</ele>
        <time>2022-04-14T06:55:44Z</time>
      </trkpt>
      <trkpt lat="42.1579529531" lon="-0.4277213104">
        <ele>468.78</ele>
        <time>2022-04-14T06:55:59Z</time>
      </trkpt>
      <trkpt lat="42.1581176575" lon="-0.4278614558">
        <ele>468.78</ele>
        <time>2022-04-14T06:56:14Z</time>
      </trkpt>
      <trkpt lat="42.1582686156" lon="-0.4280151799">
        <ele>469.26</ele>
        <time>2022-04-14T06:56:29Z</time>
      </trkpt>
      <trkpt lat="42.1584024746" lon="-0.4281754419">
        <ele>469.26</ele>
        <time>2022-04-14T06:56:43Z</time>
      </trkpt>
      <trkpt lat="42.1585296281" lon="-0.4283450078">
        <ele>469.26</ele>
        <time>2022-04-14T06:56:54Z</time>
      </trkpt>
      <trkpt lat="42.1585592162" lon="-0.4283835646">
        <ele>469.26</ele>
        <time>2022-04-14T06:56:59Z</time>
      </trkpt>
      <trkpt lat="42.1586697735" lon="-0.4285016656">
        <ele>469.74</ele>
        <time>2022-04-14T06:57:11Z</time>
      </trkpt>
      <trkpt lat="42.1586947516" lon="-0.4285377916">
        <ele>469.74</ele>
        <time>2022-04-14T06:57:13Z</time>
      </trkpt>
      <trkpt lat="42.1587554365" lon="-0.4286056012">
        <ele>469.74</ele>
        <time>2022-04-14T06:57:18Z</time>
      </trkpt>
      <trkpt lat="42.1588675026" lon="-0.4287471715">
        <ele>469.74</ele>
        <time>2022-04-14T06:57:30Z</time>
      </trkpt>
      <trkpt lat="42.1589975897" lon="-0.4289224371">
        <ele>469.74</ele>
        <time>2022-04-14T06:57:44Z</time>
      </trkpt>
      <trkpt lat="42.1591333766" lon="-0.4290930927">
        <ele>470.22</ele>
        <time>2022-04-14T06:57:58Z</time>
      </trkpt>
      <trkpt lat="42.1591877751" lon="-0.4292096011">
        <ele>470.70</ele>
        <time>2022-04-14T06:58:07Z</time>
      </trkpt>
      <trkpt lat="42.1593120787" lon="-0.4294335656">
        <ele>470.70</ele>
        <time>2022-04-14T06:58:20Z</time>
      </trkpt>
      <trkpt lat="42.1594268270" lon="-0.4297116771">
        <ele>471.18</ele>
        <time>2022-04-14T06:58:36Z</time>
      </trkpt>
      <trkpt lat="42.1595020127" lon="-0.4298625514">
        <ele>471.66</ele>
        <time>2022-04-14T06:58:48Z</time>
      </trkpt>
      <trkpt lat="42.1596129891" lon="-0.4301598575">
        <ele>471.66</ele>
        <time>2022-04-14T06:59:06Z</time>
      </trkpt>
      <trkpt lat="42.1597209480" lon="-0.4303273279">
        <ele>472.14</ele>
        <time>2022-04-14T06:59:18Z</time>
      </trkpt>
      <trkpt lat="42.1597808786" lon="-0.4304330237">
        <ele>472.14</ele>
        <time>2022-04-14T06:59:25Z</time>
      </trkpt>
      <trkpt lat="42.1599004883" lon="-0.4306063615">
        <ele>472.63</ele>
        <time>2022-04-14T06:59:38Z</time>
      </trkpt>
      <trkpt lat="42.1600333415" lon="-0.4307653662">
        <ele>472.63</ele>
        <time>2022-04-14T06:59:50Z</time>
      </trkpt>
      <trkpt lat="42.1601611655" lon="-0.4309406318">
        <ele>473.11</ele>
        <time>2022-04-14T07:00:04Z</time>
      </trkpt>
      <trkpt lat="42.1602697950" lon="-0.4310951941">
        <ele>473.11</ele>
        <time>2022-04-14T07:00:17Z</time>
      </trkpt>
      <trkpt lat="42.1604033187" lon="-0.4312939290">
        <ele>473.59</ele>
        <time>2022-04-14T07:00:31Z</time>
      </trkpt>
      <trkpt lat="42.1605081763" lon="-0.4313710425">
        <ele>473.59</ele>
        <time>2022-04-14T07:00:42Z</time>
      </trkpt>
      <trkpt lat="42.1605696995" lon="-0.4314422049">
        <ele>473.59</ele>
        <time>2022-04-14T07:00:49Z</time>
      </trkpt>
      <trkpt lat="42.1607078332" lon="-0.4315774050">
        <ele>474.07</ele>
        <time>2022-04-14T07:01:01Z</time>
      </trkpt>
      <trkpt lat="42.1608489845" lon="-0.4317250103">
        <ele>474.55</ele>
        <time>2022-04-14T07:01:16Z</time>
      </trkpt>
      <trkpt lat="42.1609792393" lon="-0.4318768065">
        <ele>475.03</ele>
        <time>2022-04-14T07:01:29Z</time>
      </trkpt>
      <trkpt lat="42.1611348074" lon="-0.4320470430">
        <ele>475.51</ele>
        <time>2022-04-14T07:01:44Z</time>
      </trkpt>
      <trkpt lat="42.1612816583" lon="-0.4321945645">
        <ele>475.99</ele>
        <time>2022-04-14T07:01:58Z</time>
      </trkpt>
      <trkpt lat="42.1614448540" lon="-0.4323559161">
        <ele>476.47</ele>
        <time>2022-04-14T07:02:13Z</time>
      </trkpt>
      <trkpt lat="42.1616075467" lon="-0.4325352889">
        <ele>476.95</ele>
        <time>2022-04-14T07:02:28Z</time>
      </trkpt>
      <trkpt lat="42.1617526375" lon="-0.4326671362">
        <ele>476.95</ele>
        <time>2022-04-14T07:02:40Z</time>
      </trkpt>
      <trkpt lat="42.1618763544" lon="-0.4328176752">
        <ele>476.95</ele>
        <time>2022-04-14T07:02:52Z</time>
      </trkpt>
      <trkpt lat="42.1619916055" lon="-0.4329502769">
        <ele>477.91</ele>
        <time>2022-04-14T07:03:05Z</time>
      </trkpt>
      <trkpt lat="42.1621192619" lon="-0.4330866504">
        <ele>478.39</ele>
        <time>2022-04-14T07:03:17Z</time>
      </trkpt>
      <trkpt lat="42.1621236205" lon="-0.4330935236">
        <ele>478.39</ele>
        <time>2022-04-14T07:03:18Z</time>
      </trkpt>
      <trkpt lat="42.1622763388" lon="-0.4332117923">
        <ele>478.39</ele>
        <time>2022-04-14T07:03:31Z</time>
      </trkpt>
      <trkpt lat="42.1624425519" lon="-0.4333962779">
        <ele>478.87</ele>
        <time>2022-04-14T07:03:46Z</time>
      </trkpt>
      <trkpt lat="42.1626075916" lon="-0.4335475713">
        <ele>479.35</ele>
        <time>2022-04-14T07:03:59Z</time>
      </trkpt>
      <trkpt lat="42.1626894828" lon="-0.4336297140">
        <ele>479.35</ele>
        <time>2022-04-14T07:04:07Z</time>
      </trkpt>
      <trkpt lat="42.1628155466" lon="-0.4337419476">
        <ele>480.32</ele>
        <time>2022-04-14T07:04:20Z</time>
      </trkpt>
      <trkpt lat="42.1629429515" lon="-0.4338663351">
        <ele>480.80</ele>
        <time>2022-04-14T07:04:32Z</time>
      </trkpt>
      <trkpt lat="42.1629882976" lon="-0.4339167103">
        <ele>481.28</ele>
        <time>2022-04-14T07:04:36Z</time>
      </trkpt>
      <trkpt lat="42.1631508227" lon="-0.4340598732">
        <ele>481.28</ele>
        <time>2022-04-14T07:04:50Z</time>
      </trkpt>
      <trkpt lat="42.1633083187" lon="-0.4341918044">
        <ele>481.28</ele>
        <time>2022-04-14T07:05:03Z</time>
      </trkpt>
      <trkpt lat="42.1634750348" lon="-0.4343699198">
        <ele>482.24</ele>
        <time>2022-04-14T07:05:19Z</time>
      </trkpt>
      <trkpt lat="42.1636497974" lon="-0.4344953131">
        <ele>482.72</ele>
        <time>2022-04-14T07:05:35Z</time>
      </trkpt>
      <trkpt lat="42.1637986600" lon="-0.4346064571">
        <ele>483.20</ele>
        <time>2022-04-14T07:05:48Z</time>
      </trkpt>
      <trkpt lat="42.1639279928" lon="-0.4346839897">
        <ele>483.20</ele>
        <time>2022-04-14T07:05:58Z</time>
      </trkpt>
      <trkpt lat="42.1640338562" lon="-0.4347638693">
        <ele>483.20</ele>
        <time>2022-04-14T07:06:07Z</time>
      </trkpt>
      <trkpt lat="42.1641576570" lon="-0.4349751770">
        <ele>483.68</ele>
        <time>2022-04-14T07:06:21Z</time>
      </trkpt>
      <trkpt lat="42.1642177552" lon="-0.4352146480">
        <ele>484.16</ele>
        <time>2022-04-14T07:06:35Z</time>
      </trkpt>
      <trkpt lat="42.1642301604" lon="-0.4352835473">
        <ele>484.16</ele>
        <time>2022-04-14T07:06:38Z</time>
      </trkpt>
      <trkpt lat="42.1642390452" lon="-0.4353319108">
        <ele>484.16</ele>
        <time>2022-04-14T07:06:41Z</time>
      </trkpt>
      <trkpt lat="42.1642584074" lon="-0.4356159735">
        <ele>485.12</ele>
        <time>2022-04-14T07:06:56Z</time>
      </trkpt>
      <trkpt lat="42.1643090341" lon="-0.4358217493">
        <ele>485.60</ele>
        <time>2022-04-14T07:07:07Z</time>
      </trkpt>
      <trkpt lat="42.1643685456" lon="-0.4359686002">
        <ele>486.08</ele>
        <time>2022-04-14T07:07:18Z</time>
      </trkpt>
      <trkpt lat="42.1644673683" lon="-0.4361639824">
        <ele>487.05</ele>
        <time>2022-04-14T07:07:31Z</time>
      </trkpt>
      <trkpt lat="42.1646011434" lon="-0.4363908805">
        <ele>487.53</ele>
        <time>2022-04-14T07:07:45Z</time>
      </trkpt>
      <trkpt lat="42.1646179911" lon="-0.4364754539">
        <ele>487.53</ele>
        <time>2022-04-14T07:07:51Z</time>
      </trkpt>
      <trkpt lat="42.1646252833" lon="-0.4365643859">
        <ele>487.53</ele>
        <time>2022-04-14T07:07:55Z</time>
      </trkpt>
      <trkpt lat="42.1646335814" lon="-0.4366023559">
        <ele>487.53</ele>
        <time>2022-04-14T07:07:57Z</time>
      </trkpt>
      <trkpt lat="42.1646784246" lon="-0.4367875122">
        <ele>488.49</ele>
        <time>2022-04-14T07:08:09Z</time>
      </trkpt>
      <trkpt lat="42.1646618284" lon="-0.4370682221">
        <ele>488.97</ele>
        <time>2022-04-14T07:08:24Z</time>
      </trkpt>
      <trkpt lat="42.1646801848" lon="-0.4371893406">
        <ele>489.93</ele>
        <time>2022-04-14T07:08:32Z</time>
      </trkpt>
      <trkpt lat="42.1646826994" lon="-0.4372951202">
        <ele>489.93</ele>
        <time>2022-04-14T07:08:37Z</time>
      </trkpt>
      <trkpt lat="42.1647091862" lon="-0.4375120439">
        <ele>492.33</ele>
        <time>2022-04-14T07:08:49Z</time>
      </trkpt>
      <trkpt lat="42.1648301370" lon="-0.4376840405">
        <ele>493.77</ele>
        <time>2022-04-14T07:09:04Z</time>
      </trkpt>
      <trkpt lat="42.1649807598" lon="-0.4378220905">
        <ele>493.77</ele>
        <time>2022-04-14T07:09:17Z</time>
      </trkpt>
      <trkpt lat="42.1651587076" lon="-0.4379793350">
        <ele>494.74</ele>
        <time>2022-04-14T07:09:32Z</time>
      </trkpt>
      <trkpt lat="42.1653627232" lon="-0.4380639922">
        <ele>496.66</ele>
        <time>2022-04-14T07:09:49Z</time>
      </trkpt>
      <trkpt lat="42.1655065566" lon="-0.4379617330">
        <ele>499.06</ele>
        <time>2022-04-14T07:10:05Z</time>
      </trkpt>
      <trkpt lat="42.1657021064" lon="-0.4379683547">
        <ele>500.50</ele>
        <time>2022-04-14T07:10:19Z</time>
      </trkpt>
      <trkpt lat="42.1658395696" lon="-0.4380339012">
        <ele>500.50</ele>
        <time>2022-04-14T07:10:31Z</time>
      </trkpt>
      <trkpt lat="42.1660120692" lon="-0.4381053988">
        <ele>500.50</ele>
        <time>2022-04-14T07:10:45Z</time>
      </trkpt>
      <trkpt lat="42.1661327686" lon="-0.4381634854">
        <ele>500.50</ele>
        <time>2022-04-14T07:10:56Z</time>
      </trkpt>
      <trkpt lat="42.1663154941" lon="-0.4382561892">
        <ele>500.50</ele>
        <time>2022-04-14T07:11:11Z</time>
      </trkpt>
      <trkpt lat="42.1664958727" lon="-0.4383400083">
        <ele>500.98</ele>
        <time>2022-04-14T07:11:25Z</time>
      </trkpt>
      <trkpt lat="42.1666454058" lon="-0.4384111706">
        <ele>500.98</ele>
        <time>2022-04-14T07:11:37Z</time>
      </trkpt>
      <trkpt lat="42.1667893231" lon="-0.4384875298">
        <ele>500.98</ele>
        <time>2022-04-14T07:11:48Z</time>
      </trkpt>
      <trkpt lat="42.1669481602" lon="-0.4385434370">
        <ele>500.98</ele>
        <time>2022-04-14T07:12:00Z</time>
      </trkpt>
      <trkpt lat="42.1671238448" lon="-0.4386387393">
        <ele>500.98</ele>
        <time>2022-04-14T07:12:11Z</time>
      </trkpt>
      <trkpt lat="42.1672701091" lon="-0.4387125839">
        <ele>500.98</ele>
        <time>2022-04-14T07:12:22Z</time>
      </trkpt>
      <trkpt lat="42.1674012020" lon="-0.4387648031">
        <ele>500.98</ele>
        <time>2022-04-14T07:12:30Z</time>
      </trkpt>
      <trkpt lat="42.1676004399" lon="-0.4388666432">
        <ele>501.46</ele>
        <time>2022-04-14T07:12:45Z</time>
      </trkpt>
      <trkpt lat="42.1677439380" lon="-0.4389331117">
        <ele>501.46</ele>
        <time>2022-04-14T07:12:56Z</time>
      </trkpt>
      <trkpt lat="42.1678043716" lon="-0.4389634542">
        <ele>501.46</ele>
        <time>2022-04-14T07:13:00Z</time>
      </trkpt>
      <trkpt lat="42.1678872686" lon="-0.4390013404">
        <ele>501.46</ele>
        <time>2022-04-14T07:13:07Z</time>
      </trkpt>
      <trkpt lat="42.1680915356" lon="-0.4391030967">
        <ele>501.46</ele>
        <time>2022-04-14T07:13:22Z</time>
      </trkpt>
      <trkpt lat="42.1682629455" lon="-0.4391950462">
        <ele>501.46</ele>
        <time>2022-04-14T07:13:35Z</time>
      </trkpt>
      <trkpt lat="42.1684343554" lon="-0.4392767698">
        <ele>501.95</ele>
        <time>2022-04-14T07:13:48Z</time>
      </trkpt>
      <trkpt lat="42.1685875766" lon="-0.4393496085">
        <ele>501.95</ele>
        <time>2022-04-14T07:14:00Z</time>
      </trkpt>
      <trkpt lat="42.1687635966" lon="-0.4394024145">
        <ele>501.95</ele>
        <time>2022-04-14T07:14:13Z</time>
      </trkpt>
      <trkpt lat="42.1689226851" lon="-0.4394867364">
        <ele>501.95</ele>
        <time>2022-04-14T07:14:26Z</time>
      </trkpt>
      <trkpt lat="42.1690811031" lon="-0.4395808652">
        <ele>501.95</ele>
        <time>2022-04-14T07:14:39Z</time>
      </trkpt>
      <trkpt lat="42.1692415327" lon="-0.4396755807">
        <ele>502.43</ele>
        <time>2022-04-14T07:14:51Z</time>
      </trkpt>
      <trkpt lat="42.1694064047" lon="-0.4397724755">
        <ele>502.43</ele>
        <time>2022-04-14T07:15:04Z</time>
      </trkpt>
      <trkpt lat="42.1695696842" lon="-0.4399148840">
        <ele>501.46</ele>
        <time>2022-04-14T07:15:18Z</time>
      </trkpt>
      <trkpt lat="42.1697495598" lon="-0.4400665965">
        <ele>501.46</ele>
        <time>2022-04-14T07:15:34Z</time>
      </trkpt>
      <trkpt lat="42.1697975043" lon="-0.4401077516">
        <ele>501.46</ele>
        <time>2022-04-14T07:15:39Z</time>
      </trkpt>
      <trkpt lat="42.1698586922" lon="-0.4401719570">
        <ele>502.43</ele>
        <time>2022-04-14T07:15:44Z</time>
      </trkpt>
      <trkpt lat="42.1698741987" lon="-0.4404479731">
        <ele>502.43</ele>
        <time>2022-04-14T07:15:58Z</time>
      </trkpt>
      <trkpt lat="42.1698456164" lon="-0.4407008551">
        <ele>502.91</ele>
        <time>2022-04-14T07:16:12Z</time>
      </trkpt>
      <trkpt lat="42.1698009409" lon="-0.4409245681">
        <ele>502.91</ele>
        <time>2022-04-14T07:16:25Z</time>
      </trkpt>
      <trkpt lat="42.1697509009" lon="-0.4411891848">
        <ele>502.91</ele>
        <time>2022-04-14T07:16:39Z</time>
      </trkpt>
      <trkpt lat="42.1696978435" lon="-0.4414146580">
        <ele>502.91</ele>
        <time>2022-04-14T07:16:52Z</time>
      </trkpt>
      <trkpt lat="42.1696251724" lon="-0.4416822921">
        <ele>502.91</ele>
        <time>2022-04-14T07:17:07Z</time>
      </trkpt>
      <trkpt lat="42.1695731208" lon="-0.4419289716">
        <ele>503.39</ele>
        <time>2022-04-14T07:17:21Z</time>
      </trkpt>
      <trkpt lat="42.1695204824" lon="-0.4421394411">
        <ele>503.39</ele>
        <time>2022-04-14T07:17:34Z</time>
      </trkpt>
      <trkpt lat="42.1694655810" lon="-0.4423782416">
        <ele>503.39</ele>
        <time>2022-04-14T07:17:47Z</time>
      </trkpt>
      <trkpt lat="42.1694178879" lon="-0.4426411819">
        <ele>503.39</ele>
        <time>2022-04-14T07:18:01Z</time>
      </trkpt>
      <trkpt lat="42.1693510003" lon="-0.4429066367">
        <ele>503.39</ele>
        <time>2022-04-14T07:18:16Z</time>
      </trkpt>
      <trkpt lat="42.1692934167" lon="-0.4431519751">
        <ele>503.39</ele>
        <time>2022-04-14T07:18:30Z</time>
      </trkpt>
      <trkpt lat="42.1692433767" lon="-0.4434028454">
        <ele>503.87</ele>
        <time>2022-04-14T07:18:44Z</time>
      </trkpt>
      <trkpt lat="42.1691713762" lon="-0.4436916020">
        <ele>503.87</ele>
        <time>2022-04-14T07:19:00Z</time>
      </trkpt>
      <trkpt lat="42.1691264492" lon="-0.4439588170">
        <ele>503.87</ele>
        <time>2022-04-14T07:19:15Z</time>
      </trkpt>
      <trkpt lat="42.1691214200" lon="-0.4441801831">
        <ele>502.91</ele>
        <time>2022-04-14T07:19:28Z</time>
      </trkpt>
      <trkpt lat="42.1691625752" lon="-0.4443451390">
        <ele>502.91</ele>
        <time>2022-04-14T07:19:37Z</time>
      </trkpt>
      <trkpt lat="42.1692090109" lon="-0.4444873799">
        <ele>502.91</ele>
        <time>2022-04-14T07:19:45Z</time>
      </trkpt>
      <trkpt lat="42.1691787522" lon="-0.4446021281">
        <ele>502.91</ele>
        <time>2022-04-14T07:19:51Z</time>
      </trkpt>
      <trkpt lat="42.1691417880" lon="-0.4446608014">
        <ele>502.91</ele>
        <time>2022-04-14T07:19:56Z</time>
      </trkpt>
      <trkpt lat="42.1691169776" lon="-0.4447760526">
        <ele>504.35</ele>
        <time>2022-04-14T07:20:02Z</time>
      </trkpt>
      <trkpt lat="42.1691381000" lon="-0.4448578600">
        <ele>503.87</ele>
        <time>2022-04-14T07:20:07Z</time>
      </trkpt>
      <trkpt lat="42.1691731364" lon="-0.4449163657">
        <ele>502.43</ele>
        <time>2022-04-14T07:20:11Z</time>
      </trkpt>
      <trkpt lat="42.1692614816" lon="-0.4451844189">
        <ele>501.95</ele>
        <time>2022-04-14T07:20:27Z</time>
      </trkpt>
      <trkpt lat="42.1693287883" lon="-0.4454527237">
        <ele>501.95</ele>
        <time>2022-04-14T07:20:42Z</time>
      </trkpt>
      <trkpt lat="42.1693851985" lon="-0.4456997383">
        <ele>502.43</ele>
        <time>2022-04-14T07:20:56Z</time>
      </trkpt>
      <trkpt lat="42.1694677602" lon="-0.4459911771">
        <ele>502.43</ele>
        <time>2022-04-14T07:21:13Z</time>
      </trkpt>
      <trkpt lat="42.1695193090" lon="-0.4462498426">
        <ele>502.43</ele>
        <time>2022-04-14T07:21:28Z</time>
      </trkpt>
      <trkpt lat="42.1695714444" lon="-0.4465437122">
        <ele>502.43</ele>
        <time>2022-04-14T07:21:43Z</time>
      </trkpt>
      <trkpt lat="42.1696146950" lon="-0.4468177166">
        <ele>502.43</ele>
        <time>2022-04-14T07:21:58Z</time>
      </trkpt>
      <trkpt lat="42.1696685068" lon="-0.4470703471">
        <ele>502.91</ele>
        <time>2022-04-14T07:22:12Z</time>
      </trkpt>
      <trkpt lat="42.1697332151" lon="-0.4473413341">
        <ele>502.91</ele>
        <time>2022-04-14T07:22:27Z</time>
      </trkpt>
      <trkpt lat="42.1697882004" lon="-0.4476082139">
        <ele>502.91</ele>
        <time>2022-04-14T07:22:42Z</time>
      </trkpt>
      <trkpt lat="42.1697977558" lon="-0.4478674661">
        <ele>502.91</ele>
        <time>2022-04-14T07:22:55Z</time>
      </trkpt>
      <trkpt lat="42.1698092390" lon="-0.4481062666">
        <ele>502.91</ele>
        <time>2022-04-14T07:23:08Z</time>
      </trkpt>
      <trkpt lat="42.1698189620" lon="-0.4483665247">
        <ele>503.39</ele>
        <time>2022-04-14T07:23:22Z</time>
      </trkpt>
      <trkpt lat="42.1698241588" lon="-0.4486220889">
        <ele>504.35</ele>
        <time>2022-04-14T07:23:35Z</time>
      </trkpt>
      <trkpt lat="42.1698690858" lon="-0.4488513339">
        <ele>504.83</ele>
        <time>2022-04-14T07:23:48Z</time>
      </trkpt>
      <trkpt lat="42.1699318662" lon="-0.4490883742">
        <ele>504.83</ele>
        <time>2022-04-14T07:24:01Z</time>
      </trkpt>
      <trkpt lat="42.1700154338" lon="-0.4492918029">
        <ele>505.31</ele>
        <time>2022-04-14T07:24:13Z</time>
      </trkpt>
      <trkpt lat="42.1701228898" lon="-0.4494971596">
        <ele>505.79</ele>
        <time>2022-04-14T07:24:27Z</time>
      </trkpt>
      <trkpt lat="42.1702532284" lon="-0.4496987443">
        <ele>506.27</ele>
        <time>2022-04-14T07:24:42Z</time>
      </trkpt>
      <trkpt lat="42.1704113949" lon="-0.4498890974">
        <ele>506.75</ele>
        <time>2022-04-14T07:24:58Z</time>
      </trkpt>
      <trkpt lat="42.1705387160" lon="-0.4500410613">
        <ele>507.71</ele>
        <time>2022-04-14T07:25:12Z</time>
      </trkpt>
      <trkpt lat="42.1707146522" lon="-0.4501848109">
        <ele>507.71</ele>
        <time>2022-04-14T07:25:27Z</time>
      </trkpt>
      <trkpt lat="42.1708164923" lon="-0.4503783491">
        <ele>508.19</ele>
        <time>2022-04-14T07:25:39Z</time>
      </trkpt>
      <trkpt lat="42.1708259638" lon="-0.4504194204">
        <ele>508.19</ele>
        <time>2022-04-14T07:25:41Z</time>
      </trkpt>
      <trkpt lat="42.1709254570" lon="-0.4507096019">
        <ele>508.67</ele>
        <time>2022-04-14T07:25:56Z</time>
      </trkpt>
      <trkpt lat="42.1709521953" lon="-0.4509522580">
        <ele>509.16</ele>
        <time>2022-04-14T07:26:10Z</time>
      </trkpt>
      <trkpt lat="42.1709618345" lon="-0.4512202274">
        <ele>509.16</ele>
        <time>2022-04-14T07:26:24Z</time>
      </trkpt>
      <trkpt lat="42.1709571406" lon="-0.4512673337">
        <ele>509.16</ele>
        <time>2022-04-14T07:26:26Z</time>
      </trkpt>
      <trkpt lat="42.1709179133" lon="-0.4513488896">
        <ele>509.16</ele>
        <time>2022-04-14T07:26:32Z</time>
      </trkpt>
      <trkpt lat="42.1709977929" lon="-0.4516457766">
        <ele>509.16</ele>
        <time>2022-04-14T07:26:48Z</time>
      </trkpt>
      <trkpt lat="42.1709877346" lon="-0.4517496284">
        <ele>509.16</ele>
        <time>2022-04-14T07:26:55Z</time>
      </trkpt>
      <trkpt lat="42.1709041670" lon="-0.4517960642">
        <ele>509.16</ele>
        <time>2022-04-14T07:27:00Z</time>
      </trkpt>
      <trkpt lat="42.1708754171" lon="-0.4519228823">
        <ele>510.60</ele>
        <time>2022-04-14T07:27:12Z</time>
      </trkpt>
      <trkpt lat="42.1708822064" lon="-0.4519344494">
        <ele>512.52</ele>
        <time>2022-04-14T07:27:21Z</time>
      </trkpt>
      <trkpt lat="42.1708800271" lon="-0.4519240558">
        <ele>510.12</ele>
        <time>2022-04-14T07:27:23Z</time>
      </trkpt>
      <trkpt lat="42.1708236169" lon="-0.4518347885">
        <ele>510.12</ele>
        <time>2022-04-14T07:27:47Z</time>
      </trkpt>
      <trkpt lat="42.1708236169" lon="-0.4518327769">
        <ele>502.91</ele>
        <time>2022-04-14T07:27:48Z</time>
      </trkpt>
      <trkpt lat="42.1708252095" lon="-0.4518307652">
        <ele>513.00</ele>
        <time>2022-04-14T07:27:49Z</time>
      </trkpt>
      <trkpt lat="42.1708402969" lon="-0.4518311005">
        <ele>510.12</ele>
        <time>2022-04-14T07:27:53Z</time>
      </trkpt>
      <trkpt lat="42.1708258800" lon="-0.4518485349">
        <ele>510.12</ele>
        <time>2022-04-14T07:28:17Z</time>
      </trkpt>
      <trkpt lat="42.1708462480" lon="-0.4518617783">
        <ele>511.08</ele>
        <time>2022-04-14T07:28:25Z</time>
      </trkpt>
      <trkpt lat="42.1708582342" lon="-0.4518750217">
        <ele>509.64</ele>
        <time>2022-04-14T07:28:31Z</time>
      </trkpt>
      <trkpt lat="42.1708580665" lon="-0.4518825654">
        <ele>511.08</ele>
        <time>2022-04-14T07:28:33Z</time>
      </trkpt>
      <trkpt lat="42.1708521154" lon="-0.4518630356">
        <ele>510.12</ele>
        <time>2022-04-14T07:28:52Z</time>
      </trkpt>
      <trkpt lat="42.1708538756" lon="-0.4518644605">
        <ele>511.08</ele>
        <time>2022-04-14T07:28:54Z</time>
      </trkpt>
      <trkpt lat="42.1708456613" lon="-0.4519348685">
        <ele>510.12</ele>
        <time>2022-04-14T07:29:18Z</time>
      </trkpt>
      <trkpt lat="42.1708173305" lon="-0.4519336112">
        <ele>511.56</ele>
        <time>2022-04-14T07:29:27Z</time>
      </trkpt>
      <trkpt lat="42.1707941126" lon="-0.4519088846">
        <ele>510.12</ele>
        <time>2022-04-14T07:29:31Z</time>
      </trkpt>
      <trkpt lat="42.1709625889" lon="-0.4519378021">
        <ele>509.64</ele>
        <time>2022-04-14T07:29:53Z</time>
      </trkpt>
      <trkpt lat="42.1709284745" lon="-0.4519988224">
        <ele>511.56</ele>
        <time>2022-04-14T07:30:20Z</time>
      </trkpt>
      <trkpt lat="42.1709061787" lon="-0.4521111399">
        <ele>511.56</ele>
        <time>2022-04-14T07:30:46Z</time>
      </trkpt>
      <trkpt lat="42.1708954498" lon="-0.4521158338">
        <ele>511.56</ele>
        <time>2022-04-14T07:31:05Z</time>
      </trkpt>
      <trkpt lat="42.1708785184" lon="-0.4520512093">
        <ele>511.56</ele>
        <time>2022-04-14T07:31:15Z</time>
      </trkpt>
      <trkpt lat="42.1707175020" lon="-0.4518886004">
        <ele>511.56</ele>
        <time>2022-04-14T07:31:46Z</time>
      </trkpt>
      <trkpt lat="42.1708409674" lon="-0.4519382212">
        <ele>512.04</ele>
        <time>2022-04-14T07:32:16Z</time>
      </trkpt>
      <trkpt lat="42.1709790174" lon="-0.4520669673">
        <ele>512.04</ele>
        <time>2022-04-14T07:32:43Z</time>
      </trkpt>
      <trkpt lat="42.1710283868" lon="-0.4519811366">
        <ele>512.04</ele>
        <time>2022-04-14T07:33:07Z</time>
      </trkpt>
      <trkpt lat="42.1709410474" lon="-0.4519326892">
        <ele>512.52</ele>
        <time>2022-04-14T07:33:37Z</time>
      </trkpt>
      <trkpt lat="42.1708742436" lon="-0.4519399814">
        <ele>513.00</ele>
        <time>2022-04-14T07:33:59Z</time>
      </trkpt>
      <trkpt lat="42.1709244512" lon="-0.4519504588">
        <ele>513.48</ele>
        <time>2022-04-14T07:34:25Z</time>
      </trkpt>
      <trkpt lat="42.1710012294" lon="-0.4519756045">
        <ele>513.96</ele>
        <time>2022-04-14T07:34:53Z</time>
      </trkpt>
      <trkpt lat="42.1709528659" lon="-0.4519206192">
        <ele>513.96</ele>
        <time>2022-04-14T07:35:15Z</time>
      </trkpt>
      <trkpt lat="42.1708290651" lon="-0.4518743511">
        <ele>514.44</ele>
        <time>2022-04-14T07:35:34Z</time>
      </trkpt>
      <trkpt lat="42.1709448192" lon="-0.4519118182">
        <ele>514.92</ele>
        <time>2022-04-14T07:36:00Z</time>
      </trkpt>
      <trkpt lat="42.1709313244" lon="-0.4520097189">
        <ele>514.92</ele>
        <time>2022-04-14T07:36:23Z</time>
      </trkpt>
      <trkpt lat="42.1709098667" lon="-0.4519538116">
        <ele>514.92</ele>
        <time>2022-04-14T07:36:47Z</time>
      </trkpt>
      <trkpt lat="42.1709841304" lon="-0.4519092198">
        <ele>515.40</ele>
        <time>2022-04-14T07:37:04Z</time>
      </trkpt>
      <trkpt lat="42.1710111201" lon="-0.4519474413">
        <ele>515.40</ele>
        <time>2022-04-14T07:37:13Z</time>
      </trkpt>
      <trkpt lat="42.1710532811" lon="-0.4519827291">
        <ele>515.40</ele>
        <time>2022-04-14T07:37:18Z</time>
      </trkpt>
      <trkpt lat="42.1710682008" lon="-0.4520089645">
        <ele>515.40</ele>
        <time>2022-04-14T07:37:20Z</time>
      </trkpt>
      <trkpt lat="42.1712277923" lon="-0.4521642812">
        <ele>515.40</ele>
        <time>2022-04-14T07:37:36Z</time>
      </trkpt>
      <trkpt lat="42.1713996213" lon="-0.4524001479">
        <ele>515.40</ele>
        <time>2022-04-14T07:37:53Z</time>
      </trkpt>
      <trkpt lat="42.1715300437" lon="-0.4525774252">
        <ele>515.40</ele>
        <time>2022-04-14T07:38:07Z</time>
      </trkpt>
      <trkpt lat="42.1716376673" lon="-0.4526905809">
        <ele>515.40</ele>
        <time>2022-04-14T07:38:18Z</time>
      </trkpt>
      <trkpt lat="42.1717965044" lon="-0.4528082628">
        <ele>515.40</ele>
        <time>2022-04-14T07:38:30Z</time>
      </trkpt>
      <trkpt lat="42.1718492266" lon="-0.4528348334">
        <ele>515.40</ele>
        <time>2022-04-14T07:38:35Z</time>
      </trkpt>
      <trkpt lat="42.1720311977" lon="-0.4530302156">
        <ele>515.88</ele>
        <time>2022-04-14T07:38:51Z</time>
      </trkpt>
      <trkpt lat="42.1721616201" lon="-0.4531791620">
        <ele>515.88</ele>
        <time>2022-04-14T07:39:04Z</time>
      </trkpt>
      <trkpt lat="42.1723224688" lon="-0.4533344787">
        <ele>515.88</ele>
        <time>2022-04-14T07:39:17Z</time>
      </trkpt>
      <trkpt lat="42.1724229679" lon="-0.4535213951">
        <ele>516.37</ele>
        <time>2022-04-14T07:39:29Z</time>
      </trkpt>
      <trkpt lat="42.1725348663" lon="-0.4537299369">
        <ele>516.85</ele>
        <time>2022-04-14T07:39:43Z</time>
      </trkpt>
      <trkpt lat="42.1725430805" lon="-0.4537492990">
        <ele>516.85</ele>
        <time>2022-04-14T07:39:44Z</time>
      </trkpt>
      <trkpt lat="42.1725685615" lon="-0.4538869299">
        <ele>516.85</ele>
        <time>2022-04-14T07:39:53Z</time>
      </trkpt>
      <trkpt lat="42.1726650372" lon="-0.4540920351">
        <ele>516.85</ele>
        <time>2022-04-14T07:40:06Z</time>
      </trkpt>
      <trkpt lat="42.1727983095" lon="-0.4543196037">
        <ele>516.85</ele>
        <time>2022-04-14T07:40:21Z</time>
      </trkpt>
      <trkpt lat="42.1729191765" lon="-0.4545205180">
        <ele>516.85</ele>
        <time>2022-04-14T07:40:35Z</time>
      </trkpt>
      <trkpt lat="42.1730522811" lon="-0.4547003098">
        <ele>516.85</ele>
        <time>2022-04-14T07:40:49Z</time>
      </trkpt>
      <trkpt lat="42.1731941868" lon="-0.4548893217">
        <ele>517.33</ele>
        <time>2022-04-14T07:41:03Z</time>
      </trkpt>
      <trkpt lat="42.1732151415" lon="-0.4549479950">
        <ele>517.33</ele>
        <time>2022-04-14T07:41:07Z</time>
      </trkpt>
      <trkpt lat="42.1733764093" lon="-0.4551157169">
        <ele>517.33</ele>
        <time>2022-04-14T07:41:21Z</time>
      </trkpt>
      <trkpt lat="42.1735380962" lon="-0.4552434571">
        <ele>517.33</ele>
        <time>2022-04-14T07:41:35Z</time>
      </trkpt>
      <trkpt lat="42.1737308800" lon="-0.4553874582">
        <ele>517.33</ele>
        <time>2022-04-14T07:41:50Z</time>
      </trkpt>
      <trkpt lat="42.1738879569" lon="-0.4555143602">
        <ele>517.33</ele>
        <time>2022-04-14T07:42:03Z</time>
      </trkpt>
      <trkpt lat="42.1740035433" lon="-0.4556284379">
        <ele>517.33</ele>
        <time>2022-04-14T07:42:13Z</time>
      </trkpt>
      <trkpt lat="42.1741714329" lon="-0.4558126722">
        <ele>517.33</ele>
        <time>2022-04-14T07:42:28Z</time>
      </trkpt>
      <trkpt lat="42.1743009333" lon="-0.4559473693">
        <ele>517.81</ele>
        <time>2022-04-14T07:42:40Z</time>
      </trkpt>
      <trkpt lat="42.1744637936" lon="-0.4561259039">
        <ele>517.81</ele>
        <time>2022-04-14T07:42:55Z</time>
      </trkpt>
      <trkpt lat="42.1746392269" lon="-0.4563074559">
        <ele>517.81</ele>
        <time>2022-04-14T07:43:10Z</time>
      </trkpt>
      <trkpt lat="42.1747874189" lon="-0.4564551450">
        <ele>517.81</ele>
        <time>2022-04-14T07:43:24Z</time>
      </trkpt>
      <trkpt lat="42.1749381255" lon="-0.4565925244">
        <ele>517.81</ele>
        <time>2022-04-14T07:43:37Z</time>
      </trkpt>
      <trkpt lat="42.1751170792" lon="-0.4567653593">
        <ele>517.81</ele>
        <time>2022-04-14T07:43:52Z</time>
      </trkpt>
      <trkpt lat="42.1752456576" lon="-0.4569258727">
        <ele>517.81</ele>
        <time>2022-04-14T07:44:05Z</time>
      </trkpt>
      <trkpt lat="42.1753384452" lon="-0.4571421258">
        <ele>517.81</ele>
        <time>2022-04-14T07:44:18Z</time>
      </trkpt>
      <trkpt lat="42.1754396986" lon="-0.4573517572">
        <ele>517.81</ele>
        <time>2022-04-14T07:44:33Z</time>
      </trkpt>
      <trkpt lat="42.1755277924" lon="-0.4575353209">
        <ele>517.81</ele>
        <time>2022-04-14T07:44:46Z</time>
      </trkpt>
      <trkpt lat="42.1756631602" lon="-0.4577788152">
        <ele>517.81</ele>
        <time>2022-04-14T07:45:03Z</time>
      </trkpt>
      <trkpt lat="42.1757939178" lon="-0.4579838365">
        <ele>517.81</ele>
        <time>2022-04-14T07:45:19Z</time>
      </trkpt>
      <trkpt lat="42.1759530064" lon="-0.4582201224">
        <ele>516.37</ele>
        <time>2022-04-14T07:45:37Z</time>
      </trkpt>
      <trkpt lat="42.1760873683" lon="-0.4584378004">
        <ele>516.37</ele>
        <time>2022-04-14T07:45:53Z</time>
      </trkpt>
      <trkpt lat="42.1762348060" lon="-0.4586346075">
        <ele>517.33</ele>
        <time>2022-04-14T07:46:08Z</time>
      </trkpt>
      <trkpt lat="42.1763947327" lon="-0.4588667862">
        <ele>517.33</ele>
        <time>2022-04-14T07:46:24Z</time>
      </trkpt>
      <trkpt lat="42.1765227243" lon="-0.4590923432">
        <ele>517.81</ele>
        <time>2022-04-14T07:46:39Z</time>
      </trkpt>
      <trkpt lat="42.1766477823" lon="-0.4593044054">
        <ele>517.81</ele>
        <time>2022-04-14T07:46:54Z</time>
      </trkpt>
      <trkpt lat="42.1767808031" lon="-0.4595094267">
        <ele>517.81</ele>
        <time>2022-04-14T07:47:08Z</time>
      </trkpt>
      <trkpt lat="42.1769277379" lon="-0.4597250093">
        <ele>518.29</ele>
        <time>2022-04-14T07:47:23Z</time>
      </trkpt>
      <trkpt lat="42.1770617645" lon="-0.4599151108">
        <ele>518.77</ele>
        <time>2022-04-14T07:47:37Z</time>
      </trkpt>
      <trkpt lat="42.1772040892" lon="-0.4601316154">
        <ele>519.25</ele>
        <time>2022-04-14T07:47:52Z</time>
      </trkpt>
      <trkpt lat="42.1773449052" lon="-0.4603356309">
        <ele>519.25</ele>
        <time>2022-04-14T07:48:06Z</time>
      </trkpt>
      <trkpt lat="42.1774676163" lon="-0.4605217092">
        <ele>519.73</ele>
        <time>2022-04-14T07:48:20Z</time>
      </trkpt>
      <trkpt lat="42.1775966976" lon="-0.4606970586">
        <ele>520.21</ele>
        <time>2022-04-14T07:48:33Z</time>
      </trkpt>
      <trkpt lat="42.1777265333" lon="-0.4608816281">
        <ele>520.69</ele>
        <time>2022-04-14T07:48:46Z</time>
      </trkpt>
      <trkpt lat="42.1778596379" lon="-0.4610899184">
        <ele>520.69</ele>
        <time>2022-04-14T07:49:00Z</time>
      </trkpt>
      <trkpt lat="42.1779854503" lon="-0.4612922575">
        <ele>520.69</ele>
        <time>2022-04-14T07:49:14Z</time>
      </trkpt>
      <trkpt lat="42.1781009529" lon="-0.4615025595">
        <ele>521.17</ele>
        <time>2022-04-14T07:49:28Z</time>
      </trkpt>
      <trkpt lat="42.1782210656" lon="-0.4616731312">
        <ele>521.65</ele>
        <time>2022-04-14T07:49:41Z</time>
      </trkpt>
      <trkpt lat="42.1783141047" lon="-0.4618618917">
        <ele>522.13</ele>
        <time>2022-04-14T07:49:54Z</time>
      </trkpt>
      <trkpt lat="42.1784325410" lon="-0.4620430246">
        <ele>522.61</ele>
        <time>2022-04-14T07:50:07Z</time>
      </trkpt>
      <trkpt lat="42.1785650589" lon="-0.4622625466">
        <ele>523.09</ele>
        <time>2022-04-14T07:50:21Z</time>
      </trkpt>
      <trkpt lat="42.1786938049" lon="-0.4624679871">
        <ele>523.58</ele>
        <time>2022-04-14T07:50:35Z</time>
      </trkpt>
      <trkpt lat="42.1788062062" lon="-0.4626601841">
        <ele>524.06</ele>
        <time>2022-04-14T07:50:48Z</time>
      </trkpt>
      <trkpt lat="42.1789227147" lon="-0.4629083723">
        <ele>524.54</ele>
        <time>2022-04-14T07:51:03Z</time>
      </trkpt>
      <trkpt lat="42.1790224593" lon="-0.4630895890">
        <ele>525.02</ele>
        <time>2022-04-14T07:51:15Z</time>
      </trkpt>
      <trkpt lat="42.1791408118" lon="-0.4632804450">
        <ele>525.50</ele>
        <time>2022-04-14T07:51:28Z</time>
      </trkpt>
      <trkpt lat="42.1792669594" lon="-0.4634945188">
        <ele>525.50</ele>
        <time>2022-04-14T07:51:42Z</time>
      </trkpt>
      <trkpt lat="42.1794036683" lon="-0.4636887275">
        <ele>525.98</ele>
        <time>2022-04-14T07:51:56Z</time>
      </trkpt>
      <trkpt lat="42.1795445681" lon="-0.4638468940">
        <ele>525.98</ele>
        <time>2022-04-14T07:52:10Z</time>
      </trkpt>
      <trkpt lat="42.1797319036" lon="-0.4639571160">
        <ele>526.46</ele>
        <time>2022-04-14T07:52:23Z</time>
      </trkpt>
      <trkpt lat="42.1798889805" lon="-0.4640450422">
        <ele>526.46</ele>
        <time>2022-04-14T07:52:36Z</time>
      </trkpt>
      <trkpt lat="42.1800782438" lon="-0.4641808290">
        <ele>526.94</ele>
        <time>2022-04-14T07:52:52Z</time>
      </trkpt>
      <trkpt lat="42.1802753862" lon="-0.4643683322">
        <ele>527.90</ele>
        <time>2022-04-14T07:53:09Z</time>
      </trkpt>
      <trkpt lat="42.1805109177" lon="-0.4645120818">
        <ele>528.86</ele>
        <time>2022-04-14T07:53:27Z</time>
      </trkpt>
      <trkpt lat="42.1806784719" lon="-0.4645840824">
        <ele>529.34</ele>
        <time>2022-04-14T07:53:40Z</time>
      </trkpt>
      <trkpt lat="42.1808197070" lon="-0.4646314401">
        <ele>529.82</ele>
        <time>2022-04-14T07:53:53Z</time>
      </trkpt>
      <trkpt lat="42.1810138319" lon="-0.4646898620">
        <ele>530.30</ele>
        <time>2022-04-14T07:54:08Z</time>
      </trkpt>
      <trkpt lat="42.1812398080" lon="-0.4647378065">
        <ele>530.30</ele>
        <time>2022-04-14T07:54:24Z</time>
      </trkpt>
      <trkpt lat="42.1814502776" lon="-0.4647931270">
        <ele>530.30</ele>
        <time>2022-04-14T07:54:40Z</time>
      </trkpt>
      <trkpt lat="42.1816402115" lon="-0.4648670554">
        <ele>530.79</ele>
        <time>2022-04-14T07:54:54Z</time>
      </trkpt>
      <trkpt lat="42.1818207577" lon="-0.4649432469">
        <ele>530.79</ele>
        <time>2022-04-14T07:55:09Z</time>
      </trkpt>
      <trkpt lat="42.1820134576" lon="-0.4650073685">
        <ele>530.79</ele>
        <time>2022-04-14T07:55:23Z</time>
      </trkpt>
      <trkpt lat="42.1821283735" lon="-0.4650628567">
        <ele>531.27</ele>
        <time>2022-04-14T07:55:32Z</time>
      </trkpt>
      <trkpt lat="42.1822434571" lon="-0.4651088733">
        <ele>531.27</ele>
        <time>2022-04-14T07:55:40Z</time>
      </trkpt>
      <trkpt lat="42.1824294515" lon="-0.4652082827">
        <ele>531.27</ele>
        <time>2022-04-14T07:55:56Z</time>
      </trkpt>
      <trkpt lat="42.1826264262" lon="-0.4653129727">
        <ele>532.23</ele>
        <time>2022-04-14T07:56:11Z</time>
      </trkpt>
      <trkpt lat="42.1828296874" lon="-0.4654160701">
        <ele>532.23</ele>
        <time>2022-04-14T07:56:27Z</time>
      </trkpt>
      <trkpt lat="42.1830335353" lon="-0.4655267112">
        <ele>532.71</ele>
        <time>2022-04-14T07:56:43Z</time>
      </trkpt>
      <trkpt lat="42.1832260676" lon="-0.4656218458">
        <ele>533.19</ele>
        <time>2022-04-14T07:56:58Z</time>
      </trkpt>
      <trkpt lat="42.1834044345" lon="-0.4657111969">
        <ele>533.67</ele>
        <time>2022-04-14T07:57:12Z</time>
      </trkpt>
      <trkpt lat="42.1836050972" lon="-0.4658106901">
        <ele>534.63</ele>
        <time>2022-04-14T07:57:28Z</time>
      </trkpt>
      <trkpt lat="42.1837878227" lon="-0.4659023881">
        <ele>534.63</ele>
        <time>2022-04-14T07:57:42Z</time>
      </trkpt>
      <trkpt lat="42.1839692071" lon="-0.4659985285">
        <ele>535.59</ele>
        <time>2022-04-14T07:57:56Z</time>
      </trkpt>
      <trkpt lat="42.1839870606" lon="-0.4660008755">
        <ele>535.59</ele>
        <time>2022-04-14T07:57:58Z</time>
      </trkpt>
      <trkpt lat="42.1841897350" lon="-0.4660493229">
        <ele>536.07</ele>
        <time>2022-04-14T07:58:12Z</time>
      </trkpt>
      <trkpt lat="42.1842379309" lon="-0.4660595488">
        <ele>536.07</ele>
        <time>2022-04-14T07:58:15Z</time>
      </trkpt>
      <trkpt lat="42.1842769906" lon="-0.4660825990">
        <ele>536.07</ele>
        <time>2022-04-14T07:58:18Z</time>
      </trkpt>
      <trkpt lat="42.1844597161" lon="-0.4660950042">
        <ele>536.07</ele>
        <time>2022-04-14T07:58:31Z</time>
      </trkpt>
      <trkpt lat="42.1846386697" lon="-0.4661178868">
        <ele>536.55</ele>
        <time>2022-04-14T07:58:44Z</time>
      </trkpt>
      <trkpt lat="42.1848824993" lon="-0.4661354888">
        <ele>537.03</ele>
        <time>2022-04-14T07:59:01Z</time>
      </trkpt>
      <trkpt lat="42.1850965731" lon="-0.4661524203">
        <ele>537.51</ele>
        <time>2022-04-14T07:59:16Z</time>
      </trkpt>
      <trkpt lat="42.1852514707" lon="-0.4661894683">
        <ele>537.51</ele>
        <time>2022-04-14T07:59:28Z</time>
      </trkpt>
      <trkpt lat="42.1854152530" lon="-0.4662830103">
        <ele>537.99</ele>
        <time>2022-04-14T07:59:42Z</time>
      </trkpt>
      <trkpt lat="42.1855590865" lon="-0.4663883708">
        <ele>538.48</ele>
        <time>2022-04-14T07:59:54Z</time>
      </trkpt>
      <trkpt lat="42.1857273951" lon="-0.4665378202">
        <ele>538.48</ele>
        <time>2022-04-14T08:00:09Z</time>
      </trkpt>
      <trkpt lat="42.1859138086" lon="-0.4666970763">
        <ele>538.96</ele>
        <time>2022-04-14T08:00:24Z</time>
      </trkpt>
      <trkpt lat="42.1860712208" lon="-0.4668184463">
        <ele>538.96</ele>
        <time>2022-04-14T08:00:38Z</time>
      </trkpt>
      <trkpt lat="42.1862598974" lon="-0.4669971485">
        <ele>539.44</ele>
        <time>2022-04-14T08:00:54Z</time>
      </trkpt>
      <trkpt lat="42.1863963548" lon="-0.4671678040">
        <ele>539.92</ele>
        <time>2022-04-14T08:01:09Z</time>
      </trkpt>
      <trkpt lat="42.1865427028" lon="-0.4672804568">
        <ele>539.92</ele>
        <time>2022-04-14T08:01:21Z</time>
      </trkpt>
      <trkpt lat="42.1867209859" lon="-0.4674107116">
        <ele>540.88</ele>
        <time>2022-04-14T08:01:35Z</time>
      </trkpt>
      <trkpt lat="42.1869079862" lon="-0.4675343446">
        <ele>541.36</ele>
        <time>2022-04-14T08:01:49Z</time>
      </trkpt>
      <trkpt lat="42.1870633028" lon="-0.4676480871">
        <ele>541.36</ele>
        <time>2022-04-14T08:02:02Z</time>
      </trkpt>
      <trkpt lat="42.1872073878" lon="-0.4677685350">
        <ele>541.84</ele>
        <time>2022-04-14T08:02:15Z</time>
      </trkpt>
      <trkpt lat="42.1873686556" lon="-0.4678976163">
        <ele>541.84</ele>
        <time>2022-04-14T08:02:28Z</time>
      </trkpt>
      <trkpt lat="42.1875691507" lon="-0.4681271967">
        <ele>542.32</ele>
        <time>2022-04-14T08:02:45Z</time>
      </trkpt>
      <trkpt lat="42.1877085418" lon="-0.4682584573">
        <ele>542.80</ele>
        <time>2022-04-14T08:02:58Z</time>
      </trkpt>
      <trkpt lat="42.1878566500" lon="-0.4683857784">
        <ele>542.80</ele>
        <time>2022-04-14T08:03:10Z</time>
      </trkpt>
      <trkpt lat="42.1880180854" lon="-0.4685301147">
        <ele>542.80</ele>
        <time>2022-04-14T08:03:24Z</time>
      </trkpt>
      <trkpt lat="42.1881806105" lon="-0.4686541669">
        <ele>543.28</ele>
        <time>2022-04-14T08:03:36Z</time>
      </trkpt>
      <trkpt lat="42.1883480810" lon="-0.4687819071">
        <ele>543.28</ele>
        <time>2022-04-14T08:03:49Z</time>
      </trkpt>
      <trkpt lat="42.1884641703" lon="-0.4689165205">
        <ele>543.76</ele>
        <time>2022-04-14T08:04:01Z</time>
      </trkpt>
      <trkpt lat="42.1886154637" lon="-0.4690650478">
        <ele>543.76</ele>
        <time>2022-04-14T08:04:14Z</time>
      </trkpt>
      <trkpt lat="42.1886572056" lon="-0.4690972343">
        <ele>544.24</ele>
        <time>2022-04-14T08:04:19Z</time>
      </trkpt>
      <trkpt lat="42.1887536813" lon="-0.4691968113">
        <ele>545.20</ele>
        <time>2022-04-14T08:04:29Z</time>
      </trkpt>
      <trkpt lat="42.1888288669" lon="-0.4692978971">
        <ele>545.69</ele>
        <time>2022-04-14T08:04:37Z</time>
      </trkpt>
      <trkpt lat="42.1890065633" lon="-0.4694722407">
        <ele>545.69</ele>
        <time>2022-04-14T08:04:50Z</time>
      </trkpt>
      <trkpt lat="42.1890804917" lon="-0.4695576522">
        <ele>545.69</ele>
        <time>2022-04-14T08:04:57Z</time>
      </trkpt>
      <trkpt lat="42.1891658194" lon="-0.4696484283">
        <ele>545.69</ele>
        <time>2022-04-14T08:05:04Z</time>
      </trkpt>
      <trkpt lat="42.1892348025" lon="-0.4698242806">
        <ele>545.69</ele>
        <time>2022-04-14T08:05:16Z</time>
      </trkpt>
      <trkpt lat="42.1893572621" lon="-0.4700191598">
        <ele>545.69</ele>
        <time>2022-04-14T08:05:29Z</time>
      </trkpt>
      <trkpt lat="42.1895146742" lon="-0.4701970238">
        <ele>546.17</ele>
        <time>2022-04-14T08:05:43Z</time>
      </trkpt>
      <trkpt lat="42.1896605194" lon="-0.4703439586">
        <ele>546.65</ele>
        <time>2022-04-14T08:05:57Z</time>
      </trkpt>
      <trkpt lat="42.1898343600" lon="-0.4704717826">
        <ele>547.13</ele>
        <time>2022-04-14T08:06:09Z</time>
      </trkpt>
      <trkpt lat="42.1899734158" lon="-0.4706291109">
        <ele>547.13</ele>
        <time>2022-04-14T08:06:21Z</time>
      </trkpt>
      <trkpt lat="42.1900878288" lon="-0.4707841761">
        <ele>547.61</ele>
        <time>2022-04-14T08:06:33Z</time>
      </trkpt>
      <trkpt lat="42.1901856456" lon="-0.4708820768">
        <ele>547.61</ele>
        <time>2022-04-14T08:06:42Z</time>
      </trkpt>
      <trkpt lat="42.1902453247" lon="-0.4709175322">
        <ele>547.61</ele>
        <time>2022-04-14T08:06:46Z</time>
      </trkpt>
      <trkpt lat="42.1904089395" lon="-0.4710445181">
        <ele>548.09</ele>
        <time>2022-04-14T08:06:59Z</time>
      </trkpt>
      <trkpt lat="42.1905412059" lon="-0.4711811431">
        <ele>547.61</ele>
        <time>2022-04-14T08:07:11Z</time>
      </trkpt>
      <trkpt lat="42.1907072514" lon="-0.4713363759">
        <ele>548.09</ele>
        <time>2022-04-14T08:07:24Z</time>
      </trkpt>
      <trkpt lat="42.1908608917" lon="-0.4714371264">
        <ele>549.05</ele>
        <time>2022-04-14T08:07:36Z</time>
      </trkpt>
      <trkpt lat="42.1910033002" lon="-0.4715722427">
        <ele>549.05</ele>
        <time>2022-04-14T08:07:48Z</time>
      </trkpt>
      <trkpt lat="42.1910582855" lon="-0.4716673773">
        <ele>549.05</ele>
        <time>2022-04-14T08:07:55Z</time>
      </trkpt>
      <trkpt lat="42.1911483072" lon="-0.4718656093">
        <ele>549.53</ele>
        <time>2022-04-14T08:08:08Z</time>
      </trkpt>
      <trkpt lat="42.1913116705" lon="-0.4720376059">
        <ele>549.53</ele>
        <time>2022-04-14T08:08:23Z</time>
      </trkpt>
      <trkpt lat="42.1914481279" lon="-0.4721971974">
        <ele>550.01</ele>
        <time>2022-04-14T08:08:38Z</time>
      </trkpt>
      <trkpt lat="42.1915803943" lon="-0.4724536836">
        <ele>550.49</ele>
        <time>2022-04-14T08:08:52Z</time>
      </trkpt>
      <trkpt lat="42.1917293407" lon="-0.4726811685">
        <ele>551.45</ele>
        <time>2022-04-14T08:09:08Z</time>
      </trkpt>
      <trkpt lat="42.1918987390" lon="-0.4728253372">
        <ele>551.93</ele>
        <time>2022-04-14T08:09:22Z</time>
      </trkpt>
      <trkpt lat="42.1920317598" lon="-0.4729651473">
        <ele>552.41</ele>
        <time>2022-04-14T08:09:34Z</time>
      </trkpt>
      <trkpt lat="42.1922069415" lon="-0.4731121659">
        <ele>552.41</ele>
        <time>2022-04-14T08:09:48Z</time>
      </trkpt>
      <trkpt lat="42.1923837997" lon="-0.4732404929">
        <ele>552.90</ele>
        <time>2022-04-14T08:10:01Z</time>
      </trkpt>
      <trkpt lat="42.1924330853" lon="-0.4732857551">
        <ele>552.90</ele>
        <time>2022-04-14T08:10:06Z</time>
      </trkpt>
      <trkpt lat="42.1926128771" lon="-0.4734661337">
        <ele>553.38</ele>
        <time>2022-04-14T08:10:21Z</time>
      </trkpt>
      <trkpt lat="42.1927640028" lon="-0.4736320116">
        <ele>553.38</ele>
        <time>2022-04-14T08:10:36Z</time>
      </trkpt>
      <trkpt lat="42.1929470636" lon="-0.4738373682">
        <ele>553.38</ele>
        <time>2022-04-14T08:10:52Z</time>
      </trkpt>
      <trkpt lat="42.1930862870" lon="-0.4740317445">
        <ele>553.38</ele>
        <time>2022-04-14T08:11:06Z</time>
      </trkpt>
      <trkpt lat="42.1931832656" lon="-0.4742106982">
        <ele>553.86</ele>
        <time>2022-04-14T08:11:18Z</time>
      </trkpt>
      <trkpt lat="42.1933392528" lon="-0.4743831977">
        <ele>553.86</ele>
        <time>2022-04-14T08:11:33Z</time>
      </trkpt>
      <trkpt lat="42.1934928093" lon="-0.4745750595">
        <ele>553.86</ele>
        <time>2022-04-14T08:11:47Z</time>
      </trkpt>
      <trkpt lat="42.1936224774" lon="-0.4747388419">
        <ele>553.86</ele>
        <time>2022-04-14T08:12:00Z</time>
      </trkpt>
      <trkpt lat="42.1937319450" lon="-0.4748727009">
        <ele>554.34</ele>
        <time>2022-04-14T08:12:11Z</time>
      </trkpt>
      <trkpt lat="42.1938725933" lon="-0.4750261735">
        <ele>554.34</ele>
        <time>2022-04-14T08:12:23Z</time>
      </trkpt>
      <trkpt lat="42.1940080449" lon="-0.4752011877">
        <ele>554.34</ele>
        <time>2022-04-14T08:12:36Z</time>
      </trkpt>
      <trkpt lat="42.1941319294" lon="-0.4753432609">
        <ele>554.34</ele>
        <time>2022-04-14T08:12:48Z</time>
      </trkpt>
      <trkpt lat="42.1942633577" lon="-0.4754627030">
        <ele>554.82</ele>
        <time>2022-04-14T08:13:00Z</time>
      </trkpt>
      <trkpt lat="42.1943949535" lon="-0.4755445942">
        <ele>554.82</ele>
        <time>2022-04-14T08:13:13Z</time>
      </trkpt>
      <trkpt lat="42.1944781858" lon="-0.4755655490">
        <ele>554.82</ele>
        <time>2022-04-14T08:13:19Z</time>
      </trkpt>
      <trkpt lat="42.1945211850" lon="-0.4756056145">
        <ele>555.30</ele>
        <time>2022-04-14T08:13:23Z</time>
      </trkpt>
      <trkpt lat="42.1945675369" lon="-0.4756433330">
        <ele>555.30</ele>
        <time>2022-04-14T08:13:28Z</time>
      </trkpt>
      <trkpt lat="42.1947527770" lon="-0.4757791199">
        <ele>555.30</ele>
        <time>2022-04-14T08:13:41Z</time>
      </trkpt>
      <trkpt lat="42.1949001309" lon="-0.4758916050">
        <ele>555.78</ele>
        <time>2022-04-14T08:13:52Z</time>
      </trkpt>
      <trkpt lat="42.1949154697" lon="-0.4759097099">
        <ele>555.78</ele>
        <time>2022-04-14T08:13:54Z</time>
      </trkpt>
      <trkpt lat="42.1950624045" lon="-0.4760360252">
        <ele>555.78</ele>
        <time>2022-04-14T08:14:07Z</time>
      </trkpt>
      <trkpt lat="42.1952046454" lon="-0.4761723150">
        <ele>556.26</ele>
        <time>2022-04-14T08:14:19Z</time>
      </trkpt>
      <trkpt lat="42.1953820903" lon="-0.4763201717">
        <ele>556.26</ele>
        <time>2022-04-14T08:14:32Z</time>
      </trkpt>
      <trkpt lat="42.1955591999" lon="-0.4764800146">
        <ele>557.22</ele>
        <time>2022-04-14T08:14:46Z</time>
      </trkpt>
      <trkpt lat="42.1957426798" lon="-0.4765822738">
        <ele>557.70</ele>
        <time>2022-04-14T08:15:00Z</time>
      </trkpt>
      <trkpt lat="42.1959046181" lon="-0.4766456410">
        <ele>557.70</ele>
        <time>2022-04-14T08:15:13Z</time>
      </trkpt>
      <trkpt lat="42.1959155984" lon="-0.4766458087">
        <ele>557.70</ele>
        <time>2022-04-14T08:15:14Z</time>
      </trkpt>
      <trkpt lat="42.1961544827" lon="-0.4766430426">
        <ele>558.18</ele>
        <time>2022-04-14T08:15:30Z</time>
      </trkpt>
      <trkpt lat="42.1962717455" lon="-0.4766442999">
        <ele>559.14</ele>
        <time>2022-04-14T08:15:41Z</time>
      </trkpt>
      <trkpt lat="42.1963219531" lon="-0.4767676815">
        <ele>559.62</ele>
        <time>2022-04-14T08:15:48Z</time>
      </trkpt>
      <trkpt lat="42.1962260641" lon="-0.4769419413">
        <ele>559.62</ele>
        <time>2022-04-14T08:16:02Z</time>
      </trkpt>
      <trkpt lat="42.1961247269" lon="-0.4770083260">
        <ele>559.62</ele>
        <time>2022-04-14T08:16:14Z</time>
      </trkpt>
      <trkpt lat="42.1959910356" lon="-0.4771937337">
        <ele>560.11</ele>
        <time>2022-04-14T08:16:28Z</time>
      </trkpt>
      <trkpt lat="42.1959381457" lon="-0.4773303587">
        <ele>561.07</ele>
        <time>2022-04-14T08:16:37Z</time>
      </trkpt>
      <trkpt lat="42.1958352998" lon="-0.4775478691">
        <ele>562.03</ele>
        <time>2022-04-14T08:16:51Z</time>
      </trkpt>
      <trkpt lat="42.1957473736" lon="-0.4777114000">
        <ele>562.51</ele>
        <time>2022-04-14T08:17:03Z</time>
      </trkpt>
      <trkpt lat="42.1956512332" lon="-0.4779382143">
        <ele>563.95</ele>
        <time>2022-04-14T08:17:15Z</time>
      </trkpt>
      <trkpt lat="42.1956353914" lon="-0.4779636115">
        <ele>563.95</ele>
        <time>2022-04-14T08:17:17Z</time>
      </trkpt>
      <trkpt lat="42.1955799870" lon="-0.4780846462">
        <ele>563.95</ele>
        <time>2022-04-14T08:17:23Z</time>
      </trkpt>
      <trkpt lat="42.1955266781" lon="-0.4783147294">
        <ele>564.91</ele>
        <time>2022-04-14T08:17:37Z</time>
      </trkpt>
      <trkpt lat="42.1954560187" lon="-0.4785356764">
        <ele>566.83</ele>
        <time>2022-04-14T08:17:52Z</time>
      </trkpt>
      <trkpt lat="42.1954518277" lon="-0.4785505962">
        <ele>566.83</ele>
        <time>2022-04-14T08:17:53Z</time>
      </trkpt>
      <trkpt lat="42.1954265982" lon="-0.4786487482">
        <ele>566.83</ele>
        <time>2022-04-14T08:17:58Z</time>
      </trkpt>
      <trkpt lat="42.1953573637" lon="-0.4789097607">
        <ele>567.32</ele>
        <time>2022-04-14T08:18:15Z</time>
      </trkpt>
      <trkpt lat="42.1953046415" lon="-0.4790872894">
        <ele>566.35</ele>
        <time>2022-04-14T08:18:26Z</time>
      </trkpt>
      <trkpt lat="42.1952124406" lon="-0.4792862758">
        <ele>566.35</ele>
        <time>2022-04-14T08:18:38Z</time>
      </trkpt>
      <trkpt lat="42.1950880531" lon="-0.4795240704">
        <ele>566.35</ele>
        <time>2022-04-14T08:18:52Z</time>
      </trkpt>
      <trkpt lat="42.1949737240" lon="-0.4796819016">
        <ele>566.35</ele>
        <time>2022-04-14T08:19:04Z</time>
      </trkpt>
      <trkpt lat="42.1949552000" lon="-0.4796928819">
        <ele>567.32</ele>
        <time>2022-04-14T08:19:06Z</time>
      </trkpt>
      <trkpt lat="42.1949399449" lon="-0.4797124118">
        <ele>567.32</ele>
        <time>2022-04-14T08:19:08Z</time>
      </trkpt>
      <trkpt lat="42.1947957762" lon="-0.4798906110">
        <ele>568.28</ele>
        <time>2022-04-14T08:19:21Z</time>
      </trkpt>
      <trkpt lat="42.1946759149" lon="-0.4800526332">
        <ele>568.28</ele>
        <time>2022-04-14T08:19:32Z</time>
      </trkpt>
      <trkpt lat="42.1946152300" lon="-0.4802603368">
        <ele>569.24</ele>
        <time>2022-04-14T08:19:44Z</time>
      </trkpt>
      <trkpt lat="42.1945413854" lon="-0.4804925155">
        <ele>569.72</ele>
        <time>2022-04-14T08:19:59Z</time>
      </trkpt>
      <trkpt lat="42.1945116296" lon="-0.4805039149">
        <ele>569.72</ele>
        <time>2022-04-14T08:20:16Z</time>
      </trkpt>
      <trkpt lat="42.1944071911" lon="-0.4806707986">
        <ele>569.72</ele>
        <time>2022-04-14T08:20:36Z</time>
      </trkpt>
      <trkpt lat="42.1943594981" lon="-0.4808563739">
        <ele>569.72</ele>
        <time>2022-04-14T08:20:49Z</time>
      </trkpt>
      <trkpt lat="42.1943512000" lon="-0.4810256045">
        <ele>569.72</ele>
        <time>2022-04-14T08:21:00Z</time>
      </trkpt>
      <trkpt lat="42.1943382081" lon="-0.4810502473">
        <ele>569.72</ele>
        <time>2022-04-14T08:21:02Z</time>
      </trkpt>
      <trkpt lat="42.1943175048" lon="-0.4812928196">
        <ele>569.72</ele>
        <time>2022-04-14T08:21:15Z</time>
      </trkpt>
      <trkpt lat="42.1943213604" lon="-0.4815851804">
        <ele>570.20</ele>
        <time>2022-04-14T08:21:31Z</time>
      </trkpt>
      <trkpt lat="42.1943131462" lon="-0.4817474540">
        <ele>570.20</ele>
        <time>2022-04-14T08:21:42Z</time>
      </trkpt>
      <trkpt lat="42.1943185106" lon="-0.4818041157">
        <ele>570.20</ele>
        <time>2022-04-14T08:21:46Z</time>
      </trkpt>
      <trkpt lat="42.1943670418" lon="-0.4820368811">
        <ele>570.20</ele>
        <time>2022-04-14T08:21:58Z</time>
      </trkpt>
      <trkpt lat="42.1944088675" lon="-0.4822020046">
        <ele>570.68</ele>
        <time>2022-04-14T08:22:10Z</time>
      </trkpt>
      <trkpt lat="42.1943910979" lon="-0.4824471753">
        <ele>570.68</ele>
        <time>2022-04-14T08:22:20Z</time>
      </trkpt>
      <trkpt lat="42.1943961270" lon="-0.4825190082">
        <ele>570.68</ele>
        <time>2022-04-14T08:22:24Z</time>
      </trkpt>
      <trkpt lat="42.1944119688" lon="-0.4827122111">
        <ele>571.16</ele>
        <time>2022-04-14T08:22:37Z</time>
      </trkpt>
      <trkpt lat="42.1944665350" lon="-0.4829134606">
        <ele>570.68</ele>
        <time>2022-04-14T08:22:48Z</time>
      </trkpt>
      <trkpt lat="42.1944644395" lon="-0.4829693679">
        <ele>570.68</ele>
        <time>2022-04-14T08:22:51Z</time>
      </trkpt>
      <trkpt lat="42.1944887470" lon="-0.4831111059">
        <ele>571.64</ele>
        <time>2022-04-14T08:22:59Z</time>
      </trkpt>
      <trkpt lat="42.1944716480" lon="-0.4832329787">
        <ele>571.64</ele>
        <time>2022-04-14T08:23:04Z</time>
      </trkpt>
      <trkpt lat="42.1944579016" lon="-0.4833560251">
        <ele>571.64</ele>
        <time>2022-04-14T08:23:11Z</time>
      </trkpt>
      <trkpt lat="42.1944694687" lon="-0.4835169576">
        <ele>571.64</ele>
        <time>2022-04-14T08:23:17Z</time>
      </trkpt>
      <trkpt lat="42.1944754198" lon="-0.4836713523">
        <ele>571.64</ele>
        <time>2022-04-14T08:23:25Z</time>
      </trkpt>
      <trkpt lat="42.1944943629" lon="-0.4838581011">
        <ele>572.12</ele>
        <time>2022-04-14T08:23:37Z</time>
      </trkpt>
      <trkpt lat="42.1944992244" lon="-0.4839912057">
        <ele>572.60</ele>
        <time>2022-04-14T08:23:46Z</time>
      </trkpt>
      <trkpt lat="42.1945245378" lon="-0.4840629548">
        <ele>572.60</ele>
        <time>2022-04-14T08:23:50Z</time>
      </trkpt>
      <trkpt lat="42.1945334226" lon="-0.4840922914">
        <ele>572.60</ele>
        <time>2022-04-14T08:23:52Z</time>
      </trkpt>
      <trkpt lat="42.1945355181" lon="-0.4841715004">
        <ele>572.60</ele>
        <time>2022-04-14T08:23:59Z</time>
      </trkpt>
      <trkpt lat="42.1945700515" lon="-0.4843981471">
        <ele>572.60</ele>
        <time>2022-04-14T08:24:12Z</time>
      </trkpt>
      <trkpt lat="42.1945986338" lon="-0.4846401326">
        <ele>573.08</ele>
        <time>2022-04-14T08:24:24Z</time>
      </trkpt>
      <trkpt lat="42.1946451534" lon="-0.4848154821">
        <ele>573.08</ele>
        <time>2022-04-14T08:24:34Z</time>
      </trkpt>
      <trkpt lat="42.1946437284" lon="-0.4850338306">
        <ele>573.08</ele>
        <time>2022-04-14T08:24:46Z</time>
      </trkpt>
      <trkpt lat="42.1946571395" lon="-0.4851493333">
        <ele>573.08</ele>
        <time>2022-04-14T08:24:51Z</time>
      </trkpt>
      <trkpt lat="42.1946456563" lon="-0.4852670152">
        <ele>573.08</ele>
        <time>2022-04-14T08:24:57Z</time>
      </trkpt>
      <trkpt lat="42.1946632583" lon="-0.4854620621">
        <ele>573.56</ele>
        <time>2022-04-14T08:25:08Z</time>
      </trkpt>
      <trkpt lat="42.1946665272" lon="-0.4854753055">
        <ele>573.56</ele>
        <time>2022-04-14T08:25:09Z</time>
      </trkpt>
      <trkpt lat="42.1946692094" lon="-0.4855856951">
        <ele>573.56</ele>
        <time>2022-04-14T08:25:14Z</time>
      </trkpt>
      <trkpt lat="42.1946753282" lon="-0.4856791534">
        <ele>573.56</ele>
        <time>2022-04-14T08:25:21Z</time>
      </trkpt>
      <trkpt lat="42.1947114542" lon="-0.4858847614">
        <ele>573.56</ele>
        <time>2022-04-14T08:25:32Z</time>
      </trkpt>
      <trkpt lat="42.1947969496" lon="-0.4860974941">
        <ele>574.04</ele>
        <time>2022-04-14T08:25:45Z</time>
      </trkpt>
      <trkpt lat="42.1948063374" lon="-0.4861673154">
        <ele>574.04</ele>
        <time>2022-04-14T08:25:49Z</time>
      </trkpt>
      <trkpt lat="42.1948374342" lon="-0.4863488674">
        <ele>574.53</ele>
        <time>2022-04-14T08:25:59Z</time>
      </trkpt>
      <trkpt lat="42.1948578022" lon="-0.4864569101">
        <ele>574.53</ele>
        <time>2022-04-14T08:26:04Z</time>
      </trkpt>
      <trkpt lat="42.1949188225" lon="-0.4866225366">
        <ele>574.53</ele>
        <time>2022-04-14T08:26:15Z</time>
      </trkpt>
      <trkpt lat="42.1949909069" lon="-0.4868465010">
        <ele>575.01</ele>
        <time>2022-04-14T08:26:28Z</time>
      </trkpt>
      <trkpt lat="42.1951029729" lon="-0.4870919231">
        <ele>575.49</ele>
        <time>2022-04-14T08:26:43Z</time>
      </trkpt>
      <trkpt lat="42.1951127797" lon="-0.4871267918">
        <ele>575.49</ele>
        <time>2022-04-14T08:26:45Z</time>
      </trkpt>
      <trkpt lat="42.1951522585" lon="-0.4872017261">
        <ele>575.49</ele>
        <time>2022-04-14T08:26:51Z</time>
      </trkpt>
      <trkpt lat="42.1952245943" lon="-0.4874463100">
        <ele>576.45</ele>
        <time>2022-04-14T08:27:05Z</time>
      </trkpt>
      <trkpt lat="42.1952546015" lon="-0.4876325559">
        <ele>576.45</ele>
        <time>2022-04-14T08:27:16Z</time>
      </trkpt>
      <trkpt lat="42.1952576190" lon="-0.4876451287">
        <ele>576.45</ele>
        <time>2022-04-14T08:27:17Z</time>
      </trkpt>
      <trkpt lat="42.1953377500" lon="-0.4878554307">
        <ele>576.45</ele>
        <time>2022-04-14T08:27:29Z</time>
      </trkpt>
      <trkpt lat="42.1954413503" lon="-0.4881043732">
        <ele>576.93</ele>
        <time>2022-04-14T08:27:43Z</time>
      </trkpt>
      <trkpt lat="42.1954597067" lon="-0.4882704187">
        <ele>576.93</ele>
        <time>2022-04-14T08:27:54Z</time>
      </trkpt>
      <trkpt lat="42.1955030411" lon="-0.4884396493">
        <ele>577.41</ele>
        <time>2022-04-14T08:28:05Z</time>
      </trkpt>
      <trkpt lat="42.1955102496" lon="-0.4884613585">
        <ele>577.41</ele>
        <time>2022-04-14T08:28:06Z</time>
      </trkpt>
      <trkpt lat="42.1955563501" lon="-0.4885876738">
        <ele>577.41</ele>
        <time>2022-04-14T08:28:13Z</time>
      </trkpt>
      <trkpt lat="42.1956336312" lon="-0.4888035916">
        <ele>577.41</ele>
        <time>2022-04-14T08:28:25Z</time>
      </trkpt>
      <trkpt lat="42.1956845932" lon="-0.4889434017">
        <ele>577.41</ele>
        <time>2022-04-14T08:28:33Z</time>
      </trkpt>
      <trkpt lat="42.1956995968" lon="-0.4889810365">
        <ele>577.41</ele>
        <time>2022-04-14T08:28:36Z</time>
      </trkpt>
      <trkpt lat="42.1957845893" lon="-0.4891910870">
        <ele>577.41</ele>
        <time>2022-04-14T08:28:48Z</time>
      </trkpt>
      <trkpt lat="42.1957915463" lon="-0.4891973734">
        <ele>577.41</ele>
        <time>2022-04-14T08:28:49Z</time>
      </trkpt>
      <trkpt lat="42.1958433464" lon="-0.4894448072">
        <ele>577.89</ele>
        <time>2022-04-14T08:29:03Z</time>
      </trkpt>
      <trkpt lat="42.1958365571" lon="-0.4895696137">
        <ele>576.45</ele>
        <time>2022-04-14T08:29:10Z</time>
      </trkpt>
      <trkpt lat="42.1958418377" lon="-0.4896279518">
        <ele>575.49</ele>
        <time>2022-04-14T08:29:15Z</time>
      </trkpt>
      <trkpt lat="42.1958608646" lon="-0.4897065740">
        <ele>575.01</ele>
        <time>2022-04-14T08:29:19Z</time>
      </trkpt>
      <trkpt lat="42.1959309373" lon="-0.4899746273">
        <ele>573.56</ele>
        <time>2022-04-14T08:29:32Z</time>
      </trkpt>
      <trkpt lat="42.1960409079" lon="-0.4902333766">
        <ele>573.56</ele>
        <time>2022-04-14T08:29:46Z</time>
      </trkpt>
      <trkpt lat="42.1960540675" lon="-0.4902703408">
        <ele>573.56</ele>
        <time>2022-04-14T08:29:48Z</time>
      </trkpt>
      <trkpt lat="42.1960720047" lon="-0.4903597757">
        <ele>573.56</ele>
        <time>2022-04-14T08:29:54Z</time>
      </trkpt>
      <trkpt lat="42.1961423289" lon="-0.4906171840">
        <ele>573.08</ele>
        <time>2022-04-14T08:30:08Z</time>
      </trkpt>
      <trkpt lat="42.1961729228" lon="-0.4907615203">
        <ele>573.08</ele>
        <time>2022-04-14T08:30:17Z</time>
      </trkpt>
      <trkpt lat="42.1962283272" lon="-0.4909211118">
        <ele>573.08</ele>
        <time>2022-04-14T08:30:27Z</time>
      </trkpt>
      <trkpt lat="42.1962892637" lon="-0.4911315814">
        <ele>573.08</ele>
        <time>2022-04-14T08:30:39Z</time>
      </trkpt>
      <trkpt lat="42.1963341907" lon="-0.4912274703">
        <ele>573.08</ele>
        <time>2022-04-14T08:30:47Z</time>
      </trkpt>
      <trkpt lat="42.1963988151" lon="-0.4914386943">
        <ele>574.04</ele>
        <time>2022-04-14T08:30:59Z</time>
      </trkpt>
      <trkpt lat="42.1964683849" lon="-0.4916190729">
        <ele>574.04</ele>
        <time>2022-04-14T08:31:09Z</time>
      </trkpt>
      <trkpt lat="42.1965177543" lon="-0.4917489924">
        <ele>574.53</ele>
        <time>2022-04-14T08:31:16Z</time>
      </trkpt>
      <trkpt lat="42.1965971310" lon="-0.4919426981">
        <ele>575.01</ele>
        <time>2022-04-14T08:31:28Z</time>
      </trkpt>
      <trkpt lat="42.1966127213" lon="-0.4919742141">
        <ele>575.01</ele>
        <time>2022-04-14T08:31:31Z</time>
      </trkpt>
      <trkpt lat="42.1966542955" lon="-0.4920354858">
        <ele>575.01</ele>
        <time>2022-04-14T08:31:36Z</time>
      </trkpt>
      <trkpt lat="42.1967080235" lon="-0.4922235757">
        <ele>575.49</ele>
        <time>2022-04-14T08:31:47Z</time>
      </trkpt>
      <trkpt lat="42.1967475861" lon="-0.4923856817">
        <ele>575.49</ele>
        <time>2022-04-14T08:31:56Z</time>
      </trkpt>
      <trkpt lat="42.1967960335" lon="-0.4925494641">
        <ele>575.97</ele>
        <time>2022-04-14T08:32:06Z</time>
      </trkpt>
      <trkpt lat="42.1968168207" lon="-0.4926747736">
        <ele>575.97</ele>
        <time>2022-04-14T08:32:12Z</time>
      </trkpt>
      <trkpt lat="42.1968287230" lon="-0.4927507974">
        <ele>576.45</ele>
        <time>2022-04-14T08:32:17Z</time>
      </trkpt>
      <trkpt lat="42.1969245281" lon="-0.4929802939">
        <ele>576.45</ele>
        <time>2022-04-14T08:32:30Z</time>
      </trkpt>
      <trkpt lat="42.1970417071" lon="-0.4931784421">
        <ele>576.45</ele>
        <time>2022-04-14T08:32:44Z</time>
      </trkpt>
      <trkpt lat="42.1971406136" lon="-0.4933587369">
        <ele>577.41</ele>
        <time>2022-04-14T08:32:56Z</time>
      </trkpt>
      <trkpt lat="42.1971567906" lon="-0.4933968745">
        <ele>577.41</ele>
        <time>2022-04-14T08:32:58Z</time>
      </trkpt>
      <trkpt lat="42.1972009633" lon="-0.4934431426">
        <ele>577.41</ele>
        <time>2022-04-14T08:33:03Z</time>
      </trkpt>
      <trkpt lat="42.1972678509" lon="-0.4935503472">
        <ele>577.41</ele>
        <time>2022-04-14T08:33:08Z</time>
      </trkpt>
      <trkpt lat="42.1973789111" lon="-0.4937827773">
        <ele>578.37</ele>
        <time>2022-04-14T08:33:24Z</time>
      </trkpt>
      <trkpt lat="42.1974955872" lon="-0.4939701129">
        <ele>578.85</ele>
        <time>2022-04-14T08:33:37Z</time>
      </trkpt>
      <trkpt lat="42.1975193918" lon="-0.4940258525">
        <ele>578.85</ele>
        <time>2022-04-14T08:33:40Z</time>
      </trkpt>
      <trkpt lat="42.1975521650" lon="-0.4940753896">
        <ele>578.85</ele>
        <time>2022-04-14T08:33:44Z</time>
      </trkpt>
      <trkpt lat="42.1975966729" lon="-0.4941691831">
        <ele>579.33</ele>
        <time>2022-04-14T08:33:52Z</time>
      </trkpt>
      <trkpt lat="42.1976436954" lon="-0.4943551775">
        <ele>579.81</ele>
        <time>2022-04-14T08:34:01Z</time>
      </trkpt>
      <trkpt lat="42.1976835094" lon="-0.4944184609">
        <ele>578.37</ele>
        <time>2022-04-14T08:34:07Z</time>
      </trkpt>
      <trkpt lat="42.1977101639" lon="-0.4945745319">
        <ele>577.89</ele>
        <time>2022-04-14T08:34:14Z</time>
      </trkpt>
      <trkpt lat="42.1977720223" lon="-0.4948070459">
        <ele>577.41</ele>
        <time>2022-04-14T08:34:27Z</time>
      </trkpt>
      <trkpt lat="42.1978512313" lon="-0.4949937109">
        <ele>576.93</ele>
        <time>2022-04-14T08:34:40Z</time>
      </trkpt>
      <trkpt lat="42.1978951525" lon="-0.4951036815">
        <ele>575.97</ele>
        <time>2022-04-14T08:34:47Z</time>
      </trkpt>
      <trkpt lat="42.1979330387" lon="-0.4951666296">
        <ele>575.97</ele>
        <time>2022-04-14T08:34:52Z</time>
      </trkpt>
      <trkpt lat="42.1979704220" lon="-0.4952743370">
        <ele>575.49</ele>
        <time>2022-04-14T08:34:57Z</time>
      </trkpt>
      <trkpt lat="42.1980767883" lon="-0.4955266323">
        <ele>574.04</ele>
        <time>2022-04-14T08:35:11Z</time>
      </trkpt>
      <trkpt lat="42.1980903670" lon="-0.4955759179">
        <ele>573.56</ele>
        <time>2022-04-14T08:35:15Z</time>
      </trkpt>
      <trkpt lat="42.1981155127" lon="-0.4957024008">
        <ele>573.08</ele>
        <time>2022-04-14T08:35:21Z</time>
      </trkpt>
      <trkpt lat="42.1981482860" lon="-0.4959001299">
        <ele>571.64</ele>
        <time>2022-04-14T08:35:32Z</time>
      </trkpt>
      <trkpt lat="42.1981670614" lon="-0.4960096814">
        <ele>571.64</ele>
        <time>2022-04-14T08:35:38Z</time>
      </trkpt>
      <trkpt lat="42.1981944703" lon="-0.4961030558">
        <ele>571.64</ele>
        <time>2022-04-14T08:35:42Z</time>
      </trkpt>
      <trkpt lat="42.1982055344" lon="-0.4961400200">
        <ele>571.64</ele>
        <time>2022-04-14T08:35:44Z</time>
      </trkpt>
      <trkpt lat="42.1982223820" lon="-0.4961969331">
        <ele>571.16</ele>
        <time>2022-04-14T08:35:48Z</time>
      </trkpt>
      <trkpt lat="42.1982262377" lon="-0.4962805007">
        <ele>571.16</ele>
        <time>2022-04-14T08:35:52Z</time>
      </trkpt>
      <trkpt lat="42.1982316021" lon="-0.4964170419">
        <ele>570.68</ele>
        <time>2022-04-14T08:36:00Z</time>
      </trkpt>
      <trkpt lat="42.1982528083" lon="-0.4966436885">
        <ele>570.20</ele>
        <time>2022-04-14T08:36:13Z</time>
      </trkpt>
      <trkpt lat="42.1983033512" lon="-0.4968132544">
        <ele>569.72</ele>
        <time>2022-04-14T08:36:22Z</time>
      </trkpt>
      <trkpt lat="42.1983307600" lon="-0.4968632106">
        <ele>569.24</ele>
        <time>2022-04-14T08:36:26Z</time>
      </trkpt>
      <trkpt lat="42.1984549798" lon="-0.4970756080">
        <ele>568.76</ele>
        <time>2022-04-14T08:36:39Z</time>
      </trkpt>
      <trkpt lat="42.1985011641" lon="-0.4972986504">
        <ele>568.28</ele>
        <time>2022-04-14T08:36:51Z</time>
      </trkpt>
      <trkpt lat="42.1984823048" lon="-0.4974126443">
        <ele>568.28</ele>
        <time>2022-04-14T08:36:57Z</time>
      </trkpt>
      <trkpt lat="42.1983885951" lon="-0.4975242913">
        <ele>568.28</ele>
        <time>2022-04-14T08:37:06Z</time>
      </trkpt>
      <trkpt lat="42.1982028522" lon="-0.4977059271">
        <ele>568.28</ele>
        <time>2022-04-14T08:37:22Z</time>
      </trkpt>
      <trkpt lat="42.1980526485" lon="-0.4978775885">
        <ele>568.28</ele>
        <time>2022-04-14T08:37:35Z</time>
      </trkpt>
      <trkpt lat="42.1978812385" lon="-0.4979283828">
        <ele>567.80</ele>
        <time>2022-04-14T08:37:48Z</time>
      </trkpt>
      <trkpt lat="42.1977017820" lon="-0.4979619104">
        <ele>565.39</ele>
        <time>2022-04-14T08:38:01Z</time>
      </trkpt>
      <trkpt lat="42.1975359041" lon="-0.4980455618">
        <ele>564.43</ele>
        <time>2022-04-14T08:38:14Z</time>
      </trkpt>
      <trkpt lat="42.1973427851" lon="-0.4982127808">
        <ele>562.03</ele>
        <time>2022-04-14T08:38:30Z</time>
      </trkpt>
      <trkpt lat="42.1973297931" lon="-0.4982311372">
        <ele>561.55</ele>
        <time>2022-04-14T08:38:32Z</time>
      </trkpt>
      <trkpt lat="42.1972144581" lon="-0.4984078277">
        <ele>560.11</ele>
        <time>2022-04-14T08:38:45Z</time>
      </trkpt>
      <trkpt lat="42.1971593890" lon="-0.4985883739">
        <ele>559.14</ele>
        <time>2022-04-14T08:38:55Z</time>
      </trkpt>
      <trkpt lat="42.1971420385" lon="-0.4986173753">
        <ele>559.14</ele>
        <time>2022-04-14T08:38:58Z</time>
      </trkpt>
      <trkpt lat="42.1970500052" lon="-0.4988633003">
        <ele>556.26</ele>
        <time>2022-04-14T08:39:12Z</time>
      </trkpt>
      <trkpt lat="42.1969586425" lon="-0.4990554135">
        <ele>554.82</ele>
        <time>2022-04-14T08:39:25Z</time>
      </trkpt>
      <trkpt lat="42.1968159825" lon="-0.4991922062">
        <ele>553.38</ele>
        <time>2022-04-14T08:39:37Z</time>
      </trkpt>
      <trkpt lat="42.1967128851" lon="-0.4992351215">
        <ele>552.41</ele>
        <time>2022-04-14T08:39:44Z</time>
      </trkpt>
      <trkpt lat="42.1965201013" lon="-0.4993099719">
        <ele>551.93</ele>
        <time>2022-04-14T08:39:58Z</time>
      </trkpt>
      <trkpt lat="42.1963644493" lon="-0.4993688967">
        <ele>551.45</ele>
        <time>2022-04-14T08:40:10Z</time>
      </trkpt>
      <trkpt lat="42.1961998288" lon="-0.4994527157">
        <ele>551.45</ele>
        <time>2022-04-14T08:40:23Z</time>
      </trkpt>
      <trkpt lat="42.1960251499" lon="-0.4995403904">
        <ele>550.97</ele>
        <time>2022-04-14T08:40:35Z</time>
      </trkpt>
      <trkpt lat="42.1958862618" lon="-0.4997009877">
        <ele>550.97</ele>
        <time>2022-04-14T08:40:48Z</time>
      </trkpt>
      <trkpt lat="42.1957715973" lon="-0.4999006446">
        <ele>550.49</ele>
        <time>2022-04-14T08:41:01Z</time>
      </trkpt>
      <trkpt lat="42.1957406681" lon="-0.4999553785">
        <ele>550.49</ele>
        <time>2022-04-14T08:41:06Z</time>
      </trkpt>
      <trkpt lat="42.1956217289" lon="-0.5001952685">
        <ele>550.49</ele>
        <time>2022-04-14T08:41:21Z</time>
      </trkpt>
      <trkpt lat="42.1955183800" lon="-0.5004146229">
        <ele>550.49</ele>
        <time>2022-04-14T08:41:35Z</time>
      </trkpt>
      <trkpt lat="42.1954448707" lon="-0.5006439518">
        <ele>550.01</ele>
        <time>2022-04-14T08:41:49Z</time>
      </trkpt>
      <trkpt lat="42.1953903884" lon="-0.5009018630">
        <ele>549.05</ele>
        <time>2022-04-14T08:42:04Z</time>
      </trkpt>
      <trkpt lat="42.1953923162" lon="-0.5009394977">
        <ele>549.05</ele>
        <time>2022-04-14T08:42:07Z</time>
      </trkpt>
      <trkpt lat="42.1953856107" lon="-0.5010218080">
        <ele>548.57</ele>
        <time>2022-04-14T08:42:11Z</time>
      </trkpt>
      <trkpt lat="42.1953541785" lon="-0.5012583453">
        <ele>547.61</ele>
        <time>2022-04-14T08:42:24Z</time>
      </trkpt>
      <trkpt lat="42.1952988580" lon="-0.5015289970">
        <ele>546.17</ele>
        <time>2022-04-14T08:42:40Z</time>
      </trkpt>
      <trkpt lat="42.1952704433" lon="-0.5015330203">
        <ele>550.01</ele>
        <time>2022-04-14T08:42:51Z</time>
      </trkpt>
      <trkpt lat="42.1952670068" lon="-0.5015310925">
        <ele>548.09</ele>
        <time>2022-04-14T08:42:52Z</time>
      </trkpt>
      <trkpt lat="42.1952664200" lon="-0.5015300866">
        <ele>544.24</ele>
        <time>2022-04-14T08:42:54Z</time>
      </trkpt>
      <trkpt lat="42.1952680964" lon="-0.5015260633">
        <ele>546.17</ele>
        <time>2022-04-14T08:42:55Z</time>
      </trkpt>
      <trkpt lat="42.1952710301" lon="-0.5015269015">
        <ele>545.20</ele>
        <time>2022-04-14T08:43:03Z</time>
      </trkpt>
      <trkpt lat="42.1952835191" lon="-0.5015226267">
        <ele>546.17</ele>
        <time>2022-04-14T08:43:32Z</time>
      </trkpt>
      <trkpt lat="42.1952796634" lon="-0.5015123170">
        <ele>545.69</ele>
        <time>2022-04-14T08:44:01Z</time>
      </trkpt>
      <trkpt lat="42.1952751372" lon="-0.5015213694">
        <ele>545.69</ele>
        <time>2022-04-14T08:44:33Z</time>
      </trkpt>
      <trkpt lat="42.1952810884" lon="-0.5015219562">
        <ele>545.69</ele>
        <time>2022-04-14T08:45:13Z</time>
      </trkpt>
      <trkpt lat="42.1952852793" lon="-0.5015085451">
        <ele>546.17</ele>
        <time>2022-04-14T08:45:48Z</time>
      </trkpt>
      <trkpt lat="42.1952806693" lon="-0.5015298352">
        <ele>546.17</ele>
        <time>2022-04-14T08:46:15Z</time>
      </trkpt>
      <trkpt lat="42.1952877939" lon="-0.5015282426">
        <ele>546.65</ele>
        <time>2022-04-14T08:46:20Z</time>
      </trkpt>
      <trkpt lat="42.1952893026" lon="-0.5015331879">
        <ele>545.69</ele>
        <time>2022-04-14T08:46:40Z</time>
      </trkpt>
      <trkpt lat="42.1952888835" lon="-0.5015108082">
        <ele>545.69</ele>
        <time>2022-04-14T08:47:16Z</time>
      </trkpt>
      <trkpt lat="42.1952810884" lon="-0.5015336070">
        <ele>545.20</ele>
        <time>2022-04-14T08:47:48Z</time>
      </trkpt>
      <trkpt lat="42.1952839382" lon="-0.5015314277">
        <ele>546.17</ele>
        <time>2022-04-14T08:48:20Z</time>
      </trkpt>
      <trkpt lat="42.1952852793" lon="-0.5015421566">
        <ele>545.69</ele>
        <time>2022-04-14T08:48:32Z</time>
      </trkpt>
      <trkpt lat="42.1952375025" lon="-0.5018361937">
        <ele>545.69</ele>
        <time>2022-04-14T08:48:48Z</time>
      </trkpt>
      <trkpt lat="42.1952967625" lon="-0.5020514410">
        <ele>543.28</ele>
        <time>2022-04-14T08:49:01Z</time>
      </trkpt>
      <trkpt lat="42.1953365766" lon="-0.5021450669">
        <ele>542.32</ele>
        <time>2022-04-14T08:49:08Z</time>
      </trkpt>
      <trkpt lat="42.1953920648" lon="-0.5023124535">
        <ele>541.36</ele>
        <time>2022-04-14T08:49:17Z</time>
      </trkpt>
      <trkpt lat="42.1954191383" lon="-0.5023506749">
        <ele>540.40</ele>
        <time>2022-04-14T08:49:20Z</time>
      </trkpt>
      <trkpt lat="42.1954787336" lon="-0.5026050657">
        <ele>539.44</ele>
        <time>2022-04-14T08:49:33Z</time>
      </trkpt>
      <trkpt lat="42.1955465432" lon="-0.5028433632">
        <ele>537.99</ele>
        <time>2022-04-14T08:49:46Z</time>
      </trkpt>
      <trkpt lat="42.1956281830" lon="-0.5030588619">
        <ele>536.55</ele>
        <time>2022-04-14T08:49:59Z</time>
      </trkpt>
      <trkpt lat="42.1957198810" lon="-0.5032880232">
        <ele>535.59</ele>
        <time>2022-04-14T08:50:13Z</time>
      </trkpt>
      <trkpt lat="42.1958391555" lon="-0.5034922063">
        <ele>535.59</ele>
        <time>2022-04-14T08:50:26Z</time>
      </trkpt>
      <trkpt lat="42.1959818155" lon="-0.5036311783">
        <ele>535.11</ele>
        <time>2022-04-14T08:50:39Z</time>
      </trkpt>
      <trkpt lat="42.1961508784" lon="-0.5037377123">
        <ele>535.11</ele>
        <time>2022-04-14T08:50:52Z</time>
      </trkpt>
      <trkpt lat="42.1962140780" lon="-0.5037948769">
        <ele>535.11</ele>
        <time>2022-04-14T08:50:58Z</time>
      </trkpt>
      <trkpt lat="42.1963196900" lon="-0.5039991438">
        <ele>534.63</ele>
        <time>2022-04-14T08:51:11Z</time>
      </trkpt>
      <trkpt lat="42.1964049339" lon="-0.5042471644">
        <ele>534.63</ele>
        <time>2022-04-14T08:51:25Z</time>
      </trkpt>
      <trkpt lat="42.1964603383" lon="-0.5044780020">
        <ele>535.11</ele>
        <time>2022-04-14T08:51:38Z</time>
      </trkpt>
      <trkpt lat="42.1965114679" lon="-0.5046226736">
        <ele>534.63</ele>
        <time>2022-04-14T08:51:46Z</time>
      </trkpt>
      <trkpt lat="42.1965612564" lon="-0.5047987774">
        <ele>534.15</ele>
        <time>2022-04-14T08:51:56Z</time>
      </trkpt>
      <trkpt lat="42.1966162417" lon="-0.5049569439">
        <ele>534.15</ele>
        <time>2022-04-14T08:52:05Z</time>
      </trkpt>
      <trkpt lat="42.1966708917" lon="-0.5051121768">
        <ele>533.67</ele>
        <time>2022-04-14T08:52:14Z</time>
      </trkpt>
      <trkpt lat="42.1967537049" lon="-0.5053372309">
        <ele>533.67</ele>
        <time>2022-04-14T08:52:27Z</time>
      </trkpt>
      <trkpt lat="42.1967847180" lon="-0.5054105725">
        <ele>533.19</ele>
        <time>2022-04-14T08:52:31Z</time>
      </trkpt>
      <trkpt lat="42.1968433075" lon="-0.5055897776">
        <ele>533.19</ele>
        <time>2022-04-14T08:52:42Z</time>
      </trkpt>
      <trkpt lat="42.1968849655" lon="-0.5056671426">
        <ele>533.67</ele>
        <time>2022-04-14T08:52:46Z</time>
      </trkpt>
      <trkpt lat="42.1969060879" lon="-0.5057525542">
        <ele>533.67</ele>
        <time>2022-04-14T08:52:51Z</time>
      </trkpt>
      <trkpt lat="42.1970479935" lon="-0.5059930310">
        <ele>533.67</ele>
        <time>2022-04-14T08:53:06Z</time>
      </trkpt>
      <trkpt lat="42.1970564593" lon="-0.5060036760">
        <ele>533.67</ele>
        <time>2022-04-14T08:53:07Z</time>
      </trkpt>
      <trkpt lat="42.1970865503" lon="-0.5060738325">
        <ele>533.67</ele>
        <time>2022-04-14T08:53:11Z</time>
      </trkpt>
      <trkpt lat="42.1971691120" lon="-0.5062355194">
        <ele>533.67</ele>
        <time>2022-04-14T08:53:23Z</time>
      </trkpt>
      <trkpt lat="42.1972173080" lon="-0.5063330848">
        <ele>533.67</ele>
        <time>2022-04-14T08:53:29Z</time>
      </trkpt>
      <trkpt lat="42.1972623188" lon="-0.5064775050">
        <ele>533.67</ele>
        <time>2022-04-14T08:53:37Z</time>
      </trkpt>
      <trkpt lat="42.1972869616" lon="-0.5065297242">
        <ele>533.67</ele>
        <time>2022-04-14T08:53:41Z</time>
      </trkpt>
      <trkpt lat="42.1973141190" lon="-0.5066448916">
        <ele>533.67</ele>
        <time>2022-04-14T08:53:51Z</time>
      </trkpt>
      <trkpt lat="42.1973250154" lon="-0.5067604780">
        <ele>533.67</ele>
        <time>2022-04-14T08:53:58Z</time>
      </trkpt>
      <trkpt lat="42.1972989477" lon="-0.5068973545">
        <ele>535.11</ele>
        <time>2022-04-14T08:54:09Z</time>
      </trkpt>
      <trkpt lat="42.1972784959" lon="-0.5070865341">
        <ele>535.11</ele>
        <time>2022-04-14T08:54:19Z</time>
      </trkpt>
      <trkpt lat="42.1972663421" lon="-0.5073026195">
        <ele>535.59</ele>
        <time>2022-04-14T08:54:32Z</time>
      </trkpt>
      <trkpt lat="42.1972553618" lon="-0.5075309426">
        <ele>536.07</ele>
        <time>2022-04-14T08:54:43Z</time>
      </trkpt>
      <trkpt lat="42.1972685214" lon="-0.5075985845">
        <ele>536.55</ele>
        <time>2022-04-14T08:54:57Z</time>
      </trkpt>
      <trkpt lat="42.1973237582" lon="-0.5076669808">
        <ele>537.03</ele>
        <time>2022-04-14T08:55:03Z</time>
      </trkpt>
      <trkpt lat="42.1975448728" lon="-0.5076030269">
        <ele>537.99</ele>
        <time>2022-04-14T08:55:19Z</time>
      </trkpt>
      <trkpt lat="42.1977514029" lon="-0.5076347943">
        <ele>538.48</ele>
        <time>2022-04-14T08:55:34Z</time>
      </trkpt>
      <trkpt lat="42.1979463659" lon="-0.5077411607">
        <ele>538.96</ele>
        <time>2022-04-14T08:55:49Z</time>
      </trkpt>
      <trkpt lat="42.1979747806" lon="-0.5077720899">
        <ele>538.96</ele>
        <time>2022-04-14T08:55:52Z</time>
      </trkpt>
      <trkpt lat="42.1980362199" lon="-0.5078321043">
        <ele>539.44</ele>
        <time>2022-04-14T08:55:58Z</time>
      </trkpt>
      <trkpt lat="42.1980733518" lon="-0.5080754310">
        <ele>540.88</ele>
        <time>2022-04-14T08:56:10Z</time>
      </trkpt>
      <trkpt lat="42.1980265807" lon="-0.5082422309">
        <ele>541.84</ele>
        <time>2022-04-14T08:56:21Z</time>
      </trkpt>
      <trkpt lat="42.1979744453" lon="-0.5084910896">
        <ele>542.32</ele>
        <time>2022-04-14T08:56:35Z</time>
      </trkpt>
      <trkpt lat="42.1979136765" lon="-0.5086982902">
        <ele>542.32</ele>
        <time>2022-04-14T08:56:49Z</time>
      </trkpt>
      <trkpt lat="42.1979104076" lon="-0.5086966138">
        <ele>542.32</ele>
        <time>2022-04-14T08:56:52Z</time>
      </trkpt>
      <trkpt lat="42.1979362238" lon="-0.5087564606">
        <ele>542.32</ele>
        <time>2022-04-14T08:56:56Z</time>
      </trkpt>
      <trkpt lat="42.1979603637" lon="-0.5088169780">
        <ele>542.32</ele>
        <time>2022-04-14T08:57:01Z</time>
      </trkpt>
      <trkpt lat="42.1981748566" lon="-0.5089450534">
        <ele>542.32</ele>
        <time>2022-04-14T08:57:17Z</time>
      </trkpt>
      <trkpt lat="42.1983761061" lon="-0.5090737157">
        <ele>543.28</ele>
        <time>2022-04-14T08:57:33Z</time>
      </trkpt>
      <trkpt lat="42.1985761821" lon="-0.5091988575">
        <ele>543.76</ele>
        <time>2022-04-14T08:57:49Z</time>
      </trkpt>
      <trkpt lat="42.1987232845" lon="-0.5092739593">
        <ele>543.76</ele>
        <time>2022-04-14T08:58:00Z</time>
      </trkpt>
      <trkpt lat="42.1988780983" lon="-0.5093727820">
        <ele>544.24</ele>
        <time>2022-04-14T08:58:13Z</time>
      </trkpt>
      <trkpt lat="42.1989635937" lon="-0.5094187986">
        <ele>544.72</ele>
        <time>2022-04-14T08:58:21Z</time>
      </trkpt>
      <trkpt lat="42.1991315670" lon="-0.5096466187">
        <ele>545.20</ele>
        <time>2022-04-14T08:58:36Z</time>
      </trkpt>
      <trkpt lat="42.1992573794" lon="-0.5098526459">
        <ele>545.69</ele>
        <time>2022-04-14T08:58:50Z</time>
      </trkpt>
      <trkpt lat="42.1992749814" lon="-0.5098801386">
        <ele>546.17</ele>
        <time>2022-04-14T08:58:52Z</time>
      </trkpt>
      <trkpt lat="42.1992936730" lon="-0.5099439248">
        <ele>546.17</ele>
        <time>2022-04-14T08:58:57Z</time>
      </trkpt>
      <trkpt lat="42.1993501671" lon="-0.5101124849">
        <ele>546.17</ele>
        <time>2022-04-14T08:59:06Z</time>
      </trkpt>
      <trkpt lat="42.1993597224" lon="-0.5101531371">
        <ele>546.17</ele>
        <time>2022-04-14T08:59:09Z</time>
      </trkpt>
      <trkpt lat="42.1993572079" lon="-0.5101890955">
        <ele>546.17</ele>
        <time>2022-04-14T08:59:12Z</time>
      </trkpt>
      <trkpt lat="42.1993895620" lon="-0.5102548935">
        <ele>546.17</ele>
        <time>2022-04-14T08:59:16Z</time>
      </trkpt>
      <trkpt lat="42.1994521748" lon="-0.5103509501">
        <ele>547.13</ele>
        <time>2022-04-14T08:59:22Z</time>
      </trkpt>
      <trkpt lat="42.1994990297" lon="-0.5104575679">
        <ele>547.13</ele>
        <time>2022-04-14T08:59:31Z</time>
      </trkpt>
      <trkpt lat="42.1997361537" lon="-0.5106148962">
        <ele>547.61</ele>
        <time>2022-04-14T08:59:48Z</time>
      </trkpt>
      <trkpt lat="42.1999518201" lon="-0.5106659420">
        <ele>547.61</ele>
        <time>2022-04-14T09:00:04Z</time>
      </trkpt>
      <trkpt lat="42.2001452744" lon="-0.5106604099">
        <ele>547.61</ele>
        <time>2022-04-14T09:00:19Z</time>
      </trkpt>
      <trkpt lat="42.2002566699" lon="-0.5106588174">
        <ele>547.61</ele>
        <time>2022-04-14T09:00:28Z</time>
      </trkpt>
      <trkpt lat="42.2003530618" lon="-0.5106603261">
        <ele>546.17</ele>
        <time>2022-04-14T09:00:34Z</time>
      </trkpt>
      <trkpt lat="42.2005559877" lon="-0.5106573086">
        <ele>545.69</ele>
        <time>2022-04-14T09:00:49Z</time>
      </trkpt>
      <trkpt lat="42.2007260565" lon="-0.5106474180">
        <ele>546.17</ele>
        <time>2022-04-14T09:01:02Z</time>
      </trkpt>
      <trkpt lat="42.2009259649" lon="-0.5106336717">
        <ele>547.13</ele>
        <time>2022-04-14T09:01:17Z</time>
      </trkpt>
      <trkpt lat="42.2011475824" lon="-0.5106274690">
        <ele>549.05</ele>
        <time>2022-04-14T09:01:33Z</time>
      </trkpt>
      <trkpt lat="42.2013559565" lon="-0.5106514413">
        <ele>549.05</ele>
        <time>2022-04-14T09:01:48Z</time>
      </trkpt>
      <trkpt lat="42.2015465610" lon="-0.5107162334">
        <ele>549.05</ele>
        <time>2022-04-14T09:02:03Z</time>
      </trkpt>
      <trkpt lat="42.2017529234" lon="-0.5108025670">
        <ele>549.05</ele>
        <time>2022-04-14T09:02:18Z</time>
      </trkpt>
      <trkpt lat="42.2019602917" lon="-0.5108847097">
        <ele>549.05</ele>
        <time>2022-04-14T09:02:33Z</time>
      </trkpt>
      <trkpt lat="42.2021677438" lon="-0.5109139625">
        <ele>547.13</ele>
        <time>2022-04-14T09:02:48Z</time>
      </trkpt>
      <trkpt lat="42.2023669817" lon="-0.5109318160">
        <ele>546.17</ele>
        <time>2022-04-14T09:03:03Z</time>
      </trkpt>
      <trkpt lat="42.2025663871" lon="-0.5109160580">
        <ele>546.17</ele>
        <time>2022-04-14T09:03:19Z</time>
      </trkpt>
      <trkpt lat="42.2027667984" lon="-0.5108749866">
        <ele>546.17</ele>
        <time>2022-04-14T09:03:33Z</time>
      </trkpt>
      <trkpt lat="42.2030159924" lon="-0.5108323228">
        <ele>546.17</ele>
        <time>2022-04-14T09:03:50Z</time>
      </trkpt>
      <trkpt lat="42.2032272164" lon="-0.5108078476">
        <ele>546.17</ele>
        <time>2022-04-14T09:04:06Z</time>
      </trkpt>
      <trkpt lat="42.2034293041" lon="-0.5107863899">
        <ele>546.17</ele>
        <time>2022-04-14T09:04:21Z</time>
      </trkpt>
      <trkpt lat="42.2036562022" lon="-0.5107789300">
        <ele>546.17</ele>
        <time>2022-04-14T09:04:38Z</time>
      </trkpt>
      <trkpt lat="42.2038702760" lon="-0.5107779242">
        <ele>547.61</ele>
        <time>2022-04-14T09:04:54Z</time>
      </trkpt>
      <trkpt lat="42.2040764708" lon="-0.5107661057">
        <ele>548.09</ele>
        <time>2022-04-14T09:05:09Z</time>
      </trkpt>
      <trkpt lat="42.2042781394" lon="-0.5107699614">
        <ele>548.09</ele>
        <time>2022-04-14T09:05:25Z</time>
      </trkpt>
      <trkpt lat="42.2045116592" lon="-0.5107515212">
        <ele>548.09</ele>
        <time>2022-04-14T09:05:42Z</time>
      </trkpt>
      <trkpt lat="42.2047122382" lon="-0.5107346736">
        <ele>548.57</ele>
        <time>2022-04-14T09:05:57Z</time>
      </trkpt>
      <trkpt lat="42.2049602587" lon="-0.5106991343">
        <ele>548.57</ele>
        <time>2022-04-14T09:06:15Z</time>
      </trkpt>
      <trkpt lat="42.2051789425" lon="-0.5106909201">
        <ele>549.05</ele>
        <time>2022-04-14T09:06:31Z</time>
      </trkpt>
      <trkpt lat="42.2054060083" lon="-0.5106754135">
        <ele>549.05</ele>
        <time>2022-04-14T09:06:48Z</time>
      </trkpt>
      <trkpt lat="42.2056446411" lon="-0.5106694624">
        <ele>549.53</ele>
        <time>2022-04-14T09:07:05Z</time>
      </trkpt>
      <trkpt lat="42.2058516741" lon="-0.5106690433">
        <ele>550.49</ele>
        <time>2022-04-14T09:07:21Z</time>
      </trkpt>
      <trkpt lat="42.2061049752" lon="-0.5106678698">
        <ele>550.49</ele>
        <time>2022-04-14T09:07:39Z</time>
      </trkpt>
      <trkpt lat="42.2063234914" lon="-0.5106621701">
        <ele>550.97</ele>
        <time>2022-04-14T09:07:56Z</time>
      </trkpt>
      <trkpt lat="42.2065698355" lon="-0.5106387008">
        <ele>550.97</ele>
        <time>2022-04-14T09:08:15Z</time>
      </trkpt>
      <trkpt lat="42.2067953926" lon="-0.5106530339">
        <ele>551.93</ele>
        <time>2022-04-14T09:08:32Z</time>
      </trkpt>
      <trkpt lat="42.2070564888" lon="-0.5106542073">
        <ele>551.93</ele>
        <time>2022-04-14T09:08:50Z</time>
      </trkpt>
      <trkpt lat="42.2072525416" lon="-0.5106423050">
        <ele>552.41</ele>
        <time>2022-04-14T09:09:04Z</time>
      </trkpt>
      <trkpt lat="42.2073648591" lon="-0.5106476694">
        <ele>552.90</ele>
        <time>2022-04-14T09:09:14Z</time>
      </trkpt>
      <trkpt lat="42.2075894102" lon="-0.5106625892">
        <ele>553.38</ele>
        <time>2022-04-14T09:09:31Z</time>
      </trkpt>
      <trkpt lat="42.2078458965" lon="-0.5106620025">
        <ele>553.86</ele>
        <time>2022-04-14T09:09:49Z</time>
      </trkpt>
      <trkpt lat="42.2080915701" lon="-0.5106713902">
        <ele>554.34</ele>
        <time>2022-04-14T09:10:07Z</time>
      </trkpt>
      <trkpt lat="42.2082863655" lon="-0.5106813647">
        <ele>555.30</ele>
        <time>2022-04-14T09:10:23Z</time>
      </trkpt>
      <trkpt lat="42.2085078992" lon="-0.5106829572">
        <ele>555.78</ele>
        <time>2022-04-14T09:10:40Z</time>
      </trkpt>
      <trkpt lat="42.2087065503" lon="-0.5106806941">
        <ele>556.26</ele>
        <time>2022-04-14T09:10:54Z</time>
      </trkpt>
      <trkpt lat="42.2089409083" lon="-0.5106653553">
        <ele>556.74</ele>
        <time>2022-04-14T09:11:11Z</time>
      </trkpt>
      <trkpt lat="42.2091596760" lon="-0.5106656067">
        <ele>556.74</ele>
        <time>2022-04-14T09:11:27Z</time>
      </trkpt>
      <trkpt lat="42.2093926091" lon="-0.5106766708">
        <ele>557.70</ele>
        <time>2022-04-14T09:11:43Z</time>
      </trkpt>
      <trkpt lat="42.2096312419" lon="-0.5106811132">
        <ele>558.18</ele>
        <time>2022-04-14T09:12:00Z</time>
      </trkpt>
      <trkpt lat="42.2098700423" lon="-0.5106751621">
        <ele>558.66</ele>
        <time>2022-04-14T09:12:18Z</time>
      </trkpt>
      <trkpt lat="42.2100365069" lon="-0.5106811970">
        <ele>558.66</ele>
        <time>2022-04-14T09:12:31Z</time>
      </trkpt>
      <trkpt lat="42.2102533467" lon="-0.5106933508">
        <ele>559.14</ele>
        <time>2022-04-14T09:12:46Z</time>
      </trkpt>
      <trkpt lat="42.2102815099" lon="-0.5106921773">
        <ele>559.62</ele>
        <time>2022-04-14T09:12:49Z</time>
      </trkpt>
      <trkpt lat="42.2103704419" lon="-0.5106836278">
        <ele>559.62</ele>
        <time>2022-04-14T09:12:55Z</time>
      </trkpt>
      <trkpt lat="42.2106167022" lon="-0.5106765032">
        <ele>560.11</ele>
        <time>2022-04-14T09:13:13Z</time>
      </trkpt>
      <trkpt lat="42.2108367272" lon="-0.5106858909">
        <ele>560.59</ele>
        <time>2022-04-14T09:13:29Z</time>
      </trkpt>
      <trkpt lat="42.2110714205" lon="-0.5106708873">
        <ele>561.07</ele>
        <time>2022-04-14T09:13:46Z</time>
      </trkpt>
      <trkpt lat="42.2112648748" lon="-0.5106563866">
        <ele>561.07</ele>
        <time>2022-04-14T09:14:00Z</time>
      </trkpt>
      <trkpt lat="42.2115087882" lon="-0.5106783472">
        <ele>561.55</ele>
        <time>2022-04-14T09:14:17Z</time>
      </trkpt>
      <trkpt lat="42.2117125522" lon="-0.5106738210">
        <ele>561.55</ele>
        <time>2022-04-14T09:14:32Z</time>
      </trkpt>
      <trkpt lat="42.2119183280" lon="-0.5106577277">
        <ele>561.55</ele>
        <time>2022-04-14T09:14:47Z</time>
      </trkpt>
      <trkpt lat="42.2120930068" lon="-0.5106432270">
        <ele>562.03</ele>
        <time>2022-04-14T09:15:01Z</time>
      </trkpt>
      <trkpt lat="42.2123237606" lon="-0.5106469989">
        <ele>562.51</ele>
        <time>2022-04-14T09:15:17Z</time>
      </trkpt>
      <trkpt lat="42.2125587054" lon="-0.5106498487">
        <ele>562.99</ele>
        <time>2022-04-14T09:15:33Z</time>
      </trkpt>
      <trkpt lat="42.2127778083" lon="-0.5106547102">
        <ele>563.95</ele>
        <time>2022-04-14T09:15:49Z</time>
      </trkpt>
      <trkpt lat="42.2130094003" lon="-0.5107419658">
        <ele>565.39</ele>
        <time>2022-04-14T09:16:06Z</time>
      </trkpt>
      <trkpt lat="42.2131658066" lon="-0.5108832009">
        <ele>566.83</ele>
        <time>2022-04-14T09:16:22Z</time>
      </trkpt>
      <trkpt lat="42.2131923772" lon="-0.5109072570">
        <ele>566.83</ele>
        <time>2022-04-14T09:16:24Z</time>
      </trkpt>
      <trkpt lat="42.2133964766" lon="-0.5110300519">
        <ele>567.80</ele>
        <time>2022-04-14T09:16:40Z</time>
      </trkpt>
      <trkpt lat="42.2135971393" lon="-0.5111622345">
        <ele>568.28</ele>
        <time>2022-04-14T09:16:55Z</time>
      </trkpt>
      <trkpt lat="42.2137000691" lon="-0.5112923216">
        <ele>568.28</ele>
        <time>2022-04-14T09:17:07Z</time>
      </trkpt>
      <trkpt lat="42.2138522845" lon="-0.5114388373">
        <ele>568.76</ele>
        <time>2022-04-14T09:17:19Z</time>
      </trkpt>
      <trkpt lat="42.2140364349" lon="-0.5115457065">
        <ele>568.76</ele>
        <time>2022-04-14T09:17:34Z</time>
      </trkpt>
      <trkpt lat="42.2142396960" lon="-0.5115690921">
        <ele>569.24</ele>
        <time>2022-04-14T09:17:50Z</time>
      </trkpt>
      <trkpt lat="42.2144482378" lon="-0.5115796532">
        <ele>569.72</ele>
        <time>2022-04-14T09:18:05Z</time>
      </trkpt>
      <trkpt lat="42.2146709450" lon="-0.5115896277">
        <ele>569.72</ele>
        <time>2022-04-14T09:18:21Z</time>
      </trkpt>
      <trkpt lat="42.2148871142" lon="-0.5116011109">
        <ele>570.20</ele>
        <time>2022-04-14T09:18:36Z</time>
      </trkpt>
      <trkpt lat="42.2150839213" lon="-0.5116291903">
        <ele>570.68</ele>
        <time>2022-04-14T09:18:50Z</time>
      </trkpt>
      <trkpt lat="42.2152760345" lon="-0.5116600357">
        <ele>571.16</ele>
        <time>2022-04-14T09:19:05Z</time>
      </trkpt>
      <trkpt lat="42.2154777870" lon="-0.5117028672">
        <ele>572.12</ele>
        <time>2022-04-14T09:19:20Z</time>
      </trkpt>
      <trkpt lat="42.2156860773" lon="-0.5117386580">
        <ele>572.12</ele>
        <time>2022-04-14T09:19:35Z</time>
      </trkpt>
      <trkpt lat="42.2159080300" lon="-0.5117761251">
        <ele>572.60</ele>
        <time>2022-04-14T09:19:51Z</time>
      </trkpt>
      <trkpt lat="42.2161268815" lon="-0.5117752869">
        <ele>573.08</ele>
        <time>2022-04-14T09:20:06Z</time>
      </trkpt>
      <trkpt lat="42.2163524386" lon="-0.5117647257">
        <ele>573.56</ele>
        <time>2022-04-14T09:20:22Z</time>
      </trkpt>
      <trkpt lat="42.2165790852" lon="-0.5117767956">
        <ele>574.04</ele>
        <time>2022-04-14T09:20:39Z</time>
      </trkpt>
      <trkpt lat="42.2168159578" lon="-0.5117981695">
        <ele>574.53</ele>
        <time>2022-04-14T09:20:56Z</time>
      </trkpt>
      <trkpt lat="42.2170456219" lon="-0.5118161067">
        <ele>575.01</ele>
        <time>2022-04-14T09:21:13Z</time>
      </trkpt>
      <trkpt lat="42.2172420938" lon="-0.5118677393">
        <ele>575.49</ele>
        <time>2022-04-14T09:21:28Z</time>
      </trkpt>
      <trkpt lat="42.2173268348" lon="-0.5119302683">
        <ele>575.49</ele>
        <time>2022-04-14T09:21:36Z</time>
      </trkpt>
      <trkpt lat="42.2173469514" lon="-0.5119714234">
        <ele>575.49</ele>
        <time>2022-04-14T09:21:39Z</time>
      </trkpt>
      <trkpt lat="42.2174703330" lon="-0.5121780373">
        <ele>575.97</ele>
        <time>2022-04-14T09:21:54Z</time>
      </trkpt>
      <trkpt lat="42.2176378872" lon="-0.5123678036">
        <ele>576.45</ele>
        <time>2022-04-14T09:22:09Z</time>
      </trkpt>
      <trkpt lat="42.2178419027" lon="-0.5124288239">
        <ele>576.45</ele>
        <time>2022-04-14T09:22:24Z</time>
      </trkpt>
      <trkpt lat="42.2180466726" lon="-0.5124421511">
        <ele>576.93</ele>
        <time>2022-04-14T09:22:39Z</time>
      </trkpt>
      <trkpt lat="42.2183252871" lon="-0.5124097969">
        <ele>577.89</ele>
        <time>2022-04-14T09:23:00Z</time>
      </trkpt>
      <trkpt lat="42.2185555380" lon="-0.5123560689">
        <ele>577.89</ele>
        <time>2022-04-14T09:23:18Z</time>
      </trkpt>
      <trkpt lat="42.2187605593" lon="-0.5122950487">
        <ele>578.37</ele>
        <time>2022-04-14T09:23:34Z</time>
      </trkpt>
      <trkpt lat="42.2189773154" lon="-0.5122445896">
        <ele>578.85</ele>
        <time>2022-04-14T09:23:50Z</time>
      </trkpt>
      <trkpt lat="42.2191702668" lon="-0.5121866707">
        <ele>579.81</ele>
        <time>2022-04-14T09:24:05Z</time>
      </trkpt>
      <trkpt lat="42.2193756234" lon="-0.5121204536">
        <ele>580.29</ele>
        <time>2022-04-14T09:24:21Z</time>
      </trkpt>
      <trkpt lat="42.2195865121" lon="-0.5120440945">
        <ele>581.25</ele>
        <time>2022-04-14T09:24:37Z</time>
      </trkpt>
      <trkpt lat="42.2197887674" lon="-0.5120277498">
        <ele>581.73</ele>
        <time>2022-04-14T09:24:52Z</time>
      </trkpt>
      <trkpt lat="42.2199854907" lon="-0.5121115688">
        <ele>581.73</ele>
        <time>2022-04-14T09:25:06Z</time>
      </trkpt>
      <trkpt lat="42.2201453336" lon="-0.5122308433">
        <ele>582.22</ele>
        <time>2022-04-14T09:25:19Z</time>
      </trkpt>
      <trkpt lat="42.2203361057" lon="-0.5123206135">
        <ele>580.77</ele>
        <time>2022-04-14T09:25:34Z</time>
      </trkpt>
      <trkpt lat="42.2205096111" lon="-0.5124790315">
        <ele>580.77</ele>
        <time>2022-04-14T09:25:50Z</time>
      </trkpt>
      <trkpt lat="42.2206790093" lon="-0.5126328394">
        <ele>580.77</ele>
        <time>2022-04-14T09:26:06Z</time>
      </trkpt>
      <trkpt lat="42.2208493296" lon="-0.5127731524">
        <ele>580.29</ele>
        <time>2022-04-14T09:26:22Z</time>
      </trkpt>
      <trkpt lat="42.2208663449" lon="-0.5127805285">
        <ele>580.29</ele>
        <time>2022-04-14T09:26:23Z</time>
      </trkpt>
      <trkpt lat="42.2209547739" lon="-0.5128464941">
        <ele>580.29</ele>
        <time>2022-04-14T09:26:30Z</time>
      </trkpt>
      <trkpt lat="42.2211642377" lon="-0.5129779223">
        <ele>580.29</ele>
        <time>2022-04-14T09:26:47Z</time>
      </trkpt>
      <trkpt lat="42.2213069815" lon="-0.5130738113">
        <ele>579.81</ele>
        <time>2022-04-14T09:26:58Z</time>
      </trkpt>
      <trkpt lat="42.2214555088" lon="-0.5132080056">
        <ele>578.85</ele>
        <time>2022-04-14T09:27:12Z</time>
      </trkpt>
      <trkpt lat="42.2216320317" lon="-0.5133108515">
        <ele>577.41</ele>
        <time>2022-04-14T09:27:26Z</time>
      </trkpt>
      <trkpt lat="42.2218116559" lon="-0.5133961793">
        <ele>575.97</ele>
        <time>2022-04-14T09:27:40Z</time>
      </trkpt>
      <trkpt lat="42.2219779529" lon="-0.5134751368">
        <ele>574.53</ele>
        <time>2022-04-14T09:27:54Z</time>
      </trkpt>
      <trkpt lat="42.2221795376" lon="-0.5136081576">
        <ele>573.56</ele>
        <time>2022-04-14T09:28:10Z</time>
      </trkpt>
      <trkpt lat="42.2223413084" lon="-0.5137944873">
        <ele>572.60</ele>
        <time>2022-04-14T09:28:25Z</time>
      </trkpt>
      <trkpt lat="42.2224688809" lon="-0.5139860976">
        <ele>571.64</ele>
        <time>2022-04-14T09:28:39Z</time>
      </trkpt>
      <trkpt lat="42.2225747444" lon="-0.5141549092">
        <ele>571.16</ele>
        <time>2022-04-14T09:28:51Z</time>
      </trkpt>
      <trkpt lat="42.2226754948" lon="-0.5143461842">
        <ele>571.16</ele>
        <time>2022-04-14T09:29:03Z</time>
      </trkpt>
      <trkpt lat="42.2226895764" lon="-0.5143785384">
        <ele>571.16</ele>
        <time>2022-04-14T09:29:06Z</time>
      </trkpt>
      <trkpt lat="42.2227311507" lon="-0.5144448392">
        <ele>571.16</ele>
        <time>2022-04-14T09:29:10Z</time>
      </trkpt>
      <trkpt lat="42.2228488326" lon="-0.5146610085">
        <ele>570.68</ele>
        <time>2022-04-14T09:29:24Z</time>
      </trkpt>
      <trkpt lat="42.2229172289" lon="-0.5148209352">
        <ele>570.20</ele>
        <time>2022-04-14T09:29:35Z</time>
      </trkpt>
      <trkpt lat="42.2229895648" lon="-0.5150381103">
        <ele>570.20</ele>
        <time>2022-04-14T09:29:48Z</time>
      </trkpt>
      <trkpt lat="42.2230200749" lon="-0.5151623301">
        <ele>570.20</ele>
        <time>2022-04-14T09:29:54Z</time>
      </trkpt>
      <trkpt lat="42.2230263613" lon="-0.5152536929">
        <ele>569.72</ele>
        <time>2022-04-14T09:29:59Z</time>
      </trkpt>
      <trkpt lat="42.2230264451" lon="-0.5154859554">
        <ele>569.24</ele>
        <time>2022-04-14T09:30:12Z</time>
      </trkpt>
      <trkpt lat="42.2230168898" lon="-0.5155251827">
        <ele>569.24</ele>
        <time>2022-04-14T09:30:14Z</time>
      </trkpt>
      <trkpt lat="42.2229836136" lon="-0.5157818366">
        <ele>568.28</ele>
        <time>2022-04-14T09:30:28Z</time>
      </trkpt>
      <trkpt lat="42.2229760699" lon="-0.5158530828">
        <ele>567.32</ele>
        <time>2022-04-14T09:30:33Z</time>
      </trkpt>
      <trkpt lat="42.2229344957" lon="-0.5160760414">
        <ele>565.87</ele>
        <time>2022-04-14T09:30:45Z</time>
      </trkpt>
      <trkpt lat="42.2229230963" lon="-0.5162271671">
        <ele>564.43</ele>
        <time>2022-04-14T09:30:52Z</time>
      </trkpt>
      <trkpt lat="42.2229337413" lon="-0.5163072143">
        <ele>563.95</ele>
        <time>2022-04-14T09:30:57Z</time>
      </trkpt>
      <trkpt lat="42.2229240183" lon="-0.5165560730">
        <ele>562.51</ele>
        <time>2022-04-14T09:31:10Z</time>
      </trkpt>
      <trkpt lat="42.2229017224" lon="-0.5167356133">
        <ele>561.55</ele>
        <time>2022-04-14T09:31:19Z</time>
      </trkpt>
      <trkpt lat="42.2229015548" lon="-0.5168000702">
        <ele>561.07</ele>
        <time>2022-04-14T09:31:23Z</time>
      </trkpt>
      <trkpt lat="42.2228795942" lon="-0.5170317460">
        <ele>559.62</ele>
        <time>2022-04-14T09:31:35Z</time>
      </trkpt>
      <trkpt lat="42.2228810191" lon="-0.5170553830">
        <ele>559.14</ele>
        <time>2022-04-14T09:31:37Z</time>
      </trkpt>
      <trkpt lat="42.2228992078" lon="-0.5172044132">
        <ele>559.14</ele>
        <time>2022-04-14T09:31:44Z</time>
      </trkpt>
      <trkpt lat="42.2228940949" lon="-0.5172744859">
        <ele>558.66</ele>
        <time>2022-04-14T09:31:48Z</time>
      </trkpt>
      <trkpt lat="42.2229364235" lon="-0.5174655095">
        <ele>557.70</ele>
        <time>2022-04-14T09:31:58Z</time>
      </trkpt>
      <trkpt lat="42.2229156364" lon="-0.5175821856">
        <ele>556.74</ele>
        <time>2022-04-14T09:32:05Z</time>
      </trkpt>
      <trkpt lat="42.2229291312" lon="-0.5176625680">
        <ele>556.26</ele>
        <time>2022-04-14T09:32:09Z</time>
      </trkpt>
      <trkpt lat="42.2229051590" lon="-0.5179162044">
        <ele>555.78</ele>
        <time>2022-04-14T09:32:23Z</time>
      </trkpt>
      <trkpt lat="42.2228786722" lon="-0.5181370676">
        <ele>554.82</ele>
        <time>2022-04-14T09:32:35Z</time>
      </trkpt>
      <trkpt lat="42.2228474077" lon="-0.5182916299">
        <ele>553.86</ele>
        <time>2022-04-14T09:32:42Z</time>
      </trkpt>
      <trkpt lat="42.2228315659" lon="-0.5183477886">
        <ele>553.86</ele>
        <time>2022-04-14T09:32:46Z</time>
      </trkpt>
      <trkpt lat="42.2227870580" lon="-0.5185808055">
        <ele>552.90</ele>
        <time>2022-04-14T09:32:59Z</time>
      </trkpt>
      <trkpt lat="42.2226941865" lon="-0.5188036803">
        <ele>552.41</ele>
        <time>2022-04-14T09:33:12Z</time>
      </trkpt>
      <trkpt lat="42.2225956991" lon="-0.5189910997">
        <ele>552.41</ele>
        <time>2022-04-14T09:33:24Z</time>
      </trkpt>
      <trkpt lat="42.2225174960" lon="-0.5191843864">
        <ele>551.93</ele>
        <time>2022-04-14T09:33:35Z</time>
      </trkpt>
      <trkpt lat="42.2224998102" lon="-0.5192168243">
        <ele>551.93</ele>
        <time>2022-04-14T09:33:38Z</time>
      </trkpt>
      <trkpt lat="42.2224341799" lon="-0.5194265395">
        <ele>550.97</ele>
        <time>2022-04-14T09:33:50Z</time>
      </trkpt>
      <trkpt lat="42.2223734111" lon="-0.5196226761">
        <ele>550.01</ele>
        <time>2022-04-14T09:34:01Z</time>
      </trkpt>
      <trkpt lat="42.2223585751" lon="-0.5196533538">
        <ele>550.01</ele>
        <time>2022-04-14T09:34:04Z</time>
      </trkpt>
      <trkpt lat="42.2222772706" lon="-0.5198768992">
        <ele>549.53</ele>
        <time>2022-04-14T09:34:17Z</time>
      </trkpt>
      <trkpt lat="42.2221939545" lon="-0.5200920627">
        <ele>548.09</ele>
        <time>2022-04-14T09:34:30Z</time>
      </trkpt>
      <trkpt lat="42.2221916914" lon="-0.5201159511">
        <ele>548.09</ele>
        <time>2022-04-14T09:34:32Z</time>
      </trkpt>
      <trkpt lat="42.2220948804" lon="-0.5203477945">
        <ele>547.61</ele>
        <time>2022-04-14T09:34:46Z</time>
      </trkpt>
      <trkpt lat="42.2220126539" lon="-0.5205725133">
        <ele>546.65</ele>
        <time>2022-04-14T09:35:00Z</time>
      </trkpt>
      <trkpt lat="42.2220009193" lon="-0.5206046999">
        <ele>546.65</ele>
        <time>2022-04-14T09:35:02Z</time>
      </trkpt>
      <trkpt lat="42.2219648771" lon="-0.5207100604">
        <ele>546.17</ele>
        <time>2022-04-14T09:35:07Z</time>
      </trkpt>
      <trkpt lat="42.2218783759" lon="-0.5209266488">
        <ele>545.69</ele>
        <time>2022-04-14T09:35:20Z</time>
      </trkpt>
      <trkpt lat="42.2218128294" lon="-0.5211206060">
        <ele>544.72</ele>
        <time>2022-04-14T09:35:32Z</time>
      </trkpt>
      <trkpt lat="42.2217288427" lon="-0.5213401280">
        <ele>544.24</ele>
        <time>2022-04-14T09:35:46Z</time>
      </trkpt>
      <trkpt lat="42.2216441017" lon="-0.5215450656">
        <ele>543.28</ele>
        <time>2022-04-14T09:35:59Z</time>
      </trkpt>
      <trkpt lat="42.2215500567" lon="-0.5218137056">
        <ele>542.32</ele>
        <time>2022-04-14T09:36:15Z</time>
      </trkpt>
      <trkpt lat="42.2214575205" lon="-0.5220627319">
        <ele>541.84</ele>
        <time>2022-04-14T09:36:30Z</time>
      </trkpt>
      <trkpt lat="42.2213982604" lon="-0.5222238321">
        <ele>540.40</ele>
        <time>2022-04-14T09:36:42Z</time>
      </trkpt>
      <trkpt lat="42.2213198896" lon="-0.5224660691">
        <ele>539.92</ele>
        <time>2022-04-14T09:36:55Z</time>
      </trkpt>
      <trkpt lat="42.2213049699" lon="-0.5225081462">
        <ele>539.92</ele>
        <time>2022-04-14T09:36:58Z</time>
      </trkpt>
      <trkpt lat="42.2212872002" lon="-0.5225874390">
        <ele>538.96</ele>
        <time>2022-04-14T09:37:02Z</time>
      </trkpt>
      <trkpt lat="42.2211852763" lon="-0.5227958132">
        <ele>537.51</ele>
        <time>2022-04-14T09:37:17Z</time>
      </trkpt>
      <trkpt lat="42.2210537642" lon="-0.5229875911">
        <ele>537.03</ele>
        <time>2022-04-14T09:37:30Z</time>
      </trkpt>
      <trkpt lat="42.2209067456" lon="-0.5231218692">
        <ele>536.55</ele>
        <time>2022-04-14T09:37:42Z</time>
      </trkpt>
      <trkpt lat="42.2208753135" lon="-0.5231731664">
        <ele>536.55</ele>
        <time>2022-04-14T09:37:45Z</time>
      </trkpt>
      <trkpt lat="42.2207472380" lon="-0.5233677104">
        <ele>534.63</ele>
        <time>2022-04-14T09:37:57Z</time>
      </trkpt>
      <trkpt lat="42.2206944320" lon="-0.5235431436">
        <ele>534.15</ele>
        <time>2022-04-14T09:38:09Z</time>
      </trkpt>
      <trkpt lat="42.2206973657" lon="-0.5237802677">
        <ele>533.19</ele>
        <time>2022-04-14T09:38:23Z</time>
      </trkpt>
      <trkpt lat="42.2207358386" lon="-0.5239112768">
        <ele>532.71</ele>
        <time>2022-04-14T09:38:30Z</time>
      </trkpt>
      <trkpt lat="42.2207521833" lon="-0.5239497498">
        <ele>532.71</ele>
        <time>2022-04-14T09:38:32Z</time>
      </trkpt>
      <trkpt lat="42.2207625769" lon="-0.5240917392">
        <ele>532.23</ele>
        <time>2022-04-14T09:38:42Z</time>
      </trkpt>
      <trkpt lat="42.2207979485" lon="-0.5241966806">
        <ele>531.75</ele>
        <time>2022-04-14T09:38:47Z</time>
      </trkpt>
      <trkpt lat="42.2208225913" lon="-0.5243223254">
        <ele>531.75</ele>
        <time>2022-04-14T09:38:56Z</time>
      </trkpt>
      <trkpt lat="42.2208420373" lon="-0.5243608821">
        <ele>531.75</ele>
        <time>2022-04-14T09:38:59Z</time>
      </trkpt>
      <trkpt lat="42.2208665963" lon="-0.5245760456">
        <ele>531.75</ele>
        <time>2022-04-14T09:39:09Z</time>
      </trkpt>
      <trkpt lat="42.2208877187" lon="-0.5247861799">
        <ele>531.75</ele>
        <time>2022-04-14T09:39:23Z</time>
      </trkpt>
      <trkpt lat="42.2208901495" lon="-0.5248016864">
        <ele>531.75</ele>
        <time>2022-04-14T09:39:24Z</time>
      </trkpt>
      <trkpt lat="42.2209037282" lon="-0.5248948932">
        <ele>531.75</ele>
        <time>2022-04-14T09:39:37Z</time>
      </trkpt>
      <trkpt lat="42.2209057398" lon="-0.5249166023">
        <ele>531.75</ele>
        <time>2022-04-14T09:39:42Z</time>
      </trkpt>
      <trkpt lat="42.2208773252" lon="-0.5250264890">
        <ele>531.75</ele>
        <time>2022-04-14T09:39:50Z</time>
      </trkpt>
      <trkpt lat="42.2208610643" lon="-0.5250758585">
        <ele>531.75</ele>
        <time>2022-04-14T09:39:53Z</time>
      </trkpt>
      <trkpt lat="42.2207909916" lon="-0.5251914449">
        <ele>532.23</ele>
        <time>2022-04-14T09:39:59Z</time>
      </trkpt>
      <trkpt lat="42.2207629122" lon="-0.5252455920">
        <ele>532.23</ele>
        <time>2022-04-14T09:40:02Z</time>
      </trkpt>
      <trkpt lat="42.2206941806" lon="-0.5254871584">
        <ele>532.23</ele>
        <time>2022-04-14T09:40:18Z</time>
      </trkpt>
      <trkpt lat="42.2206921689" lon="-0.5255278107">
        <ele>533.19</ele>
        <time>2022-04-14T09:40:20Z</time>
      </trkpt>
      <trkpt lat="42.2207122855" lon="-0.5256820377">
        <ele>533.67</ele>
        <time>2022-04-14T09:40:29Z</time>
      </trkpt>
      <trkpt lat="42.2207059991" lon="-0.5257192533">
        <ele>533.67</ele>
        <time>2022-04-14T09:40:32Z</time>
      </trkpt>
      <trkpt lat="42.2207438853" lon="-0.5257820338">
        <ele>533.67</ele>
        <time>2022-04-14T09:40:44Z</time>
      </trkpt>
      <trkpt lat="42.2208079230" lon="-0.5257870629">
        <ele>533.67</ele>
        <time>2022-04-14T09:40:50Z</time>
      </trkpt>
      <trkpt lat="42.2210462205" lon="-0.5257440638">
        <ele>533.67</ele>
        <time>2022-04-14T09:41:06Z</time>
      </trkpt>
      <trkpt lat="42.2212216537" lon="-0.5256522819">
        <ele>534.15</ele>
        <time>2022-04-14T09:41:19Z</time>
      </trkpt>
      <trkpt lat="42.2213405930" lon="-0.5255127233">
        <ele>534.63</ele>
        <time>2022-04-14T09:41:32Z</time>
      </trkpt>
      <trkpt lat="42.2215082310" lon="-0.5253476836">
        <ele>535.11</ele>
        <time>2022-04-14T09:41:47Z</time>
      </trkpt>
      <trkpt lat="42.2215412557" lon="-0.5253165867">
        <ele>535.11</ele>
        <time>2022-04-14T09:41:52Z</time>
      </trkpt>
      <trkpt lat="42.2215857636" lon="-0.5252446700">
        <ele>536.07</ele>
        <time>2022-04-14T09:41:59Z</time>
      </trkpt>
      <trkpt lat="42.2217548266" lon="-0.5251819734">
        <ele>537.51</ele>
        <time>2022-04-14T09:42:14Z</time>
      </trkpt>
      <trkpt lat="42.2219259012" lon="-0.5252594221">
        <ele>538.48</ele>
        <time>2022-04-14T09:42:28Z</time>
      </trkpt>
      <trkpt lat="42.2219602671" lon="-0.5252910219">
        <ele>538.48</ele>
        <time>2022-04-14T09:42:31Z</time>
      </trkpt>
      <trkpt lat="42.2221096326" lon="-0.5253878329">
        <ele>538.96</ele>
        <time>2022-04-14T09:42:46Z</time>
      </trkpt>
      <trkpt lat="42.2223299090" lon="-0.5254463386">
        <ele>539.44</ele>
        <time>2022-04-14T09:43:02Z</time>
      </trkpt>
      <trkpt lat="42.2224542964" lon="-0.5254400522">
        <ele>539.92</ele>
        <time>2022-04-14T09:43:14Z</time>
      </trkpt>
      <trkpt lat="42.2225682065" lon="-0.5253791995">
        <ele>539.92</ele>
        <time>2022-04-14T09:43:22Z</time>
      </trkpt>
      <trkpt lat="42.2226233594" lon="-0.5253503658">
        <ele>539.92</ele>
        <time>2022-04-14T09:43:26Z</time>
      </trkpt>
      <trkpt lat="42.2227107827" lon="-0.5252336897">
        <ele>539.92</ele>
        <time>2022-04-14T09:43:36Z</time>
      </trkpt>
      <trkpt lat="42.2228780016" lon="-0.5250371341">
        <ele>540.40</ele>
        <time>2022-04-14T09:43:54Z</time>
      </trkpt>
      <trkpt lat="42.2229857091" lon="-0.5248825718">
        <ele>540.40</ele>
        <time>2022-04-14T09:44:04Z</time>
      </trkpt>
      <trkpt lat="42.2230460588" lon="-0.5248161033">
        <ele>540.88</ele>
        <time>2022-04-14T09:44:12Z</time>
      </trkpt>
      <trkpt lat="42.2230819333" lon="-0.5247549992">
        <ele>540.88</ele>
        <time>2022-04-14T09:44:16Z</time>
      </trkpt>
      <trkpt lat="42.2232682630" lon="-0.5245792307">
        <ele>540.88</ele>
        <time>2022-04-14T09:44:34Z</time>
      </trkpt>
      <trkpt lat="42.2234210651" lon="-0.5243787356">
        <ele>540.88</ele>
        <time>2022-04-14T09:44:49Z</time>
      </trkpt>
      <trkpt lat="42.2234402597" lon="-0.5243575294">
        <ele>540.88</ele>
        <time>2022-04-14T09:44:51Z</time>
      </trkpt>
      <trkpt lat="42.2234701831" lon="-0.5243213195">
        <ele>540.88</ele>
        <time>2022-04-14T09:44:55Z</time>
      </trkpt>
      <trkpt lat="42.2236526571" lon="-0.5241269432">
        <ele>541.36</ele>
        <time>2022-04-14T09:45:12Z</time>
      </trkpt>
      <trkpt lat="42.2237007692" lon="-0.5240814295">
        <ele>541.36</ele>
        <time>2022-04-14T09:45:18Z</time>
      </trkpt>
      <trkpt lat="42.2238323651" lon="-0.5239525996">
        <ele>541.84</ele>
        <time>2022-04-14T09:45:29Z</time>
      </trkpt>
      <trkpt lat="42.2239933815" lon="-0.5238158070">
        <ele>541.84</ele>
        <time>2022-04-14T09:45:45Z</time>
      </trkpt>
      <trkpt lat="42.2241842374" lon="-0.5236863904">
        <ele>541.84</ele>
        <time>2022-04-14T09:46:02Z</time>
      </trkpt>
      <trkpt lat="42.2243818827" lon="-0.5236044992">
        <ele>542.32</ele>
        <time>2022-04-14T09:46:17Z</time>
      </trkpt>
      <trkpt lat="42.2245898377" lon="-0.5235319119">
        <ele>542.32</ele>
        <time>2022-04-14T09:46:32Z</time>
      </trkpt>
      <trkpt lat="42.2247609124" lon="-0.5235189199">
        <ele>542.80</ele>
        <time>2022-04-14T09:46:45Z</time>
      </trkpt>
      <trkpt lat="42.2249509301" lon="-0.5235252902">
        <ele>543.28</ele>
        <time>2022-04-14T09:47:00Z</time>
      </trkpt>
      <trkpt lat="42.2251266986" lon="-0.5235440657">
        <ele>543.76</ele>
        <time>2022-04-14T09:47:14Z</time>
      </trkpt>
      <trkpt lat="42.2253396828" lon="-0.5235082749">
        <ele>544.24</ele>
        <time>2022-04-14T09:47:29Z</time>
      </trkpt>
      <trkpt lat="42.2255170438" lon="-0.5233969633">
        <ele>544.72</ele>
        <time>2022-04-14T09:47:44Z</time>
      </trkpt>
      <trkpt lat="42.2256597038" lon="-0.5233298242">
        <ele>545.20</ele>
        <time>2022-04-14T09:47:58Z</time>
      </trkpt>
      <trkpt lat="42.2258454468" lon="-0.5232170038">
        <ele>546.17</ele>
        <time>2022-04-14T09:48:11Z</time>
      </trkpt>
      <trkpt lat="42.2260429244" lon="-0.5230905209">
        <ele>546.17</ele>
        <time>2022-04-14T09:48:28Z</time>
      </trkpt>
      <trkpt lat="42.2262221295" lon="-0.5229911953">
        <ele>546.17</ele>
        <time>2022-04-14T09:48:44Z</time>
      </trkpt>
      <trkpt lat="42.2262709960" lon="-0.5229451787">
        <ele>547.61</ele>
        <time>2022-04-14T09:49:00Z</time>
      </trkpt>
      <trkpt lat="42.2262829822" lon="-0.5229455978">
        <ele>544.24</ele>
        <time>2022-04-14T09:49:04Z</time>
      </trkpt>
      <trkpt lat="42.2262866702" lon="-0.5229441728">
        <ele>547.61</ele>
        <time>2022-04-14T09:49:05Z</time>
      </trkpt>
      <trkpt lat="42.2262840718" lon="-0.5229456816">
        <ele>547.61</ele>
        <time>2022-04-14T09:49:06Z</time>
      </trkpt>
      <trkpt lat="42.2262858320" lon="-0.5229428317">
        <ele>547.61</ele>
        <time>2022-04-14T09:49:10Z</time>
      </trkpt>
      <trkpt lat="42.2262927890" lon="-0.5229193624">
        <ele>544.72</ele>
        <time>2022-04-14T09:49:14Z</time>
      </trkpt>
      <trkpt lat="42.2262925375" lon="-0.5229185242">
        <ele>547.61</ele>
        <time>2022-04-14T09:49:16Z</time>
      </trkpt>
      <trkpt lat="42.2262937948" lon="-0.5229181889">
        <ele>547.61</ele>
        <time>2022-04-14T09:49:17Z</time>
      </trkpt>
      <trkpt lat="42.2262937948" lon="-0.5229188595">
        <ele>547.61</ele>
        <time>2022-04-14T09:49:20Z</time>
      </trkpt>
      <trkpt lat="42.2262746841" lon="-0.5229242239">
        <ele>549.53</ele>
        <time>2022-04-14T09:49:22Z</time>
      </trkpt>
      <trkpt lat="42.2262830660" lon="-0.5229583383">
        <ele>547.13</ele>
        <time>2022-04-14T09:49:25Z</time>
      </trkpt>
      <trkpt lat="42.2263020929" lon="-0.5229927041">
        <ele>547.13</ele>
        <time>2022-04-14T09:49:46Z</time>
      </trkpt>
      <trkpt lat="42.2262885142" lon="-0.5229409039">
        <ele>547.13</ele>
        <time>2022-04-14T09:49:56Z</time>
      </trkpt>
      <trkpt lat="42.2262852453" lon="-0.5229457654">
        <ele>547.13</ele>
        <time>2022-04-14T09:50:15Z</time>
      </trkpt>
      <trkpt lat="42.2262852453" lon="-0.5229469389">
        <ele>545.69</ele>
        <time>2022-04-14T09:50:18Z</time>
      </trkpt>
      <trkpt lat="42.2262847424" lon="-0.5229440052">
        <ele>547.13</ele>
        <time>2022-04-14T09:50:19Z</time>
      </trkpt>
      <trkpt lat="42.2262873407" lon="-0.5229200330">
        <ele>547.61</ele>
        <time>2022-04-14T09:50:21Z</time>
      </trkpt>
      <trkpt lat="42.2262904420" lon="-0.5229246430">
        <ele>544.24</ele>
        <time>2022-04-14T09:50:24Z</time>
      </trkpt>
      <trkpt lat="42.2262901068" lon="-0.5229232181">
        <ele>547.61</ele>
        <time>2022-04-14T09:50:25Z</time>
      </trkpt>
      <trkpt lat="42.2262899391" lon="-0.5229205359">
        <ele>547.61</ele>
        <time>2022-04-14T09:50:56Z</time>
      </trkpt>
      <trkpt lat="42.2262949683" lon="-0.5229230504">
        <ele>547.61</ele>
        <time>2022-04-14T09:51:23Z</time>
      </trkpt>
      <trkpt lat="42.2262992430" lon="-0.5229200330">
        <ele>547.61</ele>
        <time>2022-04-14T09:51:59Z</time>
      </trkpt>
      <trkpt lat="42.2263015900" lon="-0.5229219608">
        <ele>546.17</ele>
        <time>2022-04-14T09:52:34Z</time>
      </trkpt>
      <trkpt lat="42.2262860835" lon="-0.5229186080">
        <ele>546.17</ele>
        <time>2022-04-14T09:53:06Z</time>
      </trkpt>
      <trkpt lat="42.2262863349" lon="-0.5229214579">
        <ele>546.17</ele>
        <time>2022-04-14T09:53:32Z</time>
      </trkpt>
      <trkpt lat="42.2262920346" lon="-0.5229230504">
        <ele>546.17</ele>
        <time>2022-04-14T09:54:04Z</time>
      </trkpt>
      <trkpt lat="42.2262870893" lon="-0.5229162611">
        <ele>546.17</ele>
        <time>2022-04-14T09:54:41Z</time>
      </trkpt>
      <trkpt lat="42.2262827307" lon="-0.5229419935">
        <ele>546.17</ele>
        <time>2022-04-14T09:55:12Z</time>
      </trkpt>
      <trkpt lat="42.2262923699" lon="-0.5229501240">
        <ele>545.69</ele>
        <time>2022-04-14T09:55:29Z</time>
      </trkpt>
      <trkpt lat="42.2262982372" lon="-0.5229529738">
        <ele>545.69</ele>
        <time>2022-04-14T09:55:47Z</time>
      </trkpt>
      <trkpt lat="42.2263201140" lon="-0.5229526386">
        <ele>545.69</ele>
        <time>2022-04-14T09:55:51Z</time>
      </trkpt>
      <trkpt lat="42.2263868339" lon="-0.5229541473">
        <ele>545.69</ele>
        <time>2022-04-14T09:55:56Z</time>
      </trkpt>
      <trkpt lat="42.2265770193" lon="-0.5230440013">
        <ele>545.69</ele>
        <time>2022-04-14T09:56:13Z</time>
      </trkpt>
      <trkpt lat="42.2267641034" lon="-0.5232235417">
        <ele>545.69</ele>
        <time>2022-04-14T09:56:30Z</time>
      </trkpt>
      <trkpt lat="42.2269361001" lon="-0.5233945325">
        <ele>545.69</ele>
        <time>2022-04-14T09:56:46Z</time>
      </trkpt>
      <trkpt lat="42.2270869743" lon="-0.5235641822">
        <ele>545.69</ele>
        <time>2022-04-14T09:57:00Z</time>
      </trkpt>
      <trkpt lat="42.2271138802" lon="-0.5235926807">
        <ele>545.69</ele>
        <time>2022-04-14T09:57:03Z</time>
      </trkpt>
      <trkpt lat="42.2272287123" lon="-0.5237372685">
        <ele>545.69</ele>
        <time>2022-04-14T09:57:15Z</time>
      </trkpt>
      <trkpt lat="42.2273572907" lon="-0.5238852929">
        <ele>545.69</ele>
        <time>2022-04-14T09:57:26Z</time>
      </trkpt>
      <trkpt lat="42.2274664231" lon="-0.5240218341">
        <ele>545.69</ele>
        <time>2022-04-14T09:57:37Z</time>
      </trkpt>
      <trkpt lat="42.2275908943" lon="-0.5241747200">
        <ele>545.20</ele>
        <time>2022-04-14T09:57:49Z</time>
      </trkpt>
      <trkpt lat="42.2277037986" lon="-0.5243012030">
        <ele>545.69</ele>
        <time>2022-04-14T09:58:00Z</time>
      </trkpt>
      <trkpt lat="42.2278269287" lon="-0.5244629737">
        <ele>545.20</ele>
        <time>2022-04-14T09:58:12Z</time>
      </trkpt>
      <trkpt lat="42.2279585246" lon="-0.5246374011">
        <ele>545.20</ele>
        <time>2022-04-14T09:58:25Z</time>
      </trkpt>
      <trkpt lat="42.2280536592" lon="-0.5247784685">
        <ele>545.20</ele>
        <time>2022-04-14T09:58:38Z</time>
      </trkpt>
      <trkpt lat="42.2280969936" lon="-0.5248274188">
        <ele>545.20</ele>
        <time>2022-04-14T09:58:53Z</time>
      </trkpt>
      <trkpt lat="42.2280908749" lon="-0.5248268321">
        <ele>545.20</ele>
        <time>2022-04-14T09:58:59Z</time>
      </trkpt>
      <trkpt lat="42.2281241510" lon="-0.5248804763">
        <ele>545.20</ele>
        <time>2022-04-14T09:59:03Z</time>
      </trkpt>
      <trkpt lat="42.2282756958" lon="-0.5250818096">
        <ele>544.72</ele>
        <time>2022-04-14T09:59:18Z</time>
      </trkpt>
      <trkpt lat="42.2284013405" lon="-0.5252403952">
        <ele>544.72</ele>
        <time>2022-04-14T09:59:30Z</time>
      </trkpt>
      <trkpt lat="42.2285250574" lon="-0.5254147388">
        <ele>544.72</ele>
        <time>2022-04-14T09:59:43Z</time>
      </trkpt>
      <trkpt lat="42.2286380455" lon="-0.5255755037">
        <ele>544.72</ele>
        <time>2022-04-14T09:59:55Z</time>
      </trkpt>
      <trkpt lat="42.2287460882" lon="-0.5257751606">
        <ele>544.72</ele>
        <time>2022-04-14T10:00:08Z</time>
      </trkpt>
      <trkpt lat="42.2288465872" lon="-0.5259894859">
        <ele>545.20</ele>
        <time>2022-04-14T10:00:22Z</time>
      </trkpt>
      <trkpt lat="42.2289518639" lon="-0.5262064096">
        <ele>545.20</ele>
        <time>2022-04-14T10:00:35Z</time>
      </trkpt>
      <trkpt lat="42.2290363535" lon="-0.5263936613">
        <ele>545.20</ele>
        <time>2022-04-14T10:00:47Z</time>
      </trkpt>
      <trkpt lat="42.2290806938" lon="-0.5264892988">
        <ele>545.20</ele>
        <time>2022-04-14T10:00:54Z</time>
      </trkpt>
      <trkpt lat="42.2291743197" lon="-0.5267112516">
        <ele>545.20</ele>
        <time>2022-04-14T10:01:07Z</time>
      </trkpt>
      <trkpt lat="42.2293058317" lon="-0.5269017722">
        <ele>545.20</ele>
        <time>2022-04-14T10:01:19Z</time>
      </trkpt>
      <trkpt lat="42.2294554487" lon="-0.5271107331">
        <ele>545.20</ele>
        <time>2022-04-14T10:01:32Z</time>
      </trkpt>
      <trkpt lat="42.2295076679" lon="-0.5273032654">
        <ele>545.69</ele>
        <time>2022-04-14T10:01:44Z</time>
      </trkpt>
      <trkpt lat="42.2295305505" lon="-0.5273527186">
        <ele>545.69</ele>
        <time>2022-04-14T10:01:47Z</time>
      </trkpt>
      <trkpt lat="42.2295504995" lon="-0.5274156667">
        <ele>545.69</ele>
        <time>2022-04-14T10:01:52Z</time>
      </trkpt>
      <trkpt lat="42.2296696063" lon="-0.5275717378">
        <ele>545.69</ele>
        <time>2022-04-14T10:02:04Z</time>
      </trkpt>
      <trkpt lat="42.2297531739" lon="-0.5276941974">
        <ele>545.69</ele>
        <time>2022-04-14T10:02:14Z</time>
      </trkpt>
      <trkpt lat="42.2298019566" lon="-0.5278071854">
        <ele>545.69</ele>
        <time>2022-04-14T10:02:21Z</time>
      </trkpt>
      <trkpt lat="42.2299082391" lon="-0.5280142184">
        <ele>545.69</ele>
        <time>2022-04-14T10:02:36Z</time>
      </trkpt>
      <trkpt lat="42.2300211433" lon="-0.5281769112">
        <ele>545.69</ele>
        <time>2022-04-14T10:02:48Z</time>
      </trkpt>
      <trkpt lat="42.2301546670" lon="-0.5283807591">
        <ele>545.20</ele>
        <time>2022-04-14T10:03:03Z</time>
      </trkpt>
      <trkpt lat="42.2302450240" lon="-0.5284749717">
        <ele>545.20</ele>
        <time>2022-04-14T10:03:10Z</time>
      </trkpt>
      <trkpt lat="42.2302864306" lon="-0.5285250116">
        <ele>545.20</ele>
        <time>2022-04-14T10:03:14Z</time>
      </trkpt>
      <trkpt lat="42.2304109856" lon="-0.5286963377">
        <ele>545.20</ele>
        <time>2022-04-14T10:03:28Z</time>
      </trkpt>
      <trkpt lat="42.2305404022" lon="-0.5288529117">
        <ele>545.20</ele>
        <time>2022-04-14T10:03:41Z</time>
      </trkpt>
      <trkpt lat="42.2306490317" lon="-0.5290171131">
        <ele>544.72</ele>
        <time>2022-04-14T10:03:53Z</time>
      </trkpt>
      <trkpt lat="42.2307122312" lon="-0.5291490443">
        <ele>544.72</ele>
        <time>2022-04-14T10:04:03Z</time>
      </trkpt>
      <trkpt lat="42.2308525443" lon="-0.5293892696">
        <ele>544.72</ele>
        <time>2022-04-14T10:04:19Z</time>
      </trkpt>
      <trkpt lat="42.2309886664" lon="-0.5295653734">
        <ele>544.24</ele>
        <time>2022-04-14T10:04:32Z</time>
      </trkpt>
      <trkpt lat="42.2311345953" lon="-0.5297588278">
        <ele>544.24</ele>
        <time>2022-04-14T10:04:47Z</time>
      </trkpt>
      <trkpt lat="42.2312923428" lon="-0.5299328361">
        <ele>544.24</ele>
        <time>2022-04-14T10:05:01Z</time>
      </trkpt>
      <trkpt lat="42.2314344998" lon="-0.5300713051">
        <ele>544.24</ele>
        <time>2022-04-14T10:05:14Z</time>
      </trkpt>
      <trkpt lat="42.2315550316" lon="-0.5302040745">
        <ele>544.24</ele>
        <time>2022-04-14T10:05:26Z</time>
      </trkpt>
      <trkpt lat="42.2317258548" lon="-0.5304036476">
        <ele>543.76</ele>
        <time>2022-04-14T10:05:42Z</time>
      </trkpt>
      <trkpt lat="42.2318576183" lon="-0.5305692740">
        <ele>543.76</ele>
        <time>2022-04-14T10:05:55Z</time>
      </trkpt>
      <trkpt lat="42.2319887951" lon="-0.5307352357">
        <ele>543.76</ele>
        <time>2022-04-14T10:06:08Z</time>
      </trkpt>
      <trkpt lat="42.2321047168" lon="-0.5309067294">
        <ele>543.76</ele>
        <time>2022-04-14T10:06:20Z</time>
      </trkpt>
      <trkpt lat="42.2322219796" lon="-0.5310793128">
        <ele>543.76</ele>
        <time>2022-04-14T10:06:34Z</time>
      </trkpt>
      <trkpt lat="42.2322421800" lon="-0.5311032012">
        <ele>543.76</ele>
        <time>2022-04-14T10:06:36Z</time>
      </trkpt>
      <trkpt lat="42.2323348001" lon="-0.5312513933">
        <ele>543.76</ele>
        <time>2022-04-14T10:06:47Z</time>
      </trkpt>
      <trkpt lat="42.2324953973" lon="-0.5314715020">
        <ele>543.76</ele>
        <time>2022-04-14T10:07:02Z</time>
      </trkpt>
      <trkpt lat="42.2326399852" lon="-0.5316596758">
        <ele>543.76</ele>
        <time>2022-04-14T10:07:16Z</time>
      </trkpt>
      <trkpt lat="42.2327701561" lon="-0.5318320077">
        <ele>545.20</ele>
        <time>2022-04-14T10:07:29Z</time>
      </trkpt>
      <trkpt lat="42.2328815516" lon="-0.5319939461">
        <ele>545.20</ele>
        <time>2022-04-14T10:07:42Z</time>
      </trkpt>
      <trkpt lat="42.2330016643" lon="-0.5321949441">
        <ele>545.20</ele>
        <time>2022-04-14T10:07:55Z</time>
      </trkpt>
      <trkpt lat="42.2330393828" lon="-0.5322556291">
        <ele>545.69</ele>
        <time>2022-04-14T10:08:00Z</time>
      </trkpt>
      <trkpt lat="42.2330855671" lon="-0.5323435552">
        <ele>545.69</ele>
        <time>2022-04-14T10:08:06Z</time>
      </trkpt>
      <trkpt lat="42.2332436498" lon="-0.5325041525">
        <ele>545.69</ele>
        <time>2022-04-14T10:08:20Z</time>
      </trkpt>
      <trkpt lat="42.2334001400" lon="-0.5326427892">
        <ele>545.69</ele>
        <time>2022-04-14T10:08:34Z</time>
      </trkpt>
      <trkpt lat="42.2334283870" lon="-0.5326686054">
        <ele>545.69</ele>
        <time>2022-04-14T10:08:37Z</time>
      </trkpt>
      <trkpt lat="42.2335707117" lon="-0.5328441225">
        <ele>545.69</ele>
        <time>2022-04-14T10:08:51Z</time>
      </trkpt>
      <trkpt lat="42.2336123697" lon="-0.5329000298">
        <ele>545.69</ele>
        <time>2022-04-14T10:08:55Z</time>
      </trkpt>
      <trkpt lat="42.2337484080" lon="-0.5331058893">
        <ele>545.69</ele>
        <time>2022-04-14T10:09:10Z</time>
      </trkpt>
      <trkpt lat="42.2337682731" lon="-0.5331424344">
        <ele>545.69</ele>
        <time>2022-04-14T10:09:14Z</time>
      </trkpt>
      <trkpt lat="42.2339144535" lon="-0.5333714280">
        <ele>545.69</ele>
        <time>2022-04-14T10:09:30Z</time>
      </trkpt>
      <trkpt lat="42.2340276930" lon="-0.5335570872">
        <ele>545.69</ele>
        <time>2022-04-14T10:09:44Z</time>
      </trkpt>
      <trkpt lat="42.2340674233" lon="-0.5336218793">
        <ele>545.69</ele>
        <time>2022-04-14T10:09:48Z</time>
      </trkpt>
      <trkpt lat="42.2342146933" lon="-0.5338448379">
        <ele>545.69</ele>
        <time>2022-04-14T10:10:04Z</time>
      </trkpt>
      <trkpt lat="42.2343361471" lon="-0.5340304133">
        <ele>545.69</ele>
        <time>2022-04-14T10:10:17Z</time>
      </trkpt>
      <trkpt lat="42.2344592772" lon="-0.5342103727">
        <ele>545.69</ele>
        <time>2022-04-14T10:10:30Z</time>
      </trkpt>
      <trkpt lat="42.2345719300" lon="-0.5343708023">
        <ele>545.69</ele>
        <time>2022-04-14T10:10:43Z</time>
      </trkpt>
      <trkpt lat="42.2346787993" lon="-0.5345496722">
        <ele>545.69</ele>
        <time>2022-04-14T10:10:56Z</time>
      </trkpt>
      <trkpt lat="42.2347901948" lon="-0.5347303860">
        <ele>545.69</ele>
        <time>2022-04-14T10:11:09Z</time>
      </trkpt>
      <trkpt lat="42.2349383030" lon="-0.5349430349">
        <ele>545.69</ele>
        <time>2022-04-14T10:11:24Z</time>
      </trkpt>
      <trkpt lat="42.2350729164" lon="-0.5351338908">
        <ele>545.69</ele>
        <time>2022-04-14T10:11:38Z</time>
      </trkpt>
      <trkpt lat="42.2351934481" lon="-0.5353223160">
        <ele>545.69</ele>
        <time>2022-04-14T10:11:52Z</time>
      </trkpt>
      <trkpt lat="42.2353307437" lon="-0.5355368089">
        <ele>546.17</ele>
        <time>2022-04-14T10:12:07Z</time>
      </trkpt>
      <trkpt lat="42.2354482580" lon="-0.5357375555">
        <ele>546.17</ele>
        <time>2022-04-14T10:12:22Z</time>
      </trkpt>
      <trkpt lat="42.2355733998" lon="-0.5359298363">
        <ele>546.65</ele>
        <time>2022-04-14T10:12:36Z</time>
      </trkpt>
      <trkpt lat="42.2357511800" lon="-0.5361516215">
        <ele>546.65</ele>
        <time>2022-04-14T10:12:53Z</time>
      </trkpt>
      <trkpt lat="42.2358910739" lon="-0.5363860633">
        <ele>546.65</ele>
        <time>2022-04-14T10:13:10Z</time>
      </trkpt>
      <trkpt lat="42.2360418644" lon="-0.5365601555">
        <ele>546.65</ele>
        <time>2022-04-14T10:13:24Z</time>
      </trkpt>
      <trkpt lat="42.2362267692" lon="-0.5367007200">
        <ele>546.65</ele>
        <time>2022-04-14T10:13:39Z</time>
      </trkpt>
      <trkpt lat="42.2364089079" lon="-0.5368216708">
        <ele>546.65</ele>
        <time>2022-04-14T10:13:54Z</time>
      </trkpt>
      <trkpt lat="42.2365912981" lon="-0.5369444657">
        <ele>545.20</ele>
        <time>2022-04-14T10:14:09Z</time>
      </trkpt>
      <trkpt lat="42.2367604449" lon="-0.5370836053">
        <ele>544.72</ele>
        <time>2022-04-14T10:14:23Z</time>
      </trkpt>
      <trkpt lat="42.2368882690" lon="-0.5372784846">
        <ele>543.28</ele>
        <time>2022-04-14T10:14:36Z</time>
      </trkpt>
      <trkpt lat="42.2369792964" lon="-0.5374001898">
        <ele>543.28</ele>
        <time>2022-04-14T10:14:46Z</time>
      </trkpt>
      <trkpt lat="42.2370593436" lon="-0.5375204701">
        <ele>543.28</ele>
        <time>2022-04-14T10:14:56Z</time>
      </trkpt>
      <trkpt lat="42.2370926198" lon="-0.5375823285">
        <ele>544.72</ele>
        <time>2022-04-14T10:15:00Z</time>
      </trkpt>
      <trkpt lat="42.2372217849" lon="-0.5377242342">
        <ele>545.20</ele>
        <time>2022-04-14T10:15:13Z</time>
      </trkpt>
      <trkpt lat="42.2373181768" lon="-0.5378882680">
        <ele>546.17</ele>
        <time>2022-04-14T10:15:24Z</time>
      </trkpt>
      <trkpt lat="42.2374926042" lon="-0.5380791239">
        <ele>547.13</ele>
        <time>2022-04-14T10:15:41Z</time>
      </trkpt>
      <trkpt lat="42.2376816161" lon="-0.5381944589">
        <ele>547.61</ele>
        <time>2022-04-14T10:15:57Z</time>
      </trkpt>
      <trkpt lat="42.2378956061" lon="-0.5383014958">
        <ele>548.57</ele>
        <time>2022-04-14T10:16:13Z</time>
      </trkpt>
      <trkpt lat="42.2381142899" lon="-0.5384116340">
        <ele>549.53</ele>
        <time>2022-04-14T10:16:30Z</time>
      </trkpt>
      <trkpt lat="42.2383074090" lon="-0.5384969618">
        <ele>549.53</ele>
        <time>2022-04-14T10:16:46Z</time>
      </trkpt>
      <trkpt lat="42.2385280207" lon="-0.5386023223">
        <ele>550.49</ele>
        <time>2022-04-14T10:17:04Z</time>
      </trkpt>
      <trkpt lat="42.2387700900" lon="-0.5387194175">
        <ele>550.49</ele>
        <time>2022-04-14T10:17:23Z</time>
      </trkpt>
      <trkpt lat="42.2389316093" lon="-0.5388140492">
        <ele>550.97</ele>
        <time>2022-04-14T10:17:37Z</time>
      </trkpt>
      <trkpt lat="42.2391176037" lon="-0.5388785899">
        <ele>551.45</ele>
        <time>2022-04-14T10:17:51Z</time>
      </trkpt>
      <trkpt lat="42.2393144108" lon="-0.5389732216">
        <ele>551.93</ele>
        <time>2022-04-14T10:18:07Z</time>
      </trkpt>
      <trkpt lat="42.2394911014" lon="-0.5390570406">
        <ele>551.93</ele>
        <time>2022-04-14T10:18:20Z</time>
      </trkpt>
      <trkpt lat="42.2396683786" lon="-0.5391339865">
        <ele>552.41</ele>
        <time>2022-04-14T10:18:36Z</time>
      </trkpt>
      <trkpt lat="42.2398864757" lon="-0.5392440408">
        <ele>552.90</ele>
        <time>2022-04-14T10:18:53Z</time>
      </trkpt>
      <trkpt lat="42.2400799301" lon="-0.5393441208">
        <ele>553.38</ele>
        <time>2022-04-14T10:19:08Z</time>
      </trkpt>
      <trkpt lat="42.2402807605" lon="-0.5394279398">
        <ele>553.38</ele>
        <time>2022-04-14T10:19:24Z</time>
      </trkpt>
      <trkpt lat="42.2404502425" lon="-0.5395100825">
        <ele>553.86</ele>
        <time>2022-04-14T10:19:37Z</time>
      </trkpt>
      <trkpt lat="42.2405794915" lon="-0.5395890400">
        <ele>554.34</ele>
        <time>2022-04-14T10:19:52Z</time>
      </trkpt>
      <trkpt lat="42.2407723591" lon="-0.5396650638">
        <ele>554.82</ele>
        <time>2022-04-14T10:20:04Z</time>
      </trkpt>
      <trkpt lat="42.2409228142" lon="-0.5397303589">
        <ele>554.82</ele>
        <time>2022-04-14T10:20:16Z</time>
      </trkpt>
      <trkpt lat="42.2410940565" lon="-0.5398054607">
        <ele>555.78</ele>
        <time>2022-04-14T10:20:29Z</time>
      </trkpt>
      <trkpt lat="42.2412155103" lon="-0.5398794729">
        <ele>555.78</ele>
        <time>2022-04-14T10:20:43Z</time>
      </trkpt>
      <trkpt lat="42.2414365411" lon="-0.5400176905">
        <ele>555.78</ele>
        <time>2022-04-14T10:20:58Z</time>
      </trkpt>
      <trkpt lat="42.2415714897" lon="-0.5401387252">
        <ele>556.26</ele>
        <time>2022-04-14T10:21:13Z</time>
      </trkpt>
      <trkpt lat="42.2417444084" lon="-0.5403424054">
        <ele>557.70</ele>
        <time>2022-04-14T10:21:30Z</time>
      </trkpt>
      <trkpt lat="42.2417498566" lon="-0.5403525475">
        <ele>557.70</ele>
        <time>2022-04-14T10:21:31Z</time>
      </trkpt>
      <trkpt lat="42.2418163251" lon="-0.5404304154">
        <ele>557.70</ele>
        <time>2022-04-14T10:21:37Z</time>
      </trkpt>
      <trkpt lat="42.2419027425" lon="-0.5405506119">
        <ele>557.70</ele>
        <time>2022-04-14T10:21:47Z</time>
      </trkpt>
      <trkpt lat="42.2420609090" lon="-0.5407201778">
        <ele>557.70</ele>
        <time>2022-04-14T10:22:00Z</time>
      </trkpt>
      <trkpt lat="42.2421766631" lon="-0.5408877321">
        <ele>557.70</ele>
        <time>2022-04-14T10:22:13Z</time>
      </trkpt>
      <trkpt lat="42.2423104383" lon="-0.5410429649">
        <ele>558.18</ele>
        <time>2022-04-14T10:22:26Z</time>
      </trkpt>
      <trkpt lat="42.2424393520" lon="-0.5412115250">
        <ele>558.18</ele>
        <time>2022-04-14T10:22:39Z</time>
      </trkpt>
      <trkpt lat="42.2425515857" lon="-0.5413459707">
        <ele>558.18</ele>
        <time>2022-04-14T10:22:50Z</time>
      </trkpt>
      <trkpt lat="42.2426923178" lon="-0.5414971802">
        <ele>558.66</ele>
        <time>2022-04-14T10:23:03Z</time>
      </trkpt>
      <trkpt lat="42.2428916395" lon="-0.5416420195">
        <ele>558.66</ele>
        <time>2022-04-14T10:23:18Z</time>
      </trkpt>
      <trkpt lat="42.2430489678" lon="-0.5417218152">
        <ele>558.66</ele>
        <time>2022-04-14T10:23:30Z</time>
      </trkpt>
      <trkpt lat="42.2432482056" lon="-0.5418407544">
        <ele>558.66</ele>
        <time>2022-04-14T10:23:44Z</time>
      </trkpt>
      <trkpt lat="42.2433336172" lon="-0.5418903753">
        <ele>558.66</ele>
        <time>2022-04-14T10:23:52Z</time>
      </trkpt>
      <trkpt lat="42.2435077932" lon="-0.5420050398">
        <ele>559.14</ele>
        <time>2022-04-14T10:24:06Z</time>
      </trkpt>
      <trkpt lat="42.2436393052" lon="-0.5420871824">
        <ele>559.14</ele>
        <time>2022-04-14T10:24:17Z</time>
      </trkpt>
      <trkpt lat="42.2437770199" lon="-0.5421758629">
        <ele>559.14</ele>
        <time>2022-04-14T10:24:28Z</time>
      </trkpt>
      <trkpt lat="42.2439207695" lon="-0.5422704946">
        <ele>559.14</ele>
        <time>2022-04-14T10:24:38Z</time>
      </trkpt>
      <trkpt lat="42.2440842167" lon="-0.5423573311">
        <ele>559.14</ele>
        <time>2022-04-14T10:24:51Z</time>
      </trkpt>
      <trkpt lat="42.2442110348" lon="-0.5424455926">
        <ele>559.62</ele>
        <time>2022-04-14T10:25:02Z</time>
      </trkpt>
      <trkpt lat="42.2443736438" lon="-0.5425491929">
        <ele>559.62</ele>
        <time>2022-04-14T10:25:15Z</time>
      </trkpt>
      <trkpt lat="42.2445449699" lon="-0.5426485185">
        <ele>560.11</ele>
        <time>2022-04-14T10:25:29Z</time>
      </trkpt>
      <trkpt lat="42.2446773201" lon="-0.5427413899">
        <ele>561.07</ele>
        <time>2022-04-14T10:25:42Z</time>
      </trkpt>
      <trkpt lat="42.2448082455" lon="-0.5428365245">
        <ele>561.55</ele>
        <time>2022-04-14T10:25:52Z</time>
      </trkpt>
      <trkpt lat="42.2449648194" lon="-0.5429293960">
        <ele>562.03</ele>
        <time>2022-04-14T10:26:05Z</time>
      </trkpt>
      <trkpt lat="42.2450881172" lon="-0.5430016480">
        <ele>562.51</ele>
        <time>2022-04-14T10:26:16Z</time>
      </trkpt>
      <trkpt lat="42.2452773806" lon="-0.5431170668">
        <ele>562.99</ele>
        <time>2022-04-14T10:26:29Z</time>
      </trkpt>
      <trkpt lat="42.2454246506" lon="-0.5432102736">
        <ele>563.47</ele>
        <time>2022-04-14T10:26:42Z</time>
      </trkpt>
      <trkpt lat="42.2455284186" lon="-0.5432804301">
        <ele>564.43</ele>
        <time>2022-04-14T10:26:52Z</time>
      </trkpt>
      <trkpt lat="42.2456519678" lon="-0.5433671828">
        <ele>564.43</ele>
        <time>2022-04-14T10:27:03Z</time>
      </trkpt>
      <trkpt lat="42.2458343580" lon="-0.5434843618">
        <ele>564.91</ele>
        <time>2022-04-14T10:27:18Z</time>
      </trkpt>
      <trkpt lat="42.2459372040" lon="-0.5435482319">
        <ele>564.91</ele>
        <time>2022-04-14T10:27:25Z</time>
      </trkpt>
      <trkpt lat="42.2461043391" lon="-0.5436431151">
        <ele>564.91</ele>
        <time>2022-04-14T10:27:40Z</time>
      </trkpt>
      <trkpt lat="42.2462497652" lon="-0.5437347293">
        <ele>564.91</ele>
        <time>2022-04-14T10:27:52Z</time>
      </trkpt>
      <trkpt lat="42.2464206722" lon="-0.5438285228">
        <ele>564.91</ele>
        <time>2022-04-14T10:28:04Z</time>
      </trkpt>
      <trkpt lat="42.2464587260" lon="-0.5438555125">
        <ele>564.91</ele>
        <time>2022-04-14T10:28:09Z</time>
      </trkpt>
      <trkpt lat="42.2466670163" lon="-0.5439951550">
        <ele>565.39</ele>
        <time>2022-04-14T10:28:25Z</time>
      </trkpt>
      <trkpt lat="42.2468244284" lon="-0.5440872721">
        <ele>565.39</ele>
        <time>2022-04-14T10:28:37Z</time>
      </trkpt>
      <trkpt lat="42.2469942458" lon="-0.5442062952">
        <ele>565.39</ele>
        <time>2022-04-14T10:28:52Z</time>
      </trkpt>
      <trkpt lat="42.2471398395" lon="-0.5443078838">
        <ele>565.39</ele>
        <time>2022-04-14T10:29:06Z</time>
      </trkpt>
      <trkpt lat="42.2473275103" lon="-0.5444118194">
        <ele>565.87</ele>
        <time>2022-04-14T10:29:20Z</time>
      </trkpt>
      <trkpt lat="42.2474446055" lon="-0.5444720015">
        <ele>565.87</ele>
        <time>2022-04-14T10:29:30Z</time>
      </trkpt>
      <trkpt lat="42.2474821564" lon="-0.5444777850">
        <ele>565.87</ele>
        <time>2022-04-14T10:29:33Z</time>
      </trkpt>
      <trkpt lat="42.2475297656" lon="-0.5443155114">
        <ele>565.87</ele>
        <time>2022-04-14T10:29:44Z</time>
      </trkpt>
      <trkpt lat="42.2476167697" lon="-0.5442479532">
        <ele>566.35</ele>
        <time>2022-04-14T10:29:53Z</time>
      </trkpt>
      <trkpt lat="42.2478139121" lon="-0.5442447681">
        <ele>567.32</ele>
        <time>2022-04-14T10:30:05Z</time>
      </trkpt>
      <trkpt lat="42.2479824722" lon="-0.5442671478">
        <ele>568.28</ele>
        <time>2022-04-14T10:30:20Z</time>
      </trkpt>
      <trkpt lat="42.2480636090" lon="-0.5443075486">
        <ele>568.28</ele>
        <time>2022-04-14T10:30:25Z</time>
      </trkpt>
      <trkpt lat="42.2482511960" lon="-0.5443519726">
        <ele>568.76</ele>
        <time>2022-04-14T10:30:41Z</time>
      </trkpt>
      <trkpt lat="42.2484882362" lon="-0.5444218777">
        <ele>569.72</ele>
        <time>2022-04-14T10:30:57Z</time>
      </trkpt>
      <trkpt lat="42.2486605681" lon="-0.5444989074">
        <ele>570.20</ele>
        <time>2022-04-14T10:31:12Z</time>
      </trkpt>
      <trkpt lat="42.2488761507" lon="-0.5446537212">
        <ele>571.16</ele>
        <time>2022-04-14T10:31:29Z</time>
      </trkpt>
      <trkpt lat="42.2489134502" lon="-0.5447027553">
        <ele>571.16</ele>
        <time>2022-04-14T10:31:32Z</time>
      </trkpt>
      <trkpt lat="42.2490581218" lon="-0.5448372848">
        <ele>571.64</ele>
        <time>2022-04-14T10:31:46Z</time>
      </trkpt>
      <trkpt lat="42.2492315434" lon="-0.5449966248">
        <ele>572.12</ele>
        <time>2022-04-14T10:32:03Z</time>
      </trkpt>
      <trkpt lat="42.2494332120" lon="-0.5451423023">
        <ele>573.08</ele>
        <time>2022-04-14T10:32:20Z</time>
      </trkpt>
      <trkpt lat="42.2495938092" lon="-0.5452867225">
        <ele>573.56</ele>
        <time>2022-04-14T10:32:33Z</time>
      </trkpt>
      <trkpt lat="42.2497566696" lon="-0.5454268679">
        <ele>574.53</ele>
        <time>2022-04-14T10:32:48Z</time>
      </trkpt>
      <trkpt lat="42.2499300074" lon="-0.5455779098">
        <ele>576.45</ele>
        <time>2022-04-14T10:33:05Z</time>
      </trkpt>
      <trkpt lat="42.2499776166" lon="-0.5456240103">
        <ele>576.45</ele>
        <time>2022-04-14T10:33:11Z</time>
      </trkpt>
      <trkpt lat="42.2500844859" lon="-0.5456528440">
        <ele>576.93</ele>
        <time>2022-04-14T10:33:17Z</time>
      </trkpt>
      <trkpt lat="42.2502548061" lon="-0.5455988646">
        <ele>577.41</ele>
        <time>2022-04-14T10:33:31Z</time>
      </trkpt>
      <trkpt lat="42.2503862344" lon="-0.5455396883">
        <ele>577.89</ele>
        <time>2022-04-14T10:33:42Z</time>
      </trkpt>
      <trkpt lat="42.2504702210" lon="-0.5455168895">
        <ele>578.37</ele>
        <time>2022-04-14T10:33:46Z</time>
      </trkpt>
      <trkpt lat="42.2505726479" lon="-0.5454665981">
        <ele>578.37</ele>
        <time>2022-04-14T10:33:52Z</time>
      </trkpt>
      <trkpt lat="42.2506636754" lon="-0.5454272032">
        <ele>579.33</ele>
        <time>2022-04-14T10:34:03Z</time>
      </trkpt>
      <trkpt lat="42.2506809421" lon="-0.5454151332">
        <ele>579.33</ele>
        <time>2022-04-14T10:34:05Z</time>
      </trkpt>
      <trkpt lat="42.2508428805" lon="-0.5453716312">
        <ele>580.29</ele>
        <time>2022-04-14T10:34:14Z</time>
      </trkpt>
      <trkpt lat="42.2509738058" lon="-0.5453241058">
        <ele>581.73</ele>
        <time>2022-04-14T10:34:26Z</time>
      </trkpt>
      <trkpt lat="42.2511095926" lon="-0.5452928413">
        <ele>581.73</ele>
        <time>2022-04-14T10:34:34Z</time>
      </trkpt>
      <trkpt lat="42.2512093373" lon="-0.5452775862">
        <ele>582.70</ele>
        <time>2022-04-14T10:34:44Z</time>
      </trkpt>
      <trkpt lat="42.2514052223" lon="-0.5452971160">
        <ele>584.14</ele>
        <time>2022-04-14T10:34:58Z</time>
      </trkpt>
      <trkpt lat="42.2515885346" lon="-0.5453561246">
        <ele>585.10</ele>
        <time>2022-04-14T10:35:11Z</time>
      </trkpt>
      <trkpt lat="42.2517420910" lon="-0.5454527680">
        <ele>585.58</ele>
        <time>2022-04-14T10:35:23Z</time>
      </trkpt>
      <trkpt lat="42.2519072145" lon="-0.5455628224">
        <ele>587.02</ele>
        <time>2022-04-14T10:35:39Z</time>
      </trkpt>
      <trkpt lat="42.2520537302" lon="-0.5456394330">
        <ele>588.46</ele>
        <time>2022-04-14T10:35:53Z</time>
      </trkpt>
      <trkpt lat="42.2520759422" lon="-0.5456583761">
        <ele>588.46</ele>
        <time>2022-04-14T10:35:55Z</time>
      </trkpt>
      <trkpt lat="42.2523198556" lon="-0.5457755551">
        <ele>590.39</ele>
        <time>2022-04-14T10:36:12Z</time>
      </trkpt>
      <trkpt lat="42.2525069397" lon="-0.5458540097">
        <ele>591.83</ele>
        <time>2022-04-14T10:36:27Z</time>
      </trkpt>
      <trkpt lat="42.2526582330" lon="-0.5458651576">
        <ele>592.31</ele>
        <time>2022-04-14T10:36:40Z</time>
      </trkpt>
      <trkpt lat="42.2527894098" lon="-0.5459067319">
        <ele>592.79</ele>
        <time>2022-04-14T10:36:51Z</time>
      </trkpt>
      <trkpt lat="42.2529742308" lon="-0.5459833425">
        <ele>593.75</ele>
        <time>2022-04-14T10:37:05Z</time>
      </trkpt>
      <trkpt lat="42.2530447226" lon="-0.5460167024">
        <ele>593.75</ele>
        <time>2022-04-14T10:37:12Z</time>
      </trkpt>
      <trkpt lat="42.2531093471" lon="-0.5460393336">
        <ele>593.75</ele>
        <time>2022-04-14T10:37:16Z</time>
      </trkpt>
      <trkpt lat="42.2532906476" lon="-0.5461271759">
        <ele>595.19</ele>
        <time>2022-04-14T10:37:32Z</time>
      </trkpt>
      <trkpt lat="42.2533020470" lon="-0.5461303610">
        <ele>595.67</ele>
        <time>2022-04-14T10:37:33Z</time>
      </trkpt>
      <trkpt lat="42.2535165399" lon="-0.5462039541">
        <ele>596.64</ele>
        <time>2022-04-14T10:37:47Z</time>
      </trkpt>
      <trkpt lat="42.2536596190" lon="-0.5462550838">
        <ele>597.12</ele>
        <time>2022-04-14T10:38:01Z</time>
      </trkpt>
      <trkpt lat="42.2538596112" lon="-0.5463586841">
        <ele>597.60</ele>
        <time>2022-04-14T10:38:16Z</time>
      </trkpt>
      <trkpt lat="42.2540977411" lon="-0.5464430060">
        <ele>599.04</ele>
        <time>2022-04-14T10:38:32Z</time>
      </trkpt>
      <trkpt lat="42.2542529739" lon="-0.5464905314">
        <ele>600.00</ele>
        <time>2022-04-14T10:38:48Z</time>
      </trkpt>
      <trkpt lat="42.2544410639" lon="-0.5465611909">
        <ele>600.00</ele>
        <time>2022-04-14T10:39:01Z</time>
      </trkpt>
      <trkpt lat="42.2546233702" lon="-0.5466413219">
        <ele>600.48</ele>
        <time>2022-04-14T10:39:17Z</time>
      </trkpt>
      <trkpt lat="42.2546409722" lon="-0.5466459319">
        <ele>600.48</ele>
        <time>2022-04-14T10:39:19Z</time>
      </trkpt>
      <trkpt lat="42.2547599114" lon="-0.5467142444">
        <ele>600.96</ele>
        <time>2022-04-14T10:39:27Z</time>
      </trkpt>
      <trkpt lat="42.2549591493" lon="-0.5468563177">
        <ele>601.92</ele>
        <time>2022-04-14T10:39:41Z</time>
      </trkpt>
      <trkpt lat="42.2551015578" lon="-0.5469975527">
        <ele>603.85</ele>
        <time>2022-04-14T10:39:53Z</time>
      </trkpt>
      <trkpt lat="42.2552376799" lon="-0.5470473412">
        <ele>605.77</ele>
        <time>2022-04-14T10:40:09Z</time>
      </trkpt>
      <trkpt lat="42.2554502450" lon="-0.5471081939">
        <ele>605.77</ele>
        <time>2022-04-14T10:40:24Z</time>
      </trkpt>
      <trkpt lat="42.2556184698" lon="-0.5471739080">
        <ele>605.77</ele>
        <time>2022-04-14T10:40:37Z</time>
      </trkpt>
      <trkpt lat="42.2557702661" lon="-0.5472441483">
        <ele>606.73</ele>
        <time>2022-04-14T10:40:49Z</time>
      </trkpt>
      <trkpt lat="42.2559583560" lon="-0.5473291408">
        <ele>607.21</ele>
        <time>2022-04-14T10:41:03Z</time>
      </trkpt>
      <trkpt lat="42.2561258264" lon="-0.5474311486">
        <ele>608.17</ele>
        <time>2022-04-14T10:41:17Z</time>
      </trkpt>
      <trkpt lat="42.2562949732" lon="-0.5475041550">
        <ele>610.09</ele>
        <time>2022-04-14T10:41:28Z</time>
      </trkpt>
      <trkpt lat="42.2565022577" lon="-0.5475336593">
        <ele>612.02</ele>
        <time>2022-04-14T10:41:44Z</time>
      </trkpt>
      <trkpt lat="42.2565227095" lon="-0.5475214217">
        <ele>612.50</ele>
        <time>2022-04-14T10:41:46Z</time>
      </trkpt>
      <trkpt lat="42.2565933689" lon="-0.5476619862">
        <ele>614.42</ele>
        <time>2022-04-14T10:41:59Z</time>
      </trkpt>
      <trkpt lat="42.2566010803" lon="-0.5478420295">
        <ele>617.78</ele>
        <time>2022-04-14T10:42:13Z</time>
      </trkpt>
      <trkpt lat="42.2566661239" lon="-0.5480271019">
        <ele>619.71</ele>
        <time>2022-04-14T10:42:25Z</time>
      </trkpt>
      <trkpt lat="42.2566837259" lon="-0.5480519962">
        <ele>619.71</ele>
        <time>2022-04-14T10:42:28Z</time>
      </trkpt>
      <trkpt lat="42.2568383720" lon="-0.5480824225">
        <ele>623.07</ele>
        <time>2022-04-14T10:42:42Z</time>
      </trkpt>
      <trkpt lat="42.2569199279" lon="-0.5481635593">
        <ele>624.51</ele>
        <time>2022-04-14T10:42:51Z</time>
      </trkpt>
      <trkpt lat="42.2570639290" lon="-0.5483679101">
        <ele>625.47</ele>
        <time>2022-04-14T10:43:04Z</time>
      </trkpt>
      <trkpt lat="42.2570993844" lon="-0.5486171041">
        <ele>627.40</ele>
        <time>2022-04-14T10:43:16Z</time>
      </trkpt>
      <trkpt lat="42.2571013123" lon="-0.5487086345">
        <ele>629.32</ele>
        <time>2022-04-14T10:43:23Z</time>
      </trkpt>
      <trkpt lat="42.2571030725" lon="-0.5487982370">
        <ele>630.28</ele>
        <time>2022-04-14T10:43:28Z</time>
      </trkpt>
      <trkpt lat="42.2571083531" lon="-0.5488874204">
        <ele>631.24</ele>
        <time>2022-04-14T10:43:32Z</time>
      </trkpt>
      <trkpt lat="42.2571117897" lon="-0.5489718262">
        <ele>631.24</ele>
        <time>2022-04-14T10:43:37Z</time>
      </trkpt>
      <trkpt lat="42.2571448144" lon="-0.5491936952">
        <ele>633.65</ele>
        <time>2022-04-14T10:43:53Z</time>
      </trkpt>
      <trkpt lat="42.2571941838" lon="-0.5493638478">
        <ele>637.01</ele>
        <time>2022-04-14T10:44:07Z</time>
      </trkpt>
      <trkpt lat="42.2572810203" lon="-0.5493282247">
        <ele>638.45</ele>
        <time>2022-04-14T10:44:16Z</time>
      </trkpt>
      <trkpt lat="42.2573810164" lon="-0.5492832139">
        <ele>640.38</ele>
        <time>2022-04-14T10:44:23Z</time>
      </trkpt>
      <trkpt lat="42.2575075831" lon="-0.5493108742">
        <ele>642.30</ele>
        <time>2022-04-14T10:44:33Z</time>
      </trkpt>
      <trkpt lat="42.2576160450" lon="-0.5494639277">
        <ele>644.22</ele>
        <time>2022-04-14T10:44:48Z</time>
      </trkpt>
      <trkpt lat="42.2576633189" lon="-0.5495485011">
        <ele>645.66</ele>
        <time>2022-04-14T10:44:54Z</time>
      </trkpt>
      <trkpt lat="42.2576948348" lon="-0.5495644268">
        <ele>644.22</ele>
        <time>2022-04-14T10:44:57Z</time>
      </trkpt>
      <trkpt lat="42.2577090841" lon="-0.5496063363">
        <ele>647.10</ele>
        <time>2022-04-14T10:44:59Z</time>
      </trkpt>
      <trkpt lat="42.2577215731" lon="-0.5496460665">
        <ele>647.10</ele>
        <time>2022-04-14T10:45:01Z</time>
      </trkpt>
      <trkpt lat="42.2578358185" lon="-0.5498608109">
        <ele>649.03</ele>
        <time>2022-04-14T10:45:15Z</time>
      </trkpt>
      <trkpt lat="42.2579734493" lon="-0.5501020420">
        <ele>650.95</ele>
        <time>2022-04-14T10:45:31Z</time>
      </trkpt>
      <trkpt lat="42.2580648959" lon="-0.5503127631">
        <ele>652.87</ele>
        <time>2022-04-14T10:45:47Z</time>
      </trkpt>
      <trkpt lat="42.2581031173" lon="-0.5504246615">
        <ele>653.83</ele>
        <time>2022-04-14T10:45:55Z</time>
      </trkpt>
      <trkpt lat="42.2581785545" lon="-0.5506621208">
        <ele>654.80</ele>
        <time>2022-04-14T10:46:10Z</time>
      </trkpt>
      <trkpt lat="42.2581939772" lon="-0.5508479476">
        <ele>655.76</ele>
        <time>2022-04-14T10:46:20Z</time>
      </trkpt>
      <trkpt lat="42.2581945639" lon="-0.5508888513">
        <ele>655.76</ele>
        <time>2022-04-14T10:46:23Z</time>
      </trkpt>
      <trkpt lat="42.2582012694" lon="-0.5511124805">
        <ele>656.24</ele>
        <time>2022-04-14T10:46:36Z</time>
      </trkpt>
      <trkpt lat="42.2582688276" lon="-0.5513315834">
        <ele>656.72</ele>
        <time>2022-04-14T10:46:50Z</time>
      </trkpt>
      <trkpt lat="42.2583105695" lon="-0.5513751693">
        <ele>656.72</ele>
        <time>2022-04-14T10:46:54Z</time>
      </trkpt>
      <trkpt lat="42.2583581787" lon="-0.5513958726">
        <ele>656.72</ele>
        <time>2022-04-14T10:46:57Z</time>
      </trkpt>
      <trkpt lat="42.2585430834" lon="-0.5515989661">
        <ele>656.72</ele>
        <time>2022-04-14T10:47:10Z</time>
      </trkpt>
      <trkpt lat="42.2586599272" lon="-0.5517117027">
        <ele>656.72</ele>
        <time>2022-04-14T10:47:21Z</time>
      </trkpt>
      <trkpt lat="42.2588129807" lon="-0.5518681090">
        <ele>656.72</ele>
        <time>2022-04-14T10:47:35Z</time>
      </trkpt>
      <trkpt lat="42.2588621825" lon="-0.5519577954">
        <ele>656.72</ele>
        <time>2022-04-14T10:47:42Z</time>
      </trkpt>
      <trkpt lat="42.2589311656" lon="-0.5519847851">
        <ele>657.20</ele>
        <time>2022-04-14T10:47:49Z</time>
      </trkpt>
      <trkpt lat="42.2589998972" lon="-0.5520415306">
        <ele>657.68</ele>
        <time>2022-04-14T10:47:54Z</time>
      </trkpt>
      <trkpt lat="42.2591109574" lon="-0.5522033852">
        <ele>659.60</ele>
        <time>2022-04-14T10:48:06Z</time>
      </trkpt>
      <trkpt lat="42.2591409646" lon="-0.5522384215">
        <ele>660.08</ele>
        <time>2022-04-14T10:48:08Z</time>
      </trkpt>
      <trkpt lat="42.2590565588" lon="-0.5524244159">
        <ele>662.01</ele>
        <time>2022-04-14T10:48:20Z</time>
      </trkpt>
      <trkpt lat="42.2590138949" lon="-0.5524430238">
        <ele>660.56</ele>
        <time>2022-04-14T10:48:33Z</time>
      </trkpt>
      <trkpt lat="42.2590104584" lon="-0.5524503160">
        <ele>663.93</ele>
        <time>2022-04-14T10:48:35Z</time>
      </trkpt>
      <trkpt lat="42.2590062674" lon="-0.5524503160">
        <ele>663.93</ele>
        <time>2022-04-14T10:48:36Z</time>
      </trkpt>
      <trkpt lat="42.2590024956" lon="-0.5524507351">
        <ele>662.49</ele>
        <time>2022-04-14T10:48:38Z</time>
      </trkpt>
      <trkpt lat="42.2589918505" lon="-0.5524422694">
        <ele>662.01</ele>
        <time>2022-04-14T10:48:57Z</time>
      </trkpt>
      <trkpt lat="42.2590240370" lon="-0.5524547584">
        <ele>662.01</ele>
        <time>2022-04-14T10:49:20Z</time>
      </trkpt>
      <trkpt lat="42.2590397950" lon="-0.5524762999">
        <ele>662.01</ele>
        <time>2022-04-14T10:49:39Z</time>
      </trkpt>
      <trkpt lat="42.2590393759" lon="-0.5524480529">
        <ele>662.01</ele>
        <time>2022-04-14T10:49:58Z</time>
      </trkpt>
      <trkpt lat="42.2589568142" lon="-0.5524575245">
        <ele>662.01</ele>
        <time>2022-04-14T10:50:23Z</time>
      </trkpt>
      <trkpt lat="42.2589823790" lon="-0.5524700135">
        <ele>661.52</ele>
        <time>2022-04-14T10:50:53Z</time>
      </trkpt>
      <trkpt lat="42.2590014897" lon="-0.5524137709">
        <ele>661.52</ele>
        <time>2022-04-14T10:51:18Z</time>
      </trkpt>
      <trkpt lat="42.2589742485" lon="-0.5524503998">
        <ele>662.49</ele>
        <time>2022-04-14T10:52:00Z</time>
      </trkpt>
      <trkpt lat="42.2589951195" lon="-0.5524529982">
        <ele>662.49</ele>
        <time>2022-04-14T10:52:33Z</time>
      </trkpt>
      <trkpt lat="42.2589952871" lon="-0.5525060557">
        <ele>661.52</ele>
        <time>2022-04-14T10:52:57Z</time>
      </trkpt>
      <trkpt lat="42.2589856479" lon="-0.5524569377">
        <ele>662.49</ele>
        <time>2022-04-14T10:53:30Z</time>
      </trkpt>
      <trkpt lat="42.2589770984" lon="-0.5525008589">
        <ele>662.97</ele>
        <time>2022-04-14T10:54:01Z</time>
      </trkpt>
      <trkpt lat="42.2589967120" lon="-0.5524692591">
        <ele>662.97</ele>
        <time>2022-04-14T10:54:30Z</time>
      </trkpt>
      <trkpt lat="42.2590435669" lon="-0.5524835084">
        <ele>663.45</ele>
        <time>2022-04-14T10:55:02Z</time>
      </trkpt>
      <trkpt lat="42.2590304911" lon="-0.5524792336">
        <ele>663.45</ele>
        <time>2022-04-14T10:55:38Z</time>
      </trkpt>
      <trkpt lat="42.2590373643" lon="-0.5524224881">
        <ele>663.45</ele>
        <time>2022-04-14T10:55:55Z</time>
      </trkpt>
      <trkpt lat="42.2591137234" lon="-0.5523742922">
        <ele>662.49</ele>
        <time>2022-04-14T10:56:06Z</time>
      </trkpt>
      <trkpt lat="42.2591819521" lon="-0.5523548461">
        <ele>662.97</ele>
        <time>2022-04-14T10:56:17Z</time>
      </trkpt>
      <trkpt lat="42.2592133004" lon="-0.5524923094">
        <ele>662.49</ele>
        <time>2022-04-14T10:56:37Z</time>
      </trkpt>
      <trkpt lat="42.2591180820" lon="-0.5524927285">
        <ele>662.01</ele>
        <time>2022-04-14T10:56:53Z</time>
      </trkpt>
      <trkpt lat="42.2591892444" lon="-0.5525406729">
        <ele>662.01</ele>
        <time>2022-04-14T10:57:12Z</time>
      </trkpt>
      <trkpt lat="42.2592486721" lon="-0.5525503121">
        <ele>662.01</ele>
        <time>2022-04-14T10:57:17Z</time>
      </trkpt>
      <trkpt lat="42.2592583112" lon="-0.5525756255">
        <ele>660.56</ele>
        <time>2022-04-14T10:57:20Z</time>
      </trkpt>
      <trkpt lat="42.2592757456" lon="-0.5525987595">
        <ele>660.56</ele>
        <time>2022-04-14T10:57:24Z</time>
      </trkpt>
      <trkpt lat="42.2593676113" lon="-0.5526399985">
        <ele>660.56</ele>
        <time>2022-04-14T10:57:36Z</time>
      </trkpt>
      <trkpt lat="42.2593726404" lon="-0.5526722688">
        <ele>660.56</ele>
        <time>2022-04-14T10:57:41Z</time>
      </trkpt>
      <trkpt lat="42.2593987081" lon="-0.5526635516">
        <ele>660.08</ele>
        <time>2022-04-14T10:57:54Z</time>
      </trkpt>
      <trkpt lat="42.2593895718" lon="-0.5526674911">
        <ele>661.52</ele>
        <time>2022-04-14T10:58:00Z</time>
      </trkpt>
      <trkpt lat="42.2593547031" lon="-0.5527077243">
        <ele>662.01</ele>
        <time>2022-04-14T10:58:26Z</time>
      </trkpt>
      <trkpt lat="42.2593995463" lon="-0.5526857637">
        <ele>660.56</ele>
        <time>2022-04-14T10:58:28Z</time>
      </trkpt>
      <trkpt lat="42.2595714591" lon="-0.5525854323">
        <ele>662.49</ele>
        <time>2022-04-14T10:58:41Z</time>
      </trkpt>
      <trkpt lat="42.2597431205" lon="-0.5526151881">
        <ele>663.45</ele>
        <time>2022-04-14T10:58:55Z</time>
      </trkpt>
      <trkpt lat="42.2597506642" lon="-0.5526201334">
        <ele>663.45</ele>
        <time>2022-04-14T10:58:56Z</time>
      </trkpt>
      <trkpt lat="42.2599624749" lon="-0.5526238214">
        <ele>664.89</ele>
        <time>2022-04-14T10:59:14Z</time>
      </trkpt>
      <trkpt lat="42.2601570189" lon="-0.5526484642">
        <ele>664.89</ele>
        <time>2022-04-14T10:59:27Z</time>
      </trkpt>
      <trkpt lat="42.2601830866" lon="-0.5526658148">
        <ele>664.89</ele>
        <time>2022-04-14T10:59:31Z</time>
      </trkpt>
      <trkpt lat="42.2602596972" lon="-0.5527092330">
        <ele>664.89</ele>
        <time>2022-04-14T10:59:44Z</time>
      </trkpt>
      <trkpt lat="42.2602627985" lon="-0.5527068861">
        <ele>664.89</ele>
        <time>2022-04-14T10:59:46Z</time>
      </trkpt>
      <trkpt lat="42.2602689173" lon="-0.5527198780">
        <ele>664.89</ele>
        <time>2022-04-14T10:59:48Z</time>
      </trkpt>
      <trkpt lat="42.2603995074" lon="-0.5527198780">
        <ele>664.89</ele>
        <time>2022-04-14T10:59:56Z</time>
      </trkpt>
      <trkpt lat="42.2605496272" lon="-0.5527507234">
        <ele>664.89</ele>
        <time>2022-04-14T11:00:07Z</time>
      </trkpt>
      <trkpt lat="42.2606015112" lon="-0.5528105702">
        <ele>664.89</ele>
        <time>2022-04-14T11:00:16Z</time>
      </trkpt>
      <trkpt lat="42.2606826480" lon="-0.5527818203">
        <ele>663.93</ele>
        <time>2022-04-14T11:00:23Z</time>
      </trkpt>
      <trkpt lat="42.2608487774" lon="-0.5528294295">
        <ele>663.45</ele>
        <time>2022-04-14T11:00:35Z</time>
      </trkpt>
      <trkpt lat="42.2609152459" lon="-0.5528507195">
        <ele>663.45</ele>
        <time>2022-04-14T11:00:39Z</time>
      </trkpt>
      <trkpt lat="42.2610285692" lon="-0.5528968200">
        <ele>662.97</ele>
        <time>2022-04-14T11:00:49Z</time>
      </trkpt>
      <trkpt lat="42.2610870749" lon="-0.5528932158">
        <ele>662.97</ele>
        <time>2022-04-14T11:00:53Z</time>
      </trkpt>
      <trkpt lat="42.2613129672" lon="-0.5528177787">
        <ele>662.01</ele>
        <time>2022-04-14T11:01:09Z</time>
      </trkpt>
      <trkpt lat="42.2613458242" lon="-0.5528105702">
        <ele>661.52</ele>
        <time>2022-04-14T11:01:12Z</time>
      </trkpt>
      <trkpt lat="42.2614422161" lon="-0.5527844187">
        <ele>661.52</ele>
        <time>2022-04-14T11:01:22Z</time>
      </trkpt>
      <trkpt lat="42.2614916693" lon="-0.5527727678">
        <ele>661.04</ele>
        <time>2022-04-14T11:01:27Z</time>
      </trkpt>
      <trkpt lat="42.2615147196" lon="-0.5527514778">
        <ele>661.04</ele>
        <time>2022-04-14T11:01:29Z</time>
      </trkpt>
      <trkpt lat="42.2615638375" lon="-0.5527280085">
        <ele>661.04</ele>
        <time>2022-04-14T11:01:32Z</time>
      </trkpt>
      <trkpt lat="42.2616693657" lon="-0.5526969954">
        <ele>660.56</ele>
        <time>2022-04-14T11:01:43Z</time>
      </trkpt>
      <trkpt lat="42.2617662605" lon="-0.5525495578">
        <ele>660.56</ele>
        <time>2022-04-14T11:01:55Z</time>
      </trkpt>
      <trkpt lat="42.2618965991" lon="-0.5523985997">
        <ele>660.56</ele>
        <time>2022-04-14T11:02:08Z</time>
      </trkpt>
      <trkpt lat="42.2619688511" lon="-0.5523281917">
        <ele>660.08</ele>
        <time>2022-04-14T11:02:15Z</time>
      </trkpt>
      <trkpt lat="42.2620320506" lon="-0.5523053929">
        <ele>660.08</ele>
        <time>2022-04-14T11:02:21Z</time>
      </trkpt>
      <trkpt lat="42.2621043865" lon="-0.5522301234">
        <ele>660.08</ele>
        <time>2022-04-14T11:02:28Z</time>
      </trkpt>
      <trkpt lat="42.2621923964" lon="-0.5521395989">
        <ele>661.04</ele>
        <time>2022-04-14T11:02:36Z</time>
      </trkpt>
      <trkpt lat="42.2623895388" lon="-0.5520476494">
        <ele>660.56</ele>
        <time>2022-04-14T11:02:52Z</time>
      </trkpt>
      <trkpt lat="42.2624032013" lon="-0.5520419497">
        <ele>660.56</ele>
        <time>2022-04-14T11:02:53Z</time>
      </trkpt>
      <trkpt lat="42.2624894511" lon="-0.5520973541">
        <ele>660.56</ele>
        <time>2022-04-14T11:03:01Z</time>
      </trkpt>
      <trkpt lat="42.2626927122" lon="-0.5521090887">
        <ele>661.52</ele>
        <time>2022-04-14T11:03:17Z</time>
      </trkpt>
      <trkpt lat="42.2627530620" lon="-0.5520768184">
        <ele>661.52</ele>
        <time>2022-04-14T11:03:21Z</time>
      </trkpt>
      <trkpt lat="42.2628087178" lon="-0.5520707835">
        <ele>661.52</ele>
        <time>2022-04-14T11:03:25Z</time>
      </trkpt>
      <trkpt lat="42.2628364619" lon="-0.5520789977">
        <ele>660.08</ele>
        <time>2022-04-14T11:03:27Z</time>
      </trkpt>
      <trkpt lat="42.2629702371" lon="-0.5521304626">
        <ele>658.64</ele>
        <time>2022-04-14T11:03:41Z</time>
      </trkpt>
      <trkpt lat="42.2631730791" lon="-0.5521926563">
        <ele>657.20</ele>
        <time>2022-04-14T11:03:55Z</time>
      </trkpt>
      <trkpt lat="42.2633463331" lon="-0.5522216577">
        <ele>655.76</ele>
        <time>2022-04-14T11:04:08Z</time>
      </trkpt>
      <trkpt lat="42.2635003086" lon="-0.5523186363">
        <ele>652.87</ele>
        <time>2022-04-14T11:04:23Z</time>
      </trkpt>
      <trkpt lat="42.2637004685" lon="-0.5523689277">
        <ele>651.43</ele>
        <time>2022-04-14T11:04:36Z</time>
      </trkpt>
      <trkpt lat="42.2639172245" lon="-0.5523836799">
        <ele>650.47</ele>
        <time>2022-04-14T11:04:52Z</time>
      </trkpt>
      <trkpt lat="42.2641261853" lon="-0.5524326302">
        <ele>649.99</ele>
        <time>2022-04-14T11:05:07Z</time>
      </trkpt>
      <trkpt lat="42.2643421870" lon="-0.5524670798">
        <ele>649.51</ele>
        <time>2022-04-14T11:05:23Z</time>
      </trkpt>
      <trkpt lat="42.2645534948" lon="-0.5524935666">
        <ele>649.51</ele>
        <time>2022-04-14T11:05:39Z</time>
      </trkpt>
      <trkpt lat="42.2647154331" lon="-0.5525587779">
        <ele>649.03</ele>
        <time>2022-04-14T11:05:55Z</time>
      </trkpt>
      <trkpt lat="42.2647067159" lon="-0.5525666568">
        <ele>645.66</ele>
        <time>2022-04-14T11:05:58Z</time>
      </trkpt>
      <trkpt lat="42.2647050396" lon="-0.5525679979">
        <ele>649.03</ele>
        <time>2022-04-14T11:05:59Z</time>
      </trkpt>
      <trkpt lat="42.2646971606" lon="-0.5525814928">
        <ele>648.55</ele>
        <time>2022-04-14T11:06:06Z</time>
      </trkpt>
      <trkpt lat="42.2646978311" lon="-0.5525809899">
        <ele>649.51</ele>
        <time>2022-04-14T11:06:11Z</time>
      </trkpt>
      <trkpt lat="42.2647061292" lon="-0.5525788106">
        <ele>646.14</ele>
        <time>2022-04-14T11:06:25Z</time>
      </trkpt>
      <trkpt lat="42.2647076380" lon="-0.5525760446">
        <ele>652.87</ele>
        <time>2022-04-14T11:06:28Z</time>
      </trkpt>
      <trkpt lat="42.2647032794" lon="-0.5525721889">
        <ele>649.51</ele>
        <time>2022-04-14T11:06:29Z</time>
      </trkpt>
      <trkpt lat="42.2647058778" lon="-0.5525507312">
        <ele>648.55</ele>
        <time>2022-04-14T11:06:43Z</time>
      </trkpt>
      <trkpt lat="42.2647019383" lon="-0.5525679979">
        <ele>648.55</ele>
        <time>2022-04-14T11:07:01Z</time>
      </trkpt>
      <trkpt lat="42.2647096496" lon="-0.5525559280">
        <ele>649.99</ele>
        <time>2022-04-14T11:07:14Z</time>
      </trkpt>
      <trkpt lat="42.2647111584" lon="-0.5525611248">
        <ele>645.66</ele>
        <time>2022-04-14T11:07:16Z</time>
      </trkpt>
      <trkpt lat="42.2647124995" lon="-0.5525616277">
        <ele>647.59</ele>
        <time>2022-04-14T11:07:17Z</time>
      </trkpt>
      <trkpt lat="42.2647137567" lon="-0.5525618792">
        <ele>651.43</ele>
        <time>2022-04-14T11:07:18Z</time>
      </trkpt>
      <trkpt lat="42.2647126671" lon="-0.5525628012">
        <ele>649.51</ele>
        <time>2022-04-14T11:07:19Z</time>
      </trkpt>
      <trkpt lat="42.2647088952" lon="-0.5525652319">
        <ele>635.09</ele>
        <time>2022-04-14T11:07:23Z</time>
      </trkpt>
      <trkpt lat="42.2647064645" lon="-0.5525691714">
        <ele>650.95</ele>
        <time>2022-04-14T11:07:24Z</time>
      </trkpt>
      <trkpt lat="42.2647052910" lon="-0.5525734462">
        <ele>643.26</ele>
        <time>2022-04-14T11:07:25Z</time>
      </trkpt>
      <trkpt lat="42.2647021059" lon="-0.5525743682">
        <ele>659.12</ele>
        <time>2022-04-14T11:07:26Z</time>
      </trkpt>
      <trkpt lat="42.2647011001" lon="-0.5525740329">
        <ele>653.35</ele>
        <time>2022-04-14T11:07:27Z</time>
      </trkpt>
      <trkpt lat="42.2647011001" lon="-0.5525725242">
        <ele>649.51</ele>
        <time>2022-04-14T11:07:28Z</time>
      </trkpt>
      <trkpt lat="42.2647032794" lon="-0.5525665730">
        <ele>647.59</ele>
        <time>2022-04-14T11:07:32Z</time>
      </trkpt>
      <trkpt lat="42.2647092305" lon="-0.5525588617">
        <ele>649.03</ele>
        <time>2022-04-14T11:07:35Z</time>
      </trkpt>
      <trkpt lat="42.2647095658" lon="-0.5525598675">
        <ele>649.03</ele>
        <time>2022-04-14T11:07:50Z</time>
      </trkpt>
      <trkpt lat="42.2647057101" lon="-0.5525671598">
        <ele>641.34</ele>
        <time>2022-04-14T11:07:54Z</time>
      </trkpt>
      <trkpt lat="42.2647046205" lon="-0.5525672436">
        <ele>644.70</ele>
        <time>2022-04-14T11:07:55Z</time>
      </trkpt>
      <trkpt lat="42.2646997590" lon="-0.5525723565">
        <ele>649.03</ele>
        <time>2022-04-14T11:07:57Z</time>
      </trkpt>
      <trkpt lat="42.2646983340" lon="-0.5525760446">
        <ele>649.03</ele>
        <time>2022-04-14T11:07:58Z</time>
      </trkpt>
      <trkpt lat="42.2646965738" lon="-0.5525791459">
        <ele>651.91</ele>
        <time>2022-04-14T11:08:00Z</time>
      </trkpt>
      <trkpt lat="42.2646963224" lon="-0.5525773857">
        <ele>650.47</ele>
        <time>2022-04-14T11:08:01Z</time>
      </trkpt>
      <trkpt lat="42.2646984179" lon="-0.5525770504">
        <ele>647.10</ele>
        <time>2022-04-14T11:08:02Z</time>
      </trkpt>
      <trkpt lat="42.2646999266" lon="-0.5525795650">
        <ele>647.10</ele>
        <time>2022-04-14T11:08:03Z</time>
      </trkpt>
      <trkpt lat="42.2647036146" lon="-0.5525861867">
        <ele>651.91</ele>
        <time>2022-04-14T11:08:05Z</time>
      </trkpt>
      <trkpt lat="42.2647073027" lon="-0.5525846779">
        <ele>648.55</ele>
        <time>2022-04-14T11:08:08Z</time>
      </trkpt>
      <trkpt lat="42.2647079732" lon="-0.5525869410">
        <ele>641.82</ele>
        <time>2022-04-14T11:08:09Z</time>
      </trkpt>
      <trkpt lat="42.2647079732" lon="-0.5525900424">
        <ele>649.99</ele>
        <time>2022-04-14T11:08:10Z</time>
      </trkpt>
      <trkpt lat="42.2647070512" lon="-0.5525866896">
        <ele>653.83</ele>
        <time>2022-04-14T11:08:11Z</time>
      </trkpt>
      <trkpt lat="42.2647074703" lon="-0.5525831692">
        <ele>649.51</ele>
        <time>2022-04-14T11:08:12Z</time>
      </trkpt>
      <trkpt lat="42.2647057101" lon="-0.5525757931">
        <ele>649.03</ele>
        <time>2022-04-14T11:08:14Z</time>
      </trkpt>
      <trkpt lat="42.2647069674" lon="-0.5525631364">
        <ele>646.62</ele>
        <time>2022-04-14T11:08:18Z</time>
      </trkpt>
      <trkpt lat="42.2647047881" lon="-0.5525583588">
        <ele>650.95</ele>
        <time>2022-04-14T11:08:19Z</time>
      </trkpt>
      <trkpt lat="42.2647031117" lon="-0.5525518209">
        <ele>649.03</ele>
        <time>2022-04-14T11:08:20Z</time>
      </trkpt>
      <trkpt lat="42.2646889463" lon="-0.5525441933">
        <ele>648.55</ele>
        <time>2022-04-14T11:08:44Z</time>
      </trkpt>
      <trkpt lat="42.2646923829" lon="-0.5525456183">
        <ele>642.30</ele>
        <time>2022-04-14T11:08:47Z</time>
      </trkpt>
      <trkpt lat="42.2646904550" lon="-0.5525454506">
        <ele>647.10</ele>
        <time>2022-04-14T11:08:48Z</time>
      </trkpt>
      <trkpt lat="42.2646876890" lon="-0.5525453668">
        <ele>652.39</ele>
        <time>2022-04-14T11:08:49Z</time>
      </trkpt>
      <trkpt lat="42.2646881919" lon="-0.5525472946">
        <ele>648.55</ele>
        <time>2022-04-14T11:08:50Z</time>
      </trkpt>
      <trkpt lat="42.2646950651" lon="-0.5525500607">
        <ele>648.07</ele>
        <time>2022-04-14T11:08:52Z</time>
      </trkpt>
      <trkpt lat="42.2646940593" lon="-0.5525443610">
        <ele>650.47</ele>
        <time>2022-04-14T11:08:55Z</time>
      </trkpt>
      <trkpt lat="42.2646959871" lon="-0.5525441933">
        <ele>648.55</ele>
        <time>2022-04-14T11:08:58Z</time>
      </trkpt>
      <trkpt lat="42.2646960709" lon="-0.5525442772">
        <ele>642.30</ele>
        <time>2022-04-14T11:08:59Z</time>
      </trkpt>
      <trkpt lat="42.2646950651" lon="-0.5525434390">
        <ele>654.80</ele>
        <time>2022-04-14T11:09:00Z</time>
      </trkpt>
      <trkpt lat="42.2646963224" lon="-0.5525427684">
        <ele>649.99</ele>
        <time>2022-04-14T11:09:01Z</time>
      </trkpt>
      <trkpt lat="42.2646969929" lon="-0.5525438581">
        <ele>643.74</ele>
        <time>2022-04-14T11:09:03Z</time>
      </trkpt>
      <trkpt lat="42.2646986693" lon="-0.5525462050">
        <ele>647.59</ele>
        <time>2022-04-14T11:09:04Z</time>
      </trkpt>
      <trkpt lat="42.2647044528" lon="-0.5525579397">
        <ele>652.39</ele>
        <time>2022-04-14T11:09:07Z</time>
      </trkpt>
      <trkpt lat="42.2647134215" lon="-0.5525604542">
        <ele>649.03</ele>
        <time>2022-04-14T11:09:10Z</time>
      </trkpt>
      <trkpt lat="42.2647190373" lon="-0.5525684170">
        <ele>644.22</ele>
        <time>2022-04-14T11:09:12Z</time>
      </trkpt>
      <trkpt lat="42.2647191212" lon="-0.5525709316">
        <ele>647.59</ele>
        <time>2022-04-14T11:09:13Z</time>
      </trkpt>
      <trkpt lat="42.2647161875" lon="-0.5525721051">
        <ele>643.26</ele>
        <time>2022-04-14T11:09:14Z</time>
      </trkpt>
      <trkpt lat="42.2647132538" lon="-0.5525724404">
        <ele>649.51</ele>
        <time>2022-04-14T11:09:15Z</time>
      </trkpt>
      <trkpt lat="42.2647036985" lon="-0.5525741167">
        <ele>644.22</ele>
        <time>2022-04-14T11:09:19Z</time>
      </trkpt>
      <trkpt lat="42.2647032794" lon="-0.5525760446">
        <ele>649.51</ele>
        <time>2022-04-14T11:09:20Z</time>
      </trkpt>
      <trkpt lat="42.2647047043" lon="-0.5525794812">
        <ele>648.55</ele>
        <time>2022-04-14T11:09:24Z</time>
      </trkpt>
      <trkpt lat="42.2647012677" lon="-0.5525845941">
        <ele>650.47</ele>
        <time>2022-04-14T11:09:28Z</time>
      </trkpt>
      <trkpt lat="42.2647109907" lon="-0.5525897071">
        <ele>649.03</ele>
        <time>2022-04-14T11:09:31Z</time>
      </trkpt>
      <trkpt lat="42.2647285089" lon="-0.5525980052">
        <ele>645.18</ele>
        <time>2022-04-14T11:09:37Z</time>
      </trkpt>
      <trkpt lat="42.2647305205" lon="-0.5525995139">
        <ele>649.51</ele>
        <time>2022-04-14T11:09:38Z</time>
      </trkpt>
      <trkpt lat="42.2647330351" lon="-0.5525947362">
        <ele>644.70</ele>
        <time>2022-04-14T11:09:40Z</time>
      </trkpt>
      <trkpt lat="42.2647327837" lon="-0.5525938142">
        <ele>649.03</ele>
        <time>2022-04-14T11:09:41Z</time>
      </trkpt>
      <trkpt lat="42.2647228930" lon="-0.5525938980">
        <ele>645.18</ele>
        <time>2022-04-14T11:09:44Z</time>
      </trkpt>
      <trkpt lat="42.2647194564" lon="-0.5525928084">
        <ele>650.47</ele>
        <time>2022-04-14T11:09:45Z</time>
      </trkpt>
      <trkpt lat="42.2647173610" lon="-0.5525913835">
        <ele>650.47</ele>
        <time>2022-04-14T11:09:46Z</time>
      </trkpt>
      <trkpt lat="42.2647152655" lon="-0.5525827501">
        <ele>646.62</ele>
        <time>2022-04-14T11:09:52Z</time>
      </trkpt>
      <trkpt lat="42.2647073027" lon="-0.5525840912">
        <ele>653.83</ele>
        <time>2022-04-14T11:09:56Z</time>
      </trkpt>
      <trkpt lat="42.2647070512" lon="-0.5525815766">
        <ele>649.99</ele>
        <time>2022-04-14T11:09:57Z</time>
      </trkpt>
      <trkpt lat="42.2647020221" lon="-0.5525750387">
        <ele>648.55</ele>
        <time>2022-04-14T11:09:59Z</time>
      </trkpt>
      <trkpt lat="42.2647169419" lon="-0.5525734462">
        <ele>649.99</ele>
        <time>2022-04-14T11:10:04Z</time>
      </trkpt>
      <trkpt lat="42.2647292633" lon="-0.5525480490">
        <ele>647.59</ele>
        <time>2022-04-14T11:10:08Z</time>
      </trkpt>
      <trkpt lat="42.2647378128" lon="-0.5525462050">
        <ele>650.95</ele>
        <time>2022-04-14T11:10:09Z</time>
      </trkpt>
      <trkpt lat="42.2647419199" lon="-0.5525452830">
        <ele>649.51</ele>
        <time>2022-04-14T11:10:10Z</time>
      </trkpt>
      <trkpt lat="42.2648432571" lon="-0.5525602866">
        <ele>648.07</ele>
        <time>2022-04-14T11:10:20Z</time>
      </trkpt>
      <trkpt lat="42.2648865078" lon="-0.5525683332">
        <ele>649.51</ele>
        <time>2022-04-14T11:10:24Z</time>
      </trkpt>
      <trkpt lat="42.2650704067" lon="-0.5525721051">
        <ele>648.07</ele>
        <time>2022-04-14T11:10:38Z</time>
      </trkpt>
      <trkpt lat="42.2652835585" lon="-0.5525983404">
        <ele>648.07</ele>
        <time>2022-04-14T11:10:54Z</time>
      </trkpt>
      <trkpt lat="42.2654573992" lon="-0.5526218098">
        <ele>649.51</ele>
        <time>2022-04-14T11:11:07Z</time>
      </trkpt>
      <trkpt lat="42.2654668707" lon="-0.5526215583">
        <ele>649.51</ele>
        <time>2022-04-14T11:11:08Z</time>
      </trkpt>
      <trkpt lat="42.2657104488" lon="-0.5526535772">
        <ele>649.51</ele>
        <time>2022-04-14T11:11:24Z</time>
      </trkpt>
      <trkpt lat="42.2658584733" lon="-0.5527180340">
        <ele>649.51</ele>
        <time>2022-04-14T11:11:37Z</time>
      </trkpt>
      <trkpt lat="42.2661040630" lon="-0.5527881905">
        <ele>649.99</ele>
        <time>2022-04-14T11:11:56Z</time>
      </trkpt>
      <trkpt lat="42.2662292887" lon="-0.5528271664">
        <ele>650.47</ele>
        <time>2022-04-14T11:12:06Z</time>
      </trkpt>
      <trkpt lat="42.2664364055" lon="-0.5528934672">
        <ele>651.43</ele>
        <time>2022-04-14T11:12:21Z</time>
      </trkpt>
      <trkpt lat="42.2665718570" lon="-0.5529461056">
        <ele>650.95</ele>
        <time>2022-04-14T11:12:32Z</time>
      </trkpt>
      <trkpt lat="42.2666527424" lon="-0.5529943854">
        <ele>651.91</ele>
        <time>2022-04-14T11:12:38Z</time>
      </trkpt>
      <trkpt lat="42.2666744515" lon="-0.5530099757">
        <ele>650.47</ele>
        <time>2022-04-14T11:12:40Z</time>
      </trkpt>
      <trkpt lat="42.2667172831" lon="-0.5530351214">
        <ele>651.43</ele>
        <time>2022-04-14T11:12:44Z</time>
      </trkpt>
      <trkpt lat="42.2668087296" lon="-0.5531135760">
        <ele>650.95</ele>
        <time>2022-04-14T11:12:50Z</time>
      </trkpt>
      <trkpt lat="42.2669245675" lon="-0.5532201938">
        <ele>651.43</ele>
        <time>2022-04-14T11:13:01Z</time>
      </trkpt>
      <trkpt lat="42.2670110688" lon="-0.5533103831">
        <ele>653.83</ele>
        <time>2022-04-14T11:13:09Z</time>
      </trkpt>
      <trkpt lat="42.2670673113" lon="-0.5533389654">
        <ele>651.91</ele>
        <time>2022-04-14T11:13:14Z</time>
      </trkpt>
      <trkpt lat="42.2672455106" lon="-0.5534763448">
        <ele>653.83</ele>
        <time>2022-04-14T11:13:29Z</time>
      </trkpt>
      <trkpt lat="42.2673078720" lon="-0.5535364430">
        <ele>652.39</ele>
        <time>2022-04-14T11:13:34Z</time>
      </trkpt>
      <trkpt lat="42.2673281562" lon="-0.5535545480">
        <ele>654.31</ele>
        <time>2022-04-14T11:13:36Z</time>
      </trkpt>
      <trkpt lat="42.2674353607" lon="-0.5536203459">
        <ele>653.83</ele>
        <time>2022-04-14T11:13:44Z</time>
      </trkpt>
      <trkpt lat="42.2676149849" lon="-0.5537496787">
        <ele>654.31</ele>
        <time>2022-04-14T11:13:58Z</time>
      </trkpt>
      <trkpt lat="42.2676484287" lon="-0.5537856370">
        <ele>652.87</ele>
        <time>2022-04-14T11:14:01Z</time>
      </trkpt>
      <trkpt lat="42.2677082755" lon="-0.5538417120">
        <ele>654.31</ele>
        <time>2022-04-14T11:14:06Z</time>
      </trkpt>
      <trkpt lat="42.2678789310" lon="-0.5540118646">
        <ele>652.87</ele>
        <time>2022-04-14T11:14:22Z</time>
      </trkpt>
      <trkpt lat="42.2680313978" lon="-0.5541408621">
        <ele>650.47</ele>
        <time>2022-04-14T11:14:36Z</time>
      </trkpt>
      <trkpt lat="42.2680419590" lon="-0.5541539378">
        <ele>650.95</ele>
        <time>2022-04-14T11:14:38Z</time>
      </trkpt>
      <trkpt lat="42.2681147978" lon="-0.5542047322">
        <ele>649.03</ele>
        <time>2022-04-14T11:14:43Z</time>
      </trkpt>
      <trkpt lat="42.2681847867" lon="-0.5542406905">
        <ele>649.51</ele>
        <time>2022-04-14T11:14:49Z</time>
      </trkpt>
      <trkpt lat="42.2682417836" lon="-0.5542652495">
        <ele>648.55</ele>
        <time>2022-04-14T11:14:53Z</time>
      </trkpt>
      <trkpt lat="42.2682560328" lon="-0.5542766489">
        <ele>648.55</ele>
        <time>2022-04-14T11:14:54Z</time>
      </trkpt>
      <trkpt lat="42.2683411092" lon="-0.5543318857">
        <ele>648.55</ele>
        <time>2022-04-14T11:15:02Z</time>
      </trkpt>
      <trkpt lat="42.2683777381" lon="-0.5543920677">
        <ele>649.99</ele>
        <time>2022-04-14T11:15:05Z</time>
      </trkpt>
      <trkpt lat="42.2684170492" lon="-0.5544450413">
        <ele>648.55</ele>
        <time>2022-04-14T11:15:08Z</time>
      </trkpt>
      <trkpt lat="42.2685328033" lon="-0.5546022020">
        <ele>649.99</ele>
        <time>2022-04-14T11:15:20Z</time>
      </trkpt>
      <trkpt lat="42.2686686739" lon="-0.5547882803">
        <ele>649.51</ele>
        <time>2022-04-14T11:15:34Z</time>
      </trkpt>
      <trkpt lat="42.2686985135" lon="-0.5548458640">
        <ele>650.95</ele>
        <time>2022-04-14T11:15:41Z</time>
      </trkpt>
      <trkpt lat="42.2687068954" lon="-0.5548550840">
        <ele>650.95</ele>
        <time>2022-04-14T11:15:42Z</time>
      </trkpt>
      <trkpt lat="42.2688419279" lon="-0.5549445190">
        <ele>652.39</ele>
        <time>2022-04-14T11:15:50Z</time>
      </trkpt>
      <trkpt lat="42.2689464502" lon="-0.5550321937">
        <ele>651.43</ele>
        <time>2022-04-14T11:16:01Z</time>
      </trkpt>
      <trkpt lat="42.2691207100" lon="-0.5552010052">
        <ele>652.39</ele>
        <time>2022-04-14T11:16:16Z</time>
      </trkpt>
      <trkpt lat="42.2692854982" lon="-0.5553033482">
        <ele>652.87</ele>
        <time>2022-04-14T11:16:30Z</time>
      </trkpt>
      <trkpt lat="42.2694864962" lon="-0.5554254726">
        <ele>653.35</ele>
        <time>2022-04-14T11:16:45Z</time>
      </trkpt>
      <trkpt lat="42.2695919406" lon="-0.5554684717">
        <ele>653.35</ele>
        <time>2022-04-14T11:16:54Z</time>
      </trkpt>
      <trkpt lat="42.2697566450" lon="-0.5555246305">
        <ele>652.39</ele>
        <time>2022-04-14T11:17:06Z</time>
      </trkpt>
      <trkpt lat="42.2698019072" lon="-0.5555398017">
        <ele>652.87</ele>
        <time>2022-04-14T11:17:11Z</time>
      </trkpt>
      <trkpt lat="42.2698673699" lon="-0.5555528775">
        <ele>654.31</ele>
        <time>2022-04-14T11:17:15Z</time>
      </trkpt>
      <trkpt lat="42.2699181642" lon="-0.5555784423">
        <ele>652.39</ele>
        <time>2022-04-14T11:17:18Z</time>
      </trkpt>
      <trkpt lat="42.2699666955" lon="-0.5555843934">
        <ele>653.83</ele>
        <time>2022-04-14T11:17:22Z</time>
      </trkpt>
      <trkpt lat="42.2700179927" lon="-0.5555842258">
        <ele>652.87</ele>
        <time>2022-04-14T11:17:29Z</time>
      </trkpt>
      <trkpt lat="42.2700596508" lon="-0.5556169152">
        <ele>654.31</ele>
        <time>2022-04-14T11:17:32Z</time>
      </trkpt>
      <trkpt lat="42.2702293843" lon="-0.5556458328">
        <ele>654.31</ele>
        <time>2022-04-14T11:17:45Z</time>
      </trkpt>
      <trkpt lat="42.2703888081" lon="-0.5557117984">
        <ele>655.28</ele>
        <time>2022-04-14T11:17:56Z</time>
      </trkpt>
      <trkpt lat="42.2706083301" lon="-0.5558421370">
        <ele>654.80</ele>
        <time>2022-04-14T11:18:13Z</time>
      </trkpt>
      <trkpt lat="42.2707146965" lon="-0.5559630878">
        <ele>656.72</ele>
        <time>2022-04-14T11:18:22Z</time>
      </trkpt>
      <trkpt lat="42.2707714420" lon="-0.5560552049">
        <ele>656.72</ele>
        <time>2022-04-14T11:18:27Z</time>
      </trkpt>
      <trkpt lat="42.2709346376" lon="-0.5563118588">
        <ele>656.24</ele>
        <time>2022-04-14T11:18:45Z</time>
      </trkpt>
      <trkpt lat="42.2709499765" lon="-0.5563291255">
        <ele>657.68</ele>
        <time>2022-04-14T11:18:47Z</time>
      </trkpt>
      <trkpt lat="42.2710919660" lon="-0.5564989429">
        <ele>655.28</ele>
        <time>2022-04-14T11:19:01Z</time>
      </trkpt>
      <trkpt lat="42.2712473664" lon="-0.5566682573">
        <ele>656.24</ele>
        <time>2022-04-14T11:19:16Z</time>
      </trkpt>
      <trkpt lat="42.2714176867" lon="-0.5568560120">
        <ele>654.31</ele>
        <time>2022-04-14T11:19:32Z</time>
      </trkpt>
      <trkpt lat="42.2716077883" lon="-0.5570519809">
        <ele>653.83</ele>
        <time>2022-04-14T11:19:49Z</time>
      </trkpt>
      <trkpt lat="42.2716517095" lon="-0.5571022723">
        <ele>655.28</ele>
        <time>2022-04-14T11:19:53Z</time>
      </trkpt>
      <trkpt lat="42.2717890888" lon="-0.5573064554">
        <ele>653.35</ele>
        <time>2022-04-14T11:20:09Z</time>
      </trkpt>
      <trkpt lat="42.2719293181" lon="-0.5574799608">
        <ele>653.83</ele>
        <time>2022-04-14T11:20:24Z</time>
      </trkpt>
      <trkpt lat="42.2719458304" lon="-0.5575040169">
        <ele>655.28</ele>
        <time>2022-04-14T11:20:26Z</time>
      </trkpt>
      <trkpt lat="42.2721414641" lon="-0.5577314179">
        <ele>654.31</ele>
        <time>2022-04-14T11:20:44Z</time>
      </trkpt>
      <trkpt lat="42.2721778415" lon="-0.5577713996">
        <ele>652.87</ele>
        <time>2022-04-14T11:20:47Z</time>
      </trkpt>
      <trkpt lat="42.2722101957" lon="-0.5578041729">
        <ele>653.83</ele>
        <time>2022-04-14T11:20:50Z</time>
      </trkpt>
      <trkpt lat="42.2723284643" lon="-0.5579632614">
        <ele>652.87</ele>
        <time>2022-04-14T11:21:04Z</time>
      </trkpt>
      <trkpt lat="42.2724415362" lon="-0.5581790116">
        <ele>653.35</ele>
        <time>2022-04-14T11:21:19Z</time>
      </trkpt>
      <trkpt lat="42.2724553663" lon="-0.5582139641">
        <ele>653.35</ele>
        <time>2022-04-14T11:21:22Z</time>
      </trkpt>
      <trkpt lat="42.2724730521" lon="-0.5582407862">
        <ele>652.39</ele>
        <time>2022-04-14T11:21:24Z</time>
      </trkpt>
      <trkpt lat="42.2725858726" lon="-0.5583572946">
        <ele>653.35</ele>
        <time>2022-04-14T11:21:32Z</time>
      </trkpt>
      <trkpt lat="42.2726114374" lon="-0.5583647545">
        <ele>651.43</ele>
        <time>2022-04-14T11:21:34Z</time>
      </trkpt>
      <trkpt lat="42.2726403549" lon="-0.5583663471">
        <ele>652.39</ele>
        <time>2022-04-14T11:21:37Z</time>
      </trkpt>
      <trkpt lat="42.2726977710" lon="-0.5583816022">
        <ele>651.43</ele>
        <time>2022-04-14T11:21:41Z</time>
      </trkpt>
      <trkpt lat="42.2727145348" lon="-0.5583816860">
        <ele>652.87</ele>
        <time>2022-04-14T11:21:42Z</time>
      </trkpt>
      <trkpt lat="42.2727726214" lon="-0.5583878048">
        <ele>650.47</ele>
        <time>2022-04-14T11:21:46Z</time>
      </trkpt>
      <trkpt lat="42.2728245053" lon="-0.5583936721">
        <ele>651.43</ele>
        <time>2022-04-14T11:21:51Z</time>
      </trkpt>
      <trkpt lat="42.2728758864" lon="-0.5584154651">
        <ele>649.51</ele>
        <time>2022-04-14T11:21:54Z</time>
      </trkpt>
      <trkpt lat="42.2730401717" lon="-0.5584794190">
        <ele>652.87</ele>
        <time>2022-04-14T11:22:08Z</time>
      </trkpt>
      <trkpt lat="42.2732777148" lon="-0.5586317182">
        <ele>655.28</ele>
        <time>2022-04-14T11:22:26Z</time>
      </trkpt>
      <trkpt lat="42.2734419163" lon="-0.5587386712">
        <ele>656.72</ele>
        <time>2022-04-14T11:22:42Z</time>
      </trkpt>
      <trkpt lat="42.2735824808" lon="-0.5588446185">
        <ele>657.68</ele>
        <time>2022-04-14T11:22:56Z</time>
      </trkpt>
      <trkpt lat="42.2737750970" lon="-0.5589568522">
        <ele>657.68</ele>
        <time>2022-04-14T11:23:13Z</time>
      </trkpt>
      <trkpt lat="42.2737893462" lon="-0.5589637253">
        <ele>657.68</ele>
        <time>2022-04-14T11:23:14Z</time>
      </trkpt>
      <trkpt lat="42.2738489415" lon="-0.5590025336">
        <ele>659.12</ele>
        <time>2022-04-14T11:23:18Z</time>
      </trkpt>
      <trkpt lat="42.2740145680" lon="-0.5590819102">
        <ele>659.60</ele>
        <time>2022-04-14T11:23:32Z</time>
      </trkpt>
      <trkpt lat="42.2741087805" lon="-0.5591524020">
        <ele>660.08</ele>
        <time>2022-04-14T11:23:39Z</time>
      </trkpt>
      <trkpt lat="42.2743255366" lon="-0.5592876859">
        <ele>660.08</ele>
        <time>2022-04-14T11:23:56Z</time>
      </trkpt>
      <trkpt lat="42.2744966112" lon="-0.5593992490">
        <ele>661.52</ele>
        <time>2022-04-14T11:24:11Z</time>
      </trkpt>
      <trkpt lat="42.2745596431" lon="-0.5594660528">
        <ele>659.60</ele>
        <time>2022-04-14T11:24:16Z</time>
      </trkpt>
      <trkpt lat="42.2745795082" lon="-0.5594865046">
        <ele>661.52</ele>
        <time>2022-04-14T11:24:18Z</time>
      </trkpt>
      <trkpt lat="42.2747274488" lon="-0.5596782826">
        <ele>662.01</ele>
        <time>2022-04-14T11:24:34Z</time>
      </trkpt>
      <trkpt lat="42.2748173866" lon="-0.5597911868">
        <ele>662.01</ele>
        <time>2022-04-14T11:24:45Z</time>
      </trkpt>
      <trkpt lat="42.2748967633" lon="-0.5598786101">
        <ele>662.01</ele>
        <time>2022-04-14T11:25:02Z</time>
      </trkpt>
      <trkpt lat="42.2749065701" lon="-0.5598810408">
        <ele>661.04</ele>
        <time>2022-04-14T11:25:08Z</time>
      </trkpt>
      <trkpt lat="42.2749514971" lon="-0.5599405523">
        <ele>662.01</ele>
        <time>2022-04-14T11:25:13Z</time>
      </trkpt>
      <trkpt lat="42.2750899661" lon="-0.5601065140">
        <ele>661.52</ele>
        <time>2022-04-14T11:25:29Z</time>
      </trkpt>
      <trkpt lat="42.2751018684" lon="-0.5601233616">
        <ele>661.52</ele>
        <time>2022-04-14T11:25:30Z</time>
      </trkpt>
      <trkpt lat="42.2752540000" lon="-0.5603053328">
        <ele>661.04</ele>
        <time>2022-04-14T11:25:46Z</time>
      </trkpt>
      <trkpt lat="42.2752942331" lon="-0.5603447277">
        <ele>663.45</ele>
        <time>2022-04-14T11:25:49Z</time>
      </trkpt>
      <trkpt lat="42.2753167804" lon="-0.5603727233">
        <ele>662.01</ele>
        <time>2022-04-14T11:25:51Z</time>
      </trkpt>
      <trkpt lat="42.2754635476" lon="-0.5605154671">
        <ele>662.01</ele>
        <time>2022-04-14T11:26:05Z</time>
      </trkpt>
      <trkpt lat="42.2754979972" lon="-0.5605512578">
        <ele>663.45</ele>
        <time>2022-04-14T11:26:09Z</time>
      </trkpt>
      <trkpt lat="42.2755262442" lon="-0.5605944246">
        <ele>662.01</ele>
        <time>2022-04-14T11:26:13Z</time>
      </trkpt>
      <trkpt lat="42.2756014299" lon="-0.5607130285">
        <ele>663.45</ele>
        <time>2022-04-14T11:26:20Z</time>
      </trkpt>
      <trkpt lat="42.2757296730" lon="-0.5609271023">
        <ele>662.49</ele>
        <time>2022-04-14T11:26:35Z</time>
      </trkpt>
      <trkpt lat="42.2757586744" lon="-0.5610079877">
        <ele>663.45</ele>
        <time>2022-04-14T11:26:42Z</time>
      </trkpt>
      <trkpt lat="42.2758574970" lon="-0.5611578561">
        <ele>662.49</ele>
        <time>2022-04-14T11:26:52Z</time>
      </trkpt>
      <trkpt lat="42.2758633643" lon="-0.5611527432">
        <ele>663.45</ele>
        <time>2022-04-14T11:26:54Z</time>
      </trkpt>
      <trkpt lat="42.2758619394" lon="-0.5611444451">
        <ele>662.49</ele>
        <time>2022-04-14T11:26:58Z</time>
      </trkpt>
      <trkpt lat="42.2758538090" lon="-0.5611454509">
        <ele>659.60</ele>
        <time>2022-04-14T11:27:03Z</time>
      </trkpt>
      <trkpt lat="42.2758528031" lon="-0.5611463729">
        <ele>663.45</ele>
        <time>2022-04-14T11:27:04Z</time>
      </trkpt>
      <trkpt lat="42.2758531384" lon="-0.5611485522">
        <ele>663.45</ele>
        <time>2022-04-14T11:27:05Z</time>
      </trkpt>
      <trkpt lat="42.2759675514" lon="-0.5614161864">
        <ele>662.97</ele>
        <time>2022-04-14T11:27:22Z</time>
      </trkpt>
      <trkpt lat="42.2759947926" lon="-0.5614652205">
        <ele>660.56</ele>
        <time>2022-04-14T11:27:25Z</time>
      </trkpt>
      <trkpt lat="42.2760173399" lon="-0.5614962336">
        <ele>662.49</ele>
        <time>2022-04-14T11:27:27Z</time>
      </trkpt>
      <trkpt lat="42.2760338522" lon="-0.5615251511">
        <ele>664.41</ele>
        <time>2022-04-14T11:27:29Z</time>
      </trkpt>
      <trkpt lat="42.2761837207" lon="-0.5618266482">
        <ele>663.45</ele>
        <time>2022-04-14T11:27:49Z</time>
      </trkpt>
      <trkpt lat="42.2762215231" lon="-0.5618906859">
        <ele>664.41</ele>
        <time>2022-04-14T11:27:53Z</time>
      </trkpt>
      <trkpt lat="42.2763672844" lon="-0.5620954558">
        <ele>664.41</ele>
        <time>2022-04-14T11:28:08Z</time>
      </trkpt>
      <trkpt lat="42.2765334137" lon="-0.5623454042">
        <ele>663.45</ele>
        <time>2022-04-14T11:28:26Z</time>
      </trkpt>
      <trkpt lat="42.2765939310" lon="-0.5624487530">
        <ele>664.89</ele>
        <time>2022-04-14T11:28:33Z</time>
      </trkpt>
      <trkpt lat="42.2767574620" lon="-0.5627041496">
        <ele>663.93</ele>
        <time>2022-04-14T11:28:51Z</time>
      </trkpt>
      <trkpt lat="42.2768769879" lon="-0.5628724582">
        <ele>664.89</ele>
        <time>2022-04-14T11:29:03Z</time>
      </trkpt>
      <trkpt lat="42.2769904789" lon="-0.5630303733">
        <ele>665.85</ele>
        <time>2022-04-14T11:29:14Z</time>
      </trkpt>
      <trkpt lat="42.2770114336" lon="-0.5630566925">
        <ele>663.93</ele>
        <time>2022-04-14T11:29:16Z</time>
      </trkpt>
      <trkpt lat="42.2770515829" lon="-0.5631208140">
        <ele>664.89</ele>
        <time>2022-04-14T11:29:21Z</time>
      </trkpt>
      <trkpt lat="42.2771372460" lon="-0.5632878654">
        <ele>664.41</ele>
        <time>2022-04-14T11:29:32Z</time>
      </trkpt>
      <trkpt lat="42.2772669978" lon="-0.5634709261">
        <ele>663.45</ele>
        <time>2022-04-14T11:29:45Z</time>
      </trkpt>
      <trkpt lat="42.2773453686" lon="-0.5636428390">
        <ele>664.89</ele>
        <time>2022-04-14T11:29:56Z</time>
      </trkpt>
      <trkpt lat="42.2773794830" lon="-0.5637193657">
        <ele>662.49</ele>
        <time>2022-04-14T11:30:00Z</time>
      </trkpt>
      <trkpt lat="42.2774740309" lon="-0.5639972258">
        <ele>662.49</ele>
        <time>2022-04-14T11:30:16Z</time>
      </trkpt>
      <trkpt lat="42.2775662318" lon="-0.5642780196">
        <ele>662.97</ele>
        <time>2022-04-14T11:30:33Z</time>
      </trkpt>
      <trkpt lat="42.2776398249" lon="-0.5644391198">
        <ele>664.89</ele>
        <time>2022-04-14T11:30:43Z</time>
      </trkpt>
      <trkpt lat="42.2776646353" lon="-0.5644901656">
        <ele>662.97</ele>
        <time>2022-04-14T11:30:46Z</time>
      </trkpt>
      <trkpt lat="42.2777518071" lon="-0.5646114517">
        <ele>663.45</ele>
        <time>2022-04-14T11:30:55Z</time>
      </trkpt>
      <trkpt lat="42.2779028490" lon="-0.5648898147">
        <ele>663.45</ele>
        <time>2022-04-14T11:31:14Z</time>
      </trkpt>
      <trkpt lat="42.2780537233" lon="-0.5651583709">
        <ele>662.97</ele>
        <time>2022-04-14T11:31:31Z</time>
      </trkpt>
      <trkpt lat="42.2782027535" lon="-0.5654390808">
        <ele>662.97</ele>
        <time>2022-04-14T11:31:49Z</time>
      </trkpt>
      <trkpt lat="42.2783074435" lon="-0.5656877719">
        <ele>662.49</ele>
        <time>2022-04-14T11:32:05Z</time>
      </trkpt>
      <trkpt lat="42.2784489300" lon="-0.5659510475">
        <ele>663.93</ele>
        <time>2022-04-14T11:32:22Z</time>
      </trkpt>
      <trkpt lat="42.2785236128" lon="-0.5660768598">
        <ele>663.93</ele>
        <time>2022-04-14T11:32:31Z</time>
      </trkpt>
      <trkpt lat="42.2785429750" lon="-0.5661118124">
        <ele>662.97</ele>
        <time>2022-04-14T11:32:33Z</time>
      </trkpt>
      <trkpt lat="42.2787073441" lon="-0.5663701426">
        <ele>661.52</ele>
        <time>2022-04-14T11:32:51Z</time>
      </trkpt>
      <trkpt lat="42.2788164765" lon="-0.5665821210">
        <ele>663.93</ele>
        <time>2022-04-14T11:33:05Z</time>
      </trkpt>
      <trkpt lat="42.2788404487" lon="-0.5666219350">
        <ele>662.01</ele>
        <time>2022-04-14T11:33:08Z</time>
      </trkpt>
      <trkpt lat="42.2788926680" lon="-0.5667075142">
        <ele>663.45</ele>
        <time>2022-04-14T11:33:13Z</time>
      </trkpt>
      <trkpt lat="42.2789173946" lon="-0.5667523574">
        <ele>661.52</ele>
        <time>2022-04-14T11:33:16Z</time>
      </trkpt>
      <trkpt lat="42.2789292131" lon="-0.5667743180">
        <ele>662.97</ele>
        <time>2022-04-14T11:33:18Z</time>
      </trkpt>
      <trkpt lat="42.2790409438" lon="-0.5669927504">
        <ele>663.45</ele>
        <time>2022-04-14T11:33:32Z</time>
      </trkpt>
      <trkpt lat="42.2791752219" lon="-0.5672649108">
        <ele>663.45</ele>
        <time>2022-04-14T11:33:49Z</time>
      </trkpt>
      <trkpt lat="42.2793214023" lon="-0.5675026216">
        <ele>662.49</ele>
        <time>2022-04-14T11:34:06Z</time>
      </trkpt>
      <trkpt lat="42.2794603743" lon="-0.5677700881">
        <ele>663.45</ele>
        <time>2022-04-14T11:34:24Z</time>
      </trkpt>
      <trkpt lat="42.2795710992" lon="-0.5679940525">
        <ele>663.45</ele>
        <time>2022-04-14T11:34:40Z</time>
      </trkpt>
      <trkpt lat="42.2796144336" lon="-0.5680574197">
        <ele>664.89</ele>
        <time>2022-04-14T11:34:44Z</time>
      </trkpt>
      <trkpt lat="42.2797666490" lon="-0.5682432465">
        <ele>664.89</ele>
        <time>2022-04-14T11:34:59Z</time>
      </trkpt>
      <trkpt lat="42.2799787950" lon="-0.5683046859">
        <ele>665.85</ele>
        <time>2022-04-14T11:35:18Z</time>
      </trkpt>
      <trkpt lat="42.2801657952" lon="-0.5684279837">
        <ele>666.33</ele>
        <time>2022-04-14T11:35:33Z</time>
      </trkpt>
      <trkpt lat="42.2803648654" lon="-0.5685977172">
        <ele>667.29</ele>
        <time>2022-04-14T11:35:50Z</time>
      </trkpt>
      <trkpt lat="42.2804179229" lon="-0.5686195940">
        <ele>666.33</ele>
        <time>2022-04-14T11:35:55Z</time>
      </trkpt>
      <trkpt lat="42.2806490958" lon="-0.5687842146">
        <ele>667.29</ele>
        <time>2022-04-14T11:36:15Z</time>
      </trkpt>
      <trkpt lat="42.2806709725" lon="-0.5687991343">
        <ele>668.25</ele>
        <time>2022-04-14T11:36:17Z</time>
      </trkpt>
      <trkpt lat="42.2808956075" lon="-0.5689913314">
        <ele>669.22</ele>
        <time>2022-04-14T11:36:37Z</time>
      </trkpt>
      <trkpt lat="42.2811334021" lon="-0.5691569578">
        <ele>669.70</ele>
        <time>2022-04-14T11:36:56Z</time>
      </trkpt>
      <trkpt lat="42.2813947499" lon="-0.5692770705">
        <ele>672.58</ele>
        <time>2022-04-14T11:37:16Z</time>
      </trkpt>
      <trkpt lat="42.2815602925" lon="-0.5693607219">
        <ele>669.22</ele>
        <time>2022-04-14T11:37:29Z</time>
      </trkpt>
      <trkpt lat="42.2816923074" lon="-0.5694296211">
        <ele>672.10</ele>
        <time>2022-04-14T11:37:41Z</time>
      </trkpt>
      <trkpt lat="42.2817959078" lon="-0.5694932397">
        <ele>671.62</ele>
        <time>2022-04-14T11:37:51Z</time>
      </trkpt>
      <trkpt lat="42.2818195447" lon="-0.5695120990">
        <ele>664.89</ele>
        <time>2022-04-14T11:37:53Z</time>
      </trkpt>
      <trkpt lat="42.2818301059" lon="-0.5695193075">
        <ele>664.89</ele>
        <time>2022-04-14T11:37:54Z</time>
      </trkpt>
      <trkpt lat="42.2818406671" lon="-0.5695259292">
        <ele>677.87</ele>
        <time>2022-04-14T11:37:55Z</time>
      </trkpt>
      <trkpt lat="42.2818581853" lon="-0.5695340596">
        <ele>675.46</ele>
        <time>2022-04-14T11:37:56Z</time>
      </trkpt>
      <trkpt lat="42.2818900365" lon="-0.5695461296">
        <ele>672.10</ele>
        <time>2022-04-14T11:37:58Z</time>
      </trkpt>
      <trkpt lat="42.2819054592" lon="-0.5695521645">
        <ele>671.62</ele>
        <time>2022-04-14T11:37:59Z</time>
      </trkpt>
      <trkpt lat="42.2821481153" lon="-0.5697274301">
        <ele>673.06</ele>
        <time>2022-04-14T11:38:18Z</time>
      </trkpt>
      <trkpt lat="42.2823662963" lon="-0.5698875245">
        <ele>671.62</ele>
        <time>2022-04-14T11:38:38Z</time>
      </trkpt>
      <trkpt lat="42.2825784422" lon="-0.5700057093">
        <ele>672.58</ele>
        <time>2022-04-14T11:38:53Z</time>
      </trkpt>
      <trkpt lat="42.2826223634" lon="-0.5700320285">
        <ele>669.70</ele>
        <time>2022-04-14T11:38:57Z</time>
      </trkpt>
      <trkpt lat="42.2826479282" lon="-0.5700363033">
        <ele>675.94</ele>
        <time>2022-04-14T11:38:59Z</time>
      </trkpt>
      <trkpt lat="42.2826549690" lon="-0.5700403266">
        <ele>674.50</ele>
        <time>2022-04-14T11:39:00Z</time>
      </trkpt>
      <trkpt lat="42.2826822940" lon="-0.5700510554">
        <ele>674.02</ele>
        <time>2022-04-14T11:39:02Z</time>
      </trkpt>
      <trkpt lat="42.2828273848" lon="-0.5701073818">
        <ele>674.50</ele>
        <time>2022-04-14T11:39:12Z</time>
      </trkpt>
      <trkpt lat="42.2830438893" lon="-0.5702010915">
        <ele>675.94</ele>
        <time>2022-04-14T11:39:29Z</time>
      </trkpt>
      <trkpt lat="42.2833097633" lon="-0.5703228805">
        <ele>676.91</ele>
        <time>2022-04-14T11:39:49Z</time>
      </trkpt>
      <trkpt lat="42.2835449595" lon="-0.5704597570">
        <ele>677.39</ele>
        <time>2022-04-14T11:40:08Z</time>
      </trkpt>
      <trkpt lat="42.2836663295" lon="-0.5705225375">
        <ele>673.06</ele>
        <time>2022-04-14T11:40:16Z</time>
      </trkpt>
      <trkpt lat="42.2836767230" lon="-0.5705266446">
        <ele>672.58</ele>
        <time>2022-04-14T11:40:17Z</time>
      </trkpt>
      <trkpt lat="42.2836892959" lon="-0.5705333501">
        <ele>676.42</ele>
        <time>2022-04-14T11:40:18Z</time>
      </trkpt>
      <trkpt lat="42.2837113403" lon="-0.5705456715">
        <ele>678.35</ele>
        <time>2022-04-14T11:40:20Z</time>
      </trkpt>
      <trkpt lat="42.2837633919" lon="-0.5705714040">
        <ele>677.87</ele>
        <time>2022-04-14T11:40:25Z</time>
      </trkpt>
      <trkpt lat="42.2840113286" lon="-0.5707071070">
        <ele>677.39</ele>
        <time>2022-04-14T11:40:45Z</time>
      </trkpt>
      <trkpt lat="42.2840505559" lon="-0.5707370304">
        <ele>678.83</ele>
        <time>2022-04-14T11:40:49Z</time>
      </trkpt>
      <trkpt lat="42.2841309384" lon="-0.5707914289">
        <ele>677.87</ele>
        <time>2022-04-14T11:40:55Z</time>
      </trkpt>
      <trkpt lat="42.2841633763" lon="-0.5708198436">
        <ele>678.83</ele>
        <time>2022-04-14T11:40:58Z</time>
      </trkpt>
      <trkpt lat="42.2843466047" lon="-0.5710184108">
        <ele>674.98</ele>
        <time>2022-04-14T11:41:18Z</time>
      </trkpt>
      <trkpt lat="42.2843770310" lon="-0.5710557103">
        <ele>685.08</ele>
        <time>2022-04-14T11:41:21Z</time>
      </trkpt>
      <trkpt lat="42.2843851615" lon="-0.5710687023">
        <ele>679.79</ele>
        <time>2022-04-14T11:41:22Z</time>
      </trkpt>
      <trkpt lat="42.2845394723" lon="-0.5712849554">
        <ele>680.27</ele>
        <time>2022-04-14T11:41:41Z</time>
      </trkpt>
      <trkpt lat="42.2846419830" lon="-0.5713914894">
        <ele>681.71</ele>
        <time>2022-04-14T11:41:49Z</time>
      </trkpt>
      <trkpt lat="42.2846652009" lon="-0.5714168865">
        <ele>680.27</ele>
        <time>2022-04-14T11:41:51Z</time>
      </trkpt>
      <trkpt lat="42.2847377043" lon="-0.5714855343">
        <ele>681.71</ele>
        <time>2022-04-14T11:41:58Z</time>
      </trkpt>
      <trkpt lat="42.2847643588" lon="-0.5715103447">
        <ele>680.27</ele>
        <time>2022-04-14T11:42:01Z</time>
      </trkpt>
      <trkpt lat="42.2848612536" lon="-0.5715906434">
        <ele>680.75</ele>
        <time>2022-04-14T11:42:09Z</time>
      </trkpt>
      <trkpt lat="42.2850976232" lon="-0.5717441160">
        <ele>683.15</ele>
        <time>2022-04-14T11:42:28Z</time>
      </trkpt>
      <trkpt lat="42.2851262055" lon="-0.5717624724">
        <ele>678.83</ele>
        <time>2022-04-14T11:42:30Z</time>
      </trkpt>
      <trkpt lat="42.2851396166" lon="-0.5717708543">
        <ele>681.23</ele>
        <time>2022-04-14T11:42:31Z</time>
      </trkpt>
      <trkpt lat="42.2851662710" lon="-0.5717857741">
        <ele>683.63</ele>
        <time>2022-04-14T11:42:33Z</time>
      </trkpt>
      <trkpt lat="42.2853930853" lon="-0.5719490536">
        <ele>684.60</ele>
        <time>2022-04-14T11:42:53Z</time>
      </trkpt>
      <trkpt lat="42.2856431175" lon="-0.5721306056">
        <ele>685.08</ele>
        <time>2022-04-14T11:43:14Z</time>
      </trkpt>
      <trkpt lat="42.2856924031" lon="-0.5721614510">
        <ele>686.04</ele>
        <time>2022-04-14T11:43:19Z</time>
      </trkpt>
      <trkpt lat="42.2858016193" lon="-0.5722381454">
        <ele>685.08</ele>
        <time>2022-04-14T11:43:29Z</time>
      </trkpt>
      <trkpt lat="42.2858239152" lon="-0.5722495448">
        <ele>690.36</ele>
        <time>2022-04-14T11:43:31Z</time>
      </trkpt>
      <trkpt lat="42.2858356498" lon="-0.5722563341">
        <ele>688.44</ele>
        <time>2022-04-14T11:43:32Z</time>
      </trkpt>
      <trkpt lat="42.2858609632" lon="-0.5722741876">
        <ele>686.52</ele>
        <time>2022-04-14T11:43:34Z</time>
      </trkpt>
      <trkpt lat="42.2860403359" lon="-0.5724132434">
        <ele>687.48</ele>
        <time>2022-04-14T11:43:50Z</time>
      </trkpt>
      <trkpt lat="42.2862558346" lon="-0.5726065300">
        <ele>688.44</ele>
        <time>2022-04-14T11:44:09Z</time>
      </trkpt>
      <trkpt lat="42.2864365485" lon="-0.5728056002">
        <ele>688.44</ele>
        <time>2022-04-14T11:44:26Z</time>
      </trkpt>
      <trkpt lat="42.2866118141" lon="-0.5729596596">
        <ele>688.44</ele>
        <time>2022-04-14T11:44:43Z</time>
      </trkpt>
      <trkpt lat="42.2867919412" lon="-0.5730658583">
        <ele>688.44</ele>
        <time>2022-04-14T11:44:58Z</time>
      </trkpt>
      <trkpt lat="42.2870079428" lon="-0.5732376035">
        <ele>688.44</ele>
        <time>2022-04-14T11:45:16Z</time>
      </trkpt>
      <trkpt lat="42.2871750779" lon="-0.5733950157">
        <ele>688.44</ele>
        <time>2022-04-14T11:45:32Z</time>
      </trkpt>
      <trkpt lat="42.2873200849" lon="-0.5735122785">
        <ele>688.92</ele>
        <time>2022-04-14T11:45:45Z</time>
      </trkpt>
      <trkpt lat="42.2873454820" lon="-0.5735473987">
        <ele>688.92</ele>
        <time>2022-04-14T11:45:48Z</time>
      </trkpt>
      <trkpt lat="42.2874748148" lon="-0.5736592971">
        <ele>688.92</ele>
        <time>2022-04-14T11:46:00Z</time>
      </trkpt>
      <trkpt lat="42.2876523435" lon="-0.5737822596">
        <ele>688.92</ele>
        <time>2022-04-14T11:46:14Z</time>
      </trkpt>
      <trkpt lat="42.2878360748" lon="-0.5739043839">
        <ele>689.40</ele>
        <time>2022-04-14T11:46:28Z</time>
      </trkpt>
      <trkpt lat="42.2880129330" lon="-0.5739814136">
        <ele>689.88</ele>
        <time>2022-04-14T11:46:42Z</time>
      </trkpt>
      <trkpt lat="42.2882161941" lon="-0.5739987642">
        <ele>690.36</ele>
        <time>2022-04-14T11:46:58Z</time>
      </trkpt>
      <trkpt lat="42.2883114964" lon="-0.5740466248">
        <ele>690.36</ele>
        <time>2022-04-14T11:47:06Z</time>
      </trkpt>
      <trkpt lat="42.2883551661" lon="-0.5740493909">
        <ele>690.84</ele>
        <time>2022-04-14T11:47:11Z</time>
      </trkpt>
      <trkpt lat="42.2884782124" lon="-0.5740961619">
        <ele>692.29</ele>
        <time>2022-04-14T11:47:24Z</time>
      </trkpt>
      <trkpt lat="42.2885063756" lon="-0.5740907136">
        <ele>692.29</ele>
        <time>2022-04-14T11:47:31Z</time>
      </trkpt>
      <trkpt lat="42.2885063756" lon="-0.5741328746">
        <ele>692.29</ele>
        <time>2022-04-14T11:47:34Z</time>
      </trkpt>
      <trkpt lat="42.2886153404" lon="-0.5743040331">
        <ele>692.29</ele>
        <time>2022-04-14T11:47:47Z</time>
      </trkpt>
      <trkpt lat="42.2886859160" lon="-0.5744040292">
        <ele>692.29</ele>
        <time>2022-04-14T11:47:56Z</time>
      </trkpt>
      <trkpt lat="42.2888125665" lon="-0.5745702423">
        <ele>692.77</ele>
        <time>2022-04-14T11:48:09Z</time>
      </trkpt>
      <trkpt lat="42.2889470961" lon="-0.5747117288">
        <ele>693.25</ele>
        <time>2022-04-14T11:48:24Z</time>
      </trkpt>
      <trkpt lat="42.2890977189" lon="-0.5748477671">
        <ele>693.73</ele>
        <time>2022-04-14T11:48:37Z</time>
      </trkpt>
      <trkpt lat="42.2891797777" lon="-0.5748855695">
        <ele>694.21</ele>
        <time>2022-04-14T11:48:44Z</time>
      </trkpt>
      <trkpt lat="42.2893500980" lon="-0.5750078615">
        <ele>694.69</ele>
        <time>2022-04-14T11:49:00Z</time>
      </trkpt>
      <trkpt lat="42.2895077616" lon="-0.5750636011">
        <ele>695.65</ele>
        <time>2022-04-14T11:49:13Z</time>
      </trkpt>
      <trkpt lat="42.2895476595" lon="-0.5750850588">
        <ele>695.65</ele>
        <time>2022-04-14T11:49:16Z</time>
      </trkpt>
      <trkpt lat="42.2897098493" lon="-0.5751619209">
        <ele>696.13</ele>
        <time>2022-04-14T11:49:29Z</time>
      </trkpt>
      <trkpt lat="42.2898576222" lon="-0.5752412137">
        <ele>696.61</ele>
        <time>2022-04-14T11:49:41Z</time>
      </trkpt>
      <trkpt lat="42.2899911460" lon="-0.5752722267">
        <ele>697.09</ele>
        <time>2022-04-14T11:49:52Z</time>
      </trkpt>
      <trkpt lat="42.2901682556" lon="-0.5753457360">
        <ele>697.57</ele>
        <time>2022-04-14T11:50:07Z</time>
      </trkpt>
      <trkpt lat="42.2901758831" lon="-0.5753554590">
        <ele>697.57</ele>
        <time>2022-04-14T11:50:08Z</time>
      </trkpt>
      <trkpt lat="42.2902108356" lon="-0.5753919203">
        <ele>698.05</ele>
        <time>2022-04-14T11:50:11Z</time>
      </trkpt>
      <trkpt lat="42.2903508972" lon="-0.5755825248">
        <ele>699.02</ele>
        <time>2022-04-14T11:50:26Z</time>
      </trkpt>
      <trkpt lat="42.2904571798" lon="-0.5757223349">
        <ele>699.98</ele>
        <time>2022-04-14T11:50:36Z</time>
      </trkpt>
      <trkpt lat="42.2905166913" lon="-0.5757685192">
        <ele>699.98</ele>
        <time>2022-04-14T11:50:41Z</time>
      </trkpt>
      <trkpt lat="42.2905666474" lon="-0.5758012086">
        <ele>699.98</ele>
        <time>2022-04-14T11:50:45Z</time>
      </trkpt>
      <trkpt lat="42.2907544859" lon="-0.5758675095">
        <ele>701.42</ele>
        <time>2022-04-14T11:51:01Z</time>
      </trkpt>
      <trkpt lat="42.2909567412" lon="-0.5759374145">
        <ele>702.38</ele>
        <time>2022-04-14T11:51:16Z</time>
      </trkpt>
      <trkpt lat="42.2911149915" lon="-0.5760588683">
        <ele>703.34</ele>
        <time>2022-04-14T11:51:31Z</time>
      </trkpt>
      <trkpt lat="42.2912604176" lon="-0.5760523304">
        <ele>704.30</ele>
        <time>2022-04-14T11:51:46Z</time>
      </trkpt>
      <trkpt lat="42.2913610842" lon="-0.5759607162">
        <ele>705.26</ele>
        <time>2022-04-14T11:51:59Z</time>
      </trkpt>
      <trkpt lat="42.2914003953" lon="-0.5759015400">
        <ele>705.75</ele>
        <time>2022-04-14T11:52:04Z</time>
      </trkpt>
      <trkpt lat="42.2914234456" lon="-0.5758596305">
        <ele>705.75</ele>
        <time>2022-04-14T11:52:07Z</time>
      </trkpt>
      <trkpt lat="42.2914734017" lon="-0.5757506657">
        <ele>707.67</ele>
        <time>2022-04-14T11:52:14Z</time>
      </trkpt>
      <trkpt lat="42.2915257886" lon="-0.5755989533">
        <ele>707.19</ele>
        <time>2022-04-14T11:52:27Z</time>
      </trkpt>
      <trkpt lat="42.2915390320" lon="-0.5755666830">
        <ele>709.11</ele>
        <time>2022-04-14T11:52:30Z</time>
      </trkpt>
      <trkpt lat="42.2915617470" lon="-0.5754687823">
        <ele>709.59</ele>
        <time>2022-04-14T11:52:36Z</time>
      </trkpt>
      <trkpt lat="42.2916586418" lon="-0.5752547085">
        <ele>709.59</ele>
        <time>2022-04-14T11:52:53Z</time>
      </trkpt>
      <trkpt lat="42.2916831169" lon="-0.5752288923">
        <ele>710.07</ele>
        <time>2022-04-14T11:52:56Z</time>
      </trkpt>
      <trkpt lat="42.2917427961" lon="-0.5752171576">
        <ele>710.07</ele>
        <time>2022-04-14T11:53:03Z</time>
      </trkpt>
      <trkpt lat="42.2918591369" lon="-0.5751174130">
        <ele>712.47</ele>
        <time>2022-04-14T11:53:15Z</time>
      </trkpt>
      <trkpt lat="42.2918656748" lon="-0.5751097016">
        <ele>711.03</ele>
        <time>2022-04-14T11:53:16Z</time>
      </trkpt>
      <trkpt lat="42.2918887250" lon="-0.5750716478">
        <ele>711.03</ele>
        <time>2022-04-14T11:53:22Z</time>
      </trkpt>
      <trkpt lat="42.2919018008" lon="-0.5750646908">
        <ele>711.03</ele>
        <time>2022-04-14T11:53:23Z</time>
      </trkpt>
      <trkpt lat="42.2919859551" lon="-0.5749156605">
        <ele>712.47</ele>
        <time>2022-04-14T11:53:31Z</time>
      </trkpt>
      <trkpt lat="42.2920218296" lon="-0.5747957155">
        <ele>712.47</ele>
        <time>2022-04-14T11:53:38Z</time>
      </trkpt>
      <trkpt lat="42.2920454666" lon="-0.5747478548">
        <ele>712.95</ele>
        <time>2022-04-14T11:53:41Z</time>
      </trkpt>
      <trkpt lat="42.2921473905" lon="-0.5746144149">
        <ele>714.40</ele>
        <time>2022-04-14T11:53:55Z</time>
      </trkpt>
      <trkpt lat="42.2922362387" lon="-0.5744787958">
        <ele>715.36</ele>
        <time>2022-04-14T11:54:05Z</time>
      </trkpt>
      <trkpt lat="42.2922897991" lon="-0.5744489562">
        <ele>715.36</ele>
        <time>2022-04-14T11:54:10Z</time>
      </trkpt>
      <trkpt lat="42.2923265118" lon="-0.5743851699">
        <ele>715.84</ele>
        <time>2022-04-14T11:54:15Z</time>
      </trkpt>
      <trkpt lat="42.2923352290" lon="-0.5743712559">
        <ele>716.32</ele>
        <time>2022-04-14T11:54:16Z</time>
      </trkpt>
      <trkpt lat="42.2924058046" lon="-0.5742539093">
        <ele>717.28</ele>
        <time>2022-04-14T11:54:23Z</time>
      </trkpt>
      <trkpt lat="42.2924172040" lon="-0.5741691682">
        <ele>717.28</ele>
        <time>2022-04-14T11:54:28Z</time>
      </trkpt>
      <trkpt lat="42.2925026156" lon="-0.5740293581">
        <ele>718.24</ele>
        <time>2022-04-14T11:54:40Z</time>
      </trkpt>
      <trkpt lat="42.2925714310" lon="-0.5738428608">
        <ele>720.65</ele>
        <time>2022-04-14T11:54:53Z</time>
      </trkpt>
      <trkpt lat="42.2926114127" lon="-0.5737184733">
        <ele>721.61</ele>
        <time>2022-04-14T11:55:06Z</time>
      </trkpt>
      <trkpt lat="42.2927068826" lon="-0.5736398511">
        <ele>723.05</ele>
        <time>2022-04-14T11:55:19Z</time>
      </trkpt>
      <trkpt lat="42.2928269953" lon="-0.5736147054">
        <ele>724.01</ele>
        <time>2022-04-14T11:55:30Z</time>
      </trkpt>
      <trkpt lat="42.2929145861" lon="-0.5735660903">
        <ele>724.49</ele>
        <time>2022-04-14T11:55:40Z</time>
      </trkpt>
      <trkpt lat="42.2930914443" lon="-0.5734516773">
        <ele>725.93</ele>
        <time>2022-04-14T11:55:50Z</time>
      </trkpt>
      <trkpt lat="42.2931369580" lon="-0.5734236818">
        <ele>726.41</ele>
        <time>2022-04-14T11:55:53Z</time>
      </trkpt>
      <trkpt lat="42.2932923585" lon="-0.5734536890">
        <ele>726.89</ele>
        <time>2022-04-14T11:56:04Z</time>
      </trkpt>
      <trkpt lat="42.2933003213" lon="-0.5734580476">
        <ele>726.89</ele>
        <time>2022-04-14T11:56:05Z</time>
      </trkpt>
      <trkpt lat="42.2934065200" lon="-0.5735811777">
        <ele>726.89</ele>
        <time>2022-04-14T11:56:19Z</time>
      </trkpt>
      <trkpt lat="42.2934463341" lon="-0.5736511666">
        <ele>726.89</ele>
        <time>2022-04-14T11:56:26Z</time>
      </trkpt>
      <trkpt lat="42.2934862319" lon="-0.5737318005">
        <ele>726.89</ele>
        <time>2022-04-14T11:56:31Z</time>
      </trkpt>
      <trkpt lat="42.2936433926" lon="-0.5740730278">
        <ele>726.89</ele>
        <time>2022-04-14T11:56:48Z</time>
      </trkpt>
      <trkpt lat="42.2937951889" lon="-0.5742287636">
        <ele>726.89</ele>
        <time>2022-04-14T11:57:03Z</time>
      </trkpt>
      <trkpt lat="42.2938889824" lon="-0.5743181147">
        <ele>726.89</ele>
        <time>2022-04-14T11:57:13Z</time>
      </trkpt>
      <trkpt lat="42.2940693609" lon="-0.5744948890">
        <ele>727.86</ele>
        <time>2022-04-14T11:57:29Z</time>
      </trkpt>
      <trkpt lat="42.2942090873" lon="-0.5746327713">
        <ele>727.86</ele>
        <time>2022-04-14T11:57:42Z</time>
      </trkpt>
      <trkpt lat="42.2943519987" lon="-0.5747954641">
        <ele>727.86</ele>
        <time>2022-04-14T11:57:56Z</time>
      </trkpt>
      <trkpt lat="42.2945305333" lon="-0.5749309156">
        <ele>727.86</ele>
        <time>2022-04-14T11:58:11Z</time>
      </trkpt>
      <trkpt lat="42.2946580220" lon="-0.5750139803">
        <ele>727.86</ele>
        <time>2022-04-14T11:58:22Z</time>
      </trkpt>
      <trkpt lat="42.2947021946" lon="-0.5750316661">
        <ele>727.86</ele>
        <time>2022-04-14T11:58:25Z</time>
      </trkpt>
      <trkpt lat="42.2947980836" lon="-0.5750828795">
        <ele>727.86</ele>
        <time>2022-04-14T11:58:31Z</time>
      </trkpt>
      <trkpt lat="42.2948319465" lon="-0.5751167424">
        <ele>727.86</ele>
        <time>2022-04-14T11:58:34Z</time>
      </trkpt>
      <trkpt lat="42.2949173581" lon="-0.5751576461">
        <ele>727.86</ele>
        <time>2022-04-14T11:58:42Z</time>
      </trkpt>
      <trkpt lat="42.2950450983" lon="-0.5752884038">
        <ele>727.86</ele>
        <time>2022-04-14T11:58:56Z</time>
      </trkpt>
      <trkpt lat="42.2951033525" lon="-0.5753218476">
        <ele>727.86</ele>
        <time>2022-04-14T11:59:00Z</time>
      </trkpt>
      <trkpt lat="42.2951926198" lon="-0.5753931776">
        <ele>728.34</ele>
        <time>2022-04-14T11:59:07Z</time>
      </trkpt>
      <trkpt lat="42.2953455057" lon="-0.5755051598">
        <ele>728.34</ele>
        <time>2022-04-14T11:59:20Z</time>
      </trkpt>
      <trkpt lat="42.2954346053" lon="-0.5755875539">
        <ele>728.34</ele>
        <time>2022-04-14T11:59:28Z</time>
      </trkpt>
      <trkpt lat="42.2954862379" lon="-0.5756286252">
        <ele>726.89</ele>
        <time>2022-04-14T11:59:32Z</time>
      </trkpt>
      <trkpt lat="42.2956652753" lon="-0.5757757276">
        <ele>726.89</ele>
        <time>2022-04-14T11:59:47Z</time>
      </trkpt>
      <trkpt lat="42.2957250383" lon="-0.5758221634">
        <ele>726.89</ele>
        <time>2022-04-14T11:59:52Z</time>
      </trkpt>
      <trkpt lat="42.2958812770" lon="-0.5759520829">
        <ele>726.89</ele>
        <time>2022-04-14T12:00:06Z</time>
      </trkpt>
      <trkpt lat="42.2959062550" lon="-0.5759815872">
        <ele>726.89</ele>
        <time>2022-04-14T12:00:08Z</time>
      </trkpt>
      <trkpt lat="42.2960316483" lon="-0.5761341378">
        <ele>726.89</ele>
        <time>2022-04-14T12:00:23Z</time>
      </trkpt>
      <trkpt lat="42.2960871365" lon="-0.5761858542">
        <ele>726.89</ele>
        <time>2022-04-14T12:00:27Z</time>
      </trkpt>
      <trkpt lat="42.2962016333" lon="-0.5762532447">
        <ele>728.34</ele>
        <time>2022-04-14T12:00:37Z</time>
      </trkpt>
      <trkpt lat="42.2962416150" lon="-0.5762312002">
        <ele>723.53</ele>
        <time>2022-04-14T12:00:48Z</time>
      </trkpt>
      <trkpt lat="42.2962414473" lon="-0.5762328766">
        <ele>728.34</ele>
        <time>2022-04-14T12:00:49Z</time>
      </trkpt>
      <trkpt lat="42.2962422017" lon="-0.5762329604">
        <ele>728.34</ele>
        <time>2022-04-14T12:00:50Z</time>
      </trkpt>
      <trkpt lat="42.2962443810" lon="-0.5762388278">
        <ele>726.89</ele>
        <time>2022-04-14T12:00:59Z</time>
      </trkpt>
      <trkpt lat="42.2962517571" lon="-0.5762207229">
        <ele>727.86</ele>
        <time>2022-04-14T12:01:28Z</time>
      </trkpt>
      <trkpt lat="42.2962437104" lon="-0.5762348045">
        <ele>728.82</ele>
        <time>2022-04-14T12:02:03Z</time>
      </trkpt>
      <trkpt lat="42.2962453030" lon="-0.5762274284">
        <ele>726.89</ele>
        <time>2022-04-14T12:02:09Z</time>
      </trkpt>
      <trkpt lat="42.2962380946" lon="-0.5762224831">
        <ele>728.34</ele>
        <time>2022-04-14T12:02:15Z</time>
      </trkpt>
      <trkpt lat="42.2962310538" lon="-0.5762648955">
        <ele>728.34</ele>
        <time>2022-04-14T12:02:48Z</time>
      </trkpt>
      <trkpt lat="42.2962245997" lon="-0.5762407556">
        <ele>728.34</ele>
        <time>2022-04-14T12:03:24Z</time>
      </trkpt>
      <trkpt lat="42.2962161340" lon="-0.5762329604">
        <ele>728.82</ele>
        <time>2022-04-14T12:03:57Z</time>
      </trkpt>
      <trkpt lat="42.2962239292" lon="-0.5762397498">
        <ele>727.37</ele>
        <time>2022-04-14T12:04:15Z</time>
      </trkpt>
      <trkpt lat="42.2962326463" lon="-0.5762399174">
        <ele>728.82</ele>
        <time>2022-04-14T12:04:18Z</time>
      </trkpt>
      <trkpt lat="42.2962459736" lon="-0.5762381572">
        <ele>726.89</ele>
        <time>2022-04-14T12:04:22Z</time>
      </trkpt>
      <trkpt lat="42.2962508351" lon="-0.5762318708">
        <ele>728.34</ele>
        <time>2022-04-14T12:04:24Z</time>
      </trkpt>
      <trkpt lat="42.2962601390" lon="-0.5762623809">
        <ele>722.57</ele>
        <time>2022-04-14T12:04:48Z</time>
      </trkpt>
      <trkpt lat="42.2962634079" lon="-0.5762638897">
        <ele>706.71</ele>
        <time>2022-04-14T12:04:49Z</time>
      </trkpt>
      <trkpt lat="42.2962690238" lon="-0.5762645602">
        <ele>719.68</ele>
        <time>2022-04-14T12:04:50Z</time>
      </trkpt>
      <trkpt lat="42.2962737177" lon="-0.5762652308">
        <ele>726.89</ele>
        <time>2022-04-14T12:04:51Z</time>
      </trkpt>
      <trkpt lat="42.2962757293" lon="-0.5762668233">
        <ele>726.89</ele>
        <time>2022-04-14T12:04:52Z</time>
      </trkpt>
      <trkpt lat="42.2962758970" lon="-0.5762660690">
        <ele>731.22</ele>
        <time>2022-04-14T12:04:53Z</time>
      </trkpt>
      <trkpt lat="42.2962748911" lon="-0.5762656499">
        <ele>731.22</ele>
        <time>2022-04-14T12:04:54Z</time>
      </trkpt>
      <trkpt lat="42.2962724604" lon="-0.5762653984">
        <ele>725.93</ele>
        <time>2022-04-14T12:04:55Z</time>
      </trkpt>
      <trkpt lat="42.2962692752" lon="-0.5762645602">
        <ele>727.86</ele>
        <time>2022-04-14T12:04:56Z</time>
      </trkpt>
      <trkpt lat="42.2962623183" lon="-0.5762776360">
        <ele>726.89</ele>
        <time>2022-04-14T12:05:00Z</time>
      </trkpt>
      <trkpt lat="42.2962531820" lon="-0.5762635544">
        <ele>727.86</ele>
        <time>2022-04-14T12:05:04Z</time>
      </trkpt>
      <trkpt lat="42.2962537687" lon="-0.5762590282">
        <ele>733.62</ele>
        <time>2022-04-14T12:05:05Z</time>
      </trkpt>
      <trkpt lat="42.2962473985" lon="-0.5762539990">
        <ele>749.97</ele>
        <time>2022-04-14T12:05:06Z</time>
      </trkpt>
      <trkpt lat="42.2962489910" lon="-0.5762356427">
        <ele>735.55</ele>
        <time>2022-04-14T12:05:07Z</time>
      </trkpt>
      <trkpt lat="42.2962551937" lon="-0.5762183759">
        <ele>729.78</ele>
        <time>2022-04-14T12:05:08Z</time>
      </trkpt>
      <trkpt lat="42.2962505836" lon="-0.5762456171">
        <ele>727.86</ele>
        <time>2022-04-14T12:05:46Z</time>
      </trkpt>
      <trkpt lat="42.2962168045" lon="-0.5762352236">
        <ele>728.82</ele>
        <time>2022-04-14T12:06:16Z</time>
      </trkpt>
      <trkpt lat="42.2962240130" lon="-0.5761364847">
        <ele>727.37</ele>
        <time>2022-04-14T12:06:38Z</time>
      </trkpt>
      <trkpt lat="42.2962327302" lon="-0.5761340540">
        <ele>728.82</ele>
        <time>2022-04-14T12:06:40Z</time>
      </trkpt>
      <trkpt lat="42.2962282877" lon="-0.5762449466">
        <ele>725.45</ele>
        <time>2022-04-14T12:07:02Z</time>
      </trkpt>
      <trkpt lat="42.2962296288" lon="-0.5762452818">
        <ele>725.45</ele>
        <time>2022-04-14T12:07:03Z</time>
      </trkpt>
      <trkpt lat="42.2962315567" lon="-0.5762444437">
        <ele>733.14</ele>
        <time>2022-04-14T12:07:04Z</time>
      </trkpt>
      <trkpt lat="42.2962369211" lon="-0.5762434378">
        <ele>731.70</ele>
        <time>2022-04-14T12:07:05Z</time>
      </trkpt>
      <trkpt lat="42.2962337360" lon="-0.5762309488">
        <ele>729.30</ele>
        <time>2022-04-14T12:07:08Z</time>
      </trkpt>
      <trkpt lat="42.2962163016" lon="-0.5762581062">
        <ele>728.34</ele>
        <time>2022-04-14T12:07:38Z</time>
      </trkpt>
      <trkpt lat="42.2962297127" lon="-0.5762596987">
        <ele>728.34</ele>
        <time>2022-04-14T12:08:14Z</time>
      </trkpt>
      <trkpt lat="42.2962788306" lon="-0.5762607884">
        <ele>722.09</ele>
        <time>2022-04-14T12:08:33Z</time>
      </trkpt>
      <trkpt lat="42.2962733824" lon="-0.5762656499">
        <ele>736.51</ele>
        <time>2022-04-14T12:08:34Z</time>
      </trkpt>
      <trkpt lat="42.2962648328" lon="-0.5762696732">
        <ele>731.22</ele>
        <time>2022-04-14T12:08:35Z</time>
      </trkpt>
      <trkpt lat="42.2962756455" lon="-0.5762723554">
        <ele>728.82</ele>
        <time>2022-04-14T12:08:47Z</time>
      </trkpt>
      <trkpt lat="42.2963996138" lon="-0.5763854273">
        <ele>731.22</ele>
        <time>2022-04-14T12:09:00Z</time>
      </trkpt>
      <trkpt lat="42.2964131087" lon="-0.5763931386">
        <ele>731.22</ele>
        <time>2022-04-14T12:09:01Z</time>
      </trkpt>
      <trkpt lat="42.2965774778" lon="-0.5764883570">
        <ele>724.01</ele>
        <time>2022-04-14T12:09:15Z</time>
      </trkpt>
      <trkpt lat="42.2965862788" lon="-0.5764936376">
        <ele>733.62</ele>
        <time>2022-04-14T12:09:16Z</time>
      </trkpt>
      <trkpt lat="42.2965929005" lon="-0.5765001755">
        <ele>729.78</ele>
        <time>2022-04-14T12:09:17Z</time>
      </trkpt>
      <trkpt lat="42.2966289427" lon="-0.5765253212">
        <ele>730.26</ele>
        <time>2022-04-14T12:09:22Z</time>
      </trkpt>
      <trkpt lat="42.2968161106" lon="-0.5766458530">
        <ele>731.22</ele>
        <time>2022-04-14T12:09:38Z</time>
      </trkpt>
      <trkpt lat="42.2969477065" lon="-0.5767053645">
        <ele>731.70</ele>
        <time>2022-04-14T12:09:50Z</time>
      </trkpt>
      <trkpt lat="42.2971513029" lon="-0.5767303426">
        <ele>731.70</ele>
        <time>2022-04-14T12:10:03Z</time>
      </trkpt>
      <trkpt lat="42.2972035222" lon="-0.5767352879">
        <ele>731.70</ele>
        <time>2022-04-14T12:10:07Z</time>
      </trkpt>
      <trkpt lat="42.2972768638" lon="-0.5767588411">
        <ele>731.70</ele>
        <time>2022-04-14T12:10:12Z</time>
      </trkpt>
      <trkpt lat="42.2973061167" lon="-0.5767892674">
        <ele>731.70</ele>
        <time>2022-04-14T12:10:15Z</time>
      </trkpt>
      <trkpt lat="42.2974476032" lon="-0.5769132357">
        <ele>732.66</ele>
        <time>2022-04-14T12:10:29Z</time>
      </trkpt>
      <trkpt lat="42.2975944541" lon="-0.5770307500">
        <ele>732.66</ele>
        <time>2022-04-14T12:10:43Z</time>
      </trkpt>
      <trkpt lat="42.2976341005" lon="-0.5770482682">
        <ele>732.66</ele>
        <time>2022-04-14T12:10:47Z</time>
      </trkpt>
      <trkpt lat="42.2978384513" lon="-0.5771171674">
        <ele>733.62</ele>
        <time>2022-04-14T12:11:02Z</time>
      </trkpt>
      <trkpt lat="42.2979874816" lon="-0.5771957897">
        <ele>733.62</ele>
        <time>2022-04-14T12:11:13Z</time>
      </trkpt>
      <trkpt lat="42.2980609071" lon="-0.5772088654">
        <ele>733.62</ele>
        <time>2022-04-14T12:11:17Z</time>
      </trkpt>
      <trkpt lat="42.2981023975" lon="-0.5772158224">
        <ele>733.62</ele>
        <time>2022-04-14T12:11:20Z</time>
      </trkpt>
      <trkpt lat="42.2983057424" lon="-0.5773506034">
        <ele>733.62</ele>
        <time>2022-04-14T12:11:35Z</time>
      </trkpt>
      <trkpt lat="42.2983519267" lon="-0.5773889925">
        <ele>732.66</ele>
        <time>2022-04-14T12:11:42Z</time>
      </trkpt>
      <trkpt lat="42.2983645834" lon="-0.5773970392">
        <ele>732.66</ele>
        <time>2022-04-14T12:11:47Z</time>
      </trkpt>
      <trkpt lat="42.2985299584" lon="-0.5774568859">
        <ele>733.62</ele>
        <time>2022-04-14T12:12:00Z</time>
      </trkpt>
      <trkpt lat="42.2985504940" lon="-0.5774509348">
        <ele>733.62</ele>
        <time>2022-04-14T12:12:02Z</time>
      </trkpt>
      <trkpt lat="42.2986934893" lon="-0.5774630886">
        <ele>733.62</ele>
        <time>2022-04-14T12:12:14Z</time>
      </trkpt>
      <trkpt lat="42.2987469658" lon="-0.5774644297">
        <ele>727.86</ele>
        <time>2022-04-14T12:12:20Z</time>
      </trkpt>
      <trkpt lat="42.2987575270" lon="-0.5774702132">
        <ele>737.47</ele>
        <time>2022-04-14T12:12:21Z</time>
      </trkpt>
      <trkpt lat="42.2987650707" lon="-0.5774817802">
        <ele>724.49</ele>
        <time>2022-04-14T12:12:22Z</time>
      </trkpt>
      <trkpt lat="42.2987722792" lon="-0.5774934310">
        <ele>724.49</ele>
        <time>2022-04-14T12:12:23Z</time>
      </trkpt>
      <trkpt lat="42.2987903841" lon="-0.5775112007">
        <ele>747.08</ele>
        <time>2022-04-14T12:12:25Z</time>
      </trkpt>
      <trkpt lat="42.2988082375" lon="-0.5775134638">
        <ele>744.20</ele>
        <time>2022-04-14T12:12:26Z</time>
      </trkpt>
      <trkpt lat="42.2988420166" lon="-0.5774955265">
        <ele>734.10</ele>
        <time>2022-04-14T12:12:27Z</time>
      </trkpt>
      <trkpt lat="42.2988716885" lon="-0.5774785951">
        <ele>736.51</ele>
        <time>2022-04-14T12:12:28Z</time>
      </trkpt>
      <trkpt lat="42.2989747860" lon="-0.5774517730">
        <ele>733.62</ele>
        <time>2022-04-14T12:12:34Z</time>
      </trkpt>
      <trkpt lat="42.2990430146" lon="-0.5774387810">
        <ele>734.58</ele>
        <time>2022-04-14T12:12:38Z</time>
      </trkpt>
      <trkpt lat="42.2992342059" lon="-0.5775293056">
        <ele>734.58</ele>
        <time>2022-04-14T12:12:55Z</time>
      </trkpt>
      <trkpt lat="42.2992361337" lon="-0.5775356758">
        <ele>734.58</ele>
        <time>2022-04-14T12:12:58Z</time>
      </trkpt>
      <trkpt lat="42.2992025223" lon="-0.5775278807">
        <ele>733.14</ele>
        <time>2022-04-14T12:13:09Z</time>
      </trkpt>
      <trkpt lat="42.2994180210" lon="-0.5777676869">
        <ele>733.14</ele>
        <time>2022-04-14T12:13:28Z</time>
      </trkpt>
      <trkpt lat="42.2994742636" lon="-0.5778494943">
        <ele>735.55</ele>
        <time>2022-04-14T12:13:35Z</time>
      </trkpt>
      <trkpt lat="42.2995298356" lon="-0.5778473988">
        <ele>734.10</ele>
        <time>2022-04-14T12:13:40Z</time>
      </trkpt>
      <trkpt lat="42.2996315081" lon="-0.5778312217">
        <ele>735.55</ele>
        <time>2022-04-14T12:13:50Z</time>
      </trkpt>
      <trkpt lat="42.2997240443" lon="-0.5778437946">
        <ele>738.43</ele>
        <time>2022-04-14T12:14:01Z</time>
      </trkpt>
      <trkpt lat="42.2998434864" lon="-0.5778981093">
        <ele>741.31</ele>
        <time>2022-04-14T12:14:13Z</time>
      </trkpt>
      <trkpt lat="42.2999487631" lon="-0.5779200699">
        <ele>742.76</ele>
        <time>2022-04-14T12:14:24Z</time>
      </trkpt>
      <trkpt lat="42.2999832965" lon="-0.5779079162">
        <ele>744.20</ele>
        <time>2022-04-14T12:14:39Z</time>
      </trkpt>
      <trkpt lat="42.2999524511" lon="-0.5779024679">
        <ele>744.20</ele>
        <time>2022-04-14T12:14:42Z</time>
      </trkpt>
      <trkpt lat="42.2999397106" lon="-0.5779184774">
        <ele>744.20</ele>
        <time>2022-04-14T12:14:45Z</time>
      </trkpt>
      <trkpt lat="42.2999930196" lon="-0.5779779050">
        <ele>744.20</ele>
        <time>2022-04-14T12:14:53Z</time>
      </trkpt>
      <trkpt lat="42.3000585660" lon="-0.5779987760">
        <ele>745.16</ele>
        <time>2022-04-14T12:15:00Z</time>
      </trkpt>
      <trkpt lat="42.3001266271" lon="-0.5779690202">
        <ele>746.12</ele>
        <time>2022-04-14T12:15:07Z</time>
      </trkpt>
      <trkpt lat="42.3001497611" lon="-0.5779012945">
        <ele>746.12</ele>
        <time>2022-04-14T12:15:15Z</time>
      </trkpt>
      <trkpt lat="42.3003422935" lon="-0.5777826067">
        <ele>746.60</ele>
        <time>2022-04-14T12:15:32Z</time>
      </trkpt>
      <trkpt lat="42.3005415313" lon="-0.5776564591">
        <ele>747.56</ele>
        <time>2022-04-14T12:15:49Z</time>
      </trkpt>
      <trkpt lat="42.3007025477" lon="-0.5775384419">
        <ele>748.04</ele>
        <time>2022-04-14T12:16:03Z</time>
      </trkpt>
      <trkpt lat="42.3009188846" lon="-0.5774171557">
        <ele>749.97</ele>
        <time>2022-04-14T12:16:22Z</time>
      </trkpt>
      <trkpt lat="42.3010716029" lon="-0.5772937741">
        <ele>751.41</ele>
        <time>2022-04-14T12:16:36Z</time>
      </trkpt>
      <trkpt lat="42.3011225648" lon="-0.5773121305">
        <ele>752.37</ele>
        <time>2022-04-14T12:16:42Z</time>
      </trkpt>
      <trkpt lat="42.3012792226" lon="-0.5776007194">
        <ele>754.77</ele>
        <time>2022-04-14T12:17:03Z</time>
      </trkpt>
      <trkpt lat="42.3014352936" lon="-0.5778226722">
        <ele>755.25</ele>
        <time>2022-04-14T12:17:20Z</time>
      </trkpt>
      <trkpt lat="42.3016123194" lon="-0.5779990274">
        <ele>756.21</ele>
        <time>2022-04-14T12:17:37Z</time>
      </trkpt>
      <trkpt lat="42.3018540535" lon="-0.5781100877">
        <ele>757.18</ele>
        <time>2022-04-14T12:17:56Z</time>
      </trkpt>
      <trkpt lat="42.3021102883" lon="-0.5782588664">
        <ele>758.14</ele>
        <time>2022-04-14T12:18:16Z</time>
      </trkpt>
      <trkpt lat="42.3023321573" lon="-0.5782037135">
        <ele>759.58</ele>
        <time>2022-04-14T12:18:34Z</time>
      </trkpt>
      <trkpt lat="42.3025730532" lon="-0.5781118479">
        <ele>761.50</ele>
        <time>2022-04-14T12:18:53Z</time>
      </trkpt>
      <trkpt lat="42.3027018830" lon="-0.5780882947">
        <ele>762.94</ele>
        <time>2022-04-14T12:19:03Z</time>
      </trkpt>
      <trkpt lat="42.3027648311" lon="-0.5781629775">
        <ele>763.42</ele>
        <time>2022-04-14T12:19:10Z</time>
      </trkpt>
      <trkpt lat="42.3029113468" lon="-0.5784778018">
        <ele>763.90</ele>
        <time>2022-04-14T12:19:30Z</time>
      </trkpt>
      <trkpt lat="42.3030678369" lon="-0.5787696596">
        <ele>763.90</ele>
        <time>2022-04-14T12:19:50Z</time>
      </trkpt>
      <trkpt lat="42.3032388277" lon="-0.5790073704">
        <ele>764.87</ele>
        <time>2022-04-14T12:20:07Z</time>
      </trkpt>
      <trkpt lat="42.3033589404" lon="-0.5791313387">
        <ele>765.35</ele>
        <time>2022-04-14T12:20:18Z</time>
      </trkpt>
      <trkpt lat="42.3033748660" lon="-0.5791403912">
        <ele>765.35</ele>
        <time>2022-04-14T12:20:22Z</time>
      </trkpt>
      <trkpt lat="42.3033910431" lon="-0.5792221148">
        <ele>765.83</ele>
        <time>2022-04-14T12:20:28Z</time>
      </trkpt>
      <trkpt lat="42.3033762909" lon="-0.5792530440">
        <ele>765.83</ele>
        <time>2022-04-14T12:20:31Z</time>
      </trkpt>
      <trkpt lat="42.3033788893" lon="-0.5793809518">
        <ele>765.83</ele>
        <time>2022-04-14T12:20:39Z</time>
      </trkpt>
      <trkpt lat="42.3033902049" lon="-0.5794467498">
        <ele>765.83</ele>
        <time>2022-04-14T12:20:43Z</time>
      </trkpt>
      <trkpt lat="42.3034149315" lon="-0.5796932615">
        <ele>763.90</ele>
        <time>2022-04-14T12:20:57Z</time>
      </trkpt>
      <trkpt lat="42.3034934700" lon="-0.5797808524">
        <ele>763.90</ele>
        <time>2022-04-14T12:21:05Z</time>
      </trkpt>
      <trkpt lat="42.3035979923" lon="-0.5799053237">
        <ele>763.90</ele>
        <time>2022-04-14T12:21:14Z</time>
      </trkpt>
      <trkpt lat="42.3036421649" lon="-0.5799582135">
        <ele>763.90</ele>
        <time>2022-04-14T12:21:20Z</time>
      </trkpt>
      <trkpt lat="42.3036304303" lon="-0.5800419487">
        <ele>763.90</ele>
        <time>2022-04-14T12:21:36Z</time>
      </trkpt>
      <trkpt lat="42.3036619462" lon="-0.5801420286">
        <ele>763.90</ele>
        <time>2022-04-14T12:22:07Z</time>
      </trkpt>
      <trkpt lat="42.3036697414" lon="-0.5801303778">
        <ele>763.90</ele>
        <time>2022-04-14T12:22:40Z</time>
      </trkpt>
      <trkpt lat="42.3036907800" lon="-0.5801530089">
        <ele>764.87</ele>
        <time>2022-04-14T12:23:15Z</time>
      </trkpt>
      <trkpt lat="42.3036841583" lon="-0.5801369995">
        <ele>765.35</ele>
        <time>2022-04-14T12:23:50Z</time>
      </trkpt>
      <trkpt lat="42.3036677297" lon="-0.5801402684">
        <ele>766.79</ele>
        <time>2022-04-14T12:23:58Z</time>
      </trkpt>
      <trkpt lat="42.3036664724" lon="-0.5801559426">
        <ele>765.83</ele>
        <time>2022-04-14T12:24:18Z</time>
      </trkpt>
      <trkpt lat="42.3036768660" lon="-0.5801767297">
        <ele>766.31</ele>
        <time>2022-04-14T12:24:43Z</time>
      </trkpt>
      <trkpt lat="42.3036595993" lon="-0.5802136101">
        <ele>766.31</ele>
        <time>2022-04-14T12:25:06Z</time>
      </trkpt>
      <trkpt lat="42.3036772851" lon="-0.5802205671">
        <ele>766.79</ele>
        <time>2022-04-14T12:25:36Z</time>
      </trkpt>
      <trkpt lat="42.3036826495" lon="-0.5802219082">
        <ele>766.79</ele>
        <time>2022-04-14T12:25:55Z</time>
      </trkpt>
      <trkpt lat="42.3036455177" lon="-0.5802087486">
        <ele>766.79</ele>
        <time>2022-04-14T12:26:30Z</time>
      </trkpt>
      <trkpt lat="42.3036086373" lon="-0.5801899731">
        <ele>766.79</ele>
        <time>2022-04-14T12:27:06Z</time>
      </trkpt>
      <trkpt lat="42.3036472779" lon="-0.5801779870">
        <ele>766.79</ele>
        <time>2022-04-14T12:27:39Z</time>
      </trkpt>
      <trkpt lat="42.3036285862" lon="-0.5802056473">
        <ele>766.79</ele>
        <time>2022-04-14T12:28:04Z</time>
      </trkpt>
      <trkpt lat="42.3036449309" lon="-0.5802069046">
        <ele>766.31</ele>
        <time>2022-04-14T12:28:38Z</time>
      </trkpt>
      <trkpt lat="42.3036899418" lon="-0.5802036356">
        <ele>766.79</ele>
        <time>2022-04-14T12:29:06Z</time>
      </trkpt>
      <trkpt lat="42.3036442604" lon="-0.5801779032">
        <ele>766.79</ele>
        <time>2022-04-14T12:29:36Z</time>
      </trkpt>
      <trkpt lat="42.3036282510" lon="-0.5801151227">
        <ele>766.79</ele>
        <time>2022-04-14T12:30:17Z</time>
      </trkpt>
      <trkpt lat="42.3036057036" lon="-0.5800898094">
        <ele>767.27</ele>
        <time>2022-04-14T12:30:54Z</time>
      </trkpt>
      <trkpt lat="42.3036261555" lon="-0.5801505782">
        <ele>767.27</ele>
        <time>2022-04-14T12:31:33Z</time>
      </trkpt>
      <trkpt lat="42.3036422487" lon="-0.5802022945">
        <ele>767.27</ele>
        <time>2022-04-14T12:32:07Z</time>
      </trkpt>
      <trkpt lat="42.3036659695" lon="-0.5802245066">
        <ele>767.27</ele>
        <time>2022-04-14T12:32:49Z</time>
      </trkpt>
      <trkpt lat="42.3036471941" lon="-0.5802228302">
        <ele>766.79</ele>
        <time>2022-04-14T12:33:23Z</time>
      </trkpt>
      <trkpt lat="42.3036246467" lon="-0.5802127719">
        <ele>766.79</ele>
        <time>2022-04-14T12:33:54Z</time>
      </trkpt>
      <trkpt lat="42.3036399018" lon="-0.5802003667">
        <ele>766.79</ele>
        <time>2022-04-14T12:34:31Z</time>
      </trkpt>
      <trkpt lat="42.3036488704" lon="-0.5801874585">
        <ele>766.79</ele>
        <time>2022-04-14T12:35:00Z</time>
      </trkpt>
      <trkpt lat="42.3036710825" lon="-0.5801975168">
        <ele>767.27</ele>
        <time>2022-04-14T12:35:21Z</time>
      </trkpt>
      <trkpt lat="42.3036680650" lon="-0.5801857822">
        <ele>768.23</ele>
        <time>2022-04-14T12:35:49Z</time>
      </trkpt>
      <trkpt lat="42.3036287539" lon="-0.5801160447">
        <ele>768.23</ele>
        <time>2022-04-14T12:36:01Z</time>
      </trkpt>
      <trkpt lat="42.3036435898" lon="-0.5801333953">
        <ele>768.23</ele>
        <time>2022-04-14T12:36:13Z</time>
      </trkpt>
      <trkpt lat="42.3036515526" lon="-0.5801342335">
        <ele>768.23</ele>
        <time>2022-04-14T12:36:15Z</time>
      </trkpt>
      <trkpt lat="42.3037259001" lon="-0.5801394302">
        <ele>768.71</ele>
        <time>2022-04-14T12:36:23Z</time>
      </trkpt>
      <trkpt lat="42.3037919495" lon="-0.5801558588">
        <ele>768.71</ele>
        <time>2022-04-14T12:36:33Z</time>
      </trkpt>
      <trkpt lat="42.3038017564" lon="-0.5800953414">
        <ele>769.19</ele>
        <time>2022-04-14T12:36:45Z</time>
      </trkpt>
      <trkpt lat="42.3037855793" lon="-0.5801296234">
        <ele>768.71</ele>
        <time>2022-04-14T12:36:51Z</time>
      </trkpt>
      <trkpt lat="42.3038309254" lon="-0.5801845249">
        <ele>767.75</ele>
        <time>2022-04-14T12:36:56Z</time>
      </trkpt>
      <trkpt lat="42.3039595038" lon="-0.5803648196">
        <ele>764.87</ele>
        <time>2022-04-14T12:37:11Z</time>
      </trkpt>
      <trkpt lat="42.3040375393" lon="-0.5805078149">
        <ele>762.94</ele>
        <time>2022-04-14T12:37:21Z</time>
      </trkpt>
      <trkpt lat="42.3041336797" lon="-0.5805368163">
        <ele>761.98</ele>
        <time>2022-04-14T12:37:28Z</time>
      </trkpt>
      <trkpt lat="42.3042812850" lon="-0.5803448707">
        <ele>759.58</ele>
        <time>2022-04-14T12:37:45Z</time>
      </trkpt>
      <trkpt lat="42.3044329137" lon="-0.5801841896">
        <ele>758.62</ele>
        <time>2022-04-14T12:38:01Z</time>
      </trkpt>
      <trkpt lat="42.3046137113" lon="-0.5801305454">
        <ele>755.73</ele>
        <time>2022-04-14T12:38:18Z</time>
      </trkpt>
      <trkpt lat="42.3046248592" lon="-0.5801213253">
        <ele>755.73</ele>
        <time>2022-04-14T12:38:20Z</time>
      </trkpt>
      <trkpt lat="42.3048175592" lon="-0.5802538432">
        <ele>757.18</ele>
        <time>2022-04-14T12:38:38Z</time>
      </trkpt>
      <trkpt lat="42.3048675153" lon="-0.5804936495">
        <ele>758.62</ele>
        <time>2022-04-14T12:38:54Z</time>
      </trkpt>
      <trkpt lat="42.3050071578" lon="-0.5807167757">
        <ele>759.58</ele>
        <time>2022-04-14T12:39:10Z</time>
      </trkpt>
      <trkpt lat="42.3052150290" lon="-0.5809391476">
        <ele>761.02</ele>
        <time>2022-04-14T12:39:29Z</time>
      </trkpt>
      <trkpt lat="42.3054845072" lon="-0.5810969789">
        <ele>762.46</ele>
        <time>2022-04-14T12:39:50Z</time>
      </trkpt>
      <trkpt lat="42.3056947254" lon="-0.5812880863">
        <ele>761.02</ele>
        <time>2022-04-14T12:40:09Z</time>
      </trkpt>
      <trkpt lat="42.3058829829" lon="-0.5814236216">
        <ele>761.02</ele>
        <time>2022-04-14T12:40:26Z</time>
      </trkpt>
      <trkpt lat="42.3059231322" lon="-0.5814625975">
        <ele>761.02</ele>
        <time>2022-04-14T12:40:30Z</time>
      </trkpt>
      <trkpt lat="42.3059734236" lon="-0.5815155711">
        <ele>761.02</ele>
        <time>2022-04-14T12:40:35Z</time>
      </trkpt>
      <trkpt lat="42.3060045205" lon="-0.5815729871">
        <ele>762.46</ele>
        <time>2022-04-14T12:40:39Z</time>
      </trkpt>
      <trkpt lat="42.3061089590" lon="-0.5818545353">
        <ele>762.94</ele>
        <time>2022-04-14T12:40:58Z</time>
      </trkpt>
      <trkpt lat="42.3061714042" lon="-0.5821364187">
        <ele>764.39</ele>
        <time>2022-04-14T12:41:14Z</time>
      </trkpt>
      <trkpt lat="42.3062303290" lon="-0.5824437831">
        <ele>764.39</ele>
        <time>2022-04-14T12:41:32Z</time>
      </trkpt>
      <trkpt lat="42.3062273953" lon="-0.5825368222">
        <ele>764.39</ele>
        <time>2022-04-14T12:41:37Z</time>
      </trkpt>
      <trkpt lat="42.3062908463" lon="-0.5828364752">
        <ele>764.87</ele>
        <time>2022-04-14T12:41:54Z</time>
      </trkpt>
      <trkpt lat="42.3063427303" lon="-0.5830816459">
        <ele>765.35</ele>
        <time>2022-04-14T12:42:08Z</time>
      </trkpt>
      <trkpt lat="42.3063741624" lon="-0.5832039379">
        <ele>765.35</ele>
        <time>2022-04-14T12:42:15Z</time>
      </trkpt>
      <trkpt lat="42.3064159881" lon="-0.5833574105">
        <ele>765.35</ele>
        <time>2022-04-14T12:42:24Z</time>
      </trkpt>
      <trkpt lat="42.3066042457" lon="-0.5835633539">
        <ele>765.83</ele>
        <time>2022-04-14T12:42:40Z</time>
      </trkpt>
      <trkpt lat="42.3068415374" lon="-0.5836800300">
        <ele>765.83</ele>
        <time>2022-04-14T12:42:56Z</time>
      </trkpt>
      <trkpt lat="42.3070596345" lon="-0.5837972090">
        <ele>765.83</ele>
        <time>2022-04-14T12:43:12Z</time>
      </trkpt>
      <trkpt lat="42.3073131870" lon="-0.5839382764">
        <ele>765.83</ele>
        <time>2022-04-14T12:43:32Z</time>
      </trkpt>
      <trkpt lat="42.3075637221" lon="-0.5841462314">
        <ele>765.83</ele>
        <time>2022-04-14T12:43:53Z</time>
      </trkpt>
      <trkpt lat="42.3078192864" lon="-0.5843150429">
        <ele>766.79</ele>
        <time>2022-04-14T12:44:13Z</time>
      </trkpt>
      <trkpt lat="42.3080716655" lon="-0.5844357423">
        <ele>768.71</ele>
        <time>2022-04-14T12:44:33Z</time>
      </trkpt>
      <trkpt lat="42.3083381262" lon="-0.5845490657">
        <ele>770.15</ele>
        <time>2022-04-14T12:44:54Z</time>
      </trkpt>
      <trkpt lat="42.3085779324" lon="-0.5847445317">
        <ele>772.08</ele>
        <time>2022-04-14T12:45:16Z</time>
      </trkpt>
      <trkpt lat="42.3088116199" lon="-0.5849658977">
        <ele>773.52</ele>
        <time>2022-04-14T12:45:37Z</time>
      </trkpt>
      <trkpt lat="42.3090321478" lon="-0.5851390678">
        <ele>774.96</ele>
        <time>2022-04-14T12:45:57Z</time>
      </trkpt>
      <trkpt lat="42.3092976026" lon="-0.5853367969">
        <ele>775.44</ele>
        <time>2022-04-14T12:46:19Z</time>
      </trkpt>
      <trkpt lat="42.3094820045" lon="-0.5854474381">
        <ele>774.00</ele>
        <time>2022-04-14T12:46:34Z</time>
      </trkpt>
      <trkpt lat="42.3095948249" lon="-0.5854683928">
        <ele>772.56</ele>
        <time>2022-04-14T12:46:42Z</time>
      </trkpt>
      <trkpt lat="42.3096455354" lon="-0.5855207797">
        <ele>772.56</ele>
        <time>2022-04-14T12:46:47Z</time>
      </trkpt>
      <trkpt lat="42.3097263370" lon="-0.5856524594">
        <ele>773.52</ele>
        <time>2022-04-14T12:46:59Z</time>
      </trkpt>
      <trkpt lat="42.3097674921" lon="-0.5858727358">
        <ele>775.92</ele>
        <time>2022-04-14T12:47:14Z</time>
      </trkpt>
      <trkpt lat="42.3098291829" lon="-0.5860596523">
        <ele>779.29</ele>
        <time>2022-04-14T12:47:27Z</time>
      </trkpt>
      <trkpt lat="42.3099217191" lon="-0.5862960219">
        <ele>780.73</ele>
        <time>2022-04-14T12:47:43Z</time>
      </trkpt>
      <trkpt lat="42.3100448493" lon="-0.5865561962">
        <ele>781.69</ele>
        <time>2022-04-14T12:48:00Z</time>
      </trkpt>
      <trkpt lat="42.3101915326" lon="-0.5868135206">
        <ele>782.65</ele>
        <time>2022-04-14T12:48:17Z</time>
      </trkpt>
      <trkpt lat="42.3103699833" lon="-0.5870463699">
        <ele>784.09</ele>
        <time>2022-04-14T12:48:35Z</time>
      </trkpt>
      <trkpt lat="42.3105064407" lon="-0.5873073824">
        <ele>785.05</ele>
        <time>2022-04-14T12:48:54Z</time>
      </trkpt>
      <trkpt lat="42.3105394654" lon="-0.5874163471">
        <ele>786.50</ele>
        <time>2022-04-14T12:49:01Z</time>
      </trkpt>
      <trkpt lat="42.3105491046" lon="-0.5875306763">
        <ele>787.46</ele>
        <time>2022-04-14T12:49:08Z</time>
      </trkpt>
      <trkpt lat="42.3105997313" lon="-0.5879098736">
        <ele>787.46</ele>
        <time>2022-04-14T12:49:29Z</time>
      </trkpt>
      <trkpt lat="42.3106503580" lon="-0.5882039946">
        <ele>787.46</ele>
        <time>2022-04-14T12:49:45Z</time>
      </trkpt>
      <trkpt lat="42.3106521182" lon="-0.5882615782">
        <ele>786.50</ele>
        <time>2022-04-14T12:49:48Z</time>
      </trkpt>
      <trkpt lat="42.3106950335" lon="-0.5886010453">
        <ele>786.50</ele>
        <time>2022-04-14T12:50:07Z</time>
      </trkpt>
      <trkpt lat="42.3107151501" lon="-0.5886321422">
        <ele>786.50</ele>
        <time>2022-04-14T12:50:09Z</time>
      </trkpt>
      <trkpt lat="42.3107350152" lon="-0.5887351558">
        <ele>787.94</ele>
        <time>2022-04-14T12:50:15Z</time>
      </trkpt>
      <trkpt lat="42.3108017351" lon="-0.5890289415">
        <ele>788.42</ele>
        <time>2022-04-14T12:50:32Z</time>
      </trkpt>
      <trkpt lat="42.3108661082" lon="-0.5893000960">
        <ele>789.86</ele>
        <time>2022-04-14T12:50:48Z</time>
      </trkpt>
      <trkpt lat="42.3109265417" lon="-0.5895286705">
        <ele>790.34</ele>
        <time>2022-04-14T12:51:01Z</time>
      </trkpt>
      <trkpt lat="42.3109349236" lon="-0.5895631202">
        <ele>790.34</ele>
        <time>2022-04-14T12:51:03Z</time>
      </trkpt>
      <trkpt lat="42.3109704629" lon="-0.5896377191">
        <ele>791.30</ele>
        <time>2022-04-14T12:51:08Z</time>
      </trkpt>
      <trkpt lat="42.3111410346" lon="-0.5898836441">
        <ele>792.26</ele>
        <time>2022-04-14T12:51:26Z</time>
      </trkpt>
      <trkpt lat="42.3113449663" lon="-0.5900579039">
        <ele>794.19</ele>
        <time>2022-04-14T12:51:44Z</time>
      </trkpt>
      <trkpt lat="42.3114851117" lon="-0.5902844667">
        <ele>796.11</ele>
        <time>2022-04-14T12:52:01Z</time>
      </trkpt>
      <trkpt lat="42.3115703557" lon="-0.5905277096">
        <ele>797.55</ele>
        <time>2022-04-14T12:52:18Z</time>
      </trkpt>
      <trkpt lat="42.3116377462" lon="-0.5908064917">
        <ele>798.99</ele>
        <time>2022-04-14T12:52:36Z</time>
      </trkpt>
      <trkpt lat="42.3117465433" lon="-0.5911000259">
        <ele>801.40</ele>
        <time>2022-04-14T12:52:55Z</time>
      </trkpt>
      <trkpt lat="42.3118498083" lon="-0.5914506409">
        <ele>804.28</ele>
        <time>2022-04-14T12:53:17Z</time>
      </trkpt>
      <trkpt lat="42.3119281791" lon="-0.5917246453">
        <ele>805.72</ele>
        <time>2022-04-14T12:53:35Z</time>
      </trkpt>
      <trkpt lat="42.3120159376" lon="-0.5919942912">
        <ele>808.13</ele>
        <time>2022-04-14T12:53:53Z</time>
      </trkpt>
      <trkpt lat="42.3120161891" lon="-0.5923527014">
        <ele>809.09</ele>
        <time>2022-04-14T12:54:15Z</time>
      </trkpt>
      <trkpt lat="42.3120348807" lon="-0.5925303139">
        <ele>807.64</ele>
        <time>2022-04-14T12:54:25Z</time>
      </trkpt>
      <trkpt lat="42.3121994175" lon="-0.5927334074">
        <ele>806.20</ele>
        <time>2022-04-14T12:54:41Z</time>
      </trkpt>
      <trkpt lat="42.3122220486" lon="-0.5928199086">
        <ele>806.20</ele>
        <time>2022-04-14T12:54:46Z</time>
      </trkpt>
      <trkpt lat="42.3122171871" lon="-0.5928525981">
        <ele>806.20</ele>
        <time>2022-04-14T12:54:48Z</time>
      </trkpt>
      <trkpt lat="42.3121603578" lon="-0.5928895622">
        <ele>806.20</ele>
        <time>2022-04-14T12:54:54Z</time>
      </trkpt>
      <trkpt lat="42.3120778799" lon="-0.5929416139">
        <ele>806.20</ele>
        <time>2022-04-14T12:55:02Z</time>
      </trkpt>
      <trkpt lat="42.3120615352" lon="-0.5929883849">
        <ele>807.64</ele>
        <time>2022-04-14T12:55:05Z</time>
      </trkpt>
      <trkpt lat="42.3119858466" lon="-0.5931873713">
        <ele>810.53</ele>
        <time>2022-04-14T12:55:19Z</time>
      </trkpt>
      <trkpt lat="42.3119671550" lon="-0.5934707634">
        <ele>812.45</ele>
        <time>2022-04-14T12:55:36Z</time>
      </trkpt>
      <trkpt lat="42.3120052088" lon="-0.5937501322">
        <ele>813.89</ele>
        <time>2022-04-14T12:55:52Z</time>
      </trkpt>
      <trkpt lat="42.3120674025" lon="-0.5940915272">
        <ele>814.85</ele>
        <time>2022-04-14T12:56:11Z</time>
      </trkpt>
      <trkpt lat="42.3121688236" lon="-0.5944034178">
        <ele>816.30</ele>
        <time>2022-04-14T12:56:30Z</time>
      </trkpt>
      <trkpt lat="42.3123110645" lon="-0.5946916714">
        <ele>817.74</ele>
        <time>2022-04-14T12:56:50Z</time>
      </trkpt>
      <trkpt lat="42.3124835640" lon="-0.5949444696">
        <ele>819.18</ele>
        <time>2022-04-14T12:57:10Z</time>
      </trkpt>
      <trkpt lat="42.3125851527" lon="-0.5952473916">
        <ele>821.58</ele>
        <time>2022-04-14T12:57:29Z</time>
      </trkpt>
      <trkpt lat="42.3126033414" lon="-0.5956214759">
        <ele>822.55</ele>
        <time>2022-04-14T12:57:51Z</time>
      </trkpt>
      <trkpt lat="42.3126988113" lon="-0.5959098134">
        <ele>823.99</ele>
        <time>2022-04-14T12:58:10Z</time>
      </trkpt>
      <trkpt lat="42.3128428124" lon="-0.5961756874">
        <ele>826.39</ele>
        <time>2022-04-14T12:58:30Z</time>
      </trkpt>
      <trkpt lat="42.3129291460" lon="-0.5965557229">
        <ele>827.83</ele>
        <time>2022-04-14T12:58:52Z</time>
      </trkpt>
      <trkpt lat="42.3129803594" lon="-0.5968976207">
        <ele>828.79</ele>
        <time>2022-04-14T12:59:12Z</time>
      </trkpt>
      <trkpt lat="42.3130407091" lon="-0.5972465593">
        <ele>830.72</ele>
        <time>2022-04-14T12:59:32Z</time>
      </trkpt>
      <trkpt lat="42.3131153081" lon="-0.5976686720">
        <ele>831.68</ele>
        <time>2022-04-14T12:59:56Z</time>
      </trkpt>
      <trkpt lat="42.3132071737" lon="-0.5980661418">
        <ele>833.60</ele>
        <time>2022-04-14T13:00:20Z</time>
      </trkpt>
      <trkpt lat="42.3132995423" lon="-0.5984241329">
        <ele>835.04</ele>
        <time>2022-04-14T13:00:41Z</time>
      </trkpt>
      <trkpt lat="42.3134395201" lon="-0.5987100396">
        <ele>836.96</ele>
        <time>2022-04-14T13:01:01Z</time>
      </trkpt>
      <trkpt lat="42.3136214074" lon="-0.5989804398">
        <ele>838.41</ele>
        <time>2022-04-14T13:01:22Z</time>
      </trkpt>
      <trkpt lat="42.3137837648" lon="-0.5991798453">
        <ele>840.33</ele>
        <time>2022-04-14T13:01:39Z</time>
      </trkpt>
      <trkpt lat="42.3138903826" lon="-0.5992894806">
        <ele>842.25</ele>
        <time>2022-04-14T13:01:51Z</time>
      </trkpt>
      <trkpt lat="42.3139478825" lon="-0.5993151292">
        <ele>843.21</ele>
        <time>2022-04-14T13:01:56Z</time>
      </trkpt>
      <trkpt lat="42.3141249921" lon="-0.5993701983">
        <ele>846.58</ele>
        <time>2022-04-14T13:02:13Z</time>
      </trkpt>
      <trkpt lat="42.3141441029" lon="-0.5993675999">
        <ele>847.06</ele>
        <time>2022-04-14T13:02:15Z</time>
      </trkpt>
      <trkpt lat="42.3143083043" lon="-0.5993981939">
        <ele>849.94</ele>
        <time>2022-04-14T13:02:31Z</time>
      </trkpt>
      <trkpt lat="42.3144810554" lon="-0.5994189810">
        <ele>852.83</ele>
        <time>2022-04-14T13:02:48Z</time>
      </trkpt>
      <trkpt lat="42.3145864997" lon="-0.5994282011">
        <ele>855.23</ele>
        <time>2022-04-14T13:02:58Z</time>
      </trkpt>
      <trkpt lat="42.3146865796" lon="-0.5994398519">
        <ele>856.67</ele>
        <time>2022-04-14T13:03:08Z</time>
      </trkpt>
      <trkpt lat="42.3149013240" lon="-0.5994816776">
        <ele>859.56</ele>
        <time>2022-04-14T13:03:28Z</time>
      </trkpt>
      <trkpt lat="42.3150842171" lon="-0.5995327234">
        <ele>861.48</ele>
        <time>2022-04-14T13:03:45Z</time>
      </trkpt>
      <trkpt lat="42.3151075188" lon="-0.5995405186">
        <ele>862.92</ele>
        <time>2022-04-14T13:03:47Z</time>
      </trkpt>
      <trkpt lat="42.3152780067" lon="-0.5996803287">
        <ele>853.31</ele>
        <time>2022-04-14T13:04:04Z</time>
      </trkpt>
      <trkpt lat="42.3152903281" lon="-0.5996922310">
        <ele>866.29</ele>
        <time>2022-04-14T13:04:05Z</time>
      </trkpt>
      <trkpt lat="42.3153029848" lon="-0.5997038819">
        <ele>870.61</ele>
        <time>2022-04-14T13:04:06Z</time>
      </trkpt>
      <trkpt lat="42.3153148871" lon="-0.5997150298">
        <ele>864.36</ele>
        <time>2022-04-14T13:04:07Z</time>
      </trkpt>
      <trkpt lat="42.3153335787" lon="-0.5997442827">
        <ele>863.40</ele>
        <time>2022-04-14T13:04:09Z</time>
      </trkpt>
      <trkpt lat="42.3155021388" lon="-0.6000446063">
        <ele>863.40</ele>
        <time>2022-04-14T13:04:30Z</time>
      </trkpt>
      <trkpt lat="42.3155905679" lon="-0.6003444269">
        <ele>862.92</ele>
        <time>2022-04-14T13:04:50Z</time>
      </trkpt>
      <trkpt lat="42.3157113511" lon="-0.6006851513">
        <ele>862.92</ele>
        <time>2022-04-14T13:05:10Z</time>
      </trkpt>
      <trkpt lat="42.3157779872" lon="-0.6008701399">
        <ele>862.92</ele>
        <time>2022-04-14T13:05:21Z</time>
      </trkpt>
      <trkpt lat="42.3157725390" lon="-0.6011886522">
        <ele>862.44</ele>
        <time>2022-04-14T13:05:40Z</time>
      </trkpt>
      <trkpt lat="42.3156815954" lon="-0.6015142892">
        <ele>860.04</ele>
        <time>2022-04-14T13:05:59Z</time>
      </trkpt>
      <trkpt lat="42.3155629914" lon="-0.6017679255">
        <ele>857.63</ele>
        <time>2022-04-14T13:06:16Z</time>
      </trkpt>
      <trkpt lat="42.3155315593" lon="-0.6020790618">
        <ele>855.23</ele>
        <time>2022-04-14T13:06:34Z</time>
      </trkpt>
      <trkpt lat="42.3155510891" lon="-0.6024306826">
        <ele>854.75</ele>
        <time>2022-04-14T13:06:54Z</time>
      </trkpt>
      <trkpt lat="42.3155451380" lon="-0.6028366182">
        <ele>854.75</ele>
        <time>2022-04-14T13:07:16Z</time>
      </trkpt>
      <trkpt lat="42.3154779151" lon="-0.6031568069">
        <ele>854.75</ele>
        <time>2022-04-14T13:07:35Z</time>
      </trkpt>
      <trkpt lat="42.3153805174" lon="-0.6035590544">
        <ele>854.75</ele>
        <time>2022-04-14T13:07:58Z</time>
      </trkpt>
      <trkpt lat="42.3153385241" lon="-0.6039318815">
        <ele>856.19</ele>
        <time>2022-04-14T13:08:20Z</time>
      </trkpt>
      <trkpt lat="42.3152116220" lon="-0.6042958237">
        <ele>858.59</ele>
        <time>2022-04-14T13:08:43Z</time>
      </trkpt>
      <trkpt lat="42.3150501028" lon="-0.6045768689">
        <ele>861.00</ele>
        <time>2022-04-14T13:09:03Z</time>
      </trkpt>
      <trkpt lat="42.3149677925" lon="-0.6049197726">
        <ele>862.92</ele>
        <time>2022-04-14T13:09:24Z</time>
      </trkpt>
      <trkpt lat="42.3149778508" lon="-0.6049821340">
        <ele>863.40</ele>
        <time>2022-04-14T13:09:31Z</time>
      </trkpt>
      <trkpt lat="42.3151310720" lon="-0.6049920246">
        <ele>866.77</ele>
        <time>2022-04-14T13:09:49Z</time>
      </trkpt>
      <trkpt lat="42.3152962793" lon="-0.6050011609">
        <ele>870.13</ele>
        <time>2022-04-14T13:10:06Z</time>
      </trkpt>
      <trkpt lat="42.3153271247" lon="-0.6049937010">
        <ele>870.13</ele>
        <time>2022-04-14T13:10:09Z</time>
      </trkpt>
      <trkpt lat="42.3155577108" lon="-0.6050299946">
        <ele>873.50</ele>
        <time>2022-04-14T13:10:29Z</time>
      </trkpt>
      <trkpt lat="42.3157662526" lon="-0.6050978880">
        <ele>875.42</ele>
        <time>2022-04-14T13:10:48Z</time>
      </trkpt>
      <trkpt lat="42.3158935737" lon="-0.6053853035">
        <ele>877.34</ele>
        <time>2022-04-14T13:11:08Z</time>
      </trkpt>
      <trkpt lat="42.3159436136" lon="-0.6057489943">
        <ele>877.82</ele>
        <time>2022-04-14T13:11:29Z</time>
      </trkpt>
      <trkpt lat="42.3160633910" lon="-0.6061104219">
        <ele>878.78</ele>
        <time>2022-04-14T13:11:51Z</time>
      </trkpt>
      <trkpt lat="42.3161530774" lon="-0.6062373240">
        <ele>879.26</ele>
        <time>2022-04-14T13:12:01Z</time>
      </trkpt>
      <trkpt lat="42.3161983397" lon="-0.6062503159">
        <ele>880.22</ele>
        <time>2022-04-14T13:12:06Z</time>
      </trkpt>
      <trkpt lat="42.3162341304" lon="-0.6062651519">
        <ele>881.19</ele>
        <time>2022-04-14T13:12:10Z</time>
      </trkpt>
      <trkpt lat="42.3163850047" lon="-0.6062438618">
        <ele>884.55</ele>
        <time>2022-04-14T13:12:26Z</time>
      </trkpt>
      <trkpt lat="42.3165694904" lon="-0.6061820034">
        <ele>887.43</ele>
        <time>2022-04-14T13:12:45Z</time>
      </trkpt>
      <trkpt lat="42.3166492861" lon="-0.6059961766">
        <ele>890.80</ele>
        <time>2022-04-14T13:13:02Z</time>
      </trkpt>
      <trkpt lat="42.3166433349" lon="-0.6056674384">
        <ele>893.20</ele>
        <time>2022-04-14T13:13:22Z</time>
      </trkpt>
      <trkpt lat="42.3167232983" lon="-0.6054180767">
        <ele>895.12</ele>
        <time>2022-04-14T13:13:39Z</time>
      </trkpt>
      <trkpt lat="42.3168321792" lon="-0.6053706352">
        <ele>897.53</ele>
        <time>2022-04-14T13:13:50Z</time>
      </trkpt>
      <trkpt lat="42.3170205206" lon="-0.6054505147">
        <ele>900.41</ele>
        <time>2022-04-14T13:14:08Z</time>
      </trkpt>
      <trkpt lat="42.3172216862" lon="-0.6056463998">
        <ele>902.82</ele>
        <time>2022-04-14T13:14:28Z</time>
      </trkpt>
      <trkpt lat="42.3174446449" lon="-0.6059630681">
        <ele>905.70</ele>
        <time>2022-04-14T13:14:55Z</time>
      </trkpt>
      <trkpt lat="42.3175319005" lon="-0.6060829293">
        <ele>907.14</ele>
        <time>2022-04-14T13:15:06Z</time>
      </trkpt>
      <trkpt lat="42.3177096806" lon="-0.6062293611">
        <ele>909.54</ele>
        <time>2022-04-14T13:15:25Z</time>
      </trkpt>
      <trkpt lat="42.3178620636" lon="-0.6061463803">
        <ele>912.91</ele>
        <time>2022-04-14T13:15:42Z</time>
      </trkpt>
      <trkpt lat="42.3179719504" lon="-0.6059449632">
        <ele>916.27</ele>
        <time>2022-04-14T13:16:01Z</time>
      </trkpt>
      <trkpt lat="42.3180847708" lon="-0.6057251897">
        <ele>919.16</ele>
        <time>2022-04-14T13:16:21Z</time>
      </trkpt>
      <trkpt lat="42.3182043806" lon="-0.6054840423">
        <ele>922.52</ele>
        <time>2022-04-14T13:16:41Z</time>
      </trkpt>
      <trkpt lat="42.3183492199" lon="-0.6052288134">
        <ele>924.93</ele>
        <time>2022-04-14T13:17:02Z</time>
      </trkpt>
      <trkpt lat="42.3185837455" lon="-0.6051527895">
        <ele>927.33</ele>
        <time>2022-04-14T13:17:22Z</time>
      </trkpt>
      <trkpt lat="42.3188500386" lon="-0.6052905880">
        <ele>930.21</ele>
        <time>2022-04-14T13:17:45Z</time>
      </trkpt>
      <trkpt lat="42.3190332670" lon="-0.6054105330">
        <ele>933.10</ele>
        <time>2022-04-14T13:18:04Z</time>
      </trkpt>
      <trkpt lat="42.3191071115" lon="-0.6054408755">
        <ele>934.54</ele>
        <time>2022-04-14T13:18:11Z</time>
      </trkpt>
      <trkpt lat="42.3192505259" lon="-0.6052921806">
        <ele>937.42</ele>
        <time>2022-04-14T13:18:30Z</time>
      </trkpt>
      <trkpt lat="42.3193180002" lon="-0.6051128916">
        <ele>939.35</ele>
        <time>2022-04-14T13:18:45Z</time>
      </trkpt>
      <trkpt lat="42.3193811998" lon="-0.6049605086">
        <ele>939.83</ele>
        <time>2022-04-14T13:18:57Z</time>
      </trkpt>
      <trkpt lat="42.3194740713" lon="-0.6047468539">
        <ele>940.79</ele>
        <time>2022-04-14T13:19:13Z</time>
      </trkpt>
      <trkpt lat="42.3195349239" lon="-0.6045413297">
        <ele>942.23</ele>
        <time>2022-04-14T13:19:26Z</time>
      </trkpt>
      <trkpt lat="42.3195666913" lon="-0.6044259109">
        <ele>942.71</ele>
        <time>2022-04-14T13:19:33Z</time>
      </trkpt>
      <trkpt lat="42.3196208384" lon="-0.6041157804">
        <ele>945.11</ele>
        <time>2022-04-14T13:19:52Z</time>
      </trkpt>
      <trkpt lat="42.3196266219" lon="-0.6040773913">
        <ele>945.11</ele>
        <time>2022-04-14T13:19:55Z</time>
      </trkpt>
      <trkpt lat="42.3196239397" lon="-0.6040520780">
        <ele>945.59</ele>
        <time>2022-04-14T13:19:57Z</time>
      </trkpt>
      <trkpt lat="42.3196513485" lon="-0.6037965138">
        <ele>947.52</ele>
        <time>2022-04-14T13:20:16Z</time>
      </trkpt>
      <trkpt lat="42.3196906596" lon="-0.6035647541">
        <ele>949.44</ele>
        <time>2022-04-14T13:20:30Z</time>
      </trkpt>
      <trkpt lat="42.3197020590" lon="-0.6034958549">
        <ele>949.92</ele>
        <time>2022-04-14T13:20:35Z</time>
      </trkpt>
      <trkpt lat="42.3197245225" lon="-0.6033904944">
        <ele>952.80</ele>
        <time>2022-04-14T13:20:45Z</time>
      </trkpt>
      <trkpt lat="42.3197542783" lon="-0.6032555457">
        <ele>953.28</ele>
        <time>2022-04-14T13:20:58Z</time>
      </trkpt>
      <trkpt lat="42.3197691143" lon="-0.6031988841">
        <ele>954.25</ele>
        <time>2022-04-14T13:21:03Z</time>
      </trkpt>
      <trkpt lat="42.3197800945" lon="-0.6031578965">
        <ele>955.21</ele>
        <time>2022-04-14T13:21:06Z</time>
      </trkpt>
      <trkpt lat="42.3197853751" lon="-0.6031472515">
        <ele>955.21</ele>
        <time>2022-04-14T13:21:07Z</time>
      </trkpt>
      <trkpt lat="42.3198514245" lon="-0.6029685494">
        <ele>957.13</ele>
        <time>2022-04-14T13:21:21Z</time>
      </trkpt>
      <trkpt lat="42.3199934140" lon="-0.6027305871">
        <ele>958.09</ele>
        <time>2022-04-14T13:21:40Z</time>
      </trkpt>
      <trkpt lat="42.3201369960" lon="-0.6024703290">
        <ele>959.53</ele>
        <time>2022-04-14T13:21:59Z</time>
      </trkpt>
      <trkpt lat="42.3202707712" lon="-0.6021689996">
        <ele>960.49</ele>
        <time>2022-04-14T13:22:21Z</time>
      </trkpt>
      <trkpt lat="42.3204394989" lon="-0.6018576957">
        <ele>962.42</ele>
        <time>2022-04-14T13:22:43Z</time>
      </trkpt>
      <trkpt lat="42.3206062149" lon="-0.6015492417">
        <ele>963.86</ele>
        <time>2022-04-14T13:23:05Z</time>
      </trkpt>
      <trkpt lat="42.3207401577" lon="-0.6012395304">
        <ele>964.82</ele>
        <time>2022-04-14T13:23:26Z</time>
      </trkpt>
      <trkpt lat="42.3207963165" lon="-0.6011345051">
        <ele>964.82</ele>
        <time>2022-04-14T13:23:34Z</time>
      </trkpt>
      <trkpt lat="42.3208313528" lon="-0.6010163203">
        <ele>965.30</ele>
        <time>2022-04-14T13:23:41Z</time>
      </trkpt>
      <trkpt lat="42.3208642937" lon="-0.6006884202">
        <ele>966.74</ele>
        <time>2022-04-14T13:24:01Z</time>
      </trkpt>
      <trkpt lat="42.3208983243" lon="-0.6005076226">
        <ele>969.15</ele>
        <time>2022-04-14T13:24:15Z</time>
      </trkpt>
      <trkpt lat="42.3209325224" lon="-0.6001790520">
        <ele>971.55</ele>
        <time>2022-04-14T13:24:35Z</time>
      </trkpt>
      <trkpt lat="42.3209787067" lon="-0.5999339651">
        <ele>974.91</ele>
        <time>2022-04-14T13:24:51Z</time>
      </trkpt>
      <trkpt lat="42.3210029304" lon="-0.5998865236">
        <ele>975.39</ele>
        <time>2022-04-14T13:24:55Z</time>
      </trkpt>
      <trkpt lat="42.3211356159" lon="-0.5996417720">
        <ele>977.80</ele>
        <time>2022-04-14T13:25:15Z</time>
      </trkpt>
      <trkpt lat="42.3211739212" lon="-0.5993635766">
        <ele>981.16</ele>
        <time>2022-04-14T13:25:33Z</time>
      </trkpt>
      <trkpt lat="42.3212173395" lon="-0.5990749039">
        <ele>983.09</ele>
        <time>2022-04-14T13:25:51Z</time>
      </trkpt>
      <trkpt lat="42.3212461732" lon="-0.5987199303">
        <ele>984.53</ele>
        <time>2022-04-14T13:26:11Z</time>
      </trkpt>
      <trkpt lat="42.3212765995" lon="-0.5986530427">
        <ele>985.49</ele>
        <time>2022-04-14T13:26:16Z</time>
      </trkpt>
      <trkpt lat="42.3213807028" lon="-0.5985416472">
        <ele>988.85</ele>
        <time>2022-04-14T13:26:27Z</time>
      </trkpt>
      <trkpt lat="42.3214993905" lon="-0.5984645337">
        <ele>990.78</ele>
        <time>2022-04-14T13:26:40Z</time>
      </trkpt>
      <trkpt lat="42.3215231113" lon="-0.5984702334">
        <ele>991.74</ele>
        <time>2022-04-14T13:26:55Z</time>
      </trkpt>
      <trkpt lat="42.3215233628" lon="-0.5984618515">
        <ele>991.74</ele>
        <time>2022-04-14T13:26:58Z</time>
      </trkpt>
      <trkpt lat="42.3215648532" lon="-0.5984363705">
        <ele>991.74</ele>
        <time>2022-04-14T13:27:02Z</time>
      </trkpt>
      <trkpt lat="42.3217518535" lon="-0.5983440857">
        <ele>993.18</ele>
        <time>2022-04-14T13:27:19Z</time>
      </trkpt>
      <trkpt lat="42.3219204135" lon="-0.5982250627">
        <ele>994.62</ele>
        <time>2022-04-14T13:27:34Z</time>
      </trkpt>
      <trkpt lat="42.3220888060" lon="-0.5981535651">
        <ele>997.51</ele>
        <time>2022-04-14T13:27:50Z</time>
      </trkpt>
      <trkpt lat="42.3221191484" lon="-0.5981528945">
        <ele>997.99</ele>
        <time>2022-04-14T13:27:53Z</time>
      </trkpt>
      <trkpt lat="42.3221390136" lon="-0.5981598515">
        <ele>997.99</ele>
        <time>2022-04-14T13:27:55Z</time>
      </trkpt>
      <trkpt lat="42.3223494831" lon="-0.5980613641">
        <ele>1000.39</ele>
        <time>2022-04-14T13:28:14Z</time>
      </trkpt>
      <trkpt lat="42.3225511517" lon="-0.5980217177">
        <ele>1002.79</ele>
        <time>2022-04-14T13:28:31Z</time>
      </trkpt>
      <trkpt lat="42.3226880282" lon="-0.5979552492">
        <ele>1005.20</ele>
        <time>2022-04-14T13:28:44Z</time>
      </trkpt>
      <trkpt lat="42.3228559177" lon="-0.5980081391">
        <ele>1007.12</ele>
        <time>2022-04-14T13:28:59Z</time>
      </trkpt>
      <trkpt lat="42.3229674809" lon="-0.5982396472">
        <ele>1009.52</ele>
        <time>2022-04-14T13:29:17Z</time>
      </trkpt>
      <trkpt lat="42.3229636252" lon="-0.5983480252">
        <ele>1009.52</ele>
        <time>2022-04-14T13:29:23Z</time>
      </trkpt>
      <trkpt lat="42.3229357135" lon="-0.5984356999">
        <ele>1009.52</ele>
        <time>2022-04-14T13:29:28Z</time>
      </trkpt>
      <trkpt lat="42.3228943907" lon="-0.5985816289">
        <ele>1009.52</ele>
        <time>2022-04-14T13:29:37Z</time>
      </trkpt>
      <trkpt lat="42.3228231445" lon="-0.5987941939">
        <ele>1007.60</ele>
        <time>2022-04-14T13:29:51Z</time>
      </trkpt>
      <trkpt lat="42.3227979150" lon="-0.5989581440">
        <ele>1007.60</ele>
        <time>2022-04-14T13:30:00Z</time>
      </trkpt>
      <trkpt lat="42.3228054587" lon="-0.5991618242">
        <ele>1007.12</ele>
        <time>2022-04-14T13:30:13Z</time>
      </trkpt>
      <trkpt lat="42.3227533232" lon="-0.5994528439">
        <ele>1006.16</ele>
        <time>2022-04-14T13:30:28Z</time>
      </trkpt>
      <trkpt lat="42.3226981703" lon="-0.5997426901">
        <ele>1006.16</ele>
        <time>2022-04-14T13:30:43Z</time>
      </trkpt>
      <trkpt lat="42.3226100765" lon="-0.5999570992">
        <ele>1006.16</ele>
        <time>2022-04-14T13:30:57Z</time>
      </trkpt>
      <trkpt lat="42.3225906305" lon="-0.6000907067">
        <ele>1006.16</ele>
        <time>2022-04-14T13:31:05Z</time>
      </trkpt>
      <trkpt lat="42.3226309475" lon="-0.6003547367">
        <ele>1006.16</ele>
        <time>2022-04-14T13:31:22Z</time>
      </trkpt>
      <trkpt lat="42.3226425145" lon="-0.6004381366">
        <ele>1006.16</ele>
        <time>2022-04-14T13:31:27Z</time>
      </trkpt>
      <trkpt lat="42.3226624634" lon="-0.6007600855">
        <ele>1007.12</ele>
        <time>2022-04-14T13:31:45Z</time>
      </trkpt>
      <trkpt lat="42.3226666544" lon="-0.6010438129">
        <ele>1006.64</ele>
        <time>2022-04-14T13:32:00Z</time>
      </trkpt>
      <trkpt lat="42.3226778023" lon="-0.6011127122">
        <ele>1005.68</ele>
        <time>2022-04-14T13:32:04Z</time>
      </trkpt>
      <trkpt lat="42.3227245733" lon="-0.6013702881">
        <ele>1005.68</ele>
        <time>2022-04-14T13:32:18Z</time>
      </trkpt>
      <trkpt lat="42.3227463663" lon="-0.6016538478">
        <ele>1006.64</ele>
        <time>2022-04-14T13:32:33Z</time>
      </trkpt>
      <trkpt lat="42.3227372300" lon="-0.6019114237">
        <ele>1006.64</ele>
        <time>2022-04-14T13:32:47Z</time>
      </trkpt>
      <trkpt lat="42.3227104917" lon="-0.6021737773">
        <ele>1006.64</ele>
        <time>2022-04-14T13:33:02Z</time>
      </trkpt>
      <trkpt lat="42.3226980027" lon="-0.6022824906">
        <ele>1006.64</ele>
        <time>2022-04-14T13:33:09Z</time>
      </trkpt>
      <trkpt lat="42.3226986732" lon="-0.6023907848">
        <ele>1006.64</ele>
        <time>2022-04-14T13:33:14Z</time>
      </trkpt>
      <trkpt lat="42.3227290157" lon="-0.6027959660">
        <ele>1006.16</ele>
        <time>2022-04-14T13:33:37Z</time>
      </trkpt>
      <trkpt lat="42.3227301892" lon="-0.6030350178">
        <ele>1006.16</ele>
        <time>2022-04-14T13:33:51Z</time>
      </trkpt>
      <trkpt lat="42.3226623796" lon="-0.6032451522">
        <ele>1004.72</ele>
        <time>2022-04-14T13:34:04Z</time>
      </trkpt>
      <trkpt lat="42.3226022813" lon="-0.6033241097">
        <ele>1004.23</ele>
        <time>2022-04-14T13:34:11Z</time>
      </trkpt>
      <trkpt lat="42.3225488886" lon="-0.6033756584">
        <ele>1004.23</ele>
        <time>2022-04-14T13:34:16Z</time>
      </trkpt>
      <trkpt lat="42.3223765567" lon="-0.6035265326">
        <ele>1002.79</ele>
        <time>2022-04-14T13:34:32Z</time>
      </trkpt>
      <trkpt lat="42.3222706933" lon="-0.6036186498">
        <ele>1002.31</ele>
        <time>2022-04-14T13:34:42Z</time>
      </trkpt>
      <trkpt lat="42.3222426139" lon="-0.6038232520">
        <ele>1001.35</ele>
        <time>2022-04-14T13:34:54Z</time>
      </trkpt>
      <trkpt lat="42.3222383391" lon="-0.6039790716">
        <ele>1000.87</ele>
        <time>2022-04-14T13:35:04Z</time>
      </trkpt>
      <trkpt lat="42.3222304601" lon="-0.6040685903">
        <ele>1000.39</ele>
        <time>2022-04-14T13:35:08Z</time>
      </trkpt>
      <trkpt lat="42.3222302925" lon="-0.6043352187">
        <ele>998.47</ele>
        <time>2022-04-14T13:35:23Z</time>
      </trkpt>
      <trkpt lat="42.3222282808" lon="-0.6045691576">
        <ele>997.51</ele>
        <time>2022-04-14T13:35:35Z</time>
      </trkpt>
      <trkpt lat="42.3222103436" lon="-0.6048145797">
        <ele>996.54</ele>
        <time>2022-04-14T13:35:50Z</time>
      </trkpt>
      <trkpt lat="42.3221933283" lon="-0.6049119774">
        <ele>995.58</ele>
        <time>2022-04-14T13:35:57Z</time>
      </trkpt>
      <trkpt lat="42.3221579567" lon="-0.6051234528">
        <ele>995.10</ele>
        <time>2022-04-14T13:36:09Z</time>
      </trkpt>
      <trkpt lat="42.3221638240" lon="-0.6053000595">
        <ele>994.14</ele>
        <time>2022-04-14T13:36:18Z</time>
      </trkpt>
      <trkpt lat="42.3221801687" lon="-0.6056180689">
        <ele>991.74</ele>
        <time>2022-04-14T13:36:35Z</time>
      </trkpt>
      <trkpt lat="42.3221976031" lon="-0.6056432985">
        <ele>990.30</ele>
        <time>2022-04-14T13:36:47Z</time>
      </trkpt>
      <trkpt lat="42.3222270235" lon="-0.6057675183">
        <ele>989.81</ele>
        <time>2022-04-14T13:37:14Z</time>
      </trkpt>
      <trkpt lat="42.3223381676" lon="-0.6060037203">
        <ele>987.41</ele>
        <time>2022-04-14T13:37:30Z</time>
      </trkpt>
      <trkpt lat="42.3224565201" lon="-0.6061121821">
        <ele>986.93</ele>
        <time>2022-04-14T13:37:42Z</time>
      </trkpt>
      <trkpt lat="42.3226197995" lon="-0.6061502360">
        <ele>985.01</ele>
        <time>2022-04-14T13:37:54Z</time>
      </trkpt>
      <trkpt lat="42.3228084762" lon="-0.6061228272">
        <ele>984.53</ele>
        <time>2022-04-14T13:38:08Z</time>
      </trkpt>
      <trkpt lat="42.3229690734" lon="-0.6060599629">
        <ele>982.60</ele>
        <time>2022-04-14T13:38:21Z</time>
      </trkpt>
      <trkpt lat="42.3231143318" lon="-0.6059976015">
        <ele>981.64</ele>
        <time>2022-04-14T13:38:33Z</time>
      </trkpt>
      <trkpt lat="42.3231431656" lon="-0.6059828494">
        <ele>981.64</ele>
        <time>2022-04-14T13:38:36Z</time>
      </trkpt>
      <trkpt lat="42.3232294992" lon="-0.6061054766">
        <ele>981.16</ele>
        <time>2022-04-14T13:38:45Z</time>
      </trkpt>
      <trkpt lat="42.3232621048" lon="-0.6061976776">
        <ele>981.16</ele>
        <time>2022-04-14T13:38:51Z</time>
      </trkpt>
      <trkpt lat="42.3232862446" lon="-0.6065050419">
        <ele>983.09</ele>
        <time>2022-04-14T13:39:08Z</time>
      </trkpt>
      <trkpt lat="42.3233009130" lon="-0.6067129970">
        <ele>984.53</ele>
        <time>2022-04-14T13:39:22Z</time>
      </trkpt>
      <trkpt lat="42.3233398888" lon="-0.6068707444">
        <ele>985.49</ele>
        <time>2022-04-14T13:39:37Z</time>
      </trkpt>
      <trkpt lat="42.3233575746" lon="-0.6068963930">
        <ele>985.49</ele>
        <time>2022-04-14T13:40:03Z</time>
      </trkpt>
      <trkpt lat="42.3235022463" lon="-0.6070819683">
        <ele>986.93</ele>
        <time>2022-04-14T13:40:18Z</time>
      </trkpt>
      <trkpt lat="42.3235760909" lon="-0.6071748398">
        <ele>986.93</ele>
        <time>2022-04-14T13:40:32Z</time>
      </trkpt>
      <trkpt lat="42.3235921841" lon="-0.6071431562">
        <ele>986.93</ele>
        <time>2022-04-14T13:40:52Z</time>
      </trkpt>
      <trkpt lat="42.3237446509" lon="-0.6072418950">
        <ele>986.93</ele>
        <time>2022-04-14T13:41:05Z</time>
      </trkpt>
      <trkpt lat="42.3238707986" lon="-0.6072521210">
        <ele>987.41</ele>
        <time>2022-04-14T13:41:16Z</time>
      </trkpt>
      <trkpt lat="42.3239595629" lon="-0.6071837246">
        <ele>988.37</ele>
        <time>2022-04-14T13:41:24Z</time>
      </trkpt>
      <trkpt lat="42.3241333198" lon="-0.6070248038">
        <ele>988.85</ele>
        <time>2022-04-14T13:41:41Z</time>
      </trkpt>
      <trkpt lat="42.3242539354" lon="-0.6069332734">
        <ele>987.41</ele>
        <time>2022-04-14T13:41:51Z</time>
      </trkpt>
      <trkpt lat="42.3242940847" lon="-0.6069341954">
        <ele>986.93</ele>
        <time>2022-04-14T13:41:54Z</time>
      </trkpt>
      <trkpt lat="42.3243226670" lon="-0.6069714110">
        <ele>986.93</ele>
        <time>2022-04-14T13:41:57Z</time>
      </trkpt>
      <trkpt lat="42.3243210744" lon="-0.6072380394">
        <ele>988.37</ele>
        <time>2022-04-14T13:42:11Z</time>
      </trkpt>
      <trkpt lat="42.3243267741" lon="-0.6073941942">
        <ele>986.93</ele>
        <time>2022-04-14T13:42:21Z</time>
      </trkpt>
      <trkpt lat="42.3243276961" lon="-0.6075504329">
        <ele>986.93</ele>
        <time>2022-04-14T13:42:31Z</time>
      </trkpt>
      <trkpt lat="42.3243219964" lon="-0.6075751595">
        <ele>988.37</ele>
        <time>2022-04-14T13:42:33Z</time>
      </trkpt>
      <trkpt lat="42.3243124411" lon="-0.6076239422">
        <ele>989.81</ele>
        <time>2022-04-14T13:42:37Z</time>
      </trkpt>
      <trkpt lat="42.3243124411" lon="-0.6076478306">
        <ele>989.81</ele>
        <time>2022-04-14T13:42:39Z</time>
      </trkpt>
      <trkpt lat="42.3243086692" lon="-0.6077174004">
        <ele>990.30</ele>
        <time>2022-04-14T13:42:44Z</time>
      </trkpt>
      <trkpt lat="42.3243175540" lon="-0.6079546921">
        <ele>993.18</ele>
        <time>2022-04-14T13:43:00Z</time>
      </trkpt>
      <trkpt lat="42.3243333958" lon="-0.6080349907">
        <ele>993.66</ele>
        <time>2022-04-14T13:43:05Z</time>
      </trkpt>
      <trkpt lat="42.3243884649" lon="-0.6082545128">
        <ele>996.06</ele>
        <time>2022-04-14T13:43:23Z</time>
      </trkpt>
      <trkpt lat="42.3244324699" lon="-0.6084344722">
        <ele>997.99</ele>
        <time>2022-04-14T13:43:41Z</time>
      </trkpt>
      <trkpt lat="42.3244786542" lon="-0.6085424311">
        <ele>998.95</ele>
        <time>2022-04-14T13:43:49Z</time>
      </trkpt>
      <trkpt lat="42.3244939931" lon="-0.6086917967">
        <ele>1002.79</ele>
        <time>2022-04-14T13:44:02Z</time>
      </trkpt>
      <trkpt lat="42.3244942445" lon="-0.6087040342">
        <ele>1002.79</ele>
        <time>2022-04-14T13:44:03Z</time>
      </trkpt>
      <trkpt lat="42.3245255928" lon="-0.6088929623">
        <ele>1003.27</ele>
        <time>2022-04-14T13:44:17Z</time>
      </trkpt>
      <trkpt lat="42.3245531693" lon="-0.6089709979">
        <ele>1003.75</ele>
        <time>2022-04-14T13:44:29Z</time>
      </trkpt>
      <trkpt lat="42.3245524988" lon="-0.6089907791">
        <ele>1003.75</ele>
        <time>2022-04-14T13:44:33Z</time>
      </trkpt>
      <trkpt lat="42.3245880380" lon="-0.6091256440">
        <ele>1003.75</ele>
        <time>2022-04-14T13:44:42Z</time>
      </trkpt>
      <trkpt lat="42.3246119265" lon="-0.6091827247">
        <ele>1003.75</ele>
        <time>2022-04-14T13:44:46Z</time>
      </trkpt>
      <trkpt lat="42.3246652354" lon="-0.6093832199">
        <ele>1003.75</ele>
        <time>2022-04-14T13:45:00Z</time>
      </trkpt>
      <trkpt lat="42.3247602023" lon="-0.6095771771">
        <ele>1004.72</ele>
        <time>2022-04-14T13:45:15Z</time>
      </trkpt>
      <trkpt lat="42.3248212226" lon="-0.6095646042">
        <ele>1006.64</ele>
        <time>2022-04-14T13:45:29Z</time>
      </trkpt>
      <trkpt lat="42.3248967435" lon="-0.6094551366">
        <ele>1009.04</ele>
        <time>2022-04-14T13:45:42Z</time>
      </trkpt>
      <trkpt lat="42.3249850888" lon="-0.6093332637">
        <ele>1012.41</ele>
        <time>2022-04-14T13:45:55Z</time>
      </trkpt>
      <trkpt lat="42.3249868490" lon="-0.6093272287">
        <ele>1012.41</ele>
        <time>2022-04-14T13:45:56Z</time>
      </trkpt>
      <trkpt lat="42.3250723444" lon="-0.6092394702">
        <ele>1014.81</ele>
        <time>2022-04-14T13:46:10Z</time>
      </trkpt>
      <trkpt lat="42.3251243122" lon="-0.6091968063">
        <ele>1016.25</ele>
        <time>2022-04-14T13:46:17Z</time>
      </trkpt>
      <trkpt lat="42.3252528068" lon="-0.6091381330">
        <ele>1019.13</ele>
        <time>2022-04-14T13:46:32Z</time>
      </trkpt>
      <trkpt lat="42.3253679741" lon="-0.6090069562">
        <ele>1022.50</ele>
        <time>2022-04-14T13:46:48Z</time>
      </trkpt>
      <trkpt lat="42.3254776094" lon="-0.6088668946">
        <ele>1025.38</ele>
        <time>2022-04-14T13:47:04Z</time>
      </trkpt>
      <trkpt lat="42.3255914357" lon="-0.6087329518">
        <ele>1028.75</ele>
        <time>2022-04-14T13:47:20Z</time>
      </trkpt>
      <trkpt lat="42.3257028311" lon="-0.6085136812">
        <ele>1031.15</ele>
        <time>2022-04-14T13:47:38Z</time>
      </trkpt>
      <trkpt lat="42.3258327506" lon="-0.6083086599">
        <ele>1033.55</ele>
        <time>2022-04-14T13:47:56Z</time>
      </trkpt>
      <trkpt lat="42.3259008955" lon="-0.6083488092">
        <ele>1034.52</ele>
        <time>2022-04-14T13:48:05Z</time>
      </trkpt>
      <trkpt lat="42.3257866502" lon="-0.6086329557">
        <ele>1036.44</ele>
        <time>2022-04-14T13:48:24Z</time>
      </trkpt>
      <trkpt lat="42.3257554695" lon="-0.6087394059">
        <ele>1036.44</ele>
        <time>2022-04-14T13:48:39Z</time>
      </trkpt>
      <trkpt lat="42.3257556371" lon="-0.6087487936">
        <ele>1036.44</ele>
        <time>2022-04-14T13:48:47Z</time>
      </trkpt>
      <trkpt lat="42.3258660268" lon="-0.6089125760">
        <ele>1039.32</ele>
        <time>2022-04-14T13:49:04Z</time>
      </trkpt>
      <trkpt lat="42.3258809466" lon="-0.6089233048">
        <ele>1040.28</ele>
        <time>2022-04-14T13:49:06Z</time>
      </trkpt>
      <trkpt lat="42.3259123787" lon="-0.6090293359">
        <ele>1040.28</ele>
        <time>2022-04-14T13:49:15Z</time>
      </trkpt>
      <trkpt lat="42.3259477504" lon="-0.6093154941">
        <ele>1040.28</ele>
        <time>2022-04-14T13:49:33Z</time>
      </trkpt>
      <trkpt lat="42.3259364348" lon="-0.6094338465">
        <ele>1040.28</ele>
        <time>2022-04-14T13:49:51Z</time>
      </trkpt>
      <trkpt lat="42.3259314895" lon="-0.6095485110">
        <ele>1040.76</ele>
        <time>2022-04-14T13:49:57Z</time>
      </trkpt>
      <trkpt lat="42.3259098642" lon="-0.6096274685">
        <ele>1040.76</ele>
        <time>2022-04-14T13:50:02Z</time>
      </trkpt>
      <trkpt lat="42.3258760851" lon="-0.6098635867">
        <ele>1041.25</ele>
        <time>2022-04-14T13:50:17Z</time>
      </trkpt>
      <trkpt lat="42.3258560523" lon="-0.6100863777">
        <ele>1041.73</ele>
        <time>2022-04-14T13:50:30Z</time>
      </trkpt>
      <trkpt lat="42.3258606624" lon="-0.6102748867">
        <ele>1042.21</ele>
        <time>2022-04-14T13:50:44Z</time>
      </trkpt>
      <trkpt lat="42.3259060923" lon="-0.6105480529">
        <ele>1044.13</ele>
        <time>2022-04-14T13:50:57Z</time>
      </trkpt>
      <trkpt lat="42.3259004764" lon="-0.6106405053">
        <ele>1044.61</ele>
        <time>2022-04-14T13:51:02Z</time>
      </trkpt>
      <trkpt lat="42.3258925136" lon="-0.6106955744">
        <ele>1044.61</ele>
        <time>2022-04-14T13:51:07Z</time>
      </trkpt>
      <trkpt lat="42.3258927651" lon="-0.6108315289">
        <ele>1045.57</ele>
        <time>2022-04-14T13:51:13Z</time>
      </trkpt>
      <trkpt lat="42.3258708045" lon="-0.6110715866">
        <ele>1045.57</ele>
        <time>2022-04-14T13:51:26Z</time>
      </trkpt>
      <trkpt lat="42.3259517737" lon="-0.6112759374">
        <ele>1047.97</ele>
        <time>2022-04-14T13:51:41Z</time>
      </trkpt>
      <trkpt lat="42.3260951042" lon="-0.6112696510">
        <ele>1049.90</ele>
        <time>2022-04-14T13:51:52Z</time>
      </trkpt>
      <trkpt lat="42.3261308949" lon="-0.6112082954">
        <ele>1049.90</ele>
        <time>2022-04-14T13:51:56Z</time>
      </trkpt>
      <trkpt lat="42.3261909932" lon="-0.6109575089">
        <ele>1050.38</ele>
        <time>2022-04-14T13:52:11Z</time>
      </trkpt>
      <trkpt lat="42.3262692802" lon="-0.6107269228">
        <ele>1050.38</ele>
        <time>2022-04-14T13:52:24Z</time>
      </trkpt>
      <trkpt lat="42.3263610620" lon="-0.6105358154">
        <ele>1050.38</ele>
        <time>2022-04-14T13:52:38Z</time>
      </trkpt>
      <trkpt lat="42.3264412768" lon="-0.6102775689">
        <ele>1051.82</ele>
        <time>2022-04-14T13:52:53Z</time>
      </trkpt>
      <trkpt lat="42.3265696876" lon="-0.6101090088">
        <ele>1053.26</ele>
        <time>2022-04-14T13:53:05Z</time>
      </trkpt>
      <trkpt lat="42.3266950808" lon="-0.6099746469">
        <ele>1056.63</ele>
        <time>2022-04-14T13:53:19Z</time>
      </trkpt>
      <trkpt lat="42.3268619645" lon="-0.6098870561">
        <ele>1059.03</ele>
        <time>2022-04-14T13:53:35Z</time>
      </trkpt>
      <trkpt lat="42.3269006051" lon="-0.6098759919">
        <ele>1059.99</ele>
        <time>2022-04-14T13:53:38Z</time>
      </trkpt>
      <trkpt lat="42.3269332945" lon="-0.6098461524">
        <ele>1059.99</ele>
        <time>2022-04-14T13:53:49Z</time>
      </trkpt>
      <trkpt lat="42.3269591108" lon="-0.6098989584">
        <ele>1059.99</ele>
        <time>2022-04-14T13:53:53Z</time>
      </trkpt>
      <trkpt lat="42.3269778024" lon="-0.6099464837">
        <ele>1059.99</ele>
        <time>2022-04-14T13:53:56Z</time>
      </trkpt>
      <trkpt lat="42.3270168621" lon="-0.6099617388">
        <ele>1059.51</ele>
        <time>2022-04-14T13:54:10Z</time>
      </trkpt>
      <trkpt lat="42.3270254117" lon="-0.6099738926">
        <ele>1055.18</ele>
        <time>2022-04-14T13:54:18Z</time>
      </trkpt>
      <trkpt lat="42.3270253278" lon="-0.6099738088">
        <ele>1059.51</ele>
        <time>2022-04-14T13:54:19Z</time>
      </trkpt>
      <trkpt lat="42.3270242382" lon="-0.6099746469">
        <ele>1063.84</ele>
        <time>2022-04-14T13:54:20Z</time>
      </trkpt>
      <trkpt lat="42.3270230647" lon="-0.6099761557">
        <ele>1059.99</ele>
        <time>2022-04-14T13:54:21Z</time>
      </trkpt>
      <trkpt lat="42.3270208016" lon="-0.6099817716">
        <ele>1061.43</ele>
        <time>2022-04-14T13:54:25Z</time>
      </trkpt>
      <trkpt lat="42.3270171974" lon="-0.6099834479">
        <ele>1059.99</ele>
        <time>2022-04-14T13:54:27Z</time>
      </trkpt>
      <trkpt lat="42.3270089831" lon="-0.6099635828">
        <ele>1060.95</ele>
        <time>2022-04-14T13:54:58Z</time>
      </trkpt>
      <trkpt lat="42.3270115815" lon="-0.6099680252">
        <ele>1058.07</ele>
        <time>2022-04-14T13:55:19Z</time>
      </trkpt>
      <trkpt lat="42.3270119168" lon="-0.6099678576">
        <ele>1062.87</ele>
        <time>2022-04-14T13:55:21Z</time>
      </trkpt>
      <trkpt lat="42.3270097375" lon="-0.6099682767">
        <ele>1057.11</ele>
        <time>2022-04-14T13:55:22Z</time>
      </trkpt>
      <trkpt lat="42.3270082287" lon="-0.6099692825">
        <ele>1063.36</ele>
        <time>2022-04-14T13:55:23Z</time>
      </trkpt>
      <trkpt lat="42.3270073906" lon="-0.6099699531">
        <ele>1059.99</ele>
        <time>2022-04-14T13:55:24Z</time>
      </trkpt>
      <trkpt lat="42.3270015232" lon="-0.6099344976">
        <ele>1059.99</ele>
        <time>2022-04-14T13:55:37Z</time>
      </trkpt>
      <trkpt lat="42.3269995954" lon="-0.6099413708">
        <ele>1059.03</ele>
        <time>2022-04-14T13:55:55Z</time>
      </trkpt>
      <trkpt lat="42.3270267528" lon="-0.6098574679">
        <ele>1059.03</ele>
        <time>2022-04-14T13:56:17Z</time>
      </trkpt>
      <trkpt lat="42.3270552512" lon="-0.6099148002">
        <ele>1059.03</ele>
        <time>2022-04-14T13:56:36Z</time>
      </trkpt>
      <trkpt lat="42.3269928060" lon="-0.6098273769">
        <ele>1059.03</ele>
        <time>2022-04-14T13:56:48Z</time>
      </trkpt>
      <trkpt lat="42.3269721866" lon="-0.6098137982">
        <ele>1059.99</ele>
        <time>2022-04-14T13:56:56Z</time>
      </trkpt>
      <trkpt lat="42.3269323725" lon="-0.6097421329">
        <ele>1059.51</ele>
        <time>2022-04-14T13:57:16Z</time>
      </trkpt>
      <trkpt lat="42.3269403353" lon="-0.6097563822">
        <ele>1059.51</ele>
        <time>2022-04-14T13:57:35Z</time>
      </trkpt>
      <trkpt lat="42.3269327916" lon="-0.6097626686">
        <ele>1059.51</ele>
        <time>2022-04-14T13:57:58Z</time>
      </trkpt>
      <trkpt lat="42.3268555105" lon="-0.6097731460">
        <ele>1059.03</ele>
        <time>2022-04-14T13:58:22Z</time>
      </trkpt>
      <trkpt lat="42.3267618008" lon="-0.6097667757">
        <ele>1059.03</ele>
        <time>2022-04-14T13:58:45Z</time>
      </trkpt>
      <trkpt lat="42.3268156964" lon="-0.6096894946">
        <ele>1058.55</ele>
        <time>2022-04-14T13:59:11Z</time>
      </trkpt>
      <trkpt lat="42.3268409260" lon="-0.6096661091">
        <ele>1058.55</ele>
        <time>2022-04-14T13:59:38Z</time>
      </trkpt>
      <trkpt lat="42.3268587794" lon="-0.6096718088">
        <ele>1060.47</ele>
        <time>2022-04-14T13:59:43Z</time>
      </trkpt>
      <trkpt lat="42.3268301133" lon="-0.6096626725">
        <ele>1059.99</ele>
        <time>2022-04-14T14:00:12Z</time>
      </trkpt>
      <trkpt lat="42.3268261738" lon="-0.6096551288">
        <ele>1059.03</ele>
        <time>2022-04-14T14:00:27Z</time>
      </trkpt>
      <trkpt lat="42.3267796542" lon="-0.6096837949">
        <ele>1059.99</ele>
        <time>2022-04-14T14:00:30Z</time>
      </trkpt>
      <trkpt lat="42.3268039618" lon="-0.6097332481">
        <ele>1060.95</ele>
        <time>2022-04-14T14:00:51Z</time>
      </trkpt>
      <trkpt lat="42.3268109187" lon="-0.6097318232">
        <ele>1059.51</ele>
        <time>2022-04-14T14:00:53Z</time>
      </trkpt>
      <trkpt lat="42.3268829193" lon="-0.6097078510">
        <ele>1059.51</ele>
        <time>2022-04-14T14:01:17Z</time>
      </trkpt>
      <trkpt lat="42.3270076420" lon="-0.6097187474">
        <ele>1059.03</ele>
        <time>2022-04-14T14:01:35Z</time>
      </trkpt>
      <trkpt lat="42.3271242343" lon="-0.6096338388">
        <ele>1058.55</ele>
        <time>2022-04-14T14:02:02Z</time>
      </trkpt>
      <trkpt lat="42.3270685785" lon="-0.6096377783">
        <ele>1058.55</ele>
        <time>2022-04-14T14:02:09Z</time>
      </trkpt>
      <trkpt lat="42.3266338091" lon="-0.6096172426">
        <ele>1058.55</ele>
        <time>2022-04-14T14:02:29Z</time>
      </trkpt>
      <trkpt lat="42.3265773989" lon="-0.6096267980">
        <ele>1059.51</ele>
        <time>2022-04-14T14:02:35Z</time>
      </trkpt>
      <trkpt lat="42.3266266845" lon="-0.6096503511">
        <ele>1059.51</ele>
        <time>2022-04-14T14:02:54Z</time>
      </trkpt>
      <trkpt lat="42.3267020378" lon="-0.6096572243">
        <ele>1059.51</ele>
        <time>2022-04-14T14:03:19Z</time>
      </trkpt>
      <trkpt lat="42.3267670814" lon="-0.6097211782">
        <ele>1059.51</ele>
        <time>2022-04-14T14:03:43Z</time>
      </trkpt>
      <trkpt lat="42.3267752118" lon="-0.6096603256">
        <ele>1059.99</ele>
        <time>2022-04-14T14:04:05Z</time>
      </trkpt>
      <trkpt lat="42.3267944064" lon="-0.6096314080">
        <ele>1059.03</ele>
        <time>2022-04-14T14:04:30Z</time>
      </trkpt>
      <trkpt lat="42.3268344719" lon="-0.6096889917">
        <ele>1059.03</ele>
        <time>2022-04-14T14:04:39Z</time>
      </trkpt>
      <trkpt lat="42.3269623797" lon="-0.6097239442">
        <ele>1059.03</ele>
        <time>2022-04-14T14:04:59Z</time>
      </trkpt>
      <trkpt lat="42.3269328754" lon="-0.6097214296">
        <ele>1059.03</ele>
        <time>2022-04-14T14:05:25Z</time>
      </trkpt>
      <trkpt lat="42.3268586118" lon="-0.6096962839">
        <ele>1059.51</ele>
        <time>2022-04-14T14:05:45Z</time>
      </trkpt>
      <trkpt lat="42.3268762138" lon="-0.6096955296">
        <ele>1056.63</ele>
        <time>2022-04-14T14:06:06Z</time>
      </trkpt>
      <trkpt lat="42.3268806562" lon="-0.6096857227">
        <ele>1056.63</ele>
        <time>2022-04-14T14:06:07Z</time>
      </trkpt>
      <trkpt lat="42.3268838413" lon="-0.6096779276">
        <ele>1061.43</ele>
        <time>2022-04-14T14:06:08Z</time>
      </trkpt>
      <trkpt lat="42.3268866912" lon="-0.6096718088">
        <ele>1057.59</ele>
        <time>2022-04-14T14:06:09Z</time>
      </trkpt>
      <trkpt lat="42.3268899601" lon="-0.6096666120">
        <ele>1060.95</ele>
        <time>2022-04-14T14:06:10Z</time>
      </trkpt>
      <trkpt lat="42.3268969171" lon="-0.6097291410">
        <ele>1059.51</ele>
        <time>2022-04-14T14:06:30Z</time>
      </trkpt>
      <trkpt lat="42.3268092424" lon="-0.6096905842">
        <ele>1059.51</ele>
        <time>2022-04-14T14:06:52Z</time>
      </trkpt>
      <trkpt lat="42.3268684186" lon="-0.6097331643">
        <ele>1059.51</ele>
        <time>2022-04-14T14:07:07Z</time>
      </trkpt>
      <trkpt lat="42.3269477114" lon="-0.6096322462">
        <ele>1059.51</ele>
        <time>2022-04-14T14:07:27Z</time>
      </trkpt>
      <trkpt lat="42.3269006051" lon="-0.6096450705">
        <ele>1059.51</ele>
        <time>2022-04-14T14:07:48Z</time>
      </trkpt>
      <trkpt lat="42.3268384114" lon="-0.6096776761">
        <ele>1059.51</ele>
        <time>2022-04-14T14:08:14Z</time>
      </trkpt>
      <trkpt lat="42.3268568516" lon="-0.6096245348">
        <ele>1059.51</ele>
        <time>2022-04-14T14:08:36Z</time>
      </trkpt>
      <trkpt lat="42.3268589471" lon="-0.6096071005">
        <ele>1059.51</ele>
        <time>2022-04-14T14:08:37Z</time>
      </trkpt>
      <trkpt lat="42.3268731963" lon="-0.6096927635">
        <ele>1059.51</ele>
        <time>2022-04-14T14:08:48Z</time>
      </trkpt>
      <trkpt lat="42.3268463742" lon="-0.6097000558">
        <ele>1059.03</ele>
        <time>2022-04-14T14:09:14Z</time>
      </trkpt>
      <trkpt lat="42.3268467095" lon="-0.6096855551">
        <ele>1059.03</ele>
        <time>2022-04-14T14:09:47Z</time>
      </trkpt>
      <trkpt lat="42.3268464580" lon="-0.6096801069">
        <ele>1058.55</ele>
        <time>2022-04-14T14:10:17Z</time>
      </trkpt>
      <trkpt lat="42.3268457875" lon="-0.6096677855">
        <ele>1058.55</ele>
        <time>2022-04-14T14:10:45Z</time>
      </trkpt>
      <trkpt lat="42.3268445302" lon="-0.6096910033">
        <ele>1059.03</ele>
        <time>2022-04-14T14:11:17Z</time>
      </trkpt>
      <trkpt lat="42.3268729448" lon="-0.6097370200">
        <ele>1059.99</ele>
        <time>2022-04-14T14:11:53Z</time>
      </trkpt>
      <trkpt lat="42.3268861044" lon="-0.6097183283">
        <ele>1060.47</ele>
        <time>2022-04-14T14:12:24Z</time>
      </trkpt>
      <trkpt lat="42.3268612102" lon="-0.6096895784">
        <ele>1060.47</ele>
        <time>2022-04-14T14:12:55Z</time>
      </trkpt>
      <trkpt lat="42.3268805724" lon="-0.6096797716">
        <ele>1060.47</ele>
        <time>2022-04-14T14:13:28Z</time>
      </trkpt>
      <trkpt lat="42.3268752918" lon="-0.6096801907">
        <ele>1060.47</ele>
        <time>2022-04-14T14:14:00Z</time>
      </trkpt>
      <trkpt lat="42.3268711846" lon="-0.6096907519">
        <ele>1060.95</ele>
        <time>2022-04-14T14:14:04Z</time>
      </trkpt>
      <trkpt lat="42.3268524930" lon="-0.6097202562">
        <ele>1061.43</ele>
        <time>2022-04-14T14:14:08Z</time>
      </trkpt>
      <trkpt lat="42.3268557619" lon="-0.6097905803">
        <ele>1061.43</ele>
        <time>2022-04-14T14:14:12Z</time>
      </trkpt>
      <trkpt lat="42.3269592784" lon="-0.6100572925">
        <ele>1061.91</ele>
        <time>2022-04-14T14:14:30Z</time>
      </trkpt>
      <trkpt lat="42.3269814905" lon="-0.6101141218">
        <ele>1044.61</ele>
        <time>2022-04-14T14:14:34Z</time>
      </trkpt>
      <trkpt lat="42.3269927222" lon="-0.6101398543">
        <ele>1084.02</ele>
        <time>2022-04-14T14:14:36Z</time>
      </trkpt>
      <trkpt lat="42.3270002659" lon="-0.6101510022">
        <ele>1046.53</ele>
        <time>2022-04-14T14:14:37Z</time>
      </trkpt>
      <trkpt lat="42.3270125873" lon="-0.6101608090">
        <ele>1082.58</ele>
        <time>2022-04-14T14:14:38Z</time>
      </trkpt>
      <trkpt lat="42.3270251602" lon="-0.6101700291">
        <ele>1071.05</ele>
        <time>2022-04-14T14:14:39Z</time>
      </trkpt>
      <trkpt lat="42.3270347994" lon="-0.6101806741">
        <ele>1064.32</ele>
        <time>2022-04-14T14:14:40Z</time>
      </trkpt>
      <trkpt lat="42.3271410819" lon="-0.6102350727">
        <ele>1062.87</ele>
        <time>2022-04-14T14:14:50Z</time>
      </trkpt>
      <trkpt lat="42.3272416648" lon="-0.6102375034">
        <ele>1063.84</ele>
        <time>2022-04-14T14:15:06Z</time>
      </trkpt>
      <trkpt lat="42.3272744380" lon="-0.6101835240">
        <ele>1063.84</ele>
        <time>2022-04-14T14:15:31Z</time>
      </trkpt>
      <trkpt lat="42.3273068760" lon="-0.6101427879">
        <ele>1064.32</ele>
        <time>2022-04-14T14:15:54Z</time>
      </trkpt>
      <trkpt lat="42.3273481149" lon="-0.6101392675">
        <ele>1064.80</ele>
        <time>2022-04-14T14:15:59Z</time>
      </trkpt>
      <trkpt lat="42.3275193572" lon="-0.6100894790">
        <ele>1066.72</ele>
        <time>2022-04-14T14:16:17Z</time>
      </trkpt>
      <trkpt lat="42.3276484385" lon="-0.6100235973">
        <ele>1067.20</ele>
        <time>2022-04-14T14:16:30Z</time>
      </trkpt>
      <trkpt lat="42.3276952095" lon="-0.6099014729">
        <ele>1069.12</ele>
        <time>2022-04-14T14:16:46Z</time>
      </trkpt>
      <trkpt lat="42.3276883364" lon="-0.6099005509">
        <ele>1069.12</ele>
        <time>2022-04-14T14:17:07Z</time>
      </trkpt>
      <trkpt lat="42.3277051002" lon="-0.6098726392">
        <ele>1069.12</ele>
        <time>2022-04-14T14:17:09Z</time>
      </trkpt>
      <trkpt lat="42.3277619295" lon="-0.6096728146">
        <ele>1071.05</ele>
        <time>2022-04-14T14:17:22Z</time>
      </trkpt>
      <trkpt lat="42.3278238717" lon="-0.6094958726">
        <ele>1073.45</ele>
        <time>2022-04-14T14:17:37Z</time>
      </trkpt>
      <trkpt lat="42.3278426472" lon="-0.6094501074">
        <ele>1073.45</ele>
        <time>2022-04-14T14:17:45Z</time>
      </trkpt>
      <trkpt lat="42.3279298190" lon="-0.6093126442">
        <ele>1075.37</ele>
        <time>2022-04-14T14:17:58Z</time>
      </trkpt>
      <trkpt lat="42.3279331718" lon="-0.6093041785">
        <ele>1075.37</ele>
        <time>2022-04-14T14:17:59Z</time>
      </trkpt>
      <trkpt lat="42.3279975448" lon="-0.6091812160">
        <ele>1077.29</ele>
        <time>2022-04-14T14:18:09Z</time>
      </trkpt>
      <trkpt lat="42.3280434776" lon="-0.6090730056">
        <ele>1078.74</ele>
        <time>2022-04-14T14:18:22Z</time>
      </trkpt>
      <trkpt lat="42.3280808609" lon="-0.6089932937">
        <ele>1080.18</ele>
        <time>2022-04-14T14:18:34Z</time>
      </trkpt>
      <trkpt lat="42.3280867282" lon="-0.6089984905">
        <ele>1080.18</ele>
        <time>2022-04-14T14:18:44Z</time>
      </trkpt>
      <trkpt lat="42.3281718045" lon="-0.6088704150">
        <ele>1081.14</ele>
        <time>2022-04-14T14:18:56Z</time>
      </trkpt>
      <trkpt lat="42.3281998839" lon="-0.6088417489">
        <ele>1082.10</ele>
        <time>2022-04-14T14:19:01Z</time>
      </trkpt>
      <trkpt lat="42.3283062503" lon="-0.6087264139">
        <ele>1084.02</ele>
        <time>2022-04-14T14:19:14Z</time>
      </trkpt>
      <trkpt lat="42.3284361698" lon="-0.6086079776">
        <ele>1086.91</ele>
        <time>2022-04-14T14:19:27Z</time>
      </trkpt>
      <trkpt lat="42.3285074998" lon="-0.6085459515">
        <ele>1088.83</ele>
        <time>2022-04-14T14:19:36Z</time>
      </trkpt>
      <trkpt lat="42.3286063224" lon="-0.6084051356">
        <ele>1090.75</ele>
        <time>2022-04-14T14:19:49Z</time>
      </trkpt>
      <trkpt lat="42.3287129402" lon="-0.6083037984">
        <ele>1092.20</ele>
        <time>2022-04-14T14:20:01Z</time>
      </trkpt>
      <trkpt lat="42.3287974298" lon="-0.6082186382">
        <ele>1094.60</ele>
        <time>2022-04-14T14:20:13Z</time>
      </trkpt>
      <trkpt lat="42.3288315441" lon="-0.6081857812">
        <ele>1095.08</ele>
        <time>2022-04-14T14:20:18Z</time>
      </trkpt>
      <trkpt lat="42.3289736174" lon="-0.6081315503">
        <ele>1096.52</ele>
        <time>2022-04-14T14:20:31Z</time>
      </trkpt>
      <trkpt lat="42.3290818278" lon="-0.6080552749">
        <ele>1098.92</ele>
        <time>2022-04-14T14:20:43Z</time>
      </trkpt>
      <trkpt lat="42.3292216379" lon="-0.6079457235">
        <ele>1101.81</ele>
        <time>2022-04-14T14:20:56Z</time>
      </trkpt>
      <trkpt lat="42.3293104023" lon="-0.6078857929">
        <ele>1103.25</ele>
        <time>2022-04-14T14:21:08Z</time>
      </trkpt>
      <trkpt lat="42.3293867614" lon="-0.6078619882">
        <ele>1105.17</ele>
        <time>2022-04-14T14:21:18Z</time>
      </trkpt>
      <trkpt lat="42.3294604383" lon="-0.6079420354">
        <ele>1108.06</ele>
        <time>2022-04-14T14:21:29Z</time>
      </trkpt>
      <trkpt lat="42.3294960614" lon="-0.6079539377">
        <ele>1108.54</ele>
        <time>2022-04-14T14:21:46Z</time>
      </trkpt>
      <trkpt lat="42.3294759449" lon="-0.6079007126">
        <ele>1109.02</ele>
        <time>2022-04-14T14:22:19Z</time>
      </trkpt>
      <trkpt lat="42.3295447603" lon="-0.6078720465">
        <ele>1109.50</ele>
        <time>2022-04-14T14:22:31Z</time>
      </trkpt>
      <trkpt lat="42.3296172637" lon="-0.6078597251">
        <ele>1112.38</ele>
        <time>2022-04-14T14:22:43Z</time>
      </trkpt>
      <trkpt lat="42.3296963051" lon="-0.6077963579">
        <ele>1114.79</ele>
        <time>2022-04-14T14:22:55Z</time>
      </trkpt>
      <trkpt lat="42.3298053537" lon="-0.6077379361">
        <ele>1117.19</ele>
        <time>2022-04-14T14:23:08Z</time>
      </trkpt>
      <trkpt lat="42.3298192676" lon="-0.6077236868">
        <ele>1117.67</ele>
        <time>2022-04-14T14:23:10Z</time>
      </trkpt>
      <trkpt lat="42.3299123067" lon="-0.6077458151">
        <ele>1120.55</ele>
        <time>2022-04-14T14:23:21Z</time>
      </trkpt>
      <trkpt lat="42.3299850617" lon="-0.6079441309">
        <ele>1123.44</ele>
        <time>2022-04-14T14:23:36Z</time>
      </trkpt>
      <trkpt lat="42.3299889173" lon="-0.6080536824">
        <ele>1125.84</ele>
        <time>2022-04-14T14:23:49Z</time>
      </trkpt>
      <trkpt lat="42.3300271388" lon="-0.6081557740">
        <ele>1127.28</ele>
        <time>2022-04-14T14:23:56Z</time>
      </trkpt>
      <trkpt lat="42.3300263006" lon="-0.6083648186">
        <ele>1130.17</ele>
        <time>2022-04-14T14:24:10Z</time>
      </trkpt>
      <trkpt lat="42.3300101236" lon="-0.6084231567">
        <ele>1130.65</ele>
        <time>2022-04-14T14:24:14Z</time>
      </trkpt>
      <trkpt lat="42.3300180864" lon="-0.6085442752">
        <ele>1132.57</ele>
        <time>2022-04-14T14:24:22Z</time>
      </trkpt>
      <trkpt lat="42.3300127219" lon="-0.6086638011">
        <ele>1134.01</ele>
        <time>2022-04-14T14:24:31Z</time>
      </trkpt>
      <trkpt lat="42.3300540447" lon="-0.6087782141">
        <ele>1137.38</ele>
        <time>2022-04-14T14:24:43Z</time>
      </trkpt>
      <trkpt lat="42.3300762568" lon="-0.6087865960">
        <ele>1137.86</ele>
        <time>2022-04-14T14:24:46Z</time>
      </trkpt>
      <trkpt lat="42.3301548790" lon="-0.6088037789">
        <ele>1140.26</ele>
        <time>2022-04-14T14:24:58Z</time>
      </trkpt>
      <trkpt lat="42.3301722296" lon="-0.6088461913">
        <ele>1141.70</ele>
        <time>2022-04-14T14:25:02Z</time>
      </trkpt>
      <trkpt lat="42.3302370217" lon="-0.6089973170">
        <ele>1144.59</ele>
        <time>2022-04-14T14:25:16Z</time>
      </trkpt>
      <trkpt lat="42.3302366864" lon="-0.6090325210">
        <ele>1145.07</ele>
        <time>2022-04-14T14:25:18Z</time>
      </trkpt>
      <trkpt lat="42.3302790988" lon="-0.6091844849">
        <ele>1147.47</ele>
        <time>2022-04-14T14:25:31Z</time>
      </trkpt>
      <trkpt lat="42.3303356767" lon="-0.6093506981">
        <ele>1150.84</ele>
        <time>2022-04-14T14:25:42Z</time>
      </trkpt>
      <trkpt lat="42.3303867225" lon="-0.6094892509">
        <ele>1154.20</ele>
        <time>2022-04-14T14:25:56Z</time>
      </trkpt>
      <trkpt lat="42.3303901590" lon="-0.6094941124">
        <ele>1154.20</ele>
        <time>2022-04-14T14:25:57Z</time>
      </trkpt>
      <trkpt lat="42.3303472437" lon="-0.6096616667">
        <ele>1156.60</ele>
        <time>2022-04-14T14:26:10Z</time>
      </trkpt>
      <trkpt lat="42.3303148057" lon="-0.6096984632">
        <ele>1158.05</ele>
        <time>2022-04-14T14:26:14Z</time>
      </trkpt>
      <trkpt lat="42.3302965332" lon="-0.6097578071">
        <ele>1158.05</ele>
        <time>2022-04-14T14:26:16Z</time>
      </trkpt>
      <trkpt lat="42.3302804399" lon="-0.6097998843">
        <ele>1159.97</ele>
        <time>2022-04-14T14:26:23Z</time>
      </trkpt>
      <trkpt lat="42.3302852176" lon="-0.6099049933">
        <ele>1161.89</ele>
        <time>2022-04-14T14:26:33Z</time>
      </trkpt>
      <trkpt lat="42.3303354252" lon="-0.6099381018">
        <ele>1162.37</ele>
        <time>2022-04-14T14:26:40Z</time>
      </trkpt>
      <trkpt lat="42.3304626625" lon="-0.6099993736">
        <ele>1164.29</ele>
        <time>2022-04-14T14:26:54Z</time>
      </trkpt>
      <trkpt lat="42.3305299692" lon="-0.6100516766">
        <ele>1166.22</ele>
        <time>2022-04-14T14:27:04Z</time>
      </trkpt>
      <trkpt lat="42.3305976950" lon="-0.6100945082">
        <ele>1168.14</ele>
        <time>2022-04-14T14:27:13Z</time>
      </trkpt>
      <trkpt lat="42.3306178115" lon="-0.6101007108">
        <ele>1168.14</ele>
        <time>2022-04-14T14:27:15Z</time>
      </trkpt>
      <trkpt lat="42.3306388501" lon="-0.6101221684">
        <ele>1168.62</ele>
        <time>2022-04-14T14:27:18Z</time>
      </trkpt>
      <trkpt lat="42.3307377566" lon="-0.6101883017">
        <ele>1170.54</ele>
        <time>2022-04-14T14:27:31Z</time>
      </trkpt>
      <trkpt lat="42.3308069911" lon="-0.6102295406">
        <ele>1173.43</ele>
        <time>2022-04-14T14:27:41Z</time>
      </trkpt>
      <trkpt lat="42.3308382556" lon="-0.6102497410">
        <ele>1174.39</ele>
        <time>2022-04-14T14:27:46Z</time>
      </trkpt>
      <trkpt lat="42.3309516627" lon="-0.6103033014">
        <ele>1175.83</ele>
        <time>2022-04-14T14:27:58Z</time>
      </trkpt>
      <trkpt lat="42.3309670854" lon="-0.6103370804">
        <ele>1176.79</ele>
        <time>2022-04-14T14:28:03Z</time>
      </trkpt>
      <trkpt lat="42.3310580291" lon="-0.6104705203">
        <ele>1179.67</ele>
        <time>2022-04-14T14:28:16Z</time>
      </trkpt>
      <trkpt lat="42.3311014473" lon="-0.6105784792">
        <ele>1182.08</ele>
        <time>2022-04-14T14:28:27Z</time>
      </trkpt>
      <trkpt lat="42.3311382439" lon="-0.6106451154">
        <ele>1183.04</ele>
        <time>2022-04-14T14:28:33Z</time>
      </trkpt>
      <trkpt lat="42.3311594501" lon="-0.6106900424">
        <ele>1184.00</ele>
        <time>2022-04-14T14:28:37Z</time>
      </trkpt>
      <trkpt lat="42.3311806563" lon="-0.6107533257">
        <ele>1184.48</ele>
        <time>2022-04-14T14:28:42Z</time>
      </trkpt>
      <trkpt lat="42.3312238231" lon="-0.6108929683">
        <ele>1185.92</ele>
        <time>2022-04-14T14:28:54Z</time>
      </trkpt>
      <trkpt lat="42.3312490527" lon="-0.6109718420">
        <ele>1187.85</ele>
        <time>2022-04-14T14:29:00Z</time>
      </trkpt>
      <trkpt lat="42.3312762938" lon="-0.6110238936">
        <ele>1188.33</ele>
        <time>2022-04-14T14:29:06Z</time>
      </trkpt>
      <trkpt lat="42.3313365597" lon="-0.6111644581">
        <ele>1190.25</ele>
        <time>2022-04-14T14:29:19Z</time>
      </trkpt>
      <trkpt lat="42.3313432653" lon="-0.6111741811">
        <ele>1190.73</ele>
        <time>2022-04-14T14:29:20Z</time>
      </trkpt>
      <trkpt lat="42.3314204626" lon="-0.6112902705">
        <ele>1193.13</ele>
        <time>2022-04-14T14:29:33Z</time>
      </trkpt>
      <trkpt lat="42.3314789683" lon="-0.6113620196">
        <ele>1196.02</ele>
        <time>2022-04-14T14:29:45Z</time>
      </trkpt>
      <trkpt lat="42.3315197043" lon="-0.6114239618">
        <ele>1198.42</ele>
        <time>2022-04-14T14:29:57Z</time>
      </trkpt>
      <trkpt lat="42.3315706663" lon="-0.6114312541">
        <ele>1199.86</ele>
        <time>2022-04-14T14:30:06Z</time>
      </trkpt>
      <trkpt lat="42.3316334467" lon="-0.6115272269">
        <ele>1202.27</ele>
        <time>2022-04-14T14:30:17Z</time>
      </trkpt>
      <trkpt lat="42.3317068722" lon="-0.6116465852">
        <ele>1204.19</ele>
        <time>2022-04-14T14:30:30Z</time>
      </trkpt>
      <trkpt lat="42.3317866679" lon="-0.6117309909">
        <ele>1206.59</ele>
        <time>2022-04-14T14:30:43Z</time>
      </trkpt>
      <trkpt lat="42.3318278231" lon="-0.6117672008">
        <ele>1208.51</ele>
        <time>2022-04-14T14:30:52Z</time>
      </trkpt>
      <trkpt lat="42.3318930343" lon="-0.6117857248">
        <ele>1210.92</ele>
        <time>2022-04-14T14:31:06Z</time>
      </trkpt>
      <trkpt lat="42.3319491092" lon="-0.6118245330">
        <ele>1212.84</ele>
        <time>2022-04-14T14:31:16Z</time>
      </trkpt>
      <trkpt lat="42.3319226224" lon="-0.6117853895">
        <ele>1213.80</ele>
        <time>2022-04-14T14:31:23Z</time>
      </trkpt>
      <trkpt lat="42.3319217842" lon="-0.6116752513">
        <ele>1216.21</ele>
        <time>2022-04-14T14:31:34Z</time>
      </trkpt>
      <trkpt lat="42.3319305014" lon="-0.6115987245">
        <ele>1216.69</ele>
        <time>2022-04-14T14:31:40Z</time>
      </trkpt>
      <trkpt lat="42.3319850676" lon="-0.6115926895">
        <ele>1218.61</ele>
        <time>2022-04-14T14:31:50Z</time>
      </trkpt>
      <trkpt lat="42.3320033401" lon="-0.6116247922">
        <ele>1219.09</ele>
        <time>2022-04-14T14:31:55Z</time>
      </trkpt>
      <trkpt lat="42.3320520390" lon="-0.6117168255">
        <ele>1221.49</ele>
        <time>2022-04-14T14:32:06Z</time>
      </trkpt>
      <trkpt lat="42.3320730776" lon="-0.6117361877">
        <ele>1222.45</ele>
        <time>2022-04-14T14:32:10Z</time>
      </trkpt>
      <trkpt lat="42.3320975527" lon="-0.6116966251">
        <ele>1223.42</ele>
        <time>2022-04-14T14:32:15Z</time>
      </trkpt>
      <trkpt lat="42.3321114667" lon="-0.6116485968">
        <ele>1224.86</ele>
        <time>2022-04-14T14:32:20Z</time>
      </trkpt>
      <trkpt lat="42.3321176693" lon="-0.6116198469">
        <ele>1225.34</ele>
        <time>2022-04-14T14:32:23Z</time>
      </trkpt>
      <trkpt lat="42.3321445752" lon="-0.6115960423">
        <ele>1226.30</ele>
        <time>2022-04-14T14:32:30Z</time>
      </trkpt>
      <trkpt lat="42.3321791925" lon="-0.6115972996">
        <ele>1227.26</ele>
        <time>2022-04-14T14:32:35Z</time>
      </trkpt>
      <trkpt lat="42.3322582338" lon="-0.6116180867">
        <ele>1228.70</ele>
        <time>2022-04-14T14:32:45Z</time>
      </trkpt>
      <trkpt lat="42.3322899174" lon="-0.6116563082">
        <ele>1230.62</ele>
        <time>2022-04-14T14:32:50Z</time>
      </trkpt>
      <trkpt lat="42.3323505186" lon="-0.6117209326">
        <ele>1232.07</ele>
        <time>2022-04-14T14:32:59Z</time>
      </trkpt>
      <trkpt lat="42.3324672785" lon="-0.6117371097">
        <ele>1233.99</ele>
        <time>2022-04-14T14:33:11Z</time>
      </trkpt>
      <trkpt lat="42.3325991258" lon="-0.6117328350">
        <ele>1234.95</ele>
        <time>2022-04-14T14:33:26Z</time>
      </trkpt>
      <trkpt lat="42.3327263631" lon="-0.6117298175">
        <ele>1236.87</ele>
        <time>2022-04-14T14:33:38Z</time>
      </trkpt>
      <trkpt lat="42.3328687716" lon="-0.6117424741">
        <ele>1238.32</ele>
        <time>2022-04-14T14:33:51Z</time>
      </trkpt>
      <trkpt lat="42.3330058996" lon="-0.6117007323">
        <ele>1239.28</ele>
        <time>2022-04-14T14:34:03Z</time>
      </trkpt>
      <trkpt lat="42.3330888804" lon="-0.6116869859">
        <ele>1239.76</ele>
        <time>2022-04-14T14:34:09Z</time>
      </trkpt>
      <trkpt lat="42.3332146928" lon="-0.6116620079">
        <ele>1240.24</ele>
        <time>2022-04-14T14:34:20Z</time>
      </trkpt>
      <trkpt lat="42.3332883697" lon="-0.6116547994">
        <ele>1240.72</ele>
        <time>2022-04-14T14:34:27Z</time>
      </trkpt>
      <trkpt lat="42.3333148565" lon="-0.6116377003">
        <ele>1241.20</ele>
        <time>2022-04-14T14:34:29Z</time>
      </trkpt>
      <trkpt lat="42.3334058840" lon="-0.6116020773">
        <ele>1241.68</ele>
        <time>2022-04-14T14:34:42Z</time>
      </trkpt>
      <trkpt lat="42.3335293494" lon="-0.6115205213">
        <ele>1237.83</ele>
        <time>2022-04-14T14:34:56Z</time>
      </trkpt>
      <trkpt lat="42.3335363902" lon="-0.6115087867">
        <ele>1245.04</ele>
        <time>2022-04-14T14:34:57Z</time>
      </trkpt>
      <trkpt lat="42.3336442653" lon="-0.6114360318">
        <ele>1244.08</ele>
        <time>2022-04-14T14:35:12Z</time>
      </trkpt>
      <trkpt lat="42.3337160144" lon="-0.6113007478">
        <ele>1245.53</ele>
        <time>2022-04-14T14:35:26Z</time>
      </trkpt>
      <trkpt lat="42.3338029347" lon="-0.6112203654">
        <ele>1246.49</ele>
        <time>2022-04-14T14:35:35Z</time>
      </trkpt>
      <trkpt lat="42.3339480255" lon="-0.6110968161">
        <ele>1249.37</ele>
        <time>2022-04-14T14:35:48Z</time>
      </trkpt>
      <trkpt lat="42.3340713233" lon="-0.6110291742">
        <ele>1251.29</ele>
        <time>2022-04-14T14:36:01Z</time>
      </trkpt>
      <trkpt lat="42.3341081198" lon="-0.6110213790">
        <ele>1252.25</ele>
        <time>2022-04-14T14:36:06Z</time>
      </trkpt>
      <trkpt lat="42.3341788631" lon="-0.6109360512">
        <ele>1253.70</ele>
        <time>2022-04-14T14:36:13Z</time>
      </trkpt>
      <trkpt lat="42.3343206011" lon="-0.6108371448">
        <ele>1254.66</ele>
        <time>2022-04-14T14:36:27Z</time>
      </trkpt>
      <trkpt lat="42.3343728203" lon="-0.6106846780">
        <ele>1256.58</ele>
        <time>2022-04-14T14:36:40Z</time>
      </trkpt>
      <trkpt lat="42.3344066832" lon="-0.6105659902">
        <ele>1258.02</ele>
        <time>2022-04-14T14:36:51Z</time>
      </trkpt>
      <trkpt lat="42.3344290629" lon="-0.6104379147">
        <ele>1259.94</ele>
        <time>2022-04-14T14:36:59Z</time>
      </trkpt>
      <trkpt lat="42.3345039971" lon="-0.6102608889">
        <ele>1261.39</ele>
        <time>2022-04-14T14:37:11Z</time>
      </trkpt>
      <trkpt lat="42.3345578089" lon="-0.6101805903">
        <ele>1262.83</ele>
        <time>2022-04-14T14:37:21Z</time>
      </trkpt>
      <trkpt lat="42.3347417917" lon="-0.6099552847">
        <ele>1264.27</ele>
        <time>2022-04-14T14:37:39Z</time>
      </trkpt>
      <trkpt lat="42.3349163868" lon="-0.6097194180">
        <ele>1265.71</ele>
        <time>2022-04-14T14:37:56Z</time>
      </trkpt>
      <trkpt lat="42.3349944223" lon="-0.6095743272">
        <ele>1266.67</ele>
        <time>2022-04-14T14:38:08Z</time>
      </trkpt>
      <trkpt lat="42.3351754714" lon="-0.6094066892">
        <ele>1267.16</ele>
        <time>2022-04-14T14:38:24Z</time>
      </trkpt>
      <trkpt lat="42.3352513276" lon="-0.6092645321">
        <ele>1267.64</ele>
        <time>2022-04-14T14:38:39Z</time>
      </trkpt>
      <trkpt lat="42.3353957478" lon="-0.6090140808">
        <ele>1268.60</ele>
        <time>2022-04-14T14:38:53Z</time>
      </trkpt>
      <trkpt lat="42.3355141841" lon="-0.6087627076">
        <ele>1269.56</ele>
        <time>2022-04-14T14:39:11Z</time>
      </trkpt>
      <trkpt lat="42.3356776312" lon="-0.6087642163">
        <ele>1271.00</ele>
        <time>2022-04-14T14:39:24Z</time>
      </trkpt>
      <trkpt lat="42.3357097339" lon="-0.6087987497">
        <ele>1271.48</ele>
        <time>2022-04-14T14:39:34Z</time>
      </trkpt>
      <trkpt lat="42.3356634658" lon="-0.6087714247">
        <ele>1271.48</ele>
        <time>2022-04-14T14:39:46Z</time>
      </trkpt>
      <trkpt lat="42.3356643878" lon="-0.6087333709">
        <ele>1271.48</ele>
        <time>2022-04-14T14:39:49Z</time>
      </trkpt>
      <trkpt lat="42.3356313631" lon="-0.6087023579">
        <ele>1271.48</ele>
        <time>2022-04-14T14:39:52Z</time>
      </trkpt>
      <trkpt lat="42.3355881963" lon="-0.6086344644">
        <ele>1270.04</ele>
        <time>2022-04-14T14:39:57Z</time>
      </trkpt>
      <trkpt lat="42.3355661519" lon="-0.6085771322">
        <ele>1270.04</ele>
        <time>2022-04-14T14:40:02Z</time>
      </trkpt>
      <trkpt lat="42.3355751205" lon="-0.6084907986">
        <ele>1271.48</ele>
        <time>2022-04-14T14:40:16Z</time>
      </trkpt>
      <trkpt lat="42.3356533237" lon="-0.6084669940">
        <ele>1271.48</ele>
        <time>2022-04-14T14:40:24Z</time>
      </trkpt>
      <trkpt lat="42.3356752004" lon="-0.6084098294">
        <ele>1271.48</ele>
        <time>2022-04-14T14:40:32Z</time>
      </trkpt>
      <trkpt lat="42.3357755318" lon="-0.6084154453">
        <ele>1271.96</ele>
        <time>2022-04-14T14:40:43Z</time>
      </trkpt>
      <trkpt lat="42.3358226381" lon="-0.6083934009">
        <ele>1272.44</ele>
        <time>2022-04-14T14:40:48Z</time>
      </trkpt>
      <trkpt lat="42.3359274957" lon="-0.6083560176">
        <ele>1272.92</ele>
        <time>2022-04-14T14:41:00Z</time>
      </trkpt>
      <trkpt lat="42.3359445110" lon="-0.6083498988">
        <ele>1272.92</ele>
        <time>2022-04-14T14:41:02Z</time>
      </trkpt>
      <trkpt lat="42.3360907752" lon="-0.6082465500">
        <ele>1274.36</ele>
        <time>2022-04-14T14:41:16Z</time>
      </trkpt>
      <trkpt lat="42.3362349439" lon="-0.6081738789">
        <ele>1275.81</ele>
        <time>2022-04-14T14:41:28Z</time>
      </trkpt>
      <trkpt lat="42.3363917693" lon="-0.6081593782">
        <ele>1276.29</ele>
        <time>2022-04-14T14:41:43Z</time>
      </trkpt>
      <trkpt lat="42.3365042545" lon="-0.6082005333">
        <ele>1277.25</ele>
        <time>2022-04-14T14:41:57Z</time>
      </trkpt>
      <trkpt lat="42.3367578071" lon="-0.6081865355">
        <ele>1278.21</ele>
        <time>2022-04-14T14:42:18Z</time>
      </trkpt>
      <trkpt lat="42.3369577155" lon="-0.6081490684">
        <ele>1279.65</ele>
        <time>2022-04-14T14:42:33Z</time>
      </trkpt>
      <trkpt lat="42.3370550293" lon="-0.6081556063">
        <ele>1281.57</ele>
        <time>2022-04-14T14:42:42Z</time>
      </trkpt>
      <trkpt lat="42.3371950071" lon="-0.6080854498">
        <ele>1281.57</ele>
        <time>2022-04-14T14:42:54Z</time>
      </trkpt>
      <trkpt lat="42.3372934107" lon="-0.6080288719">
        <ele>1283.02</ele>
        <time>2022-04-14T14:43:08Z</time>
      </trkpt>
      <trkpt lat="42.3375250027" lon="-0.6079234276">
        <ele>1284.46</ele>
        <time>2022-04-14T14:43:24Z</time>
      </trkpt>
      <trkpt lat="42.3376476299" lon="-0.6078665983">
        <ele>1285.90</ele>
        <time>2022-04-14T14:43:38Z</time>
      </trkpt>
      <trkpt lat="42.3377721012" lon="-0.6078049913">
        <ele>1287.34</ele>
        <time>2022-04-14T14:43:52Z</time>
      </trkpt>
      <trkpt lat="42.3378176149" lon="-0.6077735592">
        <ele>1288.30</ele>
        <time>2022-04-14T14:43:57Z</time>
      </trkpt>
      <trkpt lat="42.3379560839" lon="-0.6077158079">
        <ele>1289.75</ele>
        <time>2022-04-14T14:44:11Z</time>
      </trkpt>
      <trkpt lat="42.3380666412" lon="-0.6077336613">
        <ele>1290.71</ele>
        <time>2022-04-14T14:44:19Z</time>
      </trkpt>
      <trkpt lat="42.3382373806" lon="-0.6077602319">
        <ele>1292.63</ele>
        <time>2022-04-14T14:44:35Z</time>
      </trkpt>
      <trkpt lat="42.3383539729" lon="-0.6077805161">
        <ele>1294.55</ele>
        <time>2022-04-14T14:44:47Z</time>
      </trkpt>
      <trkpt lat="42.3383652885" lon="-0.6077741459">
        <ele>1295.03</ele>
        <time>2022-04-14T14:44:49Z</time>
      </trkpt>
      <trkpt lat="42.3384682182" lon="-0.6077099405">
        <ele>1295.99</ele>
        <time>2022-04-14T14:45:00Z</time>
      </trkpt>
      <trkpt lat="42.3385605868" lon="-0.6075851340">
        <ele>1297.92</ele>
        <time>2022-04-14T14:45:13Z</time>
      </trkpt>
      <trkpt lat="42.3386643548" lon="-0.6074970402">
        <ele>1300.32</ele>
        <time>2022-04-14T14:45:25Z</time>
      </trkpt>
      <trkpt lat="42.3386916798" lon="-0.6074956991">
        <ele>1300.32</ele>
        <time>2022-04-14T14:45:27Z</time>
      </trkpt>
      <trkpt lat="42.3387138080" lon="-0.6075050868">
        <ele>1300.32</ele>
        <time>2022-04-14T14:45:29Z</time>
      </trkpt>
      <trkpt lat="42.3388220184" lon="-0.6074122153">
        <ele>1300.80</ele>
        <time>2022-04-14T14:45:39Z</time>
      </trkpt>
      <trkpt lat="42.3388436437" lon="-0.6073353533">
        <ele>1301.28</ele>
        <time>2022-04-14T14:45:46Z</time>
      </trkpt>
      <trkpt lat="42.3388761654" lon="-0.6072557252">
        <ele>1303.20</ele>
        <time>2022-04-14T14:45:56Z</time>
      </trkpt>
      <trkpt lat="42.3389184941" lon="-0.6070967205">
        <ele>1305.13</ele>
        <time>2022-04-14T14:46:07Z</time>
      </trkpt>
      <trkpt lat="42.3389498424" lon="-0.6070111413">
        <ele>1307.53</ele>
        <time>2022-04-14T14:46:18Z</time>
      </trkpt>
      <trkpt lat="42.3389837053" lon="-0.6069704052">
        <ele>1308.49</ele>
        <time>2022-04-14T14:46:33Z</time>
      </trkpt>
      <trkpt lat="42.3389930092" lon="-0.6069587544">
        <ele>1308.49</ele>
        <time>2022-04-14T14:46:37Z</time>
      </trkpt>
      <trkpt lat="42.3390119523" lon="-0.6068700738">
        <ele>1308.49</ele>
        <time>2022-04-14T14:46:50Z</time>
      </trkpt>
      <trkpt lat="42.3390251119" lon="-0.6068337802">
        <ele>1308.97</ele>
        <time>2022-04-14T14:46:55Z</time>
      </trkpt>
      <trkpt lat="42.3390843719" lon="-0.6067251507">
        <ele>1309.93</ele>
        <time>2022-04-14T14:47:05Z</time>
      </trkpt>
      <trkpt lat="42.3391026445" lon="-0.6066680700">
        <ele>1310.90</ele>
        <time>2022-04-14T14:47:12Z</time>
      </trkpt>
      <trkpt lat="42.3390868865" lon="-0.6065747794">
        <ele>1312.34</ele>
        <time>2022-04-14T14:47:22Z</time>
      </trkpt>
      <trkpt lat="42.3391411174" lon="-0.6064460333">
        <ele>1314.26</ele>
        <time>2022-04-14T14:47:34Z</time>
      </trkpt>
      <trkpt lat="42.3391731363" lon="-0.6063312013">
        <ele>1316.66</ele>
        <time>2022-04-14T14:47:46Z</time>
      </trkpt>
      <trkpt lat="42.3391824402" lon="-0.6062033772">
        <ele>1318.59</ele>
        <time>2022-04-14T14:47:58Z</time>
      </trkpt>
      <trkpt lat="42.3392515071" lon="-0.6060975138">
        <ele>1320.51</ele>
        <time>2022-04-14T14:48:10Z</time>
      </trkpt>
      <trkpt lat="42.3393046483" lon="-0.6060713623">
        <ele>1322.91</ele>
        <time>2022-04-14T14:48:21Z</time>
      </trkpt>
      <trkpt lat="42.3393004574" lon="-0.6060324702">
        <ele>1324.83</ele>
        <time>2022-04-14T14:48:32Z</time>
      </trkpt>
      <trkpt lat="42.3393799178" lon="-0.6061210670">
        <ele>1325.31</ele>
        <time>2022-04-14T14:48:47Z</time>
      </trkpt>
      <trkpt lat="42.3394790757" lon="-0.6063270941">
        <ele>1326.28</ele>
        <time>2022-04-14T14:49:03Z</time>
      </trkpt>
      <trkpt lat="42.3394853622" lon="-0.6063545868">
        <ele>1326.28</ele>
        <time>2022-04-14T14:49:05Z</time>
      </trkpt>
      <trkpt lat="42.3395385873" lon="-0.6065062154">
        <ele>1326.76</ele>
        <time>2022-04-14T14:49:17Z</time>
      </trkpt>
      <trkpt lat="42.3395775631" lon="-0.6066733506">
        <ele>1327.72</ele>
        <time>2022-04-14T14:49:33Z</time>
      </trkpt>
      <trkpt lat="42.3396152817" lon="-0.6067466922">
        <ele>1328.20</ele>
        <time>2022-04-14T14:49:37Z</time>
      </trkpt>
      <trkpt lat="42.3397030402" lon="-0.6069768593">
        <ele>1330.12</ele>
        <time>2022-04-14T14:49:49Z</time>
      </trkpt>
      <trkpt lat="42.3397435248" lon="-0.6070997380">
        <ele>1331.08</ele>
        <time>2022-04-14T14:50:00Z</time>
      </trkpt>
      <trkpt lat="42.3397654854" lon="-0.6072041765">
        <ele>1332.04</ele>
        <time>2022-04-14T14:50:06Z</time>
      </trkpt>
      <trkpt lat="42.3398103286" lon="-0.6073468365">
        <ele>1332.52</ele>
        <time>2022-04-14T14:50:17Z</time>
      </trkpt>
      <trkpt lat="42.3398202192" lon="-0.6074346788">
        <ele>1333.49</ele>
        <time>2022-04-14T14:50:22Z</time>
      </trkpt>
      <trkpt lat="42.3398538306" lon="-0.6076169852">
        <ele>1334.93</ele>
        <time>2022-04-14T14:50:36Z</time>
      </trkpt>
      <trkpt lat="42.3398567643" lon="-0.6076479144">
        <ele>1334.93</ele>
        <time>2022-04-14T14:50:38Z</time>
      </trkpt>
      <trkpt lat="42.3398853466" lon="-0.6077069230">
        <ele>1335.41</ele>
        <time>2022-04-14T14:50:42Z</time>
      </trkpt>
      <trkpt lat="42.3398943152" lon="-0.6077716313">
        <ele>1335.41</ele>
        <time>2022-04-14T14:50:45Z</time>
      </trkpt>
      <trkpt lat="42.3398828320" lon="-0.6079732999">
        <ele>1337.81</ele>
        <time>2022-04-14T14:51:00Z</time>
      </trkpt>
      <trkpt lat="42.3398764618" lon="-0.6080141198">
        <ele>1337.81</ele>
        <time>2022-04-14T14:51:02Z</time>
      </trkpt>
      <trkpt lat="42.3398764618" lon="-0.6081614736">
        <ele>1339.25</ele>
        <time>2022-04-14T14:51:09Z</time>
      </trkpt>
      <trkpt lat="42.3398876097" lon="-0.6083455402">
        <ele>1340.70</ele>
        <time>2022-04-14T14:51:24Z</time>
      </trkpt>
      <trkpt lat="42.3399072234" lon="-0.6085868552">
        <ele>1342.14</ele>
        <time>2022-04-14T14:51:38Z</time>
      </trkpt>
      <trkpt lat="42.3399274237" lon="-0.6088254880">
        <ele>1344.06</ele>
        <time>2022-04-14T14:51:53Z</time>
      </trkpt>
      <trkpt lat="42.3399169464" lon="-0.6089938805">
        <ele>1345.50</ele>
        <time>2022-04-14T14:52:06Z</time>
      </trkpt>
      <trkpt lat="42.3399343807" lon="-0.6091408152">
        <ele>1346.94</ele>
        <time>2022-04-14T14:52:17Z</time>
      </trkpt>
      <trkpt lat="42.3399405833" lon="-0.6093903445">
        <ele>1348.39</ele>
        <time>2022-04-14T14:52:32Z</time>
      </trkpt>
      <trkpt lat="42.3399526533" lon="-0.6094614230">
        <ele>1349.35</ele>
        <time>2022-04-14T14:52:39Z</time>
      </trkpt>
      <trkpt lat="42.3399674892" lon="-0.6095349323">
        <ele>1349.83</ele>
        <time>2022-04-14T14:52:43Z</time>
      </trkpt>
      <trkpt lat="42.3399951495" lon="-0.6097466592">
        <ele>1351.27</ele>
        <time>2022-04-14T14:52:57Z</time>
      </trkpt>
      <trkpt lat="42.3400244862" lon="-0.6100278720">
        <ele>1352.71</ele>
        <time>2022-04-14T14:53:15Z</time>
      </trkpt>
      <trkpt lat="42.3400322814" lon="-0.6100460608">
        <ele>1353.19</ele>
        <time>2022-04-14T14:53:17Z</time>
      </trkpt>
      <trkpt lat="42.3400370590" lon="-0.6101480685">
        <ele>1354.15</ele>
        <time>2022-04-14T14:53:23Z</time>
      </trkpt>
      <trkpt lat="42.3400665633" lon="-0.6103410199">
        <ele>1355.12</ele>
        <time>2022-04-14T14:53:37Z</time>
      </trkpt>
      <trkpt lat="42.3400771245" lon="-0.6103658304">
        <ele>1355.12</ele>
        <time>2022-04-14T14:53:39Z</time>
      </trkpt>
      <trkpt lat="42.3401195370" lon="-0.6105638947">
        <ele>1357.04</ele>
        <time>2022-04-14T14:53:54Z</time>
      </trkpt>
      <trkpt lat="42.3401289247" lon="-0.6106271781">
        <ele>1357.04</ele>
        <time>2022-04-14T14:53:57Z</time>
      </trkpt>
      <trkpt lat="42.3401308525" lon="-0.6107213907">
        <ele>1358.48</ele>
        <time>2022-04-14T14:54:07Z</time>
      </trkpt>
      <trkpt lat="42.3401420005" lon="-0.6108510587">
        <ele>1359.44</ele>
        <time>2022-04-14T14:54:17Z</time>
      </trkpt>
      <trkpt lat="42.3401509691" lon="-0.6110141706">
        <ele>1361.36</ele>
        <time>2022-04-14T14:54:28Z</time>
      </trkpt>
      <trkpt lat="42.3401780427" lon="-0.6111824792">
        <ele>1362.81</ele>
        <time>2022-04-14T14:54:40Z</time>
      </trkpt>
      <trkpt lat="42.3401834071" lon="-0.6112075411">
        <ele>1362.81</ele>
        <time>2022-04-14T14:54:42Z</time>
      </trkpt>
      <trkpt lat="42.3402007576" lon="-0.6112314295">
        <ele>1363.29</ele>
        <time>2022-04-14T14:54:44Z</time>
      </trkpt>
      <trkpt lat="42.3402235564" lon="-0.6112744287">
        <ele>1363.77</ele>
        <time>2022-04-14T14:54:47Z</time>
      </trkpt>
      <trkpt lat="42.3402533121" lon="-0.6114553101">
        <ele>1365.21</ele>
        <time>2022-04-14T14:55:00Z</time>
      </trkpt>
      <trkpt lat="42.3402611911" lon="-0.6114724930">
        <ele>1365.21</ele>
        <time>2022-04-14T14:55:01Z</time>
      </trkpt>
      <trkpt lat="42.3402112350" lon="-0.6117311586">
        <ele>1366.65</ele>
        <time>2022-04-14T14:55:15Z</time>
      </trkpt>
      <trkpt lat="42.3402141687" lon="-0.6119427178">
        <ele>1368.57</ele>
        <time>2022-04-14T14:55:29Z</time>
      </trkpt>
      <trkpt lat="42.3402199522" lon="-0.6120869704">
        <ele>1370.02</ele>
        <time>2022-04-14T14:55:39Z</time>
      </trkpt>
      <trkpt lat="42.3402286693" lon="-0.6122499146">
        <ele>1371.46</ele>
        <time>2022-04-14T14:55:50Z</time>
      </trkpt>
      <trkpt lat="42.3402411584" lon="-0.6124245096">
        <ele>1372.42</ele>
        <time>2022-04-14T14:56:02Z</time>
      </trkpt>
      <trkpt lat="42.3402692378" lon="-0.6125665829">
        <ele>1373.86</ele>
        <time>2022-04-14T14:56:14Z</time>
      </trkpt>
      <trkpt lat="42.3402744345" lon="-0.6125823408">
        <ele>1374.34</ele>
        <time>2022-04-14T14:56:15Z</time>
      </trkpt>
      <trkpt lat="42.3402968142" lon="-0.6126769725">
        <ele>1375.78</ele>
        <time>2022-04-14T14:56:26Z</time>
      </trkpt>
      <trkpt lat="42.3402936291" lon="-0.6126851030">
        <ele>1373.86</ele>
        <time>2022-04-14T14:56:32Z</time>
      </trkpt>
      <trkpt lat="42.3402976524" lon="-0.6127000228">
        <ele>1375.78</ele>
        <time>2022-04-14T14:56:34Z</time>
      </trkpt>
      <trkpt lat="42.3403037712" lon="-0.6128649786">
        <ele>1377.23</ele>
        <time>2022-04-14T14:56:48Z</time>
      </trkpt>
      <trkpt lat="42.3403165955" lon="-0.6130426750">
        <ele>1378.67</ele>
        <time>2022-04-14T14:56:59Z</time>
      </trkpt>
      <trkpt lat="42.3403082974" lon="-0.6131381448">
        <ele>1379.63</ele>
        <time>2022-04-14T14:57:05Z</time>
      </trkpt>
      <trkpt lat="42.3403078783" lon="-0.6131715886">
        <ele>1379.63</ele>
        <time>2022-04-14T14:57:07Z</time>
      </trkpt>
      <trkpt lat="42.3403290845" lon="-0.6134054437">
        <ele>1382.03</ele>
        <time>2022-04-14T14:57:22Z</time>
      </trkpt>
      <trkpt lat="42.3403344490" lon="-0.6134328526">
        <ele>1382.99</ele>
        <time>2022-04-14T14:57:24Z</time>
      </trkpt>
      <trkpt lat="42.3403367959" lon="-0.6134592555">
        <ele>1382.99</ele>
        <time>2022-04-14T14:57:26Z</time>
      </trkpt>
      <trkpt lat="42.3403415736" lon="-0.6135027576">
        <ele>1382.99</ele>
        <time>2022-04-14T14:57:29Z</time>
      </trkpt>
      <trkpt lat="42.3403866682" lon="-0.6137196813">
        <ele>1385.40</ele>
        <time>2022-04-14T14:57:45Z</time>
      </trkpt>
      <trkpt lat="42.3404074553" lon="-0.6138279755">
        <ele>1386.36</ele>
        <time>2022-04-14T14:57:53Z</time>
      </trkpt>
      <trkpt lat="42.3404108081" lon="-0.6139064301">
        <ele>1386.84</ele>
        <time>2022-04-14T14:57:59Z</time>
      </trkpt>
      <trkpt lat="42.3404131550" lon="-0.6139741559">
        <ele>1387.32</ele>
        <time>2022-04-14T14:58:03Z</time>
      </trkpt>
      <trkpt lat="42.3404128198" lon="-0.6140800193">
        <ele>1387.32</ele>
        <time>2022-04-14T14:58:09Z</time>
      </trkpt>
      <trkpt lat="42.3404315114" lon="-0.6142315641">
        <ele>1388.28</ele>
        <time>2022-04-14T14:58:18Z</time>
      </trkpt>
      <trkpt lat="42.3404409830" lon="-0.6142879743">
        <ele>1388.76</ele>
        <time>2022-04-14T14:58:23Z</time>
      </trkpt>
      <trkpt lat="42.3404875025" lon="-0.6143992022">
        <ele>1389.24</ele>
        <time>2022-04-14T14:58:31Z</time>
      </trkpt>
      <trkpt lat="42.3405224551" lon="-0.6144585460">
        <ele>1389.72</ele>
        <time>2022-04-14T14:58:36Z</time>
      </trkpt>
      <trkpt lat="42.3406417295" lon="-0.6144379266">
        <ele>1391.17</ele>
        <time>2022-04-14T14:58:49Z</time>
      </trkpt>
      <trkpt lat="42.3406491056" lon="-0.6144311372">
        <ele>1391.17</ele>
        <time>2022-04-14T14:58:50Z</time>
      </trkpt>
      <trkpt lat="42.3406829685" lon="-0.6143761519">
        <ele>1391.17</ele>
        <time>2022-04-14T14:58:55Z</time>
      </trkpt>
      <trkpt lat="42.3407219443" lon="-0.6142850406">
        <ele>1391.65</ele>
        <time>2022-04-14T14:59:02Z</time>
      </trkpt>
      <trkpt lat="42.3407832999" lon="-0.6140577234">
        <ele>1393.09</ele>
        <time>2022-04-14T14:59:16Z</time>
      </trkpt>
      <trkpt lat="42.3408020753" lon="-0.6139954459">
        <ele>1393.57</ele>
        <time>2022-04-14T14:59:20Z</time>
      </trkpt>
      <trkpt lat="42.3408233654" lon="-0.6138382852">
        <ele>1395.01</ele>
        <time>2022-04-14T14:59:32Z</time>
      </trkpt>
      <trkpt lat="42.3409038316" lon="-0.6136453338">
        <ele>1395.97</ele>
        <time>2022-04-14T14:59:45Z</time>
      </trkpt>
      <trkpt lat="42.3409257084" lon="-0.6135312561">
        <ele>1396.93</ele>
        <time>2022-04-14T14:59:52Z</time>
      </trkpt>
      <trkpt lat="42.3409624211" lon="-0.6133837346">
        <ele>1398.86</ele>
        <time>2022-04-14T15:00:03Z</time>
      </trkpt>
      <trkpt lat="42.3409799393" lon="-0.6133301742">
        <ele>1399.34</ele>
        <time>2022-04-14T15:00:07Z</time>
      </trkpt>
      <trkpt lat="42.3410022352" lon="-0.6132119894">
        <ele>1400.30</ele>
        <time>2022-04-14T15:00:17Z</time>
      </trkpt>
      <trkpt lat="42.3410416301" lon="-0.6130560860">
        <ele>1401.74</ele>
        <time>2022-04-14T15:00:29Z</time>
      </trkpt>
      <trkpt lat="42.3410537001" lon="-0.6128808204">
        <ele>1403.66</ele>
        <time>2022-04-14T15:00:43Z</time>
      </trkpt>
      <trkpt lat="42.3410266265" lon="-0.6128696725">
        <ele>1403.66</ele>
        <time>2022-04-14T15:00:55Z</time>
      </trkpt>
      <trkpt lat="42.3410345055" lon="-0.6128633860">
        <ele>1403.66</ele>
        <time>2022-04-14T15:00:59Z</time>
      </trkpt>
      <trkpt lat="42.3411626648" lon="-0.6127421837">
        <ele>1403.66</ele>
        <time>2022-04-14T15:01:14Z</time>
      </trkpt>
      <trkpt lat="42.3411961086" lon="-0.6127229892">
        <ele>1403.66</ele>
        <time>2022-04-14T15:01:17Z</time>
      </trkpt>
      <trkpt lat="42.3414195701" lon="-0.6127053034">
        <ele>1402.70</ele>
        <time>2022-04-14T15:01:34Z</time>
      </trkpt>
      <trkpt lat="42.3414378427" lon="-0.6127036270">
        <ele>1402.70</ele>
        <time>2022-04-14T15:01:35Z</time>
      </trkpt>
      <trkpt lat="42.3415061552" lon="-0.6127262581">
        <ele>1401.74</ele>
        <time>2022-04-14T15:01:41Z</time>
      </trkpt>
      <trkpt lat="42.3415953387" lon="-0.6127469614">
        <ele>1402.70</ele>
        <time>2022-04-14T15:01:54Z</time>
      </trkpt>
      <trkpt lat="42.3416317999" lon="-0.6127358973">
        <ele>1400.78</ele>
        <time>2022-04-14T15:02:08Z</time>
      </trkpt>
      <trkpt lat="42.3417001963" lon="-0.6127299462">
        <ele>1399.34</ele>
        <time>2022-04-14T15:02:24Z</time>
      </trkpt>
      <trkpt lat="42.3417107575" lon="-0.6127155293">
        <ele>1398.86</ele>
        <time>2022-04-14T15:02:43Z</time>
      </trkpt>
      <trkpt lat="42.3417339753" lon="-0.6127221510">
        <ele>1398.86</ele>
        <time>2022-04-14T15:03:19Z</time>
      </trkpt>
      <trkpt lat="42.3418348096" lon="-0.6126818340">
        <ele>1397.89</ele>
        <time>2022-04-14T15:03:31Z</time>
      </trkpt>
      <trkpt lat="42.3419458698" lon="-0.6126381643">
        <ele>1394.53</ele>
        <time>2022-04-14T15:03:44Z</time>
      </trkpt>
      <trkpt lat="42.3420410883" lon="-0.6126316264">
        <ele>1392.13</ele>
        <time>2022-04-14T15:04:00Z</time>
      </trkpt>
      <trkpt lat="42.3421177827" lon="-0.6126822531">
        <ele>1389.72</ele>
        <time>2022-04-14T15:04:18Z</time>
      </trkpt>
      <trkpt lat="42.3421420064" lon="-0.6127260905">
        <ele>1389.24</ele>
        <time>2022-04-14T15:04:22Z</time>
      </trkpt>
      <trkpt lat="42.3421616200" lon="-0.6128544174">
        <ele>1387.32</ele>
        <time>2022-04-14T15:04:30Z</time>
      </trkpt>
      <trkpt lat="42.3422426730" lon="-0.6129747815">
        <ele>1384.92</ele>
        <time>2022-04-14T15:04:42Z</time>
      </trkpt>
      <trkpt lat="42.3423177749" lon="-0.6130070519">
        <ele>1382.99</ele>
        <time>2022-04-14T15:04:48Z</time>
      </trkpt>
      <trkpt lat="42.3424372170" lon="-0.6131601054">
        <ele>1379.63</ele>
        <time>2022-04-14T15:05:02Z</time>
      </trkpt>
      <trkpt lat="42.3425064515" lon="-0.6132674776">
        <ele>1377.71</ele>
        <time>2022-04-14T15:05:12Z</time>
      </trkpt>
      <trkpt lat="42.3425488640" lon="-0.6133047771">
        <ele>1376.75</ele>
        <time>2022-04-14T15:05:16Z</time>
      </trkpt>
      <trkpt lat="42.3426234629" lon="-0.6133650430">
        <ele>1374.82</ele>
        <time>2022-04-14T15:05:30Z</time>
      </trkpt>
      <trkpt lat="42.3427324276" lon="-0.6134360377">
        <ele>1371.94</ele>
        <time>2022-04-14T15:05:44Z</time>
      </trkpt>
      <trkpt lat="42.3427543044" lon="-0.6134667154">
        <ele>1371.94</ele>
        <time>2022-04-14T15:05:46Z</time>
      </trkpt>
      <trkpt lat="42.3428153247" lon="-0.6134844013">
        <ele>1369.54</ele>
        <time>2022-04-14T15:05:53Z</time>
      </trkpt>
      <trkpt lat="42.3429120518" lon="-0.6135036796">
        <ele>1365.69</ele>
        <time>2022-04-14T15:06:02Z</time>
      </trkpt>
      <trkpt lat="42.3429637682" lon="-0.6135226227">
        <ele>1364.25</ele>
        <time>2022-04-14T15:06:09Z</time>
      </trkpt>
      <trkpt lat="42.3430976272" lon="-0.6135771889">
        <ele>1361.36</ele>
        <time>2022-04-14T15:06:18Z</time>
      </trkpt>
      <trkpt lat="42.3432211764" lon="-0.6135928631">
        <ele>1358.00</ele>
        <time>2022-04-14T15:06:29Z</time>
      </trkpt>
      <trkpt lat="42.3432485852" lon="-0.6136102136">
        <ele>1357.52</ele>
        <time>2022-04-14T15:06:32Z</time>
      </trkpt>
      <trkpt lat="42.3433744814" lon="-0.6136712339">
        <ele>1354.63</ele>
        <time>2022-04-14T15:06:43Z</time>
      </trkpt>
      <trkpt lat="42.3434999585" lon="-0.6137404684">
        <ele>1351.75</ele>
        <time>2022-04-14T15:06:54Z</time>
      </trkpt>
      <trkpt lat="42.3435733002" lon="-0.6137289014">
        <ele>1350.31</ele>
        <time>2022-04-14T15:06:58Z</time>
      </trkpt>
      <trkpt lat="42.3437649105" lon="-0.6137673743">
        <ele>1347.91</ele>
        <time>2022-04-14T15:07:15Z</time>
      </trkpt>
      <trkpt lat="42.3437817581" lon="-0.6137662008">
        <ele>1347.91</ele>
        <time>2022-04-14T15:07:16Z</time>
      </trkpt>
      <trkpt lat="42.3438412696" lon="-0.6138056796">
        <ele>1346.46</ele>
        <time>2022-04-14T15:07:21Z</time>
      </trkpt>
      <trkpt lat="42.3439756315" lon="-0.6138864812">
        <ele>1345.50</ele>
        <time>2022-04-14T15:07:34Z</time>
      </trkpt>
      <trkpt lat="42.3439839296" lon="-0.6138915941">
        <ele>1345.50</ele>
        <time>2022-04-14T15:07:35Z</time>
      </trkpt>
      <trkpt lat="42.3441217281" lon="-0.6139853038">
        <ele>1345.50</ele>
        <time>2022-04-14T15:07:44Z</time>
      </trkpt>
      <trkpt lat="42.3442472052" lon="-0.6139882375">
        <ele>1344.06</ele>
        <time>2022-04-14T15:07:59Z</time>
      </trkpt>
      <trkpt lat="42.3442485463" lon="-0.6139841303">
        <ele>1339.25</ele>
        <time>2022-04-14T15:08:00Z</time>
      </trkpt>
      <trkpt lat="42.3442482948" lon="-0.6139848847">
        <ele>1346.94</ele>
        <time>2022-04-14T15:08:01Z</time>
      </trkpt>
      <trkpt lat="42.3442489654" lon="-0.6139869802">
        <ele>1345.02</ele>
        <time>2022-04-14T15:08:02Z</time>
      </trkpt>
      <trkpt lat="42.3442489654" lon="-0.6139971223">
        <ele>1344.06</ele>
        <time>2022-04-14T15:08:04Z</time>
      </trkpt>
      <trkpt lat="42.3442731891" lon="-0.6140647642">
        <ele>1343.58</ele>
        <time>2022-04-14T15:08:27Z</time>
      </trkpt>
      <trkpt lat="42.3443337902" lon="-0.6140269618">
        <ele>1342.14</ele>
        <time>2022-04-14T15:08:42Z</time>
      </trkpt>
      <trkpt lat="42.3443849199" lon="-0.6139967870">
        <ele>1341.18</ele>
        <time>2022-04-14T15:08:46Z</time>
      </trkpt>
      <trkpt lat="42.3444176931" lon="-0.6139951944">
        <ele>1339.25</ele>
        <time>2022-04-14T15:08:59Z</time>
      </trkpt>
      <trkpt lat="42.3443250731" lon="-0.6140332483">
        <ele>1341.66</ele>
        <time>2022-04-14T15:09:10Z</time>
      </trkpt>
      <trkpt lat="42.3442488816" lon="-0.6139774248">
        <ele>1342.14</ele>
        <time>2022-04-14T15:09:23Z</time>
      </trkpt>
      <trkpt lat="42.3442343809" lon="-0.6139245350">
        <ele>1342.14</ele>
        <time>2022-04-14T15:09:26Z</time>
      </trkpt>
      <trkpt lat="42.3441322055" lon="-0.6138400454">
        <ele>1339.73</ele>
        <time>2022-04-14T15:09:36Z</time>
      </trkpt>
      <trkpt lat="42.3440315388" lon="-0.6137451623">
        <ele>1337.33</ele>
        <time>2022-04-14T15:09:48Z</time>
      </trkpt>
      <trkpt lat="42.3439999390" lon="-0.6137199327">
        <ele>1336.37</ele>
        <time>2022-04-14T15:09:50Z</time>
      </trkpt>
      <trkpt lat="42.3438918125" lon="-0.6135895103">
        <ele>1333.49</ele>
        <time>2022-04-14T15:10:02Z</time>
      </trkpt>
      <trkpt lat="42.3438006174" lon="-0.6134765223">
        <ele>1330.60</ele>
        <time>2022-04-14T15:10:14Z</time>
      </trkpt>
      <trkpt lat="42.3437950853" lon="-0.6134666316">
        <ele>1330.60</ele>
        <time>2022-04-14T15:10:15Z</time>
      </trkpt>
      <trkpt lat="42.3437764775" lon="-0.6134433299">
        <ele>1329.64</ele>
        <time>2022-04-14T15:10:17Z</time>
      </trkpt>
      <trkpt lat="42.3437217437" lon="-0.6133792922">
        <ele>1328.20</ele>
        <time>2022-04-14T15:10:26Z</time>
      </trkpt>
      <trkpt lat="42.3436919879" lon="-0.6133078784">
        <ele>1326.76</ele>
        <time>2022-04-14T15:10:31Z</time>
      </trkpt>
      <trkpt lat="42.3436311353" lon="-0.6131313555">
        <ele>1323.87</ele>
        <time>2022-04-14T15:10:44Z</time>
      </trkpt>
      <trkpt lat="42.3436100129" lon="-0.6129581854">
        <ele>1321.47</ele>
        <time>2022-04-14T15:10:56Z</time>
      </trkpt>
      <trkpt lat="42.3436128628" lon="-0.6129285973">
        <ele>1320.99</ele>
        <time>2022-04-14T15:10:58Z</time>
      </trkpt>
      <trkpt lat="42.3436065763" lon="-0.6127337180">
        <ele>1320.03</ele>
        <time>2022-04-14T15:11:07Z</time>
      </trkpt>
      <trkpt lat="42.3435699474" lon="-0.6125713605">
        <ele>1319.55</ele>
        <time>2022-04-14T15:11:17Z</time>
      </trkpt>
      <trkpt lat="42.3435600568" lon="-0.6123319734">
        <ele>1319.07</ele>
        <time>2022-04-14T15:11:29Z</time>
      </trkpt>
      <trkpt lat="42.3436602205" lon="-0.6122046523">
        <ele>1318.59</ele>
        <time>2022-04-14T15:11:43Z</time>
      </trkpt>
      <trkpt lat="42.3437332269" lon="-0.6121723820">
        <ele>1318.59</ele>
        <time>2022-04-14T15:11:50Z</time>
      </trkpt>
      <trkpt lat="42.3438095860" lon="-0.6121430453">
        <ele>1318.10</ele>
        <time>2022-04-14T15:11:54Z</time>
      </trkpt>
      <trkpt lat="42.3438980989" lon="-0.6120837852">
        <ele>1317.14</ele>
        <time>2022-04-14T15:12:01Z</time>
      </trkpt>
      <trkpt lat="42.3439618852" lon="-0.6120072585">
        <ele>1315.22</ele>
        <time>2022-04-14T15:12:10Z</time>
      </trkpt>
      <trkpt lat="42.3440006934" lon="-0.6119520217">
        <ele>1313.78</ele>
        <time>2022-04-14T15:12:14Z</time>
      </trkpt>
      <trkpt lat="42.3440320417" lon="-0.6118794344">
        <ele>1312.82</ele>
        <time>2022-04-14T15:12:19Z</time>
      </trkpt>
      <trkpt lat="42.3441171180" lon="-0.6117159035">
        <ele>1310.41</ele>
        <time>2022-04-14T15:12:32Z</time>
      </trkpt>
      <trkpt lat="42.3442145158" lon="-0.6116341799">
        <ele>1308.49</ele>
        <time>2022-04-14T15:12:42Z</time>
      </trkpt>
      <trkpt lat="42.3443002626" lon="-0.6117152330">
        <ele>1308.01</ele>
        <time>2022-04-14T15:12:53Z</time>
      </trkpt>
      <trkpt lat="42.3443477880" lon="-0.6117274705">
        <ele>1307.53</ele>
        <time>2022-04-14T15:12:58Z</time>
      </trkpt>
      <trkpt lat="42.3444575071" lon="-0.6117806956">
        <ele>1305.13</ele>
        <time>2022-04-14T15:13:08Z</time>
      </trkpt>
      <trkpt lat="42.3445317708" lon="-0.6118526962">
        <ele>1301.76</ele>
        <time>2022-04-14T15:13:18Z</time>
      </trkpt>
      <trkpt lat="42.3445347883" lon="-0.6118621677">
        <ele>1301.76</ele>
        <time>2022-04-14T15:13:19Z</time>
      </trkpt>
      <trkpt lat="42.3445949703" lon="-0.6120080967">
        <ele>1297.44</ele>
        <time>2022-04-14T15:13:32Z</time>
      </trkpt>
      <trkpt lat="42.3446075432" lon="-0.6120536104">
        <ele>1295.99</ele>
        <time>2022-04-14T15:13:37Z</time>
      </trkpt>
      <trkpt lat="42.3446507100" lon="-0.6121546961">
        <ele>1293.59</ele>
        <time>2022-04-14T15:13:45Z</time>
      </trkpt>
      <trkpt lat="42.3446916137" lon="-0.6122188177">
        <ele>1292.63</ele>
        <time>2022-04-14T15:13:50Z</time>
      </trkpt>
      <trkpt lat="42.3447104730" lon="-0.6122655049">
        <ele>1291.19</ele>
        <time>2022-04-14T15:13:53Z</time>
      </trkpt>
      <trkpt lat="42.3447314277" lon="-0.6123124436">
        <ele>1289.75</ele>
        <time>2022-04-14T15:13:57Z</time>
      </trkpt>
      <trkpt lat="42.3447720800" lon="-0.6123377569">
        <ele>1289.27</ele>
        <time>2022-04-14T15:14:02Z</time>
      </trkpt>
      <trkpt lat="42.3449346889" lon="-0.6123748887">
        <ele>1286.86</ele>
        <time>2022-04-14T15:14:17Z</time>
      </trkpt>
      <trkpt lat="42.3449697252" lon="-0.6123939157">
        <ele>1286.38</ele>
        <time>2022-04-14T15:14:23Z</time>
      </trkpt>
      <trkpt lat="42.3449908476" lon="-0.6123997830">
        <ele>1286.38</ele>
        <time>2022-04-14T15:14:25Z</time>
      </trkpt>
      <trkpt lat="42.3450846411" lon="-0.6124323886">
        <ele>1285.42</ele>
        <time>2022-04-14T15:14:32Z</time>
      </trkpt>
      <trkpt lat="42.3451211862" lon="-0.6124865357">
        <ele>1285.42</ele>
        <time>2022-04-14T15:14:38Z</time>
      </trkpt>
      <trkpt lat="42.3451082781" lon="-0.6125250086">
        <ele>1286.38</ele>
        <time>2022-04-14T15:14:46Z</time>
      </trkpt>
      <trkpt lat="42.3451011535" lon="-0.6125220750">
        <ele>1284.94</ele>
        <time>2022-04-14T15:14:58Z</time>
      </trkpt>
      <trkpt lat="42.3450853955" lon="-0.6125019584">
        <ele>1285.90</ele>
        <time>2022-04-14T15:15:07Z</time>
      </trkpt>
      <trkpt lat="42.3450851440" lon="-0.6124587916">
        <ele>1285.90</ele>
        <time>2022-04-14T15:15:21Z</time>
      </trkpt>
      <trkpt lat="42.3450876586" lon="-0.6124372501">
        <ele>1284.94</ele>
        <time>2022-04-14T15:15:48Z</time>
      </trkpt>
      <trkpt lat="42.3451132234" lon="-0.6124395132">
        <ele>1284.94</ele>
        <time>2022-04-14T15:16:14Z</time>
      </trkpt>
      <trkpt lat="42.3451024946" lon="-0.6124407705">
        <ele>1284.94</ele>
        <time>2022-04-14T15:16:20Z</time>
      </trkpt>
      <trkpt lat="42.3450824618" lon="-0.6124410219">
        <ele>1286.38</ele>
        <time>2022-04-14T15:16:29Z</time>
      </trkpt>
      <trkpt lat="42.3450570647" lon="-0.6124563608">
        <ele>1286.38</ele>
        <time>2022-04-14T15:16:47Z</time>
      </trkpt>
      <trkpt lat="42.3450312484" lon="-0.6124735437">
        <ele>1286.38</ele>
        <time>2022-04-14T15:17:14Z</time>
      </trkpt>
      <trkpt lat="42.3450347688" lon="-0.6124859490">
        <ele>1286.38</ele>
        <time>2022-04-14T15:17:23Z</time>
      </trkpt>
      <trkpt lat="42.3450024985" lon="-0.6124818418">
        <ele>1286.38</ele>
        <time>2022-04-14T15:18:10Z</time>
      </trkpt>
      <trkpt lat="42.3450386245" lon="-0.6124867033">
        <ele>1286.38</ele>
        <time>2022-04-14T15:18:45Z</time>
      </trkpt>
      <trkpt lat="42.3450300749" lon="-0.6124994438">
        <ele>1286.38</ele>
        <time>2022-04-14T15:19:12Z</time>
      </trkpt>
      <trkpt lat="42.3449991457" lon="-0.6124906428">
        <ele>1285.42</ele>
        <time>2022-04-14T15:19:47Z</time>
      </trkpt>
      <trkpt lat="42.3449961282" lon="-0.6124876253">
        <ele>1284.94</ele>
        <time>2022-04-14T15:20:04Z</time>
      </trkpt>
      <trkpt lat="42.3450215254" lon="-0.6125163753">
        <ele>1286.38</ele>
        <time>2022-04-14T15:20:30Z</time>
      </trkpt>
      <trkpt lat="42.3450118862" lon="-0.6125054788">
        <ele>1286.38</ele>
        <time>2022-04-14T15:21:05Z</time>
      </trkpt>
      <trkpt lat="42.3450392950" lon="-0.6124873739">
        <ele>1286.38</ele>
        <time>2022-04-14T15:21:37Z</time>
      </trkpt>
      <trkpt lat="42.3450208548" lon="-0.6124721188">
        <ele>1286.38</ele>
        <time>2022-04-14T15:22:15Z</time>
      </trkpt>
      <trkpt lat="42.3450024147" lon="-0.6124801654">
        <ele>1286.38</ele>
        <time>2022-04-14T15:22:57Z</time>
      </trkpt>
      <trkpt lat="42.3450258002" lon="-0.6124832667">
        <ele>1286.38</ele>
        <time>2022-04-14T15:23:41Z</time>
      </trkpt>
      <trkpt lat="42.3450760078" lon="-0.6124840211">
        <ele>1286.38</ele>
        <time>2022-04-14T15:24:13Z</time>
      </trkpt>
      <trkpt lat="42.3450512812" lon="-0.6124737952">
        <ele>1286.38</ele>
        <time>2022-04-14T15:24:33Z</time>
      </trkpt>
      <trkpt lat="42.3450409714" lon="-0.6125001144">
        <ele>1286.86</ele>
        <time>2022-04-14T15:25:04Z</time>
      </trkpt>
      <trkpt lat="42.3450609203" lon="-0.6124849431">
        <ele>1286.86</ele>
        <time>2022-04-14T15:25:31Z</time>
      </trkpt>
      <trkpt lat="42.3450548016" lon="-0.6124738790">
        <ele>1286.86</ele>
        <time>2022-04-14T15:26:00Z</time>
      </trkpt>
      <trkpt lat="42.3450582381" lon="-0.6124853622">
        <ele>1286.38</ele>
        <time>2022-04-14T15:26:33Z</time>
      </trkpt>
      <trkpt lat="42.3450558912" lon="-0.6124805845">
        <ele>1286.38</ele>
        <time>2022-04-14T15:27:05Z</time>
      </trkpt>
      <trkpt lat="42.3450533766" lon="-0.6125026289">
        <ele>1286.86</ele>
        <time>2022-04-14T15:27:43Z</time>
      </trkpt>
      <trkpt lat="42.3450426478" lon="-0.6124475598">
        <ele>1286.86</ele>
        <time>2022-04-14T15:28:19Z</time>
      </trkpt>
      <trkpt lat="42.3450388759" lon="-0.6124744657">
        <ele>1286.38</ele>
        <time>2022-04-14T15:28:46Z</time>
      </trkpt>
      <trkpt lat="42.3450710624" lon="-0.6125043053">
        <ele>1286.38</ele>
        <time>2022-04-14T15:29:20Z</time>
      </trkpt>
      <trkpt lat="42.3450805340" lon="-0.6124986894">
        <ele>1286.38</ele>
        <time>2022-04-14T15:29:38Z</time>
      </trkpt>
      <trkpt lat="42.3450629320" lon="-0.6124926545">
        <ele>1286.86</ele>
        <time>2022-04-14T15:30:05Z</time>
      </trkpt>
      <trkpt lat="42.3450726550" lon="-0.6124882121">
        <ele>1287.82</ele>
        <time>2022-04-14T15:30:18Z</time>
      </trkpt>
      <trkpt lat="42.3450811207" lon="-0.6124771480">
        <ele>1288.30</ele>
        <time>2022-04-14T15:30:40Z</time>
      </trkpt>
      <trkpt lat="42.3450481798" lon="-0.6124680955">
        <ele>1286.38</ele>
        <time>2022-04-14T15:31:07Z</time>
      </trkpt>
      <trkpt lat="42.3450475093" lon="-0.6124692690">
        <ele>1287.82</ele>
        <time>2022-04-14T15:31:11Z</time>
      </trkpt>
      <trkpt lat="42.3451268021" lon="-0.6125634816">
        <ele>1289.75</ele>
        <time>2022-04-15T05:39:40Z</time>
      </trkpt>
      <trkpt lat="42.3451263830" lon="-0.6125648227">
        <ele>1289.75</ele>
        <time>2022-04-15T05:39:41Z</time>
      </trkpt>
      <trkpt lat="42.3451298196" lon="-0.6125908904">
        <ele>1290.71</ele>
        <time>2022-04-15T05:39:59Z</time>
      </trkpt>
      <trkpt lat="42.3451308254" lon="-0.6125915609">
        <ele>1289.27</ele>
        <time>2022-04-15T05:40:11Z</time>
      </trkpt>
      <trkpt lat="42.3451374471" lon="-0.6125877053">
        <ele>1290.71</ele>
        <time>2022-04-15T05:40:15Z</time>
      </trkpt>
      <trkpt lat="42.3451277241" lon="-0.6125712767">
        <ele>1289.27</ele>
        <time>2022-04-15T05:40:32Z</time>
      </trkpt>
      <trkpt lat="42.3451325856" lon="-0.6125679240">
        <ele>1290.71</ele>
        <time>2022-04-15T05:40:46Z</time>
      </trkpt>
      <trkpt lat="42.3451334238" lon="-0.6125680916">
        <ele>1288.78</ele>
        <time>2022-04-15T05:40:50Z</time>
      </trkpt>
      <trkpt lat="42.3451332562" lon="-0.6125678401">
        <ele>1290.23</ele>
        <time>2022-04-15T05:40:52Z</time>
      </trkpt>
      <trkpt lat="42.3451381177" lon="-0.6125610508">
        <ele>1289.27</ele>
        <time>2022-04-15T05:41:00Z</time>
      </trkpt>
      <trkpt lat="42.3450972978" lon="-0.6125099212">
        <ele>1288.78</ele>
        <time>2022-04-15T05:41:16Z</time>
      </trkpt>
      <trkpt lat="42.3450744152" lon="-0.6125504896">
        <ele>1290.23</ele>
        <time>2022-04-15T05:41:20Z</time>
      </trkpt>
      <trkpt lat="42.3451212700" lon="-0.6127823330">
        <ele>1291.67</ele>
        <time>2022-04-15T05:41:35Z</time>
      </trkpt>
      <trkpt lat="42.3452194221" lon="-0.6129662320">
        <ele>1292.63</ele>
        <time>2022-04-15T05:41:51Z</time>
      </trkpt>
      <trkpt lat="42.3453420494" lon="-0.6130823214">
        <ele>1294.07</ele>
        <time>2022-04-15T05:42:05Z</time>
      </trkpt>
      <trkpt lat="42.3455232661" lon="-0.6131719239">
        <ele>1295.51</ele>
        <time>2022-04-15T05:42:21Z</time>
      </trkpt>
      <trkpt lat="42.3457330652" lon="-0.6132523902">
        <ele>1296.48</ele>
        <time>2022-04-15T05:42:39Z</time>
      </trkpt>
      <trkpt lat="42.3458334804" lon="-0.6133016758">
        <ele>1297.44</ele>
        <time>2022-04-15T05:42:47Z</time>
      </trkpt>
      <trkpt lat="42.3459642380" lon="-0.6134372950">
        <ele>1298.88</ele>
        <time>2022-04-15T05:43:02Z</time>
      </trkpt>
      <trkpt lat="42.3460617196" lon="-0.6135956291">
        <ele>1300.80</ele>
        <time>2022-04-15T05:43:16Z</time>
      </trkpt>
      <trkpt lat="42.3461271822" lon="-0.6136282347">
        <ele>1301.28</ele>
        <time>2022-04-15T05:43:21Z</time>
      </trkpt>
      <trkpt lat="42.3462132644" lon="-0.6136101298">
        <ele>1302.24</ele>
        <time>2022-04-15T05:43:27Z</time>
      </trkpt>
      <trkpt lat="42.3463950679" lon="-0.6134151667">
        <ele>1303.69</ele>
        <time>2022-04-15T05:43:45Z</time>
      </trkpt>
      <trkpt lat="42.3464477062" lon="-0.6134892628">
        <ele>1305.13</ele>
        <time>2022-04-15T05:43:56Z</time>
      </trkpt>
      <trkpt lat="42.3463934753" lon="-0.6137258839">
        <ele>1306.57</ele>
        <time>2022-04-15T05:44:11Z</time>
      </trkpt>
      <trkpt lat="42.3463206366" lon="-0.6138297357">
        <ele>1308.01</ele>
        <time>2022-04-15T05:44:21Z</time>
      </trkpt>
      <trkpt lat="42.3462702613" lon="-0.6140696257">
        <ele>1309.93</ele>
        <time>2022-04-15T05:44:37Z</time>
      </trkpt>
      <trkpt lat="42.3462740332" lon="-0.6142805982">
        <ele>1310.41</ele>
        <time>2022-04-15T05:44:54Z</time>
      </trkpt>
      <trkpt lat="42.3462752905" lon="-0.6144934986">
        <ele>1312.34</ele>
        <time>2022-04-15T05:45:10Z</time>
      </trkpt>
      <trkpt lat="42.3462434392" lon="-0.6147109251">
        <ele>1312.82</ele>
        <time>2022-04-15T05:45:25Z</time>
      </trkpt>
      <trkpt lat="42.3462177068" lon="-0.6148050539">
        <ele>1313.30</ele>
        <time>2022-04-15T05:45:31Z</time>
      </trkpt>
      <trkpt lat="42.3461913876" lon="-0.6149053015">
        <ele>1314.26</ele>
        <time>2022-04-15T05:45:38Z</time>
      </trkpt>
      <trkpt lat="42.3461276852" lon="-0.6151792221">
        <ele>1315.70</ele>
        <time>2022-04-15T05:45:56Z</time>
      </trkpt>
      <trkpt lat="42.3460605461" lon="-0.6154068746">
        <ele>1316.66</ele>
        <time>2022-04-15T05:46:11Z</time>
      </trkpt>
      <trkpt lat="42.3460572772" lon="-0.6154316012">
        <ele>1316.66</ele>
        <time>2022-04-15T05:46:12Z</time>
      </trkpt>
      <trkpt lat="42.3460488953" lon="-0.6155797932">
        <ele>1317.62</ele>
        <time>2022-04-15T05:46:21Z</time>
      </trkpt>
      <trkpt lat="42.3461260088" lon="-0.6158469245">
        <ele>1319.55</ele>
        <time>2022-04-15T05:46:39Z</time>
      </trkpt>
      <trkpt lat="42.3461832572" lon="-0.6160778459">
        <ele>1320.99</ele>
        <time>2022-04-15T05:46:54Z</time>
      </trkpt>
      <trkpt lat="42.3461887054" lon="-0.6161875650">
        <ele>1321.95</ele>
        <time>2022-04-15T05:47:03Z</time>
      </trkpt>
      <trkpt lat="42.3462016974" lon="-0.6162685342">
        <ele>1322.43</ele>
        <time>2022-04-15T05:47:07Z</time>
      </trkpt>
      <trkpt lat="42.3461749591" lon="-0.6165796705">
        <ele>1323.87</ele>
        <time>2022-04-15T05:47:25Z</time>
      </trkpt>
      <trkpt lat="42.3461172916" lon="-0.6168417726">
        <ele>1325.31</ele>
        <time>2022-04-15T05:47:42Z</time>
      </trkpt>
      <trkpt lat="42.3460623901" lon="-0.6169867795">
        <ele>1325.80</ele>
        <time>2022-04-15T05:47:51Z</time>
      </trkpt>
      <trkpt lat="42.3460701015" lon="-0.6171859335">
        <ele>1327.24</ele>
        <time>2022-04-15T05:48:04Z</time>
      </trkpt>
      <trkpt lat="42.3460758012" lon="-0.6172888633">
        <ele>1327.24</ele>
        <time>2022-04-15T05:48:11Z</time>
      </trkpt>
      <trkpt lat="42.3460458778" lon="-0.6175493728">
        <ele>1328.68</ele>
        <time>2022-04-15T05:48:27Z</time>
      </trkpt>
      <trkpt lat="42.3459999450" lon="-0.6177692302">
        <ele>1330.12</ele>
        <time>2022-04-15T05:48:43Z</time>
      </trkpt>
      <trkpt lat="42.3459824268" lon="-0.6180257164">
        <ele>1332.04</ele>
        <time>2022-04-15T05:49:01Z</time>
      </trkpt>
      <trkpt lat="42.3459337279" lon="-0.6183504313">
        <ele>1333.49</ele>
        <time>2022-04-15T05:49:20Z</time>
      </trkpt>
      <trkpt lat="42.3459226638" lon="-0.6183779240">
        <ele>1333.49</ele>
        <time>2022-04-15T05:49:22Z</time>
      </trkpt>
      <trkpt lat="42.3458819278" lon="-0.6185983680">
        <ele>1335.41</ele>
        <time>2022-04-15T05:49:36Z</time>
      </trkpt>
      <trkpt lat="42.3457799200" lon="-0.6188178062">
        <ele>1336.37</ele>
        <time>2022-04-15T05:49:53Z</time>
      </trkpt>
      <trkpt lat="42.3456966877" lon="-0.6190246716">
        <ele>1337.33</ele>
        <time>2022-04-15T05:50:07Z</time>
      </trkpt>
      <trkpt lat="42.3455963563" lon="-0.6192559283">
        <ele>1338.29</ele>
        <time>2022-04-15T05:50:22Z</time>
      </trkpt>
      <trkpt lat="42.3455233499" lon="-0.6194430124">
        <ele>1339.25</ele>
        <time>2022-04-15T05:50:36Z</time>
      </trkpt>
      <trkpt lat="42.3454800155" lon="-0.6195798051">
        <ele>1340.22</ele>
        <time>2022-04-15T05:50:47Z</time>
      </trkpt>
      <trkpt lat="42.3454338312" lon="-0.6197345350">
        <ele>1340.70</ele>
        <time>2022-04-15T05:50:58Z</time>
      </trkpt>
      <trkpt lat="42.3453391157" lon="-0.6199362036">
        <ele>1341.66</ele>
        <time>2022-04-15T05:51:12Z</time>
      </trkpt>
      <trkpt lat="42.3452677019" lon="-0.6201461703">
        <ele>1343.10</ele>
        <time>2022-04-15T05:51:26Z</time>
      </trkpt>
      <trkpt lat="42.3451937735" lon="-0.6204066798">
        <ele>1344.54</ele>
        <time>2022-04-15T05:51:42Z</time>
      </trkpt>
      <trkpt lat="42.3452363536" lon="-0.6204393692">
        <ele>1345.98</ele>
        <time>2022-04-15T05:51:55Z</time>
      </trkpt>
      <trkpt lat="42.3452109564" lon="-0.6205053348">
        <ele>1345.98</ele>
        <time>2022-04-15T05:52:06Z</time>
      </trkpt>
      <trkpt lat="42.3450744990" lon="-0.6206335779">
        <ele>1349.35</ele>
        <time>2022-04-15T05:52:23Z</time>
      </trkpt>
      <trkpt lat="42.3449765984" lon="-0.6207371783">
        <ele>1351.27</ele>
        <time>2022-04-15T05:52:36Z</time>
      </trkpt>
      <trkpt lat="42.3448974732" lon="-0.6208043173">
        <ele>1354.63</ele>
        <time>2022-04-15T05:52:49Z</time>
      </trkpt>
      <trkpt lat="42.3448133189" lon="-0.6208658405">
        <ele>1356.56</ele>
        <time>2022-04-15T05:53:03Z</time>
      </trkpt>
      <trkpt lat="42.3447891790" lon="-0.6208738033">
        <ele>1356.56</ele>
        <time>2022-04-15T05:53:06Z</time>
      </trkpt>
      <trkpt lat="42.3446885962" lon="-0.6209455524">
        <ele>1359.92</ele>
        <time>2022-04-15T05:53:21Z</time>
      </trkpt>
      <trkpt lat="42.3446422443" lon="-0.6210278627">
        <ele>1361.36</ele>
        <time>2022-04-15T05:53:31Z</time>
      </trkpt>
      <trkpt lat="42.3446155898" lon="-0.6211005338">
        <ele>1361.36</ele>
        <time>2022-04-15T05:53:36Z</time>
      </trkpt>
      <trkpt lat="42.3446052801" lon="-0.6211475562">
        <ele>1361.36</ele>
        <time>2022-04-15T05:53:40Z</time>
      </trkpt>
      <trkpt lat="42.3445531446" lon="-0.6212747097">
        <ele>1360.40</ele>
        <time>2022-04-15T05:53:50Z</time>
      </trkpt>
      <trkpt lat="42.3445507139" lon="-0.6212474685">
        <ele>1359.44</ele>
        <time>2022-04-15T05:54:07Z</time>
      </trkpt>
      <trkpt lat="42.3445534799" lon="-0.6212413497">
        <ele>1361.84</ele>
        <time>2022-04-15T05:54:09Z</time>
      </trkpt>
      <trkpt lat="42.3445626162" lon="-0.6212365720">
        <ele>1360.88</ele>
        <time>2022-04-15T05:54:11Z</time>
      </trkpt>
      <trkpt lat="42.3445567489" lon="-0.6212347280">
        <ele>1360.88</ele>
        <time>2022-04-15T05:54:32Z</time>
      </trkpt>
      <trkpt lat="42.3445597664" lon="-0.6212459598">
        <ele>1360.88</ele>
        <time>2022-04-15T05:54:52Z</time>
      </trkpt>
      <trkpt lat="42.3445599340" lon="-0.6212850194">
        <ele>1360.40</ele>
        <time>2022-04-15T05:55:08Z</time>
      </trkpt>
      <trkpt lat="42.3445535637" lon="-0.6212680880">
        <ele>1360.40</ele>
        <time>2022-04-15T05:55:22Z</time>
      </trkpt>
      <trkpt lat="42.3445613589" lon="-0.6212741230">
        <ele>1359.92</ele>
        <time>2022-04-15T05:55:45Z</time>
      </trkpt>
      <trkpt lat="42.3445487022" lon="-0.6212675851">
        <ele>1361.84</ele>
        <time>2022-04-15T05:55:50Z</time>
      </trkpt>
      <trkpt lat="42.3445641249" lon="-0.6212538388">
        <ele>1360.40</ele>
        <time>2022-04-15T05:56:04Z</time>
      </trkpt>
      <trkpt lat="42.3445621133" lon="-0.6212548446">
        <ele>1361.84</ele>
        <time>2022-04-15T05:56:07Z</time>
      </trkpt>
      <trkpt lat="42.3445518874" lon="-0.6212429423">
        <ele>1361.84</ele>
        <time>2022-04-15T05:56:28Z</time>
      </trkpt>
      <trkpt lat="42.3445204552" lon="-0.6213599537">
        <ele>1359.92</ele>
        <time>2022-04-15T05:56:44Z</time>
      </trkpt>
      <trkpt lat="42.3444218840" lon="-0.6214886997">
        <ele>1358.48</ele>
        <time>2022-04-15T05:56:58Z</time>
      </trkpt>
      <trkpt lat="42.3442701716" lon="-0.6216391549">
        <ele>1356.08</ele>
        <time>2022-04-15T05:57:18Z</time>
      </trkpt>
      <trkpt lat="42.3441265896" lon="-0.6217372231">
        <ele>1355.12</ele>
        <time>2022-04-15T05:57:31Z</time>
      </trkpt>
      <trkpt lat="42.3439547606" lon="-0.6218246464">
        <ele>1351.75</ele>
        <time>2022-04-15T05:57:47Z</time>
      </trkpt>
      <trkpt lat="42.3437799141" lon="-0.6219301745">
        <ele>1346.94</ele>
        <time>2022-04-15T05:58:01Z</time>
      </trkpt>
      <trkpt lat="42.3437464703" lon="-0.6219615228">
        <ele>1349.35</ele>
        <time>2022-04-15T05:58:04Z</time>
      </trkpt>
      <trkpt lat="42.3436125275" lon="-0.6220756005">
        <ele>1346.46</ele>
        <time>2022-04-15T05:58:16Z</time>
      </trkpt>
      <trkpt lat="42.3434453085" lon="-0.6221828889">
        <ele>1344.54</ele>
        <time>2022-04-15T05:58:31Z</time>
      </trkpt>
      <trkpt lat="42.3433728889" lon="-0.6222324260">
        <ele>1343.58</ele>
        <time>2022-04-15T05:58:38Z</time>
      </trkpt>
      <trkpt lat="42.3432795983" lon="-0.6222729944">
        <ele>1342.62</ele>
        <time>2022-04-15T05:58:46Z</time>
      </trkpt>
      <trkpt lat="42.3431910016" lon="-0.6223284826">
        <ele>1339.25</ele>
        <time>2022-04-15T05:58:55Z</time>
      </trkpt>
      <trkpt lat="42.3431240302" lon="-0.6225445680">
        <ele>1339.73</ele>
        <time>2022-04-15T05:59:06Z</time>
      </trkpt>
      <trkpt lat="42.3431443982" lon="-0.6226568017">
        <ele>1338.77</ele>
        <time>2022-04-15T05:59:12Z</time>
      </trkpt>
      <trkpt lat="42.3432743177" lon="-0.6229530182">
        <ele>1335.89</ele>
        <time>2022-04-15T05:59:32Z</time>
      </trkpt>
      <trkpt lat="42.3433267046" lon="-0.6231044792">
        <ele>1333.97</ele>
        <time>2022-04-15T05:59:42Z</time>
      </trkpt>
      <trkpt lat="42.3434158042" lon="-0.6232861150">
        <ele>1331.08</ele>
        <time>2022-04-15T05:59:55Z</time>
      </trkpt>
      <trkpt lat="42.3434744775" lon="-0.6234563515">
        <ele>1328.68</ele>
        <time>2022-04-15T06:00:07Z</time>
      </trkpt>
      <trkpt lat="42.3435560334" lon="-0.6236974150">
        <ele>1325.80</ele>
        <time>2022-04-15T06:00:22Z</time>
      </trkpt>
      <trkpt lat="42.3436583765" lon="-0.6239488721">
        <ele>1323.39</ele>
        <time>2022-04-15T06:00:38Z</time>
      </trkpt>
      <trkpt lat="42.3437817581" lon="-0.6241974793">
        <ele>1320.51</ele>
        <time>2022-04-15T06:00:55Z</time>
      </trkpt>
      <trkpt lat="42.3438260984" lon="-0.6243043486">
        <ele>1320.03</ele>
        <time>2022-04-15T06:01:02Z</time>
      </trkpt>
      <trkpt lat="42.3438923154" lon="-0.6244812906">
        <ele>1320.03</ele>
        <time>2022-04-15T06:01:15Z</time>
      </trkpt>
      <trkpt lat="42.3439602926" lon="-0.6247278862">
        <ele>1320.03</ele>
        <time>2022-04-15T06:01:31Z</time>
      </trkpt>
      <trkpt lat="42.3440230731" lon="-0.6249278784">
        <ele>1320.99</ele>
        <time>2022-04-15T06:01:45Z</time>
      </trkpt>
      <trkpt lat="42.3440951575" lon="-0.6250894815">
        <ele>1321.47</ele>
        <time>2022-04-15T06:01:57Z</time>
      </trkpt>
      <trkpt lat="42.3441701755" lon="-0.6253036391">
        <ele>1322.43</ele>
        <time>2022-04-15T06:02:11Z</time>
      </trkpt>
      <trkpt lat="42.3443140928" lon="-0.6255732011">
        <ele>1323.87</ele>
        <time>2022-04-15T06:02:29Z</time>
      </trkpt>
      <trkpt lat="42.3444709182" lon="-0.6258168630">
        <ele>1325.80</ele>
        <time>2022-04-15T06:02:47Z</time>
      </trkpt>
      <trkpt lat="42.3445153423" lon="-0.6259338744">
        <ele>1326.76</ele>
        <time>2022-04-15T06:02:56Z</time>
      </trkpt>
      <trkpt lat="42.3445521388" lon="-0.6261476129">
        <ele>1328.68</ele>
        <time>2022-04-15T06:03:09Z</time>
      </trkpt>
      <trkpt lat="42.3445935454" lon="-0.6263233814">
        <ele>1331.08</ele>
        <time>2022-04-15T06:03:22Z</time>
      </trkpt>
      <trkpt lat="42.3447253928" lon="-0.6264833082">
        <ele>1333.01</ele>
        <time>2022-04-15T06:03:35Z</time>
      </trkpt>
      <trkpt lat="42.3447605968" lon="-0.6265285704">
        <ele>1333.97</ele>
        <time>2022-04-15T06:03:39Z</time>
      </trkpt>
      <trkpt lat="42.3447673861" lon="-0.6265583262">
        <ele>1333.97</ele>
        <time>2022-04-15T06:03:41Z</time>
      </trkpt>
      <trkpt lat="42.3447491135" lon="-0.6266566459">
        <ele>1332.52</ele>
        <time>2022-04-15T06:03:47Z</time>
      </trkpt>
      <trkpt lat="42.3447206151" lon="-0.6269711349">
        <ele>1331.08</ele>
        <time>2022-04-15T06:04:06Z</time>
      </trkpt>
      <trkpt lat="42.3447224591" lon="-0.6272028945">
        <ele>1328.68</ele>
        <time>2022-04-15T06:04:21Z</time>
      </trkpt>
      <trkpt lat="42.3447535560" lon="-0.6273619831">
        <ele>1327.24</ele>
        <time>2022-04-15T06:04:33Z</time>
      </trkpt>
      <trkpt lat="42.3448169231" lon="-0.6276271027">
        <ele>1325.31</ele>
        <time>2022-04-15T06:04:48Z</time>
      </trkpt>
      <trkpt lat="42.3448369559" lon="-0.6277041323">
        <ele>1324.35</ele>
        <time>2022-04-15T06:04:53Z</time>
      </trkpt>
      <trkpt lat="42.3448708188" lon="-0.6278205570">
        <ele>1323.87</ele>
        <time>2022-04-15T06:05:00Z</time>
      </trkpt>
      <trkpt lat="42.3448989820" lon="-0.6279212236">
        <ele>1323.39</ele>
        <time>2022-04-15T06:05:05Z</time>
      </trkpt>
      <trkpt lat="42.3449798673" lon="-0.6281876843">
        <ele>1322.43</ele>
        <time>2022-04-15T06:05:20Z</time>
      </trkpt>
      <trkpt lat="42.3449917696" lon="-0.6282139197">
        <ele>1322.43</ele>
        <time>2022-04-15T06:05:22Z</time>
      </trkpt>
      <trkpt lat="42.3451238684" lon="-0.6284037698">
        <ele>1321.95</ele>
        <time>2022-04-15T06:05:38Z</time>
      </trkpt>
      <trkpt lat="42.3451969586" lon="-0.6284856610">
        <ele>1321.47</ele>
        <time>2022-04-15T06:05:45Z</time>
      </trkpt>
      <trkpt lat="42.3454291373" lon="-0.6286697276">
        <ele>1321.47</ele>
        <time>2022-04-15T06:06:04Z</time>
      </trkpt>
      <trkpt lat="42.3456096835" lon="-0.6288035028">
        <ele>1321.47</ele>
        <time>2022-04-15T06:06:20Z</time>
      </trkpt>
      <trkpt lat="42.3457768187" lon="-0.6290504336">
        <ele>1323.87</ele>
        <time>2022-04-15T06:06:40Z</time>
      </trkpt>
      <trkpt lat="42.3458938301" lon="-0.6291459873">
        <ele>1325.80</ele>
        <time>2022-04-15T06:06:51Z</time>
      </trkpt>
      <trkpt lat="42.3460796569" lon="-0.6292631663">
        <ele>1327.24</ele>
        <time>2022-04-15T06:07:09Z</time>
      </trkpt>
      <trkpt lat="42.3461701814" lon="-0.6293127872">
        <ele>1327.24</ele>
        <time>2022-04-15T06:07:16Z</time>
      </trkpt>
      <trkpt lat="42.3463577684" lon="-0.6295352429">
        <ele>1325.31</ele>
        <time>2022-04-15T06:07:36Z</time>
      </trkpt>
      <trkpt lat="42.3464368936" lon="-0.6297522504">
        <ele>1324.83</ele>
        <time>2022-04-15T06:07:49Z</time>
      </trkpt>
      <trkpt lat="42.3464327026" lon="-0.6300527416">
        <ele>1324.35</ele>
        <time>2022-04-15T06:08:07Z</time>
      </trkpt>
      <trkpt lat="42.3464334570" lon="-0.6301752012">
        <ele>1324.35</ele>
        <time>2022-04-15T06:08:16Z</time>
      </trkpt>
      <trkpt lat="42.3464326188" lon="-0.6304445956">
        <ele>1323.87</ele>
        <time>2022-04-15T06:08:31Z</time>
      </trkpt>
      <trkpt lat="42.3464386538" lon="-0.6307244673">
        <ele>1321.47</ele>
        <time>2022-04-15T06:08:46Z</time>
      </trkpt>
      <trkpt lat="42.3464269191" lon="-0.6309572328">
        <ele>1320.51</ele>
        <time>2022-04-15T06:08:59Z</time>
      </trkpt>
      <trkpt lat="42.3464252427" lon="-0.6312371045">
        <ele>1318.59</ele>
        <time>2022-04-15T06:09:14Z</time>
      </trkpt>
      <trkpt lat="42.3464250751" lon="-0.6312774215">
        <ele>1318.10</ele>
        <time>2022-04-15T06:09:16Z</time>
      </trkpt>
      <trkpt lat="42.3464296851" lon="-0.6314011384">
        <ele>1317.62</ele>
        <time>2022-04-15T06:09:23Z</time>
      </trkpt>
      <trkpt lat="42.3464332055" lon="-0.6314350013">
        <ele>1317.14</ele>
        <time>2022-04-15T06:09:25Z</time>
      </trkpt>
      <trkpt lat="42.3464413360" lon="-0.6315590534">
        <ele>1315.70</ele>
        <time>2022-04-15T06:09:33Z</time>
      </trkpt>
      <trkpt lat="42.3464534059" lon="-0.6316044834">
        <ele>1315.22</ele>
        <time>2022-04-15T06:09:36Z</time>
      </trkpt>
      <trkpt lat="42.3465097323" lon="-0.6317268591">
        <ele>1314.26</ele>
        <time>2022-04-15T06:09:46Z</time>
      </trkpt>
      <trkpt lat="42.3465104029" lon="-0.6317846105">
        <ele>1313.78</ele>
        <time>2022-04-15T06:09:50Z</time>
      </trkpt>
      <trkpt lat="42.3465546593" lon="-0.6319906376">
        <ele>1312.82</ele>
        <time>2022-04-15T06:10:02Z</time>
      </trkpt>
      <trkpt lat="42.3465704173" lon="-0.6320334692">
        <ele>1312.34</ele>
        <time>2022-04-15T06:10:05Z</time>
      </trkpt>
      <trkpt lat="42.3466404900" lon="-0.6322785560">
        <ele>1311.38</ele>
        <time>2022-04-15T06:10:19Z</time>
      </trkpt>
      <trkpt lat="42.3466733471" lon="-0.6323772948">
        <ele>1310.90</ele>
        <time>2022-04-15T06:10:28Z</time>
      </trkpt>
      <trkpt lat="42.3467305955" lon="-0.6324554142">
        <ele>1310.41</ele>
        <time>2022-04-15T06:10:34Z</time>
      </trkpt>
      <trkpt lat="42.3468223773" lon="-0.6327228807">
        <ele>1309.93</ele>
        <time>2022-04-15T06:10:49Z</time>
      </trkpt>
      <trkpt lat="42.3469281569" lon="-0.6329711527">
        <ele>1309.45</ele>
        <time>2022-04-15T06:11:05Z</time>
      </trkpt>
      <trkpt lat="42.3469502851" lon="-0.6330775190">
        <ele>1309.45</ele>
        <time>2022-04-15T06:11:11Z</time>
      </trkpt>
      <trkpt lat="42.3469712399" lon="-0.6331848074">
        <ele>1309.45</ele>
        <time>2022-04-15T06:11:17Z</time>
      </trkpt>
      <trkpt lat="42.3470467608" lon="-0.6334294751">
        <ele>1309.45</ele>
        <time>2022-04-15T06:11:33Z</time>
      </trkpt>
      <trkpt lat="42.3470470123" lon="-0.6334593985">
        <ele>1310.41</ele>
        <time>2022-04-15T06:11:35Z</time>
      </trkpt>
      <trkpt lat="42.3471144866" lon="-0.6336495001">
        <ele>1310.90</ele>
        <time>2022-04-15T06:11:46Z</time>
      </trkpt>
      <trkpt lat="42.3471598327" lon="-0.6337717921">
        <ele>1310.90</ele>
        <time>2022-04-15T06:11:54Z</time>
      </trkpt>
      <trkpt lat="42.3472634330" lon="-0.6339737121">
        <ele>1311.38</ele>
        <time>2022-04-15T06:12:10Z</time>
      </trkpt>
      <trkpt lat="42.3473941907" lon="-0.6340804975">
        <ele>1311.38</ele>
        <time>2022-04-15T06:12:21Z</time>
      </trkpt>
      <trkpt lat="42.3474535346" lon="-0.6342071481">
        <ele>1311.38</ele>
        <time>2022-04-15T06:12:29Z</time>
      </trkpt>
      <trkpt lat="42.3474703822" lon="-0.6342358142">
        <ele>1311.38</ele>
        <time>2022-04-15T06:12:31Z</time>
      </trkpt>
      <trkpt lat="42.3475345876" lon="-0.6344639696">
        <ele>1309.93</ele>
        <time>2022-04-15T06:12:45Z</time>
      </trkpt>
      <trkpt lat="42.3475531954" lon="-0.6345663127">
        <ele>1309.45</ele>
        <time>2022-04-15T06:12:51Z</time>
      </trkpt>
      <trkpt lat="42.3476294708" lon="-0.6346886046">
        <ele>1306.57</ele>
        <time>2022-04-15T06:13:03Z</time>
      </trkpt>
      <trkpt lat="42.3476422112" lon="-0.6346922927">
        <ele>1306.09</ele>
        <time>2022-04-15T06:13:04Z</time>
      </trkpt>
      <trkpt lat="42.3477642518" lon="-0.6347355433">
        <ele>1303.20</ele>
        <time>2022-04-15T06:13:15Z</time>
      </trkpt>
      <trkpt lat="42.3478287086" lon="-0.6347906962">
        <ele>1302.24</ele>
        <time>2022-04-15T06:13:21Z</time>
      </trkpt>
      <trkpt lat="42.3479729611" lon="-0.6349381339">
        <ele>1298.88</ele>
        <time>2022-04-15T06:13:33Z</time>
      </trkpt>
      <trkpt lat="42.3480650783" lon="-0.6351170875">
        <ele>1296.96</ele>
        <time>2022-04-15T06:13:47Z</time>
      </trkpt>
      <trkpt lat="42.3481645714" lon="-0.6353713945">
        <ele>1294.55</ele>
        <time>2022-04-15T06:14:02Z</time>
      </trkpt>
      <trkpt lat="42.3482642323" lon="-0.6355773378">
        <ele>1293.11</ele>
        <time>2022-04-15T06:14:17Z</time>
      </trkpt>
      <trkpt lat="42.3483725265" lon="-0.6357282121">
        <ele>1290.71</ele>
        <time>2022-04-15T06:14:29Z</time>
      </trkpt>
      <trkpt lat="42.3484752886" lon="-0.6358830258">
        <ele>1287.82</ele>
        <time>2022-04-15T06:14:44Z</time>
      </trkpt>
      <trkpt lat="42.3486552481" lon="-0.6359831057">
        <ele>1285.42</ele>
        <time>2022-04-15T06:14:58Z</time>
      </trkpt>
      <trkpt lat="42.3488457687" lon="-0.6361070741">
        <ele>1282.54</ele>
        <time>2022-04-15T06:15:13Z</time>
      </trkpt>
      <trkpt lat="42.3490502033" lon="-0.6362074055">
        <ele>1281.09</ele>
        <time>2022-04-15T06:15:27Z</time>
      </trkpt>
      <trkpt lat="42.3491437454" lon="-0.6362775620">
        <ele>1280.61</ele>
        <time>2022-04-15T06:15:34Z</time>
      </trkpt>
      <trkpt lat="42.3492871597" lon="-0.6364737824">
        <ele>1279.65</ele>
        <time>2022-04-15T06:15:49Z</time>
      </trkpt>
      <trkpt lat="42.3493687157" lon="-0.6366148498">
        <ele>1278.69</ele>
        <time>2022-04-15T06:16:00Z</time>
      </trkpt>
      <trkpt lat="42.3494879901" lon="-0.6368344557">
        <ele>1278.69</ele>
        <time>2022-04-15T06:16:16Z</time>
      </trkpt>
      <trkpt lat="42.3495142255" lon="-0.6369035225">
        <ele>1277.73</ele>
        <time>2022-04-15T06:16:20Z</time>
      </trkpt>
      <trkpt lat="42.3496205918" lon="-0.6370774470">
        <ele>1276.77</ele>
        <time>2022-04-15T06:16:33Z</time>
      </trkpt>
      <trkpt lat="42.3496513534" lon="-0.6371279899">
        <ele>1276.29</ele>
        <time>2022-04-15T06:16:36Z</time>
      </trkpt>
      <trkpt lat="42.3496789299" lon="-0.6371921953">
        <ele>1276.29</ele>
        <time>2022-04-15T06:16:39Z</time>
      </trkpt>
      <trkpt lat="42.3497456498" lon="-0.6373780221">
        <ele>1274.36</ele>
        <time>2022-04-15T06:16:52Z</time>
      </trkpt>
      <trkpt lat="42.3497942649" lon="-0.6375831272">
        <ele>1271.96</ele>
        <time>2022-04-15T06:17:06Z</time>
      </trkpt>
      <trkpt lat="42.3498117831" lon="-0.6376345083">
        <ele>1271.96</ele>
        <time>2022-04-15T06:17:09Z</time>
      </trkpt>
      <trkpt lat="42.3498366773" lon="-0.6378842890">
        <ele>1270.52</ele>
        <time>2022-04-15T06:17:22Z</time>
      </trkpt>
      <trkpt lat="42.3498867173" lon="-0.6380981952">
        <ele>1268.12</ele>
        <time>2022-04-15T06:17:36Z</time>
      </trkpt>
      <trkpt lat="42.3499266151" lon="-0.6383325532">
        <ele>1266.19</ele>
        <time>2022-04-15T06:17:51Z</time>
      </trkpt>
      <trkpt lat="42.3499121144" lon="-0.6386243273">
        <ele>1263.79</ele>
        <time>2022-04-15T06:18:07Z</time>
      </trkpt>
      <trkpt lat="42.3499038164" lon="-0.6388066337">
        <ele>1262.35</ele>
        <time>2022-04-15T06:18:21Z</time>
      </trkpt>
      <trkpt lat="42.3499099351" lon="-0.6390610244">
        <ele>1261.87</ele>
        <time>2022-04-15T06:18:35Z</time>
      </trkpt>
      <trkpt lat="42.3500278685" lon="-0.6393111404">
        <ele>1259.94</ele>
        <time>2022-04-15T06:18:53Z</time>
      </trkpt>
      <trkpt lat="42.3500573728" lon="-0.6393751781">
        <ele>1258.98</ele>
        <time>2022-04-15T06:18:58Z</time>
      </trkpt>
      <trkpt lat="42.3501323070" lon="-0.6394832209">
        <ele>1258.50</ele>
        <time>2022-04-15T06:19:06Z</time>
      </trkpt>
      <trkpt lat="42.3501805030" lon="-0.6395553891">
        <ele>1258.02</ele>
        <time>2022-04-15T06:19:11Z</time>
      </trkpt>
      <trkpt lat="42.3503006995" lon="-0.6397435628">
        <ele>1258.02</ele>
        <time>2022-04-15T06:19:24Z</time>
      </trkpt>
      <trkpt lat="42.3504042160" lon="-0.6400206685">
        <ele>1258.02</ele>
        <time>2022-04-15T06:19:42Z</time>
      </trkpt>
      <trkpt lat="42.3504768033" lon="-0.6402119435">
        <ele>1258.02</ele>
        <time>2022-04-15T06:19:55Z</time>
      </trkpt>
      <trkpt lat="42.3505358957" lon="-0.6404354889">
        <ele>1257.06</ele>
        <time>2022-04-15T06:20:10Z</time>
      </trkpt>
      <trkpt lat="42.3505199701" lon="-0.6406996027">
        <ele>1256.10</ele>
        <time>2022-04-15T06:20:24Z</time>
      </trkpt>
      <trkpt lat="42.3505061399" lon="-0.6409886945">
        <ele>1254.18</ele>
        <time>2022-04-15T06:20:40Z</time>
      </trkpt>
      <trkpt lat="42.3505301122" lon="-0.6410883553">
        <ele>1253.70</ele>
        <time>2022-04-15T06:20:48Z</time>
      </trkpt>
      <trkpt lat="42.3505932279" lon="-0.6413447578">
        <ele>1252.74</ele>
        <time>2022-04-15T06:21:05Z</time>
      </trkpt>
      <trkpt lat="42.3506880272" lon="-0.6415462587">
        <ele>1252.74</ele>
        <time>2022-04-15T06:21:19Z</time>
      </trkpt>
      <trkpt lat="42.3506847583" lon="-0.6415546406">
        <ele>1252.74</ele>
        <time>2022-04-15T06:21:22Z</time>
      </trkpt>
      <trkpt lat="42.3507808987" lon="-0.6417030841">
        <ele>1251.77</ele>
        <time>2022-04-15T06:21:37Z</time>
      </trkpt>
      <trkpt lat="42.3508621193" lon="-0.6418634299">
        <ele>1251.77</ele>
        <time>2022-04-15T06:21:50Z</time>
      </trkpt>
      <trkpt lat="42.3509482853" lon="-0.6420538668">
        <ele>1251.77</ele>
        <time>2022-04-15T06:22:03Z</time>
      </trkpt>
      <trkpt lat="42.3509937990" lon="-0.6421743147">
        <ele>1251.77</ele>
        <time>2022-04-15T06:22:11Z</time>
      </trkpt>
      <trkpt lat="42.3510205373" lon="-0.6422502548">
        <ele>1251.77</ele>
        <time>2022-04-15T06:22:17Z</time>
      </trkpt>
      <trkpt lat="42.3510827310" lon="-0.6424477324">
        <ele>1251.29</ele>
        <time>2022-04-15T06:22:32Z</time>
      </trkpt>
      <trkpt lat="42.3511146661" lon="-0.6425315514">
        <ele>1251.29</ele>
        <time>2022-04-15T06:22:37Z</time>
      </trkpt>
      <trkpt lat="42.3511193600" lon="-0.6426427793">
        <ele>1248.41</ele>
        <time>2022-04-15T06:22:43Z</time>
      </trkpt>
      <trkpt lat="42.3511247244" lon="-0.6426530052">
        <ele>1253.70</ele>
        <time>2022-04-15T06:22:44Z</time>
      </trkpt>
      <trkpt lat="42.3511265684" lon="-0.6426935736">
        <ele>1252.25</ele>
        <time>2022-04-15T06:22:47Z</time>
      </trkpt>
      <trkpt lat="42.3511397280" lon="-0.6427584495">
        <ele>1252.25</ele>
        <time>2022-04-15T06:22:51Z</time>
      </trkpt>
      <trkpt lat="42.3511231318" lon="-0.6430702563">
        <ele>1253.70</ele>
        <time>2022-04-15T06:23:07Z</time>
      </trkpt>
      <trkpt lat="42.3511355370" lon="-0.6432977412">
        <ele>1255.62</ele>
        <time>2022-04-15T06:23:20Z</time>
      </trkpt>
      <trkpt lat="42.3511670530" lon="-0.6434682291">
        <ele>1257.54</ele>
        <time>2022-04-15T06:23:35Z</time>
      </trkpt>
      <trkpt lat="42.3512683902" lon="-0.6436935347">
        <ele>1259.94</ele>
        <time>2022-04-15T06:23:51Z</time>
      </trkpt>
      <trkpt lat="42.3514205217" lon="-0.6438579876">
        <ele>1260.91</ele>
        <time>2022-04-15T06:24:08Z</time>
      </trkpt>
      <trkpt lat="42.3514338490" lon="-0.6440294813">
        <ele>1260.91</ele>
        <time>2022-04-15T06:24:20Z</time>
      </trkpt>
      <trkpt lat="42.3514648620" lon="-0.6441915873">
        <ele>1261.39</ele>
        <time>2022-04-15T06:24:36Z</time>
      </trkpt>
      <trkpt lat="42.3514967971" lon="-0.6441027392">
        <ele>1260.43</ele>
        <time>2022-04-15T06:24:45Z</time>
      </trkpt>
      <trkpt lat="42.3515325040" lon="-0.6440743245">
        <ele>1258.98</ele>
        <time>2022-04-15T06:24:48Z</time>
      </trkpt>
      <trkpt lat="42.3516550474" lon="-0.6439337600">
        <ele>1257.06</ele>
        <time>2022-04-15T06:25:02Z</time>
      </trkpt>
      <trkpt lat="42.3518242780" lon="-0.6437761802">
        <ele>1255.62</ele>
        <time>2022-04-15T06:25:16Z</time>
      </trkpt>
      <trkpt lat="42.3519339133" lon="-0.6436199415">
        <ele>1254.18</ele>
        <time>2022-04-15T06:25:30Z</time>
      </trkpt>
      <trkpt lat="42.3520730529" lon="-0.6434740964">
        <ele>1251.77</ele>
        <time>2022-04-15T06:25:42Z</time>
      </trkpt>
      <trkpt lat="42.3521039821" lon="-0.6434313487">
        <ele>1250.81</ele>
        <time>2022-04-15T06:25:46Z</time>
      </trkpt>
      <trkpt lat="42.3521889746" lon="-0.6433881819">
        <ele>1250.33</ele>
        <time>2022-04-15T06:25:53Z</time>
      </trkpt>
      <trkpt lat="42.3524127714" lon="-0.6435010023">
        <ele>1248.41</ele>
        <time>2022-04-15T06:26:09Z</time>
      </trkpt>
      <trkpt lat="42.3523904756" lon="-0.6437906809">
        <ele>1246.49</ele>
        <time>2022-04-15T06:26:26Z</time>
      </trkpt>
      <trkpt lat="42.3523199838" lon="-0.6440362707">
        <ele>1243.60</ele>
        <time>2022-04-15T06:26:42Z</time>
      </trkpt>
      <trkpt lat="42.3522630706" lon="-0.6442476623">
        <ele>1241.20</ele>
        <time>2022-04-15T06:26:57Z</time>
      </trkpt>
      <trkpt lat="42.3521978594" lon="-0.6444375124">
        <ele>1240.24</ele>
        <time>2022-04-15T06:27:08Z</time>
      </trkpt>
      <trkpt lat="42.3521688581" lon="-0.6446535978">
        <ele>1239.28</ele>
        <time>2022-04-15T06:27:20Z</time>
      </trkpt>
      <trkpt lat="42.3521440476" lon="-0.6448786519">
        <ele>1236.39</ele>
        <time>2022-04-15T06:27:34Z</time>
      </trkpt>
      <trkpt lat="42.3521404434" lon="-0.6450539175">
        <ele>1236.39</ele>
        <time>2022-04-15T06:27:43Z</time>
      </trkpt>
      <trkpt lat="42.3520793393" lon="-0.6451735273">
        <ele>1235.43</ele>
        <time>2022-04-15T06:27:51Z</time>
      </trkpt>
      <trkpt lat="42.3520103563" lon="-0.6452541612">
        <ele>1234.95</ele>
        <time>2022-04-15T06:27:58Z</time>
      </trkpt>
      <trkpt lat="42.3519665189" lon="-0.6455000862">
        <ele>1232.07</ele>
        <time>2022-04-15T06:28:12Z</time>
      </trkpt>
      <trkpt lat="42.3519650102" lon="-0.6455204543">
        <ele>1232.07</ele>
        <time>2022-04-15T06:28:13Z</time>
      </trkpt>
      <trkpt lat="42.3520080931" lon="-0.6456126552">
        <ele>1231.11</ele>
        <time>2022-04-15T06:28:20Z</time>
      </trkpt>
      <trkpt lat="42.3520544451" lon="-0.6455926225">
        <ele>1230.14</ele>
        <time>2022-04-15T06:28:25Z</time>
      </trkpt>
      <trkpt lat="42.3521734681" lon="-0.6453830749">
        <ele>1227.74</ele>
        <time>2022-04-15T06:28:40Z</time>
      </trkpt>
      <trkpt lat="42.3521821853" lon="-0.6453697477">
        <ele>1227.74</ele>
        <time>2022-04-15T06:28:41Z</time>
      </trkpt>
      <trkpt lat="42.3523529246" lon="-0.6452632137">
        <ele>1226.78</ele>
        <time>2022-04-15T06:28:54Z</time>
      </trkpt>
      <trkpt lat="42.3524150345" lon="-0.6453513075">
        <ele>1224.86</ele>
        <time>2022-04-15T06:29:03Z</time>
      </trkpt>
      <trkpt lat="42.3522922397" lon="-0.6455165148">
        <ele>1222.45</ele>
        <time>2022-04-15T06:29:17Z</time>
      </trkpt>
      <trkpt lat="42.3522730451" lon="-0.6455901079">
        <ele>1222.45</ele>
        <time>2022-04-15T06:29:23Z</time>
      </trkpt>
      <trkpt lat="42.3522181436" lon="-0.6458902638">
        <ele>1221.49</ele>
        <time>2022-04-15T06:29:38Z</time>
      </trkpt>
      <trkpt lat="42.3521046527" lon="-0.6459881645">
        <ele>1221.01</ele>
        <time>2022-04-15T06:29:52Z</time>
      </trkpt>
      <trkpt lat="42.3520492483" lon="-0.6460343488">
        <ele>1220.53</ele>
        <time>2022-04-15T06:29:56Z</time>
      </trkpt>
      <trkpt lat="42.3519972805" lon="-0.6461946107">
        <ele>1220.53</ele>
        <time>2022-04-15T06:30:10Z</time>
      </trkpt>
      <trkpt lat="42.3519944306" lon="-0.6462919246">
        <ele>1220.53</ele>
        <time>2022-04-15T06:30:15Z</time>
      </trkpt>
      <trkpt lat="42.3520119488" lon="-0.6463703793">
        <ele>1220.53</ele>
        <time>2022-04-15T06:30:20Z</time>
      </trkpt>
      <trkpt lat="42.3520660121" lon="-0.6464273762">
        <ele>1219.09</ele>
        <time>2022-04-15T06:30:27Z</time>
      </trkpt>
      <trkpt lat="42.3522225022" lon="-0.6463505141">
        <ele>1217.17</ele>
        <time>2022-04-15T06:30:41Z</time>
      </trkpt>
      <trkpt lat="42.3523076624" lon="-0.6461838819">
        <ele>1216.21</ele>
        <time>2022-04-15T06:30:53Z</time>
      </trkpt>
      <trkpt lat="42.3523142841" lon="-0.6461677887">
        <ele>1216.21</ele>
        <time>2022-04-15T06:30:54Z</time>
      </trkpt>
      <trkpt lat="42.3523469735" lon="-0.6461092830">
        <ele>1216.21</ele>
        <time>2022-04-15T06:30:58Z</time>
      </trkpt>
      <trkpt lat="42.3524208181" lon="-0.6460026652">
        <ele>1215.24</ele>
        <time>2022-04-15T06:31:09Z</time>
      </trkpt>
      <trkpt lat="42.3526386637" lon="-0.6460962910">
        <ele>1212.84</ele>
        <time>2022-04-15T06:31:24Z</time>
      </trkpt>
      <trkpt lat="42.3526938166" lon="-0.6461169105">
        <ele>1211.88</ele>
        <time>2022-04-15T06:31:29Z</time>
      </trkpt>
      <trkpt lat="42.3527576029" lon="-0.6461390387">
        <ele>1211.40</ele>
        <time>2022-04-15T06:31:35Z</time>
      </trkpt>
      <trkpt lat="42.3528026976" lon="-0.6461684592">
        <ele>1210.92</ele>
        <time>2022-04-15T06:31:39Z</time>
      </trkpt>
      <trkpt lat="42.3529904522" lon="-0.6463524420">
        <ele>1208.51</ele>
        <time>2022-04-15T06:31:55Z</time>
      </trkpt>
      <trkpt lat="42.3530819826" lon="-0.6463867240">
        <ele>1207.55</ele>
        <time>2022-04-15T06:32:02Z</time>
      </trkpt>
      <trkpt lat="42.3532202840" lon="-0.6464340817">
        <ele>1206.11</ele>
        <time>2022-04-15T06:32:14Z</time>
      </trkpt>
      <trkpt lat="42.3532680608" lon="-0.6464770809">
        <ele>1205.63</ele>
        <time>2022-04-15T06:32:18Z</time>
      </trkpt>
      <trkpt lat="42.3533702362" lon="-0.6466350798">
        <ele>1203.71</ele>
        <time>2022-04-15T06:32:32Z</time>
      </trkpt>
      <trkpt lat="42.3534195218" lon="-0.6467353273">
        <ele>1202.75</ele>
        <time>2022-04-15T06:32:39Z</time>
      </trkpt>
      <trkpt lat="42.3533842340" lon="-0.6468375027">
        <ele>1201.79</ele>
        <time>2022-04-15T06:32:46Z</time>
      </trkpt>
      <trkpt lat="42.3533463478" lon="-0.6468304619">
        <ele>1200.82</ele>
        <time>2022-04-15T06:32:50Z</time>
      </trkpt>
      <trkpt lat="42.3532343656" lon="-0.6467934977">
        <ele>1198.42</ele>
        <time>2022-04-15T06:33:00Z</time>
      </trkpt>
      <trkpt lat="42.3531430867" lon="-0.6469007023">
        <ele>1196.98</ele>
        <time>2022-04-15T06:33:11Z</time>
      </trkpt>
      <trkpt lat="42.3531134147" lon="-0.6469409354">
        <ele>1196.50</ele>
        <time>2022-04-15T06:33:14Z</time>
      </trkpt>
      <trkpt lat="42.3530393187" lon="-0.6469770614">
        <ele>1196.02</ele>
        <time>2022-04-15T06:33:20Z</time>
      </trkpt>
      <trkpt lat="42.3528674059" lon="-0.6470234133">
        <ele>1193.61</ele>
        <time>2022-04-15T06:33:34Z</time>
      </trkpt>
      <trkpt lat="42.3528443556" lon="-0.6470441166">
        <ele>1193.61</ele>
        <time>2022-04-15T06:33:36Z</time>
      </trkpt>
      <trkpt lat="42.3528822418" lon="-0.6472242437">
        <ele>1191.69</ele>
        <time>2022-04-15T06:33:48Z</time>
      </trkpt>
      <trkpt lat="42.3529068008" lon="-0.6472602021">
        <ele>1191.69</ele>
        <time>2022-04-15T06:33:51Z</time>
      </trkpt>
      <trkpt lat="42.3530695774" lon="-0.6473244913">
        <ele>1188.81</ele>
        <time>2022-04-15T06:34:04Z</time>
      </trkpt>
      <trkpt lat="42.3532195296" lon="-0.6474647205">
        <ele>1186.40</ele>
        <time>2022-04-15T06:34:18Z</time>
      </trkpt>
      <trkpt lat="42.3532408196" lon="-0.6474762876">
        <ele>1186.40</ele>
        <time>2022-04-15T06:34:20Z</time>
      </trkpt>
      <trkpt lat="42.3533990700" lon="-0.6475161854">
        <ele>1184.48</ele>
        <time>2022-04-15T06:34:35Z</time>
      </trkpt>
      <trkpt lat="42.3535185121" lon="-0.6475847494">
        <ele>1183.04</ele>
        <time>2022-04-15T06:34:47Z</time>
      </trkpt>
      <trkpt lat="42.3536799476" lon="-0.6476054527">
        <ele>1181.60</ele>
        <time>2022-04-15T06:34:59Z</time>
      </trkpt>
      <trkpt lat="42.3537964560" lon="-0.6477012578">
        <ele>1179.67</ele>
        <time>2022-04-15T06:35:10Z</time>
      </trkpt>
      <trkpt lat="42.3538636789" lon="-0.6477308460">
        <ele>1179.19</ele>
        <time>2022-04-15T06:35:15Z</time>
      </trkpt>
      <trkpt lat="42.3539407086" lon="-0.6478798762">
        <ele>1178.71</ele>
        <time>2022-04-15T06:35:27Z</time>
      </trkpt>
      <trkpt lat="42.3539736494" lon="-0.6479838118">
        <ele>1178.23</ele>
        <time>2022-04-15T06:35:34Z</time>
      </trkpt>
      <trkpt lat="42.3539975379" lon="-0.6481442414">
        <ele>1176.79</ele>
        <time>2022-04-15T06:35:42Z</time>
      </trkpt>
      <trkpt lat="42.3539272975" lon="-0.6482358556">
        <ele>1175.35</ele>
        <time>2022-04-15T06:35:49Z</time>
      </trkpt>
      <trkpt lat="42.3539131321" lon="-0.6482479256">
        <ele>1175.35</ele>
        <time>2022-04-15T06:35:51Z</time>
      </trkpt>
      <trkpt lat="42.3539073486" lon="-0.6482184213">
        <ele>1174.87</ele>
        <time>2022-04-15T06:35:55Z</time>
      </trkpt>
      <trkpt lat="42.3537844699" lon="-0.6480238773">
        <ele>1172.47</ele>
        <time>2022-04-15T06:36:11Z</time>
      </trkpt>
      <trkpt lat="42.3537773453" lon="-0.6480150763">
        <ele>1172.47</ele>
        <time>2022-04-15T06:36:12Z</time>
      </trkpt>
      <trkpt lat="42.3537252937" lon="-0.6479815487">
        <ele>1171.98</ele>
        <time>2022-04-15T06:36:17Z</time>
      </trkpt>
      <trkpt lat="42.3535390478" lon="-0.6479407288">
        <ele>1171.02</ele>
        <time>2022-04-15T06:36:33Z</time>
      </trkpt>
      <trkpt lat="42.3534170073" lon="-0.6479274016">
        <ele>1170.06</ele>
        <time>2022-04-15T06:36:45Z</time>
      </trkpt>
      <trkpt lat="42.3534034286" lon="-0.6479424890">
        <ele>1169.58</ele>
        <time>2022-04-15T06:36:47Z</time>
      </trkpt>
      <trkpt lat="42.3533073720" lon="-0.6479740888">
        <ele>1169.10</ele>
        <time>2022-04-15T06:36:54Z</time>
      </trkpt>
      <trkpt lat="42.3531963956" lon="-0.6480988115">
        <ele>1167.18</ele>
        <time>2022-04-15T06:37:09Z</time>
      </trkpt>
      <trkpt lat="42.3532207031" lon="-0.6482776813">
        <ele>1165.74</ele>
        <time>2022-04-15T06:37:18Z</time>
      </trkpt>
      <trkpt lat="42.3532520514" lon="-0.6483439822">
        <ele>1164.77</ele>
        <time>2022-04-15T06:37:24Z</time>
      </trkpt>
      <trkpt lat="42.3533044383" lon="-0.6483995542">
        <ele>1163.81</ele>
        <time>2022-04-15T06:37:28Z</time>
      </trkpt>
      <trkpt lat="42.3533293325" lon="-0.6484190840">
        <ele>1163.33</ele>
        <time>2022-04-15T06:37:30Z</time>
      </trkpt>
      <trkpt lat="42.3534649517" lon="-0.6484699622">
        <ele>1161.41</ele>
        <time>2022-04-15T06:37:43Z</time>
      </trkpt>
      <trkpt lat="42.3535091244" lon="-0.6485018972">
        <ele>1160.45</ele>
        <time>2022-04-15T06:37:48Z</time>
      </trkpt>
      <trkpt lat="42.3535335157" lon="-0.6485780887">
        <ele>1159.97</ele>
        <time>2022-04-15T06:37:52Z</time>
      </trkpt>
      <trkpt lat="42.3536489345" lon="-0.6488195714">
        <ele>1157.56</ele>
        <time>2022-04-15T06:38:07Z</time>
      </trkpt>
      <trkpt lat="42.3536993936" lon="-0.6489198189">
        <ele>1156.60</ele>
        <time>2022-04-15T06:38:16Z</time>
      </trkpt>
      <trkpt lat="42.3537884094" lon="-0.6489898078">
        <ele>1156.12</ele>
        <time>2022-04-15T06:38:23Z</time>
      </trkpt>
      <trkpt lat="42.3539496772" lon="-0.6490777340">
        <ele>1153.24</ele>
        <time>2022-04-15T06:38:37Z</time>
      </trkpt>
      <trkpt lat="42.3540850449" lon="-0.6491604634">
        <ele>1150.84</ele>
        <time>2022-04-15T06:38:51Z</time>
      </trkpt>
      <trkpt lat="42.3542223405" lon="-0.6491977628">
        <ele>1147.95</ele>
        <time>2022-04-15T06:39:05Z</time>
      </trkpt>
      <trkpt lat="42.3542173114" lon="-0.6492177956">
        <ele>1147.95</ele>
        <time>2022-04-15T06:39:07Z</time>
      </trkpt>
      <trkpt lat="42.3541791737" lon="-0.6492697634">
        <ele>1147.47</ele>
        <time>2022-04-15T06:39:11Z</time>
      </trkpt>
      <trkpt lat="42.3541542795" lon="-0.6492919754">
        <ele>1147.47</ele>
        <time>2022-04-15T06:39:13Z</time>
      </trkpt>
      <trkpt lat="42.3540231027" lon="-0.6493482180">
        <ele>1145.07</ele>
        <time>2022-04-15T06:39:27Z</time>
      </trkpt>
      <trkpt lat="42.3538833763" lon="-0.6494133454">
        <ele>1144.59</ele>
        <time>2022-04-15T06:39:38Z</time>
      </trkpt>
      <trkpt lat="42.3538218532" lon="-0.6494172011">
        <ele>1144.11</ele>
        <time>2022-04-15T06:39:43Z</time>
      </trkpt>
      <trkpt lat="42.3537728190" lon="-0.6494150218">
        <ele>1143.63</ele>
        <time>2022-04-15T06:39:47Z</time>
      </trkpt>
      <trkpt lat="42.3536878265" lon="-0.6494197156">
        <ele>1142.66</ele>
        <time>2022-04-15T06:39:53Z</time>
      </trkpt>
      <trkpt lat="42.3536659498" lon="-0.6495433487">
        <ele>1141.22</ele>
        <time>2022-04-15T06:40:02Z</time>
      </trkpt>
      <trkpt lat="42.3538566381" lon="-0.6497374736">
        <ele>1138.34</ele>
        <time>2022-04-15T06:40:21Z</time>
      </trkpt>
      <trkpt lat="42.3539429717" lon="-0.6498390622">
        <ele>1136.42</ele>
        <time>2022-04-15T06:40:32Z</time>
      </trkpt>
      <trkpt lat="42.3539335001" lon="-0.6498954725">
        <ele>1135.94</ele>
        <time>2022-04-15T06:40:36Z</time>
      </trkpt>
      <trkpt lat="42.3537683766" lon="-0.6498924550">
        <ele>1134.01</ele>
        <time>2022-04-15T06:40:51Z</time>
      </trkpt>
      <trkpt lat="42.3537521996" lon="-0.6498686504">
        <ele>1133.05</ele>
        <time>2022-04-15T06:40:54Z</time>
      </trkpt>
      <trkpt lat="42.3536597472" lon="-0.6498022657">
        <ele>1132.57</ele>
        <time>2022-04-15T06:41:01Z</time>
      </trkpt>
      <trkpt lat="42.3536315840" lon="-0.6498269085">
        <ele>1132.09</ele>
        <time>2022-04-15T06:41:04Z</time>
      </trkpt>
      <trkpt lat="42.3536699731" lon="-0.6499464344">
        <ele>1130.17</ele>
        <time>2022-04-15T06:41:15Z</time>
      </trkpt>
      <trkpt lat="42.3537831288" lon="-0.6500210334">
        <ele>1129.21</ele>
        <time>2022-04-15T06:41:24Z</time>
      </trkpt>
      <trkpt lat="42.3538029101" lon="-0.6500404794">
        <ele>1128.24</ele>
        <time>2022-04-15T06:41:26Z</time>
      </trkpt>
      <trkpt lat="42.3539217655" lon="-0.6501393020">
        <ele>1126.80</ele>
        <time>2022-04-15T06:41:39Z</time>
      </trkpt>
      <trkpt lat="42.3539456539" lon="-0.6501481030">
        <ele>1126.32</ele>
        <time>2022-04-15T06:41:41Z</time>
      </trkpt>
      <trkpt lat="42.3541181535" lon="-0.6502253003">
        <ele>1123.92</ele>
        <time>2022-04-15T06:41:55Z</time>
      </trkpt>
      <trkpt lat="42.3541792575" lon="-0.6502691377">
        <ele>1122.96</ele>
        <time>2022-04-15T06:42:02Z</time>
      </trkpt>
      <trkpt lat="42.3543111887" lon="-0.6503622606">
        <ele>1121.03</ele>
        <time>2022-04-15T06:42:15Z</time>
      </trkpt>
      <trkpt lat="42.3543368373" lon="-0.6504205987">
        <ele>1119.59</ele>
        <time>2022-04-15T06:42:22Z</time>
      </trkpt>
      <trkpt lat="42.3542601429" lon="-0.6505275518">
        <ele>1117.67</ele>
        <time>2022-04-15T06:42:34Z</time>
      </trkpt>
      <trkpt lat="42.3541135434" lon="-0.6505436450">
        <ele>1116.23</ele>
        <time>2022-04-15T06:42:48Z</time>
      </trkpt>
      <trkpt lat="42.3539997172" lon="-0.6505651865">
        <ele>1114.31</ele>
        <time>2022-04-15T06:43:01Z</time>
      </trkpt>
      <trkpt lat="42.3539384454" lon="-0.6506489217">
        <ele>1113.82</ele>
        <time>2022-04-15T06:43:07Z</time>
      </trkpt>
      <trkpt lat="42.3539572209" lon="-0.6507257838">
        <ele>1112.38</ele>
        <time>2022-04-15T06:43:12Z</time>
      </trkpt>
      <trkpt lat="42.3541044910" lon="-0.6508562900">
        <ele>1110.94</ele>
        <time>2022-04-15T06:43:28Z</time>
      </trkpt>
      <trkpt lat="42.3542114440" lon="-0.6509327330">
        <ele>1109.50</ele>
        <time>2022-04-15T06:43:43Z</time>
      </trkpt>
      <trkpt lat="42.3543264437" lon="-0.6509992015">
        <ele>1108.06</ele>
        <time>2022-04-15T06:43:53Z</time>
      </trkpt>
      <trkpt lat="42.3544377554" lon="-0.6511148717">
        <ele>1106.61</ele>
        <time>2022-04-15T06:44:06Z</time>
      </trkpt>
      <trkpt lat="42.3543974385" lon="-0.6511838548">
        <ele>1105.65</ele>
        <time>2022-04-15T06:44:13Z</time>
      </trkpt>
      <trkpt lat="42.3542513419" lon="-0.6512639020">
        <ele>1104.21</ele>
        <time>2022-04-15T06:44:25Z</time>
      </trkpt>
      <trkpt lat="42.3541698698" lon="-0.6512924004">
        <ele>1102.77</ele>
        <time>2022-04-15T06:44:32Z</time>
      </trkpt>
      <trkpt lat="42.3540535290" lon="-0.6513904687">
        <ele>1100.37</ele>
        <time>2022-04-15T06:44:47Z</time>
      </trkpt>
      <trkpt lat="42.3540390283" lon="-0.6514085736">
        <ele>1099.89</ele>
        <time>2022-04-15T06:44:49Z</time>
      </trkpt>
      <trkpt lat="42.3540224321" lon="-0.6514375750">
        <ele>1099.89</ele>
        <time>2022-04-15T06:44:51Z</time>
      </trkpt>
      <trkpt lat="42.3541175667" lon="-0.6516363099">
        <ele>1097.48</ele>
        <time>2022-04-15T06:45:06Z</time>
      </trkpt>
      <trkpt lat="42.3542745598" lon="-0.6516746152">
        <ele>1097.00</ele>
        <time>2022-04-15T06:45:18Z</time>
      </trkpt>
      <trkpt lat="42.3543890566" lon="-0.6518072169">
        <ele>1095.56</ele>
        <time>2022-04-15T06:45:32Z</time>
      </trkpt>
      <trkpt lat="42.3545077443" lon="-0.6519116554">
        <ele>1093.16</ele>
        <time>2022-04-15T06:45:43Z</time>
      </trkpt>
      <trkpt lat="42.3546395916" lon="-0.6519534811">
        <ele>1090.75</ele>
        <time>2022-04-15T06:45:56Z</time>
      </trkpt>
      <trkpt lat="42.3547553457" lon="-0.6519093923">
        <ele>1089.31</ele>
        <time>2022-04-15T06:46:08Z</time>
      </trkpt>
      <trkpt lat="42.3548997659" lon="-0.6518755294">
        <ele>1086.91</ele>
        <time>2022-04-15T06:46:21Z</time>
      </trkpt>
      <trkpt lat="42.3548875283" lon="-0.6519808061">
        <ele>1084.50</ele>
        <time>2022-04-15T06:46:35Z</time>
      </trkpt>
      <trkpt lat="42.3548451159" lon="-0.6520483643">
        <ele>1083.54</ele>
        <time>2022-04-15T06:46:42Z</time>
      </trkpt>
      <trkpt lat="42.3547120113" lon="-0.6522167567">
        <ele>1082.10</ele>
        <time>2022-04-15T06:46:55Z</time>
      </trkpt>
      <trkpt lat="42.3545590416" lon="-0.6523394678">
        <ele>1080.18</ele>
        <time>2022-04-15T06:47:10Z</time>
      </trkpt>
      <trkpt lat="42.3544525076" lon="-0.6523159984">
        <ele>1079.22</ele>
        <time>2022-04-15T06:47:17Z</time>
      </trkpt>
      <trkpt lat="42.3544392642" lon="-0.6522767711">
        <ele>1079.22</ele>
        <time>2022-04-15T06:47:21Z</time>
      </trkpt>
      <trkpt lat="42.3543448001" lon="-0.6522247195">
        <ele>1078.26</ele>
        <time>2022-04-15T06:47:30Z</time>
      </trkpt>
      <trkpt lat="42.3543255217" lon="-0.6523506157">
        <ele>1074.89</ele>
        <time>2022-04-15T06:47:44Z</time>
      </trkpt>
      <trkpt lat="42.3543349933" lon="-0.6523632724">
        <ele>1074.89</ele>
        <time>2022-04-15T06:47:45Z</time>
      </trkpt>
      <trkpt lat="42.3544035573" lon="-0.6524228677">
        <ele>1074.41</ele>
        <time>2022-04-15T06:47:52Z</time>
      </trkpt>
      <trkpt lat="42.3544955906" lon="-0.6526137237">
        <ele>1072.49</ele>
        <time>2022-04-15T06:48:06Z</time>
      </trkpt>
      <trkpt lat="42.3546174634" lon="-0.6528055016">
        <ele>1071.05</ele>
        <time>2022-04-15T06:48:19Z</time>
      </trkpt>
      <trkpt lat="42.3547244165" lon="-0.6528850459">
        <ele>1070.08</ele>
        <time>2022-04-15T06:48:31Z</time>
      </trkpt>
      <trkpt lat="42.3547881190" lon="-0.6529323198">
        <ele>1069.12</ele>
        <time>2022-04-15T06:48:37Z</time>
      </trkpt>
      <trkpt lat="42.3549317848" lon="-0.6529101916">
        <ele>1067.20</ele>
        <time>2022-04-15T06:48:51Z</time>
      </trkpt>
      <trkpt lat="42.3549543321" lon="-0.6529025640">
        <ele>1067.20</ele>
        <time>2022-04-15T06:48:53Z</time>
      </trkpt>
      <trkpt lat="42.3550608661" lon="-0.6528573856">
        <ele>1067.20</ele>
        <time>2022-04-15T06:48:59Z</time>
      </trkpt>
      <trkpt lat="42.3551177792" lon="-0.6528599001">
        <ele>1066.72</ele>
        <time>2022-04-15T06:49:03Z</time>
      </trkpt>
      <trkpt lat="42.3552117404" lon="-0.6529300567">
        <ele>1065.76</ele>
        <time>2022-04-15T06:49:12Z</time>
      </trkpt>
      <trkpt lat="42.3553252313" lon="-0.6530571263">
        <ele>1064.32</ele>
        <time>2022-04-15T06:49:25Z</time>
      </trkpt>
      <trkpt lat="42.3554040212" lon="-0.6531019695">
        <ele>1062.87</ele>
        <time>2022-04-15T06:49:32Z</time>
      </trkpt>
      <trkpt lat="42.3553637881" lon="-0.6532534305">
        <ele>1061.43</ele>
        <time>2022-04-15T06:49:45Z</time>
      </trkpt>
      <trkpt lat="42.3552854173" lon="-0.6532866228">
        <ele>1060.47</ele>
        <time>2022-04-15T06:49:54Z</time>
      </trkpt>
      <trkpt lat="42.3551099002" lon="-0.6532645784">
        <ele>1058.55</ele>
        <time>2022-04-15T06:50:07Z</time>
      </trkpt>
      <trkpt lat="42.3550311942" lon="-0.6532789115">
        <ele>1058.07</ele>
        <time>2022-04-15T06:50:15Z</time>
      </trkpt>
      <trkpt lat="42.3549687490" lon="-0.6533177197">
        <ele>1057.59</ele>
        <time>2022-04-15T06:50:20Z</time>
      </trkpt>
      <trkpt lat="42.3548427690" lon="-0.6534312107">
        <ele>1056.15</ele>
        <time>2022-04-15T06:50:33Z</time>
      </trkpt>
      <trkpt lat="42.3548517376" lon="-0.6536187138">
        <ele>1053.26</ele>
        <time>2022-04-15T06:50:46Z</time>
      </trkpt>
      <trkpt lat="42.3549621273" lon="-0.6537197158">
        <ele>1051.82</ele>
        <time>2022-04-15T06:50:58Z</time>
      </trkpt>
      <trkpt lat="42.3550743610" lon="-0.6537690014">
        <ele>1050.86</ele>
        <time>2022-04-15T06:51:09Z</time>
      </trkpt>
      <trkpt lat="42.3552563321" lon="-0.6538086478">
        <ele>1049.42</ele>
        <time>2022-04-15T06:51:23Z</time>
      </trkpt>
      <trkpt lat="42.3553838208" lon="-0.6538402475">
        <ele>1047.49</ele>
        <time>2022-04-15T06:51:36Z</time>
      </trkpt>
      <trkpt lat="42.3555367906" lon="-0.6538715959">
        <ele>1045.57</ele>
        <time>2022-04-15T06:51:49Z</time>
      </trkpt>
      <trkpt lat="42.3556600884" lon="-0.6539632101">
        <ele>1043.65</ele>
        <time>2022-04-15T06:52:03Z</time>
      </trkpt>
      <trkpt lat="42.3556885030" lon="-0.6540259905">
        <ele>1043.17</ele>
        <time>2022-04-15T06:52:07Z</time>
      </trkpt>
      <trkpt lat="42.3557263054" lon="-0.6541049480">
        <ele>1042.21</ele>
        <time>2022-04-15T06:52:12Z</time>
      </trkpt>
      <trkpt lat="42.3557764292" lon="-0.6544273999">
        <ele>1040.28</ele>
        <time>2022-04-15T06:52:29Z</time>
      </trkpt>
      <trkpt lat="42.3558328394" lon="-0.6546981353">
        <ele>1038.36</ele>
        <time>2022-04-15T06:52:43Z</time>
      </trkpt>
      <trkpt lat="42.3558485974" lon="-0.6547775120">
        <ele>1037.40</ele>
        <time>2022-04-15T06:52:47Z</time>
      </trkpt>
      <trkpt lat="42.3558576498" lon="-0.6548139732">
        <ele>1037.40</ele>
        <time>2022-04-15T06:52:49Z</time>
      </trkpt>
      <trkpt lat="42.3558247928" lon="-0.6549208425">
        <ele>1035.48</ele>
        <time>2022-04-15T06:52:57Z</time>
      </trkpt>
      <trkpt lat="42.3556983937" lon="-0.6548076030">
        <ele>1034.52</ele>
        <time>2022-04-15T06:53:09Z</time>
      </trkpt>
      <trkpt lat="42.3556817137" lon="-0.6547444873">
        <ele>1032.59</ele>
        <time>2022-04-15T06:53:14Z</time>
      </trkpt>
      <trkpt lat="42.3556747567" lon="-0.6547321659">
        <ele>1032.59</ele>
        <time>2022-04-15T06:53:15Z</time>
      </trkpt>
      <trkpt lat="42.3555978946" lon="-0.6546190940">
        <ele>1032.11</ele>
        <time>2022-04-15T06:53:25Z</time>
      </trkpt>
      <trkpt lat="42.3555561528" lon="-0.6545826327">
        <ele>1031.63</ele>
        <time>2022-04-15T06:53:28Z</time>
      </trkpt>
      <trkpt lat="42.3554968927" lon="-0.6545553915">
        <ele>1030.67</ele>
        <time>2022-04-15T06:53:34Z</time>
      </trkpt>
      <trkpt lat="42.3554487806" lon="-0.6546334270">
        <ele>1029.23</ele>
        <time>2022-04-15T06:53:43Z</time>
      </trkpt>
      <trkpt lat="42.3553376365" lon="-0.6548485067">
        <ele>1026.34</ele>
        <time>2022-04-15T06:53:57Z</time>
      </trkpt>
      <trkpt lat="42.3552840762" lon="-0.6550385244">
        <ele>1024.90</ele>
        <time>2022-04-15T06:54:10Z</time>
      </trkpt>
      <trkpt lat="42.3552677315" lon="-0.6550583895">
        <ele>1023.46</ele>
        <time>2022-04-15T06:54:12Z</time>
      </trkpt>
      <trkpt lat="42.3552210443" lon="-0.6551020592">
        <ele>1022.50</ele>
        <time>2022-04-15T06:54:16Z</time>
      </trkpt>
      <trkpt lat="42.3551160190" lon="-0.6551697850">
        <ele>1021.54</ele>
        <time>2022-04-15T06:54:26Z</time>
      </trkpt>
      <trkpt lat="42.3550138436" lon="-0.6551556196">
        <ele>1020.10</ele>
        <time>2022-04-15T06:54:37Z</time>
      </trkpt>
      <trkpt lat="42.3548616283" lon="-0.6551528536">
        <ele>1020.10</ele>
        <time>2022-04-15T06:54:47Z</time>
      </trkpt>
      <trkpt lat="42.3548449483" lon="-0.6551489141">
        <ele>1020.10</ele>
        <time>2022-04-15T06:54:48Z</time>
      </trkpt>
      <trkpt lat="42.3548082355" lon="-0.6550964434">
        <ele>1020.10</ele>
        <time>2022-04-15T06:54:53Z</time>
      </trkpt>
      <trkpt lat="42.3546674196" lon="-0.6550091878">
        <ele>1018.65</ele>
        <time>2022-04-15T06:55:06Z</time>
      </trkpt>
      <trkpt lat="42.3546067346" lon="-0.6549562979">
        <ele>1018.17</ele>
        <time>2022-04-15T06:55:11Z</time>
      </trkpt>
      <trkpt lat="42.3545598798" lon="-0.6548614986">
        <ele>1017.69</ele>
        <time>2022-04-15T06:55:21Z</time>
      </trkpt>
      <trkpt lat="42.3544962611" lon="-0.6548181642">
        <ele>1016.73</ele>
        <time>2022-04-15T06:55:27Z</time>
      </trkpt>
      <trkpt lat="42.3544584587" lon="-0.6548259594">
        <ele>1015.77</ele>
        <time>2022-04-15T06:55:31Z</time>
      </trkpt>
      <trkpt lat="42.3544048145" lon="-0.6548938528">
        <ele>1015.77</ele>
        <time>2022-04-15T06:55:36Z</time>
      </trkpt>
      <trkpt lat="42.3543084227" lon="-0.6550877262">
        <ele>1014.33</ele>
        <time>2022-04-15T06:55:49Z</time>
      </trkpt>
      <trkpt lat="42.3542998731" lon="-0.6551147997">
        <ele>1014.33</ele>
        <time>2022-04-15T06:55:51Z</time>
      </trkpt>
      <trkpt lat="42.3543233424" lon="-0.6552643329">
        <ele>1011.93</ele>
        <time>2022-04-15T06:56:05Z</time>
      </trkpt>
      <trkpt lat="42.3542875517" lon="-0.6554910634">
        <ele>1009.52</ele>
        <time>2022-04-15T06:56:18Z</time>
      </trkpt>
      <trkpt lat="42.3542740569" lon="-0.6557075679">
        <ele>1008.08</ele>
        <time>2022-04-15T06:56:31Z</time>
      </trkpt>
      <trkpt lat="42.3542766552" lon="-0.6558047142">
        <ele>1006.64</ele>
        <time>2022-04-15T06:56:36Z</time>
      </trkpt>
      <trkpt lat="42.3542386014" lon="-0.6559762079">
        <ele>1005.68</ele>
        <time>2022-04-15T06:56:45Z</time>
      </trkpt>
      <trkpt lat="42.3542196583" lon="-0.6561507192">
        <ele>1004.72</ele>
        <time>2022-04-15T06:56:57Z</time>
      </trkpt>
      <trkpt lat="42.3541668523" lon="-0.6563348696">
        <ele>1004.23</ele>
        <time>2022-04-15T06:57:07Z</time>
      </trkpt>
      <trkpt lat="42.3541432992" lon="-0.6565186009">
        <ele>1003.27</ele>
        <time>2022-04-15T06:57:19Z</time>
      </trkpt>
      <trkpt lat="42.3541400302" lon="-0.6565567385">
        <ele>1002.79</ele>
        <time>2022-04-15T06:57:21Z</time>
      </trkpt>
      <trkpt lat="42.3541288823" lon="-0.6567809545">
        <ele>1001.83</ele>
        <time>2022-04-15T06:57:33Z</time>
      </trkpt>
      <trkpt lat="42.3541201651" lon="-0.6568632647">
        <ele>1001.35</ele>
        <time>2022-04-15T06:57:40Z</time>
      </trkpt>
      <trkpt lat="42.3541168123" lon="-0.6568851415">
        <ele>1001.83</ele>
        <time>2022-04-15T06:57:41Z</time>
      </trkpt>
      <trkpt lat="42.3541013896" lon="-0.6569931842">
        <ele>1001.35</ele>
        <time>2022-04-15T06:57:46Z</time>
      </trkpt>
      <trkpt lat="42.3540075123" lon="-0.6571960263">
        <ele>1000.39</ele>
        <time>2022-04-15T06:58:01Z</time>
      </trkpt>
      <trkpt lat="42.3539380264" lon="-0.6572444737">
        <ele>999.43</ele>
        <time>2022-04-15T06:58:07Z</time>
      </trkpt>
      <trkpt lat="42.3539666086" lon="-0.6574414484">
        <ele>997.51</ele>
        <time>2022-04-15T06:58:21Z</time>
      </trkpt>
      <trkpt lat="42.3539934307" lon="-0.6575173885">
        <ele>997.02</ele>
        <time>2022-04-15T06:58:25Z</time>
      </trkpt>
      <trkpt lat="42.3540886492" lon="-0.6577569433">
        <ele>996.54</ele>
        <time>2022-04-15T06:58:41Z</time>
      </trkpt>
      <trkpt lat="42.3540906608" lon="-0.6577948295">
        <ele>995.58</ele>
        <time>2022-04-15T06:58:44Z</time>
      </trkpt>
      <trkpt lat="42.3540626653" lon="-0.6580814067">
        <ele>993.66</ele>
        <time>2022-04-15T06:59:00Z</time>
      </trkpt>
      <trkpt lat="42.3540699575" lon="-0.6583454367">
        <ele>990.30</ele>
        <time>2022-04-15T06:59:16Z</time>
      </trkpt>
      <trkpt lat="42.3540692870" lon="-0.6586432457">
        <ele>988.85</ele>
        <time>2022-04-15T06:59:33Z</time>
      </trkpt>
      <trkpt lat="42.3540200852" lon="-0.6588672101">
        <ele>986.45</ele>
        <time>2022-04-15T06:59:49Z</time>
      </trkpt>
      <trkpt lat="42.3539664410" lon="-0.6589740794">
        <ele>986.45</ele>
        <time>2022-04-15T06:59:56Z</time>
      </trkpt>
      <trkpt lat="42.3538602423" lon="-0.6590912584">
        <ele>985.97</ele>
        <time>2022-04-15T07:00:09Z</time>
      </trkpt>
      <trkpt lat="42.3538112920" lon="-0.6591584813">
        <ele>984.05</ele>
        <time>2022-04-15T07:00:15Z</time>
      </trkpt>
      <trkpt lat="42.3538055923" lon="-0.6591697969">
        <ele>985.49</ele>
        <time>2022-04-15T07:00:16Z</time>
      </trkpt>
      <trkpt lat="42.3537870683" lon="-0.6592450663">
        <ele>985.49</ele>
        <time>2022-04-15T07:00:22Z</time>
      </trkpt>
      <trkpt lat="42.3537776805" lon="-0.6592942681">
        <ele>985.49</ele>
        <time>2022-04-15T07:00:24Z</time>
      </trkpt>
      <trkpt lat="42.3538192548" lon="-0.6594142132">
        <ele>984.05</ele>
        <time>2022-04-15T07:00:31Z</time>
      </trkpt>
      <trkpt lat="42.3539376073" lon="-0.6595774088">
        <ele>982.12</ele>
        <time>2022-04-15T07:00:47Z</time>
      </trkpt>
      <trkpt lat="42.3540234379" lon="-0.6598034687">
        <ele>979.24</ele>
        <time>2022-04-15T07:01:01Z</time>
      </trkpt>
      <trkpt lat="42.3540584743" lon="-0.6599054765">
        <ele>977.80</ele>
        <time>2022-04-15T07:01:09Z</time>
      </trkpt>
      <trkpt lat="42.3541261163" lon="-0.6600740366">
        <ele>976.36</ele>
        <time>2022-04-15T07:01:20Z</time>
      </trkpt>
      <trkpt lat="42.3541401140" lon="-0.6599453744">
        <ele>973.47</ele>
        <time>2022-04-15T07:01:33Z</time>
      </trkpt>
      <trkpt lat="42.3541350849" lon="-0.6596722081">
        <ele>972.51</ele>
        <time>2022-04-15T07:01:47Z</time>
      </trkpt>
      <trkpt lat="42.3540687840" lon="-0.6595038157">
        <ele>971.55</ele>
        <time>2022-04-15T07:02:00Z</time>
      </trkpt>
      <trkpt lat="42.3540609889" lon="-0.6594813522">
        <ele>971.07</ele>
        <time>2022-04-15T07:02:02Z</time>
      </trkpt>
      <trkpt lat="42.3540802673" lon="-0.6594136264">
        <ele>970.59</ele>
        <time>2022-04-15T07:02:06Z</time>
      </trkpt>
      <trkpt lat="42.3542066664" lon="-0.6592840422">
        <ele>968.18</ele>
        <time>2022-04-15T07:02:21Z</time>
      </trkpt>
      <trkpt lat="42.3542300519" lon="-0.6592666078">
        <ele>968.18</ele>
        <time>2022-04-15T07:02:23Z</time>
      </trkpt>
      <trkpt lat="42.3543621507" lon="-0.6591671146">
        <ele>966.74</ele>
        <time>2022-04-15T07:02:35Z</time>
      </trkpt>
      <trkpt lat="42.3543724604" lon="-0.6591582298">
        <ele>966.26</ele>
        <time>2022-04-15T07:02:36Z</time>
      </trkpt>
      <trkpt lat="42.3544416949" lon="-0.6589217763">
        <ele>963.38</ele>
        <time>2022-04-15T07:02:52Z</time>
      </trkpt>
      <trkpt lat="42.3544815928" lon="-0.6588262226">
        <ele>962.90</ele>
        <time>2022-04-15T07:02:57Z</time>
      </trkpt>
      <trkpt lat="42.3545413557" lon="-0.6587599218">
        <ele>962.90</ele>
        <time>2022-04-15T07:03:04Z</time>
      </trkpt>
      <trkpt lat="42.3546266835" lon="-0.6586291641">
        <ele>960.49</ele>
        <time>2022-04-15T07:03:17Z</time>
      </trkpt>
      <trkpt lat="42.3546504043" lon="-0.6587521266">
        <ele>957.61</ele>
        <time>2022-04-15T07:03:31Z</time>
      </trkpt>
      <trkpt lat="42.3546291143" lon="-0.6588478480">
        <ele>957.13</ele>
        <time>2022-04-15T07:03:36Z</time>
      </trkpt>
      <trkpt lat="42.3546774779" lon="-0.6590993050">
        <ele>954.73</ele>
        <time>2022-04-15T07:03:53Z</time>
      </trkpt>
      <trkpt lat="42.3546659946" lon="-0.6591689587">
        <ele>954.25</ele>
        <time>2022-04-15T07:03:58Z</time>
      </trkpt>
      <trkpt lat="42.3546455428" lon="-0.6592184119">
        <ele>954.25</ele>
        <time>2022-04-15T07:04:01Z</time>
      </trkpt>
      <trkpt lat="42.3544735461" lon="-0.6593842898">
        <ele>951.84</ele>
        <time>2022-04-15T07:04:18Z</time>
      </trkpt>
      <trkpt lat="42.3544393480" lon="-0.6594232656">
        <ele>951.84</ele>
        <time>2022-04-15T07:04:36Z</time>
      </trkpt>
      <trkpt lat="42.3545332253" lon="-0.6595277879">
        <ele>950.88</ele>
        <time>2022-04-15T07:04:58Z</time>
      </trkpt>
      <trkpt lat="42.3546134401" lon="-0.6595863774">
        <ele>950.40</ele>
        <time>2022-04-15T07:05:05Z</time>
      </trkpt>
      <trkpt lat="42.3546763044" lon="-0.6596830208">
        <ele>949.44</ele>
        <time>2022-04-15T07:05:11Z</time>
      </trkpt>
      <trkpt lat="42.3547229078" lon="-0.6598630641">
        <ele>947.04</ele>
        <time>2022-04-15T07:05:24Z</time>
      </trkpt>
      <trkpt lat="42.3546882067" lon="-0.6600737851">
        <ele>945.11</ele>
        <time>2022-04-15T07:05:37Z</time>
      </trkpt>
      <trkpt lat="42.3547172919" lon="-0.6602138467">
        <ele>942.71</ele>
        <time>2022-04-15T07:05:50Z</time>
      </trkpt>
      <trkpt lat="42.3547946569" lon="-0.6601784751">
        <ele>941.27</ele>
        <time>2022-04-15T07:05:57Z</time>
      </trkpt>
      <trkpt lat="42.3549266718" lon="-0.6599162892">
        <ele>939.35</ele>
        <time>2022-04-15T07:06:17Z</time>
      </trkpt>
      <trkpt lat="42.3549409211" lon="-0.6597178895">
        <ele>938.38</ele>
        <time>2022-04-15T07:06:29Z</time>
      </trkpt>
      <trkpt lat="42.3549068067" lon="-0.6595948432">
        <ele>937.42</ele>
        <time>2022-04-15T07:06:37Z</time>
      </trkpt>
      <trkpt lat="42.3549564276" lon="-0.6594888121">
        <ele>936.94</ele>
        <time>2022-04-15T07:06:49Z</time>
      </trkpt>
      <trkpt lat="42.3551179469" lon="-0.6593233533">
        <ele>935.50</ele>
        <time>2022-04-15T07:07:04Z</time>
      </trkpt>
      <trkpt lat="42.3551403265" lon="-0.6592842098">
        <ele>935.50</ele>
        <time>2022-04-15T07:07:07Z</time>
      </trkpt>
      <trkpt lat="42.3551620357" lon="-0.6591231935">
        <ele>934.06</ele>
        <time>2022-04-15T07:07:20Z</time>
      </trkpt>
      <trkpt lat="42.3551580124" lon="-0.6589747500">
        <ele>933.10</ele>
        <time>2022-04-15T07:07:28Z</time>
      </trkpt>
      <trkpt lat="42.3551702499" lon="-0.6587848999">
        <ele>930.69</ele>
        <time>2022-04-15T07:07:42Z</time>
      </trkpt>
      <trkpt lat="42.3551676515" lon="-0.6587339379">
        <ele>930.21</ele>
        <time>2022-04-15T07:07:45Z</time>
      </trkpt>
      <trkpt lat="42.3551529832" lon="-0.6585093029">
        <ele>929.25</ele>
        <time>2022-04-15T07:07:57Z</time>
      </trkpt>
      <trkpt lat="42.3551825713" lon="-0.6584575027">
        <ele>927.81</ele>
        <time>2022-04-15T07:08:04Z</time>
      </trkpt>
      <trkpt lat="42.3552419990" lon="-0.6584202871">
        <ele>927.81</ele>
        <time>2022-04-15T07:08:11Z</time>
      </trkpt>
      <trkpt lat="42.3552677315" lon="-0.6584349554">
        <ele>927.33</ele>
        <time>2022-04-15T07:08:13Z</time>
      </trkpt>
      <trkpt lat="42.3553248961" lon="-0.6584663875">
        <ele>926.85</ele>
        <time>2022-04-15T07:08:17Z</time>
      </trkpt>
      <trkpt lat="42.3554597609" lon="-0.6585540622">
        <ele>926.85</ele>
        <time>2022-04-15T07:08:31Z</time>
      </trkpt>
      <trkpt lat="42.3555737548" lon="-0.6585984025">
        <ele>925.89</ele>
        <time>2022-04-15T07:08:40Z</time>
      </trkpt>
      <trkpt lat="42.3556786124" lon="-0.6586466823">
        <ele>925.41</ele>
        <time>2022-04-15T07:08:47Z</time>
      </trkpt>
      <trkpt lat="42.3557095416" lon="-0.6586683076">
        <ele>925.41</ele>
        <time>2022-04-15T07:08:50Z</time>
      </trkpt>
      <trkpt lat="42.3558676243" lon="-0.6587849837">
        <ele>923.96</ele>
        <time>2022-04-15T07:09:05Z</time>
      </trkpt>
      <trkpt lat="42.3559675366" lon="-0.6588343531">
        <ele>921.56</ele>
        <time>2022-04-15T07:09:18Z</time>
      </trkpt>
      <trkpt lat="42.3560678679" lon="-0.6588760950">
        <ele>920.12</ele>
        <time>2022-04-15T07:09:29Z</time>
      </trkpt>
      <trkpt lat="42.3561621644" lon="-0.6588600017">
        <ele>918.68</ele>
        <time>2022-04-15T07:09:40Z</time>
      </trkpt>
      <trkpt lat="42.3562873062" lon="-0.6588664558">
        <ele>916.27</ele>
        <time>2022-04-15T07:09:53Z</time>
      </trkpt>
      <trkpt lat="42.3564009648" lon="-0.6589817908">
        <ele>914.83</ele>
        <time>2022-04-15T07:10:08Z</time>
      </trkpt>
      <trkpt lat="42.3564986140" lon="-0.6590370275">
        <ele>912.43</ele>
        <time>2022-04-15T07:10:23Z</time>
      </trkpt>
      <trkpt lat="42.3565760627" lon="-0.6590743270">
        <ele>910.99</ele>
        <time>2022-04-15T07:10:35Z</time>
      </trkpt>
      <trkpt lat="42.3566571157" lon="-0.6591126323">
        <ele>909.06</ele>
        <time>2022-04-15T07:10:44Z</time>
      </trkpt>
      <trkpt lat="42.3566830996" lon="-0.6591148954">
        <ele>907.62</ele>
        <time>2022-04-15T07:10:47Z</time>
      </trkpt>
      <trkpt lat="42.3567233328" lon="-0.6591276359">
        <ele>907.14</ele>
        <time>2022-04-15T07:10:51Z</time>
      </trkpt>
      <trkpt lat="42.3567537591" lon="-0.6591521949">
        <ele>906.66</ele>
        <time>2022-04-15T07:10:54Z</time>
      </trkpt>
      <trkpt lat="42.3567598779" lon="-0.6591613311">
        <ele>906.66</ele>
        <time>2022-04-15T07:10:55Z</time>
      </trkpt>
      <trkpt lat="42.3568061460" lon="-0.6592663564">
        <ele>905.70</ele>
        <time>2022-04-15T07:10:59Z</time>
      </trkpt>
      <trkpt lat="42.3568804935" lon="-0.6594721321">
        <ele>904.26</ele>
        <time>2022-04-15T07:11:08Z</time>
      </trkpt>
      <trkpt lat="42.3569438607" lon="-0.6595618185">
        <ele>903.30</ele>
        <time>2022-04-15T07:11:15Z</time>
      </trkpt>
      <trkpt lat="42.3570181243" lon="-0.6596733816">
        <ele>901.37</ele>
        <time>2022-04-15T07:11:23Z</time>
      </trkpt>
      <trkpt lat="42.3571030330" lon="-0.6598495692">
        <ele>901.37</ele>
        <time>2022-04-15T07:11:27Z</time>
      </trkpt>
      <trkpt lat="42.3571486305" lon="-0.6601192988">
        <ele>899.45</ele>
        <time>2022-04-15T07:11:37Z</time>
      </trkpt>
      <trkpt lat="42.3570628837" lon="-0.6602037884">
        <ele>897.53</ele>
        <time>2022-04-15T07:11:51Z</time>
      </trkpt>
      <trkpt lat="42.3568441998" lon="-0.6601599511">
        <ele>895.61</ele>
        <time>2022-04-15T07:12:05Z</time>
      </trkpt>
      <trkpt lat="42.3567405995" lon="-0.6601589452">
        <ele>894.16</ele>
        <time>2022-04-15T07:12:15Z</time>
      </trkpt>
      <trkpt lat="42.3566271923" lon="-0.6602151040">
        <ele>892.72</ele>
        <time>2022-04-15T07:12:24Z</time>
      </trkpt>
      <trkpt lat="42.3565986101" lon="-0.6604522280">
        <ele>891.28</ele>
        <time>2022-04-15T07:12:35Z</time>
      </trkpt>
      <trkpt lat="42.3566321377" lon="-0.6605564989">
        <ele>890.32</ele>
        <time>2022-04-15T07:12:41Z</time>
      </trkpt>
      <trkpt lat="42.3567226622" lon="-0.6606948003">
        <ele>889.36</ele>
        <time>2022-04-15T07:12:54Z</time>
      </trkpt>
      <trkpt lat="42.3567428626" lon="-0.6607016735">
        <ele>888.88</ele>
        <time>2022-04-15T07:12:56Z</time>
      </trkpt>
      <trkpt lat="42.3567948304" lon="-0.6607369613">
        <ele>888.88</ele>
        <time>2022-04-15T07:13:01Z</time>
      </trkpt>
      <trkpt lat="42.3568335548" lon="-0.6607449241">
        <ele>888.40</ele>
        <time>2022-04-15T07:13:04Z</time>
      </trkpt>
      <trkpt lat="42.3569560144" lon="-0.6607909407">
        <ele>885.99</ele>
        <time>2022-04-15T07:13:16Z</time>
      </trkpt>
      <trkpt lat="42.3569446150" lon="-0.6608660426">
        <ele>885.03</ele>
        <time>2022-04-15T07:13:21Z</time>
      </trkpt>
      <trkpt lat="42.3568991851" lon="-0.6609402224">
        <ele>882.63</ele>
        <time>2022-04-15T07:13:27Z</time>
      </trkpt>
      <trkpt lat="42.3568762187" lon="-0.6609559804">
        <ele>882.15</ele>
        <time>2022-04-15T07:13:29Z</time>
      </trkpt>
      <trkpt lat="42.3567203153" lon="-0.6610206049">
        <ele>881.67</ele>
        <time>2022-04-15T07:13:42Z</time>
      </trkpt>
      <trkpt lat="42.3565632384" lon="-0.6609404739">
        <ele>880.22</ele>
        <time>2022-04-15T07:13:56Z</time>
      </trkpt>
      <trkpt lat="42.3565473966" lon="-0.6609291583">
        <ele>879.26</ele>
        <time>2022-04-15T07:13:58Z</time>
      </trkpt>
      <trkpt lat="42.3564727977" lon="-0.6609305833">
        <ele>878.78</ele>
        <time>2022-04-15T07:14:05Z</time>
      </trkpt>
      <trkpt lat="42.3564551119" lon="-0.6609371211">
        <ele>877.82</ele>
        <time>2022-04-15T07:14:07Z</time>
      </trkpt>
      <trkpt lat="42.3564291280" lon="-0.6609845627">
        <ele>877.82</ele>
        <time>2022-04-15T07:14:11Z</time>
      </trkpt>
      <trkpt lat="42.3564245179" lon="-0.6610195991">
        <ele>877.82</ele>
        <time>2022-04-15T07:14:13Z</time>
      </trkpt>
      <trkpt lat="42.3564583808" lon="-0.6611087825">
        <ele>878.30</ele>
        <time>2022-04-15T07:14:25Z</time>
      </trkpt>
      <trkpt lat="42.3565483186" lon="-0.6611941941">
        <ele>878.78</ele>
        <time>2022-04-15T07:14:39Z</time>
      </trkpt>
      <trkpt lat="42.3566080816" lon="-0.6613651011">
        <ele>878.78</ele>
        <time>2022-04-15T07:14:53Z</time>
      </trkpt>
      <trkpt lat="42.3566924874" lon="-0.6614510994">
        <ele>879.26</ele>
        <time>2022-04-15T07:15:02Z</time>
      </trkpt>
      <trkpt lat="42.3567895498" lon="-0.6614801008">
        <ele>879.74</ele>
        <time>2022-04-15T07:15:06Z</time>
      </trkpt>
      <trkpt lat="42.3568936531" lon="-0.6615524366">
        <ele>879.74</ele>
        <time>2022-04-15T07:15:12Z</time>
      </trkpt>
      <trkpt lat="42.3570425157" lon="-0.6617422029">
        <ele>877.34</ele>
        <time>2022-04-15T07:15:29Z</time>
      </trkpt>
      <trkpt lat="42.3570650630" lon="-0.6617831066">
        <ele>877.34</ele>
        <time>2022-04-15T07:15:32Z</time>
      </trkpt>
      <trkpt lat="42.3571656458" lon="-0.6619591266">
        <ele>875.42</ele>
        <time>2022-04-15T07:15:46Z</time>
      </trkpt>
      <trkpt lat="42.3572151829" lon="-0.6620283611">
        <ele>874.46</ele>
        <time>2022-04-15T07:15:52Z</time>
      </trkpt>
      <trkpt lat="42.3573466949" lon="-0.6621783972">
        <ele>872.05</ele>
        <time>2022-04-15T07:16:05Z</time>
      </trkpt>
      <trkpt lat="42.3573993333" lon="-0.6622768007">
        <ele>871.09</ele>
        <time>2022-04-15T07:16:15Z</time>
      </trkpt>
      <trkpt lat="42.3574774526" lon="-0.6625793874">
        <ele>869.65</ele>
        <time>2022-04-15T07:16:31Z</time>
      </trkpt>
      <trkpt lat="42.3575472739" lon="-0.6627355423">
        <ele>869.17</ele>
        <time>2022-04-15T07:16:44Z</time>
      </trkpt>
      <trkpt lat="42.3576809652" lon="-0.6629958004">
        <ele>868.69</ele>
        <time>2022-04-15T07:17:00Z</time>
      </trkpt>
      <trkpt lat="42.3577521276" lon="-0.6632576510">
        <ele>866.77</ele>
        <time>2022-04-15T07:17:16Z</time>
      </trkpt>
      <trkpt lat="42.3578253854" lon="-0.6634449027">
        <ele>864.84</ele>
        <time>2022-04-15T07:17:31Z</time>
      </trkpt>
      <trkpt lat="42.3578614276" lon="-0.6636930071">
        <ele>862.44</ele>
        <time>2022-04-15T07:17:44Z</time>
      </trkpt>
      <trkpt lat="42.3578848969" lon="-0.6638380978">
        <ele>861.48</ele>
        <time>2022-04-15T07:17:54Z</time>
      </trkpt>
      <trkpt lat="42.3579610884" lon="-0.6640473939">
        <ele>859.56</ele>
        <time>2022-04-15T07:18:08Z</time>
      </trkpt>
      <trkpt lat="42.3580112122" lon="-0.6642481405">
        <ele>857.15</ele>
        <time>2022-04-15T07:18:21Z</time>
      </trkpt>
      <trkpt lat="42.3580620065" lon="-0.6643654872">
        <ele>857.15</ele>
        <time>2022-04-15T07:18:28Z</time>
      </trkpt>
      <trkpt lat="42.3582391161" lon="-0.6645590253">
        <ele>855.23</ele>
        <time>2022-04-15T07:18:45Z</time>
      </trkpt>
      <trkpt lat="42.3583696224" lon="-0.6647161022">
        <ele>855.23</ele>
        <time>2022-04-15T07:19:00Z</time>
      </trkpt>
      <trkpt lat="42.3584530223" lon="-0.6648477819">
        <ele>854.75</ele>
        <time>2022-04-15T07:19:11Z</time>
      </trkpt>
      <trkpt lat="42.3584451433" lon="-0.6650637835">
        <ele>853.79</ele>
        <time>2022-04-15T07:19:26Z</time>
      </trkpt>
      <trkpt lat="42.3583884817" lon="-0.6652849820">
        <ele>850.90</ele>
        <time>2022-04-15T07:19:39Z</time>
      </trkpt>
      <trkpt lat="42.3583024833" lon="-0.6653753389">
        <ele>849.46</ele>
        <time>2022-04-15T07:19:51Z</time>
      </trkpt>
      <trkpt lat="42.3582442291" lon="-0.6654993072">
        <ele>848.50</ele>
        <time>2022-04-15T07:19:58Z</time>
      </trkpt>
      <trkpt lat="42.3582122102" lon="-0.6656091101">
        <ele>847.54</ele>
        <time>2022-04-15T07:20:03Z</time>
      </trkpt>
      <trkpt lat="42.3582543712" lon="-0.6658534426">
        <ele>845.14</ele>
        <time>2022-04-15T07:20:18Z</time>
      </trkpt>
      <trkpt lat="42.3582650162" lon="-0.6660980266">
        <ele>843.69</ele>
        <time>2022-04-15T07:20:32Z</time>
      </trkpt>
      <trkpt lat="42.3582472466" lon="-0.6662822608">
        <ele>841.77</ele>
        <time>2022-04-15T07:20:43Z</time>
      </trkpt>
      <trkpt lat="42.3581962846" lon="-0.6665186305">
        <ele>840.81</ele>
        <time>2022-04-15T07:20:57Z</time>
      </trkpt>
      <trkpt lat="42.3580833804" lon="-0.6666684151">
        <ele>838.41</ele>
        <time>2022-04-15T07:21:12Z</time>
      </trkpt>
      <trkpt lat="42.3580780160" lon="-0.6666943990">
        <ele>838.41</ele>
        <time>2022-04-15T07:21:14Z</time>
      </trkpt>
      <trkpt lat="42.3580677062" lon="-0.6667448580">
        <ele>838.41</ele>
        <time>2022-04-15T07:21:17Z</time>
      </trkpt>
      <trkpt lat="42.3580744117" lon="-0.6668186188">
        <ele>837.93</ele>
        <time>2022-04-15T07:21:21Z</time>
      </trkpt>
      <trkpt lat="42.3580630124" lon="-0.6669029407">
        <ele>836.48</ele>
        <time>2022-04-15T07:21:26Z</time>
      </trkpt>
      <trkpt lat="42.3580883257" lon="-0.6671849079">
        <ele>835.52</ele>
        <time>2022-04-15T07:21:41Z</time>
      </trkpt>
      <trkpt lat="42.3581170756" lon="-0.6673879176">
        <ele>835.04</ele>
        <time>2022-04-15T07:21:54Z</time>
      </trkpt>
      <trkpt lat="42.3581151478" lon="-0.6674592476">
        <ele>834.56</ele>
        <time>2022-04-15T07:21:59Z</time>
      </trkpt>
      <trkpt lat="42.3581107054" lon="-0.6675123889">
        <ele>834.56</ele>
        <time>2022-04-15T07:22:02Z</time>
      </trkpt>
      <trkpt lat="42.3581243679" lon="-0.6676545460">
        <ele>834.08</ele>
        <time>2022-04-15T07:22:11Z</time>
      </trkpt>
      <trkpt lat="42.3581231944" lon="-0.6676857267">
        <ele>834.08</ele>
        <time>2022-04-15T07:22:13Z</time>
      </trkpt>
      <trkpt lat="42.3581863940" lon="-0.6678361818">
        <ele>833.60</ele>
        <time>2022-04-15T07:22:21Z</time>
      </trkpt>
      <trkpt lat="42.3581891600" lon="-0.6680601463">
        <ele>833.60</ele>
        <time>2022-04-15T07:22:35Z</time>
      </trkpt>
      <trkpt lat="42.3582861386" lon="-0.6682545226">
        <ele>833.60</ele>
        <time>2022-04-15T07:22:52Z</time>
      </trkpt>
      <trkpt lat="42.3583110329" lon="-0.6683205720">
        <ele>832.64</ele>
        <time>2022-04-15T07:22:57Z</time>
      </trkpt>
      <trkpt lat="42.3584299721" lon="-0.6685459614">
        <ele>832.16</ele>
        <time>2022-04-15T07:23:13Z</time>
      </trkpt>
      <trkpt lat="42.3584887292" lon="-0.6687776372">
        <ele>831.20</ele>
        <time>2022-04-15T07:23:29Z</time>
      </trkpt>
      <trkpt lat="42.3585603107" lon="-0.6689850893">
        <ele>830.24</ele>
        <time>2022-04-15T07:23:44Z</time>
      </trkpt>
      <trkpt lat="42.3586376756" lon="-0.6691338681">
        <ele>829.27</ele>
        <time>2022-04-15T07:23:59Z</time>
      </trkpt>
      <trkpt lat="42.3587103467" lon="-0.6691808905">
        <ele>828.31</ele>
        <time>2022-04-15T07:24:09Z</time>
      </trkpt>
      <trkpt lat="42.3589078244" lon="-0.6693393085">
        <ele>827.35</ele>
        <time>2022-04-15T07:24:23Z</time>
      </trkpt>
      <trkpt lat="42.3589694314" lon="-0.6694416516">
        <ele>826.39</ele>
        <time>2022-04-15T07:24:29Z</time>
      </trkpt>
      <trkpt lat="42.3590413481" lon="-0.6695879996">
        <ele>824.95</ele>
        <time>2022-04-15T07:24:39Z</time>
      </trkpt>
      <trkpt lat="42.3590985127" lon="-0.6697765086">
        <ele>822.55</ele>
        <time>2022-04-15T07:24:51Z</time>
      </trkpt>
      <trkpt lat="42.3591183778" lon="-0.6697964575">
        <ele>822.55</ele>
        <time>2022-04-15T07:24:53Z</time>
      </trkpt>
      <trkpt lat="42.3591544200" lon="-0.6698790193">
        <ele>821.10</ele>
        <time>2022-04-15T07:24:58Z</time>
      </trkpt>
      <trkpt lat="42.3592442740" lon="-0.6700302288">
        <ele>819.66</ele>
        <time>2022-04-15T07:25:11Z</time>
      </trkpt>
      <trkpt lat="42.3592761252" lon="-0.6701288838">
        <ele>819.18</ele>
        <time>2022-04-15T07:25:18Z</time>
      </trkpt>
      <trkpt lat="42.3593038693" lon="-0.6702077575">
        <ele>819.18</ele>
        <time>2022-04-15T07:25:23Z</time>
      </trkpt>
      <trkpt lat="42.3594800569" lon="-0.6703761499">
        <ele>818.22</ele>
        <time>2022-04-15T07:25:39Z</time>
      </trkpt>
      <trkpt lat="42.3595389817" lon="-0.6704525929">
        <ele>817.74</ele>
        <time>2022-04-15T07:25:46Z</time>
      </trkpt>
      <trkpt lat="42.3595628701" lon="-0.6705482304">
        <ele>817.74</ele>
        <time>2022-04-15T07:25:51Z</time>
      </trkpt>
      <trkpt lat="42.3595762812" lon="-0.6707940716">
        <ele>817.26</ele>
        <time>2022-04-15T07:26:05Z</time>
      </trkpt>
      <trkpt lat="42.3595862556" lon="-0.6708483864">
        <ele>816.78</ele>
        <time>2022-04-15T07:26:09Z</time>
      </trkpt>
      <trkpt lat="42.3595744371" lon="-0.6708709337">
        <ele>816.78</ele>
        <time>2022-04-15T07:26:11Z</time>
      </trkpt>
      <trkpt lat="42.3595835734" lon="-0.6709997635">
        <ele>817.26</ele>
        <time>2022-04-15T07:26:20Z</time>
      </trkpt>
      <trkpt lat="42.3597021773" lon="-0.6711493805">
        <ele>816.30</ele>
        <time>2022-04-15T07:26:34Z</time>
      </trkpt>
      <trkpt lat="42.3597089667" lon="-0.6711560860">
        <ele>815.82</ele>
        <time>2022-04-15T07:26:35Z</time>
      </trkpt>
      <trkpt lat="42.3598275706" lon="-0.6713419128">
        <ele>815.82</ele>
        <time>2022-04-15T07:26:52Z</time>
      </trkpt>
      <trkpt lat="42.3599027563" lon="-0.6715165917">
        <ele>813.89</ele>
        <time>2022-04-15T07:27:05Z</time>
      </trkpt>
      <trkpt lat="42.3599071149" lon="-0.6717406400">
        <ele>813.41</ele>
        <time>2022-04-15T07:27:19Z</time>
      </trkpt>
      <trkpt lat="42.3598944582" lon="-0.6718390435">
        <ele>812.93</ele>
        <time>2022-04-15T07:27:24Z</time>
      </trkpt>
      <trkpt lat="42.3598887585" lon="-0.6718882453">
        <ele>812.45</ele>
        <time>2022-04-15T07:27:27Z</time>
      </trkpt>
      <trkpt lat="42.3598604277" lon="-0.6720744073">
        <ele>811.49</ele>
        <time>2022-04-15T07:27:41Z</time>
      </trkpt>
      <trkpt lat="42.3598035146" lon="-0.6723234337">
        <ele>810.53</ele>
        <time>2022-04-15T07:27:53Z</time>
      </trkpt>
      <trkpt lat="42.3597929534" lon="-0.6724711228">
        <ele>810.05</ele>
        <time>2022-04-15T07:28:01Z</time>
      </trkpt>
      <trkpt lat="42.3597952165" lon="-0.6726559438">
        <ele>809.57</ele>
        <time>2022-04-15T07:28:14Z</time>
      </trkpt>
      <trkpt lat="42.3597622756" lon="-0.6728703529">
        <ele>809.57</ele>
        <time>2022-04-15T07:28:27Z</time>
      </trkpt>
      <trkpt lat="42.3598067835" lon="-0.6730321236">
        <ele>809.57</ele>
        <time>2022-04-15T07:28:42Z</time>
      </trkpt>
      <trkpt lat="42.3598549794" lon="-0.6730938144">
        <ele>809.57</ele>
        <time>2022-04-15T07:28:50Z</time>
      </trkpt>
      <trkpt lat="42.3599450849" lon="-0.6731514819">
        <ele>808.61</ele>
        <time>2022-04-15T07:28:58Z</time>
      </trkpt>
      <trkpt lat="42.3599778581" lon="-0.6731704250">
        <ele>808.61</ele>
        <time>2022-04-15T07:29:00Z</time>
      </trkpt>
      <trkpt lat="42.3600697238" lon="-0.6732715108">
        <ele>807.16</ele>
        <time>2022-04-15T07:29:13Z</time>
      </trkpt>
      <trkpt lat="42.3600812908" lon="-0.6732934713">
        <ele>807.16</ele>
        <time>2022-04-15T07:29:15Z</time>
      </trkpt>
      <trkpt lat="42.3602049239" lon="-0.6734121591">
        <ele>806.68</ele>
        <time>2022-04-15T07:29:29Z</time>
      </trkpt>
      <trkpt lat="42.3602436483" lon="-0.6733952276">
        <ele>806.68</ele>
        <time>2022-04-15T07:29:34Z</time>
      </trkpt>
      <trkpt lat="42.3604003061" lon="-0.6734767836">
        <ele>806.68</ele>
        <time>2022-04-15T07:29:48Z</time>
      </trkpt>
      <trkpt lat="42.3604867235" lon="-0.6735997461">
        <ele>806.68</ele>
        <time>2022-04-15T07:30:01Z</time>
      </trkpt>
      <trkpt lat="42.3605072591" lon="-0.6736300886">
        <ele>806.20</ele>
        <time>2022-04-15T07:30:05Z</time>
      </trkpt>
      <trkpt lat="42.3605532758" lon="-0.6736836489">
        <ele>806.20</ele>
        <time>2022-04-15T07:30:12Z</time>
      </trkpt>
      <trkpt lat="42.3606633302" lon="-0.6737942062">
        <ele>805.72</ele>
        <time>2022-04-15T07:30:22Z</time>
      </trkpt>
      <trkpt lat="42.3608370870" lon="-0.6739185099">
        <ele>805.72</ele>
        <time>2022-04-15T07:30:33Z</time>
      </trkpt>
      <trkpt lat="42.3608897254" lon="-0.6739525404">
        <ele>805.72</ele>
        <time>2022-04-15T07:30:37Z</time>
      </trkpt>
      <trkpt lat="42.3610079102" lon="-0.6740664504">
        <ele>805.72</ele>
        <time>2022-04-15T07:30:51Z</time>
      </trkpt>
      <trkpt lat="42.3610587884" lon="-0.6741895806">
        <ele>805.72</ele>
        <time>2022-04-15T07:31:01Z</time>
      </trkpt>
      <trkpt lat="42.3610969260" lon="-0.6742413808">
        <ele>805.72</ele>
        <time>2022-04-15T07:31:07Z</time>
      </trkpt>
      <trkpt lat="42.3611480556" lon="-0.6742566358">
        <ele>805.72</ele>
        <time>2022-04-15T07:31:18Z</time>
      </trkpt>
      <trkpt lat="42.3611602932" lon="-0.6742631737">
        <ele>805.72</ele>
        <time>2022-04-15T07:31:19Z</time>
      </trkpt>
      <trkpt lat="42.3613343015" lon="-0.6743652653">
        <ele>805.72</ele>
        <time>2022-04-15T07:31:31Z</time>
      </trkpt>
      <trkpt lat="42.3613996804" lon="-0.6743827835">
        <ele>805.72</ele>
        <time>2022-04-15T07:31:35Z</time>
      </trkpt>
      <trkpt lat="42.3614851758" lon="-0.6743675284">
        <ele>805.72</ele>
        <time>2022-04-15T07:31:39Z</time>
      </trkpt>
      <trkpt lat="42.3616270814" lon="-0.6745301373">
        <ele>805.72</ele>
        <time>2022-04-15T07:31:56Z</time>
      </trkpt>
      <trkpt lat="42.3616577592" lon="-0.6747317221">
        <ele>807.64</ele>
        <time>2022-04-15T07:32:12Z</time>
      </trkpt>
      <trkpt lat="42.3616574239" lon="-0.6747485697">
        <ele>807.64</ele>
        <time>2022-04-15T07:32:13Z</time>
      </trkpt>
      <trkpt lat="42.3616352957" lon="-0.6748277787">
        <ele>808.13</ele>
        <time>2022-04-15T07:32:18Z</time>
      </trkpt>
      <trkpt lat="42.3615150154" lon="-0.6749170460">
        <ele>808.13</ele>
        <time>2022-04-15T07:32:32Z</time>
      </trkpt>
      <trkpt lat="42.3614259157" lon="-0.6751253363">
        <ele>808.13</ele>
        <time>2022-04-15T07:32:48Z</time>
      </trkpt>
      <trkpt lat="42.3613562621" lon="-0.6753216404">
        <ele>808.13</ele>
        <time>2022-04-15T07:33:02Z</time>
      </trkpt>
      <trkpt lat="42.3613459524" lon="-0.6753367279">
        <ele>808.13</ele>
        <time>2022-04-15T07:33:03Z</time>
      </trkpt>
      <trkpt lat="42.3613353912" lon="-0.6754927151">
        <ele>808.13</ele>
        <time>2022-04-15T07:33:10Z</time>
      </trkpt>
      <trkpt lat="42.3613882810" lon="-0.6755216327">
        <ele>808.13</ele>
        <time>2022-04-15T07:33:20Z</time>
      </trkpt>
      <trkpt lat="42.3614147678" lon="-0.6755119096">
        <ele>808.13</ele>
        <time>2022-04-15T07:33:22Z</time>
      </trkpt>
      <trkpt lat="42.3614529893" lon="-0.6755373906">
        <ele>808.13</ele>
        <time>2022-04-15T07:33:25Z</time>
      </trkpt>
      <trkpt lat="42.3615994211" lon="-0.6757541467">
        <ele>808.13</ele>
        <time>2022-04-15T07:33:41Z</time>
      </trkpt>
      <trkpt lat="42.3616929632" lon="-0.6758846529">
        <ele>808.13</ele>
        <time>2022-04-15T07:33:53Z</time>
      </trkpt>
      <trkpt lat="42.3617065419" lon="-0.6759268139">
        <ele>808.61</ele>
        <time>2022-04-15T07:33:56Z</time>
      </trkpt>
      <trkpt lat="42.3618025146" lon="-0.6761429831">
        <ele>808.13</ele>
        <time>2022-04-15T07:34:13Z</time>
      </trkpt>
      <trkpt lat="42.3618567456" lon="-0.6763723120">
        <ele>808.61</ele>
        <time>2022-04-15T07:34:27Z</time>
      </trkpt>
      <trkpt lat="42.3618671391" lon="-0.6766047422">
        <ele>808.61</ele>
        <time>2022-04-15T07:34:44Z</time>
      </trkpt>
      <trkpt lat="42.3618001677" lon="-0.6766527705">
        <ele>808.61</ele>
        <time>2022-04-15T07:34:51Z</time>
      </trkpt>
      <trkpt lat="42.3617436737" lon="-0.6766697019">
        <ele>807.64</ele>
        <time>2022-04-15T07:35:06Z</time>
      </trkpt>
      <trkpt lat="42.3617312685" lon="-0.6766651757">
        <ele>808.61</ele>
        <time>2022-04-15T07:35:39Z</time>
      </trkpt>
      <trkpt lat="42.3617164325" lon="-0.6766743958">
        <ele>809.09</ele>
        <time>2022-04-15T07:36:07Z</time>
      </trkpt>
      <trkpt lat="42.3617023509" lon="-0.6766890641">
        <ele>809.09</ele>
        <time>2022-04-15T07:36:34Z</time>
      </trkpt>
      <trkpt lat="42.3617015127" lon="-0.6767387688">
        <ele>809.09</ele>
        <time>2022-04-15T07:36:52Z</time>
      </trkpt>
      <trkpt lat="42.3617250659" lon="-0.6767355837">
        <ele>808.61</ele>
        <time>2022-04-15T07:37:04Z</time>
      </trkpt>
      <trkpt lat="42.3617494572" lon="-0.6766948476">
        <ele>808.61</ele>
        <time>2022-04-15T07:37:50Z</time>
      </trkpt>
      <trkpt lat="42.3617008422" lon="-0.6767180655">
        <ele>809.09</ele>
        <time>2022-04-15T07:38:40Z</time>
      </trkpt>
      <trkpt lat="42.3617604375" lon="-0.6767405290">
        <ele>809.09</ele>
        <time>2022-04-15T07:39:27Z</time>
      </trkpt>
      <trkpt lat="42.3617326934" lon="-0.6767214183">
        <ele>809.09</ele>
        <time>2022-04-15T07:40:03Z</time>
      </trkpt>
      <trkpt lat="42.3616948910" lon="-0.6767235138">
        <ele>809.09</ele>
        <time>2022-04-15T07:40:46Z</time>
      </trkpt>
      <trkpt lat="42.3616690747" lon="-0.6767508388">
        <ele>809.09</ele>
        <time>2022-04-15T07:41:26Z</time>
      </trkpt>
      <trkpt lat="42.3616803903" lon="-0.6767800078">
        <ele>809.57</ele>
        <time>2022-04-15T07:42:06Z</time>
      </trkpt>
      <trkpt lat="42.3616539873" lon="-0.6768018845">
        <ele>809.57</ele>
        <time>2022-04-15T07:42:53Z</time>
      </trkpt>
      <trkpt lat="42.3616953101" lon="-0.6767841149">
        <ele>809.57</ele>
        <time>2022-04-15T07:43:35Z</time>
      </trkpt>
      <trkpt lat="42.3617283348" lon="-0.6767093483">
        <ele>810.05</ele>
        <time>2022-04-15T07:43:53Z</time>
      </trkpt>
      <trkpt lat="42.3616839945" lon="-0.6767330691">
        <ele>810.05</ele>
        <time>2022-04-15T07:44:18Z</time>
      </trkpt>
      <trkpt lat="42.3616486229" lon="-0.6767394394">
        <ele>810.05</ele>
        <time>2022-04-15T07:44:21Z</time>
      </trkpt>
      <trkpt lat="42.3615908716" lon="-0.6767492462">
        <ele>809.57</ele>
        <time>2022-04-15T07:44:26Z</time>
      </trkpt>
      <trkpt lat="42.3614330404" lon="-0.6767635792">
        <ele>809.09</ele>
        <time>2022-04-15T07:44:44Z</time>
      </trkpt>
      <trkpt lat="42.3613099940" lon="-0.6768226717">
        <ele>809.09</ele>
        <time>2022-04-15T07:44:57Z</time>
      </trkpt>
      <trkpt lat="42.3612353113" lon="-0.6770122703">
        <ele>809.09</ele>
        <time>2022-04-15T07:45:07Z</time>
      </trkpt>
      <trkpt lat="42.3612825852" lon="-0.6772529148">
        <ele>809.09</ele>
        <time>2022-04-15T07:45:23Z</time>
      </trkpt>
      <trkpt lat="42.3613952380" lon="-0.6774606183">
        <ele>809.09</ele>
        <time>2022-04-15T07:45:38Z</time>
      </trkpt>
      <trkpt lat="42.3615380656" lon="-0.6776130013">
        <ele>809.09</ele>
        <time>2022-04-15T07:45:52Z</time>
      </trkpt>
      <trkpt lat="42.3616471980" lon="-0.6777647138">
        <ele>809.09</ele>
        <time>2022-04-15T07:46:04Z</time>
      </trkpt>
      <trkpt lat="42.3616622854" lon="-0.6778036058">
        <ele>809.09</ele>
        <time>2022-04-15T07:46:07Z</time>
      </trkpt>
      <trkpt lat="42.3616622854" lon="-0.6778601836">
        <ele>809.09</ele>
        <time>2022-04-15T07:46:10Z</time>
      </trkpt>
      <trkpt lat="42.3615325335" lon="-0.6780286599">
        <ele>810.05</ele>
        <time>2022-04-15T07:46:25Z</time>
      </trkpt>
      <trkpt lat="42.3613871913" lon="-0.6781308353">
        <ele>808.61</ele>
        <time>2022-04-15T07:46:39Z</time>
      </trkpt>
      <trkpt lat="42.3611810803" lon="-0.6781569030">
        <ele>808.61</ele>
        <time>2022-04-15T07:46:55Z</time>
      </trkpt>
      <trkpt lat="42.3611545935" lon="-0.6781646982">
        <ele>808.61</ele>
        <time>2022-04-15T07:46:57Z</time>
      </trkpt>
      <trkpt lat="42.3610794079" lon="-0.6782460865">
        <ele>807.64</ele>
        <time>2022-04-15T07:47:03Z</time>
      </trkpt>
      <trkpt lat="42.3611131031" lon="-0.6783834659">
        <ele>808.61</ele>
        <time>2022-04-15T07:47:11Z</time>
      </trkpt>
      <trkpt lat="42.3611542583" lon="-0.6784518622">
        <ele>806.68</ele>
        <time>2022-04-15T07:47:16Z</time>
      </trkpt>
      <trkpt lat="42.3611701000" lon="-0.6784771755">
        <ele>808.13</ele>
        <time>2022-04-15T07:47:18Z</time>
      </trkpt>
      <trkpt lat="42.3612966668" lon="-0.6786804367">
        <ele>808.61</ele>
        <time>2022-04-15T07:47:33Z</time>
      </trkpt>
      <trkpt lat="42.3614283465" lon="-0.6788514275">
        <ele>808.61</ele>
        <time>2022-04-15T07:47:48Z</time>
      </trkpt>
      <trkpt lat="42.3615783826" lon="-0.6790261902">
        <ele>808.61</ele>
        <time>2022-04-15T07:48:02Z</time>
      </trkpt>
      <trkpt lat="42.3615803942" lon="-0.6790427025">
        <ele>808.61</ele>
        <time>2022-04-15T07:48:03Z</time>
      </trkpt>
      <trkpt lat="42.3615764547" lon="-0.6791072432">
        <ele>808.61</ele>
        <time>2022-04-15T07:48:06Z</time>
      </trkpt>
      <trkpt lat="42.3615961522" lon="-0.6792230811">
        <ele>808.61</ele>
        <time>2022-04-15T07:48:12Z</time>
      </trkpt>
      <trkpt lat="42.3615601100" lon="-0.6792979315">
        <ele>809.09</ele>
        <time>2022-04-15T07:48:24Z</time>
      </trkpt>
      <trkpt lat="42.3614813201" lon="-0.6795524061">
        <ele>809.09</ele>
        <time>2022-04-15T07:48:41Z</time>
      </trkpt>
      <trkpt lat="42.3613820784" lon="-0.6796979997">
        <ele>809.09</ele>
        <time>2022-04-15T07:48:55Z</time>
      </trkpt>
      <trkpt lat="42.3612222355" lon="-0.6799329445">
        <ele>810.05</ele>
        <time>2022-04-15T07:49:12Z</time>
      </trkpt>
      <trkpt lat="42.3611425236" lon="-0.6800445076">
        <ele>811.01</ele>
        <time>2022-04-15T07:49:22Z</time>
      </trkpt>
      <trkpt lat="42.3611172941" lon="-0.6802915223">
        <ele>811.01</ele>
        <time>2022-04-15T07:49:36Z</time>
      </trkpt>
      <trkpt lat="42.3611657415" lon="-0.6804364454">
        <ele>811.49</ele>
        <time>2022-04-15T07:49:48Z</time>
      </trkpt>
      <trkpt lat="42.3612519074" lon="-0.6806971226">
        <ele>812.45</ele>
        <time>2022-04-15T07:50:03Z</time>
      </trkpt>
      <trkpt lat="42.3612579424" lon="-0.6807518564">
        <ele>812.45</ele>
        <time>2022-04-15T07:50:07Z</time>
      </trkpt>
      <trkpt lat="42.3612564337" lon="-0.6808566302">
        <ele>812.93</ele>
        <time>2022-04-15T07:50:12Z</time>
      </trkpt>
      <trkpt lat="42.3612769693" lon="-0.6810983643">
        <ele>813.41</ele>
        <time>2022-04-15T07:50:28Z</time>
      </trkpt>
      <trkpt lat="42.3612612113" lon="-0.6811889727">
        <ele>813.89</ele>
        <time>2022-04-15T07:50:33Z</time>
      </trkpt>
      <trkpt lat="42.3612606246" lon="-0.6812301278">
        <ele>813.89</ele>
        <time>2022-04-15T07:50:35Z</time>
      </trkpt>
      <trkpt lat="42.3612999357" lon="-0.6814477220">
        <ele>814.85</ele>
        <time>2022-04-15T07:50:50Z</time>
      </trkpt>
      <trkpt lat="42.3613658175" lon="-0.6815037131">
        <ele>815.34</ele>
        <time>2022-04-15T07:50:56Z</time>
      </trkpt>
      <trkpt lat="42.3614400811" lon="-0.6815914717">
        <ele>816.30</ele>
        <time>2022-04-15T07:51:03Z</time>
      </trkpt>
      <trkpt lat="42.3615232296" lon="-0.6818150170">
        <ele>817.26</ele>
        <time>2022-04-15T07:51:18Z</time>
      </trkpt>
      <trkpt lat="42.3615946434" lon="-0.6820689049">
        <ele>818.70</ele>
        <time>2022-04-15T07:51:35Z</time>
      </trkpt>
      <trkpt lat="42.3616932146" lon="-0.6823356170">
        <ele>819.18</ele>
        <time>2022-04-15T07:51:52Z</time>
      </trkpt>
      <trkpt lat="42.3617241438" lon="-0.6825076975">
        <ele>820.62</ele>
        <time>2022-04-15T07:52:08Z</time>
      </trkpt>
      <trkpt lat="42.3617170192" lon="-0.6827268004">
        <ele>821.10</ele>
        <time>2022-04-15T07:52:25Z</time>
      </trkpt>
      <trkpt lat="42.3616771214" lon="-0.6828775071">
        <ele>821.10</ele>
        <time>2022-04-15T07:52:45Z</time>
      </trkpt>
      <trkpt lat="42.3616609443" lon="-0.6830724701">
        <ele>822.06</ele>
        <time>2022-04-15T07:52:57Z</time>
      </trkpt>
      <trkpt lat="42.3616145086" lon="-0.6831657607">
        <ele>823.03</ele>
        <time>2022-04-15T07:53:04Z</time>
      </trkpt>
      <trkpt lat="42.3615741078" lon="-0.6832115259">
        <ele>821.10</ele>
        <time>2022-04-15T07:53:09Z</time>
      </trkpt>
      <trkpt lat="42.3614042904" lon="-0.6834646594">
        <ele>822.55</ele>
        <time>2022-04-15T07:53:30Z</time>
      </trkpt>
      <trkpt lat="42.3613053001" lon="-0.6836840976">
        <ele>821.10</ele>
        <time>2022-04-15T07:53:45Z</time>
      </trkpt>
      <trkpt lat="42.3611678369" lon="-0.6839351356">
        <ele>822.06</ele>
        <time>2022-04-15T07:54:04Z</time>
      </trkpt>
      <trkpt lat="42.3610122688" lon="-0.6841689069">
        <ele>822.06</ele>
        <time>2022-04-15T07:54:21Z</time>
      </trkpt>
      <trkpt lat="42.3608432058" lon="-0.6844181009">
        <ele>822.06</ele>
        <time>2022-04-15T07:54:42Z</time>
      </trkpt>
      <trkpt lat="42.3608078342" lon="-0.6844482757">
        <ele>821.10</ele>
        <time>2022-04-15T07:54:45Z</time>
      </trkpt>
      <trkpt lat="42.3606289644" lon="-0.6846361980">
        <ele>820.62</ele>
        <time>2022-04-15T07:55:02Z</time>
      </trkpt>
      <trkpt lat="42.3605219275" lon="-0.6848662812">
        <ele>820.14</ele>
        <time>2022-04-15T07:55:19Z</time>
      </trkpt>
      <trkpt lat="42.3605271243" lon="-0.6850940175">
        <ele>819.18</ele>
        <time>2022-04-15T07:55:34Z</time>
      </trkpt>
      <trkpt lat="42.3605856299" lon="-0.6853652559">
        <ele>819.18</ele>
        <time>2022-04-15T07:55:50Z</time>
      </trkpt>
      <trkpt lat="42.3605121206" lon="-0.6856628973">
        <ele>817.74</ele>
        <time>2022-04-15T07:56:07Z</time>
      </trkpt>
      <trkpt lat="42.3603294790" lon="-0.6858487241">
        <ele>817.26</ele>
        <time>2022-04-15T07:56:24Z</time>
      </trkpt>
      <trkpt lat="42.3601854779" lon="-0.6858328823">
        <ele>815.82</ele>
        <time>2022-04-15T07:56:35Z</time>
      </trkpt>
      <trkpt lat="42.3599926103" lon="-0.6855997816">
        <ele>814.37</ele>
        <time>2022-04-15T07:56:54Z</time>
      </trkpt>
      <trkpt lat="42.3598126508" lon="-0.6854078360">
        <ele>811.97</ele>
        <time>2022-04-15T07:57:12Z</time>
      </trkpt>
      <trkpt lat="42.3596035223" lon="-0.6852853764">
        <ele>810.53</ele>
        <time>2022-04-15T07:57:32Z</time>
      </trkpt>
      <trkpt lat="42.3595899437" lon="-0.6852818560">
        <ele>810.53</ele>
        <time>2022-04-15T07:57:33Z</time>
      </trkpt>
      <trkpt lat="42.3595255706" lon="-0.6853512581">
        <ele>809.57</ele>
        <time>2022-04-15T07:57:43Z</time>
      </trkpt>
      <trkpt lat="42.3595487885" lon="-0.6853883900">
        <ele>808.13</ele>
        <time>2022-04-15T07:57:47Z</time>
      </trkpt>
      <trkpt lat="42.3595704976" lon="-0.6854025554">
        <ele>808.13</ele>
        <time>2022-04-15T07:57:50Z</time>
      </trkpt>
      <trkpt lat="42.3596182745" lon="-0.6854266953">
        <ele>807.64</ele>
        <time>2022-04-15T07:57:54Z</time>
      </trkpt>
      <trkpt lat="42.3598039337" lon="-0.6855882145">
        <ele>806.68</ele>
        <time>2022-04-15T07:58:11Z</time>
      </trkpt>
      <trkpt lat="42.3598778620" lon="-0.6856678426">
        <ele>806.68</ele>
        <time>2022-04-15T07:58:20Z</time>
      </trkpt>
      <trkpt lat="42.3599676322" lon="-0.6857315451">
        <ele>805.72</ele>
        <time>2022-04-15T07:58:27Z</time>
      </trkpt>
      <trkpt lat="42.3599764332" lon="-0.6859038770">
        <ele>804.28</ele>
        <time>2022-04-15T07:58:38Z</time>
      </trkpt>
      <trkpt lat="42.3598351143" lon="-0.6859420985">
        <ele>803.80</ele>
        <time>2022-04-15T07:58:47Z</time>
      </trkpt>
      <trkpt lat="42.3598072026" lon="-0.6858898792">
        <ele>802.36</ele>
        <time>2022-04-15T07:58:51Z</time>
      </trkpt>
      <trkpt lat="42.3597370461" lon="-0.6857806630">
        <ele>801.40</ele>
        <time>2022-04-15T07:59:00Z</time>
      </trkpt>
      <trkpt lat="42.3595318571" lon="-0.6857686769">
        <ele>800.44</ele>
        <time>2022-04-15T07:59:14Z</time>
      </trkpt>
      <trkpt lat="42.3593528196" lon="-0.6858838443">
        <ele>799.47</ele>
        <time>2022-04-15T07:59:31Z</time>
      </trkpt>
      <trkpt lat="42.3591870256" lon="-0.6859449483">
        <ele>798.03</ele>
        <time>2022-04-15T07:59:46Z</time>
      </trkpt>
      <trkpt lat="42.3590237461" lon="-0.6859865226">
        <ele>797.07</ele>
        <time>2022-04-15T07:59:59Z</time>
      </trkpt>
      <trkpt lat="42.3588557728" lon="-0.6859306991">
        <ele>794.67</ele>
        <time>2022-04-15T08:00:15Z</time>
      </trkpt>
      <trkpt lat="42.3588192277" lon="-0.6858752947">
        <ele>794.67</ele>
        <time>2022-04-15T08:00:19Z</time>
      </trkpt>
      <trkpt lat="42.3586485721" lon="-0.6857335567">
        <ele>792.26</ele>
        <time>2022-04-15T08:00:36Z</time>
      </trkpt>
      <trkpt lat="42.3584646732" lon="-0.6855932437">
        <ele>790.34</ele>
        <time>2022-04-15T08:00:52Z</time>
      </trkpt>
      <trkpt lat="42.3582724761" lon="-0.6856133603">
        <ele>788.42</ele>
        <time>2022-04-15T08:01:07Z</time>
      </trkpt>
      <trkpt lat="42.3581752460" lon="-0.6857115123">
        <ele>787.94</ele>
        <time>2022-04-15T08:01:18Z</time>
      </trkpt>
      <trkpt lat="42.3581201769" lon="-0.6857450400">
        <ele>787.46</ele>
        <time>2022-04-15T08:01:22Z</time>
      </trkpt>
      <trkpt lat="42.3579339311" lon="-0.6858747080">
        <ele>785.53</ele>
        <time>2022-04-15T08:01:39Z</time>
      </trkpt>
      <trkpt lat="42.3577535525" lon="-0.6859897077">
        <ele>783.13</ele>
        <time>2022-04-15T08:01:54Z</time>
      </trkpt>
      <trkpt lat="42.3575796280" lon="-0.6860923860">
        <ele>782.17</ele>
        <time>2022-04-15T08:02:09Z</time>
      </trkpt>
      <trkpt lat="42.3573955614" lon="-0.6861539930">
        <ele>780.25</ele>
        <time>2022-04-15T08:02:24Z</time>
      </trkpt>
      <trkpt lat="42.3572948109" lon="-0.6861705892">
        <ele>779.29</ele>
        <time>2022-04-15T08:02:34Z</time>
      </trkpt>
      <trkpt lat="42.3572075553" lon="-0.6861547474">
        <ele>778.81</ele>
        <time>2022-04-15T08:02:40Z</time>
      </trkpt>
      <trkpt lat="42.3570987582" lon="-0.6861316133">
        <ele>778.32</ele>
        <time>2022-04-15T08:02:48Z</time>
      </trkpt>
      <trkpt lat="42.3569225706" lon="-0.6862246525">
        <ele>777.36</ele>
        <time>2022-04-15T08:03:04Z</time>
      </trkpt>
      <trkpt lat="42.3567446228" lon="-0.6863371376">
        <ele>777.36</ele>
        <time>2022-04-15T08:03:19Z</time>
      </trkpt>
      <trkpt lat="42.3567186389" lon="-0.6863302644">
        <ele>777.84</ele>
        <time>2022-04-15T08:03:21Z</time>
      </trkpt>
      <trkpt lat="42.3565623164" lon="-0.6862274185">
        <ele>776.88</ele>
        <time>2022-04-15T08:03:35Z</time>
      </trkpt>
      <trkpt lat="42.3564112745" lon="-0.6861060485">
        <ele>776.40</ele>
        <time>2022-04-15T08:03:50Z</time>
      </trkpt>
      <trkpt lat="42.3562204186" lon="-0.6859401707">
        <ele>775.92</ele>
        <time>2022-04-15T08:04:07Z</time>
      </trkpt>
      <trkpt lat="42.3560231086" lon="-0.6858727802">
        <ele>775.92</ele>
        <time>2022-04-15T08:04:23Z</time>
      </trkpt>
      <trkpt lat="42.3558202665" lon="-0.6858093292">
        <ele>775.44</ele>
        <time>2022-04-15T08:04:39Z</time>
      </trkpt>
      <trkpt lat="42.3555951286" lon="-0.6857602112">
        <ele>775.44</ele>
        <time>2022-04-15T08:04:57Z</time>
      </trkpt>
      <trkpt lat="42.3553737625" lon="-0.6856986042">
        <ele>775.44</ele>
        <time>2022-04-15T08:05:17Z</time>
      </trkpt>
      <trkpt lat="42.3551877681" lon="-0.6855504122">
        <ele>776.40</ele>
        <time>2022-04-15T08:05:33Z</time>
      </trkpt>
      <trkpt lat="42.3549852613" lon="-0.6854664255">
        <ele>776.88</ele>
        <time>2022-04-15T08:05:49Z</time>
      </trkpt>
      <trkpt lat="42.3547701817" lon="-0.6853612326">
        <ele>777.84</ele>
        <time>2022-04-15T08:06:08Z</time>
      </trkpt>
      <trkpt lat="42.3545934912" lon="-0.6852394436">
        <ele>778.32</ele>
        <time>2022-04-15T08:06:25Z</time>
      </trkpt>
      <trkpt lat="42.3543817643" lon="-0.6850572210">
        <ele>779.77</ele>
        <time>2022-04-15T08:06:42Z</time>
      </trkpt>
      <trkpt lat="42.3543717898" lon="-0.6850247830">
        <ele>779.77</ele>
        <time>2022-04-15T08:06:44Z</time>
      </trkpt>
      <trkpt lat="42.3543635756" lon="-0.6849589013">
        <ele>779.77</ele>
        <time>2022-04-15T08:06:48Z</time>
      </trkpt>
      <trkpt lat="42.3542147968" lon="-0.6850530300">
        <ele>780.73</ele>
        <time>2022-04-15T08:07:03Z</time>
      </trkpt>
      <trkpt lat="42.3539919220" lon="-0.6851630844">
        <ele>781.21</ele>
        <time>2022-04-15T08:07:20Z</time>
      </trkpt>
      <trkpt lat="42.3537950311" lon="-0.6851350889">
        <ele>781.21</ele>
        <time>2022-04-15T08:07:35Z</time>
      </trkpt>
      <trkpt lat="42.3535942007" lon="-0.6851113681">
        <ele>781.21</ele>
        <time>2022-04-15T08:07:51Z</time>
      </trkpt>
      <trkpt lat="42.3534764349" lon="-0.6850687042">
        <ele>781.21</ele>
        <time>2022-04-15T08:08:00Z</time>
      </trkpt>
      <trkpt lat="42.3534467630" lon="-0.6850760803">
        <ele>781.21</ele>
        <time>2022-04-15T08:08:03Z</time>
      </trkpt>
      <trkpt lat="42.3532311805" lon="-0.6849897467">
        <ele>781.21</ele>
        <time>2022-04-15T08:08:20Z</time>
      </trkpt>
      <trkpt lat="42.3531508818" lon="-0.6849713903">
        <ele>778.32</ele>
        <time>2022-04-15T08:08:27Z</time>
      </trkpt>
      <trkpt lat="42.3531257361" lon="-0.6849656068">
        <ele>782.65</ele>
        <time>2022-04-15T08:08:29Z</time>
      </trkpt>
      <trkpt lat="42.3531042784" lon="-0.6849619187">
        <ele>781.69</ele>
        <time>2022-04-15T08:08:31Z</time>
      </trkpt>
      <trkpt lat="42.3530604411" lon="-0.6849592365">
        <ele>783.13</ele>
        <time>2022-04-15T08:08:35Z</time>
      </trkpt>
      <trkpt lat="42.3530090600" lon="-0.6849553809">
        <ele>781.21</ele>
        <time>2022-04-15T08:08:39Z</time>
      </trkpt>
      <trkpt lat="42.3529446870" lon="-0.6849521957">
        <ele>782.65</ele>
        <time>2022-04-15T08:08:44Z</time>
      </trkpt>
      <trkpt lat="42.3527731933" lon="-0.6849579792">
        <ele>779.77</ele>
        <time>2022-04-15T08:08:58Z</time>
      </trkpt>
      <trkpt lat="42.3526136018" lon="-0.6850078516">
        <ele>783.61</ele>
        <time>2022-04-15T08:09:14Z</time>
      </trkpt>
      <trkpt lat="42.3526284378" lon="-0.6850177422">
        <ele>783.13</ele>
        <time>2022-04-15T08:09:32Z</time>
      </trkpt>
      <trkpt lat="42.3524302058" lon="-0.6850155629">
        <ele>783.13</ele>
        <time>2022-04-15T08:09:49Z</time>
      </trkpt>
      <trkpt lat="42.3522487376" lon="-0.6850055046">
        <ele>784.57</ele>
        <time>2022-04-15T08:10:02Z</time>
      </trkpt>
      <trkpt lat="42.3520398606" lon="-0.6850029901">
        <ele>785.05</ele>
        <time>2022-04-15T08:10:18Z</time>
      </trkpt>
      <trkpt lat="42.3518645111" lon="-0.6850060076">
        <ele>785.53</ele>
        <time>2022-04-15T08:10:33Z</time>
      </trkpt>
      <trkpt lat="42.3518063407" lon="-0.6850059237">
        <ele>786.02</ele>
        <time>2022-04-15T08:10:37Z</time>
      </trkpt>
      <trkpt lat="42.3516234476" lon="-0.6850597356">
        <ele>786.50</ele>
        <time>2022-04-15T08:10:51Z</time>
      </trkpt>
      <trkpt lat="42.3514123913" lon="-0.6851796806">
        <ele>786.98</ele>
        <time>2022-04-15T08:11:08Z</time>
      </trkpt>
      <trkpt lat="42.3512927815" lon="-0.6853018049">
        <ele>786.98</ele>
        <time>2022-04-15T08:11:22Z</time>
      </trkpt>
      <trkpt lat="42.3512821365" lon="-0.6852711271">
        <ele>786.98</ele>
        <time>2022-04-15T08:11:43Z</time>
      </trkpt>
      <trkpt lat="42.3512848187" lon="-0.6852620747">
        <ele>786.98</ele>
        <time>2022-04-15T08:12:05Z</time>
      </trkpt>
      <trkpt lat="42.3512886744" lon="-0.6852806825">
        <ele>786.98</ele>
        <time>2022-04-15T08:12:17Z</time>
      </trkpt>
      <trkpt lat="42.3512617685" lon="-0.6854147092">
        <ele>786.98</ele>
        <time>2022-04-15T08:12:27Z</time>
      </trkpt>
      <trkpt lat="42.3512636963" lon="-0.6855147053">
        <ele>786.98</ele>
        <time>2022-04-15T08:12:32Z</time>
      </trkpt>
      <trkpt lat="42.3512539733" lon="-0.6856030505">
        <ele>785.53</ele>
        <time>2022-04-15T08:12:37Z</time>
      </trkpt>
      <trkpt lat="42.3512162548" lon="-0.6858312897">
        <ele>785.05</ele>
        <time>2022-04-15T08:12:50Z</time>
      </trkpt>
      <trkpt lat="42.3512353655" lon="-0.6859363150">
        <ele>784.57</ele>
        <time>2022-04-15T08:12:58Z</time>
      </trkpt>
      <trkpt lat="42.3513726611" lon="-0.6860750355">
        <ele>784.57</ele>
        <time>2022-04-15T08:13:11Z</time>
      </trkpt>
      <trkpt lat="42.3514584079" lon="-0.6862686574">
        <ele>784.57</ele>
        <time>2022-04-15T08:13:24Z</time>
      </trkpt>
      <trkpt lat="42.3515355214" lon="-0.6864743493">
        <ele>784.09</ele>
        <time>2022-04-15T08:13:37Z</time>
      </trkpt>
      <trkpt lat="42.3517070990" lon="-0.6866161712">
        <ele>784.09</ele>
        <time>2022-04-15T08:13:52Z</time>
      </trkpt>
      <trkpt lat="42.3519081809" lon="-0.6867652014">
        <ele>784.09</ele>
        <time>2022-04-15T08:14:09Z</time>
      </trkpt>
      <trkpt lat="42.3520561215" lon="-0.6868607551">
        <ele>783.61</ele>
        <time>2022-04-15T08:14:23Z</time>
      </trkpt>
      <trkpt lat="42.3522351589" lon="-0.6869340129">
        <ele>783.61</ele>
        <time>2022-04-15T08:14:39Z</time>
      </trkpt>
      <trkpt lat="42.3523734603" lon="-0.6869859807">
        <ele>785.05</ele>
        <time>2022-04-15T08:14:52Z</time>
      </trkpt>
      <trkpt lat="42.3524032161" lon="-0.6869709771">
        <ele>785.05</ele>
        <time>2022-04-15T08:14:55Z</time>
      </trkpt>
      <trkpt lat="42.3526602052" lon="-0.6869265530">
        <ele>786.50</ele>
        <time>2022-04-15T08:15:13Z</time>
      </trkpt>
      <trkpt lat="42.3528317828" lon="-0.6869596615">
        <ele>786.98</ele>
        <time>2022-04-15T08:15:27Z</time>
      </trkpt>
      <trkpt lat="42.3530065455" lon="-0.6869612541">
        <ele>787.94</ele>
        <time>2022-04-15T08:15:42Z</time>
      </trkpt>
      <trkpt lat="42.3532199487" lon="-0.6869818736">
        <ele>788.90</ele>
        <time>2022-04-15T08:15:57Z</time>
      </trkpt>
      <trkpt lat="42.3534097150" lon="-0.6871231925">
        <ele>789.38</ele>
        <time>2022-04-15T08:16:12Z</time>
      </trkpt>
      <trkpt lat="42.3535703123" lon="-0.6872951053">
        <ele>789.38</ele>
        <time>2022-04-15T08:16:27Z</time>
      </trkpt>
      <trkpt lat="42.3537128046" lon="-0.6874357536">
        <ele>789.38</ele>
        <time>2022-04-15T08:16:42Z</time>
      </trkpt>
      <trkpt lat="42.3539071810" lon="-0.6875177287">
        <ele>790.34</ele>
        <time>2022-04-15T08:17:00Z</time>
      </trkpt>
      <trkpt lat="42.3540972825" lon="-0.6876325607">
        <ele>791.78</ele>
        <time>2022-04-15T08:17:15Z</time>
      </trkpt>
      <trkpt lat="42.3541837838" lon="-0.6878160406">
        <ele>790.34</ele>
        <time>2022-04-15T08:17:28Z</time>
      </trkpt>
      <trkpt lat="42.3542637471" lon="-0.6879602931">
        <ele>788.42</ele>
        <time>2022-04-15T08:17:39Z</time>
      </trkpt>
      <trkpt lat="42.3543831892" lon="-0.6881090719">
        <ele>786.50</ele>
        <time>2022-04-15T08:17:52Z</time>
      </trkpt>
      <trkpt lat="42.3544636555" lon="-0.6881565973">
        <ele>785.05</ele>
        <time>2022-04-15T08:17:59Z</time>
      </trkpt>
      <trkpt lat="42.3546494823" lon="-0.6882027816">
        <ele>782.65</ele>
        <time>2022-04-15T08:18:15Z</time>
      </trkpt>
      <trkpt lat="42.3548116721" lon="-0.6883256603">
        <ele>780.25</ele>
        <time>2022-04-15T08:18:29Z</time>
      </trkpt>
      <trkpt lat="42.3548379913" lon="-0.6883440167">
        <ele>779.29</ele>
        <time>2022-04-15T08:18:33Z</time>
      </trkpt>
      <trkpt lat="42.3549502250" lon="-0.6883870997">
        <ele>778.32</ele>
        <time>2022-04-15T08:18:41Z</time>
      </trkpt>
      <trkpt lat="42.3551452719" lon="-0.6884508859">
        <ele>776.40</ele>
        <time>2022-04-15T08:18:56Z</time>
      </trkpt>
      <trkpt lat="42.3552793823" lon="-0.6885733455">
        <ele>774.00</ele>
        <time>2022-04-15T08:19:09Z</time>
      </trkpt>
      <trkpt lat="42.3554687295" lon="-0.6887217890">
        <ele>772.56</ele>
        <time>2022-04-15T08:19:24Z</time>
      </trkpt>
      <trkpt lat="42.3556417320" lon="-0.6888353638">
        <ele>770.63</ele>
        <time>2022-04-15T08:19:39Z</time>
      </trkpt>
      <trkpt lat="42.3558173329" lon="-0.6889133155">
        <ele>769.19</ele>
        <time>2022-04-15T08:19:54Z</time>
      </trkpt>
      <trkpt lat="42.3559613340" lon="-0.6890242919">
        <ele>767.75</ele>
        <time>2022-04-15T08:20:07Z</time>
      </trkpt>
      <trkpt lat="42.3561277986" lon="-0.6891207676">
        <ele>766.31</ele>
        <time>2022-04-15T08:20:21Z</time>
      </trkpt>
      <trkpt lat="42.3562769964" lon="-0.6892362703">
        <ele>765.35</ele>
        <time>2022-04-15T08:20:34Z</time>
      </trkpt>
      <trkpt lat="42.3564323131" lon="-0.6894174032">
        <ele>762.94</ele>
        <time>2022-04-15T08:20:50Z</time>
      </trkpt>
      <trkpt lat="42.3564774916" lon="-0.6894465722">
        <ele>762.94</ele>
        <time>2022-04-15T08:20:54Z</time>
      </trkpt>
      <trkpt lat="42.3566597141" lon="-0.6896472350">
        <ele>761.50</ele>
        <time>2022-04-15T08:21:12Z</time>
      </trkpt>
      <trkpt lat="42.3568281904" lon="-0.6897660904">
        <ele>759.58</ele>
        <time>2022-04-15T08:21:27Z</time>
      </trkpt>
      <trkpt lat="42.3568734527" lon="-0.6897545233">
        <ele>758.62</ele>
        <time>2022-04-15T08:21:31Z</time>
      </trkpt>
      <trkpt lat="42.3568340577" lon="-0.6895747315">
        <ele>756.69</ele>
        <time>2022-04-15T08:21:44Z</time>
      </trkpt>
      <trkpt lat="42.3568255920" lon="-0.6895696186">
        <ele>757.18</ele>
        <time>2022-04-15T08:21:45Z</time>
      </trkpt>
      <trkpt lat="42.3566696048" lon="-0.6894143857">
        <ele>755.25</ele>
        <time>2022-04-15T08:22:01Z</time>
      </trkpt>
      <trkpt lat="42.3565650824" lon="-0.6892444007">
        <ele>754.29</ele>
        <time>2022-04-15T08:22:13Z</time>
      </trkpt>
      <trkpt lat="42.3564719595" lon="-0.6890313327">
        <ele>753.81</ele>
        <time>2022-04-15T08:22:27Z</time>
      </trkpt>
      <trkpt lat="42.3563909903" lon="-0.6888509542">
        <ele>752.85</ele>
        <time>2022-04-15T08:22:41Z</time>
      </trkpt>
      <trkpt lat="42.3563658446" lon="-0.6887997407">
        <ele>752.37</ele>
        <time>2022-04-15T08:22:45Z</time>
      </trkpt>
      <trkpt lat="42.3563149665" lon="-0.6887355354">
        <ele>752.37</ele>
        <time>2022-04-15T08:22:50Z</time>
      </trkpt>
      <trkpt lat="42.3562792595" lon="-0.6886513811">
        <ele>752.37</ele>
        <time>2022-04-15T08:22:55Z</time>
      </trkpt>
      <trkpt lat="42.3562318180" lon="-0.6884648837">
        <ele>751.41</ele>
        <time>2022-04-15T08:23:09Z</time>
      </trkpt>
      <trkpt lat="42.3563629948" lon="-0.6885392312">
        <ele>750.45</ele>
        <time>2022-04-15T08:23:22Z</time>
      </trkpt>
      <trkpt lat="42.3564893100" lon="-0.6887358706">
        <ele>748.52</ele>
        <time>2022-04-15T08:23:35Z</time>
      </trkpt>
      <trkpt lat="42.3566467222" lon="-0.6889201887">
        <ele>747.08</ele>
        <time>2022-04-15T08:23:52Z</time>
      </trkpt>
      <trkpt lat="42.3568343930" lon="-0.6889585778">
        <ele>745.16</ele>
        <time>2022-04-15T08:24:08Z</time>
      </trkpt>
      <trkpt lat="42.3569976725" lon="-0.6889401376">
        <ele>743.72</ele>
        <time>2022-04-15T08:24:22Z</time>
      </trkpt>
      <trkpt lat="42.3572418373" lon="-0.6889310852">
        <ele>742.28</ele>
        <time>2022-04-15T08:24:42Z</time>
      </trkpt>
      <trkpt lat="42.3573850840" lon="-0.6890023313">
        <ele>740.35</ele>
        <time>2022-04-15T08:24:55Z</time>
      </trkpt>
      <trkpt lat="42.3575371318" lon="-0.6891797762">
        <ele>739.39</ele>
        <time>2022-04-15T08:25:10Z</time>
      </trkpt>
      <trkpt lat="42.3576368764" lon="-0.6893621664">
        <ele>737.95</ele>
        <time>2022-04-15T08:25:23Z</time>
      </trkpt>
      <trkpt lat="42.3576404806" lon="-0.6893733144">
        <ele>737.95</ele>
        <time>2022-04-15T08:25:24Z</time>
      </trkpt>
      <trkpt lat="42.3576949630" lon="-0.6894935947">
        <ele>736.99</ele>
        <time>2022-04-15T08:25:31Z</time>
      </trkpt>
      <trkpt lat="42.3578343540" lon="-0.6897124462">
        <ele>735.55</ele>
        <time>2022-04-15T08:25:48Z</time>
      </trkpt>
      <trkpt lat="42.3579556402" lon="-0.6899578683">
        <ele>734.10</ele>
        <time>2022-04-15T08:26:03Z</time>
      </trkpt>
      <trkpt lat="42.3579831328" lon="-0.6901024561">
        <ele>732.66</ele>
        <time>2022-04-15T08:26:13Z</time>
      </trkpt>
      <trkpt lat="42.3579780199" lon="-0.6901511550">
        <ele>732.18</ele>
        <time>2022-04-15T08:26:16Z</time>
      </trkpt>
      <trkpt lat="42.3579591606" lon="-0.6903470401">
        <ele>730.26</ele>
        <time>2022-04-15T08:26:29Z</time>
      </trkpt>
      <trkpt lat="42.3579460010" lon="-0.6904161070">
        <ele>729.78</ele>
        <time>2022-04-15T08:26:33Z</time>
      </trkpt>
      <trkpt lat="42.3580097035" lon="-0.6905675679">
        <ele>727.86</ele>
        <time>2022-04-15T08:26:47Z</time>
      </trkpt>
      <trkpt lat="42.3580772616" lon="-0.6905806437">
        <ele>727.37</ele>
        <time>2022-04-15T08:26:52Z</time>
      </trkpt>
      <trkpt lat="42.3581909202" lon="-0.6906518061">
        <ele>726.41</ele>
        <time>2022-04-15T08:27:00Z</time>
      </trkpt>
      <trkpt lat="42.3582374398" lon="-0.6907480303">
        <ele>725.93</ele>
        <time>2022-04-15T08:27:09Z</time>
      </trkpt>
      <trkpt lat="42.3582397029" lon="-0.6908564083">
        <ele>725.45</ele>
        <time>2022-04-15T08:27:14Z</time>
      </trkpt>
      <trkpt lat="42.3582363501" lon="-0.6909435801">
        <ele>724.49</ele>
        <time>2022-04-15T08:27:19Z</time>
      </trkpt>
      <trkpt lat="42.3581570573" lon="-0.6911449134">
        <ele>723.05</ele>
        <time>2022-04-15T08:27:34Z</time>
      </trkpt>
      <trkpt lat="42.3581854720" lon="-0.6913169101">
        <ele>722.09</ele>
        <time>2022-04-15T08:27:45Z</time>
      </trkpt>
      <trkpt lat="42.3582474981" lon="-0.6913179997">
        <ele>722.09</ele>
        <time>2022-04-15T08:27:52Z</time>
      </trkpt>
      <trkpt lat="42.3583025672" lon="-0.6913331710">
        <ele>722.09</ele>
        <time>2022-04-15T08:27:57Z</time>
      </trkpt>
      <trkpt lat="42.3583588935" lon="-0.6913780142">
        <ele>723.53</ele>
        <time>2022-04-15T08:28:01Z</time>
      </trkpt>
      <trkpt lat="42.3585163895" lon="-0.6915301457">
        <ele>723.53</ele>
        <time>2022-04-15T08:28:14Z</time>
      </trkpt>
      <trkpt lat="42.3586546071" lon="-0.6917156372">
        <ele>722.09</ele>
        <time>2022-04-15T08:28:29Z</time>
      </trkpt>
      <trkpt lat="42.3587981891" lon="-0.6919008773">
        <ele>721.13</ele>
        <time>2022-04-15T08:28:45Z</time>
      </trkpt>
      <trkpt lat="42.3589319643" lon="-0.6920620613">
        <ele>720.16</ele>
        <time>2022-04-15T08:29:01Z</time>
      </trkpt>
      <trkpt lat="42.3590550106" lon="-0.6921830960">
        <ele>719.68</ele>
        <time>2022-04-15T08:29:12Z</time>
      </trkpt>
      <trkpt lat="42.3591202218" lon="-0.6922713574">
        <ele>719.68</ele>
        <time>2022-04-15T08:29:20Z</time>
      </trkpt>
      <trkpt lat="42.3591607064" lon="-0.6924196333">
        <ele>718.72</ele>
        <time>2022-04-15T08:29:27Z</time>
      </trkpt>
      <trkpt lat="42.3592225648" lon="-0.6926223915">
        <ele>718.72</ele>
        <time>2022-04-15T08:29:41Z</time>
      </trkpt>
      <trkpt lat="42.3592486326" lon="-0.6928421650">
        <ele>717.76</ele>
        <time>2022-04-15T08:29:54Z</time>
      </trkpt>
      <trkpt lat="42.3592489678" lon="-0.6928984914">
        <ele>717.28</ele>
        <time>2022-04-15T08:29:57Z</time>
      </trkpt>
      <trkpt lat="42.3592749517" lon="-0.6930097193">
        <ele>717.28</ele>
        <time>2022-04-15T08:30:02Z</time>
      </trkpt>
      <trkpt lat="42.3594309390" lon="-0.6932384614">
        <ele>716.32</ele>
        <time>2022-04-15T08:30:19Z</time>
      </trkpt>
      <trkpt lat="42.3595542368" lon="-0.6932973024">
        <ele>716.32</ele>
        <time>2022-04-15T08:30:32Z</time>
      </trkpt>
      <trkpt lat="42.3596849106" lon="-0.6933812890">
        <ele>715.84</ele>
        <time>2022-04-15T08:30:42Z</time>
      </trkpt>
      <trkpt lat="42.3598267324" lon="-0.6935803592">
        <ele>714.40</ele>
        <time>2022-04-15T08:30:58Z</time>
      </trkpt>
      <trkpt lat="42.3598560691" lon="-0.6936909165">
        <ele>713.44</ele>
        <time>2022-04-15T08:31:06Z</time>
      </trkpt>
      <trkpt lat="42.3598771077" lon="-0.6937793456">
        <ele>712.95</ele>
        <time>2022-04-15T08:31:11Z</time>
      </trkpt>
      <trkpt lat="42.3598657083" lon="-0.6939374283">
        <ele>711.99</ele>
        <time>2022-04-15T08:31:21Z</time>
      </trkpt>
      <trkpt lat="42.3598461784" lon="-0.6941276975">
        <ele>711.03</ele>
        <time>2022-04-15T08:31:31Z</time>
      </trkpt>
      <trkpt lat="42.3598894291" lon="-0.6941867899">
        <ele>711.03</ele>
        <time>2022-04-15T08:31:41Z</time>
      </trkpt>
      <trkpt lat="42.3600387946" lon="-0.6941834372">
        <ele>711.99</ele>
        <time>2022-04-15T08:31:57Z</time>
      </trkpt>
      <trkpt lat="42.3601004016" lon="-0.6941989437">
        <ele>711.99</ele>
        <time>2022-04-15T08:32:02Z</time>
      </trkpt>
      <trkpt lat="42.3602751642" lon="-0.6942774821">
        <ele>713.44</ele>
        <time>2022-04-15T08:32:18Z</time>
      </trkpt>
      <trkpt lat="42.3604201712" lon="-0.6944738701">
        <ele>713.92</ele>
        <time>2022-04-15T08:32:31Z</time>
      </trkpt>
      <trkpt lat="42.3605304770" lon="-0.6945831701">
        <ele>713.92</ele>
        <time>2022-04-15T08:32:42Z</time>
      </trkpt>
      <trkpt lat="42.3607258592" lon="-0.6947323680">
        <ele>714.40</ele>
        <time>2022-04-15T08:32:58Z</time>
      </trkpt>
      <trkpt lat="42.3609567806" lon="-0.6948227249">
        <ele>715.36</ele>
        <time>2022-04-15T08:33:15Z</time>
      </trkpt>
      <trkpt lat="42.3611655738" lon="-0.6949857529">
        <ele>716.80</ele>
        <time>2022-04-15T08:33:35Z</time>
      </trkpt>
      <trkpt lat="42.3611737881" lon="-0.6950854976">
        <ele>715.36</ele>
        <time>2022-04-15T08:33:41Z</time>
      </trkpt>
      <trkpt lat="42.3610988539" lon="-0.6952745095">
        <ele>713.44</ele>
        <time>2022-04-15T08:33:53Z</time>
      </trkpt>
      <trkpt lat="42.3610599618" lon="-0.6953333504">
        <ele>712.47</ele>
        <time>2022-04-15T08:33:57Z</time>
      </trkpt>
      <trkpt lat="42.3610243388" lon="-0.6953908503">
        <ele>711.99</ele>
        <time>2022-04-15T08:34:02Z</time>
      </trkpt>
      <trkpt lat="42.3610085808" lon="-0.6954387948">
        <ele>711.03</ele>
        <time>2022-04-15T08:34:05Z</time>
      </trkpt>
      <trkpt lat="42.3610057309" lon="-0.6954959594">
        <ele>710.07</ele>
        <time>2022-04-15T08:34:09Z</time>
      </trkpt>
      <trkpt lat="42.3610922322" lon="-0.6956807803">
        <ele>708.15</ele>
        <time>2022-04-15T08:34:23Z</time>
      </trkpt>
      <trkpt lat="42.3611546773" lon="-0.6958878133">
        <ele>705.75</ele>
        <time>2022-04-15T08:34:37Z</time>
      </trkpt>
      <trkpt lat="42.3611910548" lon="-0.6960365921">
        <ele>704.30</ele>
        <time>2022-04-15T08:34:45Z</time>
      </trkpt>
      <trkpt lat="42.3611982632" lon="-0.6961432099">
        <ele>703.34</ele>
        <time>2022-04-15T08:34:52Z</time>
      </trkpt>
      <trkpt lat="42.3612301983" lon="-0.6962469779">
        <ele>702.38</ele>
        <time>2022-04-15T08:34:57Z</time>
      </trkpt>
      <trkpt lat="42.3612461239" lon="-0.6963653304">
        <ele>700.94</ele>
        <time>2022-04-15T08:35:05Z</time>
      </trkpt>
      <trkpt lat="42.3612672463" lon="-0.6964723673">
        <ele>700.46</ele>
        <time>2022-04-15T08:35:11Z</time>
      </trkpt>
      <trkpt lat="42.3613181245" lon="-0.6965830922">
        <ele>699.02</ele>
        <time>2022-04-15T08:35:22Z</time>
      </trkpt>
      <trkpt lat="42.3613716848" lon="-0.6965699326">
        <ele>698.53</ele>
        <time>2022-04-15T08:35:27Z</time>
      </trkpt>
      <trkpt lat="42.3615355510" lon="-0.6963865366">
        <ele>697.57</ele>
        <time>2022-04-15T08:35:43Z</time>
      </trkpt>
      <trkpt lat="42.3616790492" lon="-0.6962327287">
        <ele>697.57</ele>
        <time>2022-04-15T08:35:57Z</time>
      </trkpt>
      <trkpt lat="42.3618262354" lon="-0.6961479876">
        <ele>696.61</ele>
        <time>2022-04-15T08:36:10Z</time>
      </trkpt>
      <trkpt lat="42.3619751818" lon="-0.6960111111">
        <ele>694.69</ele>
        <time>2022-04-15T08:36:25Z</time>
      </trkpt>
      <trkpt lat="42.3621361144" lon="-0.6959185749">
        <ele>693.25</ele>
        <time>2022-04-15T08:36:38Z</time>
      </trkpt>
      <trkpt lat="42.3621838074" lon="-0.6959199999">
        <ele>691.81</ele>
        <time>2022-04-15T08:36:52Z</time>
      </trkpt>
      <trkpt lat="42.3623299878" lon="-0.6958812755">
        <ele>691.33</ele>
        <time>2022-04-15T08:37:06Z</time>
      </trkpt>
      <trkpt lat="42.3624714743" lon="-0.6957931817">
        <ele>689.40</ele>
        <time>2022-04-15T08:37:19Z</time>
      </trkpt>
      <trkpt lat="42.3625572212" lon="-0.6957806088">
        <ele>688.44</ele>
        <time>2022-04-15T08:37:26Z</time>
      </trkpt>
      <trkpt lat="42.3626537807" lon="-0.6957511883">
        <ele>687.48</ele>
        <time>2022-04-15T08:37:34Z</time>
      </trkpt>
      <trkpt lat="42.3627930041" lon="-0.6958817784">
        <ele>685.56</ele>
        <time>2022-04-15T08:37:46Z</time>
      </trkpt>
      <trkpt lat="42.3628022242" lon="-0.6958919205">
        <ele>685.56</ele>
        <time>2022-04-15T08:37:47Z</time>
      </trkpt>
      <trkpt lat="42.3628224246" lon="-0.6959910784">
        <ele>684.60</ele>
        <time>2022-04-15T08:37:52Z</time>
      </trkpt>
      <trkpt lat="42.3628958501" lon="-0.6961286254">
        <ele>682.67</ele>
        <time>2022-04-15T08:38:02Z</time>
      </trkpt>
      <trkpt lat="42.3629645817" lon="-0.6962164678">
        <ele>680.75</ele>
        <time>2022-04-15T08:38:11Z</time>
      </trkpt>
      <trkpt lat="42.3631006200" lon="-0.6963283662">
        <ele>678.83</ele>
        <time>2022-04-15T08:38:25Z</time>
      </trkpt>
      <trkpt lat="42.3631181382" lon="-0.6963434536">
        <ele>678.35</ele>
        <time>2022-04-15T08:38:26Z</time>
      </trkpt>
      <trkpt lat="42.3631739616" lon="-0.6963701919">
        <ele>677.87</ele>
        <time>2022-04-15T08:38:30Z</time>
      </trkpt>
      <trkpt lat="42.3633586988" lon="-0.6965633947">
        <ele>675.94</ele>
        <time>2022-04-15T08:38:45Z</time>
      </trkpt>
      <trkpt lat="42.3634000216" lon="-0.6966435257">
        <ele>674.98</ele>
        <time>2022-04-15T08:38:51Z</time>
      </trkpt>
      <trkpt lat="42.3635565117" lon="-0.6967337988">
        <ele>672.58</ele>
        <time>2022-04-15T08:39:06Z</time>
      </trkpt>
      <trkpt lat="42.3636912089" lon="-0.6968016922">
        <ele>670.66</ele>
        <time>2022-04-15T08:39:19Z</time>
      </trkpt>
      <trkpt lat="42.3638044484" lon="-0.6969566736">
        <ele>669.22</ele>
        <time>2022-04-15T08:39:30Z</time>
      </trkpt>
      <trkpt lat="42.3639707454" lon="-0.6970203761">
        <ele>667.77</ele>
        <time>2022-04-15T08:39:44Z</time>
      </trkpt>
      <trkpt lat="42.3641457595" lon="-0.6970499642">
        <ele>667.29</ele>
        <time>2022-04-15T08:39:57Z</time>
      </trkpt>
      <trkpt lat="42.3643073626" lon="-0.6971160136">
        <ele>665.85</ele>
        <time>2022-04-15T08:40:10Z</time>
      </trkpt>
      <trkpt lat="42.3644933570" lon="-0.6972682290">
        <ele>664.89</ele>
        <time>2022-04-15T08:40:26Z</time>
      </trkpt>
      <trkpt lat="42.3646539543" lon="-0.6973815523">
        <ele>663.93</ele>
        <time>2022-04-15T08:40:40Z</time>
      </trkpt>
      <trkpt lat="42.3646926787" lon="-0.6974364538">
        <ele>663.45</ele>
        <time>2022-04-15T08:40:45Z</time>
      </trkpt>
      <trkpt lat="42.3647606559" lon="-0.6974935345">
        <ele>662.97</ele>
        <time>2022-04-15T08:40:52Z</time>
      </trkpt>
      <trkpt lat="42.3648579698" lon="-0.6975516211">
        <ele>660.56</ele>
        <time>2022-04-15T08:40:58Z</time>
      </trkpt>
      <trkpt lat="42.3648772482" lon="-0.6975740008">
        <ele>665.37</ele>
        <time>2022-04-15T08:41:00Z</time>
      </trkpt>
      <trkpt lat="42.3648860492" lon="-0.6975849811">
        <ele>662.49</ele>
        <time>2022-04-15T08:41:01Z</time>
      </trkpt>
      <trkpt lat="42.3649014719" lon="-0.6976071931">
        <ele>661.52</ele>
        <time>2022-04-15T08:41:03Z</time>
      </trkpt>
      <trkpt lat="42.3650296312" lon="-0.6977777649">
        <ele>660.08</ele>
        <time>2022-04-15T08:41:19Z</time>
      </trkpt>
      <trkpt lat="42.3651365843" lon="-0.6979345065">
        <ele>659.60</ele>
        <time>2022-04-15T08:41:31Z</time>
      </trkpt>
      <trkpt lat="42.3652598821" lon="-0.6981800962">
        <ele>658.16</ele>
        <time>2022-04-15T08:41:49Z</time>
      </trkpt>
      <trkpt lat="42.3653333075" lon="-0.6983921584">
        <ele>659.12</ele>
        <time>2022-04-15T08:42:02Z</time>
      </trkpt>
      <trkpt lat="42.3653473891" lon="-0.6984087545">
        <ele>657.68</ele>
        <time>2022-04-15T08:42:04Z</time>
      </trkpt>
      <trkpt lat="42.3653561901" lon="-0.6984400190">
        <ele>659.12</ele>
        <time>2022-04-15T08:42:06Z</time>
      </trkpt>
      <trkpt lat="42.3653939087" lon="-0.6984833535">
        <ele>659.12</ele>
        <time>2022-04-15T08:42:09Z</time>
      </trkpt>
      <trkpt lat="42.3654985148" lon="-0.6986764725">
        <ele>657.68</ele>
        <time>2022-04-15T08:42:25Z</time>
      </trkpt>
      <trkpt lat="42.3655835073" lon="-0.6986095849">
        <ele>657.20</ele>
        <time>2022-04-15T08:42:40Z</time>
      </trkpt>
      <trkpt lat="42.3656480480" lon="-0.6983343232">
        <ele>655.76</ele>
        <time>2022-04-15T08:42:58Z</time>
      </trkpt>
      <trkpt lat="42.3658834118" lon="-0.6981976982">
        <ele>653.83</ele>
        <time>2022-04-15T08:43:15Z</time>
      </trkpt>
      <trkpt lat="42.3659387324" lon="-0.6981828623">
        <ele>653.35</ele>
        <time>2022-04-15T08:43:19Z</time>
      </trkpt>
      <trkpt lat="42.3661575001" lon="-0.6981869694">
        <ele>651.43</ele>
        <time>2022-04-15T08:43:34Z</time>
      </trkpt>
      <trkpt lat="42.3662316799" lon="-0.6982463971">
        <ele>650.95</ele>
        <time>2022-04-15T08:43:40Z</time>
      </trkpt>
      <trkpt lat="42.3664584942" lon="-0.6983401068">
        <ele>649.51</ele>
        <time>2022-04-15T08:43:56Z</time>
      </trkpt>
      <trkpt lat="42.3665454146" lon="-0.6983582117">
        <ele>648.55</ele>
        <time>2022-04-15T08:44:03Z</time>
      </trkpt>
      <trkpt lat="42.3665847257" lon="-0.6983899791">
        <ele>648.55</ele>
        <time>2022-04-15T08:44:06Z</time>
      </trkpt>
      <trkpt lat="42.3667204287" lon="-0.6984819286">
        <ele>647.10</ele>
        <time>2022-04-15T08:44:18Z</time>
      </trkpt>
      <trkpt lat="42.3668641783" lon="-0.6986237504">
        <ele>645.66</ele>
        <time>2022-04-15T08:44:33Z</time>
      </trkpt>
      <trkpt lat="42.3669160623" lon="-0.6986628100">
        <ele>644.22</ele>
        <time>2022-04-15T08:44:36Z</time>
      </trkpt>
      <trkpt lat="42.3669457342" lon="-0.6987007800">
        <ele>644.22</ele>
        <time>2022-04-15T08:44:38Z</time>
      </trkpt>
      <trkpt lat="42.3670759890" lon="-0.6988638081">
        <ele>642.78</ele>
        <time>2022-04-15T08:44:51Z</time>
      </trkpt>
      <trkpt lat="42.3671737220" lon="-0.6989456154">
        <ele>642.30</ele>
        <time>2022-04-15T08:45:00Z</time>
      </trkpt>
      <trkpt lat="42.3672050703" lon="-0.6989658996">
        <ele>640.38</ele>
        <time>2022-04-15T08:45:02Z</time>
      </trkpt>
      <trkpt lat="42.3672333173" lon="-0.6989890337">
        <ele>641.82</ele>
        <time>2022-04-15T08:45:04Z</time>
      </trkpt>
      <trkpt lat="42.3672922421" lon="-0.6990728527">
        <ele>639.41</ele>
        <time>2022-04-15T08:45:12Z</time>
      </trkpt>
      <trkpt lat="42.3674054816" lon="-0.6992118247">
        <ele>638.45</ele>
        <time>2022-04-15T08:45:25Z</time>
      </trkpt>
      <trkpt lat="42.3674974311" lon="-0.6993331108">
        <ele>638.45</ele>
        <time>2022-04-15T08:45:34Z</time>
      </trkpt>
      <trkpt lat="42.3675364908" lon="-0.6993654650">
        <ele>637.01</ele>
        <time>2022-04-15T08:45:38Z</time>
      </trkpt>
      <trkpt lat="42.3675861955" lon="-0.6993865035">
        <ele>637.01</ele>
        <time>2022-04-15T08:45:43Z</time>
      </trkpt>
      <trkpt lat="42.3677571025" lon="-0.6994839851">
        <ele>636.53</ele>
        <time>2022-04-15T08:45:57Z</time>
      </trkpt>
      <trkpt lat="42.3677704297" lon="-0.6995322648">
        <ele>635.57</ele>
        <time>2022-04-15T08:46:00Z</time>
      </trkpt>
      <trkpt lat="42.3677759618" lon="-0.6997075304">
        <ele>636.05</ele>
        <time>2022-04-15T08:46:09Z</time>
      </trkpt>
      <trkpt lat="42.3677727766" lon="-0.6997390464">
        <ele>634.61</ele>
        <time>2022-04-15T08:46:11Z</time>
      </trkpt>
      <trkpt lat="42.3677534983" lon="-0.6997989770">
        <ele>633.17</ele>
        <time>2022-04-15T08:46:14Z</time>
      </trkpt>
      <trkpt lat="42.3677707650" lon="-0.6999595743">
        <ele>633.17</ele>
        <time>2022-04-15T08:46:25Z</time>
      </trkpt>
      <trkpt lat="42.3677975871" lon="-0.6999843009">
        <ele>633.17</ele>
        <time>2022-04-15T08:46:29Z</time>
      </trkpt>
      <trkpt lat="42.3679075576" lon="-0.6999107078">
        <ele>633.65</ele>
        <time>2022-04-15T08:46:38Z</time>
      </trkpt>
      <trkpt lat="42.3679850064" lon="-0.6997933611">
        <ele>635.09</ele>
        <time>2022-04-15T08:46:54Z</time>
      </trkpt>
      <trkpt lat="42.3680762853" lon="-0.6997928582">
        <ele>635.57</ele>
        <time>2022-04-15T08:47:03Z</time>
      </trkpt>
      <trkpt lat="42.3681742698" lon="-0.6998387072">
        <ele>635.57</ele>
        <time>2022-04-15T08:47:09Z</time>
      </trkpt>
      <trkpt lat="42.3682813905" lon="-0.7000707183">
        <ele>636.53</ele>
        <time>2022-04-15T08:47:24Z</time>
      </trkpt>
      <trkpt lat="42.3683638684" lon="-0.7002887316">
        <ele>638.45</ele>
        <time>2022-04-15T08:47:41Z</time>
      </trkpt>
      <trkpt lat="42.3684693128" lon="-0.7003997918">
        <ele>638.93</ele>
        <time>2022-04-15T08:47:52Z</time>
      </trkpt>
      <trkpt lat="42.3685683869" lon="-0.7004866283">
        <ele>640.38</ele>
        <time>2022-04-15T08:48:05Z</time>
      </trkpt>
      <trkpt lat="42.3686551396" lon="-0.7005811762">
        <ele>640.86</ele>
        <time>2022-04-15T08:48:15Z</time>
      </trkpt>
      <trkpt lat="42.3687872384" lon="-0.7006737962">
        <ele>643.26</ele>
        <time>2022-04-15T08:48:29Z</time>
      </trkpt>
      <trkpt lat="42.3688457441" lon="-0.7007941604">
        <ele>643.74</ele>
        <time>2022-04-15T08:48:39Z</time>
      </trkpt>
      <trkpt lat="42.3688633461" lon="-0.7008362375">
        <ele>643.74</ele>
        <time>2022-04-15T08:48:42Z</time>
      </trkpt>
      <trkpt lat="42.3689402081" lon="-0.7010750379">
        <ele>643.74</ele>
        <time>2022-04-15T08:48:55Z</time>
      </trkpt>
      <trkpt lat="42.3689415492" lon="-0.7010866888">
        <ele>643.74</ele>
        <time>2022-04-15T08:48:56Z</time>
      </trkpt>
      <trkpt lat="42.3689513560" lon="-0.7012824062">
        <ele>643.74</ele>
        <time>2022-04-15T08:49:12Z</time>
      </trkpt>
      <trkpt lat="42.3689962830" lon="-0.7015244756">
        <ele>645.66</ele>
        <time>2022-04-15T08:49:29Z</time>
      </trkpt>
      <trkpt lat="42.3690231051" lon="-0.7016306743">
        <ele>645.18</ele>
        <time>2022-04-15T08:49:34Z</time>
      </trkpt>
      <trkpt lat="42.3690336663" lon="-0.7017325144">
        <ele>645.18</ele>
        <time>2022-04-15T08:49:39Z</time>
      </trkpt>
      <trkpt lat="42.3690400366" lon="-0.7017968874">
        <ele>645.18</ele>
        <time>2022-04-15T08:49:44Z</time>
      </trkpt>
      <trkpt lat="42.3690793477" lon="-0.7019933593">
        <ele>644.70</ele>
        <time>2022-04-15T08:49:55Z</time>
      </trkpt>
      <trkpt lat="42.3690747377" lon="-0.7022653520">
        <ele>647.59</ele>
        <time>2022-04-15T08:50:15Z</time>
      </trkpt>
      <trkpt lat="42.3690979555" lon="-0.7025200780">
        <ele>646.62</ele>
        <time>2022-04-15T08:50:31Z</time>
      </trkpt>
      <trkpt lat="42.3691352550" lon="-0.7027324755">
        <ele>645.66</ele>
        <time>2022-04-15T08:50:45Z</time>
      </trkpt>
      <trkpt lat="42.3691250291" lon="-0.7029541768">
        <ele>643.74</ele>
        <time>2022-04-15T08:50:58Z</time>
      </trkpt>
      <trkpt lat="42.3691099416" lon="-0.7029882912">
        <ele>643.74</ele>
        <time>2022-04-15T08:51:01Z</time>
      </trkpt>
      <trkpt lat="42.3690211773" lon="-0.7032553386">
        <ele>640.86</ele>
        <time>2022-04-15T08:51:21Z</time>
      </trkpt>
      <trkpt lat="42.3689737357" lon="-0.7034494635">
        <ele>639.89</ele>
        <time>2022-04-15T08:51:34Z</time>
      </trkpt>
      <trkpt lat="42.3689912539" lon="-0.7035162672">
        <ele>639.89</ele>
        <time>2022-04-15T08:51:37Z</time>
      </trkpt>
      <trkpt lat="42.3689715564" lon="-0.7036927063">
        <ele>639.89</ele>
        <time>2022-04-15T08:51:50Z</time>
      </trkpt>
      <trkpt lat="42.3689255398" lon="-0.7037020940">
        <ele>639.41</ele>
        <time>2022-04-15T08:52:08Z</time>
      </trkpt>
      <trkpt lat="42.3689597379" lon="-0.7036587596">
        <ele>641.34</ele>
        <time>2022-04-15T08:52:12Z</time>
      </trkpt>
      <trkpt lat="42.3690158967" lon="-0.7035058737">
        <ele>641.82</ele>
        <time>2022-04-15T08:52:23Z</time>
      </trkpt>
      <trkpt lat="42.3691445589" lon="-0.7033708412">
        <ele>641.82</ele>
        <time>2022-04-15T08:52:38Z</time>
      </trkpt>
      <trkpt lat="42.3693054914" lon="-0.7031679153">
        <ele>640.38</ele>
        <time>2022-04-15T08:52:55Z</time>
      </trkpt>
      <trkpt lat="42.3693328165" lon="-0.7031035423">
        <ele>641.34</ele>
        <time>2022-04-15T08:53:00Z</time>
      </trkpt>
      <trkpt lat="42.3693911545" lon="-0.7030127663">
        <ele>639.89</ele>
        <time>2022-04-15T08:53:06Z</time>
      </trkpt>
      <trkpt lat="42.3694077507" lon="-0.7029857766">
        <ele>639.89</ele>
        <time>2022-04-15T08:53:08Z</time>
      </trkpt>
      <trkpt lat="42.3694519233" lon="-0.7028772309">
        <ele>638.45</ele>
        <time>2022-04-15T08:53:18Z</time>
      </trkpt>
      <trkpt lat="42.3694525100" lon="-0.7025738899">
        <ele>638.45</ele>
        <time>2022-04-15T08:53:33Z</time>
      </trkpt>
      <trkpt lat="42.3695053160" lon="-0.7023497578">
        <ele>639.41</ele>
        <time>2022-04-15T08:53:47Z</time>
      </trkpt>
      <trkpt lat="42.3695395142" lon="-0.7021283917">
        <ele>637.49</ele>
        <time>2022-04-15T08:54:00Z</time>
      </trkpt>
      <trkpt lat="42.3695484828" lon="-0.7020608336">
        <ele>638.93</ele>
        <time>2022-04-15T08:54:04Z</time>
      </trkpt>
      <trkpt lat="42.3696023785" lon="-0.7019709796">
        <ele>638.93</ele>
        <time>2022-04-15T08:54:12Z</time>
      </trkpt>
      <trkpt lat="42.3698270973" lon="-0.7018525433">
        <ele>638.45</ele>
        <time>2022-04-15T08:54:26Z</time>
      </trkpt>
      <trkpt lat="42.3699974176" lon="-0.7017027587">
        <ele>639.89</ele>
        <time>2022-04-15T08:54:42Z</time>
      </trkpt>
      <trkpt lat="42.3700368125" lon="-0.7016564906">
        <ele>637.97</ele>
        <time>2022-04-15T08:54:46Z</time>
      </trkpt>
      <trkpt lat="42.3701152671" lon="-0.7014944684">
        <ele>636.05</ele>
        <time>2022-04-15T08:54:58Z</time>
      </trkpt>
      <trkpt lat="42.3701627087" lon="-0.7013859227">
        <ele>634.61</ele>
        <time>2022-04-15T08:55:06Z</time>
      </trkpt>
      <trkpt lat="42.3702555802" lon="-0.7011926360">
        <ele>632.68</ele>
        <time>2022-04-15T08:55:19Z</time>
      </trkpt>
      <trkpt lat="42.3703813925" lon="-0.7009718567">
        <ele>629.32</ele>
        <time>2022-04-15T08:55:35Z</time>
      </trkpt>
      <trkpt lat="42.3703908641" lon="-0.7009165362">
        <ele>627.88</ele>
        <time>2022-04-15T08:55:40Z</time>
      </trkpt>
      <trkpt lat="42.3704001680" lon="-0.7008988503">
        <ele>627.88</ele>
        <time>2022-04-15T08:55:42Z</time>
      </trkpt>
      <trkpt lat="42.3704796284" lon="-0.7007398456">
        <ele>626.92</ele>
        <time>2022-04-15T08:55:55Z</time>
      </trkpt>
      <trkpt lat="42.3705061991" lon="-0.7006966788">
        <ele>625.96</ele>
        <time>2022-04-15T08:55:58Z</time>
      </trkpt>
      <trkpt lat="42.3706059437" lon="-0.7005932461">
        <ele>624.99</ele>
        <time>2022-04-15T08:56:08Z</time>
      </trkpt>
      <trkpt lat="42.3707812931" lon="-0.7005012129">
        <ele>623.55</ele>
        <time>2022-04-15T08:56:22Z</time>
      </trkpt>
      <trkpt lat="42.3709558882" lon="-0.7003949303">
        <ele>622.11</ele>
        <time>2022-04-15T08:56:37Z</time>
      </trkpt>
      <trkpt lat="42.3711604904" lon="-0.7002617419">
        <ele>621.15</ele>
        <time>2022-04-15T08:56:53Z</time>
      </trkpt>
      <trkpt lat="42.3713190760" lon="-0.7001390308">
        <ele>620.19</ele>
        <time>2022-04-15T08:57:08Z</time>
      </trkpt>
      <trkpt lat="42.3713873886" lon="-0.7000962831">
        <ele>620.19</ele>
        <time>2022-04-15T08:57:15Z</time>
      </trkpt>
      <trkpt lat="42.3715353291" lon="-0.6999379490">
        <ele>619.23</ele>
        <time>2022-04-15T08:57:29Z</time>
      </trkpt>
      <trkpt lat="42.3716087546" lon="-0.6999002304">
        <ele>619.23</ele>
        <time>2022-04-15T08:57:34Z</time>
      </trkpt>
      <trkpt lat="42.3716293741" lon="-0.6998878252">
        <ele>620.19</ele>
        <time>2022-04-15T08:57:35Z</time>
      </trkpt>
      <trkpt lat="42.3717665020" lon="-0.6997893378">
        <ele>619.23</ele>
        <time>2022-04-15T08:57:48Z</time>
      </trkpt>
      <trkpt lat="42.3717996944" lon="-0.6997659523">
        <ele>619.23</ele>
        <time>2022-04-15T08:57:51Z</time>
      </trkpt>
      <trkpt lat="42.3719540890" lon="-0.6996523775">
        <ele>619.23</ele>
        <time>2022-04-15T08:58:05Z</time>
      </trkpt>
      <trkpt lat="42.3720095772" lon="-0.6995254755">
        <ele>621.15</ele>
        <time>2022-04-15T08:58:12Z</time>
      </trkpt>
      <trkpt lat="42.3720819969" lon="-0.6994231325">
        <ele>621.63</ele>
        <time>2022-04-15T08:58:24Z</time>
      </trkpt>
      <trkpt lat="42.3721684143" lon="-0.6993141677">
        <ele>621.63</ele>
        <time>2022-04-15T08:58:32Z</time>
      </trkpt>
      <trkpt lat="42.3722932208" lon="-0.6992691569">
        <ele>620.67</ele>
        <time>2022-04-15T08:58:45Z</time>
      </trkpt>
      <trkpt lat="42.3722990043" lon="-0.6992719229">
        <ele>620.67</ele>
        <time>2022-04-15T08:58:46Z</time>
      </trkpt>
      <trkpt lat="42.3724374734" lon="-0.6993169338">
        <ele>620.67</ele>
        <time>2022-04-15T08:58:57Z</time>
      </trkpt>
      <trkpt lat="42.3724933807" lon="-0.6993761100">
        <ele>620.67</ele>
        <time>2022-04-15T08:59:01Z</time>
      </trkpt>
      <trkpt lat="42.3728677165" lon="-0.6984048989">
        <ele>620.67</ele>
        <time>2022-04-15T08:59:18Z</time>
      </trkpt>
      <trkpt lat="42.3731555510" lon="-0.6980655156">
        <ele>620.19</ele>
        <time>2022-04-15T08:59:31Z</time>
      </trkpt>
      <trkpt lat="42.3731936049" lon="-0.6980025675">
        <ele>622.11</ele>
        <time>2022-04-15T08:59:33Z</time>
      </trkpt>
      <trkpt lat="42.3732536193" lon="-0.6979345903">
        <ele>622.11</ele>
        <time>2022-04-15T08:59:39Z</time>
      </trkpt>
      <trkpt lat="42.3733946867" lon="-0.6978373602">
        <ele>621.15</ele>
        <time>2022-04-15T08:59:48Z</time>
      </trkpt>
      <trkpt lat="42.3734895699" lon="-0.6977513619">
        <ele>619.71</ele>
        <time>2022-04-15T09:00:02Z</time>
      </trkpt>
      <trkpt lat="42.3735183198" lon="-0.6977591570">
        <ele>619.71</ele>
        <time>2022-04-15T09:00:10Z</time>
      </trkpt>
      <trkpt lat="42.3735263664" lon="-0.6977610849">
        <ele>621.15</ele>
        <time>2022-04-15T09:00:13Z</time>
      </trkpt>
      <trkpt lat="42.3735764064" lon="-0.6977491826">
        <ele>620.67</ele>
        <time>2022-04-15T09:00:19Z</time>
      </trkpt>
      <trkpt lat="42.3736452218" lon="-0.6977810338">
        <ele>623.55</ele>
        <time>2022-04-15T09:00:32Z</time>
      </trkpt>
      <trkpt lat="42.3736598901" lon="-0.6977909245">
        <ele>620.67</ele>
        <time>2022-04-15T09:00:37Z</time>
      </trkpt>
      <trkpt lat="42.3736572918" lon="-0.6977926847">
        <ele>623.55</ele>
        <time>2022-04-15T09:00:39Z</time>
      </trkpt>
      <trkpt lat="42.3736499157" lon="-0.6977930199">
        <ele>621.63</ele>
        <time>2022-04-15T09:00:41Z</time>
      </trkpt>
      <trkpt lat="42.3736326490" lon="-0.6977995578">
        <ele>617.78</ele>
        <time>2022-04-15T09:00:50Z</time>
      </trkpt>
      <trkpt lat="42.3736592196" lon="-0.6977746636">
        <ele>622.59</ele>
        <time>2022-04-15T09:00:52Z</time>
      </trkpt>
      <trkpt lat="42.3736850359" lon="-0.6977466680">
        <ele>622.11</ele>
        <time>2022-04-15T09:00:54Z</time>
      </trkpt>
      <trkpt lat="42.3737479839" lon="-0.6977827940">
        <ele>622.59</ele>
        <time>2022-04-15T09:01:10Z</time>
      </trkpt>
      <trkpt lat="42.3737536836" lon="-0.6977988034">
        <ele>621.15</ele>
        <time>2022-04-15T09:01:14Z</time>
      </trkpt>
      <trkpt lat="42.3737573717" lon="-0.6978025753">
        <ele>622.59</ele>
        <time>2022-04-15T09:01:16Z</time>
      </trkpt>
      <trkpt lat="42.3737099301" lon="-0.6978242006">
        <ele>623.55</ele>
        <time>2022-04-15T09:01:26Z</time>
      </trkpt>
      <trkpt lat="42.3737178091" lon="-0.6978222728">
        <ele>620.67</ele>
        <time>2022-04-15T09:01:30Z</time>
      </trkpt>
      <trkpt lat="42.3737316392" lon="-0.6978350133">
        <ele>622.59</ele>
        <time>2022-04-15T09:01:33Z</time>
      </trkpt>
      <trkpt lat="42.3738037236" lon="-0.6978159864">
        <ele>623.07</ele>
        <time>2022-04-15T09:01:40Z</time>
      </trkpt>
      <trkpt lat="42.3739157896" lon="-0.6977940258">
        <ele>622.59</ele>
        <time>2022-04-15T09:01:57Z</time>
      </trkpt>
      <trkpt lat="42.3738944996" lon="-0.6979193352">
        <ele>621.63</ele>
        <time>2022-04-15T09:02:16Z</time>
      </trkpt>
      <trkpt lat="42.3738944158" lon="-0.6979231909">
        <ele>624.99</ele>
        <time>2022-04-15T09:02:17Z</time>
      </trkpt>
      <trkpt lat="42.3739100900" lon="-0.6979769189">
        <ele>623.07</ele>
        <time>2022-04-15T09:02:19Z</time>
      </trkpt>
      <trkpt lat="42.3739598785" lon="-0.6980206724">
        <ele>624.51</ele>
        <time>2022-04-15T09:02:27Z</time>
      </trkpt>
      <trkpt lat="42.3740091641" lon="-0.6980379391">
        <ele>625.47</ele>
        <time>2022-04-15T09:02:35Z</time>
      </trkpt>
      <trkpt lat="42.3740545101" lon="-0.6980701257">
        <ele>625.96</ele>
        <time>2022-04-15T09:02:42Z</time>
      </trkpt>
      <trkpt lat="42.3740925640" lon="-0.6982816011">
        <ele>626.44</ele>
        <time>2022-04-15T09:02:51Z</time>
      </trkpt>
      <trkpt lat="42.3740930669" lon="-0.6983329821">
        <ele>626.44</ele>
        <time>2022-04-15T09:02:53Z</time>
      </trkpt>
      <trkpt lat="42.3740974255" lon="-0.6984581240">
        <ele>627.88</ele>
        <time>2022-04-15T09:02:59Z</time>
      </trkpt>
      <trkpt lat="42.3740602937" lon="-0.6986287795">
        <ele>619.71</ele>
        <time>2022-04-15T09:03:02Z</time>
      </trkpt>
      <trkpt lat="42.3740505707" lon="-0.6987753790">
        <ele>631.72</ele>
        <time>2022-04-15T09:03:03Z</time>
      </trkpt>
      <trkpt lat="42.3740467150" lon="-0.6987785641">
        <ele>627.40</ele>
        <time>2022-04-15T09:03:04Z</time>
      </trkpt>
      <trkpt lat="42.3740041349" lon="-0.6988094095">
        <ele>626.92</ele>
        <time>2022-04-15T09:03:10Z</time>
      </trkpt>
      <trkpt lat="42.3739918973" lon="-0.6988763809">
        <ele>628.36</ele>
        <time>2022-04-15T09:03:34Z</time>
      </trkpt>
      <trkpt lat="42.3739877064" lon="-0.6988762971">
        <ele>626.92</ele>
        <time>2022-04-15T09:03:39Z</time>
      </trkpt>
      <trkpt lat="42.3739861138" lon="-0.6988747045">
        <ele>628.36</ele>
        <time>2022-04-15T09:03:41Z</time>
      </trkpt>
      <trkpt lat="42.3739382531" lon="-0.6989435200">
        <ele>627.88</ele>
        <time>2022-04-15T09:04:19Z</time>
      </trkpt>
      <trkpt lat="42.3739670869" lon="-0.6988836732">
        <ele>626.92</ele>
        <time>2022-04-15T09:05:00Z</time>
      </trkpt>
      <trkpt lat="42.3739773966" lon="-0.6988732796">
        <ele>627.88</ele>
        <time>2022-04-15T09:05:17Z</time>
      </trkpt>
      <trkpt lat="42.3739577830" lon="-0.6989063043">
        <ele>627.88</ele>
        <time>2022-04-15T09:05:53Z</time>
      </trkpt>
      <trkpt lat="42.3739701882" lon="-0.6989480462">
        <ele>627.88</ele>
        <time>2022-04-15T09:06:23Z</time>
      </trkpt>
      <trkpt lat="42.3739815038" lon="-0.6989376526">
        <ele>627.88</ele>
        <time>2022-04-15T09:06:57Z</time>
      </trkpt>
      <trkpt lat="42.3739835154" lon="-0.6989299413">
        <ele>628.84</ele>
        <time>2022-04-15T09:07:27Z</time>
      </trkpt>
      <trkpt lat="42.3739769775" lon="-0.6989383232">
        <ele>625.47</ele>
        <time>2022-04-15T09:07:30Z</time>
      </trkpt>
      <trkpt lat="42.3739442043" lon="-0.6989809033">
        <ele>628.36</ele>
        <time>2022-04-15T09:07:45Z</time>
      </trkpt>
      <trkpt lat="42.3739464674" lon="-0.6989776343">
        <ele>627.40</ele>
        <time>2022-04-15T09:07:49Z</time>
      </trkpt>
      <trkpt lat="42.3739673384" lon="-0.6989643909">
        <ele>626.92</ele>
        <time>2022-04-15T09:08:27Z</time>
      </trkpt>
      <trkpt lat="42.3739660811" lon="-0.6989613734">
        <ele>627.88</ele>
        <time>2022-04-15T09:08:55Z</time>
      </trkpt>
      <trkpt lat="42.3739842698" lon="-0.6989583559">
        <ele>627.40</ele>
        <time>2022-04-15T09:09:06Z</time>
      </trkpt>
      <trkpt lat="42.3739820067" lon="-0.6989916321">
        <ele>626.44</ele>
        <time>2022-04-15T09:09:13Z</time>
      </trkpt>
      <trkpt lat="42.3739923164" lon="-0.6990640517">
        <ele>627.88</ele>
        <time>2022-04-15T09:09:20Z</time>
      </trkpt>
      <trkpt lat="42.3740184680" lon="-0.6991679035">
        <ele>627.88</ele>
        <time>2022-04-15T09:09:29Z</time>
      </trkpt>
      <trkpt lat="42.3740406800" lon="-0.6992531475">
        <ele>627.88</ele>
        <time>2022-04-15T09:09:35Z</time>
      </trkpt>
      <trkpt lat="42.3740806617" lon="-0.6993272435">
        <ele>628.36</ele>
        <time>2022-04-15T09:09:42Z</time>
      </trkpt>
      <trkpt lat="42.3741805740" lon="-0.6996198557">
        <ele>628.84</ele>
        <time>2022-04-15T09:10:02Z</time>
      </trkpt>
      <trkpt lat="42.3743106611" lon="-0.6998068560">
        <ele>628.36</ele>
        <time>2022-04-15T09:10:20Z</time>
      </trkpt>
      <trkpt lat="42.3744150996" lon="-0.6999765057">
        <ele>628.36</ele>
        <time>2022-04-15T09:10:32Z</time>
      </trkpt>
      <trkpt lat="42.3744528182" lon="-0.7000319101">
        <ele>629.32</ele>
        <time>2022-04-15T09:10:37Z</time>
      </trkpt>
      <trkpt lat="42.3744785506" lon="-0.7000863925">
        <ele>629.32</ele>
        <time>2022-04-15T09:10:42Z</time>
      </trkpt>
      <trkpt lat="42.3744907044" lon="-0.7001153100">
        <ele>627.88</ele>
        <time>2022-04-15T09:10:44Z</time>
      </trkpt>
      <trkpt lat="42.3745381460" lon="-0.7002761588">
        <ele>627.40</ele>
        <time>2022-04-15T09:10:55Z</time>
      </trkpt>
      <trkpt lat="42.3746409081" lon="-0.7004598901">
        <ele>623.55</ele>
        <time>2022-04-15T09:11:09Z</time>
      </trkpt>
      <trkpt lat="42.3746486194" lon="-0.7004738040">
        <ele>623.55</ele>
        <time>2022-04-15T09:11:10Z</time>
      </trkpt>
      <trkpt lat="42.3747157585" lon="-0.7006651629">
        <ele>623.55</ele>
        <time>2022-04-15T09:11:24Z</time>
      </trkpt>
      <trkpt lat="42.3747466039" lon="-0.7007418573">
        <ele>621.63</ele>
        <time>2022-04-15T09:11:29Z</time>
      </trkpt>
      <trkpt lat="42.3748144135" lon="-0.7008977607">
        <ele>619.71</ele>
        <time>2022-04-15T09:11:39Z</time>
      </trkpt>
      <trkpt lat="42.3748244718" lon="-0.7009638939">
        <ele>619.71</ele>
        <time>2022-04-15T09:11:43Z</time>
      </trkpt>
      <trkpt lat="42.3748856597" lon="-0.7011554204">
        <ele>617.78</ele>
        <time>2022-04-15T09:11:57Z</time>
      </trkpt>
      <trkpt lat="42.3749425728" lon="-0.7013805583">
        <ele>615.38</ele>
        <time>2022-04-15T09:12:12Z</time>
      </trkpt>
      <trkpt lat="42.3749780282" lon="-0.7015196979">
        <ele>613.94</ele>
        <time>2022-04-15T09:12:21Z</time>
      </trkpt>
      <trkpt lat="42.3749968037" lon="-0.7017316762">
        <ele>612.50</ele>
        <time>2022-04-15T09:12:34Z</time>
      </trkpt>
      <trkpt lat="42.3750589974" lon="-0.7019617595">
        <ele>609.61</ele>
        <time>2022-04-15T09:12:49Z</time>
      </trkpt>
      <trkpt lat="42.3750699777" lon="-0.7019947842">
        <ele>609.61</ele>
        <time>2022-04-15T09:12:51Z</time>
      </trkpt>
      <trkpt lat="42.3751665372" lon="-0.7022019848">
        <ele>607.21</ele>
        <time>2022-04-15T09:13:06Z</time>
      </trkpt>
      <trkpt lat="42.3751724884" lon="-0.7022355124">
        <ele>607.21</ele>
        <time>2022-04-15T09:13:08Z</time>
      </trkpt>
      <trkpt lat="42.3752014060" lon="-0.7024017256">
        <ele>604.81</ele>
        <time>2022-04-15T09:13:19Z</time>
      </trkpt>
      <trkpt lat="42.3752558045" lon="-0.7026452199">
        <ele>603.36</ele>
        <time>2022-04-15T09:13:36Z</time>
      </trkpt>
      <trkpt lat="42.3752659466" lon="-0.7026936673">
        <ele>602.40</ele>
        <time>2022-04-15T09:13:39Z</time>
      </trkpt>
      <trkpt lat="42.3753064312" lon="-0.7027472276">
        <ele>601.92</ele>
        <time>2022-04-15T09:13:43Z</time>
      </trkpt>
      <trkpt lat="42.3753138073" lon="-0.7027923223">
        <ele>601.92</ele>
        <time>2022-04-15T09:13:46Z</time>
      </trkpt>
      <trkpt lat="42.3753589857" lon="-0.7029354014">
        <ele>600.48</ele>
        <time>2022-04-15T09:13:56Z</time>
      </trkpt>
      <trkpt lat="42.3753692955" lon="-0.7029941585">
        <ele>600.00</ele>
        <time>2022-04-15T09:14:01Z</time>
      </trkpt>
      <trkpt lat="42.3753702175" lon="-0.7030276023">
        <ele>600.00</ele>
        <time>2022-04-15T09:14:03Z</time>
      </trkpt>
      <trkpt lat="42.3754231911" lon="-0.7031261735">
        <ele>599.04</ele>
        <time>2022-04-15T09:14:08Z</time>
      </trkpt>
      <trkpt lat="42.3754952755" lon="-0.7032684144">
        <ele>598.08</ele>
        <time>2022-04-15T09:14:21Z</time>
      </trkpt>
      <trkpt lat="42.3755003884" lon="-0.7033025287">
        <ele>597.12</ele>
        <time>2022-04-15T09:14:46Z</time>
      </trkpt>
      <trkpt lat="42.3755241092" lon="-0.7033972442">
        <ele>596.64</ele>
        <time>2022-04-15T09:14:52Z</time>
      </trkpt>
      <trkpt lat="42.3755385261" lon="-0.7035533991">
        <ele>595.19</ele>
        <time>2022-04-15T09:15:03Z</time>
      </trkpt>
      <trkpt lat="42.3756256141" lon="-0.7036936283">
        <ele>594.23</ele>
        <time>2022-04-15T09:15:12Z</time>
      </trkpt>
      <trkpt lat="42.3756667692" lon="-0.7038698159">
        <ele>593.75</ele>
        <time>2022-04-15T09:15:24Z</time>
      </trkpt>
      <trkpt lat="42.3757276218" lon="-0.7040470093">
        <ele>592.79</ele>
        <time>2022-04-15T09:15:34Z</time>
      </trkpt>
      <trkpt lat="42.3757132888" lon="-0.7041798625">
        <ele>591.35</ele>
        <time>2022-04-15T09:15:45Z</time>
      </trkpt>
      <trkpt lat="42.3757242691" lon="-0.7042163238">
        <ele>591.35</ele>
        <time>2022-04-15T09:15:47Z</time>
      </trkpt>
      <trkpt lat="42.3757333215" lon="-0.7042558864">
        <ele>590.87</ele>
        <time>2022-04-15T09:15:49Z</time>
      </trkpt>
      <trkpt lat="42.3757523485" lon="-0.7043194212">
        <ele>590.39</ele>
        <time>2022-04-15T09:15:53Z</time>
      </trkpt>
      <trkpt lat="42.3757893965" lon="-0.7044431381">
        <ele>589.43</ele>
        <time>2022-04-15T09:16:02Z</time>
      </trkpt>
      <trkpt lat="42.3758803401" lon="-0.7045740634">
        <ele>588.46</ele>
        <time>2022-04-15T09:16:09Z</time>
      </trkpt>
      <trkpt lat="42.3758886382" lon="-0.7046511769">
        <ele>588.46</ele>
        <time>2022-04-15T09:16:13Z</time>
      </trkpt>
      <trkpt lat="42.3759416956" lon="-0.7048361655">
        <ele>586.54</ele>
        <time>2022-04-15T09:16:25Z</time>
      </trkpt>
      <trkpt lat="42.3759439588" lon="-0.7048561145">
        <ele>586.54</ele>
        <time>2022-04-15T09:16:26Z</time>
      </trkpt>
      <trkpt lat="42.3759957589" lon="-0.7050580345">
        <ele>585.10</ele>
        <time>2022-04-15T09:16:40Z</time>
      </trkpt>
      <trkpt lat="42.3760076612" lon="-0.7051951624">
        <ele>584.62</ele>
        <time>2022-04-15T09:16:47Z</time>
      </trkpt>
      <trkpt lat="42.3760307953" lon="-0.7052913029">
        <ele>583.66</ele>
        <time>2022-04-15T09:16:53Z</time>
      </trkpt>
      <trkpt lat="42.3760530073" lon="-0.7054291852">
        <ele>581.73</ele>
        <time>2022-04-15T09:17:04Z</time>
      </trkpt>
      <trkpt lat="42.3761365749" lon="-0.7056532335">
        <ele>581.25</ele>
        <time>2022-04-15T09:17:17Z</time>
      </trkpt>
      <trkpt lat="42.3761776462" lon="-0.7057696581">
        <ele>580.29</ele>
        <time>2022-04-15T09:17:26Z</time>
      </trkpt>
      <trkpt lat="42.3762268480" lon="-0.7060030941">
        <ele>579.33</ele>
        <time>2022-04-15T09:17:41Z</time>
      </trkpt>
      <trkpt lat="42.3762355652" lon="-0.7060460933">
        <ele>579.33</ele>
        <time>2022-04-15T09:17:44Z</time>
      </trkpt>
      <trkpt lat="42.3763079848" lon="-0.7062155753">
        <ele>577.89</ele>
        <time>2022-04-15T09:17:54Z</time>
      </trkpt>
      <trkpt lat="42.3763234075" lon="-0.7062813733">
        <ele>577.41</ele>
        <time>2022-04-15T09:17:58Z</time>
      </trkpt>
      <trkpt lat="42.3763843440" lon="-0.7065026555">
        <ele>575.97</ele>
        <time>2022-04-15T09:18:13Z</time>
      </trkpt>
      <trkpt lat="42.3764272593" lon="-0.7066961937">
        <ele>575.01</ele>
        <time>2022-04-15T09:18:26Z</time>
      </trkpt>
      <trkpt lat="42.3764937278" lon="-0.7069399394">
        <ele>573.56</ele>
        <time>2022-04-15T09:18:40Z</time>
      </trkpt>
      <trkpt lat="42.3765001819" lon="-0.7069669291">
        <ele>573.08</ele>
        <time>2022-04-15T09:18:42Z</time>
      </trkpt>
      <trkpt lat="42.3765197117" lon="-0.7070527598">
        <ele>573.08</ele>
        <time>2022-04-15T09:18:49Z</time>
      </trkpt>
      <trkpt lat="42.3765684105" lon="-0.7071209885">
        <ele>572.60</ele>
        <time>2022-04-15T09:18:54Z</time>
      </trkpt>
      <trkpt lat="42.3766240664" lon="-0.7073316257">
        <ele>572.12</ele>
        <time>2022-04-15T09:19:07Z</time>
      </trkpt>
      <trkpt lat="42.3766556662" lon="-0.7075337134">
        <ele>571.64</ele>
        <time>2022-04-15T09:19:20Z</time>
      </trkpt>
      <trkpt lat="42.3767463583" lon="-0.7077694964">
        <ele>569.24</ele>
        <time>2022-04-15T09:19:35Z</time>
      </trkpt>
      <trkpt lat="42.3767533153" lon="-0.7077864278">
        <ele>569.24</ele>
        <time>2022-04-15T09:19:36Z</time>
      </trkpt>
      <trkpt lat="42.3768057022" lon="-0.7079354580">
        <ele>568.28</ele>
        <time>2022-04-15T09:19:48Z</time>
      </trkpt>
      <trkpt lat="42.3768087197" lon="-0.7079678122">
        <ele>567.80</ele>
        <time>2022-04-15T09:19:50Z</time>
      </trkpt>
      <trkpt lat="42.3768581729" lon="-0.7081112266">
        <ele>567.32</ele>
        <time>2022-04-15T09:19:58Z</time>
      </trkpt>
      <trkpt lat="42.3768975679" lon="-0.7082767691">
        <ele>566.35</ele>
        <time>2022-04-15T09:20:09Z</time>
      </trkpt>
      <trkpt lat="42.3769257311" lon="-0.7083713170">
        <ele>565.87</ele>
        <time>2022-04-15T09:20:14Z</time>
      </trkpt>
      <trkpt lat="42.3769829795" lon="-0.7085333392">
        <ele>565.39</ele>
        <time>2022-04-15T09:20:26Z</time>
      </trkpt>
      <trkpt lat="42.3770569079" lon="-0.7086961158">
        <ele>565.39</ele>
        <time>2022-04-15T09:20:36Z</time>
      </trkpt>
      <trkpt lat="42.3771131504" lon="-0.7088438049">
        <ele>563.95</ele>
        <time>2022-04-15T09:20:47Z</time>
      </trkpt>
      <trkpt lat="42.3771974724" lon="-0.7090520952">
        <ele>562.03</ele>
        <time>2022-04-15T09:21:01Z</time>
      </trkpt>
      <trkpt lat="42.3772421479" lon="-0.7091276161">
        <ele>560.59</ele>
        <time>2022-04-15T09:21:08Z</time>
      </trkpt>
      <trkpt lat="42.3773320857" lon="-0.7092472259">
        <ele>557.70</ele>
        <time>2022-04-15T09:21:19Z</time>
      </trkpt>
      <trkpt lat="42.3774730694" lon="-0.7092882972">
        <ele>555.78</ele>
        <time>2022-04-15T09:21:33Z</time>
      </trkpt>
      <trkpt lat="42.3774963710" lon="-0.7092728745">
        <ele>556.26</ele>
        <time>2022-04-15T09:21:35Z</time>
      </trkpt>
      <trkpt lat="42.3775070999" lon="-0.7092113513">
        <ele>556.26</ele>
        <time>2022-04-15T09:21:39Z</time>
      </trkpt>
      <trkpt lat="42.3774888273" lon="-0.7090552803">
        <ele>556.74</ele>
        <time>2022-04-15T09:21:49Z</time>
      </trkpt>
      <trkpt lat="42.3775005620" lon="-0.7089569606">
        <ele>556.74</ele>
        <time>2022-04-15T09:21:55Z</time>
      </trkpt>
      <trkpt lat="42.3774836306" lon="-0.7088536955">
        <ele>556.26</ele>
        <time>2022-04-15T09:22:03Z</time>
      </trkpt>
      <trkpt lat="42.3775012325" lon="-0.7087832876">
        <ele>556.26</ele>
        <time>2022-04-15T09:22:07Z</time>
      </trkpt>
      <trkpt lat="42.3774877377" lon="-0.7087224349">
        <ele>556.74</ele>
        <time>2022-04-15T09:22:10Z</time>
      </trkpt>
      <trkpt lat="42.3773631826" lon="-0.7084895018">
        <ele>556.26</ele>
        <time>2022-04-15T09:22:25Z</time>
      </trkpt>
      <trkpt lat="42.3772511166" lon="-0.7083010767">
        <ele>556.26</ele>
        <time>2022-04-15T09:22:39Z</time>
      </trkpt>
      <trkpt lat="42.3772109672" lon="-0.7081169263">
        <ele>556.26</ele>
        <time>2022-04-15T09:22:50Z</time>
      </trkpt>
      <trkpt lat="42.3772107996" lon="-0.7080839016">
        <ele>556.26</ele>
        <time>2022-04-15T09:22:52Z</time>
      </trkpt>
      <trkpt lat="42.3771600891" lon="-0.7078299299">
        <ele>556.26</ele>
        <time>2022-04-15T09:23:08Z</time>
      </trkpt>
      <trkpt lat="42.3771285731" lon="-0.7077158522">
        <ele>556.26</ele>
        <time>2022-04-15T09:23:15Z</time>
      </trkpt>
      <trkpt lat="42.3771190178" lon="-0.7074809913">
        <ele>556.26</ele>
        <time>2022-04-15T09:23:28Z</time>
      </trkpt>
      <trkpt lat="42.3770371266" lon="-0.7073153649">
        <ele>555.78</ele>
        <time>2022-04-15T09:23:41Z</time>
      </trkpt>
      <trkpt lat="42.3769724183" lon="-0.7071184739">
        <ele>555.78</ele>
        <time>2022-04-15T09:23:54Z</time>
      </trkpt>
      <trkpt lat="42.3769691493" lon="-0.7070362475">
        <ele>555.78</ele>
        <time>2022-04-15T09:23:58Z</time>
      </trkpt>
      <trkpt lat="42.3769660480" lon="-0.7069167215">
        <ele>555.78</ele>
        <time>2022-04-15T09:24:03Z</time>
      </trkpt>
      <trkpt lat="42.3769369628" lon="-0.7066601515">
        <ele>555.78</ele>
        <time>2022-04-15T09:24:17Z</time>
      </trkpt>
      <trkpt lat="42.3769230489" lon="-0.7064074371">
        <ele>555.78</ele>
        <time>2022-04-15T09:24:31Z</time>
      </trkpt>
      <trkpt lat="42.3769294191" lon="-0.7061819639">
        <ele>555.78</ele>
        <time>2022-04-15T09:24:46Z</time>
      </trkpt>
      <trkpt lat="42.3769112304" lon="-0.7059753500">
        <ele>555.78</ele>
        <time>2022-04-15T09:25:02Z</time>
      </trkpt>
      <trkpt lat="42.3769062012" lon="-0.7059330214">
        <ele>555.78</ele>
        <time>2022-04-15T09:25:04Z</time>
      </trkpt>
      <trkpt lat="42.3768914491" lon="-0.7058738451">
        <ele>555.78</ele>
        <time>2022-04-15T09:25:07Z</time>
      </trkpt>
      <trkpt lat="42.3768880963" lon="-0.7058310974">
        <ele>554.34</ele>
        <time>2022-04-15T09:25:09Z</time>
      </trkpt>
      <trkpt lat="42.3768906947" lon="-0.7056318596">
        <ele>554.34</ele>
        <time>2022-04-15T09:25:24Z</time>
      </trkpt>
      <trkpt lat="42.3768888507" lon="-0.7055918779">
        <ele>554.34</ele>
        <time>2022-04-15T09:25:26Z</time>
      </trkpt>
      <trkpt lat="42.3768986575" lon="-0.7052792329">
        <ele>555.30</ele>
        <time>2022-04-15T09:25:42Z</time>
      </trkpt>
      <trkpt lat="42.3768545687" lon="-0.7050949149">
        <ele>555.30</ele>
        <time>2022-04-15T09:25:55Z</time>
      </trkpt>
      <trkpt lat="42.3767965659" lon="-0.7049122732">
        <ele>555.30</ele>
        <time>2022-04-15T09:26:07Z</time>
      </trkpt>
      <trkpt lat="42.3768117372" lon="-0.7046661805">
        <ele>555.30</ele>
        <time>2022-04-15T09:26:20Z</time>
      </trkpt>
      <trkpt lat="42.3767824005" lon="-0.7044722233">
        <ele>555.30</ele>
        <time>2022-04-15T09:26:34Z</time>
      </trkpt>
      <trkpt lat="42.3768057022" lon="-0.7042386197">
        <ele>555.30</ele>
        <time>2022-04-15T09:26:47Z</time>
      </trkpt>
      <trkpt lat="42.3768229689" lon="-0.7040990610">
        <ele>555.30</ele>
        <time>2022-04-15T09:26:55Z</time>
      </trkpt>
      <trkpt lat="42.3768031877" lon="-0.7038191892">
        <ele>555.30</ele>
        <time>2022-04-15T09:27:10Z</time>
      </trkpt>
      <trkpt lat="42.3767932970" lon="-0.7037153374">
        <ele>553.86</ele>
        <time>2022-04-15T09:27:16Z</time>
      </trkpt>
      <trkpt lat="42.3767946381" lon="-0.7034674007">
        <ele>553.86</ele>
        <time>2022-04-15T09:27:31Z</time>
      </trkpt>
      <trkpt lat="42.3767727613" lon="-0.7033139281">
        <ele>552.90</ele>
        <time>2022-04-15T09:27:41Z</time>
      </trkpt>
      <trkpt lat="42.3767711688" lon="-0.7032727730">
        <ele>554.82</ele>
        <time>2022-04-15T09:27:43Z</time>
      </trkpt>
      <trkpt lat="42.3767322768" lon="-0.7030655723">
        <ele>553.86</ele>
        <time>2022-04-15T09:27:58Z</time>
      </trkpt>
      <trkpt lat="42.3767252360" lon="-0.7029639836">
        <ele>553.86</ele>
        <time>2022-04-15T09:28:06Z</time>
      </trkpt>
      <trkpt lat="42.3767276667" lon="-0.7028962579">
        <ele>553.86</ele>
        <time>2022-04-15T09:28:10Z</time>
      </trkpt>
      <trkpt lat="42.3767124116" lon="-0.7026451360">
        <ele>553.86</ele>
        <time>2022-04-15T09:28:26Z</time>
      </trkpt>
      <trkpt lat="42.3766901996" lon="-0.7023562118">
        <ele>553.38</ele>
        <time>2022-04-15T09:28:41Z</time>
      </trkpt>
      <trkpt lat="42.3766979948" lon="-0.7022972871">
        <ele>553.38</ele>
        <time>2022-04-15T09:28:45Z</time>
      </trkpt>
      <trkpt lat="42.3766687419" lon="-0.7020278927">
        <ele>553.38</ele>
        <time>2022-04-15T09:28:59Z</time>
      </trkpt>
      <trkpt lat="42.3766442668" lon="-0.7017591689">
        <ele>552.90</ele>
        <time>2022-04-15T09:29:14Z</time>
      </trkpt>
      <trkpt lat="42.3766395729" lon="-0.7017464284">
        <ele>552.90</ele>
        <time>2022-04-15T09:29:15Z</time>
      </trkpt>
      <trkpt lat="42.3766394053" lon="-0.7017024234">
        <ele>552.90</ele>
        <time>2022-04-15T09:29:18Z</time>
      </trkpt>
      <trkpt lat="42.3766317777" lon="-0.7016554847">
        <ele>552.90</ele>
        <time>2022-04-15T09:29:21Z</time>
      </trkpt>
      <trkpt lat="42.3766155168" lon="-0.7015575841">
        <ele>552.90</ele>
        <time>2022-04-15T09:29:26Z</time>
      </trkpt>
      <trkpt lat="42.3765938077" lon="-0.7012053765">
        <ele>552.90</ele>
        <time>2022-04-15T09:29:46Z</time>
      </trkpt>
      <trkpt lat="42.3766776267" lon="-0.7010256685">
        <ele>550.49</ele>
        <time>2022-04-15T09:29:58Z</time>
      </trkpt>
      <trkpt lat="42.3768551555" lon="-0.7009468786">
        <ele>549.05</ele>
        <time>2022-04-15T09:30:12Z</time>
      </trkpt>
      <trkpt lat="42.3769325204" lon="-0.7009623852">
        <ele>549.05</ele>
        <time>2022-04-15T09:30:19Z</time>
      </trkpt>
      <trkpt lat="42.3771812953" lon="-0.7009700127">
        <ele>548.57</ele>
        <time>2022-04-15T09:30:37Z</time>
      </trkpt>
      <trkpt lat="42.3772087041" lon="-0.7009685040">
        <ele>548.57</ele>
        <time>2022-04-15T09:30:39Z</time>
      </trkpt>
      <trkpt lat="42.3772701435" lon="-0.7009863574">
        <ele>548.57</ele>
        <time>2022-04-15T09:30:44Z</time>
      </trkpt>
      <trkpt lat="42.3774553835" lon="-0.7010769658">
        <ele>548.09</ele>
        <time>2022-04-15T09:30:59Z</time>
      </trkpt>
      <trkpt lat="42.3774808645" lon="-0.7010822464">
        <ele>548.09</ele>
        <time>2022-04-15T09:31:02Z</time>
      </trkpt>
      <trkpt lat="42.3775713891" lon="-0.7011015248">
        <ele>547.13</ele>
        <time>2022-04-15T09:31:10Z</time>
      </trkpt>
      <trkpt lat="42.3775822856" lon="-0.7011053804">
        <ele>547.61</ele>
        <time>2022-04-15T09:31:11Z</time>
      </trkpt>
      <trkpt lat="42.3776117060" lon="-0.7011167798">
        <ele>547.61</ele>
        <time>2022-04-15T09:31:14Z</time>
      </trkpt>
      <trkpt lat="42.3776538670" lon="-0.7011258323">
        <ele>547.13</ele>
        <time>2022-04-15T09:31:17Z</time>
      </trkpt>
      <trkpt lat="42.3777180724" lon="-0.7011454459">
        <ele>547.13</ele>
        <time>2022-04-15T09:31:22Z</time>
      </trkpt>
      <trkpt lat="42.3777488340" lon="-0.7011695020">
        <ele>547.13</ele>
        <time>2022-04-15T09:31:24Z</time>
      </trkpt>
      <trkpt lat="42.3778287135" lon="-0.7011876907">
        <ele>547.13</ele>
        <time>2022-04-15T09:31:30Z</time>
      </trkpt>
      <trkpt lat="42.3779759835" lon="-0.7012431789">
        <ele>547.13</ele>
        <time>2022-04-15T09:31:42Z</time>
      </trkpt>
      <trkpt lat="42.3780832719" lon="-0.7012882736">
        <ele>547.13</ele>
        <time>2022-04-15T09:31:51Z</time>
      </trkpt>
      <trkpt lat="42.3781293724" lon="-0.7013091445">
        <ele>547.13</ele>
        <time>2022-04-15T09:31:55Z</time>
      </trkpt>
      <trkpt lat="42.3782229982" lon="-0.7013334520">
        <ele>547.13</ele>
        <time>2022-04-15T09:32:03Z</time>
      </trkpt>
      <trkpt lat="42.3782564420" lon="-0.7013535686">
        <ele>547.13</ele>
        <time>2022-04-15T09:32:06Z</time>
      </trkpt>
      <trkpt lat="42.3782698531" lon="-0.7013682369">
        <ele>547.13</ele>
        <time>2022-04-15T09:32:08Z</time>
      </trkpt>
      <trkpt lat="42.3783583660" lon="-0.7014258206">
        <ele>547.13</ele>
        <time>2022-04-15T09:32:15Z</time>
      </trkpt>
      <trkpt lat="42.3784570210" lon="-0.7014695741">
        <ele>547.13</ele>
        <time>2022-04-15T09:32:25Z</time>
      </trkpt>
      <trkpt lat="42.3784737848" lon="-0.7014739327">
        <ele>547.13</ele>
        <time>2022-04-15T09:32:26Z</time>
      </trkpt>
      <trkpt lat="42.3786009382" lon="-0.7015606016">
        <ele>547.13</ele>
        <time>2022-04-15T09:32:36Z</time>
      </trkpt>
      <trkpt lat="42.3786996771" lon="-0.7016009185">
        <ele>547.13</ele>
        <time>2022-04-15T09:32:43Z</time>
      </trkpt>
      <trkpt lat="42.3787481245" lon="-0.7016393915">
        <ele>547.13</ele>
        <time>2022-04-15T09:32:47Z</time>
      </trkpt>
      <trkpt lat="42.3788685724" lon="-0.7018097956">
        <ele>546.65</ele>
        <time>2022-04-15T09:33:00Z</time>
      </trkpt>
      <trkpt lat="42.3788845818" lon="-0.7018658705">
        <ele>546.65</ele>
        <time>2022-04-15T09:33:03Z</time>
      </trkpt>
      <trkpt lat="42.3789110687" lon="-0.7019275613">
        <ele>546.65</ele>
        <time>2022-04-15T09:33:07Z</time>
      </trkpt>
      <trkpt lat="42.3789311014" lon="-0.7019525394">
        <ele>546.65</ele>
        <time>2022-04-15T09:33:09Z</time>
      </trkpt>
      <trkpt lat="42.3790078796" lon="-0.7020612527">
        <ele>546.65</ele>
        <time>2022-04-15T09:33:17Z</time>
      </trkpt>
      <trkpt lat="42.3790325224" lon="-0.7021010667">
        <ele>546.65</ele>
        <time>2022-04-15T09:33:20Z</time>
      </trkpt>
      <trkpt lat="42.3790834844" lon="-0.7021366898">
        <ele>546.65</ele>
        <time>2022-04-15T09:33:24Z</time>
      </trkpt>
      <trkpt lat="42.3791083787" lon="-0.7021775935">
        <ele>546.65</ele>
        <time>2022-04-15T09:33:27Z</time>
      </trkpt>
      <trkpt lat="42.3791351169" lon="-0.7022100314">
        <ele>546.65</ele>
        <time>2022-04-15T09:33:29Z</time>
      </trkpt>
      <trkpt lat="42.3791938741" lon="-0.7022849657">
        <ele>546.65</ele>
        <time>2022-04-15T09:33:35Z</time>
      </trkpt>
      <trkpt lat="42.3792139068" lon="-0.7023360115">
        <ele>546.65</ele>
        <time>2022-04-15T09:33:39Z</time>
      </trkpt>
      <trkpt lat="42.3792440817" lon="-0.7023948524">
        <ele>546.65</ele>
        <time>2022-04-15T09:33:43Z</time>
      </trkpt>
      <trkpt lat="42.3792660423" lon="-0.7024242729">
        <ele>546.65</ele>
        <time>2022-04-15T09:33:45Z</time>
      </trkpt>
      <trkpt lat="42.3792935349" lon="-0.7024918310">
        <ele>546.65</ele>
        <time>2022-04-15T09:33:50Z</time>
      </trkpt>
      <trkpt lat="42.3793088738" lon="-0.7025186531">
        <ele>546.65</ele>
        <time>2022-04-15T09:33:52Z</time>
      </trkpt>
      <trkpt lat="42.3793357797" lon="-0.7025610656">
        <ele>546.65</ele>
        <time>2022-04-15T09:33:55Z</time>
      </trkpt>
      <trkpt lat="42.3793753423" lon="-0.7027074136">
        <ele>546.65</ele>
        <time>2022-04-15T09:34:01Z</time>
      </trkpt>
      <trkpt lat="42.3793804552" lon="-0.7027274463">
        <ele>546.65</ele>
        <time>2022-04-15T09:34:03Z</time>
      </trkpt>
      <trkpt lat="42.3795148171" lon="-0.7028452959">
        <ele>546.17</ele>
        <time>2022-04-15T09:34:19Z</time>
      </trkpt>
      <trkpt lat="42.3795369454" lon="-0.7028732914">
        <ele>546.17</ele>
        <time>2022-04-15T09:34:21Z</time>
      </trkpt>
      <trkpt lat="42.3795669526" lon="-0.7029019576">
        <ele>546.17</ele>
        <time>2022-04-15T09:34:24Z</time>
      </trkpt>
      <trkpt lat="42.3795907572" lon="-0.7029331382">
        <ele>546.17</ele>
        <time>2022-04-15T09:34:27Z</time>
      </trkpt>
      <trkpt lat="42.3796643503" lon="-0.7030302845">
        <ele>546.17</ele>
        <time>2022-04-15T09:34:37Z</time>
      </trkpt>
      <trkpt lat="42.3796913400" lon="-0.7030845154">
        <ele>546.17</ele>
        <time>2022-04-15T09:34:43Z</time>
      </trkpt>
      <trkpt lat="42.3797718063" lon="-0.7031496428">
        <ele>546.17</ele>
        <time>2022-04-15T09:34:49Z</time>
      </trkpt>
      <trkpt lat="42.3798808549" lon="-0.7032880280">
        <ele>546.17</ele>
        <time>2022-04-15T09:34:58Z</time>
      </trkpt>
      <trkpt lat="42.3799623270" lon="-0.7033534069">
        <ele>547.61</ele>
        <time>2022-04-15T09:35:05Z</time>
      </trkpt>
      <trkpt lat="42.3800409492" lon="-0.7035704982">
        <ele>547.61</ele>
        <time>2022-04-15T09:35:19Z</time>
      </trkpt>
      <trkpt lat="42.3800675198" lon="-0.7036342844">
        <ele>548.09</ele>
        <time>2022-04-15T09:35:23Z</time>
      </trkpt>
      <trkpt lat="42.3801572062" lon="-0.7036951371">
        <ele>550.01</ele>
        <time>2022-04-15T09:35:39Z</time>
      </trkpt>
      <trkpt lat="42.3801772390" lon="-0.7036610227">
        <ele>550.97</ele>
        <time>2022-04-15T09:35:43Z</time>
      </trkpt>
      <trkpt lat="42.3801959306" lon="-0.7034078054">
        <ele>550.97</ele>
        <time>2022-04-15T09:35:59Z</time>
      </trkpt>
      <trkpt lat="42.3802052345" lon="-0.7031670772">
        <ele>550.97</ele>
        <time>2022-04-15T09:36:13Z</time>
      </trkpt>
      <trkpt lat="42.3802182265" lon="-0.7029611338">
        <ele>550.97</ele>
        <time>2022-04-15T09:36:26Z</time>
      </trkpt>
      <trkpt lat="42.3802040610" lon="-0.7027520891">
        <ele>550.49</ele>
        <time>2022-04-15T09:36:41Z</time>
      </trkpt>
      <trkpt lat="42.3801826034" lon="-0.7025124505">
        <ele>550.01</ele>
        <time>2022-04-15T09:36:56Z</time>
      </trkpt>
      <trkpt lat="42.3801685218" lon="-0.7023365982">
        <ele>553.38</ele>
        <time>2022-04-15T09:37:09Z</time>
      </trkpt>
      <trkpt lat="42.3801615648" lon="-0.7023250312">
        <ele>553.38</ele>
        <time>2022-04-15T09:37:10Z</time>
      </trkpt>
      <trkpt lat="42.3801611457" lon="-0.7023044117">
        <ele>550.01</ele>
        <time>2022-04-15T09:37:12Z</time>
      </trkpt>
      <trkpt lat="42.3801636603" lon="-0.7022970356">
        <ele>550.01</ele>
        <time>2022-04-15T09:37:13Z</time>
      </trkpt>
      <trkpt lat="42.3801660072" lon="-0.7023034059">
        <ele>550.01</ele>
        <time>2022-04-15T09:37:24Z</time>
      </trkpt>
      <trkpt lat="42.3801672645" lon="-0.7022925932">
        <ele>548.57</ele>
        <time>2022-04-15T09:37:28Z</time>
      </trkpt>
      <trkpt lat="42.3801686894" lon="-0.7022047509">
        <ele>552.90</ele>
        <time>2022-04-15T09:37:34Z</time>
      </trkpt>
      <trkpt lat="42.3801684380" lon="-0.7021941058">
        <ele>551.45</ele>
        <time>2022-04-15T09:37:35Z</time>
      </trkpt>
      <trkpt lat="42.3801708687" lon="-0.7021972071">
        <ele>550.49</ele>
        <time>2022-04-15T09:37:37Z</time>
      </trkpt>
      <trkpt lat="42.3802078329" lon="-0.7022245321">
        <ele>550.97</ele>
        <time>2022-04-15T09:37:52Z</time>
      </trkpt>
      <trkpt lat="42.3802099284" lon="-0.7022138033">
        <ele>549.05</ele>
        <time>2022-04-15T09:37:58Z</time>
      </trkpt>
      <trkpt lat="42.3802079167" lon="-0.7021962013">
        <ele>551.93</ele>
        <time>2022-04-15T09:38:00Z</time>
      </trkpt>
      <trkpt lat="42.3802078329" lon="-0.7021864783">
        <ele>551.93</ele>
        <time>2022-04-15T09:38:01Z</time>
      </trkpt>
      <trkpt lat="42.3802086711" lon="-0.7021649368">
        <ele>550.49</ele>
        <time>2022-04-15T09:38:03Z</time>
      </trkpt>
      <trkpt lat="42.3802099284" lon="-0.7020251267">
        <ele>550.49</ele>
        <time>2022-04-15T09:38:20Z</time>
      </trkpt>
      <trkpt lat="42.3802085035" lon="-0.7020159066">
        <ele>550.01</ele>
        <time>2022-04-15T09:38:30Z</time>
      </trkpt>
      <trkpt lat="42.3802210763" lon="-0.7018980570">
        <ele>550.01</ele>
        <time>2022-04-15T09:38:45Z</time>
      </trkpt>
      <trkpt lat="42.3802294582" lon="-0.7016907725">
        <ele>550.97</ele>
        <time>2022-04-15T09:39:00Z</time>
      </trkpt>
      <trkpt lat="42.3802307155" lon="-0.7014952227">
        <ele>550.97</ele>
        <time>2022-04-15T09:39:13Z</time>
      </trkpt>
      <trkpt lat="42.3802295420" lon="-0.7014839072">
        <ele>549.53</ele>
        <time>2022-04-15T09:39:15Z</time>
      </trkpt>
      <trkpt lat="42.3802030552" lon="-0.7014399022">
        <ele>549.53</ele>
        <time>2022-04-15T09:39:25Z</time>
      </trkpt>
      <trkpt lat="42.3802173883" lon="-0.7013585139">
        <ele>549.53</ele>
        <time>2022-04-15T09:39:34Z</time>
      </trkpt>
      <trkpt lat="42.3802073300" lon="-0.7012896147">
        <ele>549.53</ele>
        <time>2022-04-15T09:39:50Z</time>
      </trkpt>
      <trkpt lat="42.3801955115" lon="-0.7012855913">
        <ele>549.05</ele>
        <time>2022-04-15T09:40:09Z</time>
      </trkpt>
      <trkpt lat="42.3802053183" lon="-0.7011132594">
        <ele>549.05</ele>
        <time>2022-04-15T09:40:22Z</time>
      </trkpt>
      <trkpt lat="42.3802085873" lon="-0.7011097390">
        <ele>550.49</ele>
        <time>2022-04-15T09:40:24Z</time>
      </trkpt>
      <trkpt lat="42.3802132811" lon="-0.7009654865">
        <ele>549.05</ele>
        <time>2022-04-15T09:40:37Z</time>
      </trkpt>
      <trkpt lat="42.3802065756" lon="-0.7008155342">
        <ele>549.05</ele>
        <time>2022-04-15T09:40:50Z</time>
      </trkpt>
      <trkpt lat="42.3801981937" lon="-0.7006399333">
        <ele>549.05</ele>
        <time>2022-04-15T09:41:05Z</time>
      </trkpt>
      <trkpt lat="42.3802133650" lon="-0.7005072478">
        <ele>548.57</ele>
        <time>2022-04-15T09:41:16Z</time>
      </trkpt>
      <trkpt lat="42.3802250158" lon="-0.7003579661">
        <ele>548.57</ele>
        <time>2022-04-15T09:41:27Z</time>
      </trkpt>
      <trkpt lat="42.3802300449" lon="-0.7002182398">
        <ele>548.57</ele>
        <time>2022-04-15T09:41:37Z</time>
      </trkpt>
      <trkpt lat="42.3802230880" lon="-0.7000811119">
        <ele>548.09</ele>
        <time>2022-04-15T09:41:51Z</time>
      </trkpt>
      <trkpt lat="42.3802396003" lon="-0.6999435648">
        <ele>548.09</ele>
        <time>2022-04-15T09:42:02Z</time>
      </trkpt>
      <trkpt lat="42.3802546877" lon="-0.6999012362">
        <ele>549.53</ele>
        <time>2022-04-15T09:42:06Z</time>
      </trkpt>
      <trkpt lat="42.3802516703" lon="-0.6998072751">
        <ele>549.05</ele>
        <time>2022-04-15T09:42:13Z</time>
      </trkpt>
      <trkpt lat="42.3802530952" lon="-0.6996385474">
        <ele>549.05</ele>
        <time>2022-04-15T09:42:26Z</time>
      </trkpt>
      <trkpt lat="42.3802530952" lon="-0.6995517109">
        <ele>549.05</ele>
        <time>2022-04-15T09:42:37Z</time>
      </trkpt>
      <trkpt lat="42.3802516703" lon="-0.6994145829">
        <ele>548.57</ele>
        <time>2022-04-15T09:42:49Z</time>
      </trkpt>
      <trkpt lat="42.3802410252" lon="-0.6992511358">
        <ele>548.57</ele>
        <time>2022-04-15T09:43:02Z</time>
      </trkpt>
      <trkpt lat="42.3802411929" lon="-0.6990690809">
        <ele>548.57</ele>
        <time>2022-04-15T09:43:16Z</time>
      </trkpt>
      <trkpt lat="42.3802399356" lon="-0.6990322843">
        <ele>548.57</ele>
        <time>2022-04-15T09:43:21Z</time>
      </trkpt>
      <trkpt lat="42.3802368343" lon="-0.6988515705">
        <ele>548.09</ele>
        <time>2022-04-15T09:43:36Z</time>
      </trkpt>
      <trkpt lat="42.3802307993" lon="-0.6987858564">
        <ele>547.61</ele>
        <time>2022-04-15T09:43:41Z</time>
      </trkpt>
      <trkpt lat="42.3802338168" lon="-0.6986518297">
        <ele>547.61</ele>
        <time>2022-04-15T09:43:52Z</time>
      </trkpt>
      <trkpt lat="42.3802360799" lon="-0.6984950881">
        <ele>547.61</ele>
        <time>2022-04-15T09:44:04Z</time>
      </trkpt>
      <trkpt lat="42.3802365828" lon="-0.6984634046">
        <ele>547.61</ele>
        <time>2022-04-15T09:44:07Z</time>
      </trkpt>
      <trkpt lat="42.3802455515" lon="-0.6983141229">
        <ele>547.13</ele>
        <time>2022-04-15T09:44:18Z</time>
      </trkpt>
      <trkpt lat="42.3802509997" lon="-0.6982086785">
        <ele>547.13</ele>
        <time>2022-04-15T09:44:26Z</time>
      </trkpt>
      <trkpt lat="42.3802447133" lon="-0.6981384382">
        <ele>547.13</ele>
        <time>2022-04-15T09:44:30Z</time>
      </trkpt>
      <trkpt lat="42.3802414443" lon="-0.6979502644">
        <ele>547.13</ele>
        <time>2022-04-15T09:44:43Z</time>
      </trkpt>
      <trkpt lat="42.3802383430" lon="-0.6978512742">
        <ele>547.13</ele>
        <time>2022-04-15T09:44:53Z</time>
      </trkpt>
      <trkpt lat="42.3802327272" lon="-0.6976360269">
        <ele>547.13</ele>
        <time>2022-04-15T09:45:08Z</time>
      </trkpt>
      <trkpt lat="42.3802439589" lon="-0.6975087058">
        <ele>547.13</ele>
        <time>2022-04-15T09:45:20Z</time>
      </trkpt>
      <trkpt lat="42.3802458867" lon="-0.6973577477">
        <ele>548.57</ele>
        <time>2022-04-15T09:45:33Z</time>
      </trkpt>
      <trkpt lat="42.3802470602" lon="-0.6972750183">
        <ele>547.61</ele>
        <time>2022-04-15T09:45:39Z</time>
      </trkpt>
      <trkpt lat="42.3802459706" lon="-0.6970063783">
        <ele>547.13</ele>
        <time>2022-04-15T09:45:57Z</time>
      </trkpt>
      <trkpt lat="42.3802550230" lon="-0.6968016922">
        <ele>547.61</ele>
        <time>2022-04-15T09:46:12Z</time>
      </trkpt>
      <trkpt lat="42.3802520055" lon="-0.6965581141">
        <ele>547.61</ele>
        <time>2022-04-15T09:46:28Z</time>
      </trkpt>
      <trkpt lat="42.3802628182" lon="-0.6963084172">
        <ele>547.13</ele>
        <time>2022-04-15T09:46:43Z</time>
      </trkpt>
      <trkpt lat="42.3802852817" lon="-0.6960764900">
        <ele>547.13</ele>
        <time>2022-04-15T09:46:57Z</time>
      </trkpt>
      <trkpt lat="42.3802986089" lon="-0.6959692016">
        <ele>547.13</ele>
        <time>2022-04-15T09:47:05Z</time>
      </trkpt>
      <trkpt lat="42.3803271912" lon="-0.6958243623">
        <ele>547.13</ele>
        <time>2022-04-15T09:47:16Z</time>
      </trkpt>
      <trkpt lat="42.3804789037" lon="-0.6958257034">
        <ele>548.57</ele>
        <time>2022-04-15T09:47:29Z</time>
      </trkpt>
      <trkpt lat="42.3806405906" lon="-0.6958777551">
        <ele>548.09</ele>
        <time>2022-04-15T09:47:44Z</time>
      </trkpt>
      <trkpt lat="42.3806775548" lon="-0.6958780065">
        <ele>548.09</ele>
        <time>2022-04-15T09:47:47Z</time>
      </trkpt>
      <trkpt lat="42.3807819095" lon="-0.6958448980">
        <ele>548.57</ele>
        <time>2022-04-15T09:47:54Z</time>
      </trkpt>
      <trkpt lat="42.3809768725" lon="-0.6958640087">
        <ele>549.53</ele>
        <time>2022-04-15T09:48:08Z</time>
      </trkpt>
      <trkpt lat="42.3810548242" lon="-0.6958780903">
        <ele>549.53</ele>
        <time>2022-04-15T09:48:16Z</time>
      </trkpt>
      <trkpt lat="42.3810849991" lon="-0.6958796829">
        <ele>550.01</ele>
        <time>2022-04-15T09:48:19Z</time>
      </trkpt>
      <trkpt lat="42.3811139166" lon="-0.6958630029">
        <ele>550.01</ele>
        <time>2022-04-15T09:48:22Z</time>
      </trkpt>
      <trkpt lat="42.3813251406" lon="-0.6958517712">
        <ele>550.97</ele>
        <time>2022-04-15T09:48:37Z</time>
      </trkpt>
      <trkpt lat="42.3814091273" lon="-0.6958489213">
        <ele>550.97</ele>
        <time>2022-04-15T09:48:44Z</time>
      </trkpt>
      <trkpt lat="42.3815543018" lon="-0.6958334148">
        <ele>551.45</ele>
        <time>2022-04-15T09:49:01Z</time>
      </trkpt>
      <trkpt lat="42.3815972172" lon="-0.6958416291">
        <ele>552.41</ele>
        <time>2022-04-15T09:49:07Z</time>
      </trkpt>
      <trkpt lat="42.3817775957" lon="-0.6958281342">
        <ele>552.90</ele>
        <time>2022-04-15T09:49:21Z</time>
      </trkpt>
      <trkpt lat="42.3817645200" lon="-0.6958543696">
        <ele>553.38</ele>
        <time>2022-04-15T09:49:34Z</time>
      </trkpt>
      <trkpt lat="42.3817381170" lon="-0.6959137972">
        <ele>552.90</ele>
        <time>2022-04-15T09:49:53Z</time>
      </trkpt>
      <trkpt lat="42.3817270529" lon="-0.6959163118">
        <ele>552.90</ele>
        <time>2022-04-15T09:50:09Z</time>
      </trkpt>
      <trkpt lat="42.3817283940" lon="-0.6959049962">
        <ele>553.86</ele>
        <time>2022-04-15T09:50:13Z</time>
      </trkpt>
      <trkpt lat="42.3817286454" lon="-0.6959365960">
        <ele>552.90</ele>
        <time>2022-04-15T09:50:23Z</time>
      </trkpt>
      <trkpt lat="42.3817441519" lon="-0.6959522702">
        <ele>552.90</ele>
        <time>2022-04-15T09:50:40Z</time>
      </trkpt>
      <trkpt lat="42.3817608319" lon="-0.6959345005">
        <ele>554.34</ele>
        <time>2022-04-15T09:50:49Z</time>
      </trkpt>
      <trkpt lat="42.3817455769" lon="-0.6959492527">
        <ele>555.30</ele>
        <time>2022-04-15T09:51:00Z</time>
      </trkpt>
      <trkpt lat="42.3817437328" lon="-0.6960051600">
        <ele>556.74</ele>
        <time>2022-04-15T09:51:04Z</time>
      </trkpt>
      <trkpt lat="42.3817431461" lon="-0.6960322335">
        <ele>555.30</ele>
        <time>2022-04-15T09:51:06Z</time>
      </trkpt>
      <trkpt lat="42.3817496002" lon="-0.6960712094">
        <ele>555.78</ele>
        <time>2022-04-15T09:51:10Z</time>
      </trkpt>
      <trkpt lat="42.3817638494" lon="-0.6960898172">
        <ele>554.34</ele>
        <time>2022-04-15T09:51:27Z</time>
      </trkpt>
      <trkpt lat="42.3817648552" lon="-0.6959572155">
        <ele>555.78</ele>
        <time>2022-04-15T09:51:49Z</time>
      </trkpt>
      <trkpt lat="42.3817668669" lon="-0.6959379371">
        <ele>555.78</ele>
        <time>2022-04-15T09:52:06Z</time>
      </trkpt>
      <trkpt lat="42.3817714769" lon="-0.6959591433">
        <ele>555.78</ele>
        <time>2022-04-15T09:52:25Z</time>
      </trkpt>
      <trkpt lat="42.3817849718" lon="-0.6959484145">
        <ele>554.34</ele>
        <time>2022-04-15T09:52:29Z</time>
      </trkpt>
      <trkpt lat="42.3817799427" lon="-0.6959401164">
        <ele>555.78</ele>
        <time>2022-04-15T09:52:41Z</time>
      </trkpt>
      <trkpt lat="42.3817644361" lon="-0.6961049885">
        <ele>556.26</ele>
        <time>2022-04-15T09:53:09Z</time>
      </trkpt>
      <trkpt lat="42.3817876540" lon="-0.6960209180">
        <ele>556.26</ele>
        <time>2022-04-15T09:53:39Z</time>
      </trkpt>
      <trkpt lat="42.3817689624" lon="-0.6959500909">
        <ele>556.74</ele>
        <time>2022-04-15T09:54:09Z</time>
      </trkpt>
      <trkpt lat="42.3817669507" lon="-0.6960141286">
        <ele>555.30</ele>
        <time>2022-04-15T09:54:26Z</time>
      </trkpt>
      <trkpt lat="42.3817700520" lon="-0.6959635857">
        <ele>557.22</ele>
        <time>2022-04-15T09:54:45Z</time>
      </trkpt>
      <trkpt lat="42.3817429785" lon="-0.6959845405">
        <ele>556.26</ele>
        <time>2022-04-15T09:55:11Z</time>
      </trkpt>
      <trkpt lat="42.3817506060" lon="-0.6958350912">
        <ele>556.26</ele>
        <time>2022-04-15T09:55:30Z</time>
      </trkpt>
      <trkpt lat="42.3817809485" lon="-0.6959071755">
        <ele>556.26</ele>
        <time>2022-04-15T09:55:54Z</time>
      </trkpt>
      <trkpt lat="42.3817820381" lon="-0.6958968658">
        <ele>556.26</ele>
        <time>2022-04-15T09:56:11Z</time>
      </trkpt>
      <trkpt lat="42.3817796074" lon="-0.6953116413">
        <ele>556.26</ele>
        <time>2022-04-15T09:56:24Z</time>
      </trkpt>
      <trkpt lat="42.3817053437" lon="-0.6940098479">
        <ele>556.74</ele>
        <time>2022-04-15T09:56:36Z</time>
      </trkpt>
      <trkpt lat="42.3815720715" lon="-0.6919760630">
        <ele>556.74</ele>
        <time>2022-04-15T09:56:48Z</time>
      </trkpt>
      <trkpt lat="42.3816686310" lon="-0.6958342530">
        <ele>559.14</ele>
        <time>2022-04-15T10:21:34Z</time>
      </trkpt>
      <trkpt lat="42.3816702235" lon="-0.6958347559">
        <ele>559.14</ele>
        <time>2022-04-15T10:21:35Z</time>
      </trkpt>
      <trkpt lat="42.3817459960" lon="-0.6958407909">
        <ele>560.11</ele>
        <time>2022-04-15T10:22:03Z</time>
      </trkpt>
      <trkpt lat="42.3817483429" lon="-0.6958443951">
        <ele>560.11</ele>
        <time>2022-04-15T10:22:04Z</time>
      </trkpt>
      <trkpt lat="42.3817646038" lon="-0.6958787609">
        <ele>559.62</ele>
        <time>2022-04-15T10:22:19Z</time>
      </trkpt>
      <trkpt lat="42.3817573115" lon="-0.6958562974">
        <ele>559.62</ele>
        <time>2022-04-15T10:22:47Z</time>
      </trkpt>
      <trkpt lat="42.3817865644" lon="-0.6956811156">
        <ele>559.62</ele>
        <time>2022-04-15T10:23:06Z</time>
      </trkpt>
      <trkpt lat="42.3817316629" lon="-0.6957909185">
        <ele>559.62</ele>
        <time>2022-04-15T10:23:25Z</time>
      </trkpt>
      <trkpt lat="42.3816867359" lon="-0.6959624123">
        <ele>558.66</ele>
        <time>2022-04-15T10:23:52Z</time>
      </trkpt>
      <trkpt lat="42.3817533720" lon="-0.6958446465">
        <ele>558.66</ele>
        <time>2022-04-15T10:24:18Z</time>
      </trkpt>
      <trkpt lat="42.3817655258" lon="-0.6957881525">
        <ele>558.66</ele>
        <time>2022-04-15T10:24:30Z</time>
      </trkpt>
      <trkpt lat="42.3817748297" lon="-0.6953191850">
        <ele>559.62</ele>
        <time>2022-04-15T10:24:56Z</time>
      </trkpt>
      <trkpt lat="42.3817503545" lon="-0.6958255358">
        <ele>559.62</ele>
        <time>2022-04-15T10:25:25Z</time>
      </trkpt>
      <trkpt lat="42.3817257956" lon="-0.6958422158">
        <ele>559.62</ele>
        <time>2022-04-15T10:25:53Z</time>
      </trkpt>
      <trkpt lat="42.3816081975" lon="-0.6958210096">
        <ele>561.07</ele>
        <time>2022-04-15T10:26:16Z</time>
      </trkpt>
      <trkpt lat="42.3817090318" lon="-0.6959008053">
        <ele>560.59</ele>
        <time>2022-04-15T10:26:47Z</time>
      </trkpt>
      <trkpt lat="42.3816962074" lon="-0.6959490012">
        <ele>560.59</ele>
        <time>2022-04-15T10:27:26Z</time>
      </trkpt>
      <trkpt lat="42.3818245344" lon="-0.6959355064">
        <ele>560.59</ele>
        <time>2022-04-15T10:28:13Z</time>
      </trkpt>
      <trkpt lat="42.3817487620" lon="-0.6958876457">
        <ele>560.59</ele>
        <time>2022-04-15T10:28:41Z</time>
      </trkpt>
      <trkpt lat="42.3817074392" lon="-0.6958845444">
        <ele>559.62</ele>
        <time>2022-04-15T10:29:02Z</time>
      </trkpt>
      <trkpt lat="42.3817185033" lon="-0.6956788525">
        <ele>561.55</ele>
        <time>2022-04-15T10:29:50Z</time>
      </trkpt>
      <trkpt lat="42.3817174137" lon="-0.6957019866">
        <ele>560.11</ele>
        <time>2022-04-15T10:29:51Z</time>
      </trkpt>
      <trkpt lat="42.3817177489" lon="-0.6957055070">
        <ele>557.70</ele>
        <time>2022-04-15T10:29:53Z</time>
      </trkpt>
      <trkpt lat="42.3819120415" lon="-0.6959570479">
        <ele>558.66</ele>
        <time>2022-04-15T10:30:06Z</time>
      </trkpt>
      <trkpt lat="42.3819652665" lon="-0.6960067526">
        <ele>556.26</ele>
        <time>2022-04-15T10:30:20Z</time>
      </trkpt>
      <trkpt lat="42.3820311483" lon="-0.6959869713">
        <ele>557.70</ele>
        <time>2022-04-15T10:30:28Z</time>
      </trkpt>
      <trkpt lat="42.3820279632" lon="-0.6959292199">
        <ele>560.11</ele>
        <time>2022-04-15T10:30:49Z</time>
      </trkpt>
      <trkpt lat="42.3820229340" lon="-0.6959310640">
        <ele>556.74</ele>
        <time>2022-04-15T10:30:52Z</time>
      </trkpt>
      <trkpt lat="42.3820237722" lon="-0.6959288009">
        <ele>561.07</ele>
        <time>2022-04-15T10:30:55Z</time>
      </trkpt>
      <trkpt lat="42.3820234369" lon="-0.6959293038">
        <ele>561.07</ele>
        <time>2022-04-15T10:30:56Z</time>
      </trkpt>
      <trkpt lat="42.3820192460" lon="-0.6959253643">
        <ele>559.62</ele>
        <time>2022-04-15T10:30:58Z</time>
      </trkpt>
      <trkpt lat="42.3820256162" lon="-0.6959138811">
        <ele>560.11</ele>
        <time>2022-04-15T10:31:15Z</time>
      </trkpt>
      <trkpt lat="42.3820250295" lon="-0.6959182397">
        <ele>556.74</ele>
        <time>2022-04-15T10:31:25Z</time>
      </trkpt>
      <trkpt lat="42.3820207547" lon="-0.6959114503">
        <ele>561.07</ele>
        <time>2022-04-15T10:31:26Z</time>
      </trkpt>
      <trkpt lat="42.3820192460" lon="-0.6959360931">
        <ele>559.14</ele>
        <time>2022-04-15T10:31:29Z</time>
      </trkpt>
      <trkpt lat="42.3820143007" lon="-0.6959449779">
        <ele>559.14</ele>
        <time>2022-04-15T10:31:30Z</time>
      </trkpt>
      <trkpt lat="42.3818832915" lon="-0.6960112788">
        <ele>558.66</ele>
        <time>2022-04-15T10:31:43Z</time>
      </trkpt>
      <trkpt lat="42.3818878178" lon="-0.6960444711">
        <ele>558.66</ele>
        <time>2022-04-15T10:31:45Z</time>
      </trkpt>
      <trkpt lat="42.3819071800" lon="-0.6961253565">
        <ele>558.66</ele>
        <time>2022-04-15T10:31:56Z</time>
      </trkpt>
      <trkpt lat="42.3818903323" lon="-0.6962053198">
        <ele>558.66</ele>
        <time>2022-04-15T10:32:01Z</time>
      </trkpt>
      <trkpt lat="42.3817915097" lon="-0.6963792443">
        <ele>557.70</ele>
        <time>2022-04-15T10:32:16Z</time>
      </trkpt>
      <trkpt lat="42.3818045855" lon="-0.6963826809">
        <ele>557.70</ele>
        <time>2022-04-15T10:32:35Z</time>
      </trkpt>
      <trkpt lat="42.3817978799" lon="-0.6963782385">
        <ele>552.90</ele>
        <time>2022-04-15T10:32:42Z</time>
      </trkpt>
      <trkpt lat="42.3817966226" lon="-0.6963743828">
        <ele>556.26</ele>
        <time>2022-04-15T10:32:43Z</time>
      </trkpt>
      <trkpt lat="42.3817914259" lon="-0.6963687669">
        <ele>558.18</ele>
        <time>2022-04-15T10:32:45Z</time>
      </trkpt>
      <trkpt lat="42.3817941081" lon="-0.6963557750">
        <ele>561.55</ele>
        <time>2022-04-15T10:32:50Z</time>
      </trkpt>
      <trkpt lat="42.3818039149" lon="-0.6963883806">
        <ele>558.18</ele>
        <time>2022-04-15T10:32:52Z</time>
      </trkpt>
      <trkpt lat="42.3818028253" lon="-0.6965084933">
        <ele>557.70</ele>
        <time>2022-04-15T10:32:59Z</time>
      </trkpt>
      <trkpt lat="42.3817853909" lon="-0.6965637300">
        <ele>557.70</ele>
        <time>2022-04-15T10:33:02Z</time>
      </trkpt>
      <trkpt lat="42.3816727381" lon="-0.6966536678">
        <ele>557.70</ele>
        <time>2022-04-15T10:33:13Z</time>
      </trkpt>
      <trkpt lat="42.3816475924" lon="-0.6966785621">
        <ele>557.70</ele>
        <time>2022-04-15T10:33:18Z</time>
      </trkpt>
      <trkpt lat="42.3815572355" lon="-0.6968073081">
        <ele>556.74</ele>
        <time>2022-04-15T10:33:27Z</time>
      </trkpt>
      <trkpt lat="42.3814786132" lon="-0.6968696695">
        <ele>555.78</ele>
        <time>2022-04-15T10:33:37Z</time>
      </trkpt>
      <trkpt lat="42.3813735042" lon="-0.6969194580">
        <ele>555.78</ele>
        <time>2022-04-15T10:33:49Z</time>
      </trkpt>
      <trkpt lat="42.3813553154" lon="-0.6969119143">
        <ele>555.30</ele>
        <time>2022-04-15T10:34:01Z</time>
      </trkpt>
      <trkpt lat="42.3813269846" lon="-0.6969228946">
        <ele>555.30</ele>
        <time>2022-04-15T10:34:19Z</time>
      </trkpt>
      <trkpt lat="42.3813294154" lon="-0.6969466154">
        <ele>555.30</ele>
        <time>2022-04-15T10:34:51Z</time>
      </trkpt>
      <trkpt lat="42.3813453410" lon="-0.6969394069">
        <ele>555.30</ele>
        <time>2022-04-15T10:35:12Z</time>
      </trkpt>
      <trkpt lat="42.3813149147" lon="-0.6969601940">
        <ele>555.78</ele>
        <time>2022-04-15T10:35:36Z</time>
      </trkpt>
      <trkpt lat="42.3812820576" lon="-0.6969488785">
        <ele>555.78</ele>
        <time>2022-04-15T10:35:50Z</time>
      </trkpt>
      <trkpt lat="42.3812266532" lon="-0.6969534885">
        <ele>555.78</ele>
        <time>2022-04-15T10:36:21Z</time>
      </trkpt>
      <trkpt lat="42.3812355381" lon="-0.6969122496">
        <ele>555.30</ele>
        <time>2022-04-15T10:36:52Z</time>
      </trkpt>
      <trkpt lat="42.3812851589" lon="-0.6969425082">
        <ele>555.30</ele>
        <time>2022-04-15T10:37:13Z</time>
      </trkpt>
      <trkpt lat="42.3813107237" lon="-0.6969746109">
        <ele>555.78</ele>
        <time>2022-04-15T10:37:47Z</time>
      </trkpt>
      <trkpt lat="42.3812809680" lon="-0.6969382335">
        <ele>555.78</ele>
        <time>2022-04-15T10:38:24Z</time>
      </trkpt>
      <trkpt lat="42.3812833149" lon="-0.6969539914">
        <ele>555.78</ele>
        <time>2022-04-15T10:38:57Z</time>
      </trkpt>
      <trkpt lat="42.3813013360" lon="-0.6969722640">
        <ele>556.26</ele>
        <time>2022-04-15T10:39:13Z</time>
      </trkpt>
      <trkpt lat="42.3813009169" lon="-0.6969571766">
        <ele>555.78</ele>
        <time>2022-04-15T10:39:40Z</time>
      </trkpt>
      <trkpt lat="42.3813408986" lon="-0.6969141774">
        <ele>555.78</ele>
        <time>2022-04-15T10:39:51Z</time>
      </trkpt>
      <trkpt lat="42.3813228775" lon="-0.6969195418">
        <ele>555.30</ele>
        <time>2022-04-15T10:40:09Z</time>
      </trkpt>
      <trkpt lat="42.3813316785" lon="-0.6969272532">
        <ele>556.74</ele>
        <time>2022-04-15T10:40:28Z</time>
      </trkpt>
      <trkpt lat="42.3814154975" lon="-0.6968960725">
        <ele>556.74</ele>
        <time>2022-04-15T10:40:37Z</time>
      </trkpt>
      <trkpt lat="42.3815455008" lon="-0.6967140175">
        <ele>556.74</ele>
        <time>2022-04-15T10:40:50Z</time>
      </trkpt>
      <trkpt lat="42.3816239554" lon="-0.6966374908">
        <ele>556.74</ele>
        <time>2022-04-15T10:40:57Z</time>
      </trkpt>
      <trkpt lat="42.3817257956" lon="-0.6967225671">
        <ele>556.74</ele>
        <time>2022-04-15T10:41:09Z</time>
      </trkpt>
      <trkpt lat="42.3817320820" lon="-0.6967363972">
        <ele>556.74</ele>
        <time>2022-04-15T10:41:10Z</time>
      </trkpt>
      <trkpt lat="42.3817762546" lon="-0.6968326215">
        <ele>556.74</ele>
        <time>2022-04-15T10:41:15Z</time>
      </trkpt>
      <trkpt lat="42.3817868158" lon="-0.6970706675">
        <ele>557.22</ele>
        <time>2022-04-15T10:41:29Z</time>
      </trkpt>
      <trkpt lat="42.3817829601" lon="-0.6972614396">
        <ele>557.22</ele>
        <time>2022-04-15T10:41:40Z</time>
      </trkpt>
      <trkpt lat="42.3817748297" lon="-0.6973662972">
        <ele>557.22</ele>
        <time>2022-04-15T10:41:45Z</time>
      </trkpt>
      <trkpt lat="42.3817784339" lon="-0.6974243000">
        <ele>555.78</ele>
        <time>2022-04-15T10:41:48Z</time>
      </trkpt>
      <trkpt lat="42.3817783501" lon="-0.6974750943">
        <ele>555.78</ele>
        <time>2022-04-15T10:41:51Z</time>
      </trkpt>
      <trkpt lat="42.3817857262" lon="-0.6975259725">
        <ele>555.78</ele>
        <time>2022-04-15T10:41:55Z</time>
      </trkpt>
      <trkpt lat="42.3817656096" lon="-0.6976771820">
        <ele>555.78</ele>
        <time>2022-04-15T10:42:03Z</time>
      </trkpt>
      <trkpt lat="42.3817642685" lon="-0.6979257055">
        <ele>555.30</ele>
        <time>2022-04-15T10:42:18Z</time>
      </trkpt>
      <trkpt lat="42.3817803618" lon="-0.6982203294">
        <ele>554.34</ele>
        <time>2022-04-15T10:42:34Z</time>
      </trkpt>
      <trkpt lat="42.3817798588" lon="-0.6982751470">
        <ele>551.45</ele>
        <time>2022-04-15T10:42:39Z</time>
      </trkpt>
      <trkpt lat="42.3817771766" lon="-0.6982731353">
        <ele>556.26</ele>
        <time>2022-04-15T10:42:40Z</time>
      </trkpt>
      <trkpt lat="42.3817742430" lon="-0.6982766557">
        <ele>556.26</ele>
        <time>2022-04-15T10:42:41Z</time>
      </trkpt>
      <trkpt lat="42.3817817867" lon="-0.6982759014">
        <ele>553.86</ele>
        <time>2022-04-15T10:42:51Z</time>
      </trkpt>
      <trkpt lat="42.3818065971" lon="-0.6985152885">
        <ele>553.86</ele>
        <time>2022-04-15T10:43:05Z</time>
      </trkpt>
      <trkpt lat="42.3818261269" lon="-0.6985816732">
        <ele>553.38</ele>
        <time>2022-04-15T10:43:09Z</time>
      </trkpt>
      <trkpt lat="42.3818639293" lon="-0.6986920629">
        <ele>552.90</ele>
        <time>2022-04-15T10:43:17Z</time>
      </trkpt>
      <trkpt lat="42.3819992132" lon="-0.6988328788">
        <ele>551.93</ele>
        <time>2022-04-15T10:43:30Z</time>
      </trkpt>
      <trkpt lat="42.3820493370" lon="-0.6988685858">
        <ele>551.45</ele>
        <time>2022-04-15T10:43:34Z</time>
      </trkpt>
      <trkpt lat="42.3822267819" lon="-0.6989259180">
        <ele>550.49</ele>
        <time>2022-04-15T10:43:48Z</time>
      </trkpt>
      <trkpt lat="42.3822468985" lon="-0.6989690010">
        <ele>550.97</ele>
        <time>2022-04-15T10:43:59Z</time>
      </trkpt>
      <trkpt lat="42.3822528496" lon="-0.6989615411">
        <ele>549.53</ele>
        <time>2022-04-15T10:44:14Z</time>
      </trkpt>
      <trkpt lat="42.3823455535" lon="-0.6989696715">
        <ele>549.53</ele>
        <time>2022-04-15T10:44:23Z</time>
      </trkpt>
      <trkpt lat="42.3825825099" lon="-0.6990190409">
        <ele>549.05</ele>
        <time>2022-04-15T10:44:41Z</time>
      </trkpt>
      <trkpt lat="42.3827638943" lon="-0.6990461983">
        <ele>549.05</ele>
        <time>2022-04-15T10:44:55Z</time>
      </trkpt>
      <trkpt lat="42.3829778004" lon="-0.6990638841">
        <ele>549.05</ele>
        <time>2022-04-15T10:45:10Z</time>
      </trkpt>
      <trkpt lat="42.3832283355" lon="-0.6990680750">
        <ele>549.05</ele>
        <time>2022-04-15T10:45:30Z</time>
      </trkpt>
      <trkpt lat="42.3834149167" lon="-0.6990721822">
        <ele>549.05</ele>
        <time>2022-04-15T10:45:44Z</time>
      </trkpt>
      <trkpt lat="42.3835890926" lon="-0.6990789715">
        <ele>549.05</ele>
        <time>2022-04-15T10:45:57Z</time>
      </trkpt>
      <trkpt lat="42.3837879952" lon="-0.6990803126">
        <ele>549.05</ele>
        <time>2022-04-15T10:46:12Z</time>
      </trkpt>
      <trkpt lat="42.3839400429" lon="-0.6990684103">
        <ele>549.05</ele>
        <time>2022-04-15T10:46:23Z</time>
      </trkpt>
      <trkpt lat="42.3839319963" lon="-0.6990609504">
        <ele>550.01</ele>
        <time>2022-04-15T10:46:29Z</time>
      </trkpt>
      <trkpt lat="42.3839932680" lon="-0.6990625430">
        <ele>550.01</ele>
        <time>2022-04-15T10:46:36Z</time>
      </trkpt>
      <trkpt lat="42.3841653485" lon="-0.6990321167">
        <ele>550.01</ele>
        <time>2022-04-15T10:46:48Z</time>
      </trkpt>
      <trkpt lat="42.3843431287" lon="-0.6990153529">
        <ele>548.57</ele>
        <time>2022-04-15T10:47:01Z</time>
      </trkpt>
      <trkpt lat="42.3845218308" lon="-0.6990045402">
        <ele>548.57</ele>
        <time>2022-04-15T10:47:13Z</time>
      </trkpt>
      <trkpt lat="42.3846972641" lon="-0.6990273390">
        <ele>548.57</ele>
        <time>2022-04-15T10:47:26Z</time>
      </trkpt>
      <trkpt lat="42.3848508205" lon="-0.6991596054">
        <ele>548.57</ele>
        <time>2022-04-15T10:47:39Z</time>
      </trkpt>
      <trkpt lat="42.3849801533" lon="-0.6993239745">
        <ele>548.57</ele>
        <time>2022-04-15T10:47:52Z</time>
      </trkpt>
      <trkpt lat="42.3851034511" lon="-0.6995029282">
        <ele>548.57</ele>
        <time>2022-04-15T10:48:05Z</time>
      </trkpt>
      <trkpt lat="42.3852564208" lon="-0.6996840611">
        <ele>548.57</ele>
        <time>2022-04-15T10:48:20Z</time>
      </trkpt>
      <trkpt lat="42.3853007611" lon="-0.6997388788">
        <ele>550.01</ele>
        <time>2022-04-15T10:48:26Z</time>
      </trkpt>
      <trkpt lat="42.3854957242" lon="-0.6998261344">
        <ele>550.01</ele>
        <time>2022-04-15T10:48:41Z</time>
      </trkpt>
      <trkpt lat="42.3856924474" lon="-0.6997807045">
        <ele>549.53</ele>
        <time>2022-04-15T10:48:56Z</time>
      </trkpt>
      <trkpt lat="42.3857175931" lon="-0.6996823847">
        <ele>549.53</ele>
        <time>2022-04-15T10:49:02Z</time>
      </trkpt>
      <trkpt lat="42.3857170064" lon="-0.6996340211">
        <ele>549.53</ele>
        <time>2022-04-15T10:49:15Z</time>
      </trkpt>
      <trkpt lat="42.3857133184" lon="-0.6996414810">
        <ele>549.53</ele>
        <time>2022-04-15T10:49:42Z</time>
      </trkpt>
      <trkpt lat="42.3857126478" lon="-0.6996269803">
        <ele>550.01</ele>
        <time>2022-04-15T10:49:59Z</time>
      </trkpt>
      <trkpt lat="42.3857232090" lon="-0.6996320095">
        <ele>544.72</ele>
        <time>2022-04-15T10:50:03Z</time>
      </trkpt>
      <trkpt lat="42.3857273161" lon="-0.6996293273">
        <ele>550.49</ele>
        <time>2022-04-15T10:50:04Z</time>
      </trkpt>
      <trkpt lat="42.3857330997" lon="-0.6996362843">
        <ele>548.57</ele>
        <time>2022-04-15T10:50:10Z</time>
      </trkpt>
      <trkpt lat="42.3857367039" lon="-0.6996348593">
        <ele>548.57</ele>
        <time>2022-04-15T10:50:37Z</time>
      </trkpt>
      <trkpt lat="42.3857189342" lon="-0.6996537186">
        <ele>553.38</ele>
        <time>2022-04-15T10:50:54Z</time>
      </trkpt>
      <trkpt lat="42.3857175093" lon="-0.6996527128">
        <ele>550.49</ele>
        <time>2022-04-15T10:50:55Z</time>
      </trkpt>
      <trkpt lat="42.3857144080" lon="-0.6996551435">
        <ele>549.53</ele>
        <time>2022-04-15T10:50:57Z</time>
      </trkpt>
      <trkpt lat="42.3856838979" lon="-0.6996597536">
        <ele>549.05</ele>
        <time>2022-04-15T10:51:14Z</time>
      </trkpt>
      <trkpt lat="42.3856802098" lon="-0.6996610109">
        <ele>550.01</ele>
        <time>2022-04-15T10:51:26Z</time>
      </trkpt>
      <trkpt lat="42.3856838141" lon="-0.6996709853">
        <ele>549.53</ele>
        <time>2022-04-15T10:51:49Z</time>
      </trkpt>
      <trkpt lat="42.3856812157" lon="-0.6996794511">
        <ele>548.09</ele>
        <time>2022-04-15T10:51:56Z</time>
      </trkpt>
      <trkpt lat="42.3856847361" lon="-0.6996817980">
        <ele>549.53</ele>
        <time>2022-04-15T10:51:58Z</time>
      </trkpt>
      <trkpt lat="42.3856962193" lon="-0.6996916048">
        <ele>549.53</ele>
        <time>2022-04-15T10:52:15Z</time>
      </trkpt>
      <trkpt lat="42.3857905995" lon="-0.6997881643">
        <ele>549.53</ele>
        <time>2022-04-15T10:52:25Z</time>
      </trkpt>
      <trkpt lat="42.3858536314" lon="-0.6997981388">
        <ele>548.09</ele>
        <time>2022-04-15T10:52:30Z</time>
      </trkpt>
      <trkpt lat="42.3860564735" lon="-0.6998728216">
        <ele>549.53</ele>
        <time>2022-04-15T10:52:45Z</time>
      </trkpt>
      <trkpt lat="42.3860789370" lon="-0.6999022420">
        <ele>547.61</ele>
        <time>2022-04-15T10:52:47Z</time>
      </trkpt>
      <trkpt lat="42.3860915937" lon="-0.6999334227">
        <ele>549.53</ele>
        <time>2022-04-15T10:52:49Z</time>
      </trkpt>
      <trkpt lat="42.3860936053" lon="-0.6999836303">
        <ele>550.49</ele>
        <time>2022-04-15T10:52:53Z</time>
      </trkpt>
      <trkpt lat="42.3860875703" lon="-0.7002096064">
        <ele>549.05</ele>
        <time>2022-04-15T10:53:07Z</time>
      </trkpt>
      <trkpt lat="42.3861255404" lon="-0.7004657574">
        <ele>550.01</ele>
        <time>2022-04-15T10:53:20Z</time>
      </trkpt>
      <trkpt lat="42.3861719761" lon="-0.7005761471">
        <ele>548.57</ele>
        <time>2022-04-15T10:53:26Z</time>
      </trkpt>
      <trkpt lat="42.3862827010" lon="-0.7007836830">
        <ele>548.57</ele>
        <time>2022-04-15T10:53:40Z</time>
      </trkpt>
      <trkpt lat="42.3864087649" lon="-0.7009354793">
        <ele>548.57</ele>
        <time>2022-04-15T10:53:53Z</time>
      </trkpt>
      <trkpt lat="42.3865349963" lon="-0.7010370679">
        <ele>550.01</ele>
        <time>2022-04-15T10:54:04Z</time>
      </trkpt>
      <trkpt lat="42.3866913188" lon="-0.7011519838">
        <ele>550.49</ele>
        <time>2022-04-15T10:54:17Z</time>
      </trkpt>
      <trkpt lat="42.3867901415" lon="-0.7012395747">
        <ele>550.49</ele>
        <time>2022-04-15T10:54:25Z</time>
      </trkpt>
      <trkpt lat="42.3868142813" lon="-0.7012675703">
        <ele>551.45</ele>
        <time>2022-04-15T10:54:27Z</time>
      </trkpt>
      <trkpt lat="42.3869116791" lon="-0.7014799677">
        <ele>552.90</ele>
        <time>2022-04-15T10:54:42Z</time>
      </trkpt>
      <trkpt lat="42.3869555164" lon="-0.7017057762">
        <ele>552.90</ele>
        <time>2022-04-15T10:54:55Z</time>
      </trkpt>
      <trkpt lat="42.3869797401" lon="-0.7017665450">
        <ele>551.93</ele>
        <time>2022-04-15T10:54:59Z</time>
      </trkpt>
      <trkpt lat="42.3869901337" lon="-0.7018275652">
        <ele>552.90</ele>
        <time>2022-04-15T10:55:02Z</time>
      </trkpt>
      <trkpt lat="42.3869822547" lon="-0.7020664494">
        <ele>550.97</ele>
        <time>2022-04-15T10:55:15Z</time>
      </trkpt>
      <trkpt lat="42.3870047182" lon="-0.7023092732">
        <ele>552.41</ele>
        <time>2022-04-15T10:55:28Z</time>
      </trkpt>
      <trkpt lat="42.3869966716" lon="-0.7023818605">
        <ele>552.41</ele>
        <time>2022-04-15T10:55:33Z</time>
      </trkpt>
      <trkpt lat="42.3870908003" lon="-0.7025996223">
        <ele>551.93</ele>
        <time>2022-04-15T10:55:47Z</time>
      </trkpt>
      <trkpt lat="42.3871626332" lon="-0.7028438710">
        <ele>552.41</ele>
        <time>2022-04-15T10:56:01Z</time>
      </trkpt>
      <trkpt lat="42.3872363102" lon="-0.7031187974">
        <ele>552.41</ele>
        <time>2022-04-15T10:56:18Z</time>
      </trkpt>
      <trkpt lat="42.3872894514" lon="-0.7033617888">
        <ele>553.38</ele>
        <time>2022-04-15T10:56:35Z</time>
      </trkpt>
      <trkpt lat="42.3873280920" lon="-0.7035922911">
        <ele>555.30</ele>
        <time>2022-04-15T10:56:46Z</time>
      </trkpt>
      <trkpt lat="42.3874057084" lon="-0.7038675528">
        <ele>557.22</ele>
        <time>2022-04-15T10:57:03Z</time>
      </trkpt>
      <trkpt lat="42.3874204606" lon="-0.7039217837">
        <ele>555.78</ele>
        <time>2022-04-15T10:57:08Z</time>
      </trkpt>
      <trkpt lat="42.3874282558" lon="-0.7039452530">
        <ele>557.22</ele>
        <time>2022-04-15T10:57:10Z</time>
      </trkpt>
      <trkpt lat="42.3874352966" lon="-0.7039730810">
        <ele>555.78</ele>
        <time>2022-04-15T10:57:12Z</time>
      </trkpt>
      <trkpt lat="42.3875300121" lon="-0.7041699719">
        <ele>554.82</ele>
        <time>2022-04-15T10:57:24Z</time>
      </trkpt>
      <trkpt lat="42.3875463568" lon="-0.7041937765">
        <ele>556.74</ele>
        <time>2022-04-15T10:57:26Z</time>
      </trkpt>
      <trkpt lat="42.3875794653" lon="-0.7042527013">
        <ele>555.30</ele>
        <time>2022-04-15T10:57:30Z</time>
      </trkpt>
      <trkpt lat="42.3876647092" lon="-0.7044982072">
        <ele>553.38</ele>
        <time>2022-04-15T10:57:47Z</time>
      </trkpt>
      <trkpt lat="42.3877077084" lon="-0.7047286257">
        <ele>553.38</ele>
        <time>2022-04-15T10:58:01Z</time>
      </trkpt>
      <trkpt lat="42.3876449279" lon="-0.7049406879">
        <ele>553.38</ele>
        <time>2022-04-15T10:58:14Z</time>
      </trkpt>
      <trkpt lat="42.3875541519" lon="-0.7051378302">
        <ele>552.90</ele>
        <time>2022-04-15T10:58:27Z</time>
      </trkpt>
      <trkpt lat="42.3874654714" lon="-0.7053510658">
        <ele>552.41</ele>
        <time>2022-04-15T10:58:41Z</time>
      </trkpt>
      <trkpt lat="42.3874617834" lon="-0.7053628843">
        <ele>552.41</ele>
        <time>2022-04-15T10:58:42Z</time>
      </trkpt>
      <trkpt lat="42.3874416668" lon="-0.7054778002">
        <ele>552.41</ele>
        <time>2022-04-15T10:58:47Z</time>
      </trkpt>
      <trkpt lat="42.3874332849" lon="-0.7057130802">
        <ele>552.41</ele>
        <time>2022-04-15T10:59:01Z</time>
      </trkpt>
      <trkpt lat="42.3874622025" lon="-0.7059866656">
        <ele>552.41</ele>
        <time>2022-04-15T10:59:15Z</time>
      </trkpt>
      <trkpt lat="42.3874798883" lon="-0.7062399667">
        <ele>552.41</ele>
        <time>2022-04-15T10:59:28Z</time>
      </trkpt>
      <trkpt lat="42.3875189479" lon="-0.7064607460">
        <ele>552.41</ele>
        <time>2022-04-15T10:59:40Z</time>
      </trkpt>
      <trkpt lat="42.3875654675" lon="-0.7066787593">
        <ele>551.93</ele>
        <time>2022-04-15T10:59:53Z</time>
      </trkpt>
      <trkpt lat="42.3876209557" lon="-0.7069221698">
        <ele>551.93</ele>
        <time>2022-04-15T11:00:07Z</time>
      </trkpt>
      <trkpt lat="42.3876537289" lon="-0.7070046477">
        <ele>551.93</ele>
        <time>2022-04-15T11:00:14Z</time>
      </trkpt>
      <trkpt lat="42.3877340276" lon="-0.7072628103">
        <ele>551.93</ele>
        <time>2022-04-15T11:00:28Z</time>
      </trkpt>
      <trkpt lat="42.3877893481" lon="-0.7075099926">
        <ele>551.93</ele>
        <time>2022-04-15T11:00:41Z</time>
      </trkpt>
      <trkpt lat="42.3878356162" lon="-0.7077358011">
        <ele>551.93</ele>
        <time>2022-04-15T11:00:54Z</time>
      </trkpt>
      <trkpt lat="42.3878696468" lon="-0.7079543173">
        <ele>551.93</ele>
        <time>2022-04-15T11:01:07Z</time>
      </trkpt>
      <trkpt lat="42.3879012465" lon="-0.7081607636">
        <ele>551.93</ele>
        <time>2022-04-15T11:01:18Z</time>
      </trkpt>
      <trkpt lat="42.3879059404" lon="-0.7081845682">
        <ele>551.93</ele>
        <time>2022-04-15T11:01:20Z</time>
      </trkpt>
      <trkpt lat="42.3879201058" lon="-0.7083799504">
        <ele>551.93</ele>
        <time>2022-04-15T11:01:30Z</time>
      </trkpt>
      <trkpt lat="42.3879312538" lon="-0.7086388674">
        <ele>551.93</ele>
        <time>2022-04-15T11:01:44Z</time>
      </trkpt>
      <trkpt lat="42.3879681341" lon="-0.7088781707">
        <ele>551.93</ele>
        <time>2022-04-15T11:01:58Z</time>
      </trkpt>
      <trkpt lat="42.3879733309" lon="-0.7089085970">
        <ele>551.93</ele>
        <time>2022-04-15T11:02:01Z</time>
      </trkpt>
      <trkpt lat="42.3880599160" lon="-0.7091229223">
        <ele>551.93</ele>
        <time>2022-04-15T11:02:13Z</time>
      </trkpt>
      <trkpt lat="42.3880807869" lon="-0.7091728784">
        <ele>551.93</ele>
        <time>2022-04-15T11:02:17Z</time>
      </trkpt>
      <trkpt lat="42.3881721497" lon="-0.7092811726">
        <ele>551.93</ele>
        <time>2022-04-15T11:02:24Z</time>
      </trkpt>
      <trkpt lat="42.3883163184" lon="-0.7094154507">
        <ele>551.93</ele>
        <time>2022-04-15T11:02:37Z</time>
      </trkpt>
      <trkpt lat="42.3884717189" lon="-0.7095700968">
        <ele>551.93</ele>
        <time>2022-04-15T11:02:51Z</time>
      </trkpt>
      <trkpt lat="42.3885880597" lon="-0.7096901257">
        <ele>551.45</ele>
        <time>2022-04-15T11:03:03Z</time>
      </trkpt>
      <trkpt lat="42.3887225054" lon="-0.7098230626">
        <ele>551.45</ele>
        <time>2022-04-15T11:03:15Z</time>
      </trkpt>
      <trkpt lat="42.3887935001" lon="-0.7099449355">
        <ele>551.45</ele>
        <time>2022-04-15T11:03:24Z</time>
      </trkpt>
      <trkpt lat="42.3888135329" lon="-0.7102009188">
        <ele>551.45</ele>
        <time>2022-04-15T11:03:37Z</time>
      </trkpt>
      <trkpt lat="42.3888297100" lon="-0.7104513701">
        <ele>551.45</ele>
        <time>2022-04-15T11:03:50Z</time>
      </trkpt>
      <trkpt lat="42.3888564482" lon="-0.7106848061">
        <ele>551.45</ele>
        <time>2022-04-15T11:04:03Z</time>
      </trkpt>
      <trkpt lat="42.3889143672" lon="-0.7109097764">
        <ele>551.45</ele>
        <time>2022-04-15T11:04:16Z</time>
      </trkpt>
      <trkpt lat="42.3890145309" lon="-0.7111016382">
        <ele>551.45</ele>
        <time>2022-04-15T11:04:29Z</time>
      </trkpt>
      <trkpt lat="42.3891369067" lon="-0.7112510875">
        <ele>551.45</ele>
        <time>2022-04-15T11:04:41Z</time>
      </trkpt>
      <trkpt lat="42.3891602922" lon="-0.7113150414">
        <ele>551.45</ele>
        <time>2022-04-15T11:04:45Z</time>
      </trkpt>
      <trkpt lat="42.3893059697" lon="-0.7114845235">
        <ele>552.90</ele>
        <time>2022-04-15T11:04:59Z</time>
      </trkpt>
      <trkpt lat="42.3894646391" lon="-0.7116136886">
        <ele>552.90</ele>
        <time>2022-04-15T11:05:14Z</time>
      </trkpt>
      <trkpt lat="42.3895352986" lon="-0.7115276065">
        <ele>553.86</ele>
        <time>2022-04-15T11:05:24Z</time>
      </trkpt>
      <trkpt lat="42.3896186985" lon="-0.7114760578">
        <ele>556.26</ele>
        <time>2022-04-15T11:05:33Z</time>
      </trkpt>
      <trkpt lat="42.3896740191" lon="-0.7113722898">
        <ele>557.70</ele>
        <time>2022-04-15T11:05:48Z</time>
      </trkpt>
      <trkpt lat="42.3896393180" lon="-0.7112839445">
        <ele>559.14</ele>
        <time>2022-04-15T11:06:00Z</time>
      </trkpt>
      <trkpt lat="42.3896433413" lon="-0.7113015465">
        <ele>559.14</ele>
        <time>2022-04-15T11:06:05Z</time>
      </trkpt>
      <trkpt lat="42.3896525614" lon="-0.7113302127">
        <ele>559.14</ele>
        <time>2022-04-15T11:06:07Z</time>
      </trkpt>
      <trkpt lat="42.3896798864" lon="-0.7113294583">
        <ele>557.70</ele>
        <time>2022-04-15T11:06:09Z</time>
      </trkpt>
      <trkpt lat="42.3897595145" lon="-0.7112858724">
        <ele>560.11</ele>
        <time>2022-04-15T11:06:20Z</time>
      </trkpt>
      <trkpt lat="42.3897968139" lon="-0.7112296298">
        <ele>560.59</ele>
        <time>2022-04-15T11:06:27Z</time>
      </trkpt>
      <trkpt lat="42.3898135778" lon="-0.7111649215">
        <ele>562.03</ele>
        <time>2022-04-15T11:06:37Z</time>
      </trkpt>
      <trkpt lat="42.3898657132" lon="-0.7112081721">
        <ele>562.03</ele>
        <time>2022-04-15T11:06:44Z</time>
      </trkpt>
      <trkpt lat="42.3898906913" lon="-0.7112531830">
        <ele>562.99</ele>
        <time>2022-04-15T11:06:48Z</time>
      </trkpt>
      <trkpt lat="42.3899287451" lon="-0.7112636603">
        <ele>563.47</ele>
        <time>2022-04-15T11:06:53Z</time>
      </trkpt>
      <trkpt lat="42.3900020868" lon="-0.7112603914">
        <ele>564.91</ele>
        <time>2022-04-15T11:07:03Z</time>
      </trkpt>
      <trkpt lat="42.3899974767" lon="-0.7112643309">
        <ele>561.55</ele>
        <time>2022-04-15T11:07:04Z</time>
      </trkpt>
      <trkpt lat="42.3899976443" lon="-0.7112629898">
        <ele>566.83</ele>
        <time>2022-04-15T11:07:05Z</time>
      </trkpt>
      <trkpt lat="42.3900025059" lon="-0.7112530153">
        <ele>563.95</ele>
        <time>2022-04-15T11:07:08Z</time>
      </trkpt>
      <trkpt lat="42.3900325131" lon="-0.7112765685">
        <ele>563.95</ele>
        <time>2022-04-15T11:07:19Z</time>
      </trkpt>
      <trkpt lat="42.3900498636" lon="-0.7113013789">
        <ele>565.87</ele>
        <time>2022-04-15T11:07:22Z</time>
      </trkpt>
      <trkpt lat="42.3900708184" lon="-0.7112828549">
        <ele>566.83</ele>
        <time>2022-04-15T11:07:34Z</time>
      </trkpt>
      <trkpt lat="42.3900890909" lon="-0.7112878002">
        <ele>567.32</ele>
        <time>2022-04-15T11:07:44Z</time>
      </trkpt>
      <trkpt lat="42.3901996482" lon="-0.7112663426">
        <ele>568.28</ele>
        <time>2022-04-15T11:07:56Z</time>
      </trkpt>
      <trkpt lat="42.3902862333" lon="-0.7112909015">
        <ele>570.20</ele>
        <time>2022-04-15T11:08:07Z</time>
      </trkpt>
      <trkpt lat="42.3903634306" lon="-0.7113758102">
        <ele>572.12</ele>
        <time>2022-04-15T11:08:19Z</time>
      </trkpt>
      <trkpt lat="42.3904100340" lon="-0.7114231680">
        <ele>574.04</ele>
        <time>2022-04-15T11:08:27Z</time>
      </trkpt>
      <trkpt lat="42.3904862255" lon="-0.7113972679">
        <ele>575.97</ele>
        <time>2022-04-15T11:08:36Z</time>
      </trkpt>
      <trkpt lat="42.3905132990" lon="-0.7113562804">
        <ele>575.97</ele>
        <time>2022-04-15T11:08:39Z</time>
      </trkpt>
      <trkpt lat="42.3905886523" lon="-0.7113339845">
        <ele>576.93</ele>
        <time>2022-04-15T11:08:47Z</time>
      </trkpt>
      <trkpt lat="42.3907711264" lon="-0.7113019656">
        <ele>579.33</ele>
        <time>2022-04-15T11:09:03Z</time>
      </trkpt>
      <trkpt lat="42.3908884730" lon="-0.7112469804">
        <ele>577.89</ele>
        <time>2022-04-15T11:09:15Z</time>
      </trkpt>
      <trkpt lat="42.3909243476" lon="-0.7112393528">
        <ele>578.85</ele>
        <time>2022-04-15T11:09:19Z</time>
      </trkpt>
      <trkpt lat="42.3909370042" lon="-0.7112280373">
        <ele>578.85</ele>
        <time>2022-04-15T11:09:31Z</time>
      </trkpt>
      <trkpt lat="42.3910074122" lon="-0.7112100162">
        <ele>578.85</ele>
        <time>2022-04-15T11:09:39Z</time>
      </trkpt>
      <trkpt lat="42.3910499085" lon="-0.7112182304">
        <ele>577.89</ele>
        <time>2022-04-15T11:09:42Z</time>
      </trkpt>
      <trkpt lat="42.3911511619" lon="-0.7112495787">
        <ele>579.33</ele>
        <time>2022-04-15T11:09:50Z</time>
      </trkpt>
      <trkpt lat="42.3912960012" lon="-0.7112510037">
        <ele>579.33</ele>
        <time>2022-04-15T11:10:04Z</time>
      </trkpt>
      <trkpt lat="42.3914463725" lon="-0.7112319767">
        <ele>580.77</ele>
        <time>2022-04-15T11:10:18Z</time>
      </trkpt>
      <trkpt lat="42.3915192112" lon="-0.7112706173">
        <ele>581.73</ele>
        <time>2022-04-15T11:10:24Z</time>
      </trkpt>
      <trkpt lat="42.3915923014" lon="-0.7113100123">
        <ele>581.73</ele>
        <time>2022-04-15T11:10:30Z</time>
      </trkpt>
      <trkpt lat="42.3916142620" lon="-0.7113349065">
        <ele>580.29</ele>
        <time>2022-04-15T11:10:32Z</time>
      </trkpt>
      <trkpt lat="42.3916490469" lon="-0.7113401033">
        <ele>580.29</ele>
        <time>2022-04-15T11:10:35Z</time>
      </trkpt>
      <trkpt lat="42.3917515576" lon="-0.7113988604">
        <ele>581.73</ele>
        <time>2022-04-15T11:10:45Z</time>
      </trkpt>
      <trkpt lat="42.3917726800" lon="-0.7114218269">
        <ele>580.29</ele>
        <time>2022-04-15T11:10:47Z</time>
      </trkpt>
      <trkpt lat="42.3918057885" lon="-0.7114332262">
        <ele>580.29</ele>
        <time>2022-04-15T11:10:50Z</time>
      </trkpt>
      <trkpt lat="42.3918456864" lon="-0.7114304602">
        <ele>582.22</ele>
        <time>2022-04-15T11:10:54Z</time>
      </trkpt>
      <trkpt lat="42.3919153400" lon="-0.7114538457">
        <ele>582.22</ele>
        <time>2022-04-15T11:11:00Z</time>
      </trkpt>
      <trkpt lat="42.3920402303" lon="-0.7114367466">
        <ele>582.22</ele>
        <time>2022-04-15T11:11:11Z</time>
      </trkpt>
      <trkpt lat="42.3920885101" lon="-0.7114237547">
        <ele>582.70</ele>
        <time>2022-04-15T11:11:16Z</time>
      </trkpt>
      <trkpt lat="42.3922059406" lon="-0.7114337292">
        <ele>585.58</ele>
        <time>2022-04-15T11:11:29Z</time>
      </trkpt>
      <trkpt lat="42.3923290707" lon="-0.7114052307">
        <ele>585.10</ele>
        <time>2022-04-15T11:11:40Z</time>
      </trkpt>
      <trkpt lat="42.3924011551" lon="-0.7113924902">
        <ele>586.06</ele>
        <time>2022-04-15T11:11:47Z</time>
      </trkpt>
      <trkpt lat="42.3924750835" lon="-0.7113743853">
        <ele>586.06</ele>
        <time>2022-04-15T11:11:54Z</time>
      </trkpt>
      <trkpt lat="42.3925866466" lon="-0.7113142032">
        <ele>587.98</ele>
        <time>2022-04-15T11:12:07Z</time>
      </trkpt>
      <trkpt lat="42.3926276341" lon="-0.7113027200">
        <ele>587.98</ele>
        <time>2022-04-15T11:12:10Z</time>
      </trkpt>
      <trkpt lat="42.3926702980" lon="-0.7113045640">
        <ele>589.43</ele>
        <time>2022-04-15T11:12:15Z</time>
      </trkpt>
      <trkpt lat="42.3927419633" lon="-0.7113241777">
        <ele>590.39</ele>
        <time>2022-04-15T11:12:20Z</time>
      </trkpt>
      <trkpt lat="42.3928459827" lon="-0.7113385946">
        <ele>591.83</ele>
        <time>2022-04-15T11:12:32Z</time>
      </trkpt>
      <trkpt lat="42.3928661831" lon="-0.7113453001">
        <ele>590.39</ele>
        <time>2022-04-15T11:12:49Z</time>
      </trkpt>
      <trkpt lat="42.3928855453" lon="-0.7113484852">
        <ele>593.27</ele>
        <time>2022-04-15T11:12:57Z</time>
      </trkpt>
      <trkpt lat="42.3930308875" lon="-0.7113550231">
        <ele>592.79</ele>
        <time>2022-04-15T11:13:11Z</time>
      </trkpt>
      <trkpt lat="42.3931339849" lon="-0.7113715354">
        <ele>594.23</ele>
        <time>2022-04-15T11:13:22Z</time>
      </trkpt>
      <trkpt lat="42.3932438716" lon="-0.7114140317">
        <ele>594.23</ele>
        <time>2022-04-15T11:13:31Z</time>
      </trkpt>
      <trkpt lat="42.3933871184" lon="-0.7114938274">
        <ele>593.75</ele>
        <time>2022-04-15T11:13:45Z</time>
      </trkpt>
      <trkpt lat="42.3935984261" lon="-0.7115654089">
        <ele>593.75</ele>
        <time>2022-04-15T11:14:00Z</time>
      </trkpt>
      <trkpt lat="42.3937304411" lon="-0.7116715237">
        <ele>594.71</ele>
        <time>2022-04-15T11:14:14Z</time>
      </trkpt>
      <trkpt lat="42.3938270845" lon="-0.7117883675">
        <ele>595.19</ele>
        <time>2022-04-15T11:14:27Z</time>
      </trkpt>
      <trkpt lat="42.3938928824" lon="-0.7118243258">
        <ele>595.19</ele>
        <time>2022-04-15T11:14:34Z</time>
      </trkpt>
      <trkpt lat="42.3939659726" lon="-0.7118270081">
        <ele>595.19</ele>
        <time>2022-04-15T11:14:39Z</time>
      </trkpt>
      <trkpt lat="42.3940081336" lon="-0.7118415926">
        <ele>595.67</ele>
        <time>2022-04-15T11:14:42Z</time>
      </trkpt>
      <trkpt lat="42.3941494524" lon="-0.7119792234">
        <ele>595.67</ele>
        <time>2022-04-15T11:14:55Z</time>
      </trkpt>
      <trkpt lat="42.3941596784" lon="-0.7119871024">
        <ele>595.67</ele>
        <time>2022-04-15T11:14:56Z</time>
      </trkpt>
      <trkpt lat="42.3942082096" lon="-0.7120042853">
        <ele>595.67</ele>
        <time>2022-04-15T11:15:01Z</time>
      </trkpt>
      <trkpt lat="42.3943497799" lon="-0.7121248171">
        <ele>596.15</ele>
        <time>2022-04-15T11:15:13Z</time>
      </trkpt>
      <trkpt lat="42.3944335151" lon="-0.7122110669">
        <ele>596.15</ele>
        <time>2022-04-15T11:15:22Z</time>
      </trkpt>
      <trkpt lat="42.3945144843" lon="-0.7122414093">
        <ele>596.15</ele>
        <time>2022-04-15T11:15:28Z</time>
      </trkpt>
      <trkpt lat="42.3945710622" lon="-0.7122580055">
        <ele>596.15</ele>
        <time>2022-04-15T11:15:32Z</time>
      </trkpt>
      <trkpt lat="42.3947019037" lon="-0.7123935409">
        <ele>597.12</ele>
        <time>2022-04-15T11:15:48Z</time>
      </trkpt>
      <trkpt lat="42.3947236128" lon="-0.7124271523">
        <ele>597.12</ele>
        <time>2022-04-15T11:15:50Z</time>
      </trkpt>
      <trkpt lat="42.3947675340" lon="-0.7124447543">
        <ele>597.12</ele>
        <time>2022-04-15T11:15:53Z</time>
      </trkpt>
      <trkpt lat="42.3948354274" lon="-0.7125522941">
        <ele>597.12</ele>
        <time>2022-04-15T11:15:59Z</time>
      </trkpt>
      <trkpt lat="42.3949601501" lon="-0.7126772683">
        <ele>596.64</ele>
        <time>2022-04-15T11:16:12Z</time>
      </trkpt>
      <trkpt lat="42.3950602300" lon="-0.7128323335">
        <ele>596.64</ele>
        <time>2022-04-15T11:16:26Z</time>
      </trkpt>
      <trkpt lat="42.3950798437" lon="-0.7128510252">
        <ele>598.08</ele>
        <time>2022-04-15T11:16:28Z</time>
      </trkpt>
      <trkpt lat="42.3952002916" lon="-0.7129482552">
        <ele>598.08</ele>
        <time>2022-04-15T11:16:40Z</time>
      </trkpt>
      <trkpt lat="42.3953402694" lon="-0.7131578028">
        <ele>598.08</ele>
        <time>2022-04-15T11:16:55Z</time>
      </trkpt>
      <trkpt lat="42.3954364937" lon="-0.7132707909">
        <ele>598.56</ele>
        <time>2022-04-15T11:17:09Z</time>
      </trkpt>
      <trkpt lat="42.3955314606" lon="-0.7134117745">
        <ele>599.04</ele>
        <time>2022-04-15T11:17:22Z</time>
      </trkpt>
      <trkpt lat="42.3956938181" lon="-0.7134627365">
        <ele>600.96</ele>
        <time>2022-04-15T11:17:37Z</time>
      </trkpt>
      <trkpt lat="42.3958001845" lon="-0.7134556957">
        <ele>600.96</ele>
        <time>2022-04-15T11:17:50Z</time>
      </trkpt>
      <trkpt lat="42.3958271742" lon="-0.7134557795">
        <ele>599.52</ele>
        <time>2022-04-15T11:17:53Z</time>
      </trkpt>
      <trkpt lat="42.3958472908" lon="-0.7134181447">
        <ele>599.52</ele>
        <time>2022-04-15T11:17:57Z</time>
      </trkpt>
      <trkpt lat="42.3958788067" lon="-0.7133764029">
        <ele>599.04</ele>
        <time>2022-04-15T11:18:01Z</time>
      </trkpt>
      <trkpt lat="42.3959335405" lon="-0.7132930029">
        <ele>597.12</ele>
        <time>2022-04-15T11:18:09Z</time>
      </trkpt>
      <trkpt lat="42.3959659785" lon="-0.7131212577">
        <ele>596.15</ele>
        <time>2022-04-15T11:18:19Z</time>
      </trkpt>
      <trkpt lat="42.3960063793" lon="-0.7129416335">
        <ele>594.71</ele>
        <time>2022-04-15T11:18:32Z</time>
      </trkpt>
      <trkpt lat="42.3959968239" lon="-0.7128183357">
        <ele>594.23</ele>
        <time>2022-04-15T11:18:40Z</time>
      </trkpt>
      <trkpt lat="42.3959755339" lon="-0.7127227820">
        <ele>590.87</ele>
        <time>2022-04-15T11:18:48Z</time>
      </trkpt>
      <trkpt lat="42.3959715944" lon="-0.7125710696">
        <ele>589.91</ele>
        <time>2022-04-15T11:19:00Z</time>
      </trkpt>
      <trkpt lat="42.3959810659" lon="-0.7125380449">
        <ele>588.46</ele>
        <time>2022-04-15T11:19:02Z</time>
      </trkpt>
      <trkpt lat="42.3960202094" lon="-0.7124750130">
        <ele>588.46</ele>
        <time>2022-04-15T11:19:06Z</time>
      </trkpt>
      <trkpt lat="42.3962118197" lon="-0.7123120688">
        <ele>588.46</ele>
        <time>2022-04-15T11:19:17Z</time>
      </trkpt>
      <trkpt lat="42.3962461017" lon="-0.7121942192">
        <ele>588.46</ele>
        <time>2022-04-15T11:19:26Z</time>
      </trkpt>
      <trkpt lat="42.3961779568" lon="-0.7120059617">
        <ele>588.95</ele>
        <time>2022-04-15T11:19:37Z</time>
      </trkpt>
      <trkpt lat="42.3962247279" lon="-0.7118150219">
        <ele>589.91</ele>
        <time>2022-04-15T11:19:51Z</time>
      </trkpt>
      <trkpt lat="42.3962444253" lon="-0.7117733639">
        <ele>589.91</ele>
        <time>2022-04-15T11:19:55Z</time>
      </trkpt>
      <trkpt lat="42.3962413240" lon="-0.7116988488">
        <ele>589.91</ele>
        <time>2022-04-15T11:20:00Z</time>
      </trkpt>
      <trkpt lat="42.3962659668" lon="-0.7115282770">
        <ele>590.87</ele>
        <time>2022-04-15T11:20:13Z</time>
      </trkpt>
      <trkpt lat="42.3962831497" lon="-0.7115053944">
        <ele>590.39</ele>
        <time>2022-04-15T11:20:21Z</time>
      </trkpt>
      <trkpt lat="42.3962557409" lon="-0.7117520738">
        <ele>590.39</ele>
        <time>2022-04-15T11:20:37Z</time>
      </trkpt>
      <trkpt lat="42.3962516338" lon="-0.7117830031">
        <ele>590.39</ele>
        <time>2022-04-15T11:20:39Z</time>
      </trkpt>
      <trkpt lat="42.3963116482" lon="-0.7120054588">
        <ele>591.35</ele>
        <time>2022-04-15T11:20:54Z</time>
      </trkpt>
      <trkpt lat="42.3963125702" lon="-0.7120532356">
        <ele>590.87</ele>
        <time>2022-04-15T11:20:57Z</time>
      </trkpt>
      <trkpt lat="42.3963435832" lon="-0.7122765295">
        <ele>591.35</ele>
        <time>2022-04-15T11:21:11Z</time>
      </trkpt>
      <trkpt lat="42.3963616043" lon="-0.7123062015">
        <ele>591.35</ele>
        <time>2022-04-15T11:21:14Z</time>
      </trkpt>
      <trkpt lat="42.3964724969" lon="-0.7125301659">
        <ele>592.79</ele>
        <time>2022-04-15T11:21:27Z</time>
      </trkpt>
      <trkpt lat="42.3965392169" lon="-0.7125848997">
        <ele>593.27</ele>
        <time>2022-04-15T11:21:38Z</time>
      </trkpt>
      <trkpt lat="42.3965879995" lon="-0.7126196008">
        <ele>594.71</ele>
        <time>2022-04-15T11:21:44Z</time>
      </trkpt>
      <trkpt lat="42.3967053462" lon="-0.7126819622">
        <ele>596.15</ele>
        <time>2022-04-15T11:21:57Z</time>
      </trkpt>
      <trkpt lat="42.3968202621" lon="-0.7126676291">
        <ele>597.12</ele>
        <time>2022-04-15T11:22:10Z</time>
      </trkpt>
      <trkpt lat="42.3969635926" lon="-0.7125935331">
        <ele>597.60</ele>
        <time>2022-04-15T11:22:24Z</time>
      </trkpt>
      <trkpt lat="42.3970794305" lon="-0.7124397252">
        <ele>598.08</ele>
        <time>2022-04-15T11:22:38Z</time>
      </trkpt>
      <trkpt lat="42.3972211685" lon="-0.7123150025">
        <ele>600.00</ele>
        <time>2022-04-15T11:22:49Z</time>
      </trkpt>
      <trkpt lat="42.3973032273" lon="-0.7122467738">
        <ele>601.44</ele>
        <time>2022-04-15T11:22:58Z</time>
      </trkpt>
      <trkpt lat="42.3973691929" lon="-0.7121856697">
        <ele>602.88</ele>
        <time>2022-04-15T11:23:08Z</time>
      </trkpt>
      <trkpt lat="42.3974515870" lon="-0.7121541537">
        <ele>604.81</ele>
        <time>2022-04-15T11:23:21Z</time>
      </trkpt>
      <trkpt lat="42.3974980228" lon="-0.7121627033">
        <ele>606.25</ele>
        <time>2022-04-15T11:23:37Z</time>
      </trkpt>
      <trkpt lat="42.3975294549" lon="-0.7121573389">
        <ele>605.77</ele>
        <time>2022-04-15T11:24:07Z</time>
      </trkpt>
      <trkpt lat="42.3975892179" lon="-0.7121222187">
        <ele>605.77</ele>
        <time>2022-04-15T11:24:21Z</time>
      </trkpt>
      <trkpt lat="42.3976436164" lon="-0.7120792195">
        <ele>605.77</ele>
        <time>2022-04-15T11:24:26Z</time>
      </trkpt>
      <trkpt lat="42.3976944108" lon="-0.7120658085">
        <ele>605.77</ele>
        <time>2022-04-15T11:24:29Z</time>
      </trkpt>
      <trkpt lat="42.3978234082" lon="-0.7120113261">
        <ele>606.25</ele>
        <time>2022-04-15T11:24:37Z</time>
      </trkpt>
      <trkpt lat="42.3979988415" lon="-0.7119084802">
        <ele>606.73</ele>
        <time>2022-04-15T11:24:52Z</time>
      </trkpt>
      <trkpt lat="42.3980643880" lon="-0.7118914649">
        <ele>606.73</ele>
        <time>2022-04-15T11:25:02Z</time>
      </trkpt>
      <trkpt lat="42.3980959877" lon="-0.7118890341">
        <ele>608.65</ele>
        <time>2022-04-15T11:25:06Z</time>
      </trkpt>
      <trkpt lat="42.3981200438" lon="-0.7118990086">
        <ele>608.17</ele>
        <time>2022-04-15T11:25:12Z</time>
      </trkpt>
      <trkpt lat="42.3982155137" lon="-0.7119039539">
        <ele>608.17</ele>
        <time>2022-04-15T11:25:25Z</time>
      </trkpt>
      <trkpt lat="42.3982616980" lon="-0.7119065523">
        <ele>608.17</ele>
        <time>2022-04-15T11:25:28Z</time>
      </trkpt>
      <trkpt lat="42.3983473610" lon="-0.7118989248">
        <ele>609.61</ele>
        <time>2022-04-15T11:25:35Z</time>
      </trkpt>
      <trkpt lat="42.3984772805" lon="-0.7118752040">
        <ele>611.54</ele>
        <time>2022-04-15T11:25:46Z</time>
      </trkpt>
      <trkpt lat="42.3986135703" lon="-0.7119167782">
        <ele>614.42</ele>
        <time>2022-04-15T11:26:00Z</time>
      </trkpt>
      <trkpt lat="42.3986816313" lon="-0.7119774632">
        <ele>614.42</ele>
        <time>2022-04-15T11:26:10Z</time>
      </trkpt>
      <trkpt lat="42.3987888359" lon="-0.7119829115">
        <ele>614.42</ele>
        <time>2022-04-15T11:26:22Z</time>
      </trkpt>
      <trkpt lat="42.3988604173" lon="-0.7120316941">
        <ele>614.42</ele>
        <time>2022-04-15T11:26:29Z</time>
      </trkpt>
      <trkpt lat="42.3990381137" lon="-0.7121392339">
        <ele>613.94</ele>
        <time>2022-04-15T11:26:44Z</time>
      </trkpt>
      <trkpt lat="42.3991729785" lon="-0.7122523896">
        <ele>613.46</ele>
        <time>2022-04-15T11:26:58Z</time>
      </trkpt>
      <trkpt lat="42.3992769979" lon="-0.7123987377">
        <ele>612.50</ele>
        <time>2022-04-15T11:27:13Z</time>
      </trkpt>
      <trkpt lat="42.3993159737" lon="-0.7124999911">
        <ele>607.21</ele>
        <time>2022-04-15T11:27:23Z</time>
      </trkpt>
      <trkpt lat="42.3993173148" lon="-0.7125005778">
        <ele>613.94</ele>
        <time>2022-04-15T11:27:24Z</time>
      </trkpt>
      <trkpt lat="42.3993175663" lon="-0.7125004940">
        <ele>613.94</ele>
        <time>2022-04-15T11:27:25Z</time>
      </trkpt>
      <trkpt lat="42.3993164767" lon="-0.7125054393">
        <ele>610.57</ele>
        <time>2022-04-15T11:27:27Z</time>
      </trkpt>
      <trkpt lat="42.3993168958" lon="-0.7125061098">
        <ele>610.57</ele>
        <time>2022-04-15T11:27:28Z</time>
      </trkpt>
      <trkpt lat="42.3993161414" lon="-0.7125061937">
        <ele>613.94</ele>
        <time>2022-04-15T11:27:29Z</time>
      </trkpt>
      <trkpt lat="42.3993150517" lon="-0.7125071157">
        <ele>618.26</ele>
        <time>2022-04-15T11:27:30Z</time>
      </trkpt>
      <trkpt lat="42.3993169796" lon="-0.7125141565">
        <ele>614.90</ele>
        <time>2022-04-15T11:27:31Z</time>
      </trkpt>
      <trkpt lat="42.3993253615" lon="-0.7125724945">
        <ele>611.54</ele>
        <time>2022-04-15T11:27:52Z</time>
      </trkpt>
      <trkpt lat="42.3993313964" lon="-0.7125727460">
        <ele>613.46</ele>
        <time>2022-04-15T11:27:56Z</time>
      </trkpt>
      <trkpt lat="42.3993474059" lon="-0.7124915253">
        <ele>612.98</ele>
        <time>2022-04-15T11:28:30Z</time>
      </trkpt>
      <trkpt lat="42.3993197456" lon="-0.7125181798">
        <ele>612.98</ele>
        <time>2022-04-15T11:29:08Z</time>
      </trkpt>
      <trkpt lat="42.3993100226" lon="-0.7125677168">
        <ele>610.57</ele>
        <time>2022-04-15T11:29:35Z</time>
      </trkpt>
      <trkpt lat="42.3993071727" lon="-0.7125706505">
        <ele>612.50</ele>
        <time>2022-04-15T11:29:37Z</time>
      </trkpt>
      <trkpt lat="42.3993029818" lon="-0.7125776075">
        <ele>615.38</ele>
        <time>2022-04-15T11:29:42Z</time>
      </trkpt>
      <trkpt lat="42.3993023951" lon="-0.7125786133">
        <ele>611.06</ele>
        <time>2022-04-15T11:29:43Z</time>
      </trkpt>
      <trkpt lat="42.3993023112" lon="-0.7125809602">
        <ele>614.90</ele>
        <time>2022-04-15T11:29:46Z</time>
      </trkpt>
      <trkpt lat="42.3993072566" lon="-0.7125823013">
        <ele>611.06</ele>
        <time>2022-04-15T11:29:50Z</time>
      </trkpt>
      <trkpt lat="42.3993075080" lon="-0.7125801221">
        <ele>613.94</ele>
        <time>2022-04-15T11:29:52Z</time>
      </trkpt>
      <trkpt lat="42.3993059993" lon="-0.7125781104">
        <ele>612.98</ele>
        <time>2022-04-15T11:29:56Z</time>
      </trkpt>
      <trkpt lat="42.3993024789" lon="-0.7125139050">
        <ele>612.50</ele>
        <time>2022-04-15T11:30:29Z</time>
      </trkpt>
      <trkpt lat="42.3992966954" lon="-0.7125376258">
        <ele>612.50</ele>
        <time>2022-04-15T11:30:44Z</time>
      </trkpt>
      <trkpt lat="42.3993619066" lon="-0.7125848159">
        <ele>613.46</ele>
        <time>2022-04-15T11:31:04Z</time>
      </trkpt>
      <trkpt lat="42.3993836157" lon="-0.7125994842">
        <ele>613.46</ele>
        <time>2022-04-15T11:31:08Z</time>
      </trkpt>
      <trkpt lat="42.3994232621" lon="-0.7125651184">
        <ele>612.50</ele>
        <time>2022-04-15T11:31:13Z</time>
      </trkpt>
      <trkpt lat="42.3995388485" lon="-0.7124793716">
        <ele>611.06</ele>
        <time>2022-04-15T11:31:26Z</time>
      </trkpt>
      <trkpt lat="42.3996623978" lon="-0.7124892622">
        <ele>611.54</ele>
        <time>2022-04-15T11:31:33Z</time>
      </trkpt>
      <trkpt lat="42.3998083267" lon="-0.7124904357">
        <ele>611.06</ele>
        <time>2022-04-15T11:31:47Z</time>
      </trkpt>
      <trkpt lat="42.3999241646" lon="-0.7124696486">
        <ele>610.57</ele>
        <time>2022-04-15T11:31:59Z</time>
      </trkpt>
      <trkpt lat="42.4000841752" lon="-0.7124858256">
        <ele>609.13</ele>
        <time>2022-04-15T11:32:12Z</time>
      </trkpt>
      <trkpt lat="42.4001990072" lon="-0.7125003263">
        <ele>609.13</ele>
        <time>2022-04-15T11:32:22Z</time>
      </trkpt>
      <trkpt lat="42.4003448524" lon="-0.7125026733">
        <ele>609.13</ele>
        <time>2022-04-15T11:32:36Z</time>
      </trkpt>
      <trkpt lat="42.4004917033" lon="-0.7125331834">
        <ele>609.13</ele>
        <time>2022-04-15T11:32:51Z</time>
      </trkpt>
      <trkpt lat="42.4005429167" lon="-0.7125255559">
        <ele>608.65</ele>
        <time>2022-04-15T11:33:00Z</time>
      </trkpt>
      <trkpt lat="42.4005581718" lon="-0.7125239633">
        <ele>608.65</ele>
        <time>2022-04-15T11:33:03Z</time>
      </trkpt>
      <trkpt lat="42.4008793663" lon="-0.7124325167">
        <ele>610.09</ele>
        <time>2022-04-15T11:33:15Z</time>
      </trkpt>
      <trkpt lat="42.4009929411" lon="-0.7123023458">
        <ele>610.57</ele>
        <time>2022-04-15T11:33:28Z</time>
      </trkpt>
      <trkpt lat="42.4011081085" lon="-0.7122516353">
        <ele>611.06</ele>
        <time>2022-04-15T11:33:42Z</time>
      </trkpt>
      <trkpt lat="42.4011926819" lon="-0.7123707421">
        <ele>611.06</ele>
        <time>2022-04-15T11:33:55Z</time>
      </trkpt>
      <trkpt lat="42.4012667779" lon="-0.7123851590">
        <ele>612.02</ele>
        <time>2022-04-15T11:34:03Z</time>
      </trkpt>
      <trkpt lat="42.4013694562" lon="-0.7123789564">
        <ele>612.02</ele>
        <time>2022-04-15T11:34:13Z</time>
      </trkpt>
      <trkpt lat="42.4014598131" lon="-0.7123984862">
        <ele>612.98</ele>
        <time>2022-04-15T11:34:22Z</time>
      </trkpt>
      <trkpt lat="42.4014939275" lon="-0.7124315109">
        <ele>611.54</ele>
        <time>2022-04-15T11:34:26Z</time>
      </trkpt>
      <trkpt lat="42.4015373457" lon="-0.7124723308">
        <ele>613.46</ele>
        <time>2022-04-15T11:34:33Z</time>
      </trkpt>
      <trkpt lat="42.4016183987" lon="-0.7125552278">
        <ele>613.46</ele>
        <time>2022-04-15T11:34:45Z</time>
      </trkpt>
      <trkpt lat="42.4017180596" lon="-0.7125686388">
        <ele>614.42</ele>
        <time>2022-04-15T11:34:53Z</time>
      </trkpt>
      <trkpt lat="42.4018505774" lon="-0.7125573233">
        <ele>615.38</ele>
        <time>2022-04-15T11:35:06Z</time>
      </trkpt>
      <trkpt lat="42.4019160401" lon="-0.7125749253">
        <ele>616.34</ele>
        <time>2022-04-15T11:35:13Z</time>
      </trkpt>
      <trkpt lat="42.4019527528" lon="-0.7125942875">
        <ele>614.90</ele>
        <time>2022-04-15T11:35:32Z</time>
      </trkpt>
      <trkpt lat="42.4019639846" lon="-0.7125956286">
        <ele>616.82</ele>
        <time>2022-04-15T11:35:34Z</time>
      </trkpt>
      <trkpt lat="42.4020784814" lon="-0.7126606721">
        <ele>617.30</ele>
        <time>2022-04-15T11:35:49Z</time>
      </trkpt>
      <trkpt lat="42.4021006934" lon="-0.7126109675">
        <ele>618.26</ele>
        <time>2022-04-15T11:35:57Z</time>
      </trkpt>
      <trkpt lat="42.4021752924" lon="-0.7125645317">
        <ele>618.26</ele>
        <time>2022-04-15T11:36:10Z</time>
      </trkpt>
      <trkpt lat="42.4022560939" lon="-0.7125294954">
        <ele>618.26</ele>
        <time>2022-04-15T11:36:16Z</time>
      </trkpt>
      <trkpt lat="42.4024461117" lon="-0.7125828043">
        <ele>618.26</ele>
        <time>2022-04-15T11:36:31Z</time>
      </trkpt>
      <trkpt lat="42.4025434256" lon="-0.7126144040">
        <ele>618.26</ele>
        <time>2022-04-15T11:36:41Z</time>
      </trkpt>
      <trkpt lat="42.4026264064" lon="-0.7124939561">
        <ele>618.26</ele>
        <time>2022-04-15T11:36:54Z</time>
      </trkpt>
      <trkpt lat="42.4026813917" lon="-0.7123740949">
        <ele>618.26</ele>
        <time>2022-04-15T11:37:05Z</time>
      </trkpt>
      <trkpt lat="42.4027151708" lon="-0.7123342808">
        <ele>614.90</ele>
        <time>2022-04-15T11:37:08Z</time>
      </trkpt>
      <trkpt lat="42.4027183559" lon="-0.7123238873">
        <ele>614.90</ele>
        <time>2022-04-15T11:37:09Z</time>
      </trkpt>
      <trkpt lat="42.4027253129" lon="-0.7123128232">
        <ele>619.23</ele>
        <time>2022-04-15T11:37:10Z</time>
      </trkpt>
      <trkpt lat="42.4027287494" lon="-0.7123088837">
        <ele>617.30</ele>
        <time>2022-04-15T11:37:11Z</time>
      </trkpt>
      <trkpt lat="42.4027608521" lon="-0.7121310197">
        <ele>615.38</ele>
        <time>2022-04-15T11:37:26Z</time>
      </trkpt>
      <trkpt lat="42.4028500356" lon="-0.7120200433">
        <ele>617.30</ele>
        <time>2022-04-15T11:37:37Z</time>
      </trkpt>
      <trkpt lat="42.4028543942" lon="-0.7120266650">
        <ele>616.82</ele>
        <time>2022-04-15T11:37:38Z</time>
      </trkpt>
      <trkpt lat="42.4028965551" lon="-0.7121135015">
        <ele>617.78</ele>
        <time>2022-04-15T11:37:51Z</time>
      </trkpt>
      <trkpt lat="42.4029518757" lon="-0.7122624479">
        <ele>618.75</ele>
        <time>2022-04-15T11:38:04Z</time>
      </trkpt>
      <trkpt lat="42.4029864930" lon="-0.7123637851">
        <ele>619.23</ele>
        <time>2022-04-15T11:38:12Z</time>
      </trkpt>
      <trkpt lat="42.4030315038" lon="-0.7125272322">
        <ele>621.15</ele>
        <time>2022-04-15T11:38:25Z</time>
      </trkpt>
      <trkpt lat="42.4030701444" lon="-0.7126228698">
        <ele>622.59</ele>
        <time>2022-04-15T11:38:36Z</time>
      </trkpt>
      <trkpt lat="42.4030719884" lon="-0.7127820421">
        <ele>624.03</ele>
        <time>2022-04-15T11:38:47Z</time>
      </trkpt>
      <trkpt lat="42.4030867405" lon="-0.7130001392">
        <ele>624.99</ele>
        <time>2022-04-15T11:39:02Z</time>
      </trkpt>
      <trkpt lat="42.4031232018" lon="-0.7130953576">
        <ele>625.96</ele>
        <time>2022-04-15T11:39:11Z</time>
      </trkpt>
      <trkpt lat="42.4031813722" lon="-0.7131670229">
        <ele>627.40</ele>
        <time>2022-04-15T11:39:19Z</time>
      </trkpt>
      <trkpt lat="42.4032506905" lon="-0.7132171467">
        <ele>627.88</ele>
        <time>2022-04-15T11:39:27Z</time>
      </trkpt>
      <trkpt lat="42.4033277202" lon="-0.7132686116">
        <ele>628.36</ele>
        <time>2022-04-15T11:39:34Z</time>
      </trkpt>
      <trkpt lat="42.4033735693" lon="-0.7132147159">
        <ele>629.80</ele>
        <time>2022-04-15T11:39:41Z</time>
      </trkpt>
      <trkpt lat="42.4033881538" lon="-0.7131732255">
        <ele>629.80</ele>
        <time>2022-04-15T11:39:44Z</time>
      </trkpt>
      <trkpt lat="42.4034048337" lon="-0.7131631672">
        <ele>630.28</ele>
        <time>2022-04-15T11:39:51Z</time>
      </trkpt>
      <trkpt lat="42.4033729825" lon="-0.7132224273">
        <ele>628.84</ele>
        <time>2022-04-15T11:39:57Z</time>
      </trkpt>
      <trkpt lat="42.4033781793" lon="-0.7132282108">
        <ele>628.84</ele>
        <time>2022-04-15T11:39:58Z</time>
      </trkpt>
      <trkpt lat="42.4034603219" lon="-0.7132455613">
        <ele>628.84</ele>
        <time>2022-04-15T11:40:10Z</time>
      </trkpt>
      <trkpt lat="42.4035520200" lon="-0.7132428791">
        <ele>629.80</ele>
        <time>2022-04-15T11:40:22Z</time>
      </trkpt>
      <trkpt lat="42.4035545345" lon="-0.7132296357">
        <ele>630.28</ele>
        <time>2022-04-15T11:40:26Z</time>
      </trkpt>
      <trkpt lat="42.4035935104" lon="-0.7131697889">
        <ele>630.28</ele>
        <time>2022-04-15T11:40:31Z</time>
      </trkpt>
      <trkpt lat="42.4037215859" lon="-0.7130329963">
        <ele>631.24</ele>
        <time>2022-04-15T11:40:43Z</time>
      </trkpt>
      <trkpt lat="42.4038456380" lon="-0.7130345050">
        <ele>631.24</ele>
        <time>2022-04-15T11:40:53Z</time>
      </trkpt>
      <trkpt lat="42.4039641581" lon="-0.7129805256">
        <ele>632.20</ele>
        <time>2022-04-15T11:41:05Z</time>
      </trkpt>
      <trkpt lat="42.4039642420" lon="-0.7129558828">
        <ele>630.76</ele>
        <time>2022-04-15T11:41:08Z</time>
      </trkpt>
      <trkpt lat="42.4039799161" lon="-0.7129176613">
        <ele>632.68</ele>
        <time>2022-04-15T11:41:13Z</time>
      </trkpt>
      <trkpt lat="42.4040069059" lon="-0.7129046693">
        <ele>632.20</ele>
        <time>2022-04-15T11:41:16Z</time>
      </trkpt>
      <trkpt lat="42.4041364063" lon="-0.7128116302">
        <ele>633.65</ele>
        <time>2022-04-15T11:41:29Z</time>
      </trkpt>
      <trkpt lat="42.4042525794" lon="-0.7126795314">
        <ele>634.13</ele>
        <time>2022-04-15T11:41:42Z</time>
      </trkpt>
      <trkpt lat="42.4042615481" lon="-0.7126600854">
        <ele>634.13</ele>
        <time>2022-04-15T11:41:43Z</time>
      </trkpt>
      <trkpt lat="42.4043236580" lon="-0.7125099655">
        <ele>634.13</ele>
        <time>2022-04-15T11:41:53Z</time>
      </trkpt>
      <trkpt lat="42.4043876957" lon="-0.7124339417">
        <ele>634.13</ele>
        <time>2022-04-15T11:42:02Z</time>
      </trkpt>
      <trkpt lat="42.4045341276" lon="-0.7124210335">
        <ele>635.57</ele>
        <time>2022-04-15T11:42:12Z</time>
      </trkpt>
      <trkpt lat="42.4046367221" lon="-0.7123351190">
        <ele>636.53</ele>
        <time>2022-04-15T11:42:24Z</time>
      </trkpt>
      <trkpt lat="42.4047616124" lon="-0.7123839017">
        <ele>637.01</ele>
        <time>2022-04-15T11:42:35Z</time>
      </trkpt>
      <trkpt lat="42.4048656318" lon="-0.7123878412">
        <ele>638.45</ele>
        <time>2022-04-15T11:42:45Z</time>
      </trkpt>
      <trkpt lat="42.4049066193" lon="-0.7123678923">
        <ele>639.41</ele>
        <time>2022-04-15T11:42:50Z</time>
      </trkpt>
      <trkpt lat="42.4049919471" lon="-0.7124012522">
        <ele>639.89</ele>
        <time>2022-04-15T11:42:59Z</time>
      </trkpt>
      <trkpt lat="42.4050410651" lon="-0.7124026772">
        <ele>639.89</ele>
        <time>2022-04-15T11:43:06Z</time>
      </trkpt>
      <trkpt lat="42.4051078688" lon="-0.7122720033">
        <ele>638.45</ele>
        <time>2022-04-15T11:43:20Z</time>
      </trkpt>
      <trkpt lat="42.4051165022" lon="-0.7122718357">
        <ele>638.45</ele>
        <time>2022-04-15T11:43:21Z</time>
      </trkpt>
      <trkpt lat="42.4052022491" lon="-0.7122576702">
        <ele>638.45</ele>
        <time>2022-04-15T11:43:25Z</time>
      </trkpt>
      <trkpt lat="42.4053588230" lon="-0.7122120727">
        <ele>638.45</ele>
        <time>2022-04-15T11:43:39Z</time>
      </trkpt>
      <trkpt lat="42.4053934403" lon="-0.7122230530">
        <ele>638.45</ele>
        <time>2022-04-15T11:43:45Z</time>
      </trkpt>
      <trkpt lat="42.4054303207" lon="-0.7122165989">
        <ele>640.86</ele>
        <time>2022-04-15T11:43:48Z</time>
      </trkpt>
      <trkpt lat="42.4054449890" lon="-0.7122140843">
        <ele>640.86</ele>
        <time>2022-04-15T11:43:49Z</time>
      </trkpt>
      <trkpt lat="42.4055118766" lon="-0.7121928781">
        <ele>640.86</ele>
        <time>2022-04-15T11:43:57Z</time>
      </trkpt>
      <trkpt lat="42.4055314902" lon="-0.7121734321">
        <ele>641.82</ele>
        <time>2022-04-15T11:44:00Z</time>
      </trkpt>
      <trkpt lat="42.4055815302" lon="-0.7121438440">
        <ele>641.82</ele>
        <time>2022-04-15T11:44:05Z</time>
      </trkpt>
      <trkpt lat="42.4056421313" lon="-0.7121363841">
        <ele>641.82</ele>
        <time>2022-04-15T11:44:16Z</time>
      </trkpt>
      <trkpt lat="42.4056738149" lon="-0.7121182792">
        <ele>642.30</ele>
        <time>2022-04-15T11:44:18Z</time>
      </trkpt>
      <trkpt lat="42.4058004655" lon="-0.7120231446">
        <ele>642.30</ele>
        <time>2022-04-15T11:44:25Z</time>
      </trkpt>
      <trkpt lat="42.4058873020" lon="-0.7119016070">
        <ele>642.78</ele>
        <time>2022-04-15T11:44:35Z</time>
      </trkpt>
      <trkpt lat="42.4059933331" lon="-0.7118694205">
        <ele>642.78</ele>
        <time>2022-04-15T11:44:42Z</time>
      </trkpt>
      <trkpt lat="42.4060977716" lon="-0.7119467854">
        <ele>641.34</ele>
        <time>2022-04-15T11:44:56Z</time>
      </trkpt>
      <trkpt lat="42.4062660802" lon="-0.7119782176">
        <ele>641.34</ele>
        <time>2022-04-15T11:45:09Z</time>
      </trkpt>
      <trkpt lat="42.4062894657" lon="-0.7119737752">
        <ele>640.86</ele>
        <time>2022-04-15T11:45:11Z</time>
      </trkpt>
      <trkpt lat="42.4063592032" lon="-0.7119433489">
        <ele>640.86</ele>
        <time>2022-04-15T11:45:18Z</time>
      </trkpt>
      <trkpt lat="42.4064208940" lon="-0.7119539939">
        <ele>640.86</ele>
        <time>2022-04-15T11:45:23Z</time>
      </trkpt>
      <trkpt lat="42.4064819142" lon="-0.7119674888">
        <ele>640.86</ele>
        <time>2022-04-15T11:45:28Z</time>
      </trkpt>
      <trkpt lat="42.4066094030" lon="-0.7118890341">
        <ele>640.38</ele>
        <time>2022-04-15T11:45:40Z</time>
      </trkpt>
      <trkpt lat="42.4066682439" lon="-0.7118777186">
        <ele>640.38</ele>
        <time>2022-04-15T11:45:47Z</time>
      </trkpt>
      <trkpt lat="42.4067539908" lon="-0.7118539140">
        <ele>641.34</ele>
        <time>2022-04-15T11:45:55Z</time>
      </trkpt>
      <trkpt lat="42.4068725109" lon="-0.7118002698">
        <ele>640.38</ele>
        <time>2022-04-15T11:46:07Z</time>
      </trkpt>
      <trkpt lat="42.4068979919" lon="-0.7117672451">
        <ele>640.38</ele>
        <time>2022-04-15T11:46:09Z</time>
      </trkpt>
      <trkpt lat="42.4069083855" lon="-0.7117181271">
        <ele>640.38</ele>
        <time>2022-04-15T11:46:12Z</time>
      </trkpt>
      <trkpt lat="42.4069339503" lon="-0.7116894610">
        <ele>639.89</ele>
        <time>2022-04-15T11:46:14Z</time>
      </trkpt>
      <trkpt lat="42.4070906080" lon="-0.7117241621">
        <ele>639.41</ele>
        <time>2022-04-15T11:46:27Z</time>
      </trkpt>
      <trkpt lat="42.4071129039" lon="-0.7117230725">
        <ele>639.41</ele>
        <time>2022-04-15T11:46:29Z</time>
      </trkpt>
      <trkpt lat="42.4072263110" lon="-0.7117193006">
        <ele>641.34</ele>
        <time>2022-04-15T11:46:41Z</time>
      </trkpt>
      <trkpt lat="42.4072593357" lon="-0.7117170375">
        <ele>641.82</ele>
        <time>2022-04-15T11:46:44Z</time>
      </trkpt>
      <trkpt lat="42.4073444121" lon="-0.7116242498">
        <ele>640.38</ele>
        <time>2022-04-15T11:46:55Z</time>
      </trkpt>
      <trkpt lat="42.4074550532" lon="-0.7115746289">
        <ele>639.41</ele>
        <time>2022-04-15T11:47:08Z</time>
      </trkpt>
      <trkpt lat="42.4074527901" lon="-0.7115526684">
        <ele>639.41</ele>
        <time>2022-04-15T11:47:10Z</time>
      </trkpt>
      <trkpt lat="42.4075097032" lon="-0.7115113456">
        <ele>639.41</ele>
        <time>2022-04-15T11:47:15Z</time>
      </trkpt>
      <trkpt lat="42.4075655267" lon="-0.7115288638">
        <ele>638.93</ele>
        <time>2022-04-15T11:47:19Z</time>
      </trkpt>
      <trkpt lat="42.4076573923" lon="-0.7115744613">
        <ele>640.86</ele>
        <time>2022-04-15T11:47:26Z</time>
      </trkpt>
      <trkpt lat="42.4076816998" lon="-0.7116290275">
        <ele>641.34</ele>
        <time>2022-04-15T11:47:31Z</time>
      </trkpt>
      <trkpt lat="42.4077530298" lon="-0.7116703503">
        <ele>641.34</ele>
        <time>2022-04-15T11:47:37Z</time>
      </trkpt>
      <trkpt lat="42.4077938497" lon="-0.7117111702">
        <ele>640.38</ele>
        <time>2022-04-15T11:47:42Z</time>
      </trkpt>
      <trkpt lat="42.4078016449" lon="-0.7117120083">
        <ele>640.38</ele>
        <time>2022-04-15T11:47:43Z</time>
      </trkpt>
      <trkpt lat="42.4079158902" lon="-0.7117369026">
        <ele>639.41</ele>
        <time>2022-04-15T11:47:55Z</time>
      </trkpt>
      <trkpt lat="42.4079854600" lon="-0.7117762137">
        <ele>639.41</ele>
        <time>2022-04-15T11:48:03Z</time>
      </trkpt>
      <trkpt lat="42.4080441333" lon="-0.7117972523">
        <ele>640.86</ele>
        <time>2022-04-15T11:48:07Z</time>
      </trkpt>
      <trkpt lat="42.4080849532" lon="-0.7118618768">
        <ele>642.30</ele>
        <time>2022-04-15T11:48:14Z</time>
      </trkpt>
      <trkpt lat="42.4081498291" lon="-0.7119017746">
        <ele>644.22</ele>
        <time>2022-04-15T11:48:23Z</time>
      </trkpt>
      <trkpt lat="42.4081844464" lon="-0.7119459473">
        <ele>645.18</ele>
        <time>2022-04-15T11:48:27Z</time>
      </trkpt>
      <trkpt lat="42.4082599673" lon="-0.7121045329">
        <ele>647.59</ele>
        <time>2022-04-15T11:48:42Z</time>
      </trkpt>
      <trkpt lat="42.4082703609" lon="-0.7121204585">
        <ele>647.59</ele>
        <time>2022-04-15T11:48:43Z</time>
      </trkpt>
      <trkpt lat="42.4082957581" lon="-0.7122037746">
        <ele>648.07</ele>
        <time>2022-04-15T11:48:54Z</time>
      </trkpt>
      <trkpt lat="42.4083748832" lon="-0.7122933771">
        <ele>648.55</ele>
        <time>2022-04-15T11:49:07Z</time>
      </trkpt>
      <trkpt lat="42.4083883781" lon="-0.7123097219">
        <ele>648.55</ele>
        <time>2022-04-15T11:49:09Z</time>
      </trkpt>
      <trkpt lat="42.4084985163" lon="-0.7123635337">
        <ele>649.03</ele>
        <time>2022-04-15T11:49:22Z</time>
      </trkpt>
      <trkpt lat="42.4085402582" lon="-0.7123877574">
        <ele>648.07</ele>
        <time>2022-04-15T11:49:26Z</time>
      </trkpt>
      <trkpt lat="42.4086107500" lon="-0.7123967260">
        <ele>648.55</ele>
        <time>2022-04-15T11:49:34Z</time>
      </trkpt>
      <trkpt lat="42.4086175393" lon="-0.7123927027">
        <ele>647.10</ele>
        <time>2022-04-15T11:49:39Z</time>
      </trkpt>
      <trkpt lat="42.4086161982" lon="-0.7123779505">
        <ele>648.55</ele>
        <time>2022-04-15T11:49:43Z</time>
      </trkpt>
      <trkpt lat="42.4086982571" lon="-0.7124383841">
        <ele>647.59</ele>
        <time>2022-04-15T11:50:05Z</time>
      </trkpt>
      <trkpt lat="42.4087793101" lon="-0.7124873344">
        <ele>646.14</ele>
        <time>2022-04-15T11:50:17Z</time>
      </trkpt>
      <trkpt lat="42.4087937269" lon="-0.7124844845">
        <ele>647.59</ele>
        <time>2022-04-15T11:50:21Z</time>
      </trkpt>
      <trkpt lat="42.4088208843" lon="-0.7124975603">
        <ele>647.59</ele>
        <time>2022-04-15T11:50:26Z</time>
      </trkpt>
      <trkpt lat="42.4088596087" lon="-0.7125527132">
        <ele>648.55</ele>
        <time>2022-04-15T11:50:31Z</time>
      </trkpt>
      <trkpt lat="42.4089358002" lon="-0.7126204390">
        <ele>646.62</ele>
        <time>2022-04-15T11:50:40Z</time>
      </trkpt>
      <trkpt lat="42.4090907816" lon="-0.7126502786">
        <ele>646.14</ele>
        <time>2022-04-15T11:50:53Z</time>
      </trkpt>
      <trkpt lat="42.4091832340" lon="-0.7127044257">
        <ele>646.14</ele>
        <time>2022-04-15T11:51:07Z</time>
      </trkpt>
      <trkpt lat="42.4091836531" lon="-0.7127870712">
        <ele>646.14</ele>
        <time>2022-04-15T11:51:15Z</time>
      </trkpt>
      <trkpt lat="42.4092160910" lon="-0.7129371073">
        <ele>647.59</ele>
        <time>2022-04-15T11:51:27Z</time>
      </trkpt>
      <trkpt lat="42.4092185218" lon="-0.7130550407">
        <ele>647.59</ele>
        <time>2022-04-15T11:51:36Z</time>
      </trkpt>
      <trkpt lat="42.4091908615" lon="-0.7132568769">
        <ele>647.59</ele>
        <time>2022-04-15T11:51:50Z</time>
      </trkpt>
      <trkpt lat="42.4091865029" lon="-0.7132744789">
        <ele>647.59</ele>
        <time>2022-04-15T11:51:51Z</time>
      </trkpt>
      <trkpt lat="42.4091916159" lon="-0.7134613115">
        <ele>649.03</ele>
        <time>2022-04-15T11:52:04Z</time>
      </trkpt>
      <trkpt lat="42.4092113972" lon="-0.7135981042">
        <ele>650.95</ele>
        <time>2022-04-15T11:52:16Z</time>
      </trkpt>
      <trkpt lat="42.4092537258" lon="-0.7136732899">
        <ele>651.43</ele>
        <time>2022-04-15T11:52:25Z</time>
      </trkpt>
      <trkpt lat="42.4092764407" lon="-0.7136923168">
        <ele>651.91</ele>
        <time>2022-04-15T11:52:28Z</time>
      </trkpt>
      <trkpt lat="42.4093239661" lon="-0.7137838472">
        <ele>652.39</ele>
        <time>2022-04-15T11:52:37Z</time>
      </trkpt>
      <trkpt lat="42.4093840644" lon="-0.7138326298">
        <ele>652.87</ele>
        <time>2022-04-15T11:52:44Z</time>
      </trkpt>
      <trkpt lat="42.4094019178" lon="-0.7138504833">
        <ele>652.87</ele>
        <time>2022-04-15T11:52:46Z</time>
      </trkpt>
      <trkpt lat="42.4095299095" lon="-0.7139038760">
        <ele>653.35</ele>
        <time>2022-04-15T11:52:57Z</time>
      </trkpt>
      <trkpt lat="42.4096040055" lon="-0.7139651477">
        <ele>653.35</ele>
        <time>2022-04-15T11:53:04Z</time>
      </trkpt>
      <trkpt lat="42.4096815381" lon="-0.7140269224">
        <ele>653.83</ele>
        <time>2022-04-15T11:53:12Z</time>
      </trkpt>
      <trkpt lat="42.4097798578" lon="-0.7140897866">
        <ele>654.31</ele>
        <time>2022-04-15T11:53:27Z</time>
      </trkpt>
      <trkpt lat="42.4098604918" lon="-0.7141263317">
        <ele>654.31</ele>
        <time>2022-04-15T11:53:42Z</time>
      </trkpt>
      <trkpt lat="42.4100439716" lon="-0.7142078876">
        <ele>654.31</ele>
        <time>2022-04-15T11:53:57Z</time>
      </trkpt>
      <trkpt lat="42.4100992084" lon="-0.7142076362">
        <ele>654.31</ele>
        <time>2022-04-15T11:54:01Z</time>
      </trkpt>
      <trkpt lat="42.4102992844" lon="-0.7142241485">
        <ele>654.31</ele>
        <time>2022-04-15T11:54:18Z</time>
      </trkpt>
      <trkpt lat="42.4104686826" lon="-0.7142296806">
        <ele>655.28</ele>
        <time>2022-04-15T11:54:34Z</time>
      </trkpt>
      <trkpt lat="42.4104845244" lon="-0.7142175268">
        <ele>655.28</ele>
        <time>2022-04-15T11:54:36Z</time>
      </trkpt>
      <trkpt lat="42.4105525855" lon="-0.7141627092">
        <ele>655.76</ele>
        <time>2022-04-15T11:54:44Z</time>
      </trkpt>
      <trkpt lat="42.4106877018" lon="-0.7140456978">
        <ele>656.24</ele>
        <time>2022-04-15T11:54:56Z</time>
      </trkpt>
      <trkpt lat="42.4108137656" lon="-0.7139410079">
        <ele>657.20</ele>
        <time>2022-04-15T11:55:10Z</time>
      </trkpt>
      <trkpt lat="42.4108436890" lon="-0.7139185444">
        <ele>657.20</ele>
        <time>2022-04-15T11:55:14Z</time>
      </trkpt>
      <trkpt lat="42.4110086448" lon="-0.7138259243">
        <ele>657.20</ele>
        <time>2022-04-15T11:55:27Z</time>
      </trkpt>
      <trkpt lat="42.4110869318" lon="-0.7138129324">
        <ele>656.24</ele>
        <time>2022-04-15T11:55:35Z</time>
      </trkpt>
      <trkpt lat="42.4112158455" lon="-0.7137410995">
        <ele>655.76</ele>
        <time>2022-04-15T11:55:46Z</time>
      </trkpt>
      <trkpt lat="42.4112772010" lon="-0.7137147803">
        <ele>655.28</ele>
        <time>2022-04-15T11:55:51Z</time>
      </trkpt>
      <trkpt lat="42.4113829806" lon="-0.7135977689">
        <ele>654.31</ele>
        <time>2022-04-15T11:56:03Z</time>
      </trkpt>
      <trkpt lat="42.4114139099" lon="-0.7134525105">
        <ele>653.83</ele>
        <time>2022-04-15T11:56:08Z</time>
      </trkpt>
      <trkpt lat="42.4114674702" lon="-0.7133303024">
        <ele>652.87</ele>
        <time>2022-04-15T11:56:15Z</time>
      </trkpt>
      <trkpt lat="42.4115750100" lon="-0.7132320665">
        <ele>650.95</ele>
        <time>2022-04-15T11:56:29Z</time>
      </trkpt>
      <trkpt lat="42.4116082862" lon="-0.7132323179">
        <ele>651.91</ele>
        <time>2022-04-15T11:56:34Z</time>
      </trkpt>
      <trkpt lat="42.4116318393" lon="-0.7132368442">
        <ele>652.87</ele>
        <time>2022-04-15T11:56:36Z</time>
      </trkpt>
      <trkpt lat="42.4117851444" lon="-0.7132085972">
        <ele>653.35</ele>
        <time>2022-04-15T11:56:49Z</time>
      </trkpt>
      <trkpt lat="42.4119239487" lon="-0.7131575514">
        <ele>653.35</ele>
        <time>2022-04-15T11:57:01Z</time>
      </trkpt>
      <trkpt lat="42.4120044149" lon="-0.7131321542">
        <ele>653.35</ele>
        <time>2022-04-15T11:57:06Z</time>
      </trkpt>
      <trkpt lat="42.4121755734" lon="-0.7130563818">
        <ele>653.83</ele>
        <time>2022-04-15T11:57:21Z</time>
      </trkpt>
      <trkpt lat="42.4123366736" lon="-0.7129583135">
        <ele>652.39</ele>
        <time>2022-04-15T11:57:35Z</time>
      </trkpt>
      <trkpt lat="42.4124256056" lon="-0.7128946949">
        <ele>649.03</ele>
        <time>2022-04-15T11:57:46Z</time>
      </trkpt>
      <trkpt lat="42.4125068262" lon="-0.7128598262">
        <ele>646.62</ele>
        <time>2022-04-15T11:57:55Z</time>
      </trkpt>
      <trkpt lat="42.4125800002" lon="-0.7129035797">
        <ele>643.74</ele>
        <time>2022-04-15T11:58:08Z</time>
      </trkpt>
      <trkpt lat="42.4125956744" lon="-0.7129930984">
        <ele>643.26</ele>
        <time>2022-04-15T11:58:15Z</time>
      </trkpt>
      <trkpt lat="42.4126073252" lon="-0.7130174898">
        <ele>643.26</ele>
        <time>2022-04-15T11:58:17Z</time>
      </trkpt>
      <trkpt lat="42.4126669206" lon="-0.7131032366">
        <ele>642.78</ele>
        <time>2022-04-15T11:58:24Z</time>
      </trkpt>
      <trkpt lat="42.4126971792" lon="-0.7131368481">
        <ele>644.22</ele>
        <time>2022-04-15T11:58:27Z</time>
      </trkpt>
      <trkpt lat="42.4128433596" lon="-0.7132256124">
        <ele>643.74</ele>
        <time>2022-04-15T11:58:44Z</time>
      </trkpt>
      <trkpt lat="42.4128497299" lon="-0.7132256962">
        <ele>643.26</ele>
        <time>2022-04-15T11:58:46Z</time>
      </trkpt>
      <trkpt lat="42.4129777215" lon="-0.7132381015">
        <ele>643.26</ele>
        <time>2022-04-15T11:58:56Z</time>
      </trkpt>
      <trkpt lat="42.4131030310" lon="-0.7131973654">
        <ele>642.78</ele>
        <time>2022-04-15T11:59:07Z</time>
      </trkpt>
      <trkpt lat="42.4132629577" lon="-0.7131160609">
        <ele>641.34</ele>
        <time>2022-04-15T11:59:23Z</time>
      </trkpt>
      <trkpt lat="42.4133181944" lon="-0.7130441442">
        <ele>640.38</ele>
        <time>2022-04-15T11:59:31Z</time>
      </trkpt>
      <trkpt lat="42.4133851659" lon="-0.7130599022">
        <ele>640.38</ele>
        <time>2022-04-15T11:59:38Z</time>
      </trkpt>
      <trkpt lat="42.4134186935" lon="-0.7131043263">
        <ele>640.86</ele>
        <time>2022-04-15T11:59:43Z</time>
      </trkpt>
      <trkpt lat="42.4135405663" lon="-0.7132097706">
        <ele>640.86</ele>
        <time>2022-04-15T11:59:56Z</time>
      </trkpt>
      <trkpt lat="42.4136611819" lon="-0.7133505866">
        <ele>639.89</ele>
        <time>2022-04-15T12:00:12Z</time>
      </trkpt>
      <trkpt lat="42.4137191009" lon="-0.7134281192">
        <ele>638.93</ele>
        <time>2022-04-15T12:00:19Z</time>
      </trkpt>
      <trkpt lat="42.4137513712" lon="-0.7134216651">
        <ele>638.45</ele>
        <time>2022-04-15T12:00:23Z</time>
      </trkpt>
      <trkpt lat="42.4137775227" lon="-0.7134453021">
        <ele>637.97</ele>
        <time>2022-04-15T12:00:26Z</time>
      </trkpt>
      <trkpt lat="42.4138042610" lon="-0.7134427875">
        <ele>637.97</ele>
        <time>2022-04-15T12:00:29Z</time>
      </trkpt>
      <trkpt lat="42.4139110465" lon="-0.7135267742">
        <ele>637.01</ele>
        <time>2022-04-15T12:00:41Z</time>
      </trkpt>
      <trkpt lat="42.4140049238" lon="-0.7136182208">
        <ele>636.53</ele>
        <time>2022-04-15T12:00:52Z</time>
      </trkpt>
      <trkpt lat="42.4141166545" lon="-0.7136887126">
        <ele>637.97</ele>
        <time>2022-04-15T12:01:04Z</time>
      </trkpt>
      <trkpt lat="42.4141478352" lon="-0.7137021236">
        <ele>637.97</ele>
        <time>2022-04-15T12:01:07Z</time>
      </trkpt>
      <trkpt lat="42.4142417125" lon="-0.7136993576">
        <ele>637.97</ele>
        <time>2022-04-15T12:01:21Z</time>
      </trkpt>
      <trkpt lat="42.4143214244" lon="-0.7137589529">
        <ele>637.01</ele>
        <time>2022-04-15T12:01:33Z</time>
      </trkpt>
      <trkpt lat="42.4143693689" lon="-0.7137979288">
        <ele>636.53</ele>
        <time>2022-04-15T12:01:37Z</time>
      </trkpt>
      <trkpt lat="42.4144057464" lon="-0.7138315402">
        <ele>636.53</ele>
        <time>2022-04-15T12:01:42Z</time>
      </trkpt>
      <trkpt lat="42.4144333228" lon="-0.7139069773">
        <ele>636.53</ele>
        <time>2022-04-15T12:01:51Z</time>
      </trkpt>
      <trkpt lat="42.4145009648" lon="-0.7140076440">
        <ele>636.05</ele>
        <time>2022-04-15T12:02:02Z</time>
      </trkpt>
      <trkpt lat="42.4145515077" lon="-0.7140583545">
        <ele>636.53</ele>
        <time>2022-04-15T12:02:15Z</time>
      </trkpt>
      <trkpt lat="42.4146227539" lon="-0.7141885255">
        <ele>636.05</ele>
        <time>2022-04-15T12:02:26Z</time>
      </trkpt>
      <trkpt lat="42.4146311358" lon="-0.7141953148">
        <ele>636.05</ele>
        <time>2022-04-15T12:02:27Z</time>
      </trkpt>
      <trkpt lat="42.4146485701" lon="-0.7141943090">
        <ele>636.05</ele>
        <time>2022-04-15T12:02:28Z</time>
      </trkpt>
      <trkpt lat="42.4146670941" lon="-0.7142193709">
        <ele>636.05</ele>
        <time>2022-04-15T12:02:31Z</time>
      </trkpt>
      <trkpt lat="42.4147197325" lon="-0.7143391483">
        <ele>636.05</ele>
        <time>2022-04-15T12:02:41Z</time>
      </trkpt>
      <trkpt lat="42.4148145318" lon="-0.7145315968">
        <ele>635.09</ele>
        <time>2022-04-15T12:02:55Z</time>
      </trkpt>
      <trkpt lat="42.4148473050" lon="-0.7146564871">
        <ele>633.65</ele>
        <time>2022-04-15T12:03:08Z</time>
      </trkpt>
      <trkpt lat="42.4149292801" lon="-0.7147781085">
        <ele>632.68</ele>
        <time>2022-04-15T12:03:22Z</time>
      </trkpt>
      <trkpt lat="42.4149267655" lon="-0.7148078643">
        <ele>632.68</ele>
        <time>2022-04-15T12:03:28Z</time>
      </trkpt>
      <trkpt lat="42.4148411024" lon="-0.7147867419">
        <ele>630.76</ele>
        <time>2022-04-15T12:03:42Z</time>
      </trkpt>
      <trkpt lat="42.4148188904" lon="-0.7147908490">
        <ele>629.80</ele>
        <time>2022-04-15T12:03:46Z</time>
      </trkpt>
      <trkpt lat="42.4147399329" lon="-0.7148196828">
        <ele>628.36</ele>
        <time>2022-04-15T12:03:56Z</time>
      </trkpt>
      <trkpt lat="42.4147225823" lon="-0.7148165815">
        <ele>627.88</ele>
        <time>2022-04-15T12:04:12Z</time>
      </trkpt>
      <trkpt lat="42.4146916531" lon="-0.7148438226">
        <ele>627.40</ele>
        <time>2022-04-15T12:04:23Z</time>
      </trkpt>
      <trkpt lat="42.4147152063" lon="-0.7148995623">
        <ele>626.92</ele>
        <time>2022-04-15T12:04:37Z</time>
      </trkpt>
      <trkpt lat="42.4147362448" lon="-0.7149439026">
        <ele>626.92</ele>
        <time>2022-04-15T12:04:58Z</time>
      </trkpt>
      <trkpt lat="42.4147692695" lon="-0.7149254624">
        <ele>624.51</ele>
        <time>2022-04-15T12:05:22Z</time>
      </trkpt>
      <trkpt lat="42.4147734605" lon="-0.7149257977">
        <ele>626.44</ele>
        <time>2022-04-15T12:05:23Z</time>
      </trkpt>
      <trkpt lat="42.4147913978" lon="-0.7149216905">
        <ele>630.76</ele>
        <time>2022-04-15T12:05:31Z</time>
      </trkpt>
      <trkpt lat="42.4147881288" lon="-0.7149228640">
        <ele>630.76</ele>
        <time>2022-04-15T12:05:32Z</time>
      </trkpt>
      <trkpt lat="42.4147826806" lon="-0.7149242051">
        <ele>627.88</ele>
        <time>2022-04-15T12:05:33Z</time>
      </trkpt>
      <trkpt lat="42.4147262704" lon="-0.7149225287">
        <ele>626.92</ele>
        <time>2022-04-15T12:06:01Z</time>
      </trkpt>
      <trkpt lat="42.4147370830" lon="-0.7149190921">
        <ele>626.44</ele>
        <time>2022-04-15T12:06:32Z</time>
      </trkpt>
      <trkpt lat="42.4146989454" lon="-0.7149468362">
        <ele>626.44</ele>
        <time>2022-04-15T12:07:07Z</time>
      </trkpt>
      <trkpt lat="42.4147148710" lon="-0.7149025798">
        <ele>626.92</ele>
        <time>2022-04-15T12:07:49Z</time>
      </trkpt>
      <trkpt lat="42.4147243425" lon="-0.7149053458">
        <ele>626.92</ele>
        <time>2022-04-15T12:08:21Z</time>
      </trkpt>
      <trkpt lat="42.4147162121" lon="-0.7149194274">
        <ele>626.92</ele>
        <time>2022-04-15T12:08:52Z</time>
      </trkpt>
      <trkpt lat="42.4147722870" lon="-0.7149293181">
        <ele>626.92</ele>
        <time>2022-04-15T12:09:36Z</time>
      </trkpt>
      <trkpt lat="42.4147458840" lon="-0.7148767635">
        <ele>626.92</ele>
        <time>2022-04-15T12:10:02Z</time>
      </trkpt>
      <trkpt lat="42.4147262704" lon="-0.7148528751">
        <ele>627.88</ele>
        <time>2022-04-15T12:10:18Z</time>
      </trkpt>
      <trkpt lat="42.4147268571" lon="-0.7148519531">
        <ele>625.47</ele>
        <time>2022-04-15T12:10:22Z</time>
      </trkpt>
      <trkpt lat="42.4147267733" lon="-0.7148525398">
        <ele>629.32</ele>
        <time>2022-04-15T12:10:23Z</time>
      </trkpt>
      <trkpt lat="42.4147279467" lon="-0.7148549706">
        <ele>629.32</ele>
        <time>2022-04-15T12:10:24Z</time>
      </trkpt>
      <trkpt lat="42.4147308804" lon="-0.7148599159">
        <ele>627.88</ele>
        <time>2022-04-15T12:10:26Z</time>
      </trkpt>
      <trkpt lat="42.4147187266" lon="-0.7149336766">
        <ele>627.40</ele>
        <time>2022-04-15T12:11:02Z</time>
      </trkpt>
      <trkpt lat="42.4147262704" lon="-0.7148622628">
        <ele>627.40</ele>
        <time>2022-04-15T12:11:32Z</time>
      </trkpt>
      <trkpt lat="42.4147221632" lon="-0.7148883305">
        <ele>627.88</ele>
        <time>2022-04-15T12:12:06Z</time>
      </trkpt>
      <trkpt lat="42.4147129431" lon="-0.7149318326">
        <ele>627.88</ele>
        <time>2022-04-15T12:12:41Z</time>
      </trkpt>
      <trkpt lat="42.4147347361" lon="-0.7148875762">
        <ele>627.88</ele>
        <time>2022-04-15T12:13:15Z</time>
      </trkpt>
      <trkpt lat="42.4147456326" lon="-0.7148779370">
        <ele>629.32</ele>
        <time>2022-04-15T12:13:22Z</time>
      </trkpt>
      <trkpt lat="42.4147463031" lon="-0.7149000652">
        <ele>628.84</ele>
        <time>2022-04-15T12:13:44Z</time>
      </trkpt>
      <trkpt lat="42.4147692695" lon="-0.7149180863">
        <ele>629.80</ele>
        <time>2022-04-15T12:13:59Z</time>
      </trkpt>
      <trkpt lat="42.4148194771" lon="-0.7149101235">
        <ele>629.80</ele>
        <time>2022-04-15T12:14:10Z</time>
      </trkpt>
      <trkpt lat="42.4148284458" lon="-0.7148874085">
        <ele>631.24</ele>
        <time>2022-04-15T12:14:12Z</time>
      </trkpt>
      <trkpt lat="42.4148469698" lon="-0.7149352692">
        <ele>633.65</ele>
        <time>2022-04-15T12:14:26Z</time>
      </trkpt>
      <trkpt lat="42.4149081577" lon="-0.7148597483">
        <ele>635.57</ele>
        <time>2022-04-15T12:14:36Z</time>
      </trkpt>
      <trkpt lat="42.4150410108" lon="-0.7149169967">
        <ele>637.49</ele>
        <time>2022-04-15T12:14:53Z</time>
      </trkpt>
      <trkpt lat="42.4150605407" lon="-0.7149185054">
        <ele>637.97</ele>
        <time>2022-04-15T12:14:55Z</time>
      </trkpt>
      <trkpt lat="42.4151108321" lon="-0.7149193436">
        <ele>638.45</ele>
        <time>2022-04-15T12:15:00Z</time>
      </trkpt>
      <trkpt lat="42.4151574355" lon="-0.7149309106">
        <ele>638.93</ele>
        <time>2022-04-15T12:15:04Z</time>
      </trkpt>
      <trkpt lat="42.4153165240" lon="-0.7149097044">
        <ele>639.41</ele>
        <time>2022-04-15T12:15:18Z</time>
      </trkpt>
      <trkpt lat="42.4154908676" lon="-0.7147866581">
        <ele>639.41</ele>
        <time>2022-04-15T12:15:32Z</time>
      </trkpt>
      <trkpt lat="42.4155095592" lon="-0.7147682179">
        <ele>639.41</ele>
        <time>2022-04-15T12:15:34Z</time>
      </trkpt>
      <trkpt lat="42.4156313483" lon="-0.7147351094">
        <ele>639.41</ele>
        <time>2022-04-15T12:15:46Z</time>
      </trkpt>
      <trkpt lat="42.4158082064" lon="-0.7146938704">
        <ele>640.38</ele>
        <time>2022-04-15T12:16:02Z</time>
      </trkpt>
      <trkpt lat="42.4159631040" lon="-0.7146382984">
        <ele>640.86</ele>
        <time>2022-04-15T12:16:16Z</time>
      </trkpt>
      <trkpt lat="42.4161508586" lon="-0.7145123184">
        <ele>641.34</ele>
        <time>2022-04-15T12:16:30Z</time>
      </trkpt>
      <trkpt lat="42.4162537046" lon="-0.7144933753">
        <ele>640.38</ele>
        <time>2022-04-15T12:16:39Z</time>
      </trkpt>
      <trkpt lat="42.4163762480" lon="-0.7144895196">
        <ele>639.41</ele>
        <time>2022-04-15T12:16:52Z</time>
      </trkpt>
      <trkpt lat="42.4165350851" lon="-0.7145681418">
        <ele>639.41</ele>
        <time>2022-04-15T12:17:06Z</time>
      </trkpt>
      <trkpt lat="42.4165909924" lon="-0.7145769428">
        <ele>639.41</ele>
        <time>2022-04-15T12:17:10Z</time>
      </trkpt>
      <trkpt lat="42.4166989513" lon="-0.7145926170">
        <ele>639.41</ele>
        <time>2022-04-15T12:17:18Z</time>
      </trkpt>
      <trkpt lat="42.4168358278" lon="-0.7146393042">
        <ele>640.86</ele>
        <time>2022-04-15T12:17:29Z</time>
      </trkpt>
      <trkpt lat="42.4168717023" lon="-0.7146392204">
        <ele>640.86</ele>
        <time>2022-04-15T12:17:32Z</time>
      </trkpt>
      <trkpt lat="42.4168936629" lon="-0.7146550622">
        <ele>640.86</ele>
        <time>2022-04-15T12:17:34Z</time>
      </trkpt>
      <trkpt lat="42.4169318844" lon="-0.7146601751">
        <ele>640.86</ele>
        <time>2022-04-15T12:17:38Z</time>
      </trkpt>
      <trkpt lat="42.4169757217" lon="-0.7146735024">
        <ele>640.86</ele>
        <time>2022-04-15T12:17:41Z</time>
      </trkpt>
      <trkpt lat="42.4171400070" lon="-0.7147914357">
        <ele>641.34</ele>
        <time>2022-04-15T12:17:55Z</time>
      </trkpt>
      <trkpt lat="42.4171690084" lon="-0.7147933636">
        <ele>641.34</ele>
        <time>2022-04-15T12:17:57Z</time>
      </trkpt>
      <trkpt lat="42.4171830062" lon="-0.7147986442">
        <ele>641.34</ele>
        <time>2022-04-15T12:17:58Z</time>
      </trkpt>
      <trkpt lat="42.4173153564" lon="-0.7148405537">
        <ele>641.82</ele>
        <time>2022-04-15T12:18:08Z</time>
      </trkpt>
      <trkpt lat="42.4175021891" lon="-0.7148560602">
        <ele>642.78</ele>
        <time>2022-04-15T12:18:24Z</time>
      </trkpt>
      <trkpt lat="42.4176473636" lon="-0.7148739975">
        <ele>643.74</ele>
        <time>2022-04-15T12:18:36Z</time>
      </trkpt>
      <trkpt lat="42.4177051987" lon="-0.7148789428">
        <ele>643.74</ele>
        <time>2022-04-15T12:18:41Z</time>
      </trkpt>
      <trkpt lat="42.4179055262" lon="-0.7148183417">
        <ele>643.74</ele>
        <time>2022-04-15T12:18:55Z</time>
      </trkpt>
      <trkpt lat="42.4179495312" lon="-0.7147936150">
        <ele>643.74</ele>
        <time>2022-04-15T12:18:58Z</time>
      </trkpt>
      <trkpt lat="42.4180470128" lon="-0.7146994863">
        <ele>644.22</ele>
        <time>2022-04-15T12:19:04Z</time>
      </trkpt>
      <trkpt lat="42.4181792792" lon="-0.7144395635">
        <ele>644.70</ele>
        <time>2022-04-15T12:19:19Z</time>
      </trkpt>
      <trkpt lat="42.4181847274" lon="-0.7144360431">
        <ele>644.70</ele>
        <time>2022-04-15T12:19:20Z</time>
      </trkpt>
      <trkpt lat="42.4181957077" lon="-0.7144035213">
        <ele>644.70</ele>
        <time>2022-04-15T12:19:22Z</time>
      </trkpt>
      <trkpt lat="42.4182092026" lon="-0.7142705005">
        <ele>645.18</ele>
        <time>2022-04-15T12:19:30Z</time>
      </trkpt>
      <trkpt lat="42.4182135612" lon="-0.7140711788">
        <ele>644.22</ele>
        <time>2022-04-15T12:19:41Z</time>
      </trkpt>
      <trkpt lat="42.4182118010" lon="-0.7139349729">
        <ele>645.66</ele>
        <time>2022-04-15T12:19:56Z</time>
      </trkpt>
      <trkpt lat="42.4181786086" lon="-0.7139027026">
        <ele>644.70</ele>
        <time>2022-04-15T12:20:08Z</time>
      </trkpt>
      <trkpt lat="42.4181747530" lon="-0.7138943207">
        <ele>646.14</ele>
        <time>2022-04-15T12:20:12Z</time>
      </trkpt>
      <trkpt lat="42.4181802012" lon="-0.7138269302">
        <ele>646.14</ele>
        <time>2022-04-15T12:20:16Z</time>
      </trkpt>
      <trkpt lat="42.4181869905" lon="-0.7138010301">
        <ele>646.14</ele>
        <time>2022-04-15T12:20:18Z</time>
      </trkpt>
      <trkpt lat="42.4181944504" lon="-0.7137203123">
        <ele>644.70</ele>
        <time>2022-04-15T12:20:23Z</time>
      </trkpt>
      <trkpt lat="42.4181949534" lon="-0.7136274409">
        <ele>645.18</ele>
        <time>2022-04-15T12:20:29Z</time>
      </trkpt>
      <trkpt lat="42.4181997310" lon="-0.7136203162">
        <ele>645.18</ele>
        <time>2022-04-15T12:20:30Z</time>
      </trkpt>
      <trkpt lat="42.4182388745" lon="-0.7135079149">
        <ele>645.18</ele>
        <time>2022-04-15T12:20:42Z</time>
      </trkpt>
      <trkpt lat="42.4182377011" lon="-0.7135000359">
        <ele>643.74</ele>
        <time>2022-04-15T12:20:43Z</time>
      </trkpt>
      <trkpt lat="42.4182335939" lon="-0.7134794164">
        <ele>645.18</ele>
        <time>2022-04-15T12:20:45Z</time>
      </trkpt>
      <trkpt lat="42.4182339292" lon="-0.7134660054">
        <ele>645.18</ele>
        <time>2022-04-15T12:20:46Z</time>
      </trkpt>
      <trkpt lat="42.4182254635" lon="-0.7132213376">
        <ele>647.10</ele>
        <time>2022-04-15T12:21:04Z</time>
      </trkpt>
      <trkpt lat="42.4182240386" lon="-0.7131416257">
        <ele>647.59</ele>
        <time>2022-04-15T12:21:09Z</time>
      </trkpt>
      <trkpt lat="42.4182021618" lon="-0.7129988819">
        <ele>647.59</ele>
        <time>2022-04-15T12:21:18Z</time>
      </trkpt>
      <trkpt lat="42.4181942828" lon="-0.7129609957">
        <ele>648.07</ele>
        <time>2022-04-15T12:21:20Z</time>
      </trkpt>
      <trkpt lat="42.4182086997" lon="-0.7127001509">
        <ele>649.03</ele>
        <time>2022-04-15T12:21:35Z</time>
      </trkpt>
      <trkpt lat="42.4182850588" lon="-0.7124636974">
        <ele>650.47</ele>
        <time>2022-04-15T12:21:49Z</time>
      </trkpt>
      <trkpt lat="42.4183298182" lon="-0.7124017552">
        <ele>650.47</ele>
        <time>2022-04-15T12:21:56Z</time>
      </trkpt>
      <trkpt lat="42.4184423033" lon="-0.7122523058">
        <ele>650.95</ele>
        <time>2022-04-15T12:22:10Z</time>
      </trkpt>
      <trkpt lat="42.4185662717" lon="-0.7121483702">
        <ele>650.95</ele>
        <time>2022-04-15T12:22:24Z</time>
      </trkpt>
      <trkpt lat="42.4187374301" lon="-0.7120643836">
        <ele>652.39</ele>
        <time>2022-04-15T12:22:39Z</time>
      </trkpt>
      <trkpt lat="42.4188823532" lon="-0.7120685745">
        <ele>653.83</ele>
        <time>2022-04-15T12:22:52Z</time>
      </trkpt>
      <trkpt lat="42.4191040546" lon="-0.7120788842">
        <ele>655.28</ele>
        <time>2022-04-15T12:23:07Z</time>
      </trkpt>
      <trkpt lat="42.4192477204" lon="-0.7120267488">
        <ele>656.72</ele>
        <time>2022-04-15T12:23:23Z</time>
      </trkpt>
      <trkpt lat="42.4193888716" lon="-0.7119631302">
        <ele>657.68</ele>
        <time>2022-04-15T12:23:36Z</time>
      </trkpt>
      <trkpt lat="42.4195703398" lon="-0.7118890341">
        <ele>657.68</ele>
        <time>2022-04-15T12:23:50Z</time>
      </trkpt>
      <trkpt lat="42.4197016004" lon="-0.7118350547">
        <ele>655.28</ele>
        <time>2022-04-15T12:24:04Z</time>
      </trkpt>
      <trkpt lat="42.4198428355" lon="-0.7117899600">
        <ele>654.80</ele>
        <time>2022-04-15T12:24:16Z</time>
      </trkpt>
      <trkpt lat="42.4201677181" lon="-0.7116386667">
        <ele>654.80</ele>
        <time>2022-04-15T12:24:29Z</time>
      </trkpt>
      <trkpt lat="42.4202572368" lon="-0.7115346473">
        <ele>654.80</ele>
        <time>2022-04-15T12:24:42Z</time>
      </trkpt>
      <trkpt lat="42.4203495216" lon="-0.7113594655">
        <ele>656.72</ele>
        <time>2022-04-15T12:24:56Z</time>
      </trkpt>
      <trkpt lat="42.4204459134" lon="-0.7112178952">
        <ele>656.24</ele>
        <time>2022-04-15T12:25:11Z</time>
      </trkpt>
      <trkpt lat="42.4204738252" lon="-0.7111754827">
        <ele>657.20</ele>
        <time>2022-04-15T12:25:15Z</time>
      </trkpt>
      <trkpt lat="42.4206352606" lon="-0.7110345829">
        <ele>657.68</ele>
        <time>2022-04-15T12:25:28Z</time>
      </trkpt>
      <trkpt lat="42.4207735620" lon="-0.7109506801">
        <ele>658.64</ele>
        <time>2022-04-15T12:25:43Z</time>
      </trkpt>
      <trkpt lat="42.4209278729" lon="-0.7108696271">
        <ele>659.12</ele>
        <time>2022-04-15T12:25:58Z</time>
      </trkpt>
      <trkpt lat="42.4209997058" lon="-0.7108759973">
        <ele>659.12</ele>
        <time>2022-04-15T12:26:03Z</time>
      </trkpt>
      <trkpt lat="42.4211751390" lon="-0.7109366823">
        <ele>660.56</ele>
        <time>2022-04-15T12:26:18Z</time>
      </trkpt>
      <trkpt lat="42.4212681782" lon="-0.7109752391">
        <ele>661.04</ele>
        <time>2022-04-15T12:26:26Z</time>
      </trkpt>
      <trkpt lat="42.4213084113" lon="-0.7110039890">
        <ele>661.52</ele>
        <time>2022-04-15T12:26:29Z</time>
      </trkpt>
      <trkpt lat="42.4214702658" lon="-0.7110973634">
        <ele>662.01</ele>
        <time>2022-04-15T12:26:42Z</time>
      </trkpt>
      <trkpt lat="42.4216075614" lon="-0.7112019695">
        <ele>662.97</ele>
        <time>2022-04-15T12:26:56Z</time>
      </trkpt>
      <trkpt lat="42.4216261692" lon="-0.7112121116">
        <ele>662.97</ele>
        <time>2022-04-15T12:26:57Z</time>
      </trkpt>
      <trkpt lat="42.4216386583" lon="-0.7112126146">
        <ele>662.97</ele>
        <time>2022-04-15T12:26:58Z</time>
      </trkpt>
      <trkpt lat="42.4217543285" lon="-0.7112712041">
        <ele>662.97</ele>
        <time>2022-04-15T12:27:09Z</time>
      </trkpt>
      <trkpt lat="42.4218976591" lon="-0.7113225013">
        <ele>661.52</ele>
        <time>2022-04-15T12:27:20Z</time>
      </trkpt>
      <trkpt lat="42.4220434204" lon="-0.7113546040">
        <ele>661.52</ele>
        <time>2022-04-15T12:27:32Z</time>
      </trkpt>
      <trkpt lat="42.4220769480" lon="-0.7113608066">
        <ele>661.52</ele>
        <time>2022-04-15T12:27:34Z</time>
      </trkpt>
      <trkpt lat="42.4221083801" lon="-0.7113618962">
        <ele>661.52</ele>
        <time>2022-04-15T12:27:36Z</time>
      </trkpt>
      <trkpt lat="42.4222824723" lon="-0.7114298735">
        <ele>661.52</ele>
        <time>2022-04-15T12:27:51Z</time>
      </trkpt>
      <trkpt lat="42.4224102963" lon="-0.7114823442">
        <ele>661.52</ele>
        <time>2022-04-15T12:28:04Z</time>
      </trkpt>
      <trkpt lat="42.4226094503" lon="-0.7115018740">
        <ele>661.52</ele>
        <time>2022-04-15T12:28:16Z</time>
      </trkpt>
      <trkpt lat="42.4227045011" lon="-0.7115111779">
        <ele>661.52</ele>
        <time>2022-04-15T12:28:24Z</time>
      </trkpt>
      <trkpt lat="42.4227342568" lon="-0.7115012873">
        <ele>661.52</ele>
        <time>2022-04-15T12:28:26Z</time>
      </trkpt>
      <trkpt lat="42.4228251167" lon="-0.7114714477">
        <ele>661.52</ele>
        <time>2022-04-15T12:28:32Z</time>
      </trkpt>
      <trkpt lat="42.4228717200" lon="-0.7114670053">
        <ele>661.52</ele>
        <time>2022-04-15T12:28:35Z</time>
      </trkpt>
      <trkpt lat="42.4229552038" lon="-0.7114720345">
        <ele>661.04</ele>
        <time>2022-04-15T12:28:45Z</time>
      </trkpt>
      <trkpt lat="42.4229936767" lon="-0.7114765607">
        <ele>660.56</ele>
        <time>2022-04-15T12:28:49Z</time>
      </trkpt>
      <trkpt lat="42.4231189862" lon="-0.7115100883">
        <ele>660.56</ele>
        <time>2022-04-15T12:28:57Z</time>
      </trkpt>
      <trkpt lat="42.4232664239" lon="-0.7116077375">
        <ele>660.56</ele>
        <time>2022-04-15T12:29:13Z</time>
      </trkpt>
      <trkpt lat="42.4232942518" lon="-0.7116396725">
        <ele>660.56</ele>
        <time>2022-04-15T12:29:16Z</time>
      </trkpt>
      <trkpt lat="42.4234595429" lon="-0.7117675804">
        <ele>660.56</ele>
        <time>2022-04-15T12:29:31Z</time>
      </trkpt>
      <trkpt lat="42.4236037116" lon="-0.7119278423">
        <ele>660.56</ele>
        <time>2022-04-15T12:29:45Z</time>
      </trkpt>
      <trkpt lat="42.4237404205" lon="-0.7121036109">
        <ele>661.52</ele>
        <time>2022-04-15T12:29:59Z</time>
      </trkpt>
      <trkpt lat="42.4238495529" lon="-0.7122410741">
        <ele>662.01</ele>
        <time>2022-04-15T12:30:12Z</time>
      </trkpt>
      <trkpt lat="42.4239397421" lon="-0.7123807166">
        <ele>662.49</ele>
        <time>2022-04-15T12:30:23Z</time>
      </trkpt>
      <trkpt lat="42.4240687396" lon="-0.7125021704">
        <ele>663.45</ele>
        <time>2022-04-15T12:30:35Z</time>
      </trkpt>
      <trkpt lat="42.4240989145" lon="-0.7125166710">
        <ele>663.93</ele>
        <time>2022-04-15T12:30:38Z</time>
      </trkpt>
      <trkpt lat="42.4242573325" lon="-0.7125884201">
        <ele>665.37</ele>
        <time>2022-04-15T12:30:53Z</time>
      </trkpt>
      <trkpt lat="42.4244358670" lon="-0.7125996519">
        <ele>666.81</ele>
        <time>2022-04-15T12:31:10Z</time>
      </trkpt>
      <trkpt lat="42.4245909322" lon="-0.7125688903">
        <ele>668.73</ele>
        <time>2022-04-15T12:31:23Z</time>
      </trkpt>
      <trkpt lat="42.4247666169" lon="-0.7125719078">
        <ele>670.18</ele>
        <time>2022-04-15T12:31:38Z</time>
      </trkpt>
      <trkpt lat="42.4249833729" lon="-0.7126578223">
        <ele>670.66</ele>
        <time>2022-04-15T12:31:51Z</time>
      </trkpt>
      <trkpt lat="42.4251324032" lon="-0.7126921881">
        <ele>671.62</ele>
        <time>2022-04-15T12:32:04Z</time>
      </trkpt>
      <trkpt lat="42.4252868816" lon="-0.7126531284">
        <ele>672.10</ele>
        <time>2022-04-15T12:32:18Z</time>
      </trkpt>
      <trkpt lat="42.4254443776" lon="-0.7126175892">
        <ele>673.54</ele>
        <time>2022-04-15T12:32:35Z</time>
      </trkpt>
      <trkpt lat="42.4255076610" lon="-0.7125913538">
        <ele>671.62</ele>
        <time>2022-04-15T12:32:41Z</time>
      </trkpt>
      <trkpt lat="42.4256940745" lon="-0.7124838140">
        <ele>670.18</ele>
        <time>2022-04-15T12:32:57Z</time>
      </trkpt>
      <trkpt lat="42.4258352257" lon="-0.7123895176">
        <ele>669.70</ele>
        <time>2022-04-15T12:33:10Z</time>
      </trkpt>
      <trkpt lat="42.4258829188" lon="-0.7123553194">
        <ele>670.18</ele>
        <time>2022-04-15T12:33:15Z</time>
      </trkpt>
      <trkpt lat="42.4260057136" lon="-0.7122744340">
        <ele>670.18</ele>
        <time>2022-04-15T12:33:29Z</time>
      </trkpt>
      <trkpt lat="42.4262361322" lon="-0.7120795548">
        <ele>670.18</ele>
        <time>2022-04-15T12:33:44Z</time>
      </trkpt>
      <trkpt lat="42.4263559096" lon="-0.7118924707">
        <ele>670.18</ele>
        <time>2022-04-15T12:33:58Z</time>
      </trkpt>
      <trkpt lat="42.4264901038" lon="-0.7117618807">
        <ele>671.14</ele>
        <time>2022-04-15T12:34:11Z</time>
      </trkpt>
      <trkpt lat="42.4265180156" lon="-0.7117400039">
        <ele>671.14</ele>
        <time>2022-04-15T12:34:14Z</time>
      </trkpt>
      <trkpt lat="42.4266558141" lon="-0.7115943264">
        <ele>671.62</ele>
        <time>2022-04-15T12:34:28Z</time>
      </trkpt>
      <trkpt lat="42.4266628549" lon="-0.7115872018">
        <ele>671.62</ele>
        <time>2022-04-15T12:34:29Z</time>
      </trkpt>
      <trkpt lat="42.4267816264" lon="-0.7114822604">
        <ele>671.62</ele>
        <time>2022-04-15T12:34:42Z</time>
      </trkpt>
      <trkpt lat="42.4268898368" lon="-0.7114265207">
        <ele>671.62</ele>
        <time>2022-04-15T12:34:52Z</time>
      </trkpt>
      <trkpt lat="42.4270593189" lon="-0.7112997025">
        <ele>669.70</ele>
        <time>2022-04-15T12:35:06Z</time>
      </trkpt>
      <trkpt lat="42.4271371029" lon="-0.7112106867">
        <ele>669.70</ele>
        <time>2022-04-15T12:35:16Z</time>
      </trkpt>
      <trkpt lat="42.4271845445" lon="-0.7111648377">
        <ele>669.70</ele>
        <time>2022-04-15T12:35:20Z</time>
      </trkpt>
      <trkpt lat="42.4272802658" lon="-0.7111153845">
        <ele>669.70</ele>
        <time>2022-04-15T12:35:30Z</time>
      </trkpt>
      <trkpt lat="42.4274530169" lon="-0.7110725529">
        <ele>671.14</ele>
        <time>2022-04-15T12:35:45Z</time>
      </trkpt>
      <trkpt lat="42.4275041465" lon="-0.7110586390">
        <ele>671.14</ele>
        <time>2022-04-15T12:35:49Z</time>
      </trkpt>
      <trkpt lat="42.4275417812" lon="-0.7110344991">
        <ele>671.14</ele>
        <time>2022-04-15T12:35:52Z</time>
      </trkpt>
      <trkpt lat="42.4277010374" lon="-0.7109785918">
        <ele>671.14</ele>
        <time>2022-04-15T12:36:05Z</time>
      </trkpt>
      <trkpt lat="42.4277376663" lon="-0.7109646779">
        <ele>671.14</ele>
        <time>2022-04-15T12:36:08Z</time>
      </trkpt>
      <trkpt lat="42.4277883768" lon="-0.7109314855">
        <ele>669.70</ele>
        <time>2022-04-15T12:36:13Z</time>
      </trkpt>
      <trkpt lat="42.4278769735" lon="-0.7108968683">
        <ele>669.22</ele>
        <time>2022-04-15T12:36:22Z</time>
      </trkpt>
      <trkpt lat="42.4279602896" lon="-0.7108485885">
        <ele>668.73</ele>
        <time>2022-04-15T12:36:28Z</time>
      </trkpt>
      <trkpt lat="42.4280918017" lon="-0.7108288072">
        <ele>667.77</ele>
        <time>2022-04-15T12:36:41Z</time>
      </trkpt>
      <trkpt lat="42.4282601941" lon="-0.7107754145">
        <ele>666.81</ele>
        <time>2022-04-15T12:36:54Z</time>
      </trkpt>
      <trkpt lat="42.4283681531" lon="-0.7106409688">
        <ele>666.81</ele>
        <time>2022-04-15T12:37:08Z</time>
      </trkpt>
      <trkpt lat="42.4284242280" lon="-0.7106355205">
        <ele>666.81</ele>
        <time>2022-04-15T12:37:15Z</time>
      </trkpt>
      <trkpt lat="42.4285248946" lon="-0.7106737420">
        <ele>669.22</ele>
        <time>2022-04-15T12:37:30Z</time>
      </trkpt>
      <trkpt lat="42.4284836557" lon="-0.7106488477">
        <ele>669.22</ele>
        <time>2022-04-15T12:37:46Z</time>
      </trkpt>
      <trkpt lat="42.4284816440" lon="-0.7106436510">
        <ele>669.22</ele>
        <time>2022-04-15T12:37:47Z</time>
      </trkpt>
      <trkpt lat="42.4284803029" lon="-0.7106211875">
        <ele>667.77</ele>
        <time>2022-04-15T12:37:48Z</time>
      </trkpt>
      <trkpt lat="42.4284848291" lon="-0.7106086146">
        <ele>667.77</ele>
        <time>2022-04-15T12:37:49Z</time>
      </trkpt>
      <trkpt lat="42.4286058638" lon="-0.7104299963">
        <ele>667.77</ele>
        <time>2022-04-15T12:38:04Z</time>
      </trkpt>
      <trkpt lat="42.4287906848" lon="-0.7103251386">
        <ele>667.77</ele>
        <time>2022-04-15T12:38:19Z</time>
      </trkpt>
      <trkpt lat="42.4288119748" lon="-0.7103137393">
        <ele>667.77</ele>
        <time>2022-04-15T12:38:21Z</time>
      </trkpt>
      <trkpt lat="42.4289542995" lon="-0.7102290820">
        <ele>667.77</ele>
        <time>2022-04-15T12:38:32Z</time>
      </trkpt>
      <trkpt lat="42.4290782679" lon="-0.7101409044">
        <ele>667.77</ele>
        <time>2022-04-15T12:38:43Z</time>
      </trkpt>
      <trkpt lat="42.4291421380" lon="-0.7100755256">
        <ele>669.22</ele>
        <time>2022-04-15T12:38:49Z</time>
      </trkpt>
      <trkpt lat="42.4293158948" lon="-0.7100150082">
        <ele>669.22</ele>
        <time>2022-04-15T12:39:04Z</time>
      </trkpt>
      <trkpt lat="42.4294376839" lon="-0.7099579275">
        <ele>670.66</ele>
        <time>2022-04-15T12:39:16Z</time>
      </trkpt>
      <trkpt lat="42.4295984488" lon="-0.7098943088">
        <ele>671.62</ele>
        <time>2022-04-15T12:39:29Z</time>
      </trkpt>
      <trkpt lat="42.4297132809" lon="-0.7097916305">
        <ele>672.10</ele>
        <time>2022-04-15T12:39:43Z</time>
      </trkpt>
      <trkpt lat="42.4298236705" lon="-0.7096664887">
        <ele>672.10</ele>
        <time>2022-04-15T12:39:54Z</time>
      </trkpt>
      <trkpt lat="42.4299542606" lon="-0.7095543388">
        <ele>672.10</ele>
        <time>2022-04-15T12:40:05Z</time>
      </trkpt>
      <trkpt lat="42.4299642351" lon="-0.7095308695">
        <ele>672.10</ele>
        <time>2022-04-15T12:40:07Z</time>
      </trkpt>
      <trkpt lat="42.4300172087" lon="-0.7094362378">
        <ele>672.10</ele>
        <time>2022-04-15T12:40:15Z</time>
      </trkpt>
      <trkpt lat="42.4300676677" lon="-0.7093551010">
        <ele>672.10</ele>
        <time>2022-04-15T12:40:21Z</time>
      </trkpt>
      <trkpt lat="42.4300921429" lon="-0.7091575395">
        <ele>672.10</ele>
        <time>2022-04-15T12:40:33Z</time>
      </trkpt>
      <trkpt lat="42.4300955795" lon="-0.7090055756">
        <ele>673.06</ele>
        <time>2022-04-15T12:40:45Z</time>
      </trkpt>
      <trkpt lat="42.4300903827" lon="-0.7089650910">
        <ele>672.58</ele>
        <time>2022-04-15T12:40:47Z</time>
      </trkpt>
      <trkpt lat="42.4300758820" lon="-0.7088744827">
        <ele>672.58</ele>
        <time>2022-04-15T12:40:53Z</time>
      </trkpt>
      <trkpt lat="42.4300906342" lon="-0.7087358460">
        <ele>672.58</ele>
        <time>2022-04-15T12:41:02Z</time>
      </trkpt>
      <trkpt lat="42.4300252553" lon="-0.7084103767">
        <ele>673.06</ele>
        <time>2022-04-15T12:41:20Z</time>
      </trkpt>
      <trkpt lat="42.4300266802" lon="-0.7081794553">
        <ele>674.02</ele>
        <time>2022-04-15T12:41:34Z</time>
      </trkpt>
      <trkpt lat="42.4300488085" lon="-0.7080197800">
        <ele>676.42</ele>
        <time>2022-04-15T12:41:49Z</time>
      </trkpt>
      <trkpt lat="42.4300844315" lon="-0.7078952249">
        <ele>677.39</ele>
        <time>2022-04-15T12:42:01Z</time>
      </trkpt>
      <trkpt lat="42.4301578570" lon="-0.7077962346">
        <ele>677.87</ele>
        <time>2022-04-15T12:42:11Z</time>
      </trkpt>
      <trkpt lat="42.4301897082" lon="-0.7077474520">
        <ele>678.83</ele>
        <time>2022-04-15T12:42:14Z</time>
      </trkpt>
      <trkpt lat="42.4303287640" lon="-0.7075275108">
        <ele>679.79</ele>
        <time>2022-04-15T12:42:29Z</time>
      </trkpt>
      <trkpt lat="42.4304374773" lon="-0.7073422708">
        <ele>679.79</ele>
        <time>2022-04-15T12:42:44Z</time>
      </trkpt>
      <trkpt lat="42.4304917920" lon="-0.7073095813">
        <ele>679.79</ele>
        <time>2022-04-15T12:42:52Z</time>
      </trkpt>
      <trkpt lat="42.4305280019" lon="-0.7072942425">
        <ele>679.79</ele>
        <time>2022-04-15T12:42:55Z</time>
      </trkpt>
      <trkpt lat="42.4305421673" lon="-0.7072730362">
        <ele>678.35</ele>
        <time>2022-04-15T12:42:56Z</time>
      </trkpt>
      <trkpt lat="42.4306221306" lon="-0.7071768958">
        <ele>677.39</ele>
        <time>2022-04-15T12:43:04Z</time>
      </trkpt>
      <trkpt lat="42.4306823127" lon="-0.7070037257">
        <ele>676.42</ele>
        <time>2022-04-15T12:43:17Z</time>
      </trkpt>
      <trkpt lat="42.4307272397" lon="-0.7069334015">
        <ele>675.94</ele>
        <time>2022-04-15T12:43:23Z</time>
      </trkpt>
      <trkpt lat="42.4308424909" lon="-0.7067650091">
        <ele>675.94</ele>
        <time>2022-04-15T12:43:37Z</time>
      </trkpt>
      <trkpt lat="42.4309566524" lon="-0.7066205889">
        <ele>677.39</ele>
        <time>2022-04-15T12:43:47Z</time>
      </trkpt>
      <trkpt lat="42.4310612585" lon="-0.7065132167">
        <ele>677.39</ele>
        <time>2022-04-15T12:43:59Z</time>
      </trkpt>
      <trkpt lat="42.4311537948" lon="-0.7063616719">
        <ele>677.39</ele>
        <time>2022-04-15T12:44:12Z</time>
      </trkpt>
      <trkpt lat="42.4312074389" lon="-0.7063031662">
        <ele>677.87</ele>
        <time>2022-04-15T12:44:17Z</time>
      </trkpt>
      <trkpt lat="42.4312818702" lon="-0.7061890885">
        <ele>678.35</ele>
        <time>2022-04-15T12:44:28Z</time>
      </trkpt>
      <trkpt lat="42.4313070159" lon="-0.7059581671">
        <ele>678.83</ele>
        <time>2022-04-15T12:44:39Z</time>
      </trkpt>
      <trkpt lat="42.4312954489" lon="-0.7058587577">
        <ele>678.83</ele>
        <time>2022-04-15T12:44:44Z</time>
      </trkpt>
      <trkpt lat="42.4312798586" lon="-0.7058266550">
        <ele>678.83</ele>
        <time>2022-04-15T12:44:46Z</time>
      </trkpt>
      <trkpt lat="42.4312268011" lon="-0.7056057919">
        <ele>678.83</ele>
        <time>2022-04-15T12:44:59Z</time>
      </trkpt>
      <trkpt lat="42.4312135577" lon="-0.7055712584">
        <ele>678.83</ele>
        <time>2022-04-15T12:45:01Z</time>
      </trkpt>
      <trkpt lat="42.4311405513" lon="-0.7054046262">
        <ele>677.39</ele>
        <time>2022-04-15T12:45:11Z</time>
      </trkpt>
      <trkpt lat="42.4310548883" lon="-0.7051925641">
        <ele>677.39</ele>
        <time>2022-04-15T12:45:23Z</time>
      </trkpt>
      <trkpt lat="42.4309637770" lon="-0.7049782388">
        <ele>677.39</ele>
        <time>2022-04-15T12:45:39Z</time>
      </trkpt>
      <trkpt lat="42.4309292436" lon="-0.7048887201">
        <ele>677.39</ele>
        <time>2022-04-15T12:45:45Z</time>
      </trkpt>
      <trkpt lat="42.4308408983" lon="-0.7047344092">
        <ele>678.35</ele>
        <time>2022-04-15T12:45:55Z</time>
      </trkpt>
      <trkpt lat="42.4307855777" lon="-0.7045604009">
        <ele>677.39</ele>
        <time>2022-04-15T12:46:07Z</time>
      </trkpt>
      <trkpt lat="42.4307861645" lon="-0.7045459002">
        <ele>680.75</ele>
        <time>2022-04-15T12:46:08Z</time>
      </trkpt>
      <trkpt lat="42.4307839852" lon="-0.7045332436">
        <ele>680.75</ele>
        <time>2022-04-15T12:46:09Z</time>
      </trkpt>
      <trkpt lat="42.4307787046" lon="-0.7045080140">
        <ele>679.31</ele>
        <time>2022-04-15T12:46:11Z</time>
      </trkpt>
      <trkpt lat="42.4307115655" lon="-0.7043377776">
        <ele>679.31</ele>
        <time>2022-04-15T12:46:23Z</time>
      </trkpt>
      <trkpt lat="42.4305978231" lon="-0.7040995639">
        <ele>680.27</ele>
        <time>2022-04-15T12:46:39Z</time>
      </trkpt>
      <trkpt lat="42.4304255750" lon="-0.7037641201">
        <ele>680.27</ele>
        <time>2022-04-15T12:47:02Z</time>
      </trkpt>
      <trkpt lat="42.4303098209" lon="-0.7034275867">
        <ele>682.19</ele>
        <time>2022-04-15T12:47:24Z</time>
      </trkpt>
      <trkpt lat="42.4301980902" lon="-0.7031818293">
        <ele>682.67</ele>
        <time>2022-04-15T12:47:43Z</time>
      </trkpt>
      <trkpt lat="42.4300865270" lon="-0.7028851938">
        <ele>683.15</ele>
        <time>2022-04-15T12:48:04Z</time>
      </trkpt>
      <trkpt lat="42.4300672486" lon="-0.7025121152">
        <ele>683.63</ele>
        <time>2022-04-15T12:48:24Z</time>
      </trkpt>
      <trkpt lat="42.4300664943" lon="-0.7024161424">
        <ele>682.19</ele>
        <time>2022-04-15T12:48:30Z</time>
      </trkpt>
      <trkpt lat="42.4303114973" lon="-0.7021977939">
        <ele>680.27</ele>
        <time>2022-04-15T12:48:51Z</time>
      </trkpt>
      <trkpt lat="42.4305690732" lon="-0.7021744084">
        <ele>679.79</ele>
        <time>2022-04-15T12:49:12Z</time>
      </trkpt>
      <trkpt lat="42.4306165148" lon="-0.7021858077">
        <ele>680.75</ele>
        <time>2022-04-15T12:49:17Z</time>
      </trkpt>
      <trkpt lat="42.4308393896" lon="-0.7022490911">
        <ele>682.67</ele>
        <time>2022-04-15T12:49:39Z</time>
      </trkpt>
      <trkpt lat="42.4309334345" lon="-0.7022894081">
        <ele>683.15</ele>
        <time>2022-04-15T12:49:47Z</time>
      </trkpt>
      <trkpt lat="42.4311662000" lon="-0.7024557889">
        <ele>683.63</ele>
        <time>2022-04-15T12:50:07Z</time>
      </trkpt>
      <trkpt lat="42.4313703831" lon="-0.7027596328">
        <ele>684.60</ele>
        <time>2022-04-15T12:50:31Z</time>
      </trkpt>
      <trkpt lat="42.4314348400" lon="-0.7028741296">
        <ele>684.60</ele>
        <time>2022-04-15T12:50:43Z</time>
      </trkpt>
      <trkpt lat="42.4317541905" lon="-0.7031459548">
        <ele>683.63</ele>
        <time>2022-04-15T12:51:07Z</time>
      </trkpt>
      <trkpt lat="42.4320637342" lon="-0.7032102440">
        <ele>685.08</ele>
        <time>2022-04-15T12:51:30Z</time>
      </trkpt>
      <trkpt lat="42.4322202243" lon="-0.7031973358">
        <ele>686.04</ele>
        <time>2022-04-15T12:51:42Z</time>
      </trkpt>
      <trkpt lat="42.4322564341" lon="-0.7031947374">
        <ele>684.60</ele>
        <time>2022-04-15T12:51:45Z</time>
      </trkpt>
      <trkpt lat="42.4324742798" lon="-0.7031448651">
        <ele>686.04</ele>
        <time>2022-04-15T12:52:02Z</time>
      </trkpt>
      <trkpt lat="42.4326936342" lon="-0.7030910533">
        <ele>684.12</ele>
        <time>2022-04-15T12:52:23Z</time>
      </trkpt>
      <trkpt lat="42.4328857474" lon="-0.7030353975">
        <ele>681.23</ele>
        <time>2022-04-15T12:52:40Z</time>
      </trkpt>
      <trkpt lat="42.4328916147" lon="-0.7030324638">
        <ele>685.56</ele>
        <time>2022-04-15T12:52:41Z</time>
      </trkpt>
      <trkpt lat="42.4329733383" lon="-0.7029084116">
        <ele>683.63</ele>
        <time>2022-04-15T12:52:53Z</time>
      </trkpt>
      <trkpt lat="42.4330808781" lon="-0.7025435474">
        <ele>686.52</ele>
        <time>2022-04-15T12:53:17Z</time>
      </trkpt>
      <trkpt lat="42.4332024157" lon="-0.7023065072">
        <ele>687.48</ele>
        <time>2022-04-15T12:53:35Z</time>
      </trkpt>
      <trkpt lat="42.4333594926" lon="-0.7020682935">
        <ele>689.40</ele>
        <time>2022-04-15T12:53:53Z</time>
      </trkpt>
      <trkpt lat="42.4333807826" lon="-0.7020544633">
        <ele>688.44</ele>
        <time>2022-04-15T12:54:10Z</time>
      </trkpt>
      <trkpt lat="42.4333523680" lon="-0.7020228636">
        <ele>687.00</ele>
        <time>2022-04-15T12:54:25Z</time>
      </trkpt>
      <trkpt lat="42.4333530385" lon="-0.7020238694">
        <ele>683.15</ele>
        <time>2022-04-15T12:54:26Z</time>
      </trkpt>
      <trkpt lat="42.4333535414" lon="-0.7020252105">
        <ele>690.36</ele>
        <time>2022-04-15T12:54:27Z</time>
      </trkpt>
      <trkpt lat="42.4333544634" lon="-0.7020257134">
        <ele>687.48</ele>
        <time>2022-04-15T12:54:28Z</time>
      </trkpt>
      <trkpt lat="42.4333532061" lon="-0.7020261325">
        <ele>680.27</ele>
        <time>2022-04-15T12:54:33Z</time>
      </trkpt>
      <trkpt lat="42.4333547149" lon="-0.7020245399">
        <ele>686.04</ele>
        <time>2022-04-15T12:54:34Z</time>
      </trkpt>
      <trkpt lat="42.4333544634" lon="-0.7020231150">
        <ele>691.81</ele>
        <time>2022-04-15T12:54:35Z</time>
      </trkpt>
      <trkpt lat="42.4333521165" lon="-0.7020235341">
        <ele>688.92</ele>
        <time>2022-04-15T12:54:36Z</time>
      </trkpt>
      <trkpt lat="42.4333796091" lon="-0.7019786909">
        <ele>687.00</ele>
        <time>2022-04-15T12:54:54Z</time>
      </trkpt>
      <trkpt lat="42.4333871529" lon="-0.7020289823">
        <ele>687.00</ele>
        <time>2022-04-15T12:55:25Z</time>
      </trkpt>
      <trkpt lat="42.4333723169" lon="-0.7020459976">
        <ele>687.48</ele>
        <time>2022-04-15T12:56:00Z</time>
      </trkpt>
      <trkpt lat="42.4333853927" lon="-0.7020577323">
        <ele>687.48</ele>
        <time>2022-04-15T12:56:42Z</time>
      </trkpt>
      <trkpt lat="42.4333467521" lon="-0.7020476740">
        <ele>688.44</ele>
        <time>2022-04-15T12:57:18Z</time>
      </trkpt>
      <trkpt lat="42.4334190879" lon="-0.7020324189">
        <ele>688.92</ele>
        <time>2022-04-15T12:58:05Z</time>
      </trkpt>
      <trkpt lat="42.4334031623" lon="-0.7020226121">
        <ele>688.92</ele>
        <time>2022-04-15T12:58:43Z</time>
      </trkpt>
      <trkpt lat="42.4333992228" lon="-0.7020314131">
        <ele>689.40</ele>
        <time>2022-04-15T12:59:25Z</time>
      </trkpt>
      <trkpt lat="42.4333738256" lon="-0.7020444050">
        <ele>689.40</ele>
        <time>2022-04-15T12:59:56Z</time>
      </trkpt>
      <trkpt lat="42.4333813693" lon="-0.7020939421">
        <ele>689.40</ele>
        <time>2022-04-15T13:00:37Z</time>
      </trkpt>
      <trkpt lat="42.4333678745" lon="-0.7020325866">
        <ele>689.88</ele>
        <time>2022-04-15T13:01:08Z</time>
      </trkpt>
      <trkpt lat="42.4333477579" lon="-0.7019919343">
        <ele>689.88</ele>
        <time>2022-04-15T13:01:55Z</time>
      </trkpt>
      <trkpt lat="42.4333814532" lon="-0.7020307425">
        <ele>690.36</ele>
        <time>2022-04-15T13:02:41Z</time>
      </trkpt>
      <trkpt lat="42.4333405495" lon="-0.7020890806">
        <ele>690.36</ele>
        <time>2022-04-15T13:03:24Z</time>
      </trkpt>
      <trkpt lat="42.4333558884" lon="-0.7021230273">
        <ele>690.36</ele>
        <time>2022-04-15T13:04:08Z</time>
      </trkpt>
      <trkpt lat="42.4333800282" lon="-0.7020253781">
        <ele>690.36</ele>
        <time>2022-04-15T13:04:54Z</time>
      </trkpt>
      <trkpt lat="42.4334106222" lon="-0.7020913437">
        <ele>690.36</ele>
        <time>2022-04-15T13:05:32Z</time>
      </trkpt>
      <trkpt lat="42.4334022403" lon="-0.7020857278">
        <ele>691.33</ele>
        <time>2022-04-15T13:06:14Z</time>
      </trkpt>
      <trkpt lat="42.4333604146" lon="-0.7020820398">
        <ele>691.33</ele>
        <time>2022-04-15T13:06:55Z</time>
      </trkpt>
      <trkpt lat="42.4333493505" lon="-0.7020960376">
        <ele>691.33</ele>
        <time>2022-04-15T13:07:14Z</time>
      </trkpt>
      <trkpt lat="42.4333691318" lon="-0.7020047586">
        <ele>692.29</ele>
        <time>2022-04-15T13:07:25Z</time>
      </trkpt>
      <trkpt lat="42.4333495181" lon="-0.7019811217">
        <ele>687.96</ele>
        <time>2022-04-15T13:07:39Z</time>
      </trkpt>
      <trkpt lat="42.4333497696" lon="-0.7019802835">
        <ele>689.40</ele>
        <time>2022-04-15T13:07:40Z</time>
      </trkpt>
      <trkpt lat="42.4333469197" lon="-0.7019780204">
        <ele>693.25</ele>
        <time>2022-04-15T13:07:41Z</time>
      </trkpt>
      <trkpt lat="42.4333445728" lon="-0.7019763440">
        <ele>691.81</ele>
        <time>2022-04-15T13:07:42Z</time>
      </trkpt>
      <trkpt lat="42.4333476741" lon="-0.7019790262">
        <ele>695.17</ele>
        <time>2022-04-15T13:07:43Z</time>
      </trkpt>
      <trkpt lat="42.4333598278" lon="-0.7019833010">
        <ele>692.29</ele>
        <time>2022-04-15T13:07:46Z</time>
      </trkpt>
      <trkpt lat="42.4333534576" lon="-0.7020311616">
        <ele>691.81</ele>
        <time>2022-04-15T13:08:15Z</time>
      </trkpt>
      <trkpt lat="42.4333873205" lon="-0.7020355202">
        <ele>691.81</ele>
        <time>2022-04-15T13:08:28Z</time>
      </trkpt>
      <trkpt lat="42.4334103707" lon="-0.7020687964">
        <ele>691.81</ele>
        <time>2022-04-15T13:08:33Z</time>
      </trkpt>
      <trkpt lat="42.4334399588" lon="-0.7020938583">
        <ele>691.81</ele>
        <time>2022-04-15T13:08:38Z</time>
      </trkpt>
      <trkpt lat="42.4334770069" lon="-0.7021210156">
        <ele>692.29</ele>
        <time>2022-04-15T13:08:44Z</time>
      </trkpt>
      <trkpt lat="42.4334956147" lon="-0.7021331694">
        <ele>693.25</ele>
        <time>2022-04-15T13:08:46Z</time>
      </trkpt>
      <trkpt lat="42.4335708003" lon="-0.7022231910">
        <ele>694.21</ele>
        <time>2022-04-15T13:09:00Z</time>
      </trkpt>
      <trkpt lat="42.4336791784" lon="-0.7022097800">
        <ele>696.61</ele>
        <time>2022-04-15T13:09:16Z</time>
      </trkpt>
      <trkpt lat="42.4337717146" lon="-0.7021862268">
        <ele>698.05</ele>
        <time>2022-04-15T13:09:29Z</time>
      </trkpt>
      <trkpt lat="42.4338749796" lon="-0.7021761686">
        <ele>699.02</ele>
        <time>2022-04-15T13:09:45Z</time>
      </trkpt>
      <trkpt lat="42.4339908175" lon="-0.7021542918">
        <ele>699.50</ele>
        <time>2022-04-15T13:09:58Z</time>
      </trkpt>
      <trkpt lat="42.4341173004" lon="-0.7021348458">
        <ele>700.94</ele>
        <time>2022-04-15T13:10:11Z</time>
      </trkpt>
      <trkpt lat="42.4342416041" lon="-0.7021697145">
        <ele>702.38</ele>
        <time>2022-04-15T13:10:25Z</time>
      </trkpt>
      <trkpt lat="42.4343920592" lon="-0.7021789346">
        <ele>703.34</ele>
        <time>2022-04-15T13:10:39Z</time>
      </trkpt>
      <trkpt lat="42.4345483817" lon="-0.7021366060">
        <ele>704.78</ele>
        <time>2022-04-15T13:10:54Z</time>
      </trkpt>
      <trkpt lat="42.4346265849" lon="-0.7021673676">
        <ele>705.75</ele>
        <time>2022-04-15T13:11:03Z</time>
      </trkpt>
      <trkpt lat="42.4347364716" lon="-0.7022110373">
        <ele>707.19</ele>
        <time>2022-04-15T13:11:17Z</time>
      </trkpt>
      <trkpt lat="42.4348615296" lon="-0.7021974586">
        <ele>709.11</ele>
        <time>2022-04-15T13:11:32Z</time>
      </trkpt>
      <trkpt lat="42.4349077977" lon="-0.7020640187">
        <ele>710.55</ele>
        <time>2022-04-15T13:11:46Z</time>
      </trkpt>
      <trkpt lat="42.4349393137" lon="-0.7018837240">
        <ele>711.51</ele>
        <time>2022-04-15T13:12:01Z</time>
      </trkpt>
      <trkpt lat="42.4349142518" lon="-0.7016660459">
        <ele>712.47</ele>
        <time>2022-04-15T13:12:16Z</time>
      </trkpt>
      <trkpt lat="42.4348989967" lon="-0.7016365416">
        <ele>712.95</ele>
        <time>2022-04-15T13:12:20Z</time>
      </trkpt>
      <trkpt lat="42.4348703306" lon="-0.7014875114">
        <ele>713.44</ele>
        <time>2022-04-15T13:12:30Z</time>
      </trkpt>
      <trkpt lat="42.4348487053" lon="-0.7012247387">
        <ele>715.36</ele>
        <time>2022-04-15T13:12:47Z</time>
      </trkpt>
      <trkpt lat="42.4348745216" lon="-0.7010977529">
        <ele>717.28</ele>
        <time>2022-04-15T13:13:01Z</time>
      </trkpt>
      <trkpt lat="42.4348932132" lon="-0.7010433543">
        <ele>718.72</ele>
        <time>2022-04-15T13:13:07Z</time>
      </trkpt>
      <trkpt lat="42.4349105638" lon="-0.7009865250">
        <ele>717.28</ele>
        <time>2022-04-15T13:13:11Z</time>
      </trkpt>
      <trkpt lat="42.4348832387" lon="-0.7008612994">
        <ele>716.32</ele>
        <time>2022-04-15T13:13:23Z</time>
      </trkpt>
      <trkpt lat="42.4349275790" lon="-0.7008343935">
        <ele>714.40</ele>
        <time>2022-04-15T13:13:35Z</time>
      </trkpt>
      <trkpt lat="42.4349502940" lon="-0.7008609641">
        <ele>714.40</ele>
        <time>2022-04-15T13:13:39Z</time>
      </trkpt>
      <trkpt lat="42.4350375496" lon="-0.7009240799">
        <ele>712.47</ele>
        <time>2022-04-15T13:13:52Z</time>
      </trkpt>
      <trkpt lat="42.4351244699" lon="-0.7009997685">
        <ele>711.03</ele>
        <time>2022-04-15T13:14:05Z</time>
      </trkpt>
      <trkpt lat="42.4352718238" lon="-0.7011455297">
        <ele>710.55</ele>
        <time>2022-04-15T13:14:21Z</time>
      </trkpt>
      <trkpt lat="42.4354076106" lon="-0.7011634670">
        <ele>707.67</ele>
        <time>2022-04-15T13:14:34Z</time>
      </trkpt>
      <trkpt lat="42.4354579020" lon="-0.7011681609">
        <ele>708.63</ele>
        <time>2022-04-15T13:14:38Z</time>
      </trkpt>
      <trkpt lat="42.4355133902" lon="-0.7011600304">
        <ele>708.63</ele>
        <time>2022-04-15T13:14:42Z</time>
      </trkpt>
      <trkpt lat="42.4356666952" lon="-0.7011135947">
        <ele>707.19</ele>
        <time>2022-04-15T13:14:56Z</time>
      </trkpt>
      <trkpt lat="42.4358702917" lon="-0.7010209747">
        <ele>708.63</ele>
        <time>2022-04-15T13:15:11Z</time>
      </trkpt>
      <trkpt lat="42.4358879775" lon="-0.7009659056">
        <ele>709.11</ele>
        <time>2022-04-15T13:15:14Z</time>
      </trkpt>
      <trkpt lat="42.4359348323" lon="-0.7008934859">
        <ele>709.11</ele>
        <time>2022-04-15T13:15:20Z</time>
      </trkpt>
      <trkpt lat="42.4360705353" lon="-0.7007362414">
        <ele>710.07</ele>
        <time>2022-04-15T13:15:34Z</time>
      </trkpt>
      <trkpt lat="42.4361720402" lon="-0.7005811762">
        <ele>710.55</ele>
        <time>2022-04-15T13:15:46Z</time>
      </trkpt>
      <trkpt lat="42.4362271931" lon="-0.7005352434">
        <ele>709.11</ele>
        <time>2022-04-15T13:15:51Z</time>
      </trkpt>
      <trkpt lat="42.4363235850" lon="-0.7004712895">
        <ele>709.11</ele>
        <time>2022-04-15T13:16:01Z</time>
      </trkpt>
      <trkpt lat="42.4363498203" lon="-0.7003296353">
        <ele>711.03</ele>
        <time>2022-04-15T13:16:10Z</time>
      </trkpt>
      <trkpt lat="42.4363580346" lon="-0.7002774999">
        <ele>711.03</ele>
        <time>2022-04-15T13:16:13Z</time>
      </trkpt>
      <trkpt lat="42.4363678414" lon="-0.7002516836">
        <ele>711.03</ele>
        <time>2022-04-15T13:16:15Z</time>
      </trkpt>
      <trkpt lat="42.4364914745" lon="-0.7001762465">
        <ele>711.99</ele>
        <time>2022-04-15T13:16:29Z</time>
      </trkpt>
      <trkpt lat="42.4364946596" lon="-0.7001784258">
        <ele>711.99</ele>
        <time>2022-04-15T13:16:30Z</time>
      </trkpt>
      <trkpt lat="42.4365984276" lon="-0.7001661044">
        <ele>713.44</ele>
        <time>2022-04-15T13:16:43Z</time>
      </trkpt>
      <trkpt lat="42.4367482122" lon="-0.7001611590">
        <ele>713.92</ele>
        <time>2022-04-15T13:16:57Z</time>
      </trkpt>
      <trkpt lat="42.4368986674" lon="-0.7002170663">
        <ele>714.40</ele>
        <time>2022-04-15T13:17:07Z</time>
      </trkpt>
      <trkpt lat="42.4370091408" lon="-0.7001618296">
        <ele>714.88</ele>
        <time>2022-04-15T13:17:17Z</time>
      </trkpt>
      <trkpt lat="42.4372286629" lon="-0.7000830397">
        <ele>715.84</ele>
        <time>2022-04-15T13:17:31Z</time>
      </trkpt>
      <trkpt lat="42.4372552335" lon="-0.7000728976">
        <ele>715.84</ele>
        <time>2022-04-15T13:17:34Z</time>
      </trkpt>
      <trkpt lat="42.4373999890" lon="-0.7001594827">
        <ele>718.72</ele>
        <time>2022-04-15T13:17:50Z</time>
      </trkpt>
      <trkpt lat="42.4375157431" lon="-0.7003104407">
        <ele>719.20</ele>
        <time>2022-04-15T13:18:05Z</time>
      </trkpt>
      <trkpt lat="42.4375608377" lon="-0.7003855426">
        <ele>717.76</ele>
        <time>2022-04-15T13:18:12Z</time>
      </trkpt>
      <trkpt lat="42.4377006479" lon="-0.7004275359">
        <ele>719.20</ele>
        <time>2022-04-15T13:18:22Z</time>
      </trkpt>
      <trkpt lat="42.4377920944" lon="-0.7004574593">
        <ele>719.20</ele>
        <time>2022-04-15T13:18:30Z</time>
      </trkpt>
      <trkpt lat="42.4378357641" lon="-0.7004351635">
        <ele>718.24</ele>
        <time>2022-04-15T13:18:34Z</time>
      </trkpt>
      <trkpt lat="42.4378641788" lon="-0.7004304696">
        <ele>718.24</ele>
        <time>2022-04-15T13:18:38Z</time>
      </trkpt>
      <trkpt lat="42.4379029870" lon="-0.7004411984">
        <ele>719.20</ele>
        <time>2022-04-15T13:18:41Z</time>
      </trkpt>
      <trkpt lat="42.4379380234" lon="-0.7004258595">
        <ele>719.20</ele>
        <time>2022-04-15T13:18:45Z</time>
      </trkpt>
      <trkpt lat="42.4379605707" lon="-0.7004095986">
        <ele>718.24</ele>
        <time>2022-04-15T13:18:48Z</time>
      </trkpt>
      <trkpt lat="42.4379673600" lon="-0.7004081737">
        <ele>714.40</ele>
        <time>2022-04-15T13:18:49Z</time>
      </trkpt>
      <trkpt lat="42.4379791785" lon="-0.7004007138">
        <ele>720.16</ele>
        <time>2022-04-15T13:18:50Z</time>
      </trkpt>
      <trkpt lat="42.4379850458" lon="-0.7004005462">
        <ele>718.72</ele>
        <time>2022-04-15T13:18:51Z</time>
      </trkpt>
      <trkpt lat="42.4379961938" lon="-0.7003879733">
        <ele>717.76</ele>
        <time>2022-04-15T13:18:53Z</time>
      </trkpt>
      <trkpt lat="42.4380365945" lon="-0.7003325690">
        <ele>718.24</ele>
        <time>2022-04-15T13:18:59Z</time>
      </trkpt>
      <trkpt lat="42.4380982853" lon="-0.7001433894">
        <ele>719.20</ele>
        <time>2022-04-15T13:19:12Z</time>
      </trkpt>
      <trkpt lat="42.4382743053" lon="-0.6999944430">
        <ele>719.68</ele>
        <time>2022-04-15T13:19:28Z</time>
      </trkpt>
      <trkpt lat="42.4384414405" lon="-0.6999420561">
        <ele>721.13</ele>
        <time>2022-04-15T13:19:44Z</time>
      </trkpt>
      <trkpt lat="42.4385514110" lon="-0.6999760866">
        <ele>722.57</ele>
        <time>2022-04-15T13:19:56Z</time>
      </trkpt>
      <trkpt lat="42.4386921432" lon="-0.6998267211">
        <ele>724.01</ele>
        <time>2022-04-15T13:20:11Z</time>
      </trkpt>
      <trkpt lat="42.4386969209" lon="-0.6998144835">
        <ele>724.01</ele>
        <time>2022-04-15T13:20:12Z</time>
      </trkpt>
      <trkpt lat="42.4388477951" lon="-0.6997648627">
        <ele>725.45</ele>
        <time>2022-04-15T13:20:25Z</time>
      </trkpt>
      <trkpt lat="42.4388943147" lon="-0.6997574028">
        <ele>725.45</ele>
        <time>2022-04-15T13:20:29Z</time>
      </trkpt>
      <trkpt lat="42.4390575103" lon="-0.6996853184">
        <ele>726.41</ele>
        <time>2022-04-15T13:20:45Z</time>
      </trkpt>
      <trkpt lat="42.4391190335" lon="-0.6994984020">
        <ele>727.86</ele>
        <time>2022-04-15T13:20:59Z</time>
      </trkpt>
      <trkpt lat="42.4392268248" lon="-0.6995703187">
        <ele>729.78</ele>
        <time>2022-04-15T13:21:12Z</time>
      </trkpt>
      <trkpt lat="42.4392499588" lon="-0.6996565685">
        <ele>730.74</ele>
        <time>2022-04-15T13:21:18Z</time>
      </trkpt>
      <trkpt lat="42.4392668065" lon="-0.6997337658">
        <ele>732.66</ele>
        <time>2022-04-15T13:21:23Z</time>
      </trkpt>
      <trkpt lat="42.4392852467" lon="-0.6998058502">
        <ele>732.66</ele>
        <time>2022-04-15T13:21:30Z</time>
      </trkpt>
      <trkpt lat="42.4393056985" lon="-0.6998843886">
        <ele>733.62</ele>
        <time>2022-04-15T13:21:35Z</time>
      </trkpt>
      <trkpt lat="42.4393817224" lon="-0.6998981349">
        <ele>735.07</ele>
        <time>2022-04-15T13:21:48Z</time>
      </trkpt>
      <trkpt lat="42.4393599294" lon="-0.6999170780">
        <ele>736.51</ele>
        <time>2022-04-15T13:22:02Z</time>
      </trkpt>
      <trkpt lat="42.4393466022" lon="-0.6999215204">
        <ele>734.58</ele>
        <time>2022-04-15T13:22:04Z</time>
      </trkpt>
      <trkpt lat="42.4393436685" lon="-0.7000088599">
        <ele>733.14</ele>
        <time>2022-04-15T13:22:12Z</time>
      </trkpt>
      <trkpt lat="42.4394365400" lon="-0.7001803536">
        <ele>731.22</ele>
        <time>2022-04-15T13:22:25Z</time>
      </trkpt>
      <trkpt lat="42.4394908547" lon="-0.7002408709">
        <ele>732.18</ele>
        <time>2022-04-15T13:22:31Z</time>
      </trkpt>
      <trkpt lat="42.4395118933" lon="-0.7002570480">
        <ele>730.74</ele>
        <time>2022-04-15T13:22:33Z</time>
      </trkpt>
      <trkpt lat="42.4396563135" lon="-0.7004148792">
        <ele>730.74</ele>
        <time>2022-04-15T13:22:48Z</time>
      </trkpt>
      <trkpt lat="42.4398039188" lon="-0.7005988620">
        <ele>730.74</ele>
        <time>2022-04-15T13:23:03Z</time>
      </trkpt>
      <trkpt lat="42.4398925994" lon="-0.7006551884">
        <ele>730.74</ele>
        <time>2022-04-15T13:23:14Z</time>
      </trkpt>
      <trkpt lat="42.4400208425" lon="-0.7006219961">
        <ele>730.74</ele>
        <time>2022-04-15T13:23:24Z</time>
      </trkpt>
      <trkpt lat="42.4400823656" lon="-0.7006173860">
        <ele>732.18</ele>
        <time>2022-04-15T13:23:29Z</time>
      </trkpt>
      <trkpt lat="42.4402306415" lon="-0.7006555237">
        <ele>734.10</ele>
        <time>2022-04-15T13:23:43Z</time>
      </trkpt>
      <trkpt lat="42.4403572921" lon="-0.7007117663">
        <ele>735.07</ele>
        <time>2022-04-15T13:24:00Z</time>
      </trkpt>
      <trkpt lat="42.4404947553" lon="-0.7007459644">
        <ele>735.55</ele>
        <time>2022-04-15T13:24:14Z</time>
      </trkpt>
      <trkpt lat="42.4405193143" lon="-0.7007438689">
        <ele>735.55</ele>
        <time>2022-04-15T13:24:17Z</time>
      </trkpt>
      <trkpt lat="42.4407151993" lon="-0.7007415220">
        <ele>736.51</ele>
        <time>2022-04-15T13:24:31Z</time>
      </trkpt>
      <trkpt lat="42.4407430273" lon="-0.7007454615">
        <ele>736.51</ele>
        <time>2022-04-15T13:24:33Z</time>
      </trkpt>
      <trkpt lat="42.4407814164" lon="-0.7007319666">
        <ele>736.51</ele>
        <time>2022-04-15T13:24:36Z</time>
      </trkpt>
      <trkpt lat="42.4409528263" lon="-0.7007352356">
        <ele>737.47</ele>
        <time>2022-04-15T13:24:50Z</time>
      </trkpt>
      <trkpt lat="42.4411218055" lon="-0.7006996125">
        <ele>738.43</ele>
        <time>2022-04-15T13:25:03Z</time>
      </trkpt>
      <trkpt lat="42.4412654713" lon="-0.7006173860">
        <ele>737.47</ele>
        <time>2022-04-15T13:25:16Z</time>
      </trkpt>
      <trkpt lat="42.4414810538" lon="-0.7005043980">
        <ele>740.35</ele>
        <time>2022-04-15T13:25:31Z</time>
      </trkpt>
      <trkpt lat="42.4416437466" lon="-0.7005265262">
        <ele>742.28</ele>
        <time>2022-04-15T13:25:45Z</time>
      </trkpt>
      <trkpt lat="42.4417378753" lon="-0.7005301304">
        <ele>743.72</ele>
        <time>2022-04-15T13:25:54Z</time>
      </trkpt>
      <trkpt lat="42.4417614285" lon="-0.7005556952">
        <ele>743.72</ele>
        <time>2022-04-15T13:25:57Z</time>
      </trkpt>
      <trkpt lat="42.4419580679" lon="-0.7006338146">
        <ele>745.64</ele>
        <time>2022-04-15T13:26:15Z</time>
      </trkpt>
      <trkpt lat="42.4420868978" lon="-0.7007348165">
        <ele>748.04</ele>
        <time>2022-04-15T13:26:30Z</time>
      </trkpt>
      <trkpt lat="42.4422276299" lon="-0.7008094992">
        <ele>749.49</ele>
        <time>2022-04-15T13:26:43Z</time>
      </trkpt>
      <trkpt lat="42.4422520213" lon="-0.7008375786">
        <ele>749.97</ele>
        <time>2022-04-15T13:26:46Z</time>
      </trkpt>
      <trkpt lat="42.4423561245" lon="-0.7008723635">
        <ele>751.41</ele>
        <time>2022-04-15T13:26:54Z</time>
      </trkpt>
      <trkpt lat="42.4424191564" lon="-0.7008478884">
        <ele>751.89</ele>
        <time>2022-04-15T13:26:59Z</time>
      </trkpt>
      <trkpt lat="42.4425499979" lon="-0.7008219883">
        <ele>751.89</ele>
        <time>2022-04-15T13:27:13Z</time>
      </trkpt>
      <trkpt lat="42.4427269399" lon="-0.7007704396">
        <ele>752.85</ele>
        <time>2022-04-15T13:27:27Z</time>
      </trkpt>
      <trkpt lat="42.4428587034" lon="-0.7007581182">
        <ele>753.81</ele>
        <time>2022-04-15T13:27:41Z</time>
      </trkpt>
      <trkpt lat="42.4430063087" lon="-0.7007449586">
        <ele>754.77</ele>
        <time>2022-04-15T13:27:53Z</time>
      </trkpt>
      <trkpt lat="42.4432085641" lon="-0.7007139456">
        <ele>755.73</ele>
        <time>2022-04-15T13:28:09Z</time>
      </trkpt>
      <trkpt lat="42.4432264175" lon="-0.7007113472">
        <ele>755.73</ele>
        <time>2022-04-15T13:28:11Z</time>
      </trkpt>
      <trkpt lat="42.4434415810" lon="-0.7006870396">
        <ele>756.21</ele>
        <time>2022-04-15T13:28:27Z</time>
      </trkpt>
      <trkpt lat="42.4436429143" lon="-0.7006587926">
        <ele>757.18</ele>
        <time>2022-04-15T13:28:41Z</time>
      </trkpt>
      <trkpt lat="42.4438046850" lon="-0.7006536797">
        <ele>758.62</ele>
        <time>2022-04-15T13:28:56Z</time>
      </trkpt>
      <trkpt lat="42.4440200161" lon="-0.7006336469">
        <ele>760.54</ele>
        <time>2022-04-15T13:29:13Z</time>
      </trkpt>
      <trkpt lat="42.4440444913" lon="-0.7006333116">
        <ele>760.54</ele>
        <time>2022-04-15T13:29:15Z</time>
      </trkpt>
      <trkpt lat="42.4442460760" lon="-0.7005567010">
        <ele>761.98</ele>
        <time>2022-04-15T13:29:34Z</time>
      </trkpt>
      <trkpt lat="42.4442544580" lon="-0.7005500793">
        <ele>761.98</ele>
        <time>2022-04-15T13:29:35Z</time>
      </trkpt>
      <trkpt lat="42.4443149753" lon="-0.7005244307">
        <ele>761.98</ele>
        <time>2022-04-15T13:29:39Z</time>
      </trkpt>
      <trkpt lat="42.4444654305" lon="-0.7004409470">
        <ele>762.94</ele>
        <time>2022-04-15T13:29:53Z</time>
      </trkpt>
      <trkpt lat="42.4446635786" lon="-0.7003417891">
        <ele>763.90</ele>
        <time>2022-04-15T13:30:10Z</time>
      </trkpt>
      <trkpt lat="42.4447993655" lon="-0.7002834510">
        <ele>764.39</ele>
        <time>2022-04-15T13:30:21Z</time>
      </trkpt>
      <trkpt lat="42.4449596275" lon="-0.7002044935">
        <ele>765.35</ele>
        <time>2022-04-15T13:30:37Z</time>
      </trkpt>
      <trkpt lat="42.4451361503" lon="-0.7000792678">
        <ele>766.31</ele>
        <time>2022-04-15T13:30:51Z</time>
      </trkpt>
      <trkpt lat="42.4451834243" lon="-0.7000419684">
        <ele>764.87</ele>
        <time>2022-04-15T13:30:55Z</time>
      </trkpt>
      <trkpt lat="42.4453291018" lon="-0.6999407150">
        <ele>761.98</ele>
        <time>2022-04-15T13:31:08Z</time>
      </trkpt>
      <trkpt lat="42.4453372322" lon="-0.6999335065">
        <ele>761.98</ele>
        <time>2022-04-15T13:31:09Z</time>
      </trkpt>
      <trkpt lat="42.4453840870" lon="-0.6998824608">
        <ele>761.50</ele>
        <time>2022-04-15T13:31:14Z</time>
      </trkpt>
      <trkpt lat="42.4454274215" lon="-0.6998335943">
        <ele>760.54</ele>
        <time>2022-04-15T13:31:19Z</time>
      </trkpt>
      <trkpt lat="42.4454697501" lon="-0.6997533794">
        <ele>759.10</ele>
        <time>2022-04-15T13:31:25Z</time>
      </trkpt>
      <trkpt lat="42.4455540720" lon="-0.6996335182">
        <ele>757.18</ele>
        <time>2022-04-15T13:31:36Z</time>
      </trkpt>
      <trkpt lat="42.4456288386" lon="-0.6996154133">
        <ele>755.73</ele>
        <time>2022-04-15T13:31:43Z</time>
      </trkpt>
      <trkpt lat="42.4456585944" lon="-0.6995807961">
        <ele>754.77</ele>
        <time>2022-04-15T13:31:47Z</time>
      </trkpt>
      <trkpt lat="42.4457970634" lon="-0.6994931214">
        <ele>752.37</ele>
        <time>2022-04-15T13:32:01Z</time>
      </trkpt>
      <trkpt lat="42.4458476063" lon="-0.6994022615">
        <ele>750.45</ele>
        <time>2022-04-15T13:32:08Z</time>
      </trkpt>
      <trkpt lat="42.4458595924" lon="-0.6993732601">
        <ele>750.45</ele>
        <time>2022-04-15T13:32:10Z</time>
      </trkpt>
      <trkpt lat="42.4459259771" lon="-0.6991824880">
        <ele>749.97</ele>
        <time>2022-04-15T13:32:25Z</time>
      </trkpt>
      <trkpt lat="42.4460295774" lon="-0.6989531592">
        <ele>751.41</ele>
        <time>2022-04-15T13:32:41Z</time>
      </trkpt>
      <trkpt lat="42.4461258855" lon="-0.6986839324">
        <ele>753.33</ele>
        <time>2022-04-15T13:32:59Z</time>
      </trkpt>
      <trkpt lat="42.4461864028" lon="-0.6984532624">
        <ele>754.77</ele>
        <time>2022-04-15T13:33:14Z</time>
      </trkpt>
      <trkpt lat="42.4462375324" lon="-0.6982646696">
        <ele>756.69</ele>
        <time>2022-04-15T13:33:28Z</time>
      </trkpt>
      <trkpt lat="42.4463251233" lon="-0.6980184093">
        <ele>758.14</ele>
        <time>2022-04-15T13:33:42Z</time>
      </trkpt>
      <trkpt lat="42.4464304838" lon="-0.6978444848">
        <ele>758.62</ele>
        <time>2022-04-15T13:33:57Z</time>
      </trkpt>
      <trkpt lat="42.4465486687" lon="-0.6976795290">
        <ele>758.62</ele>
        <time>2022-04-15T13:34:11Z</time>
      </trkpt>
      <trkpt lat="42.4465925898" lon="-0.6975848135">
        <ele>759.10</ele>
        <time>2022-04-15T13:34:18Z</time>
      </trkpt>
      <trkpt lat="42.4466978665" lon="-0.6973897666">
        <ele>758.14</ele>
        <time>2022-04-15T13:34:32Z</time>
      </trkpt>
      <trkpt lat="42.4467745610" lon="-0.6971727591">
        <ele>757.66</ele>
        <time>2022-04-15T13:34:45Z</time>
      </trkpt>
      <trkpt lat="42.4468418676" lon="-0.6969406642">
        <ele>757.18</ele>
        <time>2022-04-15T13:35:00Z</time>
      </trkpt>
      <trkpt lat="42.4469222501" lon="-0.6967433542">
        <ele>757.18</ele>
        <time>2022-04-15T13:35:15Z</time>
      </trkpt>
      <trkpt lat="42.4470271915" lon="-0.6964860298">
        <ele>757.18</ele>
        <time>2022-04-15T13:35:31Z</time>
      </trkpt>
      <trkpt lat="42.4471271038" lon="-0.6962591317">
        <ele>758.14</ele>
        <time>2022-04-15T13:35:47Z</time>
      </trkpt>
      <trkpt lat="42.4471367430" lon="-0.6962438766">
        <ele>758.14</ele>
        <time>2022-04-15T13:35:48Z</time>
      </trkpt>
      <trkpt lat="42.4471714441" lon="-0.6962002069">
        <ele>758.14</ele>
        <time>2022-04-15T13:35:52Z</time>
      </trkpt>
      <trkpt lat="42.4472295307" lon="-0.6960728019">
        <ele>756.21</ele>
        <time>2022-04-15T13:36:01Z</time>
      </trkpt>
      <trkpt lat="42.4473104160" lon="-0.6958821975">
        <ele>754.77</ele>
        <time>2022-04-15T13:36:14Z</time>
      </trkpt>
      <trkpt lat="42.4473090749" lon="-0.6956634298">
        <ele>753.33</ele>
        <time>2022-04-15T13:36:28Z</time>
      </trkpt>
      <trkpt lat="42.4473199714" lon="-0.6956046727">
        <ele>752.85</ele>
        <time>2022-04-15T13:36:46Z</time>
      </trkpt>
      <trkpt lat="42.4473384116" lon="-0.6956140604">
        <ele>752.37</ele>
        <time>2022-04-15T13:36:59Z</time>
      </trkpt>
      <trkpt lat="42.4473306164" lon="-0.6956223585">
        <ele>752.37</ele>
        <time>2022-04-15T13:37:04Z</time>
      </trkpt>
      <trkpt lat="42.4473540019" lon="-0.6956407987">
        <ele>751.89</ele>
        <time>2022-04-15T13:37:18Z</time>
      </trkpt>
      <trkpt lat="42.4472988490" lon="-0.6956253760">
        <ele>751.89</ele>
        <time>2022-04-15T13:37:46Z</time>
      </trkpt>
      <trkpt lat="42.4472949095" lon="-0.6956206821">
        <ele>753.33</ele>
        <time>2022-04-15T13:38:01Z</time>
      </trkpt>
      <trkpt lat="42.4472865276" lon="-0.6956495158">
        <ele>752.85</ele>
        <time>2022-04-15T13:38:08Z</time>
      </trkpt>
      <trkpt lat="42.4472282734" lon="-0.6955087837">
        <ele>754.29</ele>
        <time>2022-04-15T13:38:24Z</time>
      </trkpt>
      <trkpt lat="42.4472255912" lon="-0.6954990607">
        <ele>754.29</ele>
        <time>2022-04-15T13:38:25Z</time>
      </trkpt>
      <trkpt lat="42.4471898843" lon="-0.6953989808">
        <ele>755.73</ele>
        <time>2022-04-15T13:38:34Z</time>
      </trkpt>
      <trkpt lat="42.4471861124" lon="-0.6953513715">
        <ele>755.73</ele>
        <time>2022-04-15T13:38:38Z</time>
      </trkpt>
      <trkpt lat="42.4471193086" lon="-0.6951986533">
        <ele>757.66</ele>
        <time>2022-04-15T13:38:50Z</time>
      </trkpt>
      <trkpt lat="42.4470937438" lon="-0.6949285883">
        <ele>760.54</ele>
        <time>2022-04-15T13:39:07Z</time>
      </trkpt>
      <trkpt lat="42.4470908102" lon="-0.6948696636">
        <ele>761.50</ele>
        <time>2022-04-15T13:39:11Z</time>
      </trkpt>
      <trkpt lat="42.4470911454" lon="-0.6948343758">
        <ele>761.98</ele>
        <time>2022-04-15T13:39:13Z</time>
      </trkpt>
      <trkpt lat="42.4470768962" lon="-0.6947290991">
        <ele>763.42</ele>
        <time>2022-04-15T13:39:24Z</time>
      </trkpt>
      <trkpt lat="42.4470633175" lon="-0.6947295181">
        <ele>763.42</ele>
        <time>2022-04-15T13:39:40Z</time>
      </trkpt>
      <trkpt lat="42.4470295385" lon="-0.6945639756">
        <ele>764.39</ele>
        <time>2022-04-15T13:39:54Z</time>
      </trkpt>
      <trkpt lat="42.4470072426" lon="-0.6943442021">
        <ele>764.87</ele>
        <time>2022-04-15T13:40:15Z</time>
      </trkpt>
      <trkpt lat="42.4470172171" lon="-0.6942971796">
        <ele>763.90</ele>
        <time>2022-04-15T13:40:21Z</time>
      </trkpt>
      <trkpt lat="42.4470190611" lon="-0.6942858640">
        <ele>763.90</ele>
        <time>2022-04-15T13:40:22Z</time>
      </trkpt>
      <trkpt lat="42.4469947536" lon="-0.6941872928">
        <ele>763.42</ele>
        <time>2022-04-15T13:40:31Z</time>
      </trkpt>
      <trkpt lat="42.4469901435" lon="-0.6940677669">
        <ele>761.50</ele>
        <time>2022-04-15T13:40:38Z</time>
      </trkpt>
      <trkpt lat="42.4469808396" lon="-0.6940098479">
        <ele>761.50</ele>
        <time>2022-04-15T13:40:42Z</time>
      </trkpt>
      <trkpt lat="42.4469583761" lon="-0.6937931757">
        <ele>760.06</ele>
        <time>2022-04-15T13:40:56Z</time>
      </trkpt>
      <trkpt lat="42.4468687735" lon="-0.6935490947">
        <ele>758.62</ele>
        <time>2022-04-15T13:41:11Z</time>
      </trkpt>
      <trkpt lat="42.4468701147" lon="-0.6934047583">
        <ele>758.14</ele>
        <time>2022-04-15T13:41:21Z</time>
      </trkpt>
      <trkpt lat="42.4468593858" lon="-0.6933309976">
        <ele>757.66</ele>
        <time>2022-04-15T13:41:25Z</time>
      </trkpt>
      <trkpt lat="42.4468517583" lon="-0.6932394672">
        <ele>757.66</ele>
        <time>2022-04-15T13:41:31Z</time>
      </trkpt>
      <trkpt lat="42.4469171371" lon="-0.6931541394">
        <ele>757.66</ele>
        <time>2022-04-15T13:41:41Z</time>
      </trkpt>
      <trkpt lat="42.4469592143" lon="-0.6931094639">
        <ele>759.10</ele>
        <time>2022-04-15T13:41:47Z</time>
      </trkpt>
      <trkpt lat="42.4469722901" lon="-0.6930905208">
        <ele>760.06</ele>
        <time>2022-04-15T13:41:49Z</time>
      </trkpt>
      <trkpt lat="42.4471130222" lon="-0.6929842383">
        <ele>761.98</ele>
        <time>2022-04-15T13:42:05Z</time>
      </trkpt>
      <trkpt lat="42.4471051432" lon="-0.6929443404">
        <ele>762.94</ele>
        <time>2022-04-15T13:42:09Z</time>
      </trkpt>
      <trkpt lat="42.4471659958" lon="-0.6929286662">
        <ele>763.42</ele>
        <time>2022-04-15T13:42:12Z</time>
      </trkpt>
      <trkpt lat="42.4472979270" lon="-0.6929434184">
        <ele>764.39</ele>
        <time>2022-04-15T13:42:26Z</time>
      </trkpt>
      <trkpt lat="42.4473484699" lon="-0.6929606851">
        <ele>763.90</ele>
        <time>2022-04-15T13:42:35Z</time>
      </trkpt>
      <trkpt lat="42.4473669101" lon="-0.6929953862">
        <ele>764.87</ele>
        <time>2022-04-15T13:42:38Z</time>
      </trkpt>
      <trkpt lat="42.4473737832" lon="-0.6930176821">
        <ele>764.87</ele>
        <time>2022-04-15T13:42:40Z</time>
      </trkpt>
      <trkpt lat="42.4475453608" lon="-0.6931815483">
        <ele>764.87</ele>
        <time>2022-04-15T13:42:55Z</time>
      </trkpt>
      <trkpt lat="42.4476510566" lon="-0.6931510381">
        <ele>762.94</ele>
        <time>2022-04-15T13:43:02Z</time>
      </trkpt>
      <trkpt lat="42.4478175212" lon="-0.6930153351">
        <ele>761.50</ele>
        <time>2022-04-15T13:43:17Z</time>
      </trkpt>
      <trkpt lat="42.4479805492" lon="-0.6928778719">
        <ele>760.54</ele>
        <time>2022-04-15T13:43:34Z</time>
      </trkpt>
      <trkpt lat="42.4480457604" lon="-0.6927917898">
        <ele>760.06</ele>
        <time>2022-04-15T13:43:43Z</time>
      </trkpt>
      <trkpt lat="42.4482175056" lon="-0.6925532408">
        <ele>760.06</ele>
        <time>2022-04-15T13:44:01Z</time>
      </trkpt>
      <trkpt lat="42.4483096227" lon="-0.6924260035">
        <ele>759.58</ele>
        <time>2022-04-15T13:44:16Z</time>
      </trkpt>
      <trkpt lat="42.4483929388" lon="-0.6922576111">
        <ele>759.58</ele>
        <time>2022-04-15T13:44:29Z</time>
      </trkpt>
      <trkpt lat="42.4485173263" lon="-0.6920611393">
        <ele>759.58</ele>
        <time>2022-04-15T13:44:45Z</time>
      </trkpt>
      <trkpt lat="42.4485076871" lon="-0.6920508295">
        <ele>759.58</ele>
        <time>2022-04-15T13:44:54Z</time>
      </trkpt>
      <trkpt lat="42.4484985508" lon="-0.6920708623">
        <ele>761.02</ele>
        <time>2022-04-15T13:44:56Z</time>
      </trkpt>
      <trkpt lat="42.4484863970" lon="-0.6920779869">
        <ele>760.06</ele>
        <time>2022-04-15T13:45:01Z</time>
      </trkpt>
      <trkpt lat="42.4485665280" lon="-0.6920518354">
        <ele>760.06</ele>
        <time>2022-04-15T13:45:24Z</time>
      </trkpt>
      <trkpt lat="42.4485747423" lon="-0.6920456327">
        <ele>760.06</ele>
        <time>2022-04-15T13:45:25Z</time>
      </trkpt>
      <trkpt lat="42.4486699607" lon="-0.6919737160">
        <ele>761.02</ele>
        <time>2022-04-15T13:45:36Z</time>
      </trkpt>
      <trkpt lat="42.4487395305" lon="-0.6918946747">
        <ele>761.02</ele>
        <time>2022-04-15T13:45:44Z</time>
      </trkpt>
      <trkpt lat="42.4488599785" lon="-0.6916235201">
        <ele>762.46</ele>
        <time>2022-04-15T13:46:08Z</time>
      </trkpt>
      <trkpt lat="42.4489762355" lon="-0.6913510244">
        <ele>762.94</ele>
        <time>2022-04-15T13:46:30Z</time>
      </trkpt>
      <trkpt lat="42.4490628205" lon="-0.6911991443">
        <ele>763.90</ele>
        <time>2022-04-15T13:46:43Z</time>
      </trkpt>
      <trkpt lat="42.4491153751" lon="-0.6911030877">
        <ele>762.46</ele>
        <time>2022-04-15T13:46:50Z</time>
      </trkpt>
      <trkpt lat="42.4492112640" lon="-0.6909459271">
        <ele>761.98</ele>
        <time>2022-04-15T13:47:04Z</time>
      </trkpt>
      <trkpt lat="42.4492722843" lon="-0.6908116490">
        <ele>761.98</ele>
        <time>2022-04-15T13:47:18Z</time>
      </trkpt>
      <trkpt lat="42.4493389204" lon="-0.6906711683">
        <ele>761.50</ele>
        <time>2022-04-15T13:47:29Z</time>
      </trkpt>
      <trkpt lat="42.4494011141" lon="-0.6905907858">
        <ele>761.50</ele>
        <time>2022-04-15T13:47:35Z</time>
      </trkpt>
      <trkpt lat="42.4494914711" lon="-0.6904785521">
        <ele>761.50</ele>
        <time>2022-04-15T13:47:45Z</time>
      </trkpt>
      <trkpt lat="42.4496268388" lon="-0.6903188769">
        <ele>761.02</ele>
        <time>2022-04-15T13:48:02Z</time>
      </trkpt>
      <trkpt lat="42.4496736936" lon="-0.6902536657">
        <ele>761.02</ele>
        <time>2022-04-15T13:48:07Z</time>
      </trkpt>
      <trkpt lat="42.4497591890" lon="-0.6901505683">
        <ele>760.54</ele>
        <time>2022-04-15T13:48:19Z</time>
      </trkpt>
      <trkpt lat="42.4498669803" lon="-0.6900498178">
        <ele>760.54</ele>
        <time>2022-04-15T13:48:33Z</time>
      </trkpt>
      <trkpt lat="42.4501029309" lon="-0.6902099121">
        <ele>760.06</ele>
        <time>2022-04-15T13:48:50Z</time>
      </trkpt>
      <trkpt lat="42.4502802081" lon="-0.6902120914">
        <ele>760.06</ele>
        <time>2022-04-15T13:49:06Z</time>
      </trkpt>
      <trkpt lat="42.4504230358" lon="-0.6901239138">
        <ele>760.06</ele>
        <time>2022-04-15T13:49:22Z</time>
      </trkpt>
      <trkpt lat="42.4504633527" lon="-0.6901017856">
        <ele>760.54</ele>
        <time>2022-04-15T13:49:36Z</time>
      </trkpt>
      <trkpt lat="42.4505812023" lon="-0.6900158711">
        <ele>759.10</ele>
        <time>2022-04-15T13:49:46Z</time>
      </trkpt>
      <trkpt lat="42.4507461581" lon="-0.6898383424">
        <ele>758.62</ele>
        <time>2022-04-15T13:50:03Z</time>
      </trkpt>
      <trkpt lat="42.4508838728" lon="-0.6896828581">
        <ele>757.66</ele>
        <time>2022-04-15T13:50:18Z</time>
      </trkpt>
      <trkpt lat="42.4509386905" lon="-0.6895909086">
        <ele>757.18</ele>
        <time>2022-04-15T13:50:25Z</time>
      </trkpt>
      <trkpt lat="42.4509635847" lon="-0.6895435508">
        <ele>757.18</ele>
        <time>2022-04-15T13:50:29Z</time>
      </trkpt>
      <trkpt lat="42.4510127027" lon="-0.6894913316">
        <ele>757.18</ele>
        <time>2022-04-15T13:50:34Z</time>
      </trkpt>
      <trkpt lat="42.4511446338" lon="-0.6893285550">
        <ele>756.69</ele>
        <time>2022-04-15T13:50:49Z</time>
      </trkpt>
      <trkpt lat="42.4512603041" lon="-0.6891892478">
        <ele>758.14</ele>
        <time>2022-04-15T13:51:02Z</time>
      </trkpt>
      <trkpt lat="42.4514149502" lon="-0.6889538001">
        <ele>760.06</ele>
        <time>2022-04-15T13:51:21Z</time>
      </trkpt>
      <trkpt lat="42.4515365716" lon="-0.6887881737">
        <ele>762.46</ele>
        <time>2022-04-15T13:51:37Z</time>
      </trkpt>
      <trkpt lat="42.4516643118" lon="-0.6885358784">
        <ele>763.42</ele>
        <time>2022-04-15T13:51:55Z</time>
      </trkpt>
      <trkpt lat="42.4517001864" lon="-0.6884379778">
        <ele>761.98</ele>
        <time>2022-04-15T13:52:01Z</time>
      </trkpt>
      <trkpt lat="42.4518095702" lon="-0.6882291008">
        <ele>760.54</ele>
        <time>2022-04-15T13:52:17Z</time>
      </trkpt>
      <trkpt lat="42.4519533198" lon="-0.6879000273">
        <ele>759.10</ele>
        <time>2022-04-15T13:52:39Z</time>
      </trkpt>
      <trkpt lat="42.4520578422" lon="-0.6875732169">
        <ele>759.10</ele>
        <time>2022-04-15T13:53:01Z</time>
      </trkpt>
      <trkpt lat="42.4521363806" lon="-0.6872746535">
        <ele>758.62</ele>
        <time>2022-04-15T13:53:19Z</time>
      </trkpt>
      <trkpt lat="42.4522308446" lon="-0.6869929377">
        <ele>758.62</ele>
        <time>2022-04-15T13:53:39Z</time>
      </trkpt>
      <trkpt lat="42.4523088802" lon="-0.6868191808">
        <ele>758.14</ele>
        <time>2022-04-15T13:53:54Z</time>
      </trkpt>
      <trkpt lat="42.4523243867" lon="-0.6868212763">
        <ele>757.66</ele>
        <time>2022-04-15T13:54:26Z</time>
      </trkpt>
      <trkpt lat="42.4523076229" lon="-0.6867928617">
        <ele>757.66</ele>
        <time>2022-04-15T13:54:51Z</time>
      </trkpt>
      <trkpt lat="42.4523253087" lon="-0.6868113019">
        <ele>757.66</ele>
        <time>2022-04-15T13:55:27Z</time>
      </trkpt>
      <trkpt lat="42.4523313437" lon="-0.6867731642">
        <ele>757.66</ele>
        <time>2022-04-15T13:56:09Z</time>
      </trkpt>
      <trkpt lat="42.4522958882" lon="-0.6867996510">
        <ele>757.66</ele>
        <time>2022-04-15T13:56:51Z</time>
      </trkpt>
      <trkpt lat="42.4523556512" lon="-0.6866765209">
        <ele>757.18</ele>
        <time>2022-04-15T13:57:06Z</time>
      </trkpt>
      <trkpt lat="42.4524812959" lon="-0.6864022650">
        <ele>756.69</ele>
        <time>2022-04-15T13:57:27Z</time>
      </trkpt>
      <trkpt lat="42.4525966309" lon="-0.6861443538">
        <ele>755.73</ele>
        <time>2022-04-15T13:57:49Z</time>
      </trkpt>
      <trkpt lat="42.4526506104" lon="-0.6859485526">
        <ele>754.77</ele>
        <time>2022-04-15T13:58:01Z</time>
      </trkpt>
      <trkpt lat="42.4526542146" lon="-0.6859190483">
        <ele>754.77</ele>
        <time>2022-04-15T13:58:03Z</time>
      </trkpt>
      <trkpt lat="42.4526734091" lon="-0.6858622190">
        <ele>754.29</ele>
        <time>2022-04-15T13:58:07Z</time>
      </trkpt>
      <trkpt lat="42.4527200125" lon="-0.6857786514">
        <ele>753.81</ele>
        <time>2022-04-15T13:58:15Z</time>
      </trkpt>
      <trkpt lat="42.4528645165" lon="-0.6856644060">
        <ele>750.93</ele>
        <time>2022-04-15T13:58:33Z</time>
      </trkpt>
      <trkpt lat="42.4529826175" lon="-0.6856007036">
        <ele>749.00</ele>
        <time>2022-04-15T13:58:47Z</time>
      </trkpt>
      <trkpt lat="42.4531681929" lon="-0.6854696944">
        <ele>748.52</ele>
        <time>2022-04-15T13:59:05Z</time>
      </trkpt>
      <trkpt lat="42.4532185681" lon="-0.6853042357">
        <ele>748.52</ele>
        <time>2022-04-15T13:59:14Z</time>
      </trkpt>
      <trkpt lat="42.4532334041" lon="-0.6851131283">
        <ele>749.97</ele>
        <time>2022-04-15T13:59:27Z</time>
      </trkpt>
      <trkpt lat="42.4531929195" lon="-0.6848558038">
        <ele>751.41</ele>
        <time>2022-04-15T13:59:45Z</time>
      </trkpt>
      <trkpt lat="42.4531428795" lon="-0.6845754292">
        <ele>751.89</ele>
        <time>2022-04-15T14:00:05Z</time>
      </trkpt>
      <trkpt lat="42.4530894030" lon="-0.6842993293">
        <ele>754.29</ele>
        <time>2022-04-15T14:00:26Z</time>
      </trkpt>
      <trkpt lat="42.4530877266" lon="-0.6841536518">
        <ele>753.81</ele>
        <time>2022-04-15T14:00:36Z</time>
      </trkpt>
      <trkpt lat="42.4530854635" lon="-0.6841250695">
        <ele>755.73</ele>
        <time>2022-04-15T14:00:38Z</time>
      </trkpt>
      <trkpt lat="42.4531392753" lon="-0.6838910468">
        <ele>756.21</ele>
        <time>2022-04-15T14:00:57Z</time>
      </trkpt>
      <trkpt lat="42.4532502517" lon="-0.6836676691">
        <ele>759.10</ele>
        <time>2022-04-15T14:01:19Z</time>
      </trkpt>
      <trkpt lat="42.4533362500" lon="-0.6834960915">
        <ele>761.98</ele>
        <time>2022-04-15T14:01:35Z</time>
      </trkpt>
      <trkpt lat="42.4534724560" lon="-0.6832894776">
        <ele>762.94</ele>
        <time>2022-04-15T14:01:52Z</time>
      </trkpt>
      <trkpt lat="42.4534989428" lon="-0.6832484901">
        <ele>764.39</ele>
        <time>2022-04-15T14:01:55Z</time>
      </trkpt>
      <trkpt lat="42.4536085781" lon="-0.6830587238">
        <ele>764.87</ele>
        <time>2022-04-15T14:02:12Z</time>
      </trkpt>
      <trkpt lat="42.4536233302" lon="-0.6830157246">
        <ele>765.35</ele>
        <time>2022-04-15T14:02:15Z</time>
      </trkpt>
      <trkpt lat="42.4537599552" lon="-0.6828069314">
        <ele>767.75</ele>
        <time>2022-04-15T14:02:34Z</time>
      </trkpt>
      <trkpt lat="42.4538612925" lon="-0.6826449092">
        <ele>769.67</ele>
        <time>2022-04-15T14:02:49Z</time>
      </trkpt>
      <trkpt lat="42.4539457820" lon="-0.6824977230">
        <ele>771.11</ele>
        <time>2022-04-15T14:03:01Z</time>
      </trkpt>
      <trkpt lat="42.4539791420" lon="-0.6823768560">
        <ele>772.56</ele>
        <time>2022-04-15T14:03:11Z</time>
      </trkpt>
      <trkpt lat="42.4540591054" lon="-0.6822176836">
        <ele>775.44</ele>
        <time>2022-04-15T14:03:27Z</time>
      </trkpt>
      <trkpt lat="42.4541453552" lon="-0.6820560805">
        <ele>776.88</ele>
        <time>2022-04-15T14:03:41Z</time>
      </trkpt>
      <trkpt lat="42.4542643782" lon="-0.6818730198">
        <ele>777.84</ele>
        <time>2022-04-15T14:03:58Z</time>
      </trkpt>
      <trkpt lat="42.4543186929" lon="-0.6818196271">
        <ele>778.32</ele>
        <time>2022-04-15T14:04:04Z</time>
      </trkpt>
      <trkpt lat="42.4543525558" lon="-0.6817675754">
        <ele>778.81</ele>
        <time>2022-04-15T14:04:08Z</time>
      </trkpt>
      <trkpt lat="42.4545212835" lon="-0.6815541722">
        <ele>780.73</ele>
        <time>2022-04-15T14:04:29Z</time>
      </trkpt>
      <trkpt lat="42.4546088744" lon="-0.6814476382">
        <ele>781.69</ele>
        <time>2022-04-15T14:04:46Z</time>
      </trkpt>
      <trkpt lat="42.4546106346" lon="-0.6814226601">
        <ele>781.69</ele>
        <time>2022-04-15T14:05:19Z</time>
      </trkpt>
      <trkpt lat="42.4546518736" lon="-0.6814222410">
        <ele>781.69</ele>
        <time>2022-04-15T14:05:42Z</time>
      </trkpt>
      <trkpt lat="42.4546382111" lon="-0.6814478058">
        <ele>781.69</ele>
        <time>2022-04-15T14:06:25Z</time>
      </trkpt>
      <trkpt lat="42.4546684697" lon="-0.6814340595">
        <ele>781.21</ele>
        <time>2022-04-15T14:07:07Z</time>
      </trkpt>
      <trkpt lat="42.4547910970" lon="-0.6813653279">
        <ele>781.21</ele>
        <time>2022-04-15T14:07:25Z</time>
      </trkpt>
      <trkpt lat="42.4548538774" lon="-0.6813557725">
        <ele>781.21</ele>
        <time>2022-04-15T14:07:35Z</time>
      </trkpt>
      <trkpt lat="42.4549167417" lon="-0.6813664176">
        <ele>780.73</ele>
        <time>2022-04-15T14:07:53Z</time>
      </trkpt>
      <trkpt lat="42.4549796898" lon="-0.6813684292">
        <ele>780.73</ele>
        <time>2022-04-15T14:08:24Z</time>
      </trkpt>
      <trkpt lat="42.4549833778" lon="-0.6813744642">
        <ele>780.73</ele>
        <time>2022-04-15T14:08:57Z</time>
      </trkpt>
      <trkpt lat="42.4549226929" lon="-0.6814238336">
        <ele>780.73</ele>
        <time>2022-04-15T14:09:28Z</time>
      </trkpt>
      <trkpt lat="42.4548891652" lon="-0.6814336404">
        <ele>780.73</ele>
        <time>2022-04-15T14:10:06Z</time>
      </trkpt>
      <trkpt lat="42.4549082760" lon="-0.6814107578">
        <ele>780.73</ele>
        <time>2022-04-15T14:10:29Z</time>
      </trkpt>
      <trkpt lat="42.4550076853" lon="-0.6814224087">
        <ele>780.73</ele>
        <time>2022-04-15T14:10:38Z</time>
      </trkpt>
      <trkpt lat="42.4550741538" lon="-0.6814783998">
        <ele>780.73</ele>
        <time>2022-04-15T14:10:45Z</time>
      </trkpt>
      <trkpt lat="42.4551257864" lon="-0.6816519052">
        <ele>779.77</ele>
        <time>2022-04-15T14:11:00Z</time>
      </trkpt>
      <trkpt lat="42.4552073423" lon="-0.6817432679">
        <ele>779.29</ele>
        <time>2022-04-15T14:11:15Z</time>
      </trkpt>
      <trkpt lat="42.4553422909" lon="-0.6817965768">
        <ele>777.84</ele>
        <time>2022-04-15T14:11:33Z</time>
      </trkpt>
      <trkpt lat="42.4553837813" lon="-0.6818216387">
        <ele>777.84</ele>
        <time>2022-04-15T14:11:37Z</time>
      </trkpt>
      <trkpt lat="42.4555352423" lon="-0.6819458585">
        <ele>776.88</ele>
        <time>2022-04-15T14:11:50Z</time>
      </trkpt>
      <trkpt lat="42.4556656647" lon="-0.6820738502">
        <ele>775.44</ele>
        <time>2022-04-15T14:12:07Z</time>
      </trkpt>
      <trkpt lat="42.4557107594" lon="-0.6820915360">
        <ele>772.08</ele>
        <time>2022-04-15T14:12:17Z</time>
      </trkpt>
      <trkpt lat="42.4557080772" lon="-0.6820901111">
        <ele>775.92</ele>
        <time>2022-04-15T14:12:18Z</time>
      </trkpt>
      <trkpt lat="42.4557032157" lon="-0.6820826512">
        <ele>773.52</ele>
        <time>2022-04-15T14:12:21Z</time>
      </trkpt>
      <trkpt lat="42.4557049759" lon="-0.6820770353">
        <ele>774.48</ele>
        <time>2022-04-15T14:12:23Z</time>
      </trkpt>
      <trkpt lat="42.4557010364" lon="-0.6820762809">
        <ele>774.48</ele>
        <time>2022-04-15T14:12:48Z</time>
      </trkpt>
      <trkpt lat="42.4557161238" lon="-0.6820533145">
        <ele>774.96</ele>
        <time>2022-04-15T14:13:25Z</time>
      </trkpt>
      <trkpt lat="42.4557437841" lon="-0.6820786279">
        <ele>774.96</ele>
        <time>2022-04-15T14:13:58Z</time>
      </trkpt>
      <trkpt lat="42.4557070713" lon="-0.6820685696">
        <ele>774.96</ele>
        <time>2022-04-15T14:14:34Z</time>
      </trkpt>
      <trkpt lat="42.4556936603" lon="-0.6820611097">
        <ele>774.96</ele>
        <time>2022-04-15T14:14:54Z</time>
      </trkpt>
      <trkpt lat="42.4556887150" lon="-0.6820760295">
        <ele>775.44</ele>
        <time>2022-04-15T14:15:23Z</time>
      </trkpt>
      <trkpt lat="42.4556887988" lon="-0.6820842437">
        <ele>775.92</ele>
        <time>2022-04-15T14:15:42Z</time>
      </trkpt>
      <trkpt lat="42.4556846078" lon="-0.6820699945">
        <ele>776.40</ele>
        <time>2022-04-15T14:16:02Z</time>
      </trkpt>
      <trkpt lat="42.4556917325" lon="-0.6820502970">
        <ele>774.96</ele>
        <time>2022-04-15T14:16:12Z</time>
      </trkpt>
      <trkpt lat="42.4557005335" lon="-0.6820699945">
        <ele>774.96</ele>
        <time>2022-04-15T14:16:56Z</time>
      </trkpt>
      <trkpt lat="42.4556771480" lon="-0.6820753589">
        <ele>774.96</ele>
        <time>2022-04-15T14:17:19Z</time>
      </trkpt>
      <trkpt lat="42.4556723703" lon="-0.6820600200">
        <ele>774.00</ele>
        <time>2022-04-15T14:17:27Z</time>
      </trkpt>
      <trkpt lat="42.4556749687" lon="-0.6820554938">
        <ele>774.96</ele>
        <time>2022-04-15T14:17:30Z</time>
      </trkpt>
      <trkpt lat="42.4556837697" lon="-0.6819950603">
        <ele>775.44</ele>
        <time>2022-04-15T14:18:05Z</time>
      </trkpt>
      <trkpt lat="42.4556776509" lon="-0.6820110697">
        <ele>775.92</ele>
        <time>2022-04-15T14:18:45Z</time>
      </trkpt>
      <trkpt lat="42.4556710292" lon="-0.6820232235">
        <ele>775.92</ele>
        <time>2022-04-15T14:19:25Z</time>
      </trkpt>
      <trkpt lat="42.4556903914" lon="-0.6820279174">
        <ele>775.92</ele>
        <time>2022-04-15T14:19:59Z</time>
      </trkpt>
      <trkpt lat="42.4556948338" lon="-0.6819766201">
        <ele>775.92</ele>
        <time>2022-04-15T14:20:34Z</time>
      </trkpt>
      <trkpt lat="42.4556898046" lon="-0.6819911208">
        <ele>775.92</ele>
        <time>2022-04-15T14:21:13Z</time>
      </trkpt>
      <trkpt lat="42.4557025451" lon="-0.6820223853">
        <ele>775.92</ele>
        <time>2022-04-15T14:21:39Z</time>
      </trkpt>
      <trkpt lat="42.4556986894" lon="-0.6820640434">
        <ele>775.92</ele>
        <time>2022-04-15T14:22:11Z</time>
      </trkpt>
      <trkpt lat="42.4556924868" lon="-0.6820580922">
        <ele>775.92</ele>
        <time>2022-04-15T14:22:37Z</time>
      </trkpt>
      <trkpt lat="42.4556940794" lon="-0.6820501294">
        <ele>775.92</ele>
        <time>2022-04-15T14:23:07Z</time>
      </trkpt>
      <trkpt lat="42.4556806684" lon="-0.6820582598">
        <ele>775.92</ele>
        <time>2022-04-15T14:23:34Z</time>
      </trkpt>
      <trkpt lat="42.4556811713" lon="-0.6820319407">
        <ele>775.92</ele>
        <time>2022-04-15T14:23:58Z</time>
      </trkpt>
      <trkpt lat="42.4556743819" lon="-0.6820048671">
        <ele>775.92</ele>
        <time>2022-04-15T14:24:36Z</time>
      </trkpt>
      <trkpt lat="42.4556857813" lon="-0.6820022687">
        <ele>777.36</ele>
        <time>2022-04-15T14:25:04Z</time>
      </trkpt>
      <trkpt lat="42.4556646589" lon="-0.6820849981">
        <ele>777.84</ele>
        <time>2022-04-15T14:25:18Z</time>
      </trkpt>
      <trkpt lat="42.4556627311" lon="-0.6820861716">
        <ele>774.48</ele>
        <time>2022-04-15T14:25:19Z</time>
      </trkpt>
      <trkpt lat="42.4556610547" lon="-0.6820879318">
        <ele>778.81</ele>
        <time>2022-04-15T14:25:20Z</time>
      </trkpt>
      <trkpt lat="42.4556944985" lon="-0.6820830703">
        <ele>776.88</ele>
        <time>2022-04-15T14:25:32Z</time>
      </trkpt>
      <trkpt lat="42.4558134377" lon="-0.6821977347">
        <ele>775.92</ele>
        <time>2022-04-15T14:25:47Z</time>
      </trkpt>
      <trkpt lat="42.4559073988" lon="-0.6822253950">
        <ele>774.96</ele>
        <time>2022-04-15T14:25:56Z</time>
      </trkpt>
      <trkpt lat="42.4561114144" lon="-0.6822087988">
        <ele>774.00</ele>
        <time>2022-04-15T14:26:12Z</time>
      </trkpt>
      <trkpt lat="42.4562090635" lon="-0.6822595093">
        <ele>774.00</ele>
        <time>2022-04-15T14:26:26Z</time>
      </trkpt>
      <trkpt lat="42.4563460238" lon="-0.6823966373">
        <ele>772.56</ele>
        <time>2022-04-15T14:26:43Z</time>
      </trkpt>
      <trkpt lat="42.4564019311" lon="-0.6824237108">
        <ele>772.08</ele>
        <time>2022-04-15T14:26:49Z</time>
      </trkpt>
      <trkpt lat="42.4564920366" lon="-0.6824507006">
        <ele>771.11</ele>
        <time>2022-04-15T14:27:03Z</time>
      </trkpt>
      <trkpt lat="42.4566766899" lon="-0.6824705657">
        <ele>770.15</ele>
        <time>2022-04-15T14:27:20Z</time>
      </trkpt>
      <trkpt lat="42.4568802025" lon="-0.6824714877">
        <ele>769.19</ele>
        <time>2022-04-15T14:27:37Z</time>
      </trkpt>
      <trkpt lat="42.4570143130" lon="-0.6825255509">
        <ele>769.19</ele>
        <time>2022-04-15T14:27:50Z</time>
      </trkpt>
      <trkpt lat="42.4571533687" lon="-0.6826574821">
        <ele>768.71</ele>
        <time>2022-04-15T14:28:05Z</time>
      </trkpt>
      <trkpt lat="42.4572151434" lon="-0.6827299017">
        <ele>768.71</ele>
        <time>2022-04-15T14:28:12Z</time>
      </trkpt>
      <trkpt lat="42.4573313165" lon="-0.6829283014">
        <ele>768.71</ele>
        <time>2022-04-15T14:28:27Z</time>
      </trkpt>
      <trkpt lat="42.4574817717" lon="-0.6830410380">
        <ele>768.71</ele>
        <time>2022-04-15T14:28:42Z</time>
      </trkpt>
      <trkpt lat="42.4575504195" lon="-0.6830521859">
        <ele>768.71</ele>
        <time>2022-04-15T14:28:48Z</time>
      </trkpt>
      <trkpt lat="42.4576310534" lon="-0.6830553710">
        <ele>768.71</ele>
        <time>2022-04-15T14:29:04Z</time>
      </trkpt>
      <trkpt lat="42.4577366654" lon="-0.6831001304">
        <ele>768.71</ele>
        <time>2022-04-15T14:29:17Z</time>
      </trkpt>
      <trkpt lat="42.4579226598" lon="-0.6831587199">
        <ele>768.71</ele>
        <time>2022-04-15T14:29:32Z</time>
      </trkpt>
      <trkpt lat="42.4580675829" lon="-0.6832067482">
        <ele>768.71</ele>
        <time>2022-04-15T14:29:44Z</time>
      </trkpt>
      <trkpt lat="42.4582641385" lon="-0.6832671817">
        <ele>769.67</ele>
        <time>2022-04-15T14:30:00Z</time>
      </trkpt>
      <trkpt lat="42.4583612848" lon="-0.6833063252">
        <ele>770.15</ele>
        <time>2022-04-15T14:30:12Z</time>
      </trkpt>
      <trkpt lat="42.4584223889" lon="-0.6833446305">
        <ele>770.63</ele>
        <time>2022-04-15T14:30:19Z</time>
      </trkpt>
      <trkpt lat="42.4585243966" lon="-0.6834018789">
        <ele>770.63</ele>
        <time>2022-04-15T14:30:29Z</time>
      </trkpt>
      <trkpt lat="42.4586657155" lon="-0.6835012883">
        <ele>771.60</ele>
        <time>2022-04-15T14:30:43Z</time>
      </trkpt>
      <trkpt lat="42.4587958027" lon="-0.6835654937">
        <ele>772.56</ele>
        <time>2022-04-15T14:30:53Z</time>
      </trkpt>
      <trkpt lat="42.4588529672" lon="-0.6835918967">
        <ele>772.56</ele>
        <time>2022-04-15T14:30:58Z</time>
      </trkpt>
      <trkpt lat="42.4589495268" lon="-0.6836597063">
        <ele>772.56</ele>
        <time>2022-04-15T14:31:06Z</time>
      </trkpt>
      <trkpt lat="42.4589991476" lon="-0.6836981792">
        <ele>772.56</ele>
        <time>2022-04-15T14:31:10Z</time>
      </trkpt>
      <trkpt lat="42.4591392092" lon="-0.6838691700">
        <ele>772.56</ele>
        <time>2022-04-15T14:31:26Z</time>
      </trkpt>
      <trkpt lat="42.4592726491" lon="-0.6839633826">
        <ele>772.56</ele>
        <time>2022-04-15T14:31:40Z</time>
      </trkpt>
      <trkpt lat="42.4593331665" lon="-0.6840020232">
        <ele>773.04</ele>
        <time>2022-04-15T14:31:45Z</time>
      </trkpt>
      <trkpt lat="42.4594955239" lon="-0.6841000076">
        <ele>773.52</ele>
        <time>2022-04-15T14:32:00Z</time>
      </trkpt>
      <trkpt lat="42.4595937598" lon="-0.6840966549">
        <ele>773.52</ele>
        <time>2022-04-15T14:32:10Z</time>
      </trkpt>
      <trkpt lat="42.4597437959" lon="-0.6840430107">
        <ele>772.08</ele>
        <time>2022-04-15T14:32:23Z</time>
      </trkpt>
      <trkpt lat="42.4597561173" lon="-0.6840410829">
        <ele>772.08</ele>
        <time>2022-04-15T14:32:24Z</time>
      </trkpt>
      <trkpt lat="42.4597934168" lon="-0.6840294320">
        <ele>773.04</ele>
        <time>2022-04-15T14:32:34Z</time>
      </trkpt>
      <trkpt lat="42.4598277826" lon="-0.6840298511">
        <ele>773.04</ele>
        <time>2022-04-15T14:32:38Z</time>
      </trkpt>
      <trkpt lat="42.4599777348" lon="-0.6841048691">
        <ele>773.52</ele>
        <time>2022-04-15T14:32:54Z</time>
      </trkpt>
      <trkpt lat="42.4601382483" lon="-0.6841387320">
        <ele>774.00</ele>
        <time>2022-04-15T14:33:08Z</time>
      </trkpt>
      <trkpt lat="42.4602687545" lon="-0.6840848364">
        <ele>774.96</ele>
        <time>2022-04-15T14:33:22Z</time>
      </trkpt>
      <trkpt lat="42.4604434334" lon="-0.6840213016">
        <ele>776.40</ele>
        <time>2022-04-15T14:33:36Z</time>
      </trkpt>
      <trkpt lat="42.4605678208" lon="-0.6839118339">
        <ele>777.36</ele>
        <time>2022-04-15T14:33:51Z</time>
      </trkpt>
      <trkpt lat="42.4607318547" lon="-0.6837037113">
        <ele>778.81</ele>
        <time>2022-04-15T14:34:08Z</time>
      </trkpt>
      <trkpt lat="42.4608254805" lon="-0.6834783219">
        <ele>779.77</ele>
        <time>2022-04-15T14:34:25Z</time>
      </trkpt>
      <trkpt lat="42.4609276559" lon="-0.6833204068">
        <ele>781.21</ele>
        <time>2022-04-15T14:34:40Z</time>
      </trkpt>
      <trkpt lat="42.4610251375" lon="-0.6831519306">
        <ele>783.13</ele>
        <time>2022-04-15T14:34:55Z</time>
      </trkpt>
      <trkpt lat="42.4610868283" lon="-0.6830265373">
        <ele>785.53</ele>
        <time>2022-04-15T14:35:07Z</time>
      </trkpt>
      <trkpt lat="42.4611424841" lon="-0.6828735676">
        <ele>786.98</ele>
        <time>2022-04-15T14:35:19Z</time>
      </trkpt>
      <trkpt lat="42.4611729104" lon="-0.6827805284">
        <ele>787.94</ele>
        <time>2022-04-15T14:35:26Z</time>
      </trkpt>
      <trkpt lat="42.4612042587" lon="-0.6827071868">
        <ele>788.90</ele>
        <time>2022-04-15T14:35:32Z</time>
      </trkpt>
      <trkpt lat="42.4612328410" lon="-0.6826126389">
        <ele>789.38</ele>
        <time>2022-04-15T14:35:39Z</time>
      </trkpt>
      <trkpt lat="42.4613269698" lon="-0.6824394688">
        <ele>791.30</ele>
        <time>2022-04-15T14:35:54Z</time>
      </trkpt>
      <trkpt lat="42.4614502676" lon="-0.6823819689">
        <ele>792.74</ele>
        <time>2022-04-15T14:36:06Z</time>
      </trkpt>
      <trkpt lat="42.4615011457" lon="-0.6823842321">
        <ele>793.22</ele>
        <time>2022-04-15T14:36:11Z</time>
      </trkpt>
      <trkpt lat="42.4617002998" lon="-0.6823775265">
        <ele>794.19</ele>
        <time>2022-04-15T14:36:28Z</time>
      </trkpt>
      <trkpt lat="42.4618368410" lon="-0.6823139079">
        <ele>795.63</ele>
        <time>2022-04-15T14:36:42Z</time>
      </trkpt>
      <trkpt lat="42.4619899783" lon="-0.6822623592">
        <ele>797.55</ele>
        <time>2022-04-15T14:36:57Z</time>
      </trkpt>
      <trkpt lat="42.4621239211" lon="-0.6822378002">
        <ele>800.44</ele>
        <time>2022-04-15T14:37:11Z</time>
      </trkpt>
      <trkpt lat="42.4622074049" lon="-0.6822114810">
        <ele>801.88</ele>
        <time>2022-04-15T14:37:20Z</time>
      </trkpt>
      <trkpt lat="42.4622620549" lon="-0.6821880117">
        <ele>802.36</ele>
        <time>2022-04-15T14:37:25Z</time>
      </trkpt>
      <trkpt lat="42.4623435270" lon="-0.6821608543">
        <ele>803.32</ele>
        <time>2022-04-15T14:37:34Z</time>
      </trkpt>
      <trkpt lat="42.4625096563" lon="-0.6820457708">
        <ele>805.24</ele>
        <time>2022-04-15T14:37:51Z</time>
      </trkpt>
      <trkpt lat="42.4626697507" lon="-0.6819517259">
        <ele>806.20</ele>
        <time>2022-04-15T14:38:06Z</time>
      </trkpt>
      <trkpt lat="42.4628381431" lon="-0.6818366423">
        <ele>807.64</ele>
        <time>2022-04-15T14:38:23Z</time>
      </trkpt>
      <trkpt lat="42.4629269075" lon="-0.6817667373">
        <ele>808.61</ele>
        <time>2022-04-15T14:38:34Z</time>
      </trkpt>
      <trkpt lat="42.4630902708" lon="-0.6816576049">
        <ele>809.09</ele>
        <time>2022-04-15T14:38:49Z</time>
      </trkpt>
      <trkpt lat="42.4632409774" lon="-0.6815771386">
        <ele>809.09</ele>
        <time>2022-04-15T14:39:04Z</time>
      </trkpt>
      <trkpt lat="42.4634209368" lon="-0.6815063953">
        <ele>810.05</ele>
        <time>2022-04-15T14:39:19Z</time>
      </trkpt>
      <trkpt lat="42.4635584000" lon="-0.6815351453">
        <ele>811.01</ele>
        <time>2022-04-15T14:39:32Z</time>
      </trkpt>
      <trkpt lat="42.4637666903" lon="-0.6816045474">
        <ele>814.37</ele>
        <time>2022-04-15T14:39:51Z</time>
      </trkpt>
      <trkpt lat="42.4638851266" lon="-0.6817469560">
        <ele>815.34</ele>
        <time>2022-04-15T14:40:06Z</time>
      </trkpt>
      <trkpt lat="42.4639243539" lon="-0.6819519773">
        <ele>816.30</ele>
        <time>2022-04-15T14:40:21Z</time>
      </trkpt>
      <trkpt lat="42.4639714602" lon="-0.6822476070">
        <ele>817.74</ele>
        <time>2022-04-15T14:40:39Z</time>
      </trkpt>
      <trkpt lat="42.4640084244" lon="-0.6823122315">
        <ele>818.22</ele>
        <time>2022-04-15T14:40:43Z</time>
      </trkpt>
      <trkpt lat="42.4641178083" lon="-0.6826775987">
        <ele>819.66</ele>
        <time>2022-04-15T14:41:06Z</time>
      </trkpt>
      <trkpt lat="42.4641551916" lon="-0.6828692090">
        <ele>822.55</ele>
        <time>2022-04-15T14:41:19Z</time>
      </trkpt>
      <trkpt lat="42.4642681796" lon="-0.6830905750">
        <ele>822.55</ele>
        <time>2022-04-15T14:41:37Z</time>
      </trkpt>
      <trkpt lat="42.4642947502" lon="-0.6831158046">
        <ele>822.55</ele>
        <time>2022-04-15T14:41:40Z</time>
      </trkpt>
      <trkpt lat="42.4645407591" lon="-0.6832220871">
        <ele>823.51</ele>
        <time>2022-04-15T14:42:01Z</time>
      </trkpt>
      <trkpt lat="42.4647300225" lon="-0.6831959356">
        <ele>823.51</ele>
        <time>2022-04-15T14:42:17Z</time>
      </trkpt>
      <trkpt lat="42.4648137577" lon="-0.6831354182">
        <ele>823.51</ele>
        <time>2022-04-15T14:42:26Z</time>
      </trkpt>
      <trkpt lat="42.4649749417" lon="-0.6830540299">
        <ele>823.03</ele>
        <time>2022-04-15T14:42:39Z</time>
      </trkpt>
      <trkpt lat="42.4651507940" lon="-0.6829325762">
        <ele>819.18</ele>
        <time>2022-04-15T14:42:58Z</time>
      </trkpt>
      <trkpt lat="42.4651604332" lon="-0.6829250325">
        <ele>820.62</ele>
        <time>2022-04-15T14:42:59Z</time>
      </trkpt>
      <trkpt lat="42.4651805498" lon="-0.6829077657">
        <ele>828.31</ele>
        <time>2022-04-15T14:43:01Z</time>
      </trkpt>
      <trkpt lat="42.4651914462" lon="-0.6829034910">
        <ele>825.43</ele>
        <time>2022-04-15T14:43:02Z</time>
      </trkpt>
      <trkpt lat="42.4652030133" lon="-0.6829011440">
        <ele>822.55</ele>
        <time>2022-04-15T14:43:03Z</time>
      </trkpt>
      <trkpt lat="42.4653184321" lon="-0.6828329992">
        <ele>822.06</ele>
        <time>2022-04-15T14:43:16Z</time>
      </trkpt>
      <trkpt lat="42.4653753452" lon="-0.6828200910">
        <ele>820.14</ele>
        <time>2022-04-15T14:43:20Z</time>
      </trkpt>
      <trkpt lat="42.4655611720" lon="-0.6826739106">
        <ele>817.26</ele>
        <time>2022-04-15T14:43:39Z</time>
      </trkpt>
      <trkpt lat="42.4657142255" lon="-0.6825426500">
        <ele>816.30</ele>
        <time>2022-04-15T14:43:54Z</time>
      </trkpt>
      <trkpt lat="42.4658005591" lon="-0.6824853178">
        <ele>815.82</ele>
        <time>2022-04-15T14:44:02Z</time>
      </trkpt>
      <trkpt lat="42.4658652674" lon="-0.6824222021">
        <ele>815.82</ele>
        <time>2022-04-15T14:44:09Z</time>
      </trkpt>
      <trkpt lat="42.4659670237" lon="-0.6823475193">
        <ele>815.82</ele>
        <time>2022-04-15T14:44:21Z</time>
      </trkpt>
      <trkpt lat="42.4660800118" lon="-0.6822754350">
        <ele>815.34</ele>
        <time>2022-04-15T14:44:33Z</time>
      </trkpt>
      <trkpt lat="42.4661132880" lon="-0.6822653767">
        <ele>816.78</ele>
        <time>2022-04-15T14:44:35Z</time>
      </trkpt>
      <trkpt lat="42.4662364181" lon="-0.6822280772">
        <ele>816.78</ele>
        <time>2022-04-15T14:44:43Z</time>
      </trkpt>
      <trkpt lat="42.4664199818" lon="-0.6821129937">
        <ele>817.74</ele>
        <time>2022-04-15T14:45:01Z</time>
      </trkpt>
      <trkpt lat="42.4665758852" lon="-0.6820523087">
        <ele>818.22</ele>
        <time>2022-04-15T14:45:16Z</time>
      </trkpt>
      <trkpt lat="42.4666835088" lon="-0.6819759496">
        <ele>819.66</ele>
        <time>2022-04-15T14:45:30Z</time>
      </trkpt>
      <trkpt lat="42.4667130969" lon="-0.6819570903">
        <ele>819.18</ele>
        <time>2022-04-15T14:45:32Z</time>
      </trkpt>
      <trkpt lat="42.4668255821" lon="-0.6818933878">
        <ele>820.62</ele>
        <time>2022-04-15T14:45:41Z</time>
      </trkpt>
      <trkpt lat="42.4669204652" lon="-0.6816847622">
        <ele>821.10</ele>
        <time>2022-04-15T14:45:58Z</time>
      </trkpt>
      <trkpt lat="42.4669392407" lon="-0.6816628017">
        <ele>821.58</ele>
        <time>2022-04-15T14:46:00Z</time>
      </trkpt>
      <trkpt lat="42.4669738580" lon="-0.6815931480">
        <ele>821.58</ele>
        <time>2022-04-15T14:46:05Z</time>
      </trkpt>
      <trkpt lat="42.4670632090" lon="-0.6813968439">
        <ele>822.55</ele>
        <time>2022-04-15T14:46:21Z</time>
      </trkpt>
      <trkpt lat="42.4671429209" lon="-0.6812252663">
        <ele>823.99</ele>
        <time>2022-04-15T14:46:35Z</time>
      </trkpt>
      <trkpt lat="42.4671705812" lon="-0.6810433790">
        <ele>824.47</ele>
        <time>2022-04-15T14:46:47Z</time>
      </trkpt>
      <trkpt lat="42.4672587588" lon="-0.6807866413">
        <ele>825.43</ele>
        <time>2022-04-15T14:47:03Z</time>
      </trkpt>
      <trkpt lat="42.4673070386" lon="-0.6806291454">
        <ele>826.39</ele>
        <time>2022-04-15T14:47:17Z</time>
      </trkpt>
      <trkpt lat="42.4673205335" lon="-0.6805830449">
        <ele>826.87</ele>
        <time>2022-04-15T14:47:20Z</time>
      </trkpt>
      <trkpt lat="42.4673507083" lon="-0.6805376988">
        <ele>826.87</ele>
        <time>2022-04-15T14:47:24Z</time>
      </trkpt>
      <trkpt lat="42.4673781171" lon="-0.6805033330">
        <ele>827.35</ele>
        <time>2022-04-15T14:47:27Z</time>
      </trkpt>
      <trkpt lat="42.4675191008" lon="-0.6804144848">
        <ele>828.31</ele>
        <time>2022-04-15T14:47:41Z</time>
      </trkpt>
      <trkpt lat="42.4675360322" lon="-0.6804313324">
        <ele>828.31</ele>
        <time>2022-04-15T14:47:43Z</time>
      </trkpt>
      <trkpt lat="42.4676751718" lon="-0.6806644332">
        <ele>828.31</ele>
        <time>2022-04-15T14:48:02Z</time>
      </trkpt>
      <trkpt lat="42.4677661154" lon="-0.6808469072">
        <ele>826.87</ele>
        <time>2022-04-15T14:48:14Z</time>
      </trkpt>
      <trkpt lat="42.4678634293" lon="-0.6809814367">
        <ele>824.95</ele>
        <time>2022-04-15T14:48:29Z</time>
      </trkpt>
      <trkpt lat="42.4678960349" lon="-0.6810433790">
        <ele>823.99</ele>
        <time>2022-04-15T14:48:34Z</time>
      </trkpt>
      <trkpt lat="42.4680247810" lon="-0.6811844464">
        <ele>821.58</ele>
        <time>2022-04-15T14:48:47Z</time>
      </trkpt>
      <trkpt lat="42.4680687021" lon="-0.6812022161">
        <ele>821.58</ele>
        <time>2022-04-15T14:48:51Z</time>
      </trkpt>
      <trkpt lat="42.4682235159" lon="-0.6813441217">
        <ele>819.66</ele>
        <time>2022-04-15T14:49:08Z</time>
      </trkpt>
      <trkpt lat="42.4683336541" lon="-0.6814433634">
        <ele>818.70</ele>
        <time>2022-04-15T14:49:22Z</time>
      </trkpt>
      <trkpt lat="42.4684854504" lon="-0.6815265119">
        <ele>818.22</ele>
        <time>2022-04-15T14:49:35Z</time>
      </trkpt>
      <trkpt lat="42.4685089197" lon="-0.6815426890">
        <ele>817.74</ele>
        <time>2022-04-15T14:49:37Z</time>
      </trkpt>
      <trkpt lat="42.4685276113" lon="-0.6815645657">
        <ele>817.74</ele>
        <time>2022-04-15T14:49:39Z</time>
      </trkpt>
      <trkpt lat="42.4685740471" lon="-0.6816031225">
        <ele>817.26</ele>
        <time>2022-04-15T14:49:44Z</time>
      </trkpt>
      <trkpt lat="42.4686527532" lon="-0.6816693395">
        <ele>817.26</ele>
        <time>2022-04-15T14:49:53Z</time>
      </trkpt>
      <trkpt lat="42.4687566049" lon="-0.6817151047">
        <ele>816.30</ele>
        <time>2022-04-15T14:50:04Z</time>
      </trkpt>
      <trkpt lat="42.4687821697" lon="-0.6817224808">
        <ele>816.30</ele>
        <time>2022-04-15T14:50:06Z</time>
      </trkpt>
      <trkpt lat="42.4689365644" lon="-0.6817834172">
        <ele>815.34</ele>
        <time>2022-04-15T14:50:19Z</time>
      </trkpt>
      <trkpt lat="42.4690897856" lon="-0.6818774622">
        <ele>814.85</ele>
        <time>2022-04-15T14:50:34Z</time>
      </trkpt>
      <trkpt lat="42.4691840820" lon="-0.6819477025">
        <ele>814.85</ele>
        <time>2022-04-15T14:50:46Z</time>
      </trkpt>
      <trkpt lat="42.4693400692" lon="-0.6820093933">
        <ele>814.37</ele>
        <time>2022-04-15T14:51:03Z</time>
      </trkpt>
      <trkpt lat="42.4695145804" lon="-0.6820221338">
        <ele>814.37</ele>
        <time>2022-04-15T14:51:15Z</time>
      </trkpt>
      <trkpt lat="42.4696514569" lon="-0.6819943897">
        <ele>815.34</ele>
        <time>2022-04-15T14:51:29Z</time>
      </trkpt>
      <trkpt lat="42.4697494414" lon="-0.6819399912">
        <ele>815.34</ele>
        <time>2022-04-15T14:51:40Z</time>
      </trkpt>
      <trkpt lat="42.4698365293" lon="-0.6818829104">
        <ele>815.82</ele>
        <time>2022-04-15T14:51:48Z</time>
      </trkpt>
      <trkpt lat="42.4699425604" lon="-0.6818321999">
        <ele>815.82</ele>
        <time>2022-04-15T14:51:55Z</time>
      </trkpt>
      <trkpt lat="42.4701503478" lon="-0.6817867700">
        <ele>816.30</ele>
        <time>2022-04-15T14:52:11Z</time>
      </trkpt>
      <trkpt lat="42.4702081829" lon="-0.6817909610">
        <ele>816.30</ele>
        <time>2022-04-15T14:52:17Z</time>
      </trkpt>
      <trkpt lat="42.4703589734" lon="-0.6817420106">
        <ele>817.26</ele>
        <time>2022-04-15T14:52:33Z</time>
      </trkpt>
      <trkpt lat="42.4705256894" lon="-0.6816923898">
        <ele>817.26</ele>
        <time>2022-04-15T14:52:49Z</time>
      </trkpt>
      <trkpt lat="42.4706461374" lon="-0.6816693395">
        <ele>817.26</ele>
        <time>2022-04-15T14:52:56Z</time>
      </trkpt>
      <trkpt lat="42.4707864504" lon="-0.6816757098">
        <ele>817.26</ele>
        <time>2022-04-15T14:53:08Z</time>
      </trkpt>
      <trkpt lat="42.4709332176" lon="-0.6816666573">
        <ele>818.22</ele>
        <time>2022-04-15T14:53:22Z</time>
      </trkpt>
      <trkpt lat="42.4710630532" lon="-0.6817174517">
        <ele>819.66</ele>
        <time>2022-04-15T14:53:34Z</time>
      </trkpt>
      <trkpt lat="42.4712479580" lon="-0.6818125863">
        <ele>820.62</ele>
        <time>2022-04-15T14:53:47Z</time>
      </trkpt>
      <trkpt lat="42.4713745248" lon="-0.6818871852">
        <ele>821.10</ele>
        <time>2022-04-15T14:53:58Z</time>
      </trkpt>
      <trkpt lat="42.4714800529" lon="-0.6819429249">
        <ele>821.58</ele>
        <time>2022-04-15T14:54:09Z</time>
      </trkpt>
      <trkpt lat="42.4716315139" lon="-0.6820289232">
        <ele>821.58</ele>
        <time>2022-04-15T14:54:20Z</time>
      </trkpt>
      <trkpt lat="42.4717887584" lon="-0.6820840761">
        <ele>821.10</ele>
        <time>2022-04-15T14:54:35Z</time>
      </trkpt>
      <trkpt lat="42.4719263054" lon="-0.6821722537">
        <ele>821.10</ele>
        <time>2022-04-15T14:54:49Z</time>
      </trkpt>
      <trkpt lat="42.4719962105" lon="-0.6822458468">
        <ele>821.10</ele>
        <time>2022-04-15T14:54:56Z</time>
      </trkpt>
      <trkpt lat="42.4720531236" lon="-0.6822904386">
        <ele>819.66</ele>
        <time>2022-04-15T14:55:02Z</time>
      </trkpt>
      <trkpt lat="42.4722247850" lon="-0.6823675521">
        <ele>818.22</ele>
        <time>2022-04-15T14:55:20Z</time>
      </trkpt>
      <trkpt lat="42.4723869748" lon="-0.6822987366">
        <ele>818.22</ele>
        <time>2022-04-15T14:55:35Z</time>
      </trkpt>
      <trkpt lat="42.4725004658" lon="-0.6822983176">
        <ele>818.22</ele>
        <time>2022-04-15T14:55:45Z</time>
      </trkpt>
      <trkpt lat="42.4725562055" lon="-0.6823361199">
        <ele>820.14</ele>
        <time>2022-04-15T14:55:51Z</time>
      </trkpt>
      <trkpt lat="42.4725841172" lon="-0.6823750958">
        <ele>820.14</ele>
        <time>2022-04-15T14:55:55Z</time>
      </trkpt>
      <trkpt lat="42.4726599734" lon="-0.6824382115">
        <ele>820.14</ele>
        <time>2022-04-15T14:56:03Z</time>
      </trkpt>
      <trkpt lat="42.4728341494" lon="-0.6825467572">
        <ele>821.10</ele>
        <time>2022-04-15T14:56:21Z</time>
      </trkpt>
      <trkpt lat="42.4729135260" lon="-0.6825416442">
        <ele>822.06</ele>
        <time>2022-04-15T14:56:29Z</time>
      </trkpt>
      <trkpt lat="42.4730240833" lon="-0.6824801210">
        <ele>822.55</ele>
        <time>2022-04-15T14:56:39Z</time>
      </trkpt>
      <trkpt lat="42.4730637297" lon="-0.6824476831">
        <ele>822.55</ele>
        <time>2022-04-15T14:56:43Z</time>
      </trkpt>
      <trkpt lat="42.4731647316" lon="-0.6822720822">
        <ele>823.99</ele>
        <time>2022-04-15T14:56:58Z</time>
      </trkpt>
      <trkpt lat="42.4731716048" lon="-0.6822014228">
        <ele>824.47</ele>
        <time>2022-04-15T14:57:05Z</time>
      </trkpt>
      <trkpt lat="42.4732057191" lon="-0.6819663942">
        <ele>825.91</ele>
        <time>2022-04-15T14:57:20Z</time>
      </trkpt>
      <trkpt lat="42.4732578546" lon="-0.6817536615">
        <ele>826.87</ele>
        <time>2022-04-15T14:57:34Z</time>
      </trkpt>
      <trkpt lat="42.4733037036" lon="-0.6815531664">
        <ele>827.83</ele>
        <time>2022-04-15T14:57:48Z</time>
      </trkpt>
      <trkpt lat="42.4733568449" lon="-0.6813911442">
        <ele>828.79</ele>
        <time>2022-04-15T14:57:59Z</time>
      </trkpt>
      <trkpt lat="42.4733819906" lon="-0.6813142821">
        <ele>829.76</ele>
        <time>2022-04-15T14:58:04Z</time>
      </trkpt>
      <trkpt lat="42.4734249059" lon="-0.6811731309">
        <ele>830.72</ele>
        <time>2022-04-15T14:58:16Z</time>
      </trkpt>
      <trkpt lat="42.4734895304" lon="-0.6809199974">
        <ele>832.64</ele>
        <time>2022-04-15T14:58:34Z</time>
      </trkpt>
      <trkpt lat="42.4735255726" lon="-0.6807843782">
        <ele>833.60</ele>
        <time>2022-04-15T14:58:46Z</time>
      </trkpt>
      <trkpt lat="42.4736072123" lon="-0.6805812009">
        <ele>833.60</ele>
        <time>2022-04-15T14:59:02Z</time>
      </trkpt>
      <trkpt lat="42.4736699089" lon="-0.6804367807">
        <ele>833.60</ele>
        <time>2022-04-15T14:59:13Z</time>
      </trkpt>
      <trkpt lat="42.4737314321" lon="-0.6802937016">
        <ele>834.56</ele>
        <time>2022-04-15T14:59:24Z</time>
      </trkpt>
      <trkpt lat="42.4737688992" lon="-0.6802198570">
        <ele>835.52</ele>
        <time>2022-04-15T14:59:30Z</time>
      </trkpt>
      <trkpt lat="42.4738346972" lon="-0.6801125687">
        <ele>836.00</ele>
        <time>2022-04-15T14:59:38Z</time>
      </trkpt>
      <trkpt lat="42.4738559872" lon="-0.6800881773">
        <ele>836.48</ele>
        <time>2022-04-15T14:59:40Z</time>
      </trkpt>
      <trkpt lat="42.4738952145" lon="-0.6800176017">
        <ele>836.96</ele>
        <time>2022-04-15T14:59:47Z</time>
      </trkpt>
      <trkpt lat="42.4739709869" lon="-0.6798197050">
        <ele>838.41</ele>
        <time>2022-04-15T15:00:03Z</time>
      </trkpt>
      <trkpt lat="42.4739743397" lon="-0.6798054557">
        <ele>838.41</ele>
        <time>2022-04-15T15:00:04Z</time>
      </trkpt>
      <trkpt lat="42.4740315042" lon="-0.6796887796">
        <ele>839.37</ele>
        <time>2022-04-15T15:00:13Z</time>
      </trkpt>
      <trkpt lat="42.4740947038" lon="-0.6795590278">
        <ele>841.29</ele>
        <time>2022-04-15T15:00:26Z</time>
      </trkpt>
      <trkpt lat="42.4741820432" lon="-0.6794120930">
        <ele>842.73</ele>
        <time>2022-04-15T15:00:40Z</time>
      </trkpt>
      <trkpt lat="42.4742817041" lon="-0.6792692654">
        <ele>845.14</ele>
        <time>2022-04-15T15:00:55Z</time>
      </trkpt>
      <trkpt lat="42.4743133038" lon="-0.6792007852">
        <ele>847.06</ele>
        <time>2022-04-15T15:01:02Z</time>
      </trkpt>
      <trkpt lat="42.4744346738" lon="-0.6790819298">
        <ele>848.50</ele>
        <time>2022-04-15T15:01:17Z</time>
      </trkpt>
      <trkpt lat="42.4745508470" lon="-0.6789754797">
        <ele>848.98</ele>
        <time>2022-04-15T15:01:31Z</time>
      </trkpt>
      <trkpt lat="42.4746246077" lon="-0.6788762379">
        <ele>850.42</ele>
        <time>2022-04-15T15:01:40Z</time>
      </trkpt>
      <trkpt lat="42.4747385178" lon="-0.6787315663">
        <ele>851.87</ele>
        <time>2022-04-15T15:01:56Z</time>
      </trkpt>
      <trkpt lat="42.4748571217" lon="-0.6786018144">
        <ele>852.83</ele>
        <time>2022-04-15T15:02:11Z</time>
      </trkpt>
      <trkpt lat="42.4748639949" lon="-0.6785887387">
        <ele>852.83</ele>
        <time>2022-04-15T15:02:12Z</time>
      </trkpt>
      <trkpt lat="42.4750316329" lon="-0.6784659438">
        <ele>854.75</ele>
        <time>2022-04-15T15:02:27Z</time>
      </trkpt>
      <trkpt lat="42.4751507398" lon="-0.6783777662">
        <ele>854.75</ele>
        <time>2022-04-15T15:02:40Z</time>
      </trkpt>
      <trkpt lat="42.4752959143" lon="-0.6782594137">
        <ele>855.71</ele>
        <time>2022-04-15T15:02:53Z</time>
      </trkpt>
      <trkpt lat="42.4754137639" lon="-0.6781082880">
        <ele>855.71</ele>
        <time>2022-04-15T15:03:08Z</time>
      </trkpt>
      <trkpt lat="42.4754787236" lon="-0.6779705733">
        <ele>854.75</ele>
        <time>2022-04-15T15:03:19Z</time>
      </trkpt>
      <trkpt lat="42.4755661469" lon="-0.6777644623">
        <ele>856.19</ele>
        <time>2022-04-15T15:03:34Z</time>
      </trkpt>
      <trkpt lat="42.4755734392" lon="-0.6777505483">
        <ele>856.19</ele>
        <time>2022-04-15T15:03:35Z</time>
      </trkpt>
      <trkpt lat="42.4756046198" lon="-0.6776790507">
        <ele>856.19</ele>
        <time>2022-04-15T15:03:39Z</time>
      </trkpt>
      <trkpt lat="42.4756929651" lon="-0.6775025278">
        <ele>856.19</ele>
        <time>2022-04-15T15:03:52Z</time>
      </trkpt>
      <trkpt lat="42.4757609423" lon="-0.6772265956">
        <ele>856.67</ele>
        <time>2022-04-15T15:04:12Z</time>
      </trkpt>
      <trkpt lat="42.4758301768" lon="-0.6770008709">
        <ele>857.63</ele>
        <time>2022-04-15T15:04:25Z</time>
      </trkpt>
      <trkpt lat="42.4759492837" lon="-0.6768200733">
        <ele>858.59</ele>
        <time>2022-04-15T15:04:41Z</time>
      </trkpt>
      <trkpt lat="42.4760462623" lon="-0.6767282914">
        <ele>859.56</ele>
        <time>2022-04-15T15:04:54Z</time>
      </trkpt>
      <trkpt lat="42.4762347713" lon="-0.6766474061">
        <ele>861.00</ele>
        <time>2022-04-15T15:05:12Z</time>
      </trkpt>
      <trkpt lat="42.4764514435" lon="-0.6766099390">
        <ele>863.40</ele>
        <time>2022-04-15T15:05:31Z</time>
      </trkpt>
      <trkpt lat="42.4766380247" lon="-0.6765334122">
        <ele>865.32</ele>
        <time>2022-04-15T15:05:49Z</time>
      </trkpt>
      <trkpt lat="42.4768032320" lon="-0.6765312329">
        <ele>867.25</ele>
        <time>2022-04-15T15:06:05Z</time>
      </trkpt>
      <trkpt lat="42.4769185670" lon="-0.6765955221">
        <ele>868.69</ele>
        <time>2022-04-15T15:06:17Z</time>
      </trkpt>
      <trkpt lat="42.4770317227" lon="-0.6766430475">
        <ele>870.61</ele>
        <time>2022-04-15T15:06:29Z</time>
      </trkpt>
      <trkpt lat="42.4771493208" lon="-0.6766770780">
        <ele>871.57</ele>
        <time>2022-04-15T15:06:41Z</time>
      </trkpt>
      <trkpt lat="42.4772075750" lon="-0.6766848732">
        <ele>872.05</ele>
        <time>2022-04-15T15:06:47Z</time>
      </trkpt>
      <trkpt lat="42.4773459602" lon="-0.6765907444">
        <ele>874.46</ele>
        <time>2022-04-15T15:07:03Z</time>
      </trkpt>
      <trkpt lat="42.4774774723" lon="-0.6764261238">
        <ele>875.90</ele>
        <time>2022-04-15T15:07:20Z</time>
      </trkpt>
      <trkpt lat="42.4776190426" lon="-0.6762497686">
        <ele>877.34</ele>
        <time>2022-04-15T15:07:38Z</time>
      </trkpt>
      <trkpt lat="42.4777483754" lon="-0.6760991458">
        <ele>878.30</ele>
        <time>2022-04-15T15:07:51Z</time>
      </trkpt>
      <trkpt lat="42.4777814839" lon="-0.6760581583">
        <ele>878.78</ele>
        <time>2022-04-15T15:07:55Z</time>
      </trkpt>
      <trkpt lat="42.4778301828" lon="-0.6760063581">
        <ele>879.74</ele>
        <time>2022-04-15T15:08:00Z</time>
      </trkpt>
      <trkpt lat="42.4779400695" lon="-0.6759200245">
        <ele>880.71</ele>
        <time>2022-04-15T15:08:14Z</time>
      </trkpt>
      <trkpt lat="42.4781053606" lon="-0.6757536437">
        <ele>882.63</ele>
        <time>2022-04-15T15:08:32Z</time>
      </trkpt>
      <trkpt lat="42.4781833962" lon="-0.6756714173">
        <ele>883.11</ele>
        <time>2022-04-15T15:08:41Z</time>
      </trkpt>
      <trkpt lat="42.4783339351" lon="-0.6755362172">
        <ele>884.55</ele>
        <time>2022-04-15T15:08:57Z</time>
      </trkpt>
      <trkpt lat="42.4785190914" lon="-0.6754078064">
        <ele>885.51</ele>
        <time>2022-04-15T15:09:15Z</time>
      </trkpt>
      <trkpt lat="42.4786729831" lon="-0.6753359735">
        <ele>886.95</ele>
        <time>2022-04-15T15:09:32Z</time>
      </trkpt>
      <trkpt lat="42.4789003003" lon="-0.6752095744">
        <ele>888.40</ele>
        <time>2022-04-15T15:09:52Z</time>
      </trkpt>
      <trkpt lat="42.4789350014" lon="-0.6751683354">
        <ele>888.88</ele>
        <time>2022-04-15T15:09:56Z</time>
      </trkpt>
      <trkpt lat="42.4790457264" lon="-0.6750563532">
        <ele>890.80</ele>
        <time>2022-04-15T15:10:10Z</time>
      </trkpt>
      <trkpt lat="42.4791895598" lon="-0.6749162916">
        <ele>892.72</ele>
        <time>2022-04-15T15:10:26Z</time>
      </trkpt>
      <trkpt lat="42.4792204052" lon="-0.6749011204">
        <ele>893.68</ele>
        <time>2022-04-15T15:10:30Z</time>
      </trkpt>
      <trkpt lat="42.4792937469" lon="-0.6748359092">
        <ele>894.64</ele>
        <time>2022-04-15T15:10:39Z</time>
      </trkpt>
      <trkpt lat="42.4794803280" lon="-0.6748110987">
        <ele>895.12</ele>
        <time>2022-04-15T15:10:55Z</time>
      </trkpt>
      <trkpt lat="42.4795653205" lon="-0.6747720391">
        <ele>893.20</ele>
        <time>2022-04-15T15:11:04Z</time>
      </trkpt>
      <trkpt lat="42.4796854332" lon="-0.6746450532">
        <ele>892.72</ele>
        <time>2022-04-15T15:11:18Z</time>
      </trkpt>
      <trkpt lat="42.4797549192" lon="-0.6745902356">
        <ele>893.68</ele>
        <time>2022-04-15T15:11:25Z</time>
      </trkpt>
      <trkpt lat="42.4798935559" lon="-0.6745028961">
        <ele>891.76</ele>
        <time>2022-04-15T15:11:39Z</time>
      </trkpt>
      <trkpt lat="42.4799014349" lon="-0.6744810194">
        <ele>891.76</ele>
        <time>2022-04-15T15:11:58Z</time>
      </trkpt>
      <trkpt lat="42.4798910413" lon="-0.6744890660">
        <ele>891.76</ele>
        <time>2022-04-15T15:12:23Z</time>
      </trkpt>
      <trkpt lat="42.4798914604" lon="-0.6744940113">
        <ele>893.20</ele>
        <time>2022-04-15T15:12:28Z</time>
      </trkpt>
      <trkpt lat="42.4799485411" lon="-0.6744515151">
        <ele>893.20</ele>
        <time>2022-04-15T15:12:37Z</time>
      </trkpt>
      <trkpt lat="42.4799992517" lon="-0.6744136289">
        <ele>891.76</ele>
        <time>2022-04-15T15:12:42Z</time>
      </trkpt>
      <trkpt lat="42.4801773671" lon="-0.6742417160">
        <ele>891.28</ele>
        <time>2022-04-15T15:12:59Z</time>
      </trkpt>
      <trkpt lat="42.4801846594" lon="-0.6742176600">
        <ele>890.80</ele>
        <time>2022-04-15T15:13:12Z</time>
      </trkpt>
      <trkpt lat="42.4801720865" lon="-0.6742196716">
        <ele>890.80</ele>
        <time>2022-04-15T15:13:30Z</time>
      </trkpt>
      <trkpt lat="42.4801912811" lon="-0.6741572265">
        <ele>890.80</ele>
        <time>2022-04-15T15:13:42Z</time>
      </trkpt>
      <trkpt lat="42.4802212045" lon="-0.6739564799">
        <ele>889.84</ele>
        <time>2022-04-15T15:13:55Z</time>
      </trkpt>
      <trkpt lat="42.4802468531" lon="-0.6738268957">
        <ele>888.40</ele>
        <time>2022-04-15T15:14:07Z</time>
      </trkpt>
      <trkpt lat="42.4803116452" lon="-0.6736460142">
        <ele>887.43</ele>
        <time>2022-04-15T15:14:17Z</time>
      </trkpt>
      <trkpt lat="42.4803932011" lon="-0.6734251510">
        <ele>885.99</ele>
        <time>2022-04-15T15:14:33Z</time>
      </trkpt>
      <trkpt lat="42.4805301614" lon="-0.6732100714">
        <ele>885.03</ele>
        <time>2022-04-15T15:14:49Z</time>
      </trkpt>
      <trkpt lat="42.4805837218" lon="-0.6730612088">
        <ele>883.59</ele>
        <time>2022-04-15T15:15:02Z</time>
      </trkpt>
      <trkpt lat="42.4806924351" lon="-0.6728053931">
        <ele>883.11</ele>
        <time>2022-04-15T15:15:17Z</time>
      </trkpt>
      <trkpt lat="42.4808220193" lon="-0.6726767309">
        <ele>882.63</ele>
        <time>2022-04-15T15:15:31Z</time>
      </trkpt>
      <trkpt lat="42.4809010606" lon="-0.6726333965">
        <ele>882.63</ele>
        <time>2022-04-15T15:15:41Z</time>
      </trkpt>
      <trkpt lat="42.4810148869" lon="-0.6723913271">
        <ele>881.19</ele>
        <time>2022-04-15T15:15:56Z</time>
      </trkpt>
      <trkpt lat="42.4810521863" lon="-0.6722965278">
        <ele>881.67</ele>
        <time>2022-04-15T15:16:10Z</time>
      </trkpt>
      <trkpt lat="42.4810705427" lon="-0.6721672788">
        <ele>881.67</ele>
        <time>2022-04-15T15:16:20Z</time>
      </trkpt>
      <trkpt lat="42.4810360931" lon="-0.6719507743">
        <ele>881.67</ele>
        <time>2022-04-15T15:16:34Z</time>
      </trkpt>
      <trkpt lat="42.4810651783" lon="-0.6718045101">
        <ele>880.22</ele>
        <time>2022-04-15T15:16:45Z</time>
      </trkpt>
      <trkpt lat="42.4810914975" lon="-0.6717699766">
        <ele>880.22</ele>
        <time>2022-04-15T15:16:48Z</time>
      </trkpt>
      <trkpt lat="42.4813023861" lon="-0.6716336869">
        <ele>882.63</ele>
        <time>2022-04-15T15:17:07Z</time>
      </trkpt>
      <trkpt lat="42.4814244267" lon="-0.6715656258">
        <ele>884.07</ele>
        <time>2022-04-15T15:17:21Z</time>
      </trkpt>
      <trkpt lat="42.4815413542" lon="-0.6714126561">
        <ele>885.51</ele>
        <time>2022-04-15T15:17:36Z</time>
      </trkpt>
      <trkpt lat="42.4815557711" lon="-0.6713773683">
        <ele>885.99</ele>
        <time>2022-04-15T15:17:39Z</time>
      </trkpt>
      <trkpt lat="42.4816436972" lon="-0.6711593550">
        <ele>887.91</ele>
        <time>2022-04-15T15:17:56Z</time>
      </trkpt>
      <trkpt lat="42.4817168713" lon="-0.6709672417">
        <ele>889.36</ele>
        <time>2022-04-15T15:18:11Z</time>
      </trkpt>
      <trkpt lat="42.4817472976" lon="-0.6707467139">
        <ele>889.84</ele>
        <time>2022-04-15T15:18:25Z</time>
      </trkpt>
      <trkpt lat="42.4817527458" lon="-0.6707364041">
        <ele>889.84</ele>
        <time>2022-04-15T15:18:26Z</time>
      </trkpt>
      <trkpt lat="42.4817580264" lon="-0.6705955043">
        <ele>888.40</ele>
        <time>2022-04-15T15:18:35Z</time>
      </trkpt>
      <trkpt lat="42.4818786420" lon="-0.6704605557">
        <ele>888.40</ele>
        <time>2022-04-15T15:18:48Z</time>
      </trkpt>
      <trkpt lat="42.4820210505" lon="-0.6704224180">
        <ele>888.40</ele>
        <time>2022-04-15T15:19:01Z</time>
      </trkpt>
      <trkpt lat="42.4821977410" lon="-0.6702926662">
        <ele>887.43</ele>
        <time>2022-04-15T15:19:18Z</time>
      </trkpt>
      <trkpt lat="42.4822776206" lon="-0.6701686978">
        <ele>887.43</ele>
        <time>2022-04-15T15:19:31Z</time>
      </trkpt>
      <trkpt lat="42.4822856672" lon="-0.6701322366">
        <ele>888.88</ele>
        <time>2022-04-15T15:19:33Z</time>
      </trkpt>
      <trkpt lat="42.4823265709" lon="-0.6699708849">
        <ele>889.84</ele>
        <time>2022-04-15T15:19:45Z</time>
      </trkpt>
      <trkpt lat="42.4823704083" lon="-0.6697946135">
        <ele>891.28</ele>
        <time>2022-04-15T15:19:58Z</time>
      </trkpt>
      <trkpt lat="42.4824118987" lon="-0.6697046757">
        <ele>892.24</ele>
        <time>2022-04-15T15:20:06Z</time>
      </trkpt>
      <trkpt lat="42.4824543949" lon="-0.6695550587">
        <ele>893.68</ele>
        <time>2022-04-15T15:20:18Z</time>
      </trkpt>
      <trkpt lat="42.4824821390" lon="-0.6694687251">
        <ele>893.68</ele>
        <time>2022-04-15T15:20:24Z</time>
      </trkpt>
      <trkpt lat="42.4825356994" lon="-0.6692678109">
        <ele>895.12</ele>
        <time>2022-04-15T15:20:40Z</time>
      </trkpt>
      <trkpt lat="42.4825967196" lon="-0.6690000929">
        <ele>896.09</ele>
        <time>2022-04-15T15:20:59Z</time>
      </trkpt>
      <trkpt lat="42.4826413952" lon="-0.6688485481">
        <ele>897.05</ele>
        <time>2022-04-15T15:21:10Z</time>
      </trkpt>
      <trkpt lat="42.4827097077" lon="-0.6686482206">
        <ele>897.53</ele>
        <time>2022-04-15T15:21:25Z</time>
      </trkpt>
      <trkpt lat="42.4827886652" lon="-0.6684105936">
        <ele>898.49</ele>
        <time>2022-04-15T15:21:41Z</time>
      </trkpt>
      <trkpt lat="42.4828900024" lon="-0.6681563705">
        <ele>898.97</ele>
        <time>2022-04-15T15:22:00Z</time>
      </trkpt>
      <trkpt lat="42.4829752464" lon="-0.6679003872">
        <ele>900.41</ele>
        <time>2022-04-15T15:22:18Z</time>
      </trkpt>
      <trkpt lat="42.4830381945" lon="-0.6676941924">
        <ele>900.89</ele>
        <time>2022-04-15T15:22:31Z</time>
      </trkpt>
      <trkpt lat="42.4830974545" lon="-0.6675298233">
        <ele>901.85</ele>
        <time>2022-04-15T15:22:43Z</time>
      </trkpt>
      <trkpt lat="42.4831514340" lon="-0.6673429068">
        <ele>902.33</ele>
        <time>2022-04-15T15:22:58Z</time>
      </trkpt>
      <trkpt lat="42.4832105264" lon="-0.6671014242">
        <ele>902.33</ele>
        <time>2022-04-15T15:23:12Z</time>
      </trkpt>
      <trkpt lat="42.4832593091" lon="-0.6670357939">
        <ele>902.82</ele>
        <time>2022-04-15T15:23:18Z</time>
      </trkpt>
      <trkpt lat="42.4833675195" lon="-0.6668567564">
        <ele>902.82</ele>
        <time>2022-04-15T15:23:33Z</time>
      </trkpt>
      <trkpt lat="42.4834443815" lon="-0.6667583529">
        <ele>902.82</ele>
        <time>2022-04-15T15:23:43Z</time>
      </trkpt>
      <trkpt lat="42.4834662583" lon="-0.6667068880">
        <ele>903.30</ele>
        <time>2022-04-15T15:23:47Z</time>
      </trkpt>
      <trkpt lat="42.4836333934" lon="-0.6665286887">
        <ele>903.30</ele>
        <time>2022-04-15T15:24:06Z</time>
      </trkpt>
      <trkpt lat="42.4838421866" lon="-0.6663472205">
        <ele>903.78</ele>
        <time>2022-04-15T15:24:28Z</time>
      </trkpt>
      <trkpt lat="42.4839774705" lon="-0.6662384234">
        <ele>904.26</ele>
        <time>2022-04-15T15:24:41Z</time>
      </trkpt>
      <trkpt lat="42.4841051269" lon="-0.6661408581">
        <ele>905.22</ele>
        <time>2022-04-15T15:24:53Z</time>
      </trkpt>
      <trkpt lat="42.4842437636" lon="-0.6660796702">
        <ele>905.22</ele>
        <time>2022-04-15T15:25:06Z</time>
      </trkpt>
      <trkpt lat="42.4844522215" lon="-0.6659937557">
        <ele>905.22</ele>
        <time>2022-04-15T15:25:24Z</time>
      </trkpt>
      <trkpt lat="42.4846311752" lon="-0.6658860482">
        <ele>906.18</ele>
        <time>2022-04-15T15:25:41Z</time>
      </trkpt>
      <trkpt lat="42.4847904313" lon="-0.6657493394">
        <ele>906.66</ele>
        <time>2022-04-15T15:25:56Z</time>
      </trkpt>
      <trkpt lat="42.4849247094" lon="-0.6655651052">
        <ele>907.62</ele>
        <time>2022-04-15T15:26:13Z</time>
      </trkpt>
      <trkpt lat="42.4850278907" lon="-0.6653620955">
        <ele>908.10</ele>
        <time>2022-04-15T15:26:30Z</time>
      </trkpt>
      <trkpt lat="42.4851525296" lon="-0.6652017497">
        <ele>908.58</ele>
        <time>2022-04-15T15:26:46Z</time>
      </trkpt>
      <trkpt lat="42.4852817785" lon="-0.6650434993">
        <ele>909.06</ele>
        <time>2022-04-15T15:27:02Z</time>
      </trkpt>
      <trkpt lat="42.4854265340" lon="-0.6648658868">
        <ele>910.03</ele>
        <time>2022-04-15T15:27:19Z</time>
      </trkpt>
      <trkpt lat="42.4856080022" lon="-0.6646803953">
        <ele>910.99</ele>
        <time>2022-04-15T15:27:39Z</time>
      </trkpt>
      <trkpt lat="42.4857758079" lon="-0.6645419262">
        <ele>911.95</ele>
        <time>2022-04-15T15:27:57Z</time>
      </trkpt>
      <trkpt lat="42.4859454576" lon="-0.6644335482">
        <ele>912.91</ele>
        <time>2022-04-15T15:28:15Z</time>
      </trkpt>
      <trkpt lat="42.4861560948" lon="-0.6643158663">
        <ele>913.39</ele>
        <time>2022-04-15T15:28:34Z</time>
      </trkpt>
      <trkpt lat="42.4863644689" lon="-0.6641956698">
        <ele>914.83</ele>
        <time>2022-04-15T15:28:55Z</time>
      </trkpt>
      <trkpt lat="42.4865200371" lon="-0.6640838552">
        <ele>915.79</ele>
        <time>2022-04-15T15:29:14Z</time>
      </trkpt>
      <trkpt lat="42.4866755214" lon="-0.6639456376">
        <ele>916.75</ele>
        <time>2022-04-15T15:29:30Z</time>
      </trkpt>
      <trkpt lat="42.4868416507" lon="-0.6638014689">
        <ele>917.24</ele>
        <time>2022-04-15T15:29:47Z</time>
      </trkpt>
      <trkpt lat="42.4870117195" lon="-0.6636696216">
        <ele>917.72</ele>
        <time>2022-04-15T15:30:04Z</time>
      </trkpt>
      <trkpt lat="42.4871571455" lon="-0.6635381933">
        <ele>917.72</ele>
        <time>2022-04-15T15:30:20Z</time>
      </trkpt>
      <trkpt lat="42.4873035774" lon="-0.6633338425">
        <ele>917.72</ele>
        <time>2022-04-15T15:30:38Z</time>
      </trkpt>
      <trkpt lat="42.4873987120" lon="-0.6631227862">
        <ele>917.72</ele>
        <time>2022-04-15T15:30:56Z</time>
      </trkpt>
      <trkpt lat="42.4875074252" lon="-0.6629381329">
        <ele>915.79</ele>
        <time>2022-04-15T15:31:09Z</time>
      </trkpt>
      <trkpt lat="42.4875838682" lon="-0.6627847441">
        <ele>915.79</ele>
        <time>2022-04-15T15:31:23Z</time>
      </trkpt>
      <trkpt lat="42.4876520131" lon="-0.6625363883">
        <ele>915.79</ele>
        <time>2022-04-15T15:31:40Z</time>
      </trkpt>
      <trkpt lat="42.4877218343" lon="-0.6623496395">
        <ele>917.24</ele>
        <time>2022-04-15T15:31:51Z</time>
      </trkpt>
      <trkpt lat="42.4878193997" lon="-0.6621517427">
        <ele>917.72</ele>
        <time>2022-04-15T15:32:07Z</time>
      </trkpt>
      <trkpt lat="42.4878929928" lon="-0.6619501580">
        <ele>917.72</ele>
        <time>2022-04-15T15:32:25Z</time>
      </trkpt>
      <trkpt lat="42.4880242534" lon="-0.6616984494">
        <ele>918.20</ele>
        <time>2022-04-15T15:32:43Z</time>
      </trkpt>
      <trkpt lat="42.4882032908" lon="-0.6613899115">
        <ele>919.16</ele>
        <time>2022-04-15T15:33:04Z</time>
      </trkpt>
      <trkpt lat="42.4883042090" lon="-0.6612220220">
        <ele>920.12</ele>
        <time>2022-04-15T15:33:18Z</time>
      </trkpt>
      <trkpt lat="42.4883917999" lon="-0.6610630173">
        <ele>920.60</ele>
        <time>2022-04-15T15:33:34Z</time>
      </trkpt>
      <trkpt lat="42.4885078892" lon="-0.6608659588">
        <ele>922.52</ele>
        <time>2022-04-15T15:33:51Z</time>
      </trkpt>
      <trkpt lat="42.4886244815" lon="-0.6606956385">
        <ele>923.00</ele>
        <time>2022-04-15T15:34:07Z</time>
      </trkpt>
      <trkpt lat="42.4886433408" lon="-0.6606611051">
        <ele>923.96</ele>
        <time>2022-04-15T15:34:09Z</time>
      </trkpt>
      <trkpt lat="42.4887495395" lon="-0.6605072133">
        <ele>924.93</ele>
        <time>2022-04-15T15:34:22Z</time>
      </trkpt>
      <trkpt lat="42.4888827279" lon="-0.6603398267">
        <ele>927.33</ele>
        <time>2022-04-15T15:34:41Z</time>
      </trkpt>
      <trkpt lat="42.4889858253" lon="-0.6601413433">
        <ele>927.33</ele>
        <time>2022-04-15T15:34:56Z</time>
      </trkpt>
      <trkpt lat="42.4890245497" lon="-0.6600274332">
        <ele>927.33</ele>
        <time>2022-04-15T15:35:06Z</time>
      </trkpt>
      <trkpt lat="42.4890886713" lon="-0.6598394271">
        <ele>927.81</ele>
        <time>2022-04-15T15:35:18Z</time>
      </trkpt>
      <trkpt lat="42.4891094584" lon="-0.6597563624">
        <ele>926.37</ele>
        <time>2022-04-15T15:35:24Z</time>
      </trkpt>
      <trkpt lat="42.4891700596" lon="-0.6595758162">
        <ele>926.85</ele>
        <time>2022-04-15T15:35:35Z</time>
      </trkpt>
      <trkpt lat="42.4892288167" lon="-0.6593570486">
        <ele>925.89</ele>
        <time>2022-04-15T15:35:50Z</time>
      </trkpt>
      <trkpt lat="42.4892839696" lon="-0.6592385285">
        <ele>925.89</ele>
        <time>2022-04-15T15:35:59Z</time>
      </trkpt>
      <trkpt lat="42.4893573113" lon="-0.6589865685">
        <ele>925.89</ele>
        <time>2022-04-15T15:36:15Z</time>
      </trkpt>
      <trkpt lat="42.4893964548" lon="-0.6587496959">
        <ele>926.37</ele>
        <time>2022-04-15T15:36:28Z</time>
      </trkpt>
      <trkpt lat="42.4894896615" lon="-0.6585264020">
        <ele>926.37</ele>
        <time>2022-04-15T15:36:41Z</time>
      </trkpt>
      <trkpt lat="42.4895777553" lon="-0.6583353784">
        <ele>926.85</ele>
        <time>2022-04-15T15:36:54Z</time>
      </trkpt>
      <trkpt lat="42.4896631669" lon="-0.6581324525">
        <ele>926.85</ele>
        <time>2022-04-15T15:37:08Z</time>
      </trkpt>
      <trkpt lat="42.4897338264" lon="-0.6579479668">
        <ele>926.85</ele>
        <time>2022-04-15T15:37:21Z</time>
      </trkpt>
      <trkpt lat="42.4897463992" lon="-0.6579358969">
        <ele>926.85</ele>
        <time>2022-04-15T15:37:23Z</time>
      </trkpt>
      <trkpt lat="42.4899164680" lon="-0.6579535827">
        <ele>925.89</ele>
        <time>2022-04-15T15:37:36Z</time>
      </trkpt>
      <trkpt lat="42.4900641572" lon="-0.6580099091">
        <ele>923.96</ele>
        <time>2022-04-15T15:37:50Z</time>
      </trkpt>
      <trkpt lat="42.4902107567" lon="-0.6580007728">
        <ele>922.52</ele>
        <time>2022-04-15T15:38:02Z</time>
      </trkpt>
      <trkpt lat="42.4902432784" lon="-0.6579618808">
        <ele>922.52</ele>
        <time>2022-04-15T15:38:07Z</time>
      </trkpt>
      <trkpt lat="42.4903820828" lon="-0.6577536743">
        <ele>922.04</ele>
        <time>2022-04-15T15:38:22Z</time>
      </trkpt>
      <trkpt lat="42.4905529059" lon="-0.6576360762">
        <ele>921.56</ele>
        <time>2022-04-15T15:38:37Z</time>
      </trkpt>
      <trkpt lat="42.4906137586" lon="-0.6574508362">
        <ele>921.08</ele>
        <time>2022-04-15T15:38:53Z</time>
      </trkpt>
      <trkpt lat="42.4906159379" lon="-0.6574214995">
        <ele>921.08</ele>
        <time>2022-04-15T15:38:55Z</time>
      </trkpt>
      <trkpt lat="42.4906129204" lon="-0.6573698670">
        <ele>922.52</ele>
        <time>2022-04-15T15:38:58Z</time>
      </trkpt>
      <trkpt lat="42.4905983359" lon="-0.6571288034">
        <ele>923.48</ele>
        <time>2022-04-15T15:39:11Z</time>
      </trkpt>
      <trkpt lat="42.4906289298" lon="-0.6568846386">
        <ele>924.45</ele>
        <time>2022-04-15T15:39:27Z</time>
      </trkpt>
      <trkpt lat="42.4906811491" lon="-0.6567570660">
        <ele>925.41</ele>
        <time>2022-04-15T15:39:37Z</time>
      </trkpt>
      <trkpt lat="42.4907134194" lon="-0.6566978898">
        <ele>925.41</ele>
        <time>2022-04-15T15:39:42Z</time>
      </trkpt>
      <trkpt lat="42.4908188637" lon="-0.6564701535">
        <ele>926.37</ele>
        <time>2022-04-15T15:40:01Z</time>
      </trkpt>
      <trkpt lat="42.4909785390" lon="-0.6562444288">
        <ele>928.29</ele>
        <time>2022-04-15T15:40:21Z</time>
      </trkpt>
      <trkpt lat="42.4911740888" lon="-0.6560510583">
        <ele>930.21</ele>
        <time>2022-04-15T15:40:42Z</time>
      </trkpt>
      <trkpt lat="42.4912698939" lon="-0.6558933109">
        <ele>931.17</ele>
        <time>2022-04-15T15:40:56Z</time>
      </trkpt>
      <trkpt lat="42.4913360272" lon="-0.6556851044">
        <ele>932.14</ele>
        <time>2022-04-15T15:41:13Z</time>
      </trkpt>
      <trkpt lat="42.4913970474" lon="-0.6554104295">
        <ele>932.62</ele>
        <time>2022-04-15T15:41:32Z</time>
      </trkpt>
      <trkpt lat="42.4914677907" lon="-0.6550643407">
        <ele>933.10</ele>
        <time>2022-04-15T15:41:50Z</time>
      </trkpt>
      <trkpt lat="42.4915329181" lon="-0.6548213493">
        <ele>933.58</ele>
        <time>2022-04-15T15:42:09Z</time>
      </trkpt>
      <trkpt lat="42.4916126300" lon="-0.6545816269">
        <ele>935.02</ele>
        <time>2022-04-15T15:42:25Z</time>
      </trkpt>
      <trkpt lat="42.4917193316" lon="-0.6543310918">
        <ele>936.46</ele>
        <time>2022-04-15T15:42:42Z</time>
      </trkpt>
      <trkpt lat="42.4918115325" lon="-0.6541028526">
        <ele>937.42</ele>
        <time>2022-04-15T15:42:58Z</time>
      </trkpt>
      <trkpt lat="42.4919287115" lon="-0.6538556702">
        <ele>938.86</ele>
        <time>2022-04-15T15:43:14Z</time>
      </trkpt>
      <trkpt lat="42.4919638317" lon="-0.6537858490">
        <ele>940.31</ele>
        <time>2022-04-15T15:43:29Z</time>
      </trkpt>
      <trkpt lat="42.4919988681" lon="-0.6537222303">
        <ele>941.27</ele>
        <time>2022-04-15T15:43:37Z</time>
      </trkpt>
      <trkpt lat="42.4920620676" lon="-0.6535475515">
        <ele>942.71</ele>
        <time>2022-04-15T15:43:51Z</time>
      </trkpt>
      <trkpt lat="42.4921480659" lon="-0.6532817613">
        <ele>944.15</ele>
        <time>2022-04-15T15:44:07Z</time>
      </trkpt>
      <trkpt lat="42.4921975192" lon="-0.6531656720">
        <ele>944.63</ele>
        <time>2022-04-15T15:44:21Z</time>
      </trkpt>
      <trkpt lat="42.4922812544" lon="-0.6528837048">
        <ele>946.56</ele>
        <time>2022-04-15T15:44:38Z</time>
      </trkpt>
      <trkpt lat="42.4923054781" lon="-0.6526402943">
        <ele>948.00</ele>
        <time>2022-04-15T15:44:53Z</time>
      </trkpt>
      <trkpt lat="42.4923281092" lon="-0.6525153201">
        <ele>948.48</ele>
        <time>2022-04-15T15:45:06Z</time>
      </trkpt>
      <trkpt lat="42.4923332222" lon="-0.6524882466">
        <ele>948.96</ele>
        <time>2022-04-15T15:45:08Z</time>
      </trkpt>
      <trkpt lat="42.4924023729" lon="-0.6522706524">
        <ele>949.92</ele>
        <time>2022-04-15T15:45:24Z</time>
      </trkpt>
      <trkpt lat="42.4924495630" lon="-0.6521845702">
        <ele>950.88</ele>
        <time>2022-04-15T15:45:30Z</time>
      </trkpt>
      <trkpt lat="42.4925825000" lon="-0.6520395633">
        <ele>951.84</ele>
        <time>2022-04-15T15:45:46Z</time>
      </trkpt>
      <trkpt lat="42.4926100764" lon="-0.6520221289">
        <ele>951.84</ele>
        <time>2022-04-15T15:45:48Z</time>
      </trkpt>
      <trkpt lat="42.4927291833" lon="-0.6520576682">
        <ele>952.80</ele>
        <time>2022-04-15T15:46:01Z</time>
      </trkpt>
      <trkpt lat="42.4927677400" lon="-0.6520572491">
        <ele>953.28</ele>
        <time>2022-04-15T15:46:13Z</time>
      </trkpt>
      <trkpt lat="42.4927673209" lon="-0.6520758569">
        <ele>952.80</ele>
        <time>2022-04-15T15:46:29Z</time>
      </trkpt>
      <trkpt lat="42.4927755352" lon="-0.6520738453">
        <ele>952.80</ele>
        <time>2022-04-15T15:46:46Z</time>
      </trkpt>
      <trkpt lat="42.4927697517" lon="-0.6520603504">
        <ele>953.77</ele>
        <time>2022-04-15T15:47:03Z</time>
      </trkpt>
      <trkpt lat="42.4927685782" lon="-0.6520546507">
        <ele>952.80</ele>
        <time>2022-04-15T15:47:05Z</time>
      </trkpt>
      <trkpt lat="42.4927617889" lon="-0.6520569976">
        <ele>953.77</ele>
        <time>2022-04-15T15:47:20Z</time>
      </trkpt>
      <trkpt lat="42.4927718472" lon="-0.6520496216">
        <ele>953.28</ele>
        <time>2022-04-15T15:47:27Z</time>
      </trkpt>
      <trkpt lat="42.4928680714" lon="-0.6520737614">
        <ele>954.73</ele>
        <time>2022-04-15T15:47:38Z</time>
      </trkpt>
      <trkpt lat="42.4929102324" lon="-0.6520722527">
        <ele>955.21</ele>
        <time>2022-04-15T15:47:43Z</time>
      </trkpt>
      <trkpt lat="42.4929784611" lon="-0.6520604342">
        <ele>955.21</ele>
        <time>2022-04-15T15:47:49Z</time>
      </trkpt>
      <trkpt lat="42.4930404872" lon="-0.6520547345">
        <ele>955.69</ele>
        <time>2022-04-15T15:47:54Z</time>
      </trkpt>
      <trkpt lat="42.4932678882" lon="-0.6519950554">
        <ele>956.17</ele>
        <time>2022-04-15T15:48:12Z</time>
      </trkpt>
      <trkpt lat="42.4934712332" lon="-0.6519599352">
        <ele>957.13</ele>
        <time>2022-04-15T15:48:28Z</time>
      </trkpt>
      <trkpt lat="42.4936326686" lon="-0.6520381384">
        <ele>958.09</ele>
        <time>2022-04-15T15:48:45Z</time>
      </trkpt>
      <trkpt lat="42.4938167352" lon="-0.6520745158">
        <ele>960.98</ele>
        <time>2022-04-15T15:49:03Z</time>
      </trkpt>
      <trkpt lat="42.4939006381" lon="-0.6520832330">
        <ele>961.94</ele>
        <time>2022-04-15T15:49:18Z</time>
      </trkpt>
      <trkpt lat="42.4940454774" lon="-0.6520712469">
        <ele>964.34</ele>
        <time>2022-04-15T15:49:33Z</time>
      </trkpt>
      <trkpt lat="42.4941331521" lon="-0.6520555727">
        <ele>965.78</ele>
        <time>2022-04-15T15:49:42Z</time>
      </trkpt>
      <trkpt lat="42.4942655023" lon="-0.6520438381">
        <ele>966.74</ele>
        <time>2022-04-15T15:49:57Z</time>
      </trkpt>
      <trkpt lat="42.4942937493" lon="-0.6520303432">
        <ele>966.74</ele>
        <time>2022-04-15T15:50:00Z</time>
      </trkpt>
      <trkpt lat="42.4943847768" lon="-0.6519857515">
        <ele>968.67</ele>
        <time>2022-04-15T15:50:10Z</time>
      </trkpt>
      <trkpt lat="42.4945460446" lon="-0.6517668162">
        <ele>970.59</ele>
        <time>2022-04-15T15:50:32Z</time>
      </trkpt>
      <trkpt lat="42.4945635628" lon="-0.6517224759">
        <ele>970.59</ele>
        <time>2022-04-15T15:50:46Z</time>
      </trkpt>
      <trkpt lat="42.4945906363" lon="-0.6516744476">
        <ele>970.59</ele>
        <time>2022-04-15T15:50:50Z</time>
      </trkpt>
      <trkpt lat="42.4946245831" lon="-0.6515555922">
        <ele>971.07</ele>
        <time>2022-04-15T15:50:59Z</time>
      </trkpt>
      <trkpt lat="42.4946186319" lon="-0.6512697693">
        <ele>973.95</ele>
        <time>2022-04-15T15:51:18Z</time>
      </trkpt>
      <trkpt lat="42.4946149439" lon="-0.6510194857">
        <ele>975.39</ele>
        <time>2022-04-15T15:51:35Z</time>
      </trkpt>
      <trkpt lat="42.4946939014" lon="-0.6507971976">
        <ele>976.36</ele>
        <time>2022-04-15T15:51:53Z</time>
      </trkpt>
      <trkpt lat="42.4949139263" lon="-0.6506068446">
        <ele>974.43</ele>
        <time>2022-04-15T15:52:17Z</time>
      </trkpt>
      <trkpt lat="42.4951694068" lon="-0.6505796872">
        <ele>973.47</ele>
        <time>2022-04-15T15:52:41Z</time>
      </trkpt>
      <trkpt lat="42.4953765236" lon="-0.6504588202">
        <ele>972.99</ele>
        <time>2022-04-15T15:53:02Z</time>
      </trkpt>
      <trkpt lat="42.4954950437" lon="-0.6503309123">
        <ele>972.99</ele>
        <time>2022-04-15T15:53:15Z</time>
      </trkpt>
      <trkpt lat="42.4955133162" lon="-0.6502931938">
        <ele>972.99</ele>
        <time>2022-04-15T15:53:18Z</time>
      </trkpt>
      <trkpt lat="42.4955551419" lon="-0.6502430700">
        <ele>972.99</ele>
        <time>2022-04-15T15:53:22Z</time>
      </trkpt>
      <trkpt lat="42.4956441578" lon="-0.6501360331">
        <ele>972.99</ele>
        <time>2022-04-15T15:53:30Z</time>
      </trkpt>
      <trkpt lat="42.4957125541" lon="-0.6499128230">
        <ele>972.99</ele>
        <time>2022-04-15T15:53:46Z</time>
      </trkpt>
      <trkpt lat="42.4958403781" lon="-0.6497520581">
        <ele>972.99</ele>
        <time>2022-04-15T15:54:00Z</time>
      </trkpt>
      <trkpt lat="42.4958718102" lon="-0.6497423351">
        <ele>972.99</ele>
        <time>2022-04-15T15:54:02Z</time>
      </trkpt>
      <trkpt lat="42.4959705491" lon="-0.6497541536">
        <ele>972.99</ele>
        <time>2022-04-15T15:54:10Z</time>
      </trkpt>
      <trkpt lat="42.4960751552" lon="-0.6496972404">
        <ele>972.99</ele>
        <time>2022-04-15T15:54:24Z</time>
      </trkpt>
      <trkpt lat="42.4961707089" lon="-0.6495960709">
        <ele>972.51</ele>
        <time>2022-04-15T15:54:36Z</time>
      </trkpt>
      <trkpt lat="42.4962134566" lon="-0.6495230645">
        <ele>972.51</ele>
        <time>2022-04-15T15:54:40Z</time>
      </trkpt>
      <trkpt lat="42.4963387661" lon="-0.6493250001">
        <ele>973.95</ele>
        <time>2022-04-15T15:54:55Z</time>
      </trkpt>
      <trkpt lat="42.4964612257" lon="-0.6492382474">
        <ele>973.95</ele>
        <time>2022-04-15T15:55:09Z</time>
      </trkpt>
      <trkpt lat="42.4965198152" lon="-0.6492348108">
        <ele>973.95</ele>
        <time>2022-04-15T15:55:17Z</time>
      </trkpt>
      <trkpt lat="42.4966378324" lon="-0.6492817495">
        <ele>973.95</ele>
        <time>2022-04-15T15:55:26Z</time>
      </trkpt>
      <trkpt lat="42.4968247488" lon="-0.6494118366">
        <ele>973.95</ele>
        <time>2022-04-15T15:55:41Z</time>
      </trkpt>
      <trkpt lat="42.4969479628" lon="-0.6495215558">
        <ele>973.95</ele>
        <time>2022-04-15T15:55:58Z</time>
      </trkpt>
      <trkpt lat="42.4970597774" lon="-0.6496352144">
        <ele>974.43</ele>
        <time>2022-04-15T15:56:14Z</time>
      </trkpt>
      <trkpt lat="42.4972369708" lon="-0.6497005932">
        <ele>974.91</ele>
        <time>2022-04-15T15:56:34Z</time>
      </trkpt>
      <trkpt lat="42.4973329436" lon="-0.6496974081">
        <ele>974.91</ele>
        <time>2022-04-15T15:56:39Z</time>
      </trkpt>
      <trkpt lat="42.4974138290" lon="-0.6496900320">
        <ele>974.91</ele>
        <time>2022-04-15T15:56:43Z</time>
      </trkpt>
      <trkpt lat="42.4976895936" lon="-0.6496632099">
        <ele>974.91</ele>
        <time>2022-04-15T15:57:00Z</time>
      </trkpt>
      <trkpt lat="42.4978368636" lon="-0.6496914569">
        <ele>974.91</ele>
        <time>2022-04-15T15:57:14Z</time>
      </trkpt>
      <trkpt lat="42.4979744945" lon="-0.6497677322">
        <ele>975.88</ele>
        <time>2022-04-15T15:57:26Z</time>
      </trkpt>
      <trkpt lat="42.4980027415" lon="-0.6497819815">
        <ele>975.88</ele>
        <time>2022-04-15T15:57:28Z</time>
      </trkpt>
      <trkpt lat="42.4980808608" lon="-0.6498115696">
        <ele>975.88</ele>
        <time>2022-04-15T15:57:35Z</time>
      </trkpt>
      <trkpt lat="42.4982501753" lon="-0.6499110628">
        <ele>976.36</ele>
        <time>2022-04-15T15:57:50Z</time>
      </trkpt>
      <trkpt lat="42.4984309729" lon="-0.6500129029">
        <ele>976.36</ele>
        <time>2022-04-15T15:58:06Z</time>
      </trkpt>
      <trkpt lat="42.4986236729" lon="-0.6501098815">
        <ele>976.36</ele>
        <time>2022-04-15T15:58:22Z</time>
      </trkpt>
      <trkpt lat="42.4987561069" lon="-0.6501417328">
        <ele>977.80</ele>
        <time>2022-04-15T15:58:35Z</time>
      </trkpt>
      <trkpt lat="42.4988483917" lon="-0.6501744222">
        <ele>978.28</ele>
        <time>2022-04-15T15:58:50Z</time>
      </trkpt>
      <trkpt lat="42.4989825860" lon="-0.6501909345">
        <ele>979.24</ele>
        <time>2022-04-15T15:59:03Z</time>
      </trkpt>
      <trkpt lat="42.4991365615" lon="-0.6502269767">
        <ele>980.68</ele>
        <time>2022-04-15T15:59:19Z</time>
      </trkpt>
      <trkpt lat="42.4992075562" lon="-0.6502365321">
        <ele>981.64</ele>
        <time>2022-04-15T15:59:28Z</time>
      </trkpt>
      <trkpt lat="42.4992462806" lon="-0.6502558943">
        <ele>981.64</ele>
        <time>2022-04-15T15:59:32Z</time>
      </trkpt>
      <trkpt lat="42.4994348735" lon="-0.6503361091">
        <ele>982.60</ele>
        <time>2022-04-15T15:59:47Z</time>
      </trkpt>
      <trkpt lat="42.4995752703" lon="-0.6504154857">
        <ele>984.53</ele>
        <time>2022-04-15T16:00:02Z</time>
      </trkpt>
      <trkpt lat="42.4997061957" lon="-0.6505026575">
        <ele>986.93</ele>
        <time>2022-04-15T16:00:17Z</time>
      </trkpt>
      <trkpt lat="42.4998092093" lon="-0.6505899969">
        <ele>987.89</ele>
        <time>2022-04-15T16:00:29Z</time>
      </trkpt>
      <trkpt lat="42.4998403899" lon="-0.6506060902">
        <ele>988.37</ele>
        <time>2022-04-15T16:00:32Z</time>
      </trkpt>
      <trkpt lat="42.4999539647" lon="-0.6506514363">
        <ele>989.33</ele>
        <time>2022-04-15T16:00:43Z</time>
      </trkpt>
      <trkpt lat="42.4999752548" lon="-0.6506606564">
        <ele>989.81</ele>
        <time>2022-04-15T16:00:47Z</time>
      </trkpt>
      <trkpt lat="42.5000371970" lon="-0.6506814435">
        <ele>990.30</ele>
        <time>2022-04-15T16:01:00Z</time>
      </trkpt>
      <trkpt lat="42.5000495184" lon="-0.6506959442">
        <ele>985.97</ele>
        <time>2022-04-15T16:01:05Z</time>
      </trkpt>
      <trkpt lat="42.5000475068" lon="-0.6507000513">
        <ele>987.89</ele>
        <time>2022-04-15T16:01:06Z</time>
      </trkpt>
      <trkpt lat="42.5000413042" lon="-0.6507047452">
        <ele>991.26</ele>
        <time>2022-04-15T16:01:08Z</time>
      </trkpt>
      <trkpt lat="42.5000278093" lon="-0.6507055834">
        <ele>989.33</ele>
        <time>2022-04-15T16:01:10Z</time>
      </trkpt>
      <trkpt lat="42.5000230316" lon="-0.6507264543">
        <ele>991.26</ele>
        <time>2022-04-15T16:01:15Z</time>
      </trkpt>
      <trkpt lat="42.5000247080" lon="-0.6507379375">
        <ele>989.81</ele>
        <time>2022-04-15T16:01:17Z</time>
      </trkpt>
      <trkpt lat="42.5000293180" lon="-0.6507758237">
        <ele>990.78</ele>
        <time>2022-04-15T16:01:30Z</time>
      </trkpt>
      <trkpt lat="42.5000204332" lon="-0.6507760752">
        <ele>989.81</ele>
        <time>2022-04-15T16:01:42Z</time>
      </trkpt>
      <trkpt lat="42.5000433158" lon="-0.6507794280">
        <ele>990.30</ele>
        <time>2022-04-15T16:02:19Z</time>
      </trkpt>
      <trkpt lat="42.5000358559" lon="-0.6507714652">
        <ele>989.33</ele>
        <time>2022-04-15T16:02:50Z</time>
      </trkpt>
      <trkpt lat="42.5000626780" lon="-0.6507221796">
        <ele>989.33</ele>
        <time>2022-04-15T16:03:16Z</time>
      </trkpt>
      <trkpt lat="42.4999741651" lon="-0.6507999636">
        <ele>989.33</ele>
        <time>2022-04-15T16:03:54Z</time>
      </trkpt>
      <trkpt lat="42.5000097044" lon="-0.6508416217">
        <ele>989.81</ele>
        <time>2022-04-15T16:04:20Z</time>
      </trkpt>
      <trkpt lat="42.5000195950" lon="-0.6507578027">
        <ele>989.81</ele>
        <time>2022-04-15T16:04:51Z</time>
      </trkpt>
      <trkpt lat="42.4999948684" lon="-0.6507894024">
        <ele>989.81</ele>
        <time>2022-04-15T16:05:15Z</time>
      </trkpt>
      <trkpt lat="42.5000379514" lon="-0.6507593952">
        <ele>989.81</ele>
        <time>2022-04-15T16:05:47Z</time>
      </trkpt>
      <trkpt lat="42.4999658670" lon="-0.6507958565">
        <ele>990.30</ele>
        <time>2022-04-15T16:06:28Z</time>
      </trkpt>
      <trkpt lat="42.4999901745" lon="-0.6507078465">
        <ele>990.78</ele>
        <time>2022-04-15T16:07:11Z</time>
      </trkpt>
      <trkpt lat="42.4999833014" lon="-0.6507298071">
        <ele>990.30</ele>
        <time>2022-04-15T16:07:51Z</time>
      </trkpt>
      <trkpt lat="42.4999746680" lon="-0.6507861335">
        <ele>990.30</ele>
        <time>2022-04-15T16:08:21Z</time>
      </trkpt>
      <trkpt lat="42.5000042561" lon="-0.6507723872">
        <ele>990.30</ele>
        <time>2022-04-15T16:08:58Z</time>
      </trkpt>
      <trkpt lat="42.5000000652" lon="-0.6507468224">
        <ele>990.78</ele>
        <time>2022-04-15T16:09:32Z</time>
      </trkpt>
      <trkpt lat="42.4999905098" lon="-0.6508055795">
        <ele>990.30</ele>
        <time>2022-04-15T16:10:10Z</time>
      </trkpt>
      <trkpt lat="42.5000014063" lon="-0.6507817749">
        <ele>990.30</ele>
        <time>2022-04-15T16:10:48Z</time>
      </trkpt>
      <trkpt lat="42.4999927729" lon="-0.6507920846">
        <ele>990.30</ele>
        <time>2022-04-15T16:11:29Z</time>
      </trkpt>
      <trkpt lat="42.4999976344" lon="-0.6507960241">
        <ele>991.74</ele>
        <time>2022-04-15T16:11:34Z</time>
      </trkpt>
      <trkpt lat="42.5000346825" lon="-0.6508016400">
        <ele>990.78</ele>
        <time>2022-04-15T16:12:07Z</time>
      </trkpt>
      <trkpt lat="42.5000423938" lon="-0.6507375184">
        <ele>990.78</ele>
        <time>2022-04-15T16:12:38Z</time>
      </trkpt>
      <trkpt lat="42.5000452437" lon="-0.6507197488">
        <ele>990.78</ele>
        <time>2022-04-15T16:13:08Z</time>
      </trkpt>
      <trkpt lat="42.5000511948" lon="-0.6506973691">
        <ele>990.78</ele>
        <time>2022-04-15T16:13:47Z</time>
      </trkpt>
      <trkpt lat="42.4999963772" lon="-0.6508015562">
        <ele>990.78</ele>
        <time>2022-04-15T16:14:20Z</time>
      </trkpt>
      <trkpt lat="42.4999710638" lon="-0.6507678609">
        <ele>990.78</ele>
        <time>2022-04-15T16:14:52Z</time>
      </trkpt>
      <trkpt lat="42.4999833014" lon="-0.6507424638">
        <ele>991.26</ele>
        <time>2022-04-15T16:15:25Z</time>
      </trkpt>
      <trkpt lat="42.4999985565" lon="-0.6507269572">
        <ele>991.26</ele>
        <time>2022-04-15T16:15:50Z</time>
      </trkpt>
      <trkpt lat="42.5000087824" lon="-0.6507086009">
        <ele>992.70</ele>
        <time>2022-04-15T16:16:01Z</time>
      </trkpt>
      <trkpt lat="42.5000576489" lon="-0.6507169828">
        <ele>992.70</ele>
        <time>2022-04-15T16:16:13Z</time>
      </trkpt>
      <trkpt lat="42.5000516139" lon="-0.6507527735">
        <ele>992.70</ele>
        <time>2022-04-15T16:16:37Z</time>
      </trkpt>
      <trkpt lat="42.5000062678" lon="-0.6507292204">
        <ele>991.26</ele>
        <time>2022-04-15T16:16:50Z</time>
      </trkpt>
      <trkpt lat="42.5000040047" lon="-0.6507243589">
        <ele>992.70</ele>
        <time>2022-04-15T16:16:53Z</time>
      </trkpt>
      <trkpt lat="42.4999947846" lon="-0.6507324893">
        <ele>989.81</ele>
        <time>2022-04-15T16:16:59Z</time>
      </trkpt>
      <trkpt lat="42.4999930244" lon="-0.6507339142">
        <ele>993.18</ele>
        <time>2022-04-15T16:17:00Z</time>
      </trkpt>
      <trkpt lat="42.5000011548" lon="-0.6507281307">
        <ele>991.74</ele>
        <time>2022-04-15T16:17:05Z</time>
      </trkpt>
      <trkpt lat="42.5000321679" lon="-0.6507478282">
        <ele>991.26</ele>
        <time>2022-04-15T16:17:14Z</time>
      </trkpt>
      <trkpt lat="42.5000627618" lon="-0.6508406997">
        <ele>992.22</ele>
        <time>2022-04-15T16:17:24Z</time>
      </trkpt>
      <trkpt lat="42.5001088623" lon="-0.6509034801">
        <ele>992.70</ele>
        <time>2022-04-15T16:17:32Z</time>
      </trkpt>
      <trkpt lat="42.5001226924" lon="-0.6509523466">
        <ele>993.66</ele>
        <time>2022-04-15T16:17:37Z</time>
      </trkpt>
      <trkpt lat="42.5001610816" lon="-0.6510008778">
        <ele>993.66</ele>
        <time>2022-04-15T16:17:44Z</time>
      </trkpt>
      <trkpt lat="42.5001962017" lon="-0.6510904804">
        <ele>995.58</ele>
        <time>2022-04-15T16:17:56Z</time>
      </trkpt>
      <trkpt lat="42.5002467446" lon="-0.6512037199">
        <ele>997.51</ele>
        <time>2022-04-15T16:18:12Z</time>
      </trkpt>
      <trkpt lat="42.5002780091" lon="-0.6512684282">
        <ele>997.51</ele>
        <time>2022-04-15T16:18:19Z</time>
      </trkpt>
      <trkpt lat="42.5003242772" lon="-0.6513260119">
        <ele>997.99</ele>
        <time>2022-04-15T16:18:25Z</time>
      </trkpt>
      <trkpt lat="42.5004115328" lon="-0.6514552608">
        <ele>1000.39</ele>
        <time>2022-04-15T16:18:38Z</time>
      </trkpt>
      <trkpt lat="42.5004609860" lon="-0.6515679136">
        <ele>1000.87</ele>
        <time>2022-04-15T16:18:49Z</time>
      </trkpt>
      <trkpt lat="42.5005195756" lon="-0.6517049577">
        <ele>1001.83</ele>
        <time>2022-04-15T16:19:02Z</time>
      </trkpt>
      <trkpt lat="42.5005901512" lon="-0.6518116593">
        <ele>1003.27</ele>
        <time>2022-04-15T16:19:14Z</time>
      </trkpt>
      <trkpt lat="42.5006049871" lon="-0.6518302672">
        <ele>1003.27</ele>
        <time>2022-04-15T16:19:17Z</time>
      </trkpt>
      <trkpt lat="42.5006268639" lon="-0.6518527307">
        <ele>1004.72</ele>
        <time>2022-04-15T16:19:20Z</time>
      </trkpt>
      <trkpt lat="42.5006468967" lon="-0.6518794689">
        <ele>1005.68</ele>
        <time>2022-04-15T16:19:24Z</time>
      </trkpt>
      <trkpt lat="42.5006988645" lon="-0.6519657187">
        <ele>1007.12</ele>
        <time>2022-04-15T16:19:35Z</time>
      </trkpt>
      <trkpt lat="42.5007578731" lon="-0.6520570815">
        <ele>1008.08</ele>
        <time>2022-04-15T16:19:46Z</time>
      </trkpt>
      <trkpt lat="42.5008331425" lon="-0.6521373801">
        <ele>1009.52</ele>
        <time>2022-04-15T16:19:57Z</time>
      </trkpt>
      <trkpt lat="42.5009088311" lon="-0.6522421539">
        <ele>1010.48</ele>
        <time>2022-04-15T16:20:08Z</time>
      </trkpt>
      <trkpt lat="42.5009456277" lon="-0.6523258053">
        <ele>1011.44</ele>
        <time>2022-04-15T16:20:19Z</time>
      </trkpt>
      <trkpt lat="42.5009826757" lon="-0.6523653679">
        <ele>1012.89</ele>
        <time>2022-04-15T16:20:25Z</time>
      </trkpt>
      <trkpt lat="42.5010384154" lon="-0.6524154078">
        <ele>1013.37</ele>
        <time>2022-04-15T16:20:33Z</time>
      </trkpt>
      <trkpt lat="42.5011062250" lon="-0.6525189243">
        <ele>1015.29</ele>
        <time>2022-04-15T16:20:46Z</time>
      </trkpt>
      <trkpt lat="42.5011532474" lon="-0.6525905896">
        <ele>1016.73</ele>
        <time>2022-04-15T16:20:55Z</time>
      </trkpt>
      <trkpt lat="42.5012397487" lon="-0.6526531186">
        <ele>1018.17</ele>
        <time>2022-04-15T16:21:05Z</time>
      </trkpt>
      <trkpt lat="42.5012703426" lon="-0.6526905019">
        <ele>1018.65</ele>
        <time>2022-04-15T16:21:11Z</time>
      </trkpt>
      <trkpt lat="42.5012762100" lon="-0.6527031586">
        <ele>1020.58</ele>
        <time>2022-04-15T16:21:14Z</time>
      </trkpt>
      <trkpt lat="42.5013019424" lon="-0.6527572218">
        <ele>1019.13</ele>
        <time>2022-04-15T16:21:20Z</time>
      </trkpt>
      <trkpt lat="42.5013267528" lon="-0.6527914200">
        <ele>1020.58</ele>
        <time>2022-04-15T16:21:24Z</time>
      </trkpt>
      <trkpt lat="42.5013701711" lon="-0.6528456509">
        <ele>1021.54</ele>
        <time>2022-04-15T16:21:32Z</time>
      </trkpt>
      <trkpt lat="42.5014128350" lon="-0.6529079285">
        <ele>1022.02</ele>
        <time>2022-04-15T16:21:39Z</time>
      </trkpt>
      <trkpt lat="42.5014646351" lon="-0.6530137919">
        <ele>1023.46</ele>
        <time>2022-04-15T16:21:50Z</time>
      </trkpt>
      <trkpt lat="42.5015616976" lon="-0.6531332340">
        <ele>1024.42</ele>
        <time>2022-04-15T16:22:02Z</time>
      </trkpt>
      <trkpt lat="42.5016024336" lon="-0.6532296259">
        <ele>1025.86</ele>
        <time>2022-04-15T16:22:14Z</time>
      </trkpt>
      <trkpt lat="42.5016095582" lon="-0.6532409415">
        <ele>1025.86</ele>
        <time>2022-04-15T16:22:15Z</time>
      </trkpt>
      <trkpt lat="42.5016211253" lon="-0.6532654166">
        <ele>1025.86</ele>
        <time>2022-04-15T16:22:17Z</time>
      </trkpt>
      <trkpt lat="42.5016404875" lon="-0.6533442065">
        <ele>1025.86</ele>
        <time>2022-04-15T16:22:23Z</time>
      </trkpt>
      <trkpt lat="42.5016990770" lon="-0.6534272712">
        <ele>1026.34</ele>
        <time>2022-04-15T16:22:31Z</time>
      </trkpt>
      <trkpt lat="42.5017065369" lon="-0.6534520816">
        <ele>1026.34</ele>
        <time>2022-04-15T16:22:33Z</time>
      </trkpt>
      <trkpt lat="42.5017450098" lon="-0.6535497308">
        <ele>1027.79</ele>
        <time>2022-04-15T16:22:43Z</time>
      </trkpt>
      <trkpt lat="42.5017688982" lon="-0.6536042970">
        <ele>1028.27</ele>
        <time>2022-04-15T16:22:49Z</time>
      </trkpt>
      <trkpt lat="42.5018592551" lon="-0.6536981743">
        <ele>1029.71</ele>
        <time>2022-04-15T16:23:01Z</time>
      </trkpt>
      <trkpt lat="42.5019123964" lon="-0.6537923031">
        <ele>1031.15</ele>
        <time>2022-04-15T16:23:13Z</time>
      </trkpt>
      <trkpt lat="42.5019203592" lon="-0.6538063008">
        <ele>1032.11</ele>
        <time>2022-04-15T16:23:15Z</time>
      </trkpt>
      <trkpt lat="42.5019413978" lon="-0.6538404990">
        <ele>1033.07</ele>
        <time>2022-04-15T16:23:20Z</time>
      </trkpt>
      <trkpt lat="42.5020157453" lon="-0.6539604440">
        <ele>1033.55</ele>
        <time>2022-04-15T16:23:32Z</time>
      </trkpt>
      <trkpt lat="42.5020501111" lon="-0.6540255714">
        <ele>1035.48</ele>
        <time>2022-04-15T16:23:42Z</time>
      </trkpt>
      <trkpt lat="42.5020660367" lon="-0.6540402398">
        <ele>1035.96</ele>
        <time>2022-04-15T16:23:46Z</time>
      </trkpt>
      <trkpt lat="42.5021049287" lon="-0.6540744379">
        <ele>1037.88</ele>
        <time>2022-04-15T16:23:55Z</time>
      </trkpt>
      <trkpt lat="42.5021864008" lon="-0.6541239750">
        <ele>1039.80</ele>
        <time>2022-04-15T16:24:06Z</time>
      </trkpt>
      <trkpt lat="42.5022535399" lon="-0.6541514676">
        <ele>1041.25</ele>
        <time>2022-04-15T16:24:17Z</time>
      </trkpt>
      <trkpt lat="42.5023179129" lon="-0.6542042736">
        <ele>1042.69</ele>
        <time>2022-04-15T16:24:28Z</time>
      </trkpt>
      <trkpt lat="42.5023786817" lon="-0.6542836502">
        <ele>1044.13</ele>
        <time>2022-04-15T16:24:40Z</time>
      </trkpt>
      <trkpt lat="42.5023915898" lon="-0.6542897690">
        <ele>1045.57</ele>
        <time>2022-04-15T16:24:43Z</time>
      </trkpt>
      <trkpt lat="42.5024804380" lon="-0.6543552317">
        <ele>1047.01</ele>
        <time>2022-04-15T16:24:54Z</time>
      </trkpt>
      <trkpt lat="42.5024814438" lon="-0.6543631107">
        <ele>1047.01</ele>
        <time>2022-04-15T16:24:55Z</time>
      </trkpt>
      <trkpt lat="42.5024985429" lon="-0.6543671340">
        <ele>1047.01</ele>
        <time>2022-04-15T16:24:56Z</time>
      </trkpt>
      <trkpt lat="42.5025977008" lon="-0.6544150785">
        <ele>1047.97</ele>
        <time>2022-04-15T16:25:08Z</time>
      </trkpt>
      <trkpt lat="42.5026708748" lon="-0.6544629391">
        <ele>1049.42</ele>
        <time>2022-04-15T16:25:18Z</time>
      </trkpt>
      <trkpt lat="42.5027856231" lon="-0.6545022503">
        <ele>1051.82</ele>
        <time>2022-04-15T16:25:35Z</time>
      </trkpt>
      <trkpt lat="42.5028513372" lon="-0.6545392144">
        <ele>1053.74</ele>
        <time>2022-04-15T16:25:48Z</time>
      </trkpt>
      <trkpt lat="42.5029488187" lon="-0.6545909308">
        <ele>1055.67</ele>
        <time>2022-04-15T16:26:00Z</time>
      </trkpt>
      <trkpt lat="42.5029959250" lon="-0.6545983907">
        <ele>1056.63</ele>
        <time>2022-04-15T16:26:05Z</time>
      </trkpt>
      <trkpt lat="42.5030827615" lon="-0.6546880770">
        <ele>1058.07</ele>
        <time>2022-04-15T16:26:19Z</time>
      </trkpt>
      <trkpt lat="42.5030906405" lon="-0.6546853110">
        <ele>1058.07</ele>
        <time>2022-04-15T16:26:20Z</time>
      </trkpt>
      <trkpt lat="42.5031210668" lon="-0.6546863168">
        <ele>1059.03</ele>
        <time>2022-04-15T16:26:24Z</time>
      </trkpt>
      <trkpt lat="42.5031595398" lon="-0.6547420565">
        <ele>1060.47</ele>
        <time>2022-04-15T16:26:31Z</time>
      </trkpt>
      <trkpt lat="42.5031852722" lon="-0.6547911745">
        <ele>1060.95</ele>
        <time>2022-04-15T16:26:36Z</time>
      </trkpt>
      <trkpt lat="42.5032509025" lon="-0.6548977084">
        <ele>1062.87</ele>
        <time>2022-04-15T16:26:48Z</time>
      </trkpt>
      <trkpt lat="42.5032761320" lon="-0.6548201758">
        <ele>1064.80</ele>
        <time>2022-04-15T16:26:59Z</time>
      </trkpt>
      <trkpt lat="42.5033245794" lon="-0.6548430584">
        <ele>1065.76</ele>
        <time>2022-04-15T16:27:09Z</time>
      </trkpt>
      <trkpt lat="42.5033805706" lon="-0.6548879016">
        <ele>1066.72</ele>
        <time>2022-04-15T16:27:16Z</time>
      </trkpt>
      <trkpt lat="42.5034413394" lon="-0.6549691223">
        <ele>1069.12</ele>
        <time>2022-04-15T16:27:29Z</time>
      </trkpt>
      <trkpt lat="42.5034744479" lon="-0.6550590601">
        <ele>1070.08</ele>
        <time>2022-04-15T16:27:39Z</time>
      </trkpt>
      <trkpt lat="42.5034933910" lon="-0.6551851239">
        <ele>1071.05</ele>
        <time>2022-04-15T16:27:50Z</time>
      </trkpt>
      <trkpt lat="42.5035306066" lon="-0.6552437972">
        <ele>1072.01</ele>
        <time>2022-04-15T16:27:57Z</time>
      </trkpt>
      <trkpt lat="42.5035948120" lon="-0.6553353276">
        <ele>1073.45</ele>
        <time>2022-04-15T16:28:10Z</time>
      </trkpt>
      <trkpt lat="42.5036565028" lon="-0.6554259360">
        <ele>1075.37</ele>
        <time>2022-04-15T16:28:22Z</time>
      </trkpt>
      <trkpt lat="42.5037006754" lon="-0.6554691866">
        <ele>1076.81</ele>
        <time>2022-04-15T16:28:33Z</time>
      </trkpt>
      <trkpt lat="42.5037247315" lon="-0.6554276962">
        <ele>1077.78</ele>
        <time>2022-04-15T16:28:41Z</time>
      </trkpt>
      <trkpt lat="42.5037401542" lon="-0.6554062385">
        <ele>1078.26</ele>
        <time>2022-04-15T16:28:45Z</time>
      </trkpt>
      <trkpt lat="42.5037687365" lon="-0.6554210745">
        <ele>1078.74</ele>
        <time>2022-04-15T16:28:49Z</time>
      </trkpt>
      <trkpt lat="42.5038078800" lon="-0.6554976013">
        <ele>1080.66</ele>
        <time>2022-04-15T16:29:00Z</time>
      </trkpt>
      <trkpt lat="42.5038787071" lon="-0.6555688474">
        <ele>1082.58</ele>
        <time>2022-04-15T16:29:13Z</time>
      </trkpt>
      <trkpt lat="42.5039214548" lon="-0.6555739604">
        <ele>1082.58</ele>
        <time>2022-04-15T16:29:19Z</time>
      </trkpt>
      <trkpt lat="42.5039460976" lon="-0.6555697694">
        <ele>1082.58</ele>
        <time>2022-04-15T16:29:22Z</time>
      </trkpt>
      <trkpt lat="42.5040030107" lon="-0.6555805821">
        <ele>1084.50</ele>
        <time>2022-04-15T16:29:31Z</time>
      </trkpt>
      <trkpt lat="42.5040530507" lon="-0.6555821747">
        <ele>1086.43</ele>
        <time>2022-04-15T16:29:39Z</time>
      </trkpt>
      <trkpt lat="42.5040579122" lon="-0.6555362418">
        <ele>1086.43</ele>
        <time>2022-04-15T16:29:50Z</time>
      </trkpt>
      <trkpt lat="42.5040940382" lon="-0.6555450428">
        <ele>1087.87</ele>
        <time>2022-04-15T16:29:57Z</time>
      </trkpt>
      <trkpt lat="42.5041722413" lon="-0.6555639859">
        <ele>1089.79</ele>
        <time>2022-04-15T16:30:09Z</time>
      </trkpt>
      <trkpt lat="42.5041771028" lon="-0.6555719487">
        <ele>1090.27</ele>
        <time>2022-04-15T16:30:21Z</time>
      </trkpt>
      <trkpt lat="42.5042280648" lon="-0.6556091644">
        <ele>1090.75</ele>
        <time>2022-04-15T16:30:36Z</time>
      </trkpt>
      <trkpt lat="42.5042548869" lon="-0.6557033770">
        <ele>1093.16</ele>
        <time>2022-04-15T16:30:48Z</time>
      </trkpt>
      <trkpt lat="42.5042502768" lon="-0.6557133514">
        <ele>1091.71</ele>
        <time>2022-04-15T16:30:49Z</time>
      </trkpt>
      <trkpt lat="42.5042501092" lon="-0.6557203084">
        <ele>1093.16</ele>
        <time>2022-04-15T16:30:50Z</time>
      </trkpt>
      <trkpt lat="42.5042423140" lon="-0.6557638105">
        <ele>1094.60</ele>
        <time>2022-04-15T16:30:55Z</time>
      </trkpt>
      <trkpt lat="42.5042064395" lon="-0.6558577716">
        <ele>1094.60</ele>
        <time>2022-04-15T16:31:07Z</time>
      </trkpt>
      <trkpt lat="42.5041803718" lon="-0.6558838394">
        <ele>1094.60</ele>
        <time>2022-04-15T16:31:11Z</time>
      </trkpt>
      <trkpt lat="42.5041356124" lon="-0.6559588574">
        <ele>1096.52</ele>
        <time>2022-04-15T16:31:23Z</time>
      </trkpt>
      <trkpt lat="42.5041388813" lon="-0.6559560075">
        <ele>1097.00</ele>
        <time>2022-04-15T16:31:24Z</time>
      </trkpt>
      <trkpt lat="42.5042037573" lon="-0.6559086498">
        <ele>1098.92</ele>
        <time>2022-04-15T16:31:37Z</time>
      </trkpt>
      <trkpt lat="42.5042179227" lon="-0.6559027825">
        <ele>1098.92</ele>
        <time>2022-04-15T16:31:40Z</time>
      </trkpt>
      <trkpt lat="42.5043048430" lon="-0.6559412554">
        <ele>1101.33</ele>
        <time>2022-04-15T16:31:54Z</time>
      </trkpt>
      <trkpt lat="42.5042698905" lon="-0.6560371444">
        <ele>1103.25</ele>
        <time>2022-04-15T16:32:08Z</time>
      </trkpt>
      <trkpt lat="42.5041786116" lon="-0.6560865138">
        <ele>1105.17</ele>
        <time>2022-04-15T16:32:20Z</time>
      </trkpt>
      <trkpt lat="42.5041372050" lon="-0.6561564188">
        <ele>1107.10</ele>
        <time>2022-04-15T16:32:31Z</time>
      </trkpt>
      <trkpt lat="42.5041208602" lon="-0.6562247314">
        <ele>1109.02</ele>
        <time>2022-04-15T16:32:40Z</time>
      </trkpt>
      <trkpt lat="42.5040843990" lon="-0.6562606059">
        <ele>1109.50</ele>
        <time>2022-04-15T16:32:50Z</time>
      </trkpt>
      <trkpt lat="42.5040864106" lon="-0.6562750228">
        <ele>1109.50</ele>
        <time>2022-04-15T16:33:01Z</time>
      </trkpt>
      <trkpt lat="42.5040020887" lon="-0.6563402340">
        <ele>1110.94</ele>
        <time>2022-04-15T16:33:14Z</time>
      </trkpt>
      <trkpt lat="42.5039279927" lon="-0.6564315967">
        <ele>1113.34</ele>
        <time>2022-04-15T16:33:27Z</time>
      </trkpt>
      <trkpt lat="42.5039155874" lon="-0.6564598437">
        <ele>1113.34</ele>
        <time>2022-04-15T16:33:30Z</time>
      </trkpt>
      <trkpt lat="42.5039386377" lon="-0.6564921979">
        <ele>1115.27</ele>
        <time>2022-04-15T16:33:41Z</time>
      </trkpt>
      <trkpt lat="42.5039922819" lon="-0.6564327702">
        <ele>1116.71</ele>
        <time>2022-04-15T16:33:52Z</time>
      </trkpt>
      <trkpt lat="42.5040791184" lon="-0.6564444210">
        <ele>1118.63</ele>
        <time>2022-04-15T16:34:05Z</time>
      </trkpt>
      <trkpt lat="42.5041283201" lon="-0.6564320158">
        <ele>1121.03</ele>
        <time>2022-04-15T16:34:16Z</time>
      </trkpt>
      <trkpt lat="42.5041356124" lon="-0.6564240530">
        <ele>1121.03</ele>
        <time>2022-04-15T16:34:18Z</time>
      </trkpt>
      <trkpt lat="42.5041721575" lon="-0.6564973947">
        <ele>1123.44</ele>
        <time>2022-04-15T16:34:31Z</time>
      </trkpt>
      <trkpt lat="42.5041630212" lon="-0.6565160025">
        <ele>1123.92</ele>
        <time>2022-04-15T16:34:34Z</time>
      </trkpt>
      <trkpt lat="42.5041150767" lon="-0.6566334330">
        <ele>1125.36</ele>
        <time>2022-04-15T16:34:46Z</time>
      </trkpt>
      <trkpt lat="42.5041088741" lon="-0.6566466764">
        <ele>1126.32</ele>
        <time>2022-04-15T16:34:48Z</time>
      </trkpt>
      <trkpt lat="42.5041082874" lon="-0.6567392126">
        <ele>1127.28</ele>
        <time>2022-04-15T16:35:00Z</time>
      </trkpt>
      <trkpt lat="42.5041180942" lon="-0.6568331737">
        <ele>1129.21</ele>
        <time>2022-04-15T16:35:11Z</time>
      </trkpt>
      <trkpt lat="42.5041346066" lon="-0.6569083594">
        <ele>1129.69</ele>
        <time>2022-04-15T16:35:19Z</time>
      </trkpt>
      <trkpt lat="42.5041301642" lon="-0.6570254546">
        <ele>1130.17</ele>
        <time>2022-04-15T16:35:29Z</time>
      </trkpt>
      <trkpt lat="42.5040901825" lon="-0.6570852175">
        <ele>1131.13</ele>
        <time>2022-04-15T16:35:37Z</time>
      </trkpt>
      <trkpt lat="42.5040388852" lon="-0.6571865547">
        <ele>1133.53</ele>
        <time>2022-04-15T16:35:49Z</time>
      </trkpt>
      <trkpt lat="42.5040358678" lon="-0.6572944298">
        <ele>1135.94</ele>
        <time>2022-04-15T16:36:02Z</time>
      </trkpt>
      <trkpt lat="42.5040487759" lon="-0.6573921628">
        <ele>1137.38</ele>
        <time>2022-04-15T16:36:14Z</time>
      </trkpt>
      <trkpt lat="42.5040684734" lon="-0.6574451365">
        <ele>1138.82</ele>
        <time>2022-04-15T16:36:22Z</time>
      </trkpt>
      <trkpt lat="42.5040824711" lon="-0.6575167179">
        <ele>1141.22</ele>
        <time>2022-04-15T16:36:31Z</time>
      </trkpt>
      <trkpt lat="42.5041085389" lon="-0.6575393490">
        <ele>1142.66</ele>
        <time>2022-04-15T16:36:43Z</time>
      </trkpt>
      <trkpt lat="42.5041259732" lon="-0.6574976910">
        <ele>1144.59</ele>
        <time>2022-04-15T16:36:50Z</time>
      </trkpt>
      <trkpt lat="42.5041369535" lon="-0.6574384309">
        <ele>1145.07</ele>
        <time>2022-04-15T16:37:01Z</time>
      </trkpt>
      <trkpt lat="42.5041703135" lon="-0.6573852897">
        <ele>1146.99</ele>
        <time>2022-04-15T16:37:12Z</time>
      </trkpt>
      <trkpt lat="42.5041879993" lon="-0.6574094296">
        <ele>1148.91</ele>
        <time>2022-04-15T16:37:21Z</time>
      </trkpt>
      <trkpt lat="42.5042198505" lon="-0.6573734712">
        <ele>1150.84</ele>
        <time>2022-04-15T16:37:32Z</time>
      </trkpt>
      <trkpt lat="42.5042330939" lon="-0.6573532708">
        <ele>1151.80</ele>
        <time>2022-04-15T16:37:40Z</time>
      </trkpt>
      <trkpt lat="42.5042631850" lon="-0.6573597249">
        <ele>1153.24</ele>
        <time>2022-04-15T16:37:50Z</time>
      </trkpt>
      <trkpt lat="42.5042632688" lon="-0.6573456433">
        <ele>1155.16</ele>
        <time>2022-04-15T16:37:54Z</time>
      </trkpt>
      <trkpt lat="42.5042655319" lon="-0.6573308073">
        <ele>1153.24</ele>
        <time>2022-04-15T16:37:56Z</time>
      </trkpt>
      <trkpt lat="42.5042643584" lon="-0.6573277898">
        <ele>1154.68</ele>
        <time>2022-04-15T16:37:57Z</time>
      </trkpt>
      <trkpt lat="42.5042628497" lon="-0.6572568789">
        <ele>1156.12</ele>
        <time>2022-04-15T16:38:08Z</time>
      </trkpt>
      <trkpt lat="42.5043004844" lon="-0.6572233513">
        <ele>1157.08</ele>
        <time>2022-04-15T16:38:19Z</time>
      </trkpt>
      <trkpt lat="42.5043282285" lon="-0.6571956072">
        <ele>1158.05</ele>
        <time>2022-04-15T16:38:25Z</time>
      </trkpt>
      <trkpt lat="42.5043371134" lon="-0.6571539491">
        <ele>1159.49</ele>
        <time>2022-04-15T16:38:30Z</time>
      </trkpt>
      <trkpt lat="42.5043557212" lon="-0.6571169849">
        <ele>1159.97</ele>
        <time>2022-04-15T16:38:34Z</time>
      </trkpt>
      <trkpt lat="42.5043885782" lon="-0.6570895761">
        <ele>1160.45</ele>
        <time>2022-04-15T16:38:39Z</time>
      </trkpt>
      <trkpt lat="42.5044206809" lon="-0.6570538692">
        <ele>1161.89</ele>
        <time>2022-04-15T16:38:47Z</time>
      </trkpt>
      <trkpt lat="42.5045173243" lon="-0.6569495145">
        <ele>1162.37</ele>
        <time>2022-04-15T16:39:01Z</time>
      </trkpt>
      <trkpt lat="42.5045484211" lon="-0.6569600757">
        <ele>1162.37</ele>
        <time>2022-04-15T16:39:04Z</time>
      </trkpt>
      <trkpt lat="42.5047146343" lon="-0.6569559686">
        <ele>1163.81</ele>
        <time>2022-04-15T16:39:19Z</time>
      </trkpt>
      <trkpt lat="42.5047819410" lon="-0.6569699664">
        <ele>1164.29</ele>
        <time>2022-04-15T16:39:25Z</time>
      </trkpt>
      <trkpt lat="42.5048808474" lon="-0.6571145542">
        <ele>1164.77</ele>
        <time>2022-04-15T16:39:36Z</time>
      </trkpt>
      <trkpt lat="42.5049370062" lon="-0.6572632492">
        <ele>1165.74</ele>
        <time>2022-04-15T16:39:50Z</time>
      </trkpt>
      <trkpt lat="42.5049914047" lon="-0.6574086752">
        <ele>1166.22</ele>
        <time>2022-04-15T16:40:07Z</time>
      </trkpt>
      <trkpt lat="42.5050793309" lon="-0.6575593818">
        <ele>1166.22</ele>
        <time>2022-04-15T16:40:20Z</time>
      </trkpt>
      <trkpt lat="42.5051458832" lon="-0.6577173807">
        <ele>1167.18</ele>
        <time>2022-04-15T16:40:33Z</time>
      </trkpt>
      <trkpt lat="42.5052528363" lon="-0.6579282694">
        <ele>1167.66</ele>
        <time>2022-04-15T16:40:48Z</time>
      </trkpt>
      <trkpt lat="42.5052885432" lon="-0.6579719391">
        <ele>1168.14</ele>
        <time>2022-04-15T16:40:51Z</time>
      </trkpt>
      <trkpt lat="42.5053906348" lon="-0.6581193767">
        <ele>1169.10</ele>
        <time>2022-04-15T16:41:02Z</time>
      </trkpt>
      <trkpt lat="42.5054003578" lon="-0.6582290120">
        <ele>1169.58</ele>
        <time>2022-04-15T16:41:11Z</time>
      </trkpt>
      <trkpt lat="42.5054099970" lon="-0.6583397370">
        <ele>1164.29</ele>
        <time>2022-04-15T16:41:19Z</time>
      </trkpt>
      <trkpt lat="42.5054179598" lon="-0.6583504658">
        <ele>1174.39</ele>
        <time>2022-04-15T16:41:20Z</time>
      </trkpt>
      <trkpt lat="42.5054291077" lon="-0.6583746895">
        <ele>1171.50</ele>
        <time>2022-04-15T16:41:22Z</time>
      </trkpt>
      <trkpt lat="42.5054174569" lon="-0.6585909426">
        <ele>1172.47</ele>
        <time>2022-04-15T16:41:40Z</time>
      </trkpt>
      <trkpt lat="42.5054182112" lon="-0.6587841455">
        <ele>1174.39</ele>
        <time>2022-04-15T16:41:54Z</time>
      </trkpt>
      <trkpt lat="42.5053949933" lon="-0.6589414738">
        <ele>1175.83</ele>
        <time>2022-04-15T16:42:03Z</time>
      </trkpt>
      <trkpt lat="42.5053967535" lon="-0.6591037475">
        <ele>1176.79</ele>
        <time>2022-04-15T16:42:15Z</time>
      </trkpt>
      <trkpt lat="42.5054045487" lon="-0.6591889914">
        <ele>1177.75</ele>
        <time>2022-04-15T16:42:23Z</time>
      </trkpt>
      <trkpt lat="42.5054214802" lon="-0.6592733134">
        <ele>1180.16</ele>
        <time>2022-04-15T16:42:32Z</time>
      </trkpt>
      <trkpt lat="42.5054716039" lon="-0.6594056636">
        <ele>1181.12</ele>
        <time>2022-04-15T16:42:44Z</time>
      </trkpt>
      <trkpt lat="42.5055341329" lon="-0.6596033089">
        <ele>1182.08</ele>
        <time>2022-04-15T16:42:58Z</time>
      </trkpt>
      <trkpt lat="42.5056027807" lon="-0.6597412750">
        <ele>1183.52</ele>
        <time>2022-04-15T16:43:10Z</time>
      </trkpt>
      <trkpt lat="42.5056168623" lon="-0.6598903891">
        <ele>1184.48</ele>
        <time>2022-04-15T16:43:22Z</time>
      </trkpt>
      <trkpt lat="42.5056152698" lon="-0.6599074043">
        <ele>1184.96</ele>
        <time>2022-04-15T16:43:23Z</time>
      </trkpt>
      <trkpt lat="42.5056338776" lon="-0.6600018684">
        <ele>1185.44</ele>
        <time>2022-04-15T16:43:28Z</time>
      </trkpt>
      <trkpt lat="42.5056990050" lon="-0.6601990107">
        <ele>1186.88</ele>
        <time>2022-04-15T16:43:43Z</time>
      </trkpt>
      <trkpt lat="42.5057100691" lon="-0.6603261642">
        <ele>1188.33</ele>
        <time>2022-04-15T16:43:54Z</time>
      </trkpt>
      <trkpt lat="42.5057119969" lon="-0.6603899505">
        <ele>1188.33</ele>
        <time>2022-04-15T16:43:58Z</time>
      </trkpt>
      <trkpt lat="42.5057279225" lon="-0.6604602747">
        <ele>1188.81</ele>
        <time>2022-04-15T16:44:02Z</time>
      </trkpt>
      <trkpt lat="42.5057349633" lon="-0.6604931317">
        <ele>1188.81</ele>
        <time>2022-04-15T16:44:04Z</time>
      </trkpt>
      <trkpt lat="42.5057459436" lon="-0.6606518012">
        <ele>1188.81</ele>
        <time>2022-04-15T16:44:15Z</time>
      </trkpt>
      <trkpt lat="42.5057531521" lon="-0.6607161742">
        <ele>1189.77</ele>
        <time>2022-04-15T16:44:19Z</time>
      </trkpt>
      <trkpt lat="42.5058036111" lon="-0.6608873326">
        <ele>1190.73</ele>
        <time>2022-04-15T16:44:30Z</time>
      </trkpt>
      <trkpt lat="42.5057950616" lon="-0.6610102952">
        <ele>1191.69</ele>
        <time>2022-04-15T16:44:43Z</time>
      </trkpt>
      <trkpt lat="42.5057845004" lon="-0.6611352693">
        <ele>1193.13</ele>
        <time>2022-04-15T16:44:53Z</time>
      </trkpt>
      <trkpt lat="42.5057851709" lon="-0.6611904223">
        <ele>1193.61</ele>
        <time>2022-04-15T16:44:56Z</time>
      </trkpt>
      <trkpt lat="42.5058379769" lon="-0.6613364350">
        <ele>1194.58</ele>
        <time>2022-04-15T16:45:08Z</time>
      </trkpt>
      <trkpt lat="42.5058592670" lon="-0.6614264566">
        <ele>1195.06</ele>
        <time>2022-04-15T16:45:16Z</time>
      </trkpt>
      <trkpt lat="42.5059034396" lon="-0.6616395246">
        <ele>1195.54</ele>
        <time>2022-04-15T16:45:28Z</time>
      </trkpt>
      <trkpt lat="42.5059686508" lon="-0.6617779937">
        <ele>1195.54</ele>
        <time>2022-04-15T16:45:40Z</time>
      </trkpt>
      <trkpt lat="42.5060485303" lon="-0.6619645748">
        <ele>1195.54</ele>
        <time>2022-04-15T16:45:53Z</time>
      </trkpt>
      <trkpt lat="42.5061034318" lon="-0.6621262617">
        <ele>1196.02</ele>
        <time>2022-04-15T16:46:05Z</time>
      </trkpt>
      <trkpt lat="42.5061355345" lon="-0.6621959992">
        <ele>1196.50</ele>
        <time>2022-04-15T16:46:12Z</time>
      </trkpt>
      <trkpt lat="42.5061613508" lon="-0.6622747052">
        <ele>1196.50</ele>
        <time>2022-04-15T16:46:16Z</time>
      </trkpt>
      <trkpt lat="42.5061862450" lon="-0.6623387430">
        <ele>1196.98</ele>
        <time>2022-04-15T16:46:19Z</time>
      </trkpt>
      <trkpt lat="42.5062292442" lon="-0.6624669861">
        <ele>1196.98</ele>
        <time>2022-04-15T16:46:28Z</time>
      </trkpt>
      <trkpt lat="42.5062668789" lon="-0.6626243982">
        <ele>1197.94</ele>
        <time>2022-04-15T16:46:40Z</time>
      </trkpt>
      <trkpt lat="42.5062723272" lon="-0.6627378054">
        <ele>1198.42</ele>
        <time>2022-04-15T16:46:49Z</time>
      </trkpt>
      <trkpt lat="42.5062928628" lon="-0.6629484426">
        <ele>1199.38</ele>
        <time>2022-04-15T16:47:03Z</time>
      </trkpt>
      <trkpt lat="42.5062976405" lon="-0.6630970538">
        <ele>1200.34</ele>
        <time>2022-04-15T16:47:12Z</time>
      </trkpt>
      <trkpt lat="42.5063233729" lon="-0.6633060984">
        <ele>1200.82</ele>
        <time>2022-04-15T16:47:25Z</time>
      </trkpt>
      <trkpt lat="42.5063528772" lon="-0.6634704676">
        <ele>1201.30</ele>
        <time>2022-04-15T16:47:38Z</time>
      </trkpt>
      <trkpt lat="42.5063848961" lon="-0.6635954417">
        <ele>1201.30</ele>
        <time>2022-04-15T16:47:46Z</time>
      </trkpt>
      <trkpt lat="42.5064235367" lon="-0.6636995450">
        <ele>1201.79</ele>
        <time>2022-04-15T16:47:51Z</time>
      </trkpt>
      <trkpt lat="42.5064677931" lon="-0.6637691986">
        <ele>1201.79</ele>
        <time>2022-04-15T16:47:55Z</time>
      </trkpt>
      <trkpt lat="42.5065044221" lon="-0.6638974417">
        <ele>1202.27</ele>
        <time>2022-04-15T16:48:06Z</time>
      </trkpt>
      <trkpt lat="42.5065195095" lon="-0.6639391836">
        <ele>1202.75</ele>
        <time>2022-04-15T16:48:09Z</time>
      </trkpt>
      <trkpt lat="42.5065278914" lon="-0.6639960129">
        <ele>1202.75</ele>
        <time>2022-04-15T16:48:13Z</time>
      </trkpt>
      <trkpt lat="42.5065833796" lon="-0.6641374156">
        <ele>1202.75</ele>
        <time>2022-04-15T16:48:24Z</time>
      </trkpt>
      <trkpt lat="42.5066089444" lon="-0.6642370764">
        <ele>1202.75</ele>
        <time>2022-04-15T16:48:33Z</time>
      </trkpt>
      <trkpt lat="42.5066617504" lon="-0.6644089054">
        <ele>1203.71</ele>
        <time>2022-04-15T16:48:45Z</time>
      </trkpt>
      <trkpt lat="42.5066730659" lon="-0.6644807383">
        <ele>1203.71</ele>
        <time>2022-04-15T16:48:51Z</time>
      </trkpt>
      <trkpt lat="42.5067793485" lon="-0.6645559240">
        <ele>1203.71</ele>
        <time>2022-04-15T16:49:05Z</time>
      </trkpt>
      <trkpt lat="42.5068038236" lon="-0.6645752862">
        <ele>1204.19</ele>
        <time>2022-04-15T16:49:08Z</time>
      </trkpt>
      <trkpt lat="42.5068785064" lon="-0.6647312734">
        <ele>1204.19</ele>
        <time>2022-04-15T16:49:21Z</time>
      </trkpt>
      <trkpt lat="42.5068868883" lon="-0.6647603586">
        <ele>1204.19</ele>
        <time>2022-04-15T16:49:23Z</time>
      </trkpt>
      <trkpt lat="42.5069640018" lon="-0.6648482848">
        <ele>1204.67</ele>
        <time>2022-04-15T16:49:37Z</time>
      </trkpt>
      <trkpt lat="42.5069686957" lon="-0.6648556609">
        <ele>1204.67</ele>
        <time>2022-04-15T16:49:38Z</time>
      </trkpt>
      <trkpt lat="42.5070389360" lon="-0.6649628654">
        <ele>1205.63</ele>
        <time>2022-04-15T16:49:47Z</time>
      </trkpt>
      <trkpt lat="42.5071273651" lon="-0.6651105545">
        <ele>1206.59</ele>
        <time>2022-04-15T16:50:01Z</time>
      </trkpt>
      <trkpt lat="42.5071432069" lon="-0.6651360355">
        <ele>1206.59</ele>
        <time>2022-04-15T16:50:03Z</time>
      </trkpt>
      <trkpt lat="42.5072425324" lon="-0.6652954593">
        <ele>1206.59</ele>
        <time>2022-04-15T16:50:16Z</time>
      </trkpt>
      <trkpt lat="42.5072504114" lon="-0.6653482653">
        <ele>1206.59</ele>
        <time>2022-04-15T16:50:19Z</time>
      </trkpt>
      <trkpt lat="42.5072490703" lon="-0.6654894166">
        <ele>1205.15</ele>
        <time>2022-04-15T16:50:29Z</time>
      </trkpt>
      <trkpt lat="42.5072455499" lon="-0.6656347588">
        <ele>1205.15</ele>
        <time>2022-04-15T16:50:38Z</time>
      </trkpt>
      <trkpt lat="42.5072325580" lon="-0.6657925900">
        <ele>1202.75</ele>
        <time>2022-04-15T16:50:50Z</time>
      </trkpt>
      <trkpt lat="42.5072332285" lon="-0.6657989603">
        <ele>1207.07</ele>
        <time>2022-04-15T16:50:51Z</time>
      </trkpt>
      <trkpt lat="42.5072338991" lon="-0.6658075936">
        <ele>1207.07</ele>
        <time>2022-04-15T16:50:52Z</time>
      </trkpt>
      <trkpt lat="42.5072349049" lon="-0.6658323202">
        <ele>1206.11</ele>
        <time>2022-04-15T16:50:55Z</time>
      </trkpt>
      <trkpt lat="42.5072288699" lon="-0.6658902392">
        <ele>1205.63</ele>
        <time>2022-04-15T16:51:00Z</time>
      </trkpt>
      <trkpt lat="42.5070957653" lon="-0.6659893133">
        <ele>1205.15</ele>
        <time>2022-04-15T16:51:11Z</time>
      </trkpt>
      <trkpt lat="42.5070209987" lon="-0.6660614815">
        <ele>1205.15</ele>
        <time>2022-04-15T16:51:23Z</time>
      </trkpt>
      <trkpt lat="42.5070360024" lon="-0.6660586316">
        <ele>1205.15</ele>
        <time>2022-04-15T16:51:31Z</time>
      </trkpt>
      <trkpt lat="42.5070852041" lon="-0.6660459749">
        <ele>1205.15</ele>
        <time>2022-04-15T16:51:38Z</time>
      </trkpt>
      <trkpt lat="42.5071038958" lon="-0.6660574581">
        <ele>1205.15</ele>
        <time>2022-04-15T16:51:40Z</time>
      </trkpt>
      <trkpt lat="42.5072085019" lon="-0.6661080010">
        <ele>1205.15</ele>
        <time>2022-04-15T16:51:56Z</time>
      </trkpt>
      <trkpt lat="42.5072358269" lon="-0.6661051512">
        <ele>1205.15</ele>
        <time>2022-04-15T16:52:13Z</time>
      </trkpt>
      <trkpt lat="42.5072473101" lon="-0.6661496591">
        <ele>1205.15</ele>
        <time>2022-04-15T16:52:30Z</time>
      </trkpt>
      <trkpt lat="42.5072432868" lon="-0.6661696918">
        <ele>1205.15</ele>
        <time>2022-04-15T16:52:51Z</time>
      </trkpt>
      <trkpt lat="42.5072303787" lon="-0.6661458872">
        <ele>1205.15</ele>
        <time>2022-04-15T16:52:54Z</time>
      </trkpt>
      <trkpt lat="42.5072003715" lon="-0.6661322247">
        <ele>1205.15</ele>
        <time>2022-04-15T16:52:56Z</time>
      </trkpt>
      <trkpt lat="42.5072183087" lon="-0.6660573743">
        <ele>1205.15</ele>
        <time>2022-04-15T16:53:01Z</time>
      </trkpt>
      <trkpt lat="42.5073665846" lon="-0.6659328192">
        <ele>1206.59</ele>
        <time>2022-04-15T16:53:16Z</time>
      </trkpt>
      <trkpt lat="42.5073718652" lon="-0.6658394448">
        <ele>1206.59</ele>
        <time>2022-04-15T16:53:21Z</time>
      </trkpt>
      <trkpt lat="42.5073654111" lon="-0.6657347549">
        <ele>1207.07</ele>
        <time>2022-04-15T16:53:31Z</time>
      </trkpt>
      <trkpt lat="42.5074817520" lon="-0.6655375287">
        <ele>1207.07</ele>
        <time>2022-04-15T16:53:43Z</time>
      </trkpt>
      <trkpt lat="42.5076276809" lon="-0.6655350141">
        <ele>1208.51</ele>
        <time>2022-04-15T16:53:56Z</time>
      </trkpt>
      <trkpt lat="42.5077211391" lon="-0.6654669531">
        <ele>1209.48</ele>
        <time>2022-04-15T16:54:09Z</time>
      </trkpt>
      <trkpt lat="42.5077955704" lon="-0.6654378679">
        <ele>1209.96</ele>
        <time>2022-04-15T16:54:18Z</time>
      </trkpt>
      <trkpt lat="42.5078947283" lon="-0.6655092817">
        <ele>1210.44</ele>
        <time>2022-04-15T16:54:26Z</time>
      </trkpt>
      <trkpt lat="42.5079368893" lon="-0.6656079367">
        <ele>1210.44</ele>
        <time>2022-04-15T16:54:31Z</time>
      </trkpt>
      <trkpt lat="42.5079305191" lon="-0.6657505967">
        <ele>1209.96</ele>
        <time>2022-04-15T16:54:41Z</time>
      </trkpt>
      <trkpt lat="42.5078602787" lon="-0.6657983735">
        <ele>1209.96</ele>
        <time>2022-04-15T16:54:53Z</time>
      </trkpt>
      <trkpt lat="42.5078572612" lon="-0.6657666061">
        <ele>1210.44</ele>
        <time>2022-04-15T16:55:05Z</time>
      </trkpt>
      <trkpt lat="42.5081854966" lon="-0.6656255387">
        <ele>1209.96</ele>
        <time>2022-04-15T16:56:38Z</time>
      </trkpt>
      <trkpt lat="42.5079151802" lon="-0.6655397080">
        <ele>1210.92</ele>
        <time>2022-04-15T16:56:52Z</time>
      </trkpt>
      <trkpt lat="42.5079068821" lon="-0.6655306555">
        <ele>1209.00</ele>
        <time>2022-04-15T16:56:56Z</time>
      </trkpt>
      <trkpt lat="42.5078859273" lon="-0.6655291468">
        <ele>1205.63</ele>
        <time>2022-04-15T16:56:59Z</time>
      </trkpt>
      <trkpt lat="42.5078845024" lon="-0.6655306555">
        <ele>1211.40</ele>
        <time>2022-04-15T16:57:00Z</time>
      </trkpt>
      <trkpt lat="42.5078829098" lon="-0.6655318290">
        <ele>1207.55</ele>
        <time>2022-04-15T16:57:01Z</time>
      </trkpt>
      <trkpt lat="42.5078834128" lon="-0.6655330863">
        <ele>1204.19</ele>
        <time>2022-04-15T16:57:02Z</time>
      </trkpt>
      <trkpt lat="42.5078848377" lon="-0.6655344274">
        <ele>1215.72</ele>
        <time>2022-04-15T16:57:03Z</time>
      </trkpt>
      <trkpt lat="42.5078852568" lon="-0.6655345112">
        <ele>1212.84</ele>
        <time>2022-04-15T16:57:04Z</time>
      </trkpt>
      <trkpt lat="42.5078862626" lon="-0.6655337568">
        <ele>1209.48</ele>
        <time>2022-04-15T16:57:06Z</time>
      </trkpt>
      <trkpt lat="42.5078871846" lon="-0.6655330025">
        <ele>1209.48</ele>
        <time>2022-04-15T16:57:07Z</time>
      </trkpt>
      <trkpt lat="42.5078860950" lon="-0.6655333377">
        <ele>1203.23</ele>
        <time>2022-04-15T16:57:08Z</time>
      </trkpt>
      <trkpt lat="42.5078842510" lon="-0.6655341759">
        <ele>1209.96</ele>
        <time>2022-04-15T16:57:09Z</time>
      </trkpt>
      <trkpt lat="42.5078766234" lon="-0.6655295659">
        <ele>1209.48</ele>
        <time>2022-04-15T16:57:13Z</time>
      </trkpt>
      <trkpt lat="42.5078753661" lon="-0.6655298173">
        <ele>1212.84</ele>
        <time>2022-04-15T16:57:15Z</time>
      </trkpt>
      <trkpt lat="42.5078837480" lon="-0.6655399594">
        <ele>1206.11</ele>
        <time>2022-04-15T16:57:20Z</time>
      </trkpt>
      <trkpt lat="42.5078901183" lon="-0.6655446533">
        <ele>1198.90</ele>
        <time>2022-04-15T16:57:21Z</time>
      </trkpt>
      <trkpt lat="42.5078957342" lon="-0.6655461621">
        <ele>1215.24</ele>
        <time>2022-04-15T16:57:22Z</time>
      </trkpt>
      <trkpt lat="42.5078977458" lon="-0.6655543763">
        <ele>1215.24</ele>
        <time>2022-04-15T16:57:23Z</time>
      </trkpt>
      <trkpt lat="42.5078975782" lon="-0.6655563880">
        <ele>1211.88</ele>
        <time>2022-04-15T16:57:24Z</time>
      </trkpt>
      <trkpt lat="42.5078955665" lon="-0.6655573100">
        <ele>1211.88</ele>
        <time>2022-04-15T16:57:25Z</time>
      </trkpt>
      <trkpt lat="42.5078944769" lon="-0.6655594055">
        <ele>1210.44</ele>
        <time>2022-04-15T16:57:27Z</time>
      </trkpt>
      <trkpt lat="42.5078887772" lon="-0.6655454077">
        <ele>1209.96</ele>
        <time>2022-04-15T16:57:46Z</time>
      </trkpt>
      <trkpt lat="42.5078946445" lon="-0.6655523647">
        <ele>1209.48</ele>
        <time>2022-04-15T16:57:57Z</time>
      </trkpt>
      <trkpt lat="42.5078715943" lon="-0.6655173283">
        <ele>1210.44</ele>
        <time>2022-04-15T16:58:18Z</time>
      </trkpt>
      <trkpt lat="42.5078905374" lon="-0.6655518617">
        <ele>1209.96</ele>
        <time>2022-04-15T16:58:45Z</time>
      </trkpt>
      <trkpt lat="42.5078941416" lon="-0.6655233633">
        <ele>1203.71</ele>
        <time>2022-04-15T16:58:57Z</time>
      </trkpt>
      <trkpt lat="42.5078938063" lon="-0.6655189209">
        <ele>1209.00</ele>
        <time>2022-04-15T16:58:58Z</time>
      </trkpt>
      <trkpt lat="42.5078924652" lon="-0.6655171607">
        <ele>1209.96</ele>
        <time>2022-04-15T16:59:00Z</time>
      </trkpt>
      <trkpt lat="42.5078868493" lon="-0.6654711440">
        <ele>1214.28</ele>
        <time>2022-04-15T16:59:31Z</time>
      </trkpt>
      <trkpt lat="42.5078870170" lon="-0.6654786877">
        <ele>1209.48</ele>
        <time>2022-04-15T16:59:33Z</time>
      </trkpt>
      <trkpt lat="42.5078877714" lon="-0.6654806994">
        <ele>1209.48</ele>
        <time>2022-04-15T16:59:34Z</time>
      </trkpt>
      <trkpt lat="42.5078850891" lon="-0.6654781010">
        <ele>1210.44</ele>
        <time>2022-04-15T16:59:40Z</time>
      </trkpt>
      <trkpt lat="42.5078803953" lon="-0.6655212678">
        <ele>1209.00</ele>
        <time>2022-04-15T16:59:55Z</time>
      </trkpt>
      <trkpt lat="42.5078852568" lon="-0.6655247044">
        <ele>1205.63</ele>
        <time>2022-04-15T16:59:56Z</time>
      </trkpt>
      <trkpt lat="42.5078995898" lon="-0.6655424740">
        <ele>1214.28</ele>
        <time>2022-04-15T16:59:58Z</time>
      </trkpt>
      <trkpt lat="42.5079056248" lon="-0.6655460782">
        <ele>1209.96</ele>
        <time>2022-04-15T16:59:59Z</time>
      </trkpt>
      <trkpt lat="42.5079057924" lon="-0.6655507721">
        <ele>1208.51</ele>
        <time>2022-04-15T17:00:02Z</time>
      </trkpt>
      <trkpt lat="42.5079041999" lon="-0.6655454915">
        <ele>1212.36</ele>
        <time>2022-04-15T17:00:04Z</time>
      </trkpt>
      <trkpt lat="42.5079032779" lon="-0.6655420549">
        <ele>1210.44</ele>
        <time>2022-04-15T17:00:05Z</time>
      </trkpt>
      <trkpt lat="42.5078927167" lon="-0.6655193400">
        <ele>1211.40</ele>
        <time>2022-04-15T17:00:14Z</time>
      </trkpt>
      <trkpt lat="42.5078825746" lon="-0.6655024085">
        <ele>1210.92</ele>
        <time>2022-04-15T17:00:18Z</time>
      </trkpt>
      <trkpt lat="42.5079307705" lon="-0.6655266322">
        <ele>1209.48</ele>
        <time>2022-04-15T17:00:29Z</time>
      </trkpt>
      <trkpt lat="42.5079747755" lon="-0.6655680388">
        <ele>1211.40</ele>
        <time>2022-04-15T17:00:35Z</time>
      </trkpt>
      <trkpt lat="42.5080078002" lon="-0.6656574737">
        <ele>1205.63</ele>
        <time>2022-04-15T17:00:47Z</time>
      </trkpt>
      <trkpt lat="42.5080077164" lon="-0.6656599045">
        <ele>1210.44</ele>
        <time>2022-04-15T17:00:48Z</time>
      </trkpt>
      <trkpt lat="42.5080088899" lon="-0.6656641793">
        <ele>1213.80</ele>
        <time>2022-04-15T17:00:49Z</time>
      </trkpt>
      <trkpt lat="42.5080075487" lon="-0.6656712200">
        <ele>1211.40</ele>
        <time>2022-04-15T17:00:50Z</time>
      </trkpt>
      <trkpt lat="42.5080275815" lon="-0.6657144707">
        <ele>1209.96</ele>
        <time>2022-04-15T17:01:07Z</time>
      </trkpt>
      <trkpt lat="42.5080072973" lon="-0.6657144707">
        <ele>1211.40</ele>
        <time>2022-04-15T17:01:13Z</time>
      </trkpt>
      <trkpt lat="42.5079328660" lon="-0.6655940227">
        <ele>1210.44</ele>
        <time>2022-04-15T17:01:30Z</time>
      </trkpt>
      <trkpt lat="42.5079099834" lon="-0.6655761693">
        <ele>1206.11</ele>
        <time>2022-04-15T17:01:35Z</time>
      </trkpt>
      <trkpt lat="42.5079053733" lon="-0.6655740738">
        <ele>1214.76</ele>
        <time>2022-04-15T17:01:36Z</time>
      </trkpt>
      <trkpt lat="42.5079032779" lon="-0.6655713078">
        <ele>1214.76</ele>
        <time>2022-04-15T17:01:37Z</time>
      </trkpt>
      <trkpt lat="42.5079069659" lon="-0.6655651890">
        <ele>1211.40</ele>
        <time>2022-04-15T17:01:38Z</time>
      </trkpt>
      <trkpt lat="42.5079079717" lon="-0.6655637641">
        <ele>1211.40</ele>
        <time>2022-04-15T17:01:39Z</time>
      </trkpt>
      <trkpt lat="42.5079031941" lon="-0.6655501854">
        <ele>1211.88</ele>
        <time>2022-04-15T17:01:43Z</time>
      </trkpt>
      <trkpt lat="42.5078993384" lon="-0.6655465811">
        <ele>1210.44</ele>
        <time>2022-04-15T17:01:59Z</time>
      </trkpt>
      <trkpt lat="42.5079086423" lon="-0.6655831262">
        <ele>1210.44</ele>
        <time>2022-04-15T17:02:21Z</time>
      </trkpt>
      <trkpt lat="42.5079258252" lon="-0.6657352578">
        <ele>1211.88</ele>
        <time>2022-04-15T17:02:35Z</time>
      </trkpt>
      <trkpt lat="42.5079322793" lon="-0.6657008082">
        <ele>1211.88</ele>
        <time>2022-04-15T17:02:54Z</time>
      </trkpt>
      <trkpt lat="42.5079278369" lon="-0.6656841282">
        <ele>1211.88</ele>
        <time>2022-04-15T17:02:56Z</time>
      </trkpt>
      <trkpt lat="42.5079061277" lon="-0.6655439828">
        <ele>1211.88</ele>
        <time>2022-04-15T17:03:09Z</time>
      </trkpt>
      <trkpt lat="42.5078989193" lon="-0.6655344274">
        <ele>1211.88</ele>
        <time>2022-04-15T17:03:26Z</time>
      </trkpt>
      <trkpt lat="42.5078697503" lon="-0.6655257102">
        <ele>1211.88</ele>
        <time>2022-04-15T17:03:34Z</time>
      </trkpt>
      <trkpt lat="42.5078653917" lon="-0.6654996425">
        <ele>1210.44</ele>
        <time>2022-04-15T17:03:45Z</time>
      </trkpt>
      <trkpt lat="42.5078647211" lon="-0.6655197591">
        <ele>1211.88</ele>
        <time>2022-04-15T17:03:47Z</time>
      </trkpt>
      <trkpt lat="42.5078736898" lon="-0.6655353494">
        <ele>1208.51</ele>
        <time>2022-04-15T17:03:50Z</time>
      </trkpt>
      <trkpt lat="42.5078694150" lon="-0.6655335892">
        <ele>1212.84</ele>
        <time>2022-04-15T17:03:51Z</time>
      </trkpt>
      <trkpt lat="42.5078757852" lon="-0.6655442342">
        <ele>1212.84</ele>
        <time>2022-04-15T17:03:52Z</time>
      </trkpt>
      <trkpt lat="42.5078798085" lon="-0.6655380316">
        <ele>1210.92</ele>
        <time>2022-04-15T17:03:55Z</time>
      </trkpt>
      <trkpt lat="42.5078496337" lon="-0.6655169092">
        <ele>1210.92</ele>
        <time>2022-04-15T17:04:11Z</time>
      </trkpt>
      <trkpt lat="42.5077440217" lon="-0.6654975470">
        <ele>1210.44</ele>
        <time>2022-04-15T17:04:27Z</time>
      </trkpt>
      <trkpt lat="42.5076076481" lon="-0.6655040849">
        <ele>1209.96</ele>
        <time>2022-04-15T17:04:42Z</time>
      </trkpt>
      <trkpt lat="42.5075079873" lon="-0.6655893289">
        <ele>1209.48</ele>
        <time>2022-04-15T17:04:56Z</time>
      </trkpt>
      <trkpt lat="42.5074995216" lon="-0.6655879878">
        <ele>1209.00</ele>
        <time>2022-04-15T17:04:57Z</time>
      </trkpt>
      <trkpt lat="42.5074529182" lon="-0.6656324957">
        <ele>1208.51</ele>
        <time>2022-04-15T17:05:09Z</time>
      </trkpt>
      <trkpt lat="42.5073474739" lon="-0.6656542886">
        <ele>1208.03</ele>
        <time>2022-04-15T17:05:21Z</time>
      </trkpt>
      <trkpt lat="42.5073012896" lon="-0.6657136325">
        <ele>1208.03</ele>
        <time>2022-04-15T17:05:29Z</time>
      </trkpt>
      <trkpt lat="42.5072504953" lon="-0.6657956075">
        <ele>1207.55</ele>
        <time>2022-04-15T17:05:37Z</time>
      </trkpt>
      <trkpt lat="42.5072349049" lon="-0.6658079289">
        <ele>1207.55</ele>
        <time>2022-04-15T17:05:39Z</time>
      </trkpt>
      <trkpt lat="42.5070966873" lon="-0.6659430452">
        <ele>1207.07</ele>
        <time>2022-04-15T17:05:55Z</time>
      </trkpt>
      <trkpt lat="42.5070223399" lon="-0.6660061609">
        <ele>1206.59</ele>
        <time>2022-04-15T17:06:05Z</time>
      </trkpt>
      <trkpt lat="42.5069319829" lon="-0.6660629902">
        <ele>1206.11</ele>
        <time>2022-04-15T17:06:17Z</time>
      </trkpt>
      <trkpt lat="42.5069486629" lon="-0.6660627387">
        <ele>1202.75</ele>
        <time>2022-04-15T17:06:29Z</time>
      </trkpt>
      <trkpt lat="42.5069494173" lon="-0.6660614815">
        <ele>1208.51</ele>
        <time>2022-04-15T17:06:30Z</time>
      </trkpt>
      <trkpt lat="42.5069497526" lon="-0.6660562009">
        <ele>1208.51</ele>
        <time>2022-04-15T17:06:31Z</time>
      </trkpt>
      <trkpt lat="42.5069474895" lon="-0.6660510879">
        <ele>1206.11</ele>
        <time>2022-04-15T17:06:33Z</time>
      </trkpt>
      <trkpt lat="42.5069426280" lon="-0.6660117768">
        <ele>1206.11</ele>
        <time>2022-04-15T17:06:47Z</time>
      </trkpt>
      <trkpt lat="42.5069452263" lon="-0.6660375930">
        <ele>1204.19</ele>
        <time>2022-04-15T17:07:01Z</time>
      </trkpt>
      <trkpt lat="42.5069459807" lon="-0.6660468969">
        <ele>1204.67</ele>
        <time>2022-04-15T17:07:09Z</time>
      </trkpt>
      <trkpt lat="42.5069462322" lon="-0.6660456397">
        <ele>1206.59</ele>
        <time>2022-04-15T17:07:11Z</time>
      </trkpt>
      <trkpt lat="42.5069681928" lon="-0.6660380960">
        <ele>1205.63</ele>
        <time>2022-04-15T17:07:25Z</time>
      </trkpt>
      <trkpt lat="42.5069710426" lon="-0.6660795864">
        <ele>1207.07</ele>
        <time>2022-04-15T17:07:42Z</time>
      </trkpt>
      <trkpt lat="42.5069637503" lon="-0.6660440471">
        <ele>1207.07</ele>
        <time>2022-04-15T17:08:06Z</time>
      </trkpt>
      <trkpt lat="42.5069464836" lon="-0.6660817657">
        <ele>1205.63</ele>
        <time>2022-04-15T17:08:24Z</time>
      </trkpt>
      <trkpt lat="42.5069489144" lon="-0.6660641637">
        <ele>1207.07</ele>
        <time>2022-04-15T17:08:48Z</time>
      </trkpt>
      <trkpt lat="42.5069536082" lon="-0.6660644151">
        <ele>1207.07</ele>
        <time>2022-04-15T17:09:28Z</time>
      </trkpt>
      <trkpt lat="42.5069249421" lon="-0.6660913210">
        <ele>1207.07</ele>
        <time>2022-04-15T17:09:48Z</time>
      </trkpt>
      <trkpt lat="42.5069304742" lon="-0.6660758983">
        <ele>1207.07</ele>
        <time>2022-04-15T17:09:52Z</time>
      </trkpt>
      <trkpt lat="42.5069324858" lon="-0.6660709530">
        <ele>1205.63</ele>
        <time>2022-04-15T17:09:54Z</time>
      </trkpt>
      <trkpt lat="42.5069358386" lon="-0.6660743896">
        <ele>1207.55</ele>
        <time>2022-04-15T17:09:58Z</time>
      </trkpt>
      <trkpt lat="42.5069236849" lon="-0.6660696119">
        <ele>1207.07</ele>
        <time>2022-04-15T17:10:29Z</time>
      </trkpt>
      <trkpt lat="42.5069225952" lon="-0.6660707854">
        <ele>1206.59</ele>
        <time>2022-04-15T17:10:35Z</time>
      </trkpt>
      <trkpt lat="42.5069388561" lon="-0.6660735514">
        <ele>1206.59</ele>
        <time>2022-04-15T17:10:53Z</time>
      </trkpt>
      <trkpt lat="42.5069303904" lon="-0.6660740543">
        <ele>1207.55</ele>
        <time>2022-04-15T17:11:25Z</time>
      </trkpt>
      <trkpt lat="42.5069343299" lon="-0.6660696119">
        <ele>1204.67</ele>
        <time>2022-04-15T17:11:26Z</time>
      </trkpt>
      <trkpt lat="42.5069392752" lon="-0.6660538539">
        <ele>1197.94</ele>
        <time>2022-04-15T17:11:28Z</time>
      </trkpt>
      <trkpt lat="42.5069420412" lon="-0.6660521775">
        <ele>1215.24</ele>
        <time>2022-04-15T17:11:29Z</time>
      </trkpt>
      <trkpt lat="42.5069455616" lon="-0.6660546921">
        <ele>1211.88</ele>
        <time>2022-04-15T17:11:30Z</time>
      </trkpt>
      <trkpt lat="42.5069489144" lon="-0.6660567876">
        <ele>1208.03</ele>
        <time>2022-04-15T17:11:31Z</time>
      </trkpt>
      <trkpt lat="42.5069545303" lon="-0.6660561170">
        <ele>1196.02</ele>
        <time>2022-04-15T17:11:33Z</time>
      </trkpt>
      <trkpt lat="42.5069557037" lon="-0.6660562009">
        <ele>1209.96</ele>
        <time>2022-04-15T17:11:34Z</time>
      </trkpt>
      <trkpt lat="42.5069556199" lon="-0.6660586316">
        <ele>1209.96</ele>
        <time>2022-04-15T17:11:35Z</time>
      </trkpt>
      <trkpt lat="42.5069594756" lon="-0.6660617329">
        <ele>1201.79</ele>
        <time>2022-04-15T17:11:37Z</time>
      </trkpt>
      <trkpt lat="42.5069627445" lon="-0.6660626549">
        <ele>1209.96</ele>
        <time>2022-04-15T17:11:38Z</time>
      </trkpt>
      <trkpt lat="42.5069633313" lon="-0.6660639122">
        <ele>1209.96</ele>
        <time>2022-04-15T17:11:39Z</time>
      </trkpt>
      <trkpt lat="42.5069617387" lon="-0.6660632417">
        <ele>1207.07</ele>
        <time>2022-04-15T17:11:40Z</time>
      </trkpt>
      <trkpt lat="42.5069607329" lon="-0.6660655886">
        <ele>1207.07</ele>
        <time>2022-04-15T17:11:41Z</time>
      </trkpt>
      <trkpt lat="42.5069624931" lon="-0.6660698634">
        <ele>1203.71</ele>
        <time>2022-04-15T17:11:42Z</time>
      </trkpt>
      <trkpt lat="42.5069619901" lon="-0.6660682708">
        <ele>1200.34</ele>
        <time>2022-04-15T17:11:43Z</time>
      </trkpt>
      <trkpt lat="42.5069640856" lon="-0.6660639122">
        <ele>1211.40</ele>
        <time>2022-04-15T17:11:44Z</time>
      </trkpt>
      <trkpt lat="42.5069640856" lon="-0.6660596374">
        <ele>1209.48</ele>
        <time>2022-04-15T17:11:45Z</time>
      </trkpt>
      <trkpt lat="42.5069652591" lon="-0.6660583802">
        <ele>1206.59</ele>
        <time>2022-04-15T17:11:46Z</time>
      </trkpt>
      <trkpt lat="42.5069673546" lon="-0.6660614815">
        <ele>1195.54</ele>
        <time>2022-04-15T17:11:56Z</time>
      </trkpt>
      <trkpt lat="42.5069660973" lon="-0.6660634931">
        <ele>1210.44</ele>
        <time>2022-04-15T17:11:57Z</time>
      </trkpt>
      <trkpt lat="42.5069670193" lon="-0.6660665944">
        <ele>1208.03</ele>
        <time>2022-04-15T17:11:58Z</time>
      </trkpt>
      <trkpt lat="42.5069695339" lon="-0.6660728808">
        <ele>1206.59</ele>
        <time>2022-04-15T17:12:00Z</time>
      </trkpt>
      <trkpt lat="42.5069955178" lon="-0.6661212444">
        <ele>1200.82</ele>
        <time>2022-04-15T17:12:11Z</time>
      </trkpt>
      <trkpt lat="42.5069945119" lon="-0.6661184784">
        <ele>1212.84</ele>
        <time>2022-04-15T17:12:12Z</time>
      </trkpt>
      <trkpt lat="42.5069851242" lon="-0.6661079172">
        <ele>1206.11</ele>
        <time>2022-04-15T17:12:13Z</time>
      </trkpt>
      <trkpt lat="42.5069785863" lon="-0.6660991162">
        <ele>1203.23</ele>
        <time>2022-04-15T17:12:14Z</time>
      </trkpt>
      <trkpt lat="42.5069707911" lon="-0.6660903990">
        <ele>1210.44</ele>
        <time>2022-04-15T17:12:15Z</time>
      </trkpt>
      <trkpt lat="42.5069653429" lon="-0.6660854537">
        <ele>1208.51</ele>
        <time>2022-04-15T17:12:16Z</time>
      </trkpt>
      <trkpt lat="42.5069618225" lon="-0.6660805084">
        <ele>1204.19</ele>
        <time>2022-04-15T17:12:17Z</time>
      </trkpt>
      <trkpt lat="42.5069612358" lon="-0.6660767365">
        <ele>1205.15</ele>
        <time>2022-04-15T17:12:18Z</time>
      </trkpt>
      <trkpt lat="42.5069605652" lon="-0.6660742220">
        <ele>1201.30</ele>
        <time>2022-04-15T17:12:19Z</time>
      </trkpt>
      <trkpt lat="42.5069605652" lon="-0.6660741381">
        <ele>1194.58</ele>
        <time>2022-04-15T17:12:20Z</time>
      </trkpt>
      <trkpt lat="42.5069587212" lon="-0.6660733838">
        <ele>1218.61</ele>
        <time>2022-04-15T17:12:21Z</time>
      </trkpt>
      <trkpt lat="42.5069575477" lon="-0.6660678517">
        <ele>1215.72</ele>
        <time>2022-04-15T17:12:22Z</time>
      </trkpt>
      <trkpt lat="42.5069557875" lon="-0.6660712045">
        <ele>1201.79</ele>
        <time>2022-04-15T17:12:23Z</time>
      </trkpt>
      <trkpt lat="42.5069525186" lon="-0.6660681032">
        <ele>1205.15</ele>
        <time>2022-04-15T17:12:24Z</time>
      </trkpt>
      <trkpt lat="42.5069506746" lon="-0.6660695281">
        <ele>1209.96</ele>
        <time>2022-04-15T17:12:25Z</time>
      </trkpt>
      <trkpt lat="42.5069471542" lon="-0.6660729647">
        <ele>1206.59</ele>
        <time>2022-04-15T17:12:26Z</time>
      </trkpt>
      <trkpt lat="42.5069289654" lon="-0.6660857890">
        <ele>1216.69</ele>
        <time>2022-04-15T17:12:34Z</time>
      </trkpt>
      <trkpt lat="42.5069326535" lon="-0.6660826877">
        <ele>1213.32</ele>
        <time>2022-04-15T17:12:35Z</time>
      </trkpt>
      <trkpt lat="42.5069328211" lon="-0.6660815980">
        <ele>1208.03</ele>
        <time>2022-04-15T17:12:36Z</time>
      </trkpt>
      <trkpt lat="42.5069282949" lon="-0.6660805084">
        <ele>1206.59</ele>
        <time>2022-04-15T17:12:38Z</time>
      </trkpt>
      <trkpt lat="42.5069190748" lon="-0.6660821848">
        <ele>1198.42</ele>
        <time>2022-04-15T17:12:41Z</time>
      </trkpt>
      <trkpt lat="42.5069194939" lon="-0.6660822686">
        <ele>1209.00</ele>
        <time>2022-04-15T17:12:42Z</time>
      </trkpt>
      <trkpt lat="42.5069242716" lon="-0.6660867948">
        <ele>1207.07</ele>
        <time>2022-04-15T17:12:43Z</time>
      </trkpt>
      <trkpt lat="42.5069990382" lon="-0.6661633216">
        <ele>1207.55</ele>
        <time>2022-04-15T17:12:49Z</time>
      </trkpt>
      <trkpt lat="42.5070424564" lon="-0.6663224939">
        <ele>1206.11</ele>
        <time>2022-04-15T17:13:02Z</time>
      </trkpt>
      <trkpt lat="42.5070448034" lon="-0.6663376652">
        <ele>1207.55</ele>
        <time>2022-04-15T17:13:04Z</time>
      </trkpt>
      <trkpt lat="42.5070506707" lon="-0.6664581131">
        <ele>1207.07</ele>
        <time>2022-04-15T17:13:17Z</time>
      </trkpt>
      <trkpt lat="42.5070266146" lon="-0.6666362286">
        <ele>1205.63</ele>
        <time>2022-04-15T17:13:32Z</time>
      </trkpt>
      <trkpt lat="42.5069769938" lon="-0.6668177806">
        <ele>1207.55</ele>
        <time>2022-04-15T17:13:46Z</time>
      </trkpt>
      <trkpt lat="42.5069748145" lon="-0.6669038627">
        <ele>1207.07</ele>
        <time>2022-04-15T17:14:00Z</time>
      </trkpt>
      <trkpt lat="42.5069748983" lon="-0.6669366360">
        <ele>1209.00</ele>
        <time>2022-04-15T17:14:13Z</time>
      </trkpt>
      <trkpt lat="42.5069757365" lon="-0.6669513881">
        <ele>1209.48</ele>
        <time>2022-04-15T17:14:28Z</time>
      </trkpt>
      <trkpt lat="42.5069709588" lon="-0.6669315230">
        <ele>1206.11</ele>
        <time>2022-04-15T17:14:30Z</time>
      </trkpt>
      <trkpt lat="42.5069667678" lon="-0.6669221353">
        <ele>1207.55</ele>
        <time>2022-04-15T17:14:31Z</time>
      </trkpt>
      <trkpt lat="42.5069830287" lon="-0.6668509729">
        <ele>1206.11</ele>
        <time>2022-04-15T17:14:35Z</time>
      </trkpt>
      <trkpt lat="42.5070132874" lon="-0.6666445266">
        <ele>1205.15</ele>
        <time>2022-04-15T17:14:51Z</time>
      </trkpt>
      <trkpt lat="42.5070823543" lon="-0.6664879527">
        <ele>1200.82</ele>
        <time>2022-04-15T17:15:03Z</time>
      </trkpt>
      <trkpt lat="42.5070857070" lon="-0.6664825045">
        <ele>1200.82</ele>
        <time>2022-04-15T17:15:04Z</time>
      </trkpt>
      <trkpt lat="42.5070891436" lon="-0.6664815824">
        <ele>1210.44</ele>
        <time>2022-04-15T17:15:05Z</time>
      </trkpt>
      <trkpt lat="42.5070921611" lon="-0.6664783135">
        <ele>1205.15</ele>
        <time>2022-04-15T17:15:06Z</time>
      </trkpt>
      <trkpt lat="42.5070944242" lon="-0.6664693449">
        <ele>1212.36</ele>
        <time>2022-04-15T17:15:07Z</time>
      </trkpt>
      <trkpt lat="42.5070907362" lon="-0.6664333027">
        <ele>1207.07</ele>
        <time>2022-04-15T17:15:10Z</time>
      </trkpt>
      <trkpt lat="42.5070864614" lon="-0.6664190535">
        <ele>1207.07</ele>
        <time>2022-04-15T17:15:11Z</time>
      </trkpt>
      <trkpt lat="42.5070802588" lon="-0.6663566083">
        <ele>1203.23</ele>
        <time>2022-04-15T17:15:24Z</time>
      </trkpt>
      <trkpt lat="42.5070817675" lon="-0.6663638167">
        <ele>1209.48</ele>
        <time>2022-04-15T17:15:25Z</time>
      </trkpt>
      <trkpt lat="42.5070825219" lon="-0.6663699355">
        <ele>1201.79</ele>
        <time>2022-04-15T17:15:26Z</time>
      </trkpt>
      <trkpt lat="42.5070825219" lon="-0.6663747970">
        <ele>1205.15</ele>
        <time>2022-04-15T17:15:27Z</time>
      </trkpt>
      <trkpt lat="42.5070828572" lon="-0.6663786527">
        <ele>1210.92</ele>
        <time>2022-04-15T17:15:29Z</time>
      </trkpt>
      <trkpt lat="42.5070804264" lon="-0.6663778145">
        <ele>1206.59</ele>
        <time>2022-04-15T17:15:31Z</time>
      </trkpt>
      <trkpt lat="42.5070779119" lon="-0.6663791556">
        <ele>1206.59</ele>
        <time>2022-04-15T17:15:32Z</time>
      </trkpt>
      <trkpt lat="42.5070800073" lon="-0.6664033793">
        <ele>1205.15</ele>
        <time>2022-04-15T17:15:36Z</time>
      </trkpt>
      <trkpt lat="42.5070731342" lon="-0.6664162874">
        <ele>1209.00</ele>
        <time>2022-04-15T17:15:55Z</time>
      </trkpt>
      <trkpt lat="42.5070720445" lon="-0.6664135214">
        <ele>1206.11</ele>
        <time>2022-04-15T17:15:57Z</time>
      </trkpt>
      <trkpt lat="42.5070728827" lon="-0.6664047204">
        <ele>1209.00</ele>
        <time>2022-04-15T17:15:59Z</time>
      </trkpt>
      <trkpt lat="42.5071156304" lon="-0.6663698517">
        <ele>1206.11</ele>
        <time>2022-04-15T17:16:10Z</time>
      </trkpt>
      <trkpt lat="42.5072188955" lon="-0.6663372461">
        <ele>1206.11</ele>
        <time>2022-04-15T17:16:36Z</time>
      </trkpt>
      <trkpt lat="42.5070795882" lon="-0.6664214004">
        <ele>1206.11</ele>
        <time>2022-04-15T17:17:02Z</time>
      </trkpt>
      <trkpt lat="42.5070912391" lon="-0.6663919799">
        <ele>1198.90</ele>
        <time>2022-04-15T17:17:10Z</time>
      </trkpt>
      <trkpt lat="42.5070886407" lon="-0.6663890462">
        <ele>1210.44</ele>
        <time>2022-04-15T17:17:11Z</time>
      </trkpt>
      <trkpt lat="42.5070895627" lon="-0.6663912255">
        <ele>1208.51</ele>
        <time>2022-04-15T17:17:12Z</time>
      </trkpt>
      <trkpt lat="42.5070953462" lon="-0.6663985178">
        <ele>1205.15</ele>
        <time>2022-04-15T17:17:14Z</time>
      </trkpt>
      <trkpt lat="42.5070992019" lon="-0.6663959194">
        <ele>1207.55</ele>
        <time>2022-04-15T17:17:16Z</time>
      </trkpt>
      <trkpt lat="42.5071199052" lon="-0.6663935725">
        <ele>1206.11</ele>
        <time>2022-04-15T17:17:21Z</time>
      </trkpt>
      <trkpt lat="42.5071710348" lon="-0.6663903035">
        <ele>1205.63</ele>
        <time>2022-04-15T17:17:27Z</time>
      </trkpt>
      <trkpt lat="42.5072173867" lon="-0.6663912255">
        <ele>1199.86</ele>
        <time>2022-04-15T17:17:31Z</time>
      </trkpt>
      <trkpt lat="42.5072261039" lon="-0.6663936563">
        <ele>1207.55</ele>
        <time>2022-04-15T17:17:32Z</time>
      </trkpt>
      <trkpt lat="42.5072514173" lon="-0.6664006133">
        <ele>1212.36</ele>
        <time>2022-04-15T17:17:34Z</time>
      </trkpt>
      <trkpt lat="42.5072546862" lon="-0.6664038822">
        <ele>1208.03</ele>
        <time>2022-04-15T17:17:35Z</time>
      </trkpt>
      <trkpt lat="42.5072737969" lon="-0.6664678361">
        <ele>1208.03</ele>
        <time>2022-04-15T17:17:45Z</time>
      </trkpt>
      <trkpt lat="42.5072388444" lon="-0.6664923113">
        <ele>1206.59</ele>
        <time>2022-04-15T17:17:49Z</time>
      </trkpt>
      <trkpt lat="42.5071608927" lon="-0.6664963346">
        <ele>1205.63</ele>
        <time>2022-04-15T17:17:57Z</time>
      </trkpt>
      <trkpt lat="42.5071309693" lon="-0.6664964184">
        <ele>1206.59</ele>
        <time>2022-04-15T17:18:00Z</time>
      </trkpt>
      <trkpt lat="42.5071080029" lon="-0.6664920598">
        <ele>1206.59</ele>
        <time>2022-04-15T17:18:02Z</time>
      </trkpt>
      <trkpt lat="42.5070539396" lon="-0.6664762180">
        <ele>1206.59</ele>
        <time>2022-04-15T17:18:06Z</time>
      </trkpt>
      <trkpt lat="42.5070074201" lon="-0.6663755514">
        <ele>1205.63</ele>
        <time>2022-04-15T17:18:14Z</time>
      </trkpt>
      <trkpt lat="42.5070217531" lon="-0.6663457956">
        <ele>1197.94</ele>
        <time>2022-04-15T17:18:20Z</time>
      </trkpt>
      <trkpt lat="42.5070208311" lon="-0.6663478911">
        <ele>1203.71</ele>
        <time>2022-04-15T17:18:21Z</time>
      </trkpt>
      <trkpt lat="42.5070209149" lon="-0.6663526688">
        <ele>1215.24</ele>
        <time>2022-04-15T17:18:22Z</time>
      </trkpt>
      <trkpt lat="42.5070193224" lon="-0.6663552672">
        <ele>1208.03</ele>
        <time>2022-04-15T17:18:23Z</time>
      </trkpt>
      <trkpt lat="42.5070167240" lon="-0.6663563568">
        <ele>1202.27</ele>
        <time>2022-04-15T17:18:24Z</time>
      </trkpt>
      <trkpt lat="42.5070129521" lon="-0.6663566921">
        <ele>1207.07</ele>
        <time>2022-04-15T17:18:25Z</time>
      </trkpt>
      <trkpt lat="42.5070061628" lon="-0.6663433649">
        <ele>1205.63</ele>
        <time>2022-04-15T17:18:29Z</time>
      </trkpt>
      <trkpt lat="42.5069849566" lon="-0.6662867032">
        <ele>1206.59</ele>
        <time>2022-04-15T17:18:38Z</time>
      </trkpt>
      <trkpt lat="42.5069858786" lon="-0.6662839372">
        <ele>1207.55</ele>
        <time>2022-04-15T17:18:40Z</time>
      </trkpt>
      <trkpt lat="42.5069832802" lon="-0.6662855297">
        <ele>1206.11</ele>
        <time>2022-04-15T17:18:42Z</time>
      </trkpt>
      <trkpt lat="42.5069885608" lon="-0.6662577856">
        <ele>1205.63</ele>
        <time>2022-04-15T17:18:46Z</time>
      </trkpt>
      <trkpt lat="42.5070219208" lon="-0.6661349908">
        <ele>1205.63</ele>
        <time>2022-04-15T17:19:00Z</time>
      </trkpt>
      <trkpt lat="42.5070264470" lon="-0.6661333144">
        <ele>1186.88</ele>
        <time>2022-04-15T17:19:02Z</time>
      </trkpt>
      <trkpt lat="42.5070267823" lon="-0.6661351584">
        <ele>1215.24</ele>
        <time>2022-04-15T17:19:03Z</time>
      </trkpt>
      <trkpt lat="42.5070277043" lon="-0.6661382597">
        <ele>1206.59</ele>
        <time>2022-04-15T17:19:04Z</time>
      </trkpt>
      <trkpt lat="42.5070339907" lon="-0.6661419477">
        <ele>1213.80</ele>
        <time>2022-04-15T17:19:05Z</time>
      </trkpt>
      <trkpt lat="42.5070385169" lon="-0.6661410257">
        <ele>1209.00</ele>
        <time>2022-04-15T17:19:06Z</time>
      </trkpt>
      <trkpt lat="42.5070508383" lon="-0.6661346555">
        <ele>1206.59</ele>
        <time>2022-04-15T17:19:09Z</time>
      </trkpt>
      <trkpt lat="42.5070154667" lon="-0.6661233399">
        <ele>1197.94</ele>
        <time>2022-04-15T17:19:19Z</time>
      </trkpt>
      <trkpt lat="42.5070141256" lon="-0.6661268603">
        <ele>1209.48</ele>
        <time>2022-04-15T17:19:20Z</time>
      </trkpt>
      <trkpt lat="42.5070110243" lon="-0.6661248486">
        <ele>1204.67</ele>
        <time>2022-04-15T17:19:21Z</time>
      </trkpt>
      <trkpt lat="42.5070087612" lon="-0.6661205739">
        <ele>1210.92</ele>
        <time>2022-04-15T17:19:23Z</time>
      </trkpt>
      <trkpt lat="42.5070031453" lon="-0.6661251001">
        <ele>1208.51</ele>
        <time>2022-04-15T17:19:24Z</time>
      </trkpt>
      <trkpt lat="42.5069863815" lon="-0.6661557779">
        <ele>1206.11</ele>
        <time>2022-04-15T17:19:27Z</time>
      </trkpt>
      <trkpt lat="42.5069836993" lon="-0.6661780737">
        <ele>1206.11</ele>
        <time>2022-04-15T17:19:29Z</time>
      </trkpt>
      <trkpt lat="42.5069671031" lon="-0.6662496552">
        <ele>1206.11</ele>
        <time>2022-04-15T17:19:34Z</time>
      </trkpt>
      <trkpt lat="42.5069117825" lon="-0.6663610507">
        <ele>1205.63</ele>
        <time>2022-04-15T17:19:48Z</time>
      </trkpt>
      <trkpt lat="42.5068695378" lon="-0.6663727853">
        <ele>1205.63</ele>
        <time>2022-04-15T17:20:08Z</time>
      </trkpt>
      <trkpt lat="42.5068174861" lon="-0.6664449535">
        <ele>1205.63</ele>
        <time>2022-04-15T17:20:21Z</time>
      </trkpt>
      <trkpt lat="42.5068070926" lon="-0.6664436124">
        <ele>1205.15</ele>
        <time>2022-04-15T17:20:41Z</time>
      </trkpt>
      <trkpt lat="42.5067783426" lon="-0.6664445344">
        <ele>1206.59</ele>
        <time>2022-04-15T17:20:54Z</time>
      </trkpt>
      <trkpt lat="42.5068329088" lon="-0.6664037984">
        <ele>1206.59</ele>
        <time>2022-04-15T17:21:05Z</time>
      </trkpt>
      <trkpt lat="42.5068828650" lon="-0.6663556863">
        <ele>1205.15</ele>
        <time>2022-04-15T17:21:19Z</time>
      </trkpt>
      <trkpt lat="42.5069097709" lon="-0.6663495675">
        <ele>1206.59</ele>
        <time>2022-04-15T17:21:24Z</time>
      </trkpt>
      <trkpt lat="42.5069721323" lon="-0.6663924828">
        <ele>1205.63</ele>
        <time>2022-04-15T17:21:37Z</time>
      </trkpt>
      <trkpt lat="42.5070313085" lon="-0.6664075702">
        <ele>1206.59</ele>
        <time>2022-04-15T17:21:49Z</time>
      </trkpt>
      <trkpt lat="42.5070247706" lon="-0.6662986055">
        <ele>1206.59</ele>
        <time>2022-04-15T17:22:02Z</time>
      </trkpt>
      <trkpt lat="42.5070250221" lon="-0.6662629824">
        <ele>1206.59</ele>
        <time>2022-04-15T17:22:06Z</time>
      </trkpt>
      <trkpt lat="42.5070234295" lon="-0.6661502458">
        <ele>1206.59</ele>
        <time>2022-04-15T17:22:19Z</time>
      </trkpt>
      <trkpt lat="42.5070175622" lon="-0.6661187299">
        <ele>1206.59</ele>
        <time>2022-04-15T17:22:22Z</time>
      </trkpt>
      <trkpt lat="42.5070485752" lon="-0.6660476513">
        <ele>1206.59</ele>
        <time>2022-04-15T17:22:35Z</time>
      </trkpt>
      <trkpt lat="42.5070380978" lon="-0.6660492439">
        <ele>1206.59</ele>
        <time>2022-04-15T17:23:03Z</time>
      </trkpt>
      <trkpt lat="42.5070769899" lon="-0.6660596374">
        <ele>1206.59</ele>
        <time>2022-04-15T17:23:09Z</time>
      </trkpt>
      <trkpt lat="42.5071660895" lon="-0.6660815142">
        <ele>1207.07</ele>
        <time>2022-04-15T17:23:22Z</time>
      </trkpt>
      <trkpt lat="42.5072464719" lon="-0.6660442986">
        <ele>1206.59</ele>
        <time>2022-04-15T17:23:33Z</time>
      </trkpt>
      <trkpt lat="42.5072386768" lon="-0.6660163030">
        <ele>1206.59</ele>
        <time>2022-04-15T17:23:59Z</time>
      </trkpt>
      <trkpt lat="42.5071950909" lon="-0.6660729647">
        <ele>1206.59</ele>
        <time>2022-04-15T17:24:13Z</time>
      </trkpt>
      <trkpt lat="42.5070945080" lon="-0.6660676003">
        <ele>1206.59</ele>
        <time>2022-04-15T17:24:27Z</time>
      </trkpt>
      <trkpt lat="42.5070918258" lon="-0.6660643313">
        <ele>1209.00</ele>
        <time>2022-04-15T17:24:35Z</time>
      </trkpt>
      <trkpt lat="42.5070802588" lon="-0.6660558656">
        <ele>1206.59</ele>
        <time>2022-04-15T17:24:39Z</time>
      </trkpt>
      <trkpt lat="42.5070210826" lon="-0.6660606433">
        <ele>1205.63</ele>
        <time>2022-04-15T17:24:47Z</time>
      </trkpt>
      <trkpt lat="42.5070211664" lon="-0.6661083363">
        <ele>1206.59</ele>
        <time>2022-04-15T17:24:50Z</time>
      </trkpt>
      <trkpt lat="42.5070223399" lon="-0.6662831828">
        <ele>1207.07</ele>
        <time>2022-04-15T17:25:04Z</time>
      </trkpt>
      <trkpt lat="42.5070521794" lon="-0.6663624756">
        <ele>1207.07</ele>
        <time>2022-04-15T17:25:17Z</time>
      </trkpt>
      <trkpt lat="42.5070495810" lon="-0.6663639005">
        <ele>1202.75</ele>
        <time>2022-04-15T17:25:21Z</time>
      </trkpt>
      <trkpt lat="42.5070492458" lon="-0.6663643196">
        <ele>1191.21</ele>
        <time>2022-04-15T17:25:22Z</time>
      </trkpt>
      <trkpt lat="42.5070484076" lon="-0.6663640682">
        <ele>1217.65</ele>
        <time>2022-04-15T17:25:23Z</time>
      </trkpt>
      <trkpt lat="42.5070481561" lon="-0.6663654931">
        <ele>1211.40</ele>
        <time>2022-04-15T17:25:24Z</time>
      </trkpt>
      <trkpt lat="42.5070483238" lon="-0.6663670018">
        <ele>1208.03</ele>
        <time>2022-04-15T17:25:25Z</time>
      </trkpt>
      <trkpt lat="42.5070453901" lon="-0.6663690135">
        <ele>1208.03</ele>
        <time>2022-04-15T17:25:26Z</time>
      </trkpt>
      <trkpt lat="42.5070624892" lon="-0.6663794909">
        <ele>1205.15</ele>
        <time>2022-04-15T17:25:34Z</time>
      </trkpt>
      <trkpt lat="42.5070649199" lon="-0.6663797423">
        <ele>1205.15</ele>
        <time>2022-04-15T17:25:35Z</time>
      </trkpt>
      <trkpt lat="42.5070704520" lon="-0.6663816702">
        <ele>1206.59</ele>
        <time>2022-04-15T17:25:38Z</time>
      </trkpt>
      <trkpt lat="42.5070601422" lon="-0.6663688459">
        <ele>1206.59</ele>
        <time>2022-04-15T17:26:16Z</time>
      </trkpt>
      <trkpt lat="42.5070629083" lon="-0.6663752161">
        <ele>1206.59</ele>
        <time>2022-04-15T17:26:24Z</time>
      </trkpt>
      <trkpt lat="42.5070445519" lon="-0.6663509086">
        <ele>1206.11</ele>
        <time>2022-04-15T17:26:50Z</time>
      </trkpt>
      <trkpt lat="42.5070624892" lon="-0.6663532555">
        <ele>1202.27</ele>
        <time>2022-04-15T17:26:54Z</time>
      </trkpt>
      <trkpt lat="42.5070682727" lon="-0.6663431972">
        <ele>1209.96</ele>
        <time>2022-04-15T17:26:55Z</time>
      </trkpt>
      <trkpt lat="42.5070750620" lon="-0.6663390063">
        <ele>1206.59</ele>
        <time>2022-04-15T17:26:57Z</time>
      </trkpt>
      <trkpt lat="42.5070773251" lon="-0.6663365755">
        <ele>1206.59</ele>
        <time>2022-04-15T17:26:58Z</time>
      </trkpt>
      <trkpt lat="42.5070612319" lon="-0.6663528364">
        <ele>1206.11</ele>
        <time>2022-04-15T17:27:30Z</time>
      </trkpt>
      <trkpt lat="42.5070595555" lon="-0.6663409341">
        <ele>1206.11</ele>
        <time>2022-04-15T17:28:15Z</time>
      </trkpt>
      <trkpt lat="42.5070608128" lon="-0.6663456280">
        <ele>1207.55</ele>
        <time>2022-04-15T17:28:18Z</time>
      </trkpt>
      <trkpt lat="42.5070599746" lon="-0.6663680077">
        <ele>1207.55</ele>
        <time>2022-04-15T17:29:02Z</time>
      </trkpt>
      <trkpt lat="42.5070516765" lon="-0.6663723662">
        <ele>1207.55</ele>
        <time>2022-04-15T17:29:41Z</time>
      </trkpt>
      <trkpt lat="42.5070623215" lon="-0.6663561892">
        <ele>1207.55</ele>
        <time>2022-04-15T17:30:26Z</time>
      </trkpt>
      <trkpt lat="42.5070621539" lon="-0.6663708575">
        <ele>1208.03</ele>
        <time>2022-04-15T17:30:54Z</time>
      </trkpt>
      <trkpt lat="42.5070411991" lon="-0.6663712766">
        <ele>1208.03</ele>
        <time>2022-04-15T17:31:22Z</time>
      </trkpt>
      <trkpt lat="42.5070360024" lon="-0.6663628109">
        <ele>1208.03</ele>
        <time>2022-04-15T17:31:55Z</time>
      </trkpt>
      <trkpt lat="42.5070391037" lon="-0.6663703546">
        <ele>1208.03</ele>
        <time>2022-04-15T17:32:14Z</time>
      </trkpt>
      <trkpt lat="42.5070448034" lon="-0.6663603801">
        <ele>1208.03</ele>
        <time>2022-04-15T17:32:40Z</time>
      </trkpt>
      <trkpt lat="42.5070360862" lon="-0.6663661636">
        <ele>1208.03</ele>
        <time>2022-04-15T17:33:09Z</time>
      </trkpt>
      <trkpt lat="42.5070380140" lon="-0.6663597934">
        <ele>1205.15</ele>
        <time>2022-04-15T17:33:18Z</time>
      </trkpt>
      <trkpt lat="42.5070095155" lon="-0.6663194764">
        <ele>1207.07</ele>
        <time>2022-04-15T17:42:52Z</time>
      </trkpt>
      <trkpt lat="42.5070090964" lon="-0.6663384195">
        <ele>1207.07</ele>
        <time>2022-04-15T17:42:53Z</time>
      </trkpt>
      <trkpt lat="42.5070293806" lon="-0.6665090751">
        <ele>1209.48</ele>
        <time>2022-04-15T17:43:06Z</time>
      </trkpt>
      <trkpt lat="42.5070886407" lon="-0.6667477917">
        <ele>1211.40</ele>
        <time>2022-04-15T17:43:24Z</time>
      </trkpt>
      <trkpt lat="42.5071247667" lon="-0.6668832432">
        <ele>1206.59</ele>
        <time>2022-04-15T17:43:34Z</time>
      </trkpt>
      <trkpt lat="42.5071267784" lon="-0.6668980792">
        <ele>1212.84</ele>
        <time>2022-04-15T17:43:35Z</time>
      </trkpt>
      <trkpt lat="42.5071479008" lon="-0.6669708341">
        <ele>1213.80</ele>
        <time>2022-04-15T17:43:48Z</time>
      </trkpt>
      <trkpt lat="42.5071582943" lon="-0.6671085488">
        <ele>1212.84</ele>
        <time>2022-04-15T17:44:05Z</time>
      </trkpt>
      <trkpt lat="42.5071268622" lon="-0.6673604250">
        <ele>1211.88</ele>
        <time>2022-04-15T17:44:20Z</time>
      </trkpt>
      <trkpt lat="42.5070782471" lon="-0.6675335113">
        <ele>1211.88</ele>
        <time>2022-04-15T17:44:37Z</time>
      </trkpt>
      <trkpt lat="42.5070542749" lon="-0.6676470023">
        <ele>1211.88</ele>
        <time>2022-04-15T17:44:45Z</time>
      </trkpt>
      <trkpt lat="42.5070295483" lon="-0.6678645965">
        <ele>1212.36</ele>
        <time>2022-04-15T17:45:00Z</time>
      </trkpt>
      <trkpt lat="42.5070064142" lon="-0.6679577194">
        <ele>1210.92</ele>
        <time>2022-04-15T17:45:08Z</time>
      </trkpt>
      <trkpt lat="42.5069925841" lon="-0.6681415346">
        <ele>1210.92</ele>
        <time>2022-04-15T17:45:20Z</time>
      </trkpt>
      <trkpt lat="42.5068624970" lon="-0.6683872920">
        <ele>1209.96</ele>
        <time>2022-04-15T17:45:38Z</time>
      </trkpt>
      <trkpt lat="42.5067779236" lon="-0.6685035489">
        <ele>1209.00</ele>
        <time>2022-04-15T17:45:56Z</time>
      </trkpt>
      <trkpt lat="42.5067852158" lon="-0.6685038842">
        <ele>1209.96</ele>
        <time>2022-04-15T17:45:57Z</time>
      </trkpt>
      <trkpt lat="42.5067962799" lon="-0.6685240008">
        <ele>1209.96</ele>
        <time>2022-04-15T17:45:59Z</time>
      </trkpt>
      <trkpt lat="42.5068175700" lon="-0.6687223166">
        <ele>1209.96</ele>
        <time>2022-04-15T17:46:15Z</time>
      </trkpt>
      <trkpt lat="42.5068435539" lon="-0.6689141784">
        <ele>1209.00</ele>
        <time>2022-04-15T17:46:31Z</time>
      </trkpt>
      <trkpt lat="42.5068301428" lon="-0.6690085586">
        <ele>1209.00</ele>
        <time>2022-04-15T17:46:36Z</time>
      </trkpt>
      <trkpt lat="42.5068551209" lon="-0.6690938026">
        <ele>1208.03</ele>
        <time>2022-04-15T17:46:41Z</time>
      </trkpt>
      <trkpt lat="42.5068775844" lon="-0.6692297570">
        <ele>1208.03</ele>
        <time>2022-04-15T17:46:54Z</time>
      </trkpt>
      <trkpt lat="42.5069198292" lon="-0.6692707445">
        <ele>1207.55</ele>
        <time>2022-04-15T17:47:03Z</time>
      </trkpt>
      <trkpt lat="42.5070417859" lon="-0.6693400629">
        <ele>1207.07</ele>
        <time>2022-04-15T17:47:16Z</time>
      </trkpt>
      <trkpt lat="42.5070534367" lon="-0.6693440024">
        <ele>1209.00</ele>
        <time>2022-04-15T17:47:18Z</time>
      </trkpt>
      <trkpt lat="42.5071128644" lon="-0.6694517098">
        <ele>1209.00</ele>
        <time>2022-04-15T17:47:32Z</time>
      </trkpt>
      <trkpt lat="42.5072040595" lon="-0.6696075294">
        <ele>1209.00</ele>
        <time>2022-04-15T17:47:47Z</time>
      </trkpt>
      <trkpt lat="42.5073099229" lon="-0.6698031630">
        <ele>1209.00</ele>
        <time>2022-04-15T17:48:00Z</time>
      </trkpt>
      <trkpt lat="42.5073855277" lon="-0.6699187495">
        <ele>1209.00</ele>
        <time>2022-04-15T17:48:10Z</time>
      </trkpt>
      <trkpt lat="42.5074076559" lon="-0.6699506845">
        <ele>1209.00</ele>
        <time>2022-04-15T17:48:12Z</time>
      </trkpt>
      <trkpt lat="42.5074433628" lon="-0.6700364314">
        <ele>1209.00</ele>
        <time>2022-04-15T17:48:16Z</time>
      </trkpt>
      <trkpt lat="42.5075467955" lon="-0.6701013073">
        <ele>1209.00</ele>
        <time>2022-04-15T17:48:28Z</time>
      </trkpt>
      <trkpt lat="42.5075545069" lon="-0.6701371819">
        <ele>1209.00</ele>
        <time>2022-04-15T17:48:30Z</time>
      </trkpt>
      <trkpt lat="42.5076458696" lon="-0.6703376770">
        <ele>1209.00</ele>
        <time>2022-04-15T17:48:44Z</time>
      </trkpt>
      <trkpt lat="42.5076838396" lon="-0.6704359967">
        <ele>1209.00</ele>
        <time>2022-04-15T17:48:52Z</time>
      </trkpt>
      <trkpt lat="42.5077368133" lon="-0.6705570314">
        <ele>1209.00</ele>
        <time>2022-04-15T17:48:58Z</time>
      </trkpt>
      <trkpt lat="42.5078247394" lon="-0.6707462948">
        <ele>1209.00</ele>
        <time>2022-04-15T17:49:10Z</time>
      </trkpt>
      <trkpt lat="42.5078612007" lon="-0.6708281022">
        <ele>1209.48</ele>
        <time>2022-04-15T17:49:22Z</time>
      </trkpt>
      <trkpt lat="42.5078737736" lon="-0.6708461232">
        <ele>1209.48</ele>
        <time>2022-04-15T17:49:24Z</time>
      </trkpt>
      <trkpt lat="42.5078902859" lon="-0.6708884519">
        <ele>1209.96</ele>
        <time>2022-04-15T17:49:27Z</time>
      </trkpt>
      <trkpt lat="42.5080311019" lon="-0.6711197086">
        <ele>1209.48</ele>
        <time>2022-04-15T17:49:43Z</time>
      </trkpt>
      <trkpt lat="42.5081414077" lon="-0.6712632906">
        <ele>1209.48</ele>
        <time>2022-04-15T17:49:56Z</time>
      </trkpt>
      <trkpt lat="42.5082754344" lon="-0.6714550685">
        <ele>1208.51</ele>
        <time>2022-04-15T17:50:09Z</time>
      </trkpt>
      <trkpt lat="42.5083320960" lon="-0.6715941243">
        <ele>1208.03</ele>
        <time>2022-04-15T17:50:24Z</time>
      </trkpt>
      <trkpt lat="42.5084677991" lon="-0.6717812922">
        <ele>1207.07</ele>
        <time>2022-04-15T17:50:36Z</time>
      </trkpt>
      <trkpt lat="42.5085133128" lon="-0.6719125528">
        <ele>1206.59</ele>
        <time>2022-04-15T17:50:43Z</time>
      </trkpt>
      <trkpt lat="42.5085340161" lon="-0.6720667798">
        <ele>1205.15</ele>
        <time>2022-04-15T17:50:57Z</time>
      </trkpt>
      <trkpt lat="42.5086069386" lon="-0.6721250340">
        <ele>1204.67</ele>
        <time>2022-04-15T17:51:05Z</time>
      </trkpt>
      <trkpt lat="42.5087490957" lon="-0.6722215097">
        <ele>1201.79</ele>
        <time>2022-04-15T17:51:22Z</time>
      </trkpt>
      <trkpt lat="42.5087718107" lon="-0.6722811889">
        <ele>1199.86</ele>
        <time>2022-04-15T17:51:31Z</time>
      </trkpt>
      <trkpt lat="42.5087241177" lon="-0.6723893154">
        <ele>1196.50</ele>
        <time>2022-04-15T17:51:43Z</time>
      </trkpt>
      <trkpt lat="42.5087725651" lon="-0.6724216696">
        <ele>1195.54</ele>
        <time>2022-04-15T17:51:50Z</time>
      </trkpt>
      <trkpt lat="42.5088169891" lon="-0.6724175625">
        <ele>1194.09</ele>
        <time>2022-04-15T17:51:54Z</time>
      </trkpt>
      <trkpt lat="42.5088613294" lon="-0.6724360026">
        <ele>1192.65</ele>
        <time>2022-04-15T17:52:00Z</time>
      </trkpt>
      <trkpt lat="42.5088526122" lon="-0.6725393515">
        <ele>1189.77</ele>
        <time>2022-04-15T17:52:11Z</time>
      </trkpt>
      <trkpt lat="42.5088471640" lon="-0.6725617312">
        <ele>1189.29</ele>
        <time>2022-04-15T17:52:13Z</time>
      </trkpt>
      <trkpt lat="42.5088523608" lon="-0.6726350728">
        <ele>1190.25</ele>
        <time>2022-04-15T17:52:29Z</time>
      </trkpt>
      <trkpt lat="42.5088496786" lon="-0.6726352405">
        <ele>1188.33</ele>
        <time>2022-04-15T17:52:31Z</time>
      </trkpt>
      <trkpt lat="42.5088400394" lon="-0.6725966837">
        <ele>1188.81</ele>
        <time>2022-04-15T17:52:36Z</time>
      </trkpt>
      <trkpt lat="42.5088469964" lon="-0.6725547742">
        <ele>1187.85</ele>
        <time>2022-04-15T17:53:10Z</time>
      </trkpt>
      <trkpt lat="42.5088552944" lon="-0.6725283712">
        <ele>1190.25</ele>
        <time>2022-04-15T17:53:13Z</time>
      </trkpt>
      <trkpt lat="42.5088412967" lon="-0.6724898983">
        <ele>1185.44</ele>
        <time>2022-04-15T17:53:19Z</time>
      </trkpt>
      <trkpt lat="42.5088388659" lon="-0.6724825222">
        <ele>1193.61</ele>
        <time>2022-04-15T17:53:20Z</time>
      </trkpt>
      <trkpt lat="42.5088345073" lon="-0.6724738888">
        <ele>1188.81</ele>
        <time>2022-04-15T17:53:21Z</time>
      </trkpt>
      <trkpt lat="42.5088284723" lon="-0.6724600587">
        <ele>1193.13</ele>
        <time>2022-04-15T17:53:23Z</time>
      </trkpt>
      <trkpt lat="42.5088347588" lon="-0.6724192388">
        <ele>1192.17</ele>
        <time>2022-04-15T17:53:27Z</time>
      </trkpt>
      <trkpt lat="42.5088417158" lon="-0.6724010501">
        <ele>1190.73</ele>
        <time>2022-04-15T17:53:29Z</time>
      </trkpt>
      <trkpt lat="42.5088358484" lon="-0.6723868009">
        <ele>1196.50</ele>
        <time>2022-04-15T17:53:34Z</time>
      </trkpt>
      <trkpt lat="42.5088332500" lon="-0.6723910756">
        <ele>1192.65</ele>
        <time>2022-04-15T17:53:35Z</time>
      </trkpt>
      <trkpt lat="42.5088160671" lon="-0.6724146288">
        <ele>1192.65</ele>
        <time>2022-04-15T17:53:39Z</time>
      </trkpt>
      <trkpt lat="42.5087954476" lon="-0.6724212505">
        <ele>1196.98</ele>
        <time>2022-04-15T17:53:42Z</time>
      </trkpt>
      <trkpt lat="42.5087879039" lon="-0.6724201608">
        <ele>1192.17</ele>
        <time>2022-04-15T17:53:43Z</time>
      </trkpt>
      <trkpt lat="42.5087729003" lon="-0.6724156346">
        <ele>1196.98</ele>
        <time>2022-04-15T17:53:46Z</time>
      </trkpt>
      <trkpt lat="42.5087672845" lon="-0.6724117789">
        <ele>1196.98</ele>
        <time>2022-04-15T17:53:47Z</time>
      </trkpt>
      <trkpt lat="42.5087625906" lon="-0.6724079233">
        <ele>1190.73</ele>
        <time>2022-04-15T17:53:48Z</time>
      </trkpt>
      <trkpt lat="42.5087585673" lon="-0.6724052411">
        <ele>1197.46</ele>
        <time>2022-04-15T17:53:49Z</time>
      </trkpt>
      <trkpt lat="42.5087134726" lon="-0.6723520998">
        <ele>1200.82</ele>
        <time>2022-04-15T17:53:58Z</time>
      </trkpt>
      <trkpt lat="42.5087179150" lon="-0.6723427121">
        <ele>1196.50</ele>
        <time>2022-04-15T17:53:59Z</time>
      </trkpt>
      <trkpt lat="42.5087259617" lon="-0.6723360065">
        <ele>1200.34</ele>
        <time>2022-04-15T17:54:01Z</time>
      </trkpt>
      <trkpt lat="42.5087301526" lon="-0.6723323185">
        <ele>1196.98</ele>
        <time>2022-04-15T17:54:02Z</time>
      </trkpt>
      <trkpt lat="42.5087764207" lon="-0.6722479966">
        <ele>1202.75</ele>
        <time>2022-04-15T17:54:11Z</time>
      </trkpt>
      <trkpt lat="42.5087756664" lon="-0.6722353399">
        <ele>1198.90</ele>
        <time>2022-04-15T17:54:12Z</time>
      </trkpt>
      <trkpt lat="42.5087734032" lon="-0.6722156424">
        <ele>1202.27</ele>
        <time>2022-04-15T17:54:14Z</time>
      </trkpt>
      <trkpt lat="42.5087709725" lon="-0.6722150557">
        <ele>1199.38</ele>
        <time>2022-04-15T17:54:15Z</time>
      </trkpt>
      <trkpt lat="42.5087506045" lon="-0.6722004712">
        <ele>1203.71</ele>
        <time>2022-04-15T17:54:19Z</time>
      </trkpt>
      <trkpt lat="42.5087449886" lon="-0.6721956935">
        <ele>1200.34</ele>
        <time>2022-04-15T17:54:20Z</time>
      </trkpt>
      <trkpt lat="42.5087371096" lon="-0.6721834559">
        <ele>1199.38</ele>
        <time>2022-04-15T17:54:22Z</time>
      </trkpt>
      <trkpt lat="42.5087315775" lon="-0.6721744873">
        <ele>1204.19</ele>
        <time>2022-04-15T17:54:24Z</time>
      </trkpt>
      <trkpt lat="42.5087262131" lon="-0.6721726432">
        <ele>1204.19</ele>
        <time>2022-04-15T17:54:25Z</time>
      </trkpt>
      <trkpt lat="42.5087196752" lon="-0.6721715536">
        <ele>1200.82</ele>
        <time>2022-04-15T17:54:26Z</time>
      </trkpt>
      <trkpt lat="42.5087114610" lon="-0.6721735653">
        <ele>1202.75</ele>
        <time>2022-04-15T17:54:27Z</time>
      </trkpt>
      <trkpt lat="42.5085636042" lon="-0.6721388642">
        <ele>1204.19</ele>
        <time>2022-04-15T17:54:46Z</time>
      </trkpt>
      <trkpt lat="42.5084580760" lon="-0.6721587293">
        <ele>1203.71</ele>
        <time>2022-04-15T17:54:58Z</time>
      </trkpt>
      <trkpt lat="42.5083372928" lon="-0.6721606571">
        <ele>1204.19</ele>
        <time>2022-04-15T17:55:09Z</time>
      </trkpt>
      <trkpt lat="42.5082797091" lon="-0.6718377024">
        <ele>1206.59</ele>
        <time>2022-04-15T17:55:29Z</time>
      </trkpt>
      <trkpt lat="42.5082714949" lon="-0.6716594193">
        <ele>1206.59</ele>
        <time>2022-04-15T17:55:41Z</time>
      </trkpt>
      <trkpt lat="42.5082804635" lon="-0.6716252211">
        <ele>1208.51</ele>
        <time>2022-04-15T17:55:43Z</time>
      </trkpt>
      <trkpt lat="42.5082971435" lon="-0.6716308370">
        <ele>1207.07</ele>
        <time>2022-04-15T17:55:45Z</time>
      </trkpt>
      <trkpt lat="42.5083075371" lon="-0.6716372073">
        <ele>1207.07</ele>
        <time>2022-04-15T17:55:46Z</time>
      </trkpt>
      <trkpt lat="42.5083818007" lon="-0.6715015043">
        <ele>1205.63</ele>
        <time>2022-04-15T17:56:02Z</time>
      </trkpt>
      <trkpt lat="42.5083823036" lon="-0.6714907754">
        <ele>1208.51</ele>
        <time>2022-04-15T17:56:03Z</time>
      </trkpt>
      <trkpt lat="42.5083851535" lon="-0.6714116503">
        <ele>1208.51</ele>
        <time>2022-04-15T17:56:10Z</time>
      </trkpt>
      <trkpt lat="42.5083769392" lon="-0.6713133305">
        <ele>1209.00</ele>
        <time>2022-04-15T17:56:16Z</time>
      </trkpt>
      <trkpt lat="42.5083740056" lon="-0.6712938007">
        <ele>1209.00</ele>
        <time>2022-04-15T17:56:17Z</time>
      </trkpt>
      <trkpt lat="42.5083702337" lon="-0.6712544896">
        <ele>1207.55</ele>
        <time>2022-04-15T17:56:19Z</time>
      </trkpt>
      <trkpt lat="42.5083823875" lon="-0.6712187827">
        <ele>1209.00</ele>
        <time>2022-04-15T17:56:21Z</time>
      </trkpt>
      <trkpt lat="42.5083839800" lon="-0.6708808243">
        <ele>1209.96</ele>
        <time>2022-04-15T17:56:43Z</time>
      </trkpt>
      <trkpt lat="42.5083639473" lon="-0.6706319656">
        <ele>1210.92</ele>
        <time>2022-04-15T17:56:59Z</time>
      </trkpt>
      <trkpt lat="42.5083877519" lon="-0.6703103520">
        <ele>1210.44</ele>
        <time>2022-04-15T17:57:21Z</time>
      </trkpt>
      <trkpt lat="42.5083773583" lon="-0.6700692885">
        <ele>1211.40</ele>
        <time>2022-04-15T17:57:39Z</time>
      </trkpt>
      <trkpt lat="42.5083674677" lon="-0.6697426457">
        <ele>1212.36</ele>
        <time>2022-04-15T17:57:59Z</time>
      </trkpt>
      <trkpt lat="42.5083520450" lon="-0.6694823038">
        <ele>1211.40</ele>
        <time>2022-04-15T17:58:18Z</time>
      </trkpt>
      <trkpt lat="42.5083911885" lon="-0.6691822316">
        <ele>1211.40</ele>
        <time>2022-04-15T17:58:35Z</time>
      </trkpt>
      <trkpt lat="42.5084020011" lon="-0.6690233946">
        <ele>1212.84</ele>
        <time>2022-04-15T17:58:47Z</time>
      </trkpt>
      <trkpt lat="42.5084142387" lon="-0.6689956505">
        <ele>1210.92</ele>
        <time>2022-04-15T17:58:49Z</time>
      </trkpt>
      <trkpt lat="42.5084519573" lon="-0.6689999253">
        <ele>1212.84</ele>
        <time>2022-04-15T17:58:52Z</time>
      </trkpt>
      <trkpt lat="42.5084822997" lon="-0.6690277532">
        <ele>1211.40</ele>
        <time>2022-04-15T17:58:55Z</time>
      </trkpt>
      <trkpt lat="42.5087009836" lon="-0.6692499574">
        <ele>1210.92</ele>
        <time>2022-04-15T17:59:17Z</time>
      </trkpt>
      <trkpt lat="42.5088267960" lon="-0.6692827307">
        <ele>1208.03</ele>
        <time>2022-04-15T17:59:31Z</time>
      </trkpt>
      <trkpt lat="42.5088862237" lon="-0.6693103071">
        <ele>1209.00</ele>
        <time>2022-04-15T17:59:36Z</time>
      </trkpt>
      <trkpt lat="42.5089428853" lon="-0.6693665497">
        <ele>1207.55</ele>
        <time>2022-04-15T17:59:42Z</time>
      </trkpt>
      <trkpt lat="42.5089800172" lon="-0.6693848222">
        <ele>1206.11</ele>
        <time>2022-04-15T17:59:45Z</time>
      </trkpt>
      <trkpt lat="42.5090615731" lon="-0.6695719901">
        <ele>1203.23</ele>
        <time>2022-04-15T18:00:00Z</time>
      </trkpt>
      <trkpt lat="42.5090991240" lon="-0.6697905064">
        <ele>1203.23</ele>
        <time>2022-04-15T18:00:17Z</time>
      </trkpt>
      <trkpt lat="42.5091079250" lon="-0.6698078569">
        <ele>1200.82</ele>
        <time>2022-04-15T18:00:19Z</time>
      </trkpt>
      <trkpt lat="42.5091554504" lon="-0.6699530315">
        <ele>1198.42</ele>
        <time>2022-04-15T18:00:35Z</time>
      </trkpt>
      <trkpt lat="42.5091795065" lon="-0.6699962821">
        <ele>1195.06</ele>
        <time>2022-04-15T18:00:41Z</time>
      </trkpt>
      <trkpt lat="42.5091851223" lon="-0.6700044125">
        <ele>1198.42</ele>
        <time>2022-04-15T18:00:42Z</time>
      </trkpt>
      <trkpt lat="42.5091927499" lon="-0.6700262893">
        <ele>1196.50</ele>
        <time>2022-04-15T18:00:45Z</time>
      </trkpt>
      <trkpt lat="42.5092427060" lon="-0.6700560451">
        <ele>1193.61</ele>
        <time>2022-04-15T18:01:03Z</time>
      </trkpt>
      <trkpt lat="42.5092628226" lon="-0.6701306440">
        <ele>1190.25</ele>
        <time>2022-04-15T18:01:12Z</time>
      </trkpt>
      <trkpt lat="42.5092759822" lon="-0.6703307200">
        <ele>1188.33</ele>
        <time>2022-04-15T18:01:32Z</time>
      </trkpt>
      <trkpt lat="42.5093188137" lon="-0.6703415327">
        <ele>1188.81</ele>
        <time>2022-04-15T18:01:38Z</time>
      </trkpt>
      <trkpt lat="42.5093096774" lon="-0.6703761499">
        <ele>1186.88</ele>
        <time>2022-04-15T18:01:41Z</time>
      </trkpt>
      <trkpt lat="42.5093329791" lon="-0.6705279462">
        <ele>1182.56</ele>
        <time>2022-04-15T18:01:57Z</time>
      </trkpt>
      <trkpt lat="42.5093177240" lon="-0.6706590392">
        <ele>1181.60</ele>
        <time>2022-04-15T18:02:10Z</time>
      </trkpt>
      <trkpt lat="42.5093300454" lon="-0.6708178762">
        <ele>1178.71</ele>
        <time>2022-04-15T18:02:27Z</time>
      </trkpt>
      <trkpt lat="42.5093463901" lon="-0.6709633861">
        <ele>1175.83</ele>
        <time>2022-04-15T18:02:42Z</time>
      </trkpt>
      <trkpt lat="42.5093480665" lon="-0.6709847599">
        <ele>1174.87</ele>
        <time>2022-04-15T18:02:44Z</time>
      </trkpt>
      <trkpt lat="42.5093473122" lon="-0.6710071396">
        <ele>1176.31</ele>
        <time>2022-04-15T18:02:46Z</time>
      </trkpt>
      <trkpt lat="42.5093393493" lon="-0.6710334588">
        <ele>1174.39</ele>
        <time>2022-04-15T18:02:48Z</time>
      </trkpt>
      <trkpt lat="42.5093349069" lon="-0.6710708421">
        <ele>1175.83</ele>
        <time>2022-04-15T18:02:51Z</time>
      </trkpt>
      <trkpt lat="42.5093405228" lon="-0.6710916292">
        <ele>1173.91</ele>
        <time>2022-04-15T18:02:53Z</time>
      </trkpt>
      <trkpt lat="42.5093234237" lon="-0.6713108998">
        <ele>1170.06</ele>
        <time>2022-04-15T18:03:11Z</time>
      </trkpt>
      <trkpt lat="42.5093401875" lon="-0.6714295037">
        <ele>1169.58</ele>
        <time>2022-04-15T18:03:21Z</time>
      </trkpt>
      <trkpt lat="42.5093203224" lon="-0.6715127360">
        <ele>1165.26</ele>
        <time>2022-04-15T18:03:30Z</time>
      </trkpt>
      <trkpt lat="42.5093192328" lon="-0.6715222914">
        <ele>1169.10</ele>
        <time>2022-04-15T18:03:31Z</time>
      </trkpt>
      <trkpt lat="42.5093189813" lon="-0.6715546455">
        <ele>1165.26</ele>
        <time>2022-04-15T18:03:34Z</time>
      </trkpt>
      <trkpt lat="42.5093188975" lon="-0.6716430746">
        <ele>1168.14</ele>
        <time>2022-04-15T18:03:43Z</time>
      </trkpt>
      <trkpt lat="42.5093205739" lon="-0.6716520432">
        <ele>1165.26</ele>
        <time>2022-04-15T18:03:44Z</time>
      </trkpt>
      <trkpt lat="42.5093152095" lon="-0.6717210263">
        <ele>1163.81</ele>
        <time>2022-04-15T18:03:52Z</time>
      </trkpt>
      <trkpt lat="42.5093121082" lon="-0.6717921048">
        <ele>1162.37</ele>
        <time>2022-04-15T18:04:01Z</time>
      </trkpt>
      <trkpt lat="42.5093154609" lon="-0.6719681248">
        <ele>1159.01</ele>
        <time>2022-04-15T18:04:20Z</time>
      </trkpt>
      <trkpt lat="42.5093170535" lon="-0.6719818711">
        <ele>1159.01</ele>
        <time>2022-04-15T18:04:21Z</time>
      </trkpt>
      <trkpt lat="42.5093507487" lon="-0.6720010657">
        <ele>1157.08</ele>
        <time>2022-04-15T18:04:27Z</time>
      </trkpt>
      <trkpt lat="42.5093972683" lon="-0.6720306538">
        <ele>1153.72</ele>
        <time>2022-04-15T18:04:39Z</time>
      </trkpt>
      <trkpt lat="42.5093843602" lon="-0.6720706355">
        <ele>1157.56</ele>
        <time>2022-04-15T18:04:44Z</time>
      </trkpt>
      <trkpt lat="42.5093859527" lon="-0.6720792688">
        <ele>1153.72</ele>
        <time>2022-04-15T18:04:45Z</time>
      </trkpt>
      <trkpt lat="42.5093856174" lon="-0.6720927637">
        <ele>1153.24</ele>
        <time>2022-04-15T18:04:47Z</time>
      </trkpt>
      <trkpt lat="42.5093793310" lon="-0.6721279677">
        <ele>1151.80</ele>
        <time>2022-04-15T18:04:53Z</time>
      </trkpt>
      <trkpt lat="42.5093710329" lon="-0.6722443923">
        <ele>1148.43</ele>
        <time>2022-04-15T18:05:07Z</time>
      </trkpt>
      <trkpt lat="42.5093751401" lon="-0.6722764112">
        <ele>1147.95</ele>
        <time>2022-04-15T18:05:13Z</time>
      </trkpt>
      <trkpt lat="42.5094108470" lon="-0.6722616591">
        <ele>1145.07</ele>
        <time>2022-04-15T18:05:20Z</time>
      </trkpt>
      <trkpt lat="42.5094167981" lon="-0.6722568814">
        <ele>1145.07</ele>
        <time>2022-04-15T18:05:21Z</time>
      </trkpt>
      <trkpt lat="42.5094320532" lon="-0.6722460687">
        <ele>1148.43</ele>
        <time>2022-04-15T18:05:23Z</time>
      </trkpt>
      <trkpt lat="42.5094701909" lon="-0.6721930951">
        <ele>1145.07</ele>
        <time>2022-04-15T18:05:28Z</time>
      </trkpt>
      <trkpt lat="42.5095127709" lon="-0.6720811967">
        <ele>1146.03</ele>
        <time>2022-04-15T18:05:41Z</time>
      </trkpt>
      <trkpt lat="42.5095841847" lon="-0.6720122136">
        <ele>1142.66</ele>
        <time>2022-04-15T18:05:53Z</time>
      </trkpt>
      <trkpt lat="42.5095883757" lon="-0.6720245350">
        <ele>1142.18</ele>
        <time>2022-04-15T18:05:55Z</time>
      </trkpt>
      <trkpt lat="42.5095601287" lon="-0.6722405367">
        <ele>1139.30</ele>
        <time>2022-04-15T18:06:13Z</time>
      </trkpt>
      <trkpt lat="42.5094964262" lon="-0.6724433787">
        <ele>1137.38</ele>
        <time>2022-04-15T18:06:28Z</time>
      </trkpt>
      <trkpt lat="42.5094640721" lon="-0.6726435386">
        <ele>1132.57</ele>
        <time>2022-04-15T18:06:44Z</time>
      </trkpt>
      <trkpt lat="42.5094603840" lon="-0.6726551056">
        <ele>1135.45</ele>
        <time>2022-04-15T18:06:45Z</time>
      </trkpt>
      <trkpt lat="42.5094546005" lon="-0.6726990268">
        <ele>1134.01</ele>
        <time>2022-04-15T18:06:48Z</time>
      </trkpt>
      <trkpt lat="42.5094312150" lon="-0.6727949157">
        <ele>1131.13</ele>
        <time>2022-04-15T18:06:55Z</time>
      </trkpt>
      <trkpt lat="42.5094095059" lon="-0.6728856917">
        <ele>1129.21</ele>
        <time>2022-04-15T18:07:02Z</time>
      </trkpt>
      <trkpt lat="42.5094039738" lon="-0.6729342230">
        <ele>1126.80</ele>
        <time>2022-04-15T18:07:08Z</time>
      </trkpt>
      <trkpt lat="42.5094592944" lon="-0.6728891283">
        <ele>1124.40</ele>
        <time>2022-04-15T18:07:19Z</time>
      </trkpt>
      <trkpt lat="42.5094732922" lon="-0.6729392521">
        <ele>1122.48</ele>
        <time>2022-04-15T18:07:28Z</time>
      </trkpt>
      <trkpt lat="42.5094616413" lon="-0.6729629729">
        <ele>1121.03</ele>
        <time>2022-04-15T18:07:30Z</time>
      </trkpt>
      <trkpt lat="42.5094590429" lon="-0.6729739532">
        <ele>1123.92</ele>
        <time>2022-04-15T18:07:31Z</time>
      </trkpt>
      <trkpt lat="42.5094588753" lon="-0.6730015296">
        <ele>1119.59</ele>
        <time>2022-04-15T18:07:33Z</time>
      </trkpt>
      <trkpt lat="42.5094760582" lon="-0.6730224844">
        <ele>1119.59</ele>
        <time>2022-04-15T18:07:38Z</time>
      </trkpt>
      <trkpt lat="42.5095267687" lon="-0.6730428524">
        <ele>1118.63</ele>
        <time>2022-04-15T18:07:59Z</time>
      </trkpt>
      <trkpt lat="42.5095072389" lon="-0.6730516534">
        <ele>1118.15</ele>
        <time>2022-04-15T18:08:02Z</time>
      </trkpt>
      <trkpt lat="42.5094548520" lon="-0.6731233187">
        <ele>1117.67</ele>
        <time>2022-04-15T18:08:08Z</time>
      </trkpt>
      <trkpt lat="42.5093832705" lon="-0.6732008513">
        <ele>1114.79</ele>
        <time>2022-04-15T18:08:22Z</time>
      </trkpt>
      <trkpt lat="42.5094567798" lon="-0.6732130889">
        <ele>1110.94</ele>
        <time>2022-04-15T18:08:35Z</time>
      </trkpt>
      <trkpt lat="42.5095029641" lon="-0.6731878594">
        <ele>1108.06</ele>
        <time>2022-04-15T18:08:48Z</time>
      </trkpt>
      <trkpt lat="42.5095426105" lon="-0.6732109096">
        <ele>1106.13</ele>
        <time>2022-04-15T18:09:00Z</time>
      </trkpt>
      <trkpt lat="42.5094539300" lon="-0.6732416712">
        <ele>1106.13</ele>
        <time>2022-04-15T18:09:12Z</time>
      </trkpt>
      <trkpt lat="42.5094151217" lon="-0.6732593570">
        <ele>1107.58</ele>
        <time>2022-04-15T18:09:17Z</time>
      </trkpt>
      <trkpt lat="42.5092867110" lon="-0.6732997578">
        <ele>1108.54</ele>
        <time>2022-04-15T18:09:32Z</time>
      </trkpt>
      <trkpt lat="42.5092179794" lon="-0.6733542401">
        <ele>1110.46</ele>
        <time>2022-04-15T18:09:40Z</time>
      </trkpt>
      <trkpt lat="42.5092078373" lon="-0.6733692437">
        <ele>1108.54</ele>
        <time>2022-04-15T18:09:42Z</time>
      </trkpt>
      <trkpt lat="42.5090945978" lon="-0.6734408252">
        <ele>1108.54</ele>
        <time>2022-04-15T18:09:53Z</time>
      </trkpt>
      <trkpt lat="42.5090775825" lon="-0.6734444294">
        <ele>1108.54</ele>
        <time>2022-04-15T18:09:55Z</time>
      </trkpt>
      <trkpt lat="42.5089548714" lon="-0.6734322757">
        <ele>1109.98</ele>
        <time>2022-04-15T18:10:07Z</time>
      </trkpt>
      <trkpt lat="42.5087501016" lon="-0.6734261569">
        <ele>1109.98</ele>
        <time>2022-04-15T18:10:22Z</time>
      </trkpt>
      <trkpt lat="42.5086662825" lon="-0.6734018493">
        <ele>1110.46</ele>
        <time>2022-04-15T18:10:30Z</time>
      </trkpt>
      <trkpt lat="42.5085577369" lon="-0.6733369734">
        <ele>1111.42</ele>
        <time>2022-04-15T18:10:42Z</time>
      </trkpt>
      <trkpt lat="42.5084565673" lon="-0.6732621230">
        <ele>1112.86</ele>
        <time>2022-04-15T18:10:54Z</time>
      </trkpt>
      <trkpt lat="42.5084138196" lon="-0.6732461136">
        <ele>1113.34</ele>
        <time>2022-04-15T18:10:59Z</time>
      </trkpt>
      <trkpt lat="42.5083357003" lon="-0.6731610373">
        <ele>1114.79</ele>
        <time>2022-04-15T18:11:11Z</time>
      </trkpt>
      <trkpt lat="42.5082726683" lon="-0.6731089856">
        <ele>1116.71</ele>
        <time>2022-04-15T18:11:20Z</time>
      </trkpt>
      <trkpt lat="42.5081735943" lon="-0.6730391644">
        <ele>1118.15</ele>
        <time>2022-04-15T18:11:30Z</time>
      </trkpt>
      <trkpt lat="42.5080806389" lon="-0.6729768869">
        <ele>1119.59</ele>
        <time>2022-04-15T18:11:41Z</time>
      </trkpt>
      <trkpt lat="42.5079637952" lon="-0.6729562674">
        <ele>1121.03</ele>
        <time>2022-04-15T18:11:52Z</time>
      </trkpt>
      <trkpt lat="42.5078676548" lon="-0.6729479693">
        <ele>1122.00</ele>
        <time>2022-04-15T18:12:00Z</time>
      </trkpt>
      <trkpt lat="42.5077956542" lon="-0.6729359832">
        <ele>1122.96</ele>
        <time>2022-04-15T18:12:06Z</time>
      </trkpt>
      <trkpt lat="42.5077706762" lon="-0.6729286071">
        <ele>1123.44</ele>
        <time>2022-04-15T18:12:19Z</time>
      </trkpt>
      <trkpt lat="42.5077282637" lon="-0.6729879510">
        <ele>1123.44</ele>
        <time>2022-04-15T18:12:29Z</time>
      </trkpt>
      <trkpt lat="42.5076809060" lon="-0.6730327941">
        <ele>1123.44</ele>
        <time>2022-04-15T18:12:33Z</time>
      </trkpt>
      <trkpt lat="42.5076492224" lon="-0.6730865221">
        <ele>1123.92</ele>
        <time>2022-04-15T18:12:39Z</time>
      </trkpt>
      <trkpt lat="42.5076322071" lon="-0.6731075607">
        <ele>1123.92</ele>
        <time>2022-04-15T18:12:41Z</time>
      </trkpt>
      <trkpt lat="42.5075799040" lon="-0.6731805671">
        <ele>1123.92</ele>
        <time>2022-04-15T18:12:46Z</time>
      </trkpt>
      <trkpt lat="42.5075199734" lon="-0.6732609496">
        <ele>1124.40</ele>
        <time>2022-04-15T18:12:56Z</time>
      </trkpt>
      <trkpt lat="42.5075006112" lon="-0.6733062956">
        <ele>1126.80</ele>
        <time>2022-04-15T18:13:08Z</time>
      </trkpt>
      <trkpt lat="42.5074967556" lon="-0.6733036134">
        <ele>1128.24</ele>
        <time>2022-04-15T18:13:12Z</time>
      </trkpt>
      <trkpt lat="42.5074525829" lon="-0.6733492110">
        <ele>1128.73</ele>
        <time>2022-04-15T18:13:27Z</time>
      </trkpt>
      <trkpt lat="42.5074307062" lon="-0.6733507197">
        <ele>1130.17</ele>
        <time>2022-04-15T18:13:37Z</time>
      </trkpt>
      <trkpt lat="42.5074826740" lon="-0.6733418349">
        <ele>1130.17</ele>
        <time>2022-04-15T18:13:53Z</time>
      </trkpt>
      <trkpt lat="42.5075059757" lon="-0.6734724250">
        <ele>1130.17</ele>
        <time>2022-04-15T18:14:01Z</time>
      </trkpt>
      <trkpt lat="42.5075081550" lon="-0.6735045277">
        <ele>1130.17</ele>
        <time>2022-04-15T18:14:03Z</time>
      </trkpt>
      <trkpt lat="42.5075002760" lon="-0.6735324394">
        <ele>1130.17</ele>
        <time>2022-04-15T18:14:05Z</time>
      </trkpt>
      <trkpt lat="42.5075455382" lon="-0.6737262290">
        <ele>1130.17</ele>
        <time>2022-04-15T18:14:17Z</time>
      </trkpt>
      <trkpt lat="42.5075677503" lon="-0.6738545559">
        <ele>1130.17</ele>
        <time>2022-04-15T18:14:28Z</time>
      </trkpt>
      <trkpt lat="42.5075255055" lon="-0.6739025842">
        <ele>1130.65</ele>
        <time>2022-04-15T18:14:39Z</time>
      </trkpt>
      <trkpt lat="42.5074778963" lon="-0.6737556495">
        <ele>1130.65</ele>
        <time>2022-04-15T18:14:54Z</time>
      </trkpt>
      <trkpt lat="42.5074431114" lon="-0.6735424977">
        <ele>1130.65</ele>
        <time>2022-04-15T18:15:09Z</time>
      </trkpt>
      <trkpt lat="42.5074012019" lon="-0.6735828146">
        <ele>1125.84</ele>
        <time>2022-04-15T18:15:17Z</time>
      </trkpt>
      <trkpt lat="42.5074027944" lon="-0.6735809706">
        <ele>1132.09</ele>
        <time>2022-04-15T18:15:18Z</time>
      </trkpt>
      <trkpt lat="42.5073799957" lon="-0.6736256462">
        <ele>1125.84</ele>
        <time>2022-04-15T18:15:32Z</time>
      </trkpt>
      <trkpt lat="42.5073806662" lon="-0.6736309268">
        <ele>1133.53</ele>
        <time>2022-04-15T18:15:33Z</time>
      </trkpt>
      <trkpt lat="42.5073991064" lon="-0.6736312620">
        <ele>1130.17</ele>
        <time>2022-04-15T18:15:35Z</time>
      </trkpt>
      <trkpt lat="42.5074092485" lon="-0.6736256462">
        <ele>1130.17</ele>
        <time>2022-04-15T18:15:36Z</time>
      </trkpt>
      <trkpt lat="42.5086636841" lon="-0.6733277533">
        <ele>1090.75</ele>
        <time>2022-04-16T05:45:20Z</time>
      </trkpt>
      <trkpt lat="42.5087001454" lon="-0.6734953914">
        <ele>1088.83</ele>
        <time>2022-04-16T05:45:38Z</time>
      </trkpt>
      <trkpt lat="42.5087709725" lon="-0.6735342834">
        <ele>1089.31</ele>
        <time>2022-04-16T05:45:52Z</time>
      </trkpt>
      <trkpt lat="42.5088414643" lon="-0.6735278293">
        <ele>1088.35</ele>
        <time>2022-04-16T05:46:07Z</time>
      </trkpt>
      <trkpt lat="42.5089206733" lon="-0.6735002529">
        <ele>1091.71</ele>
        <time>2022-04-16T05:46:19Z</time>
      </trkpt>
      <trkpt lat="42.5090256147" lon="-0.6734274141">
        <ele>1094.12</ele>
        <time>2022-04-16T05:46:32Z</time>
      </trkpt>
      <trkpt lat="42.5091745611" lon="-0.6732939743">
        <ele>1095.08</ele>
        <time>2022-04-16T05:46:50Z</time>
      </trkpt>
      <trkpt lat="42.5092129502" lon="-0.6732771266">
        <ele>1093.64</ele>
        <time>2022-04-16T05:46:54Z</time>
      </trkpt>
      <trkpt lat="42.5093593821" lon="-0.6731753703">
        <ele>1093.16</ele>
        <time>2022-04-16T05:47:10Z</time>
      </trkpt>
      <trkpt lat="42.5095392577" lon="-0.6730560120">
        <ele>1091.71</ele>
        <time>2022-04-16T05:47:27Z</time>
      </trkpt>
      <trkpt lat="42.5096658245" lon="-0.6729564350">
        <ele>1091.23</ele>
        <time>2022-04-16T05:47:41Z</time>
      </trkpt>
      <trkpt lat="42.5097437762" lon="-0.6728466321">
        <ele>1091.71</ele>
        <time>2022-04-16T05:47:53Z</time>
      </trkpt>
      <trkpt lat="42.5097569358" lon="-0.6728330534">
        <ele>1091.71</ele>
        <time>2022-04-16T05:47:54Z</time>
      </trkpt>
      <trkpt lat="42.5098498072" lon="-0.6726886332">
        <ele>1090.27</ele>
        <time>2022-04-16T05:48:08Z</time>
      </trkpt>
      <trkpt lat="42.5099022780" lon="-0.6725736335">
        <ele>1090.27</ele>
        <time>2022-04-16T05:48:21Z</time>
      </trkpt>
      <trkpt lat="42.5100279227" lon="-0.6724969391">
        <ele>1090.27</ele>
        <time>2022-04-16T05:48:34Z</time>
      </trkpt>
      <trkpt lat="42.5101710018" lon="-0.6725224201">
        <ele>1091.71</ele>
        <time>2022-04-16T05:48:49Z</time>
      </trkpt>
      <trkpt lat="42.5101967342" lon="-0.6725492422">
        <ele>1091.71</ele>
        <time>2022-04-16T05:48:52Z</time>
      </trkpt>
      <trkpt lat="42.5104056951" lon="-0.6726016290">
        <ele>1092.68</ele>
        <time>2022-04-16T05:49:08Z</time>
      </trkpt>
      <trkpt lat="42.5105900969" lon="-0.6726584584">
        <ele>1093.64</ele>
        <time>2022-04-16T05:49:23Z</time>
      </trkpt>
      <trkpt lat="42.5108599104" lon="-0.6725571211">
        <ele>1095.08</ele>
        <time>2022-04-16T05:49:38Z</time>
      </trkpt>
      <trkpt lat="42.5109632593" lon="-0.6724831928">
        <ele>1095.56</ele>
        <time>2022-04-16T05:49:50Z</time>
      </trkpt>
      <trkpt lat="42.5111444760" lon="-0.6724211667">
        <ele>1096.52</ele>
        <time>2022-04-16T05:50:06Z</time>
      </trkpt>
      <trkpt lat="42.5112439692" lon="-0.6723997928">
        <ele>1097.48</ele>
        <time>2022-04-16T05:50:15Z</time>
      </trkpt>
      <trkpt lat="42.5113616511" lon="-0.6723688636">
        <ele>1097.96</ele>
        <time>2022-04-16T05:50:25Z</time>
      </trkpt>
      <trkpt lat="42.5115409400" lon="-0.6723268703">
        <ele>1098.92</ele>
        <time>2022-04-16T05:50:40Z</time>
      </trkpt>
      <trkpt lat="42.5117022078" lon="-0.6721915863">
        <ele>1098.92</ele>
        <time>2022-04-16T05:50:58Z</time>
      </trkpt>
      <trkpt lat="42.5118112564" lon="-0.6720630918">
        <ele>1098.92</ele>
        <time>2022-04-16T05:51:14Z</time>
      </trkpt>
      <trkpt lat="42.5118473824" lon="-0.6719761714">
        <ele>1097.48</ele>
        <time>2022-04-16T05:51:20Z</time>
      </trkpt>
      <trkpt lat="42.5118597038" lon="-0.6719496008">
        <ele>1100.37</ele>
        <time>2022-04-16T05:51:22Z</time>
      </trkpt>
      <trkpt lat="42.5118694268" lon="-0.6718954537">
        <ele>1098.92</ele>
        <time>2022-04-16T05:51:26Z</time>
      </trkpt>
      <trkpt lat="42.5119596161" lon="-0.6717674620">
        <ele>1098.44</ele>
        <time>2022-04-16T05:51:41Z</time>
      </trkpt>
      <trkpt lat="42.5120389089" lon="-0.6716405600">
        <ele>1097.48</ele>
        <time>2022-04-16T05:51:55Z</time>
      </trkpt>
      <trkpt lat="42.5121285953" lon="-0.6715780310">
        <ele>1097.00</ele>
        <time>2022-04-16T05:52:05Z</time>
      </trkpt>
      <trkpt lat="42.5121621229" lon="-0.6715604290">
        <ele>1097.00</ele>
        <time>2022-04-16T05:52:07Z</time>
      </trkpt>
      <trkpt lat="42.5124464370" lon="-0.6715415698">
        <ele>1095.08</ele>
        <time>2022-04-16T05:52:24Z</time>
      </trkpt>
      <trkpt lat="42.5127265602" lon="-0.6717426516">
        <ele>1094.12</ele>
        <time>2022-04-16T05:52:40Z</time>
      </trkpt>
      <trkpt lat="42.5129123032" lon="-0.6716645323">
        <ele>1093.64</ele>
        <time>2022-04-16T05:52:57Z</time>
      </trkpt>
      <trkpt lat="42.5130874850" lon="-0.6715448387">
        <ele>1093.16</ele>
        <time>2022-04-16T05:53:16Z</time>
      </trkpt>
      <trkpt lat="42.5132768322" lon="-0.6714277435">
        <ele>1092.20</ele>
        <time>2022-04-16T05:53:34Z</time>
      </trkpt>
      <trkpt lat="42.5133919995" lon="-0.6712987460">
        <ele>1090.75</ele>
        <time>2022-04-16T05:53:49Z</time>
      </trkpt>
      <trkpt lat="42.5135046523" lon="-0.6711637974">
        <ele>1090.75</ele>
        <time>2022-04-16T05:54:04Z</time>
      </trkpt>
      <trkpt lat="42.5136850309" lon="-0.6710743625">
        <ele>1090.75</ele>
        <time>2022-04-16T05:54:21Z</time>
      </trkpt>
      <trkpt lat="42.5138555188" lon="-0.6709590275">
        <ele>1092.68</ele>
        <time>2022-04-16T05:54:37Z</time>
      </trkpt>
      <trkpt lat="42.5140472129" lon="-0.6707708538">
        <ele>1093.16</ele>
        <time>2022-04-16T05:54:55Z</time>
      </trkpt>
      <trkpt lat="42.5140716881" lon="-0.6707571074">
        <ele>1093.16</ele>
        <time>2022-04-16T05:54:58Z</time>
      </trkpt>
      <trkpt lat="42.5141633861" lon="-0.6707669143">
        <ele>1093.64</ele>
        <time>2022-04-16T05:55:04Z</time>
      </trkpt>
      <trkpt lat="42.5142156053" lon="-0.6707961671">
        <ele>1093.64</ele>
        <time>2022-04-16T05:55:08Z</time>
      </trkpt>
      <trkpt lat="42.5143492967" lon="-0.6709508132">
        <ele>1095.08</ele>
        <time>2022-04-16T05:55:22Z</time>
      </trkpt>
      <trkpt lat="42.5143941399" lon="-0.6710213050">
        <ele>1095.56</ele>
        <time>2022-04-16T05:55:28Z</time>
      </trkpt>
      <trkpt lat="42.5144964829" lon="-0.6711634621">
        <ele>1096.04</ele>
        <time>2022-04-16T05:55:42Z</time>
      </trkpt>
      <trkpt lat="42.5145438407" lon="-0.6712518912">
        <ele>1096.52</ele>
        <time>2022-04-16T05:55:50Z</time>
      </trkpt>
      <trkpt lat="42.5146204513" lon="-0.6713690702">
        <ele>1097.96</ele>
        <time>2022-04-16T05:56:04Z</time>
      </trkpt>
      <trkpt lat="42.5147094671" lon="-0.6713924557">
        <ele>1100.37</ele>
        <time>2022-04-16T05:56:19Z</time>
      </trkpt>
      <trkpt lat="42.5147088803" lon="-0.6713247299">
        <ele>1101.81</ele>
        <time>2022-04-16T05:56:32Z</time>
      </trkpt>
      <trkpt lat="42.5146985706" lon="-0.6711838301">
        <ele>1102.77</ele>
        <time>2022-04-16T05:56:47Z</time>
      </trkpt>
      <trkpt lat="42.5146901049" lon="-0.6711069681">
        <ele>1104.69</ele>
        <time>2022-04-16T05:57:04Z</time>
      </trkpt>
      <trkpt lat="42.5146466866" lon="-0.6709187943">
        <ele>1107.10</ele>
        <time>2022-04-16T05:57:20Z</time>
      </trkpt>
      <trkpt lat="42.5145833194" lon="-0.6707339734">
        <ele>1108.54</ele>
        <time>2022-04-16T05:57:33Z</time>
      </trkpt>
      <trkpt lat="42.5145311840" lon="-0.6705439556">
        <ele>1110.94</ele>
        <time>2022-04-16T05:57:50Z</time>
      </trkpt>
      <trkpt lat="42.5145572517" lon="-0.6703255232">
        <ele>1112.38</ele>
        <time>2022-04-16T05:58:05Z</time>
      </trkpt>
      <trkpt lat="42.5145091396" lon="-0.6701089349">
        <ele>1114.31</ele>
        <time>2022-04-16T05:58:21Z</time>
      </trkpt>
      <trkpt lat="42.5144627877" lon="-0.6699392013">
        <ele>1117.67</ele>
        <time>2022-04-16T05:58:37Z</time>
      </trkpt>
      <trkpt lat="42.5143974926" lon="-0.6697615888">
        <ele>1119.11</ele>
        <time>2022-04-16T05:58:50Z</time>
      </trkpt>
      <trkpt lat="42.5143566728" lon="-0.6695505325">
        <ele>1120.55</ele>
        <time>2022-04-16T05:59:05Z</time>
      </trkpt>
      <trkpt lat="42.5142729376" lon="-0.6693924498">
        <ele>1122.48</ele>
        <time>2022-04-16T05:59:20Z</time>
      </trkpt>
      <trkpt lat="42.5141376536" lon="-0.6693988200">
        <ele>1123.44</ele>
        <time>2022-04-16T05:59:36Z</time>
      </trkpt>
      <trkpt lat="42.5140486378" lon="-0.6694850698">
        <ele>1125.36</ele>
        <time>2022-04-16T05:59:50Z</time>
      </trkpt>
      <trkpt lat="42.5139390863" lon="-0.6695807911">
        <ele>1126.80</ele>
        <time>2022-04-16T06:00:05Z</time>
      </trkpt>
      <trkpt lat="42.5138012879" lon="-0.6697027478">
        <ele>1128.73</ele>
        <time>2022-04-16T06:00:21Z</time>
      </trkpt>
      <trkpt lat="42.5137437042" lon="-0.6696770992">
        <ele>1131.13</ele>
        <time>2022-04-16T06:00:37Z</time>
      </trkpt>
      <trkpt lat="42.5137165468" lon="-0.6695082877">
        <ele>1132.57</ele>
        <time>2022-04-16T06:00:52Z</time>
      </trkpt>
      <trkpt lat="42.5137654133" lon="-0.6693476066">
        <ele>1134.49</ele>
        <time>2022-04-16T06:01:06Z</time>
      </trkpt>
      <trkpt lat="42.5138416886" lon="-0.6691886019">
        <ele>1136.42</ele>
        <time>2022-04-16T06:01:20Z</time>
      </trkpt>
      <trkpt lat="42.5139160361" lon="-0.6689455267">
        <ele>1138.34</ele>
        <time>2022-04-16T06:01:35Z</time>
      </trkpt>
      <trkpt lat="42.5139941555" lon="-0.6687183771">
        <ele>1140.26</ele>
        <time>2022-04-16T06:01:50Z</time>
      </trkpt>
      <trkpt lat="42.5139882043" lon="-0.6685208995">
        <ele>1142.66</ele>
        <time>2022-04-16T06:02:06Z</time>
      </trkpt>
      <trkpt lat="42.5139368232" lon="-0.6684458815">
        <ele>1144.59</ele>
        <time>2022-04-16T06:02:16Z</time>
      </trkpt>
      <trkpt lat="42.5139215682" lon="-0.6684512459">
        <ele>1144.59</ele>
        <time>2022-04-16T06:02:28Z</time>
      </trkpt>
      <trkpt lat="42.5139269326" lon="-0.6684343982">
        <ele>1144.59</ele>
        <time>2022-04-16T06:02:48Z</time>
      </trkpt>
      <trkpt lat="42.5139384996" lon="-0.6684274413">
        <ele>1144.59</ele>
        <time>2022-04-16T06:03:06Z</time>
      </trkpt>
      <trkpt lat="42.5139779784" lon="-0.6684117671">
        <ele>1144.59</ele>
        <time>2022-04-16T06:03:28Z</time>
      </trkpt>
      <trkpt lat="42.5140122604" lon="-0.6683989428">
        <ele>1144.59</ele>
        <time>2022-04-16T06:03:47Z</time>
      </trkpt>
      <trkpt lat="42.5140015315" lon="-0.6684337277">
        <ele>1144.59</ele>
        <time>2022-04-16T06:04:04Z</time>
      </trkpt>
      <trkpt lat="42.5140091591" lon="-0.6684031337">
        <ele>1146.51</ele>
        <time>2022-04-16T06:04:23Z</time>
      </trkpt>
      <trkpt lat="42.5140046328" lon="-0.6683888845">
        <ele>1144.59</ele>
        <time>2022-04-16T06:04:48Z</time>
      </trkpt>
      <trkpt lat="42.5140047166" lon="-0.6683903094">
        <ele>1144.59</ele>
        <time>2022-04-16T06:05:13Z</time>
      </trkpt>
      <trkpt lat="42.5139877852" lon="-0.6684085820">
        <ele>1145.07</ele>
        <time>2022-04-16T06:05:39Z</time>
      </trkpt>
      <trkpt lat="42.5140003581" lon="-0.6683792453">
        <ele>1144.59</ele>
        <time>2022-04-16T06:06:10Z</time>
      </trkpt>
      <trkpt lat="42.5140142720" lon="-0.6683931593">
        <ele>1145.07</ele>
        <time>2022-04-16T06:06:41Z</time>
      </trkpt>
      <trkpt lat="42.5140612945" lon="-0.6683518365">
        <ele>1141.70</ele>
        <time>2022-04-16T06:07:00Z</time>
      </trkpt>
      <trkpt lat="42.5140787289" lon="-0.6683403533">
        <ele>1147.95</ele>
        <time>2022-04-16T06:07:01Z</time>
      </trkpt>
      <trkpt lat="42.5140930619" lon="-0.6683244277">
        <ele>1146.51</ele>
        <time>2022-04-16T06:07:02Z</time>
      </trkpt>
      <trkpt lat="42.5141582731" lon="-0.6682585459">
        <ele>1144.11</ele>
        <time>2022-04-16T06:07:09Z</time>
      </trkpt>
      <trkpt lat="42.5142279267" lon="-0.6681235135">
        <ele>1142.66</ele>
        <time>2022-04-16T06:07:21Z</time>
      </trkpt>
      <trkpt lat="42.5142675731" lon="-0.6680334080">
        <ele>1140.74</ele>
        <time>2022-04-16T06:07:32Z</time>
      </trkpt>
      <trkpt lat="42.5142651424" lon="-0.6678552926">
        <ele>1138.82</ele>
        <time>2022-04-16T06:07:47Z</time>
      </trkpt>
      <trkpt lat="42.5142552517" lon="-0.6677429751">
        <ele>1138.34</ele>
        <time>2022-04-16T06:07:55Z</time>
      </trkpt>
      <trkpt lat="42.5142383203" lon="-0.6676483434">
        <ele>1136.90</ele>
        <time>2022-04-16T06:08:03Z</time>
      </trkpt>
      <trkpt lat="42.5142323691" lon="-0.6675908435">
        <ele>1135.94</ele>
        <time>2022-04-16T06:08:08Z</time>
      </trkpt>
      <trkpt lat="42.5141914655" lon="-0.6674056035">
        <ele>1133.53</ele>
        <time>2022-04-16T06:08:23Z</time>
      </trkpt>
      <trkpt lat="42.5141570158" lon="-0.6672864966">
        <ele>1132.09</ele>
        <time>2022-04-16T06:08:37Z</time>
      </trkpt>
      <trkpt lat="42.5141557585" lon="-0.6671714969">
        <ele>1129.21</ele>
        <time>2022-04-16T06:08:49Z</time>
      </trkpt>
      <trkpt lat="42.5141510647" lon="-0.6671395618">
        <ele>1129.21</ele>
        <time>2022-04-16T06:08:52Z</time>
      </trkpt>
      <trkpt lat="42.5141607877" lon="-0.6669952255">
        <ele>1126.80</ele>
        <time>2022-04-16T06:09:06Z</time>
      </trkpt>
      <trkpt lat="42.5141602848" lon="-0.6669849996">
        <ele>1126.32</ele>
        <time>2022-04-16T06:09:07Z</time>
      </trkpt>
      <trkpt lat="42.5141264219" lon="-0.6669694930">
        <ele>1125.36</ele>
        <time>2022-04-16T06:09:12Z</time>
      </trkpt>
      <trkpt lat="42.5140727777" lon="-0.6670994125">
        <ele>1123.92</ele>
        <time>2022-04-16T06:09:27Z</time>
      </trkpt>
      <trkpt lat="42.5140360650" lon="-0.6672781985">
        <ele>1122.00</ele>
        <time>2022-04-16T06:09:42Z</time>
      </trkpt>
      <trkpt lat="42.5139878690" lon="-0.6672945432">
        <ele>1120.55</ele>
        <time>2022-04-16T06:09:52Z</time>
      </trkpt>
      <trkpt lat="42.5139810797" lon="-0.6672118139">
        <ele>1118.63</ele>
        <time>2022-04-16T06:10:02Z</time>
      </trkpt>
      <trkpt lat="42.5139820017" lon="-0.6671947986">
        <ele>1118.63</ele>
        <time>2022-04-16T06:10:03Z</time>
      </trkpt>
      <trkpt lat="42.5139528327" lon="-0.6670261547">
        <ele>1117.19</ele>
        <time>2022-04-16T06:10:15Z</time>
      </trkpt>
      <trkpt lat="42.5139007811" lon="-0.6668589357">
        <ele>1114.79</ele>
        <time>2022-04-16T06:10:29Z</time>
      </trkpt>
      <trkpt lat="42.5138923153" lon="-0.6668497156">
        <ele>1114.31</ele>
        <time>2022-04-16T06:10:30Z</time>
      </trkpt>
      <trkpt lat="42.5138716120" lon="-0.6667942274">
        <ele>1113.34</ele>
        <time>2022-04-16T06:10:35Z</time>
      </trkpt>
      <trkpt lat="42.5138115138" lon="-0.6667793915">
        <ele>1111.42</ele>
        <time>2022-04-16T06:10:47Z</time>
      </trkpt>
      <trkpt lat="42.5137518346" lon="-0.6667926349">
        <ele>1109.50</ele>
        <time>2022-04-16T06:10:55Z</time>
      </trkpt>
      <trkpt lat="42.5136894733" lon="-0.6667658128">
        <ele>1108.54</ele>
        <time>2022-04-16T06:11:01Z</time>
      </trkpt>
      <trkpt lat="42.5136755593" lon="-0.6667482108">
        <ele>1107.58</ele>
        <time>2022-04-16T06:11:03Z</time>
      </trkpt>
      <trkpt lat="42.5136737153" lon="-0.6666310318">
        <ele>1105.17</ele>
        <time>2022-04-16T06:11:16Z</time>
      </trkpt>
      <trkpt lat="42.5137825962" lon="-0.6665445305">
        <ele>1103.25</ele>
        <time>2022-04-16T06:11:29Z</time>
      </trkpt>
      <trkpt lat="42.5138148665" lon="-0.6665238272">
        <ele>1102.77</ele>
        <time>2022-04-16T06:11:32Z</time>
      </trkpt>
      <trkpt lat="42.5138902199" lon="-0.6665177085">
        <ele>1101.81</ele>
        <time>2022-04-16T06:11:38Z</time>
      </trkpt>
      <trkpt lat="42.5139549281" lon="-0.6664621364">
        <ele>1101.33</ele>
        <time>2022-04-16T06:11:45Z</time>
      </trkpt>
      <trkpt lat="42.5140633900" lon="-0.6664479710">
        <ele>1099.40</ele>
        <time>2022-04-16T06:11:58Z</time>
      </trkpt>
      <trkpt lat="42.5141326245" lon="-0.6664610468">
        <ele>1096.04</ele>
        <time>2022-04-16T06:12:12Z</time>
      </trkpt>
      <trkpt lat="42.5141898729" lon="-0.6664867792">
        <ele>1094.12</ele>
        <time>2022-04-16T06:12:25Z</time>
      </trkpt>
      <trkpt lat="42.5142780505" lon="-0.6665343046">
        <ele>1092.20</ele>
        <time>2022-04-16T06:12:37Z</time>
      </trkpt>
      <trkpt lat="42.5142939761" lon="-0.6665569358">
        <ele>1091.71</ele>
        <time>2022-04-16T06:12:39Z</time>
      </trkpt>
      <trkpt lat="42.5144152623" lon="-0.6665808242">
        <ele>1088.83</ele>
        <time>2022-04-16T06:12:54Z</time>
      </trkpt>
      <trkpt lat="42.5144816469" lon="-0.6665410940">
        <ele>1087.39</ele>
        <time>2022-04-16T06:13:05Z</time>
      </trkpt>
      <trkpt lat="42.5145047810" lon="-0.6665205583">
        <ele>1086.91</ele>
        <time>2022-04-16T06:13:08Z</time>
      </trkpt>
      <trkpt lat="42.5146095548" lon="-0.6665431894">
        <ele>1084.50</ele>
        <time>2022-04-16T06:13:21Z</time>
      </trkpt>
      <trkpt lat="42.5146930385" lon="-0.6665203907">
        <ele>1080.66</ele>
        <time>2022-04-16T06:13:37Z</time>
      </trkpt>
      <trkpt lat="42.5147948787" lon="-0.6664737035">
        <ele>1077.78</ele>
        <time>2022-04-16T06:13:50Z</time>
      </trkpt>
      <trkpt lat="42.5148885045" lon="-0.6664653216">
        <ele>1075.85</ele>
        <time>2022-04-16T06:14:03Z</time>
      </trkpt>
      <trkpt lat="42.5149201881" lon="-0.6664545089">
        <ele>1074.41</ele>
        <time>2022-04-16T06:14:11Z</time>
      </trkpt>
      <trkpt lat="42.5148056913" lon="-0.6663426105">
        <ele>1071.53</ele>
        <time>2022-04-16T06:14:29Z</time>
      </trkpt>
      <trkpt lat="42.5147817191" lon="-0.6663387548">
        <ele>1071.53</ele>
        <time>2022-04-16T06:14:32Z</time>
      </trkpt>
      <trkpt lat="42.5147168431" lon="-0.6663336419">
        <ele>1070.08</ele>
        <time>2022-04-16T06:14:39Z</time>
      </trkpt>
      <trkpt lat="42.5147228781" lon="-0.6662928220">
        <ele>1067.68</ele>
        <time>2022-04-16T06:14:51Z</time>
      </trkpt>
      <trkpt lat="42.5147965550" lon="-0.6662507448">
        <ele>1066.24</ele>
        <time>2022-04-16T06:15:03Z</time>
      </trkpt>
      <trkpt lat="42.5147574954" lon="-0.6661869586">
        <ele>1064.32</ele>
        <time>2022-04-16T06:15:16Z</time>
      </trkpt>
      <trkpt lat="42.5146609358" lon="-0.6661641598">
        <ele>1061.43</ele>
        <time>2022-04-16T06:15:31Z</time>
      </trkpt>
      <trkpt lat="42.5145705789" lon="-0.6661229208">
        <ele>1059.51</ele>
        <time>2022-04-16T06:15:43Z</time>
      </trkpt>
      <trkpt lat="42.5145980716" lon="-0.6661148742">
        <ele>1056.63</ele>
        <time>2022-04-16T06:15:58Z</time>
      </trkpt>
      <trkpt lat="42.5146667194" lon="-0.6660750601">
        <ele>1053.74</ele>
        <time>2022-04-16T06:16:10Z</time>
      </trkpt>
      <trkpt lat="42.5147130713" lon="-0.6659618206">
        <ele>1050.86</ele>
        <time>2022-04-16T06:16:24Z</time>
      </trkpt>
      <trkpt lat="42.5146374665" lon="-0.6659425423">
        <ele>1048.94</ele>
        <time>2022-04-16T06:16:37Z</time>
      </trkpt>
      <trkpt lat="42.5145779550" lon="-0.6658962741">
        <ele>1046.53</ele>
        <time>2022-04-16T06:16:49Z</time>
      </trkpt>
      <trkpt lat="42.5144946389" lon="-0.6657852978">
        <ele>1043.65</ele>
        <time>2022-04-16T06:17:02Z</time>
      </trkpt>
      <trkpt lat="42.5145155936" lon="-0.6657607388">
        <ele>1040.28</ele>
        <time>2022-04-16T06:17:19Z</time>
      </trkpt>
      <trkpt lat="42.5146122370" lon="-0.6657707132">
        <ele>1037.40</ele>
        <time>2022-04-16T06:17:34Z</time>
      </trkpt>
      <trkpt lat="42.5146833155" lon="-0.6656978745">
        <ele>1034.52</ele>
        <time>2022-04-16T06:17:49Z</time>
      </trkpt>
      <trkpt lat="42.5147560704" lon="-0.6656599045">
        <ele>1031.63</ele>
        <time>2022-04-16T06:18:03Z</time>
      </trkpt>
      <trkpt lat="42.5148212817" lon="-0.6655883230">
        <ele>1029.23</ele>
        <time>2022-04-16T06:18:19Z</time>
      </trkpt>
      <trkpt lat="42.5149312522" lon="-0.6655274704">
        <ele>1025.86</ele>
        <time>2022-04-16T06:18:34Z</time>
      </trkpt>
      <trkpt lat="42.5150402170" lon="-0.6654701382">
        <ele>1023.94</ele>
        <time>2022-04-16T06:18:48Z</time>
      </trkpt>
      <trkpt lat="42.5150948670" lon="-0.6653837208">
        <ele>1021.54</ele>
        <time>2022-04-16T06:19:04Z</time>
      </trkpt>
      <trkpt lat="42.5151769258" lon="-0.6653622631">
        <ele>1019.13</ele>
        <time>2022-04-16T06:19:21Z</time>
      </trkpt>
      <trkpt lat="42.5152407121" lon="-0.6653901748">
        <ele>1016.73</ele>
        <time>2022-04-16T06:19:34Z</time>
      </trkpt>
      <trkpt lat="42.5152086932" lon="-0.6654342636">
        <ele>1014.81</ele>
        <time>2022-04-16T06:19:46Z</time>
      </trkpt>
      <trkpt lat="42.5151959527" lon="-0.6655335054">
        <ele>1011.93</ele>
        <time>2022-04-16T06:20:00Z</time>
      </trkpt>
      <trkpt lat="42.5152683724" lon="-0.6657233555">
        <ele>1010.48</ele>
        <time>2022-04-16T06:20:14Z</time>
      </trkpt>
      <trkpt lat="42.5153476652" lon="-0.6658391096">
        <ele>1007.12</ele>
        <time>2022-04-16T06:20:25Z</time>
      </trkpt>
      <trkpt lat="42.5153696258" lon="-0.6658865511">
        <ele>1007.12</ele>
        <time>2022-04-16T06:20:29Z</time>
      </trkpt>
      <trkpt lat="42.5153916702" lon="-0.6659549475">
        <ele>1006.64</ele>
        <time>2022-04-16T06:20:35Z</time>
      </trkpt>
      <trkpt lat="42.5153948553" lon="-0.6659858767">
        <ele>1006.16</ele>
        <time>2022-04-16T06:20:38Z</time>
      </trkpt>
      <trkpt lat="42.5155310612" lon="-0.6661479827">
        <ele>1004.23</ele>
        <time>2022-04-16T06:20:54Z</time>
      </trkpt>
      <trkpt lat="42.5155499205" lon="-0.6661642436">
        <ele>1003.75</ele>
        <time>2022-04-16T06:20:57Z</time>
      </trkpt>
      <trkpt lat="42.5157217495" lon="-0.6662619766">
        <ele>1000.87</ele>
        <time>2022-04-16T06:21:14Z</time>
      </trkpt>
      <trkpt lat="42.5158663373" lon="-0.6663357373">
        <ele>1000.39</ele>
        <time>2022-04-16T06:21:26Z</time>
      </trkpt>
      <trkpt lat="42.5160450395" lon="-0.6664075702">
        <ele>1000.39</ele>
        <time>2022-04-16T06:21:39Z</time>
      </trkpt>
      <trkpt lat="42.5161105022" lon="-0.6664601248">
        <ele>999.91</ele>
        <time>2022-04-16T06:21:48Z</time>
      </trkpt>
      <trkpt lat="42.5162012782" lon="-0.6665612105">
        <ele>998.95</ele>
        <time>2022-04-16T06:21:56Z</time>
      </trkpt>
      <trkpt lat="42.5163414236" lon="-0.6667353865">
        <ele>997.51</ele>
        <time>2022-04-16T06:22:13Z</time>
      </trkpt>
      <trkpt lat="42.5163698383" lon="-0.6667624600">
        <ele>996.54</ele>
        <time>2022-04-16T06:22:16Z</time>
      </trkpt>
      <trkpt lat="42.5164091494" lon="-0.6667824090">
        <ele>995.58</ele>
        <time>2022-04-16T06:22:20Z</time>
      </trkpt>
      <trkpt lat="42.5165005960" lon="-0.6667954009">
        <ele>992.22</ele>
        <time>2022-04-16T06:22:30Z</time>
      </trkpt>
      <trkpt lat="42.5165334530" lon="-0.6667548325">
        <ele>991.74</ele>
        <time>2022-04-16T06:22:34Z</time>
      </trkpt>
      <trkpt lat="42.5165859237" lon="-0.6667656451">
        <ele>990.30</ele>
        <time>2022-04-16T06:22:38Z</time>
      </trkpt>
      <trkpt lat="42.5167020969" lon="-0.6667284295">
        <ele>987.89</ele>
        <time>2022-04-16T06:22:52Z</time>
      </trkpt>
      <trkpt lat="42.5167547353" lon="-0.6667294353">
        <ele>985.97</ele>
        <time>2022-04-16T06:22:58Z</time>
      </trkpt>
      <trkpt lat="42.5168337766" lon="-0.6667850073">
        <ele>983.57</ele>
        <time>2022-04-16T06:23:11Z</time>
      </trkpt>
      <trkpt lat="42.5169068668" lon="-0.6668175291">
        <ele>981.64</ele>
        <time>2022-04-16T06:23:24Z</time>
      </trkpt>
      <trkpt lat="42.5169559009" lon="-0.6668415852">
        <ele>979.72</ele>
        <time>2022-04-16T06:23:37Z</time>
      </trkpt>
      <trkpt lat="42.5170316733" lon="-0.6668954808">
        <ele>977.32</ele>
        <time>2022-04-16T06:23:50Z</time>
      </trkpt>
      <trkpt lat="42.5170978904" lon="-0.6669643801">
        <ele>974.91</ele>
        <time>2022-04-16T06:24:01Z</time>
      </trkpt>
      <trkpt lat="42.5171620119" lon="-0.6669687387">
        <ele>973.47</ele>
        <time>2022-04-16T06:24:08Z</time>
      </trkpt>
      <trkpt lat="42.5172088668" lon="-0.6669383962">
        <ele>971.55</ele>
        <time>2022-04-16T06:24:13Z</time>
      </trkpt>
      <trkpt lat="42.5172285642" lon="-0.6669426709">
        <ele>971.55</ele>
        <time>2022-04-16T06:24:15Z</time>
      </trkpt>
      <trkpt lat="42.5173304882" lon="-0.6669416651">
        <ele>969.15</ele>
        <time>2022-04-16T06:24:26Z</time>
      </trkpt>
      <trkpt lat="42.5173916761" lon="-0.6669207104">
        <ele>967.22</ele>
        <time>2022-04-16T06:24:38Z</time>
      </trkpt>
      <trkpt lat="42.5174344238" lon="-0.6669233087">
        <ele>966.26</ele>
        <time>2022-04-16T06:24:51Z</time>
      </trkpt>
      <trkpt lat="42.5174582284" lon="-0.6669285893">
        <ele>965.78</ele>
        <time>2022-04-16T06:25:11Z</time>
      </trkpt>
      <trkpt lat="42.5174615812" lon="-0.6669430900">
        <ele>965.78</ele>
        <time>2022-04-16T06:25:28Z</time>
      </trkpt>
      <trkpt lat="42.5174405426" lon="-0.6670652144">
        <ele>964.34</ele>
        <time>2022-04-16T06:25:42Z</time>
      </trkpt>
      <trkpt lat="42.5174847152" lon="-0.6671045255">
        <ele>963.38</ele>
        <time>2022-04-16T06:25:53Z</time>
      </trkpt>
      <trkpt lat="42.5175082684" lon="-0.6670772843">
        <ele>962.42</ele>
        <time>2022-04-16T06:25:56Z</time>
      </trkpt>
      <trkpt lat="42.5175649300" lon="-0.6670110673">
        <ele>960.98</ele>
        <time>2022-04-16T06:26:07Z</time>
      </trkpt>
      <trkpt lat="42.5175822806" lon="-0.6669849157">
        <ele>960.49</ele>
        <time>2022-04-16T06:26:11Z</time>
      </trkpt>
      <trkpt lat="42.5176446419" lon="-0.6670040265">
        <ele>958.57</ele>
        <time>2022-04-16T06:26:21Z</time>
      </trkpt>
      <trkpt lat="42.5177355018" lon="-0.6669820659">
        <ele>955.69</ele>
        <time>2022-04-16T06:26:38Z</time>
      </trkpt>
      <trkpt lat="42.5178334024" lon="-0.6669587642">
        <ele>953.28</ele>
        <time>2022-04-16T06:26:52Z</time>
      </trkpt>
      <trkpt lat="42.5178487413" lon="-0.6669528969">
        <ele>952.80</ele>
        <time>2022-04-16T06:26:54Z</time>
      </trkpt>
      <trkpt lat="42.5179503299" lon="-0.6668871827">
        <ele>950.88</ele>
        <time>2022-04-16T06:27:07Z</time>
      </trkpt>
      <trkpt lat="42.5179735478" lon="-0.6668426748">
        <ele>949.92</ele>
        <time>2022-04-16T06:27:12Z</time>
      </trkpt>
      <trkpt lat="42.5180226658" lon="-0.6668177806">
        <ele>949.44</ele>
        <time>2022-04-16T06:27:19Z</time>
      </trkpt>
      <trkpt lat="42.5181049760" lon="-0.6667565089">
        <ele>948.00</ele>
        <time>2022-04-16T06:27:32Z</time>
      </trkpt>
      <trkpt lat="42.5182050560" lon="-0.6667681597">
        <ele>946.56</ele>
        <time>2022-04-16T06:27:42Z</time>
      </trkpt>
      <trkpt lat="42.5183689222" lon="-0.6668176129">
        <ele>943.67</ele>
        <time>2022-04-16T06:27:57Z</time>
      </trkpt>
      <trkpt lat="42.5184716843" lon="-0.6667566765">
        <ele>941.75</ele>
        <time>2022-04-16T06:28:12Z</time>
      </trkpt>
      <trkpt lat="42.5186146796" lon="-0.6667319499">
        <ele>938.86</ele>
        <time>2022-04-16T06:28:27Z</time>
      </trkpt>
      <trkpt lat="42.5186900329" lon="-0.6667358056">
        <ele>937.90</ele>
        <time>2022-04-16T06:28:35Z</time>
      </trkpt>
      <trkpt lat="42.5187998358" lon="-0.6667981669">
        <ele>934.54</ele>
        <time>2022-04-16T06:28:50Z</time>
      </trkpt>
      <trkpt lat="42.5188705791" lon="-0.6668394897">
        <ele>933.10</ele>
        <time>2022-04-16T06:28:59Z</time>
      </trkpt>
      <trkpt lat="42.5189906918" lon="-0.6668939721">
        <ele>930.21</ele>
        <time>2022-04-16T06:29:14Z</time>
      </trkpt>
      <trkpt lat="42.5190244708" lon="-0.6669217162">
        <ele>928.77</ele>
        <time>2022-04-16T06:29:18Z</time>
      </trkpt>
      <trkpt lat="42.5190587528" lon="-0.6669654697">
        <ele>928.77</ele>
        <time>2022-04-16T06:29:22Z</time>
      </trkpt>
      <trkpt lat="42.5190553162" lon="-0.6670131627">
        <ele>927.81</ele>
        <time>2022-04-16T06:29:26Z</time>
      </trkpt>
      <trkpt lat="42.5190143287" lon="-0.6671049446">
        <ele>926.37</ele>
        <time>2022-04-16T06:29:35Z</time>
      </trkpt>
      <trkpt lat="42.5190005824" lon="-0.6671390589">
        <ele>925.89</ele>
        <time>2022-04-16T06:29:38Z</time>
      </trkpt>
      <trkpt lat="42.5189714972" lon="-0.6671728380">
        <ele>925.41</ele>
        <time>2022-04-16T06:29:42Z</time>
      </trkpt>
      <trkpt lat="42.5189274084" lon="-0.6672850717">
        <ele>923.00</ele>
        <time>2022-04-16T06:29:55Z</time>
      </trkpt>
      <trkpt lat="42.5188797154" lon="-0.6673780270">
        <ele>921.08</ele>
        <time>2022-04-16T06:30:06Z</time>
      </trkpt>
      <trkpt lat="42.5188815594" lon="-0.6674052682">
        <ele>921.08</ele>
        <time>2022-04-16T06:30:08Z</time>
      </trkpt>
      <trkpt lat="42.5188854989" lon="-0.6674412265">
        <ele>920.60</ele>
        <time>2022-04-16T06:30:11Z</time>
      </trkpt>
      <trkpt lat="42.5188631192" lon="-0.6674828846">
        <ele>919.64</ele>
        <time>2022-04-16T06:30:16Z</time>
      </trkpt>
      <trkpt lat="42.5188479479" lon="-0.6676405482">
        <ele>917.24</ele>
        <time>2022-04-16T06:30:30Z</time>
      </trkpt>
      <trkpt lat="42.5188165996" lon="-0.6677915901">
        <ele>915.31</ele>
        <time>2022-04-16T06:30:45Z</time>
      </trkpt>
      <trkpt lat="42.5188319385" lon="-0.6679216772">
        <ele>912.43</ele>
        <time>2022-04-16T06:30:59Z</time>
      </trkpt>
      <trkpt lat="42.5188357942" lon="-0.6681033131">
        <ele>910.99</ele>
        <time>2022-04-16T06:31:12Z</time>
      </trkpt>
      <trkpt lat="42.5188538153" lon="-0.6681421213">
        <ele>910.51</ele>
        <time>2022-04-16T06:31:16Z</time>
      </trkpt>
      <trkpt lat="42.5188655499" lon="-0.6681952626">
        <ele>910.03</ele>
        <time>2022-04-16T06:31:20Z</time>
      </trkpt>
      <trkpt lat="42.5189332757" lon="-0.6683360785">
        <ele>908.58</ele>
        <time>2022-04-16T06:31:34Z</time>
      </trkpt>
      <trkpt lat="42.5190087967" lon="-0.6684370805">
        <ele>907.14</ele>
        <time>2022-04-16T06:31:44Z</time>
      </trkpt>
      <trkpt lat="42.5191647001" lon="-0.6684868690">
        <ele>906.66</ele>
        <time>2022-04-16T06:32:00Z</time>
      </trkpt>
      <trkpt lat="42.5191814639" lon="-0.6685201451">
        <ele>906.18</ele>
        <time>2022-04-16T06:32:33Z</time>
      </trkpt>
      <trkpt lat="42.5192123093" lon="-0.6685260963">
        <ele>906.18</ele>
        <time>2022-04-16T06:33:07Z</time>
      </trkpt>
      <trkpt lat="42.5193309132" lon="-0.6685941573">
        <ele>905.70</ele>
        <time>2022-04-16T06:33:19Z</time>
      </trkpt>
      <trkpt lat="42.5194511935" lon="-0.6686584465">
        <ele>904.74</ele>
        <time>2022-04-16T06:33:32Z</time>
      </trkpt>
      <trkpt lat="42.5195650198" lon="-0.6687339675">
        <ele>903.78</ele>
        <time>2022-04-16T06:33:44Z</time>
      </trkpt>
      <trkpt lat="42.5196389481" lon="-0.6687736139">
        <ele>901.85</ele>
        <time>2022-04-16T06:33:56Z</time>
      </trkpt>
      <trkpt lat="42.5197594799" lon="-0.6688282639">
        <ele>900.41</ele>
        <time>2022-04-16T06:34:07Z</time>
      </trkpt>
      <trkpt lat="42.5198070053" lon="-0.6688399985">
        <ele>899.93</ele>
        <time>2022-04-16T06:34:11Z</time>
      </trkpt>
      <trkpt lat="42.5199294649" lon="-0.6689383183">
        <ele>898.01</ele>
        <time>2022-04-16T06:34:24Z</time>
      </trkpt>
      <trkpt lat="42.5200100150" lon="-0.6690163538">
        <ele>897.05</ele>
        <time>2022-04-16T06:34:35Z</time>
      </trkpt>
      <trkpt lat="42.5200397708" lon="-0.6690411642">
        <ele>896.57</ele>
        <time>2022-04-16T06:34:53Z</time>
      </trkpt>
      <trkpt lat="42.5201150402" lon="-0.6690900307">
        <ele>895.61</ele>
        <time>2022-04-16T06:35:02Z</time>
      </trkpt>
      <trkpt lat="42.5202364940" lon="-0.6691455189">
        <ele>893.68</ele>
        <time>2022-04-16T06:35:13Z</time>
      </trkpt>
      <trkpt lat="42.5203267671" lon="-0.6693091337">
        <ele>891.76</ele>
        <time>2022-04-16T06:35:28Z</time>
      </trkpt>
      <trkpt lat="42.5204450358" lon="-0.6694074534">
        <ele>888.88</ele>
        <time>2022-04-16T06:35:44Z</time>
      </trkpt>
      <trkpt lat="42.5204552617" lon="-0.6694150809">
        <ele>888.40</ele>
        <time>2022-04-16T06:35:45Z</time>
      </trkpt>
      <trkpt lat="42.5204889569" lon="-0.6694543920">
        <ele>888.40</ele>
        <time>2022-04-16T06:35:49Z</time>
      </trkpt>
      <trkpt lat="42.5205667410" lon="-0.6695332658">
        <ele>885.99</ele>
        <time>2022-04-16T06:36:00Z</time>
      </trkpt>
      <trkpt lat="42.5206762087" lon="-0.6696348544">
        <ele>883.59</ele>
        <time>2022-04-16T06:36:13Z</time>
      </trkpt>
      <trkpt lat="42.5206977502" lon="-0.6696473435">
        <ele>883.59</ele>
        <time>2022-04-16T06:36:15Z</time>
      </trkpt>
      <trkpt lat="42.5208071340" lon="-0.6697941106">
        <ele>880.71</ele>
        <time>2022-04-16T06:36:30Z</time>
      </trkpt>
      <trkpt lat="42.5208856724" lon="-0.6699041650">
        <ele>878.78</ele>
        <time>2022-04-16T06:36:43Z</time>
      </trkpt>
      <trkpt lat="42.5209792145" lon="-0.6700116210">
        <ele>876.38</ele>
        <time>2022-04-16T06:36:56Z</time>
      </trkpt>
      <trkpt lat="42.5209873449" lon="-0.6700376049">
        <ele>875.90</ele>
        <time>2022-04-16T06:36:59Z</time>
      </trkpt>
      <trkpt lat="42.5210314337" lon="-0.6701494195">
        <ele>873.98</ele>
        <time>2022-04-16T06:37:12Z</time>
      </trkpt>
      <trkpt lat="42.5210071262" lon="-0.6702608149">
        <ele>872.05</ele>
        <time>2022-04-16T06:37:25Z</time>
      </trkpt>
      <trkpt lat="42.5210066233" lon="-0.6703516748">
        <ele>870.61</ele>
        <time>2022-04-16T06:37:32Z</time>
      </trkpt>
      <trkpt lat="42.5210156757" lon="-0.6703949254">
        <ele>869.65</ele>
        <time>2022-04-16T06:37:35Z</time>
      </trkpt>
      <trkpt lat="42.5209936313" lon="-0.6705447100">
        <ele>867.25</ele>
        <time>2022-04-16T06:37:50Z</time>
      </trkpt>
      <trkpt lat="42.5210022647" lon="-0.6705754716">
        <ele>866.29</ele>
        <time>2022-04-16T06:37:53Z</time>
      </trkpt>
      <trkpt lat="42.5210415758" lon="-0.6707531679">
        <ele>863.40</ele>
        <time>2022-04-16T06:38:07Z</time>
      </trkpt>
      <trkpt lat="42.5210379716" lon="-0.6707991008">
        <ele>862.92</ele>
        <time>2022-04-16T06:38:11Z</time>
      </trkpt>
      <trkpt lat="42.5209984928" lon="-0.6709635537">
        <ele>861.96</ele>
        <time>2022-04-16T06:38:23Z</time>
      </trkpt>
      <trkpt lat="42.5209994987" lon="-0.6710280105">
        <ele>861.48</ele>
        <time>2022-04-16T06:38:29Z</time>
      </trkpt>
      <trkpt lat="42.5210133288" lon="-0.6711548287">
        <ele>859.56</ele>
        <time>2022-04-16T06:38:40Z</time>
      </trkpt>
      <trkpt lat="42.5210445095" lon="-0.6713329442">
        <ele>857.15</ele>
        <time>2022-04-16T06:38:55Z</time>
      </trkpt>
      <trkpt lat="42.5210725050" lon="-0.6714349519">
        <ele>855.71</ele>
        <time>2022-04-16T06:39:04Z</time>
      </trkpt>
      <trkpt lat="42.5210569985" lon="-0.6715866644">
        <ele>854.27</ele>
        <time>2022-04-16T06:39:17Z</time>
      </trkpt>
      <trkpt lat="42.5210419111" lon="-0.6716526300">
        <ele>853.79</ele>
        <time>2022-04-16T06:39:24Z</time>
      </trkpt>
      <trkpt lat="42.5210302602" lon="-0.6718179211">
        <ele>851.38</ele>
        <time>2022-04-16T06:39:39Z</time>
      </trkpt>
      <trkpt lat="42.5210639555" lon="-0.6719881576">
        <ele>848.98</ele>
        <time>2022-04-16T06:39:56Z</time>
      </trkpt>
      <trkpt lat="42.5211065356" lon="-0.6720985472">
        <ele>846.58</ele>
        <time>2022-04-16T06:40:09Z</time>
      </trkpt>
      <trkpt lat="42.5211833138" lon="-0.6721669436">
        <ele>844.18</ele>
        <time>2022-04-16T06:40:23Z</time>
      </trkpt>
      <trkpt lat="42.5212238822" lon="-0.6722728070">
        <ele>842.25</ele>
        <time>2022-04-16T06:40:38Z</time>
      </trkpt>
      <trkpt lat="42.5212475192" lon="-0.6723678578">
        <ele>840.33</ele>
        <time>2022-04-16T06:40:49Z</time>
      </trkpt>
      <trkpt lat="42.5212843996" lon="-0.6724336557">
        <ele>837.93</ele>
        <time>2022-04-16T06:41:02Z</time>
      </trkpt>
      <trkpt lat="42.5212968048" lon="-0.6725501642">
        <ele>835.52</ele>
        <time>2022-04-16T06:41:16Z</time>
      </trkpt>
      <trkpt lat="42.5212954637" lon="-0.6727075763">
        <ele>832.64</ele>
        <time>2022-04-16T06:41:32Z</time>
      </trkpt>
      <trkpt lat="42.5213185977" lon="-0.6728223246">
        <ele>830.72</ele>
        <time>2022-04-16T06:41:45Z</time>
      </trkpt>
      <trkpt lat="42.5213575736" lon="-0.6729016174">
        <ele>828.31</ele>
        <time>2022-04-16T06:42:00Z</time>
      </trkpt>
      <trkpt lat="42.5213734154" lon="-0.6729932316">
        <ele>826.39</ele>
        <time>2022-04-16T06:42:12Z</time>
      </trkpt>
      <trkpt lat="42.5213840604" lon="-0.6731214747">
        <ele>824.47</ele>
        <time>2022-04-16T06:42:25Z</time>
      </trkpt>
      <trkpt lat="42.5213962980" lon="-0.6731757056">
        <ele>823.03</ele>
        <time>2022-04-16T06:42:31Z</time>
      </trkpt>
      <trkpt lat="42.5214073621" lon="-0.6732915435">
        <ele>820.62</ele>
        <time>2022-04-16T06:42:45Z</time>
      </trkpt>
      <trkpt lat="42.5214432366" lon="-0.6734369695">
        <ele>818.22</ele>
        <time>2022-04-16T06:42:59Z</time>
      </trkpt>
      <trkpt lat="42.5214621797" lon="-0.6735057849">
        <ele>816.30</ele>
        <time>2022-04-16T06:43:10Z</time>
      </trkpt>
      <trkpt lat="42.5215109624" lon="-0.6735766120">
        <ele>814.85</ele>
        <time>2022-04-16T06:43:21Z</time>
      </trkpt>
      <trkpt lat="42.5214833021" lon="-0.6736947130">
        <ele>811.97</ele>
        <time>2022-04-16T06:43:34Z</time>
      </trkpt>
      <trkpt lat="42.5215140637" lon="-0.6737244688">
        <ele>809.09</ele>
        <time>2022-04-16T06:43:47Z</time>
      </trkpt>
      <trkpt lat="42.5215192605" lon="-0.6737204455">
        <ele>809.09</ele>
        <time>2022-04-16T06:43:48Z</time>
      </trkpt>
      <trkpt lat="42.5215252955" lon="-0.6737168413">
        <ele>809.09</ele>
        <time>2022-04-16T06:43:49Z</time>
      </trkpt>
      <trkpt lat="42.5215701386" lon="-0.6737400591">
        <ele>807.16</ele>
        <time>2022-04-16T06:44:01Z</time>
      </trkpt>
      <trkpt lat="42.5216040853" lon="-0.6738150772">
        <ele>804.76</ele>
        <time>2022-04-16T06:44:15Z</time>
      </trkpt>
      <trkpt lat="42.5216281414" lon="-0.6738985609">
        <ele>801.88</ele>
        <time>2022-04-16T06:44:28Z</time>
      </trkpt>
      <trkpt lat="42.5216018222" lon="-0.6740367785">
        <ele>799.95</ele>
        <time>2022-04-16T06:44:42Z</time>
      </trkpt>
      <trkpt lat="42.5215956196" lon="-0.6740738265">
        <ele>798.99</ele>
        <time>2022-04-16T06:44:45Z</time>
      </trkpt>
      <trkpt lat="42.5215714797" lon="-0.6741557177">
        <ele>798.51</ele>
        <time>2022-04-16T06:44:51Z</time>
      </trkpt>
      <trkpt lat="42.5215716474" lon="-0.6743117049">
        <ele>796.59</ele>
        <time>2022-04-16T06:45:06Z</time>
      </trkpt>
      <trkpt lat="42.5216094498" lon="-0.6744818576">
        <ele>794.19</ele>
        <time>2022-04-16T06:45:25Z</time>
      </trkpt>
      <trkpt lat="42.5216599926" lon="-0.6745797582">
        <ele>791.78</ele>
        <time>2022-04-16T06:45:39Z</time>
      </trkpt>
      <trkpt lat="42.5217330828" lon="-0.6745763216">
        <ele>788.42</ele>
        <time>2022-04-16T06:45:53Z</time>
      </trkpt>
      <trkpt lat="42.5218028203" lon="-0.6745008007">
        <ele>787.46</ele>
        <time>2022-04-16T06:46:04Z</time>
      </trkpt>
      <trkpt lat="42.5218205899" lon="-0.6744768284">
        <ele>790.82</ele>
        <time>2022-04-16T06:46:06Z</time>
      </trkpt>
      <trkpt lat="42.5218282174" lon="-0.6744669378">
        <ele>790.82</ele>
        <time>2022-04-16T06:46:07Z</time>
      </trkpt>
      <trkpt lat="42.5218421314" lon="-0.6744481623">
        <ele>788.42</ele>
        <time>2022-04-16T06:46:09Z</time>
      </trkpt>
      <trkpt lat="42.5218628347" lon="-0.6744088512">
        <ele>787.94</ele>
        <time>2022-04-16T06:46:12Z</time>
      </trkpt>
      <trkpt lat="42.5218676124" lon="-0.6743501779">
        <ele>787.94</ele>
        <time>2022-04-16T06:46:15Z</time>
      </trkpt>
      <trkpt lat="42.5219861325" lon="-0.6741946936">
        <ele>786.50</ele>
        <time>2022-04-16T06:46:27Z</time>
      </trkpt>
      <trkpt lat="42.5220569596" lon="-0.6740370300">
        <ele>785.53</ele>
        <time>2022-04-16T06:46:42Z</time>
      </trkpt>
      <trkpt lat="42.5221971050" lon="-0.6739007402">
        <ele>783.13</ele>
        <time>2022-04-16T06:46:57Z</time>
      </trkpt>
      <trkpt lat="42.5222848635" lon="-0.6738491915">
        <ele>782.17</ele>
        <time>2022-04-16T06:47:09Z</time>
      </trkpt>
      <trkpt lat="42.5224076584" lon="-0.6738669612">
        <ele>781.21</ele>
        <time>2022-04-16T06:47:23Z</time>
      </trkpt>
      <trkpt lat="42.5225659925" lon="-0.6737891771">
        <ele>780.73</ele>
        <time>2022-04-16T06:47:37Z</time>
      </trkpt>
      <trkpt lat="42.5227256678" lon="-0.6738346908">
        <ele>780.73</ele>
        <time>2022-04-16T06:47:51Z</time>
      </trkpt>
      <trkpt lat="42.5227999315" lon="-0.6738622673">
        <ele>780.73</ele>
        <time>2022-04-16T06:47:57Z</time>
      </trkpt>
      <trkpt lat="42.5228622928" lon="-0.6739400513">
        <ele>780.73</ele>
        <time>2022-04-16T06:48:07Z</time>
      </trkpt>
      <trkpt lat="42.5229022745" lon="-0.6742170732">
        <ele>780.73</ele>
        <time>2022-04-16T06:48:24Z</time>
      </trkpt>
      <trkpt lat="42.5229233969" lon="-0.6742540374">
        <ele>782.17</ele>
        <time>2022-04-16T06:48:27Z</time>
      </trkpt>
      <trkpt lat="42.5230029412" lon="-0.6743431371">
        <ele>783.13</ele>
        <time>2022-04-16T06:48:42Z</time>
      </trkpt>
      <trkpt lat="42.5230347086" lon="-0.6744630821">
        <ele>783.61</ele>
        <time>2022-04-16T06:48:53Z</time>
      </trkpt>
      <trkpt lat="42.5230254885" lon="-0.6745918281">
        <ele>785.53</ele>
        <time>2022-04-16T06:49:06Z</time>
      </trkpt>
      <trkpt lat="42.5230140053" lon="-0.6745144632">
        <ele>784.09</ele>
        <time>2022-04-16T06:49:16Z</time>
      </trkpt>
      <trkpt lat="42.5229902845" lon="-0.6744760741">
        <ele>783.61</ele>
        <time>2022-04-16T06:49:19Z</time>
      </trkpt>
      <trkpt lat="42.5228896178" lon="-0.6742836256">
        <ele>782.65</ele>
        <time>2022-04-16T06:49:33Z</time>
      </trkpt>
      <trkpt lat="42.5228560902" lon="-0.6739662867">
        <ele>781.21</ele>
        <time>2022-04-16T06:49:50Z</time>
      </trkpt>
      <trkpt lat="42.5228415057" lon="-0.6739087868">
        <ele>780.73</ele>
        <time>2022-04-16T06:49:54Z</time>
      </trkpt>
      <trkpt lat="42.5228193775" lon="-0.6738253869">
        <ele>780.73</ele>
        <time>2022-04-16T06:49:58Z</time>
      </trkpt>
      <trkpt lat="42.5227816589" lon="-0.6736661308">
        <ele>782.17</ele>
        <time>2022-04-16T06:50:06Z</time>
      </trkpt>
      <trkpt lat="42.5227513164" lon="-0.6735569146">
        <ele>785.53</ele>
        <time>2022-04-16T06:50:16Z</time>
      </trkpt>
      <trkpt lat="42.5227437727" lon="-0.6735594291">
        <ele>785.53</ele>
        <time>2022-04-16T06:50:17Z</time>
      </trkpt>
      <trkpt lat="42.5227198843" lon="-0.6735632848">
        <ele>785.05</ele>
        <time>2022-04-16T06:50:20Z</time>
      </trkpt>
      <trkpt lat="42.5226422679" lon="-0.6735750195">
        <ele>787.46</ele>
        <time>2022-04-16T06:50:32Z</time>
      </trkpt>
      <trkpt lat="42.5226502307" lon="-0.6735735107">
        <ele>786.02</ele>
        <time>2022-04-16T06:50:43Z</time>
      </trkpt>
      <trkpt lat="42.5226547569" lon="-0.6735757738">
        <ele>787.46</ele>
        <time>2022-04-16T06:50:45Z</time>
      </trkpt>
      <trkpt lat="42.5226683356" lon="-0.6735757738">
        <ele>786.02</ele>
        <time>2022-04-16T06:50:47Z</time>
      </trkpt>
      <trkpt lat="42.5227013603" lon="-0.6735835690">
        <ele>785.05</ele>
        <time>2022-04-16T06:50:50Z</time>
      </trkpt>
      <trkpt lat="42.5228143483" lon="-0.6736062001">
        <ele>783.13</ele>
        <time>2022-04-16T06:51:02Z</time>
      </trkpt>
      <trkpt lat="42.5228436850" lon="-0.6737965532">
        <ele>779.77</ele>
        <time>2022-04-16T06:51:15Z</time>
      </trkpt>
      <trkpt lat="42.5228629634" lon="-0.6738459226">
        <ele>781.69</ele>
        <time>2022-04-16T06:51:18Z</time>
      </trkpt>
      <trkpt lat="42.5229214691" lon="-0.6739331782">
        <ele>781.69</ele>
        <time>2022-04-16T06:51:29Z</time>
      </trkpt>
      <trkpt lat="42.5229401607" lon="-0.6739510316">
        <ele>780.25</ele>
        <time>2022-04-16T06:51:35Z</time>
      </trkpt>
      <trkpt lat="42.5230264943" lon="-0.6739131454">
        <ele>779.77</ele>
        <time>2022-04-16T06:51:42Z</time>
      </trkpt>
      <trkpt lat="42.5231906120" lon="-0.6738634408">
        <ele>777.84</ele>
        <time>2022-04-16T06:51:56Z</time>
      </trkpt>
      <trkpt lat="42.5233476888" lon="-0.6736980658">
        <ele>776.88</ele>
        <time>2022-04-16T06:52:11Z</time>
      </trkpt>
      <trkpt lat="42.5234879181" lon="-0.6734880991">
        <ele>775.92</ele>
        <time>2022-04-16T06:52:27Z</time>
      </trkpt>
      <trkpt lat="42.5235214457" lon="-0.6734353770">
        <ele>775.44</ele>
        <time>2022-04-16T06:52:32Z</time>
      </trkpt>
      <trkpt lat="42.5236043427" lon="-0.6733870972">
        <ele>775.44</ele>
        <time>2022-04-16T06:52:38Z</time>
      </trkpt>
      <trkpt lat="42.5237671193" lon="-0.6731954869">
        <ele>774.48</ele>
        <time>2022-04-16T06:52:55Z</time>
      </trkpt>
      <trkpt lat="42.5239219330" lon="-0.6730953231">
        <ele>773.04</ele>
        <time>2022-04-16T06:53:12Z</time>
      </trkpt>
      <trkpt lat="42.5240401179" lon="-0.6730009429">
        <ele>773.04</ele>
        <time>2022-04-16T06:53:24Z</time>
      </trkpt>
      <trkpt lat="42.5240619108" lon="-0.6729892921">
        <ele>773.52</ele>
        <time>2022-04-16T06:53:34Z</time>
      </trkpt>
      <trkpt lat="42.5240517687" lon="-0.6729912199">
        <ele>773.52</ele>
        <time>2022-04-16T06:53:39Z</time>
      </trkpt>
      <trkpt lat="42.5239813607" lon="-0.6730239093">
        <ele>774.00</ele>
        <time>2022-04-16T06:53:53Z</time>
      </trkpt>
      <trkpt lat="42.5240854640" lon="-0.6729646493">
        <ele>772.56</ele>
        <time>2022-04-16T06:54:03Z</time>
      </trkpt>
      <trkpt lat="42.5241332408" lon="-0.6728669163">
        <ele>772.56</ele>
        <time>2022-04-16T06:54:12Z</time>
      </trkpt>
      <trkpt lat="42.5242598914" lon="-0.6727318838">
        <ele>772.56</ele>
        <time>2022-04-16T06:54:26Z</time>
      </trkpt>
      <trkpt lat="42.5244022999" lon="-0.6725956779">
        <ele>772.56</ele>
        <time>2022-04-16T06:54:39Z</time>
      </trkpt>
      <trkpt lat="42.5245241728" lon="-0.6725726277">
        <ele>772.56</ele>
        <time>2022-04-16T06:54:50Z</time>
      </trkpt>
      <trkpt lat="42.5247221533" lon="-0.6725503318">
        <ele>771.60</ele>
        <time>2022-04-16T06:55:05Z</time>
      </trkpt>
      <trkpt lat="42.5248794816" lon="-0.6725427881">
        <ele>771.60</ele>
        <time>2022-04-16T06:55:17Z</time>
      </trkpt>
      <trkpt lat="42.5251079723" lon="-0.6724612322">
        <ele>771.60</ele>
        <time>2022-04-16T06:55:36Z</time>
      </trkpt>
      <trkpt lat="42.5252369698" lon="-0.6724909879">
        <ele>773.04</ele>
        <time>2022-04-16T06:55:48Z</time>
      </trkpt>
      <trkpt lat="42.5253534783" lon="-0.6725747231">
        <ele>772.08</ele>
        <time>2022-04-16T06:56:00Z</time>
      </trkpt>
      <trkpt lat="42.5254541449" lon="-0.6726510823">
        <ele>772.08</ele>
        <time>2022-04-16T06:56:18Z</time>
      </trkpt>
      <trkpt lat="42.5255538058" lon="-0.6727371644">
        <ele>772.08</ele>
        <time>2022-04-16T06:56:30Z</time>
      </trkpt>
      <trkpt lat="42.5256285723" lon="-0.6727842707">
        <ele>773.52</ele>
        <time>2022-04-16T06:56:38Z</time>
      </trkpt>
      <trkpt lat="42.5258166622" lon="-0.6729084905">
        <ele>772.08</ele>
        <time>2022-04-16T06:56:56Z</time>
      </trkpt>
      <trkpt lat="42.5259558856" lon="-0.6729755457">
        <ele>772.56</ele>
        <time>2022-04-16T06:57:09Z</time>
      </trkpt>
      <trkpt lat="42.5260833744" lon="-0.6731422618">
        <ele>774.96</ele>
        <time>2022-04-16T06:57:27Z</time>
      </trkpt>
      <trkpt lat="42.5261182431" lon="-0.6732088141">
        <ele>776.88</ele>
        <time>2022-04-16T06:57:44Z</time>
      </trkpt>
      <trkpt lat="42.5261454843" lon="-0.6733091455">
        <ele>775.92</ele>
        <time>2022-04-16T06:58:02Z</time>
      </trkpt>
      <trkpt lat="42.5261718035" lon="-0.6733627897">
        <ele>777.84</ele>
        <time>2022-04-16T06:58:06Z</time>
      </trkpt>
      <trkpt lat="42.5262056664" lon="-0.6734204572">
        <ele>778.32</ele>
        <time>2022-04-16T06:58:11Z</time>
      </trkpt>
      <trkpt lat="42.5263977796" lon="-0.6735139992">
        <ele>780.25</ele>
        <time>2022-04-16T06:58:27Z</time>
      </trkpt>
      <trkpt lat="42.5263988692" lon="-0.6735129096">
        <ele>780.25</ele>
        <time>2022-04-16T06:58:40Z</time>
      </trkpt>
      <trkpt lat="42.5264564529" lon="-0.6735096406">
        <ele>780.73</ele>
        <time>2022-04-16T06:58:57Z</time>
      </trkpt>
      <trkpt lat="42.5265852828" lon="-0.6733911205">
        <ele>782.65</ele>
        <time>2022-04-16T06:59:12Z</time>
      </trkpt>
      <trkpt lat="42.5266816746" lon="-0.6733476184">
        <ele>784.09</ele>
        <time>2022-04-16T06:59:23Z</time>
      </trkpt>
      <trkpt lat="42.5268374104" lon="-0.6733580120">
        <ele>787.46</ele>
        <time>2022-04-16T06:59:39Z</time>
      </trkpt>
      <trkpt lat="42.5269196369" lon="-0.6733823195">
        <ele>789.38</ele>
        <time>2022-04-16T06:59:49Z</time>
      </trkpt>
      <trkpt lat="42.5269864406" lon="-0.6734751072">
        <ele>791.30</ele>
        <time>2022-04-16T06:59:59Z</time>
      </trkpt>
      <trkpt lat="42.5270149391" lon="-0.6736947969">
        <ele>793.71</ele>
        <time>2022-04-16T07:00:16Z</time>
      </trkpt>
      <trkpt lat="42.5270293560" lon="-0.6738914363">
        <ele>796.11</ele>
        <time>2022-04-16T07:00:33Z</time>
      </trkpt>
      <trkpt lat="42.5270626321" lon="-0.6740755029">
        <ele>798.03</ele>
        <time>2022-04-16T07:00:48Z</time>
      </trkpt>
      <trkpt lat="42.5271104090" lon="-0.6742433086">
        <ele>799.47</ele>
        <time>2022-04-16T07:01:02Z</time>
      </trkpt>
      <trkpt lat="42.5271052122" lon="-0.6744420435">
        <ele>800.92</ele>
        <time>2022-04-16T07:01:16Z</time>
      </trkpt>
      <trkpt lat="42.5271870196" lon="-0.6746069156">
        <ele>801.88</ele>
        <time>2022-04-16T07:01:30Z</time>
      </trkpt>
      <trkpt lat="42.5272841658" lon="-0.6747090910">
        <ele>803.80</ele>
        <time>2022-04-16T07:01:43Z</time>
      </trkpt>
      <trkpt lat="42.5274045300" lon="-0.6747331470">
        <ele>805.72</ele>
        <time>2022-04-16T07:01:57Z</time>
      </trkpt>
      <trkpt lat="42.5276062824" lon="-0.6746907346">
        <ele>808.61</ele>
        <time>2022-04-16T07:02:14Z</time>
      </trkpt>
      <trkpt lat="42.5277558155" lon="-0.6746720430">
        <ele>810.05</ele>
        <time>2022-04-16T07:02:29Z</time>
      </trkpt>
      <trkpt lat="42.5277779438" lon="-0.6746899802">
        <ele>810.05</ele>
        <time>2022-04-16T07:02:31Z</time>
      </trkpt>
      <trkpt lat="42.5278197695" lon="-0.6747533474">
        <ele>810.53</ele>
        <time>2022-04-16T07:02:36Z</time>
      </trkpt>
      <trkpt lat="42.5279900059" lon="-0.6748294551">
        <ele>811.49</ele>
        <time>2022-04-16T07:02:52Z</time>
      </trkpt>
      <trkpt lat="42.5280970428" lon="-0.6747266091">
        <ele>811.97</ele>
        <time>2022-04-16T07:03:04Z</time>
      </trkpt>
      <trkpt lat="42.5282056723" lon="-0.6748667546">
        <ele>813.41</ele>
        <time>2022-04-16T07:03:21Z</time>
      </trkpt>
      <trkpt lat="42.5283392798" lon="-0.6751402561">
        <ele>815.82</ele>
        <time>2022-04-16T07:03:41Z</time>
      </trkpt>
      <trkpt lat="42.5283472426" lon="-0.6751560979">
        <ele>815.82</ele>
        <time>2022-04-16T07:03:43Z</time>
      </trkpt>
      <trkpt lat="42.5283678621" lon="-0.6752464548">
        <ele>817.74</ele>
        <time>2022-04-16T07:03:51Z</time>
      </trkpt>
      <trkpt lat="42.5284350011" lon="-0.6754508894">
        <ele>819.66</ele>
        <time>2022-04-16T07:04:09Z</time>
      </trkpt>
      <trkpt lat="42.5285033137" lon="-0.6756782066">
        <ele>821.10</ele>
        <time>2022-04-16T07:04:27Z</time>
      </trkpt>
      <trkpt lat="42.5285586342" lon="-0.6759550609">
        <ele>824.47</ele>
        <time>2022-04-16T07:04:47Z</time>
      </trkpt>
      <trkpt lat="42.5286198221" lon="-0.6762082782">
        <ele>826.87</ele>
        <time>2022-04-16T07:05:07Z</time>
      </trkpt>
      <trkpt lat="42.5286832731" lon="-0.6765142176">
        <ele>827.35</ele>
        <time>2022-04-16T07:05:27Z</time>
      </trkpt>
      <trkpt lat="42.5287330616" lon="-0.6767614000">
        <ele>827.35</ele>
        <time>2022-04-16T07:05:43Z</time>
      </trkpt>
      <trkpt lat="42.5287846942" lon="-0.6770032179">
        <ele>826.39</ele>
        <time>2022-04-16T07:05:59Z</time>
      </trkpt>
      <trkpt lat="42.5287876278" lon="-0.6770141143">
        <ele>826.39</ele>
        <time>2022-04-16T07:06:00Z</time>
      </trkpt>
      <trkpt lat="42.5288521685" lon="-0.6772566866">
        <ele>825.43</ele>
        <time>2022-04-16T07:06:14Z</time>
      </trkpt>
      <trkpt lat="42.5289439503" lon="-0.6775121670">
        <ele>824.95</ele>
        <time>2022-04-16T07:06:31Z</time>
      </trkpt>
      <trkpt lat="42.5289856084" lon="-0.6777083036">
        <ele>824.95</ele>
        <time>2022-04-16T07:06:46Z</time>
      </trkpt>
      <trkpt lat="42.5290834252" lon="-0.6780512910">
        <ele>826.87</ele>
        <time>2022-04-16T07:07:07Z</time>
      </trkpt>
      <trkpt lat="42.5291344710" lon="-0.6782664545">
        <ele>827.35</ele>
        <time>2022-04-16T07:07:21Z</time>
      </trkpt>
      <trkpt lat="42.5291903783" lon="-0.6784922630">
        <ele>828.31</ele>
        <time>2022-04-16T07:07:36Z</time>
      </trkpt>
      <trkpt lat="42.5292634685" lon="-0.6787579693">
        <ele>829.76</ele>
        <time>2022-04-16T07:07:55Z</time>
      </trkpt>
      <trkpt lat="42.5293377321" lon="-0.6790221669">
        <ele>831.20</ele>
        <time>2022-04-16T07:08:11Z</time>
      </trkpt>
      <trkpt lat="42.5293972436" lon="-0.6793234125">
        <ele>832.64</ele>
        <time>2022-04-16T07:08:30Z</time>
      </trkpt>
      <trkpt lat="42.5294058770" lon="-0.6795389950">
        <ele>832.64</ele>
        <time>2022-04-16T07:08:45Z</time>
      </trkpt>
      <trkpt lat="42.5293966569" lon="-0.6795935612">
        <ele>831.20</ele>
        <time>2022-04-16T07:08:48Z</time>
      </trkpt>
      <trkpt lat="42.5293980818" lon="-0.6798204593">
        <ele>831.20</ele>
        <time>2022-04-16T07:09:03Z</time>
      </trkpt>
      <trkpt lat="42.5294700824" lon="-0.6800114829">
        <ele>830.24</ele>
        <time>2022-04-16T07:09:16Z</time>
      </trkpt>
      <trkpt lat="42.5295255706" lon="-0.6802048534">
        <ele>831.68</ele>
        <time>2022-04-16T07:09:28Z</time>
      </trkpt>
      <trkpt lat="42.5296229683" lon="-0.6805182528">
        <ele>833.60</ele>
        <time>2022-04-16T07:09:53Z</time>
      </trkpt>
      <trkpt lat="42.5297317654" lon="-0.6808049977">
        <ele>836.48</ele>
        <time>2022-04-16T07:10:15Z</time>
      </trkpt>
      <trkpt lat="42.5297385547" lon="-0.6808633357">
        <ele>836.96</ele>
        <time>2022-04-16T07:10:19Z</time>
      </trkpt>
      <trkpt lat="42.5297233835" lon="-0.6809470709">
        <ele>837.45</ele>
        <time>2022-04-16T07:10:24Z</time>
      </trkpt>
      <trkpt lat="42.5297419075" lon="-0.6810420379">
        <ele>837.45</ele>
        <time>2022-04-16T07:10:35Z</time>
      </trkpt>
      <trkpt lat="42.5298536383" lon="-0.6812174711">
        <ele>838.89</ele>
        <time>2022-04-16T07:10:52Z</time>
      </trkpt>
      <trkpt lat="42.5298939552" lon="-0.6813782360">
        <ele>840.81</ele>
        <time>2022-04-16T07:11:05Z</time>
      </trkpt>
      <trkpt lat="42.5299098808" lon="-0.6815617997">
        <ele>841.77</ele>
        <time>2022-04-16T07:11:20Z</time>
      </trkpt>
      <trkpt lat="42.5299096294" lon="-0.6816887017">
        <ele>840.33</ele>
        <time>2022-04-16T07:11:27Z</time>
      </trkpt>
      <trkpt lat="42.5299123116" lon="-0.6819594372">
        <ele>839.85</ele>
        <time>2022-04-16T07:11:45Z</time>
      </trkpt>
      <trkpt lat="42.5299232919" lon="-0.6819938030">
        <ele>839.85</ele>
        <time>2022-04-16T07:11:48Z</time>
      </trkpt>
      <trkpt lat="42.5299920235" lon="-0.6821608543">
        <ele>839.37</ele>
        <time>2022-04-16T07:11:59Z</time>
      </trkpt>
      <trkpt lat="42.5299998187" lon="-0.6822269876">
        <ele>839.37</ele>
        <time>2022-04-16T07:12:04Z</time>
      </trkpt>
      <trkpt lat="42.5300090387" lon="-0.6823234633">
        <ele>838.41</ele>
        <time>2022-04-16T07:12:17Z</time>
      </trkpt>
      <trkpt lat="42.5300023332" lon="-0.6822944619">
        <ele>838.41</ele>
        <time>2022-04-16T07:12:36Z</time>
      </trkpt>
      <trkpt lat="42.5300187618" lon="-0.6823207811">
        <ele>838.41</ele>
        <time>2022-04-16T07:12:57Z</time>
      </trkpt>
      <trkpt lat="42.5300123077" lon="-0.6822989043">
        <ele>839.37</ele>
        <time>2022-04-16T07:13:21Z</time>
      </trkpt>
      <trkpt lat="42.5299975555" lon="-0.6822720822">
        <ele>838.41</ele>
        <time>2022-04-16T07:13:38Z</time>
      </trkpt>
      <trkpt lat="42.5299677998" lon="-0.6822641194">
        <ele>838.41</ele>
        <time>2022-04-16T07:14:16Z</time>
      </trkpt>
      <trkpt lat="42.5299936160" lon="-0.6823112257">
        <ele>838.89</ele>
        <time>2022-04-16T07:14:32Z</time>
      </trkpt>
      <trkpt lat="42.5300205220" lon="-0.6823339406">
        <ele>837.93</ele>
        <time>2022-04-16T07:15:07Z</time>
      </trkpt>
      <trkpt lat="42.5300037581" lon="-0.6823505368">
        <ele>840.33</ele>
        <time>2022-04-16T07:15:35Z</time>
      </trkpt>
      <trkpt lat="42.5300208572" lon="-0.6823528837">
        <ele>836.96</ele>
        <time>2022-04-16T07:15:48Z</time>
      </trkpt>
      <trkpt lat="42.5300219469" lon="-0.6823546439">
        <ele>836.96</ele>
        <time>2022-04-16T07:15:49Z</time>
      </trkpt>
      <trkpt lat="42.5300200190" lon="-0.6823550630">
        <ele>841.29</ele>
        <time>2022-04-16T07:15:50Z</time>
      </trkpt>
      <trkpt lat="42.5300194323" lon="-0.6823534705">
        <ele>839.85</ele>
        <time>2022-04-16T07:15:51Z</time>
      </trkpt>
      <trkpt lat="42.5300218631" lon="-0.6823517103">
        <ele>836.00</ele>
        <time>2022-04-16T07:15:53Z</time>
      </trkpt>
      <trkpt lat="42.5300280657" lon="-0.6823534705">
        <ele>845.62</ele>
        <time>2022-04-16T07:15:56Z</time>
      </trkpt>
      <trkpt lat="42.5300303288" lon="-0.6823567394">
        <ele>840.33</ele>
        <time>2022-04-16T07:15:57Z</time>
      </trkpt>
      <trkpt lat="42.5300303288" lon="-0.6823520456">
        <ele>838.89</ele>
        <time>2022-04-16T07:15:59Z</time>
      </trkpt>
      <trkpt lat="42.5299807079" lon="-0.6823283248">
        <ele>842.25</ele>
        <time>2022-04-16T07:16:23Z</time>
      </trkpt>
      <trkpt lat="42.5299811270" lon="-0.6823273189">
        <ele>840.33</ele>
        <time>2022-04-16T07:16:24Z</time>
      </trkpt>
      <trkpt lat="42.5299756788" lon="-0.6823348626">
        <ele>837.93</ele>
        <time>2022-04-16T07:16:27Z</time>
      </trkpt>
      <trkpt lat="42.5299857371" lon="-0.6823429093">
        <ele>839.85</ele>
        <time>2022-04-16T07:16:29Z</time>
      </trkpt>
      <trkpt lat="42.5300176721" lon="-0.6823495310">
        <ele>838.41</ele>
        <time>2022-04-16T07:16:52Z</time>
      </trkpt>
      <trkpt lat="42.5300455838" lon="-0.6823540572">
        <ele>839.85</ele>
        <time>2022-04-16T07:17:06Z</time>
      </trkpt>
      <trkpt lat="42.5300882477" lon="-0.6825351901">
        <ele>837.93</ele>
        <time>2022-04-16T07:17:26Z</time>
      </trkpt>
      <trkpt lat="42.5301126391" lon="-0.6826839689">
        <ele>837.93</ele>
        <time>2022-04-16T07:17:42Z</time>
      </trkpt>
      <trkpt lat="42.5301173329" lon="-0.6827676203">
        <ele>837.45</ele>
        <time>2022-04-16T07:18:02Z</time>
      </trkpt>
      <trkpt lat="42.5301612541" lon="-0.6828900799">
        <ele>835.52</ele>
        <time>2022-04-16T07:18:14Z</time>
      </trkpt>
      <trkpt lat="42.5301933568" lon="-0.6829549558">
        <ele>835.52</ele>
        <time>2022-04-16T07:18:18Z</time>
      </trkpt>
      <trkpt lat="42.5303406268" lon="-0.6830583047">
        <ele>833.12</ele>
        <time>2022-04-16T07:18:34Z</time>
      </trkpt>
      <trkpt lat="42.5303530321" lon="-0.6832564529">
        <ele>835.52</ele>
        <time>2022-04-16T07:18:51Z</time>
      </trkpt>
      <trkpt lat="42.5303578936" lon="-0.6832940876">
        <ele>836.00</ele>
        <time>2022-04-16T07:18:54Z</time>
      </trkpt>
      <trkpt lat="42.5303759985" lon="-0.6833635736">
        <ele>835.52</ele>
        <time>2022-04-16T07:18:58Z</time>
      </trkpt>
      <trkpt lat="42.5303709693" lon="-0.6834214926">
        <ele>836.00</ele>
        <time>2022-04-16T07:19:02Z</time>
      </trkpt>
      <trkpt lat="42.5303792674" lon="-0.6834528409">
        <ele>836.00</ele>
        <time>2022-04-16T07:19:04Z</time>
      </trkpt>
      <trkpt lat="42.5303610787" lon="-0.6836092472">
        <ele>836.00</ele>
        <time>2022-04-16T07:19:16Z</time>
      </trkpt>
      <trkpt lat="42.5303459913" lon="-0.6836603768">
        <ele>836.00</ele>
        <time>2022-04-16T07:19:25Z</time>
      </trkpt>
      <trkpt lat="42.5304416288" lon="-0.6836865284">
        <ele>836.00</ele>
        <time>2022-04-16T07:19:40Z</time>
      </trkpt>
      <trkpt lat="42.5306153018" lon="-0.6838101614">
        <ele>837.93</ele>
        <time>2022-04-16T07:19:58Z</time>
      </trkpt>
      <trkpt lat="42.5307336543" lon="-0.6838829163">
        <ele>835.04</ele>
        <time>2022-04-16T07:20:10Z</time>
      </trkpt>
      <trkpt lat="42.5308198202" lon="-0.6839749496">
        <ele>836.00</ele>
        <time>2022-04-16T07:20:18Z</time>
      </trkpt>
      <trkpt lat="42.5308701117" lon="-0.6840378139">
        <ele>836.48</ele>
        <time>2022-04-16T07:20:25Z</time>
      </trkpt>
      <trkpt lat="42.5309620611" lon="-0.6841842458">
        <ele>838.41</ele>
        <time>2022-04-16T07:20:41Z</time>
      </trkpt>
      <trkpt lat="42.5310450420" lon="-0.6843509618">
        <ele>840.81</ele>
        <time>2022-04-16T07:20:58Z</time>
      </trkpt>
      <trkpt lat="42.5311173778" lon="-0.6845345255">
        <ele>843.21</ele>
        <time>2022-04-16T07:21:16Z</time>
      </trkpt>
      <trkpt lat="42.5311954133" lon="-0.6847117189">
        <ele>845.62</ele>
        <time>2022-04-16T07:21:32Z</time>
      </trkpt>
      <trkpt lat="42.5312029570" lon="-0.6847218610">
        <ele>845.62</ele>
        <time>2022-04-16T07:21:33Z</time>
      </trkpt>
      <trkpt lat="42.5312418491" lon="-0.6848097872">
        <ele>845.62</ele>
        <time>2022-04-16T07:21:40Z</time>
      </trkpt>
      <trkpt lat="42.5313353073" lon="-0.6849756651">
        <ele>847.54</ele>
        <time>2022-04-16T07:21:55Z</time>
      </trkpt>
      <trkpt lat="42.5313573517" lon="-0.6851573847">
        <ele>849.46</ele>
        <time>2022-04-16T07:22:11Z</time>
      </trkpt>
      <trkpt lat="42.5314420927" lon="-0.6853040680">
        <ele>848.98</ele>
        <time>2022-04-16T07:22:26Z</time>
      </trkpt>
      <trkpt lat="42.5314470381" lon="-0.6853220053">
        <ele>849.46</ele>
        <time>2022-04-16T07:22:27Z</time>
      </trkpt>
      <trkpt lat="42.5314651430" lon="-0.6855760608">
        <ele>848.98</ele>
        <time>2022-04-16T07:22:49Z</time>
      </trkpt>
      <trkpt lat="42.5314637180" lon="-0.6855815090">
        <ele>848.98</ele>
        <time>2022-04-16T07:22:56Z</time>
      </trkpt>
      <trkpt lat="42.5314661488" lon="-0.6856217422">
        <ele>847.54</ele>
        <time>2022-04-16T07:23:00Z</time>
      </trkpt>
      <trkpt lat="42.5315339584" lon="-0.6858915556">
        <ele>848.02</ele>
        <time>2022-04-16T07:23:21Z</time>
      </trkpt>
      <trkpt lat="42.5315724313" lon="-0.6860457826">
        <ele>848.98</ele>
        <time>2022-04-16T07:23:33Z</time>
      </trkpt>
      <trkpt lat="42.5316089764" lon="-0.6862356327">
        <ele>848.98</ele>
        <time>2022-04-16T07:23:46Z</time>
      </trkpt>
      <trkpt lat="42.5316394027" lon="-0.6864687335">
        <ele>851.38</ele>
        <time>2022-04-16T07:24:02Z</time>
      </trkpt>
      <trkpt lat="42.5316242315" lon="-0.6865855772">
        <ele>853.79</ele>
        <time>2022-04-16T07:24:12Z</time>
      </trkpt>
      <trkpt lat="42.5316866767" lon="-0.6867459230">
        <ele>854.75</ele>
        <time>2022-04-16T07:24:26Z</time>
      </trkpt>
      <trkpt lat="42.5316815637" lon="-0.6867807917">
        <ele>853.31</ele>
        <time>2022-04-16T07:24:29Z</time>
      </trkpt>
      <trkpt lat="42.5316850841" lon="-0.6869418919">
        <ele>851.38</ele>
        <time>2022-04-16T07:24:40Z</time>
      </trkpt>
      <trkpt lat="42.5316242315" lon="-0.6870823726">
        <ele>850.42</ele>
        <time>2022-04-16T07:24:51Z</time>
      </trkpt>
      <trkpt lat="42.5316922087" lon="-0.6872497592">
        <ele>848.98</ele>
        <time>2022-04-16T07:25:06Z</time>
      </trkpt>
      <trkpt lat="42.5317007583" lon="-0.6872433890">
        <ele>848.98</ele>
        <time>2022-04-16T07:25:07Z</time>
      </trkpt>
      <trkpt lat="42.5317250658" lon="-0.6872013118">
        <ele>848.98</ele>
        <time>2022-04-16T07:25:11Z</time>
      </trkpt>
      <trkpt lat="42.5317593478" lon="-0.6871842965">
        <ele>849.94</ele>
        <time>2022-04-16T07:25:14Z</time>
      </trkpt>
      <trkpt lat="42.5317701604" lon="-0.6871842965">
        <ele>850.42</ele>
        <time>2022-04-16T07:25:15Z</time>
      </trkpt>
      <trkpt lat="42.5318268221" lon="-0.6871992163">
        <ele>850.42</ele>
        <time>2022-04-16T07:25:20Z</time>
      </trkpt>
      <trkpt lat="42.5318604335" lon="-0.6871934328">
        <ele>850.90</ele>
        <time>2022-04-16T07:25:23Z</time>
      </trkpt>
      <trkpt lat="42.5319840666" lon="-0.6871272158">
        <ele>851.87</ele>
        <time>2022-04-16T07:25:37Z</time>
      </trkpt>
      <trkpt lat="42.5320037641" lon="-0.6870500185">
        <ele>855.71</ele>
        <time>2022-04-16T07:25:47Z</time>
      </trkpt>
      <trkpt lat="42.5320087094" lon="-0.6870438997">
        <ele>853.79</ele>
        <time>2022-04-16T07:25:48Z</time>
      </trkpt>
      <trkpt lat="42.5320398062" lon="-0.6870730687">
        <ele>854.75</ele>
        <time>2022-04-16T07:25:53Z</time>
      </trkpt>
      <trkpt lat="42.5320412312" lon="-0.6870863959">
        <ele>854.75</ele>
        <time>2022-04-16T07:25:54Z</time>
      </trkpt>
      <trkpt lat="42.5320625212" lon="-0.6871336699">
        <ele>854.75</ele>
        <time>2022-04-16T07:25:58Z</time>
      </trkpt>
      <trkpt lat="42.5322244596" lon="-0.6872487534">
        <ele>856.67</ele>
        <time>2022-04-16T07:26:15Z</time>
      </trkpt>
      <trkpt lat="42.5322658662" lon="-0.6872819457">
        <ele>857.15</ele>
        <time>2022-04-16T07:26:20Z</time>
      </trkpt>
      <trkpt lat="42.5324193388" lon="-0.6873404514">
        <ele>859.56</ele>
        <time>2022-04-16T07:26:36Z</time>
      </trkpt>
      <trkpt lat="42.5324967038" lon="-0.6874165591">
        <ele>862.44</ele>
        <time>2022-04-16T07:26:50Z</time>
      </trkpt>
      <trkpt lat="42.5325074326" lon="-0.6874210015">
        <ele>862.44</ele>
        <time>2022-04-16T07:26:51Z</time>
      </trkpt>
      <trkpt lat="42.5326324068" lon="-0.6875577942">
        <ele>863.88</ele>
        <time>2022-04-16T07:27:06Z</time>
      </trkpt>
      <trkpt lat="42.5327609014" lon="-0.6876810919">
        <ele>862.44</ele>
        <time>2022-04-16T07:27:20Z</time>
      </trkpt>
      <trkpt lat="42.5328440499" lon="-0.6878067367">
        <ele>860.52</ele>
        <time>2022-04-16T07:27:34Z</time>
      </trkpt>
      <trkpt lat="42.5328844506" lon="-0.6878030486">
        <ele>860.52</ele>
        <time>2022-04-16T07:27:39Z</time>
      </trkpt>
      <trkpt lat="42.5329334009" lon="-0.6877880450">
        <ele>860.52</ele>
        <time>2022-04-16T07:27:43Z</time>
      </trkpt>
      <trkpt lat="42.5330999494" lon="-0.6878112629">
        <ele>860.04</ele>
        <time>2022-04-16T07:27:57Z</time>
      </trkpt>
      <trkpt lat="42.5332010351" lon="-0.6878093351">
        <ele>859.56</ele>
        <time>2022-04-16T07:28:06Z</time>
      </trkpt>
      <trkpt lat="42.5333659910" lon="-0.6879008655">
        <ele>859.08</ele>
        <time>2022-04-16T07:28:22Z</time>
      </trkpt>
      <trkpt lat="42.5333875325" lon="-0.6878999434">
        <ele>860.52</ele>
        <time>2022-04-16T07:28:24Z</time>
      </trkpt>
      <trkpt lat="42.5334075652" lon="-0.6878900528">
        <ele>860.52</ele>
        <time>2022-04-16T07:28:26Z</time>
      </trkpt>
      <trkpt lat="42.5334551744" lon="-0.6878915615">
        <ele>860.52</ele>
        <time>2022-04-16T07:28:30Z</time>
      </trkpt>
      <trkpt lat="42.5334863551" lon="-0.6879130192">
        <ele>859.08</ele>
        <time>2022-04-16T07:28:34Z</time>
      </trkpt>
      <trkpt lat="42.5336339604" lon="-0.6879618019">
        <ele>857.63</ele>
        <time>2022-04-16T07:28:49Z</time>
      </trkpt>
      <trkpt lat="42.5337198749" lon="-0.6879893783">
        <ele>857.63</ele>
        <time>2022-04-16T07:28:58Z</time>
      </trkpt>
      <trkpt lat="42.5338312704" lon="-0.6881292723">
        <ele>857.15</ele>
        <time>2022-04-16T07:29:11Z</time>
      </trkpt>
      <trkpt lat="42.5339328591" lon="-0.6883441843">
        <ele>855.23</ele>
        <time>2022-04-16T07:29:26Z</time>
      </trkpt>
      <trkpt lat="42.5340106431" lon="-0.6885305978">
        <ele>854.75</ele>
        <time>2022-04-16T07:29:39Z</time>
      </trkpt>
      <trkpt lat="42.5340754353" lon="-0.6887831446">
        <ele>854.27</ele>
        <time>2022-04-16T07:29:55Z</time>
      </trkpt>
      <trkpt lat="42.5341154169" lon="-0.6890068576">
        <ele>854.27</ele>
        <time>2022-04-16T07:30:09Z</time>
      </trkpt>
      <trkpt lat="42.5341375452" lon="-0.6892288104">
        <ele>853.31</ele>
        <time>2022-04-16T07:30:23Z</time>
      </trkpt>
      <trkpt lat="42.5342327636" lon="-0.6894865539">
        <ele>852.35</ele>
        <time>2022-04-16T07:30:40Z</time>
      </trkpt>
      <trkpt lat="42.5342460070" lon="-0.6897539366">
        <ele>850.42</ele>
        <time>2022-04-16T07:30:57Z</time>
      </trkpt>
      <trkpt lat="42.5342361163" lon="-0.6898586266">
        <ele>848.98</ele>
        <time>2022-04-16T07:31:04Z</time>
      </trkpt>
      <trkpt lat="42.5342673808" lon="-0.6900686771">
        <ele>848.50</ele>
        <time>2022-04-16T07:31:18Z</time>
      </trkpt>
      <trkpt lat="42.5342770200" lon="-0.6901519094">
        <ele>847.06</ele>
        <time>2022-04-16T07:31:24Z</time>
      </trkpt>
      <trkpt lat="42.5343192648" lon="-0.6902810745">
        <ele>846.58</ele>
        <time>2022-04-16T07:31:32Z</time>
      </trkpt>
      <trkpt lat="42.5343489368" lon="-0.6903568469">
        <ele>846.10</ele>
        <time>2022-04-16T07:31:38Z</time>
      </trkpt>
      <trkpt lat="42.5343978871" lon="-0.6905609462">
        <ele>843.69</ele>
        <time>2022-04-16T07:31:52Z</time>
      </trkpt>
      <trkpt lat="42.5344843883" lon="-0.6907636207">
        <ele>842.73</ele>
        <time>2022-04-16T07:32:07Z</time>
      </trkpt>
      <trkpt lat="42.5345029123" lon="-0.6908054464">
        <ele>841.77</ele>
        <time>2022-04-16T07:32:11Z</time>
      </trkpt>
      <trkpt lat="42.5345974602" lon="-0.6909937039">
        <ele>838.89</ele>
        <time>2022-04-16T07:32:26Z</time>
      </trkpt>
      <trkpt lat="42.5346339215" lon="-0.6910634413">
        <ele>838.41</ele>
        <time>2022-04-16T07:32:31Z</time>
      </trkpt>
      <trkpt lat="42.5346583128" lon="-0.6911920197">
        <ele>836.00</ele>
        <time>2022-04-16T07:32:45Z</time>
      </trkpt>
      <trkpt lat="42.5346506853" lon="-0.6913017388">
        <ele>832.64</ele>
        <time>2022-04-16T07:32:59Z</time>
      </trkpt>
      <trkpt lat="42.5346506014" lon="-0.6913135573">
        <ele>832.64</ele>
        <time>2022-04-16T07:33:00Z</time>
      </trkpt>
      <trkpt lat="42.5346490927" lon="-0.6913817860">
        <ele>833.60</ele>
        <time>2022-04-16T07:33:05Z</time>
      </trkpt>
      <trkpt lat="42.5347721390" lon="-0.6915377732">
        <ele>834.56</ele>
        <time>2022-04-16T07:33:21Z</time>
      </trkpt>
      <trkpt lat="42.5348977838" lon="-0.6916427147">
        <ele>835.52</ele>
        <time>2022-04-16T07:33:35Z</time>
      </trkpt>
      <trkpt lat="42.5350144599" lon="-0.6916825287">
        <ele>835.52</ele>
        <time>2022-04-16T07:33:48Z</time>
      </trkpt>
      <trkpt lat="42.5351867918" lon="-0.6916966103">
        <ele>835.52</ele>
        <time>2022-04-16T07:34:01Z</time>
      </trkpt>
      <trkpt lat="42.5353270210" lon="-0.6917651743">
        <ele>835.52</ele>
        <time>2022-04-16T07:34:15Z</time>
      </trkpt>
      <trkpt lat="42.5354796555" lon="-0.6918486580">
        <ele>835.52</ele>
        <time>2022-04-16T07:34:28Z</time>
      </trkpt>
      <trkpt lat="42.5355062261" lon="-0.6919151265">
        <ele>835.04</ele>
        <time>2022-04-16T07:34:36Z</time>
      </trkpt>
      <trkpt lat="42.5355902966" lon="-0.6919234246">
        <ele>833.12</ele>
        <time>2022-04-16T07:34:50Z</time>
      </trkpt>
      <trkpt lat="42.5356645603" lon="-0.6919765659">
        <ele>830.24</ele>
        <time>2022-04-16T07:35:04Z</time>
      </trkpt>
      <trkpt lat="42.5356793962" lon="-0.6919929106">
        <ele>829.27</ele>
        <time>2022-04-16T07:35:21Z</time>
      </trkpt>
      <trkpt lat="42.5357430149" lon="-0.6920917332">
        <ele>827.35</ele>
        <time>2022-04-16T07:35:33Z</time>
      </trkpt>
      <trkpt lat="42.5358431786" lon="-0.6921520829">
        <ele>824.47</ele>
        <time>2022-04-16T07:35:49Z</time>
      </trkpt>
      <trkpt lat="42.5358819868" lon="-0.6921124365">
        <ele>823.51</ele>
        <time>2022-04-16T07:35:55Z</time>
      </trkpt>
      <trkpt lat="42.5359941367" lon="-0.6920857821">
        <ele>820.62</ele>
        <time>2022-04-16T07:36:08Z</time>
      </trkpt>
      <trkpt lat="42.5360319391" lon="-0.6922738720">
        <ele>819.66</ele>
        <time>2022-04-16T07:36:22Z</time>
      </trkpt>
      <trkpt lat="42.5360362977" lon="-0.6923788972">
        <ele>819.66</ele>
        <time>2022-04-16T07:36:28Z</time>
      </trkpt>
      <trkpt lat="42.5360235572" lon="-0.6926444359">
        <ele>819.18</ele>
        <time>2022-04-16T07:36:45Z</time>
      </trkpt>
      <trkpt lat="42.5360192824" lon="-0.6927398220">
        <ele>818.70</ele>
        <time>2022-04-16T07:36:52Z</time>
      </trkpt>
      <trkpt lat="42.5361032691" lon="-0.6929358747">
        <ele>817.26</ele>
        <time>2022-04-16T07:37:07Z</time>
      </trkpt>
      <trkpt lat="42.5361246429" lon="-0.6929615233">
        <ele>819.66</ele>
        <time>2022-04-16T07:37:10Z</time>
      </trkpt>
      <trkpt lat="42.5362763554" lon="-0.6931127328">
        <ele>818.22</ele>
        <time>2022-04-16T07:37:26Z</time>
      </trkpt>
      <trkpt lat="42.5362959690" lon="-0.6931295805">
        <ele>817.74</ele>
        <time>2022-04-16T07:37:28Z</time>
      </trkpt>
      <trkpt lat="42.5364697259" lon="-0.6932442449">
        <ele>814.85</ele>
        <time>2022-04-16T07:37:43Z</time>
      </trkpt>
      <trkpt lat="42.5365646090" lon="-0.6934121344">
        <ele>813.41</ele>
        <time>2022-04-16T07:37:57Z</time>
      </trkpt>
      <trkpt lat="42.5366588216" lon="-0.6935758330">
        <ele>811.97</ele>
        <time>2022-04-16T07:38:10Z</time>
      </trkpt>
      <trkpt lat="42.5367812812" lon="-0.6937736459">
        <ele>809.09</ele>
        <time>2022-04-16T07:38:25Z</time>
      </trkpt>
      <trkpt lat="42.5369083509" lon="-0.6938954350">
        <ele>807.16</ele>
        <time>2022-04-16T07:38:39Z</time>
      </trkpt>
      <trkpt lat="42.5370463170" lon="-0.6939837802">
        <ele>804.76</ele>
        <time>2022-04-16T07:38:53Z</time>
      </trkpt>
      <trkpt lat="42.5370977819" lon="-0.6940385140">
        <ele>803.32</ele>
        <time>2022-04-16T07:38:59Z</time>
      </trkpt>
      <trkpt lat="42.5372370891" lon="-0.6941899750">
        <ele>801.40</ele>
        <time>2022-04-16T07:39:15Z</time>
      </trkpt>
      <trkpt lat="42.5373442937" lon="-0.6942738779">
        <ele>800.92</ele>
        <time>2022-04-16T07:39:25Z</time>
      </trkpt>
      <trkpt lat="42.5373791624" lon="-0.6942832656">
        <ele>799.95</ele>
        <time>2022-04-16T07:39:29Z</time>
      </trkpt>
      <trkpt lat="42.5374716148" lon="-0.6943758857">
        <ele>798.99</ele>
        <time>2022-04-16T07:39:38Z</time>
      </trkpt>
      <trkpt lat="42.5375289470" lon="-0.6944079045">
        <ele>798.51</ele>
        <time>2022-04-16T07:39:44Z</time>
      </trkpt>
      <trkpt lat="42.5376845151" lon="-0.6945415959">
        <ele>796.59</ele>
        <time>2022-04-16T07:40:02Z</time>
      </trkpt>
      <trkpt lat="42.5378347188" lon="-0.6946361437">
        <ele>795.15</ele>
        <time>2022-04-16T07:40:17Z</time>
      </trkpt>
      <trkpt lat="42.5378893688" lon="-0.6947096530">
        <ele>794.19</ele>
        <time>2022-04-16T07:40:37Z</time>
      </trkpt>
      <trkpt lat="42.5379743613" lon="-0.6947057135">
        <ele>794.19</ele>
        <time>2022-04-16T07:40:49Z</time>
      </trkpt>
      <trkpt lat="42.5380709209" lon="-0.6946974155">
        <ele>792.74</ele>
        <time>2022-04-16T07:40:58Z</time>
      </trkpt>
      <trkpt lat="42.5382037740" lon="-0.6947187893">
        <ele>791.30</ele>
        <time>2022-04-16T07:41:12Z</time>
      </trkpt>
      <trkpt lat="42.5383015070" lon="-0.6947684102">
        <ele>788.90</ele>
        <time>2022-04-16T07:41:24Z</time>
      </trkpt>
      <trkpt lat="42.5384097174" lon="-0.6948904507">
        <ele>787.46</ele>
        <time>2022-04-16T07:41:37Z</time>
      </trkpt>
      <trkpt lat="42.5384827238" lon="-0.6949508842">
        <ele>785.05</ele>
        <time>2022-04-16T07:41:52Z</time>
      </trkpt>
      <trkpt lat="42.5385113899" lon="-0.6949306000">
        <ele>784.09</ele>
        <time>2022-04-16T07:41:56Z</time>
      </trkpt>
      <trkpt lat="42.5386273116" lon="-0.6948053744">
        <ele>781.69</ele>
        <time>2022-04-16T07:42:11Z</time>
      </trkpt>
      <trkpt lat="42.5386302453" lon="-0.6946744490">
        <ele>780.25</ele>
        <time>2022-04-16T07:42:23Z</time>
      </trkpt>
      <trkpt lat="42.5386827998" lon="-0.6946454477">
        <ele>778.81</ele>
        <time>2022-04-16T07:42:29Z</time>
      </trkpt>
      <trkpt lat="42.5387704745" lon="-0.6947820727">
        <ele>777.36</ele>
        <time>2022-04-16T07:42:44Z</time>
      </trkpt>
      <trkpt lat="42.5388857257" lon="-0.6949472800">
        <ele>778.81</ele>
        <time>2022-04-16T07:43:01Z</time>
      </trkpt>
      <trkpt lat="42.5389293954" lon="-0.6949896924">
        <ele>779.77</ele>
        <time>2022-04-16T07:43:06Z</time>
      </trkpt>
      <trkpt lat="42.5389502663" lon="-0.6950051989">
        <ele>779.77</ele>
        <time>2022-04-16T07:43:08Z</time>
      </trkpt>
      <trkpt lat="42.5390798505" lon="-0.6950994115">
        <ele>781.21</ele>
        <time>2022-04-16T07:43:23Z</time>
      </trkpt>
      <trkpt lat="42.5392448902" lon="-0.6952430774">
        <ele>781.69</ele>
        <time>2022-04-16T07:43:38Z</time>
      </trkpt>
      <trkpt lat="42.5394088402" lon="-0.6953087915">
        <ele>782.17</ele>
        <time>2022-04-16T07:43:51Z</time>
      </trkpt>
      <trkpt lat="42.5395219959" lon="-0.6952712405">
        <ele>782.65</ele>
        <time>2022-04-16T07:44:01Z</time>
      </trkpt>
      <trkpt lat="42.5395888835" lon="-0.6952805445">
        <ele>782.65</ele>
        <time>2022-04-16T07:44:06Z</time>
      </trkpt>
      <trkpt lat="42.5397583656" lon="-0.6953877490">
        <ele>783.13</ele>
        <time>2022-04-16T07:44:22Z</time>
      </trkpt>
      <trkpt lat="42.5398885366" lon="-0.6955128908">
        <ele>783.61</ele>
        <time>2022-04-16T07:44:36Z</time>
      </trkpt>
      <trkpt lat="42.5398868602" lon="-0.6955037545">
        <ele>781.69</ele>
        <time>2022-04-16T07:44:40Z</time>
      </trkpt>
      <trkpt lat="42.5398868602" lon="-0.6955001503">
        <ele>786.02</ele>
        <time>2022-04-16T07:44:42Z</time>
      </trkpt>
      <trkpt lat="42.5398874469" lon="-0.6954992283">
        <ele>784.09</ele>
        <time>2022-04-16T07:44:43Z</time>
      </trkpt>
      <trkpt lat="42.5398959126" lon="-0.6954988092">
        <ele>783.61</ele>
        <time>2022-04-16T07:44:45Z</time>
      </trkpt>
      <trkpt lat="42.5399606209" lon="-0.6956046727">
        <ele>781.69</ele>
        <time>2022-04-16T07:44:57Z</time>
      </trkpt>
      <trkpt lat="42.5400126725" lon="-0.6956895813">
        <ele>780.73</ele>
        <time>2022-04-16T07:45:05Z</time>
      </trkpt>
      <trkpt lat="42.5401390716" lon="-0.6958196685">
        <ele>778.81</ele>
        <time>2022-04-16T07:45:19Z</time>
      </trkpt>
      <trkpt lat="42.5403053686" lon="-0.6959408708">
        <ele>775.92</ele>
        <time>2022-04-16T07:45:36Z</time>
      </trkpt>
      <trkpt lat="42.5404622778" lon="-0.6959941797">
        <ele>773.04</ele>
        <time>2022-04-16T07:45:50Z</time>
      </trkpt>
      <trkpt lat="42.5405149162" lon="-0.6960171461">
        <ele>772.56</ele>
        <time>2022-04-16T07:45:56Z</time>
      </trkpt>
      <trkpt lat="42.5405580830" lon="-0.6960923318">
        <ele>772.56</ele>
        <time>2022-04-16T07:46:01Z</time>
      </trkpt>
      <trkpt lat="42.5407051016" lon="-0.6962585449">
        <ele>773.04</ele>
        <time>2022-04-16T07:46:16Z</time>
      </trkpt>
      <trkpt lat="42.5408056844" lon="-0.6964613870">
        <ele>770.63</ele>
        <time>2022-04-16T07:46:32Z</time>
      </trkpt>
      <trkpt lat="42.5409243722" lon="-0.6966486387">
        <ele>769.19</ele>
        <time>2022-04-16T07:46:47Z</time>
      </trkpt>
      <trkpt lat="42.5409349333" lon="-0.6966887880">
        <ele>769.19</ele>
        <time>2022-04-16T07:46:51Z</time>
      </trkpt>
      <trkpt lat="42.5409762561" lon="-0.6967732776">
        <ele>769.19</ele>
        <time>2022-04-16T07:46:57Z</time>
      </trkpt>
      <trkpt lat="42.5410750788" lon="-0.6969467830">
        <ele>768.23</ele>
        <time>2022-04-16T07:47:12Z</time>
      </trkpt>
      <trkpt lat="42.5411400385" lon="-0.6970787141">
        <ele>768.23</ele>
        <time>2022-04-16T07:47:22Z</time>
      </trkpt>
      <trkpt lat="42.5411674473" lon="-0.6971636228">
        <ele>767.75</ele>
        <time>2022-04-16T07:47:27Z</time>
      </trkpt>
      <trkpt lat="42.5411816966" lon="-0.6971850805">
        <ele>767.75</ele>
        <time>2022-04-16T07:47:29Z</time>
      </trkpt>
      <trkpt lat="42.5412790943" lon="-0.6973598432">
        <ele>766.79</ele>
        <time>2022-04-16T07:47:43Z</time>
      </trkpt>
      <trkpt lat="42.5413700379" lon="-0.6975057721">
        <ele>766.31</ele>
        <time>2022-04-16T07:47:57Z</time>
      </trkpt>
      <trkpt lat="42.5414215028" lon="-0.6976336800">
        <ele>762.46</ele>
        <time>2022-04-16T07:48:09Z</time>
      </trkpt>
      <trkpt lat="42.5414561201" lon="-0.6977424771">
        <ele>761.98</ele>
        <time>2022-04-16T07:48:17Z</time>
      </trkpt>
      <trkpt lat="42.5416481495" lon="-0.6978303194">
        <ele>759.58</ele>
        <time>2022-04-16T07:48:36Z</time>
      </trkpt>
      <trkpt lat="42.5417787395" lon="-0.6978066824">
        <ele>756.69</ele>
        <time>2022-04-16T07:48:51Z</time>
      </trkpt>
      <trkpt lat="42.5418851897" lon="-0.6978341751">
        <ele>755.73</ele>
        <time>2022-04-16T07:49:01Z</time>
      </trkpt>
      <trkpt lat="42.5419041328" lon="-0.6978589855">
        <ele>755.73</ele>
        <time>2022-04-16T07:49:03Z</time>
      </trkpt>
      <trkpt lat="42.5419297814" lon="-0.6978759170">
        <ele>755.25</ele>
        <time>2022-04-16T07:49:05Z</time>
      </trkpt>
      <trkpt lat="42.5420590304" lon="-0.6979417987">
        <ele>755.25</ele>
        <time>2022-04-16T07:49:16Z</time>
      </trkpt>
      <trkpt lat="42.5421428494" lon="-0.6979416311">
        <ele>756.69</ele>
        <time>2022-04-16T07:49:24Z</time>
      </trkpt>
      <trkpt lat="42.5423208810" lon="-0.6980150566">
        <ele>757.66</ele>
        <time>2022-04-16T07:49:41Z</time>
      </trkpt>
      <trkpt lat="42.5424420834" lon="-0.6981222611">
        <ele>757.66</ele>
        <time>2022-04-16T07:49:56Z</time>
      </trkpt>
      <trkpt lat="42.5425900239" lon="-0.6982973590">
        <ele>757.66</ele>
        <time>2022-04-16T07:50:12Z</time>
      </trkpt>
      <trkpt lat="42.5426189415" lon="-0.6983292103">
        <ele>757.66</ele>
        <time>2022-04-16T07:50:15Z</time>
      </trkpt>
      <trkpt lat="42.5426407345" lon="-0.6983422861">
        <ele>757.66</ele>
        <time>2022-04-16T07:50:17Z</time>
      </trkpt>
      <trkpt lat="42.5427939557" lon="-0.6985484809">
        <ele>757.66</ele>
        <time>2022-04-16T07:50:35Z</time>
      </trkpt>
      <trkpt lat="42.5428349432" lon="-0.6985922344">
        <ele>757.66</ele>
        <time>2022-04-16T07:50:39Z</time>
      </trkpt>
      <trkpt lat="42.5429776032" lon="-0.6987077370">
        <ele>758.62</ele>
        <time>2022-04-16T07:50:55Z</time>
      </trkpt>
      <trkpt lat="42.5430723187" lon="-0.6988987606">
        <ele>758.62</ele>
        <time>2022-04-16T07:51:11Z</time>
      </trkpt>
      <trkpt lat="42.5432206783" lon="-0.6989452802">
        <ele>760.06</ele>
        <time>2022-04-16T07:51:28Z</time>
      </trkpt>
      <trkpt lat="42.5432314910" lon="-0.6989446096">
        <ele>760.06</ele>
        <time>2022-04-16T07:51:29Z</time>
      </trkpt>
      <trkpt lat="42.5433749054" lon="-0.6989130098">
        <ele>760.54</ele>
        <time>2022-04-16T07:51:42Z</time>
      </trkpt>
      <trkpt lat="42.5434948504" lon="-0.6988595333">
        <ele>759.58</ele>
        <time>2022-04-16T07:51:52Z</time>
      </trkpt>
      <trkpt lat="42.5436482392" lon="-0.6987331342">
        <ele>758.14</ele>
        <time>2022-04-16T07:52:08Z</time>
      </trkpt>
      <trkpt lat="42.5437760632" lon="-0.6985797454">
        <ele>759.58</ele>
        <time>2022-04-16T07:52:23Z</time>
      </trkpt>
      <trkpt lat="42.5438840222" lon="-0.6984511670">
        <ele>759.58</ele>
        <time>2022-04-16T07:52:38Z</time>
      </trkpt>
      <trkpt lat="42.5439523347" lon="-0.6984938309">
        <ele>760.54</ele>
        <time>2022-04-16T07:52:46Z</time>
      </trkpt>
      <trkpt lat="42.5441172905" lon="-0.6987198070">
        <ele>761.50</ele>
        <time>2022-04-16T07:53:05Z</time>
      </trkpt>
      <trkpt lat="42.5442415942" lon="-0.6989073101">
        <ele>760.06</ele>
        <time>2022-04-16T07:53:20Z</time>
      </trkpt>
      <trkpt lat="42.5443672389" lon="-0.6989197992">
        <ele>758.62</ele>
        <time>2022-04-16T07:53:33Z</time>
      </trkpt>
      <trkpt lat="42.5444175303" lon="-0.6988703460">
        <ele>756.69</ele>
        <time>2022-04-16T07:53:40Z</time>
      </trkpt>
      <trkpt lat="42.5444990024" lon="-0.6986996904">
        <ele>753.81</ele>
        <time>2022-04-16T07:53:54Z</time>
      </trkpt>
      <trkpt lat="42.5445220526" lon="-0.6986470520">
        <ele>752.37</ele>
        <time>2022-04-16T07:53:59Z</time>
      </trkpt>
      <trkpt lat="42.5445264112" lon="-0.6986245885">
        <ele>752.37</ele>
        <time>2022-04-16T07:54:01Z</time>
      </trkpt>
      <trkpt lat="42.5445454381" lon="-0.6985681783">
        <ele>751.41</ele>
        <time>2022-04-16T07:54:05Z</time>
      </trkpt>
      <trkpt lat="42.5445793010" lon="-0.6985074934">
        <ele>750.45</ele>
        <time>2022-04-16T07:54:11Z</time>
      </trkpt>
      <trkpt lat="42.5445844140" lon="-0.6984649971">
        <ele>749.97</ele>
        <time>2022-04-16T07:54:14Z</time>
      </trkpt>
      <trkpt lat="42.5446181931" lon="-0.6983825192">
        <ele>748.52</ele>
        <time>2022-04-16T07:54:21Z</time>
      </trkpt>
      <trkpt lat="42.5446499605" lon="-0.6981935073">
        <ele>746.60</ele>
        <time>2022-04-16T07:54:37Z</time>
      </trkpt>
      <trkpt lat="42.5447005033" lon="-0.6982037332">
        <ele>746.60</ele>
        <time>2022-04-16T07:55:08Z</time>
      </trkpt>
      <trkpt lat="42.5447352882" lon="-0.6981626619">
        <ele>746.12</ele>
        <time>2022-04-16T07:55:13Z</time>
      </trkpt>
      <trkpt lat="42.5448749308" lon="-0.6980510987">
        <ele>745.16</ele>
        <time>2022-04-16T07:55:30Z</time>
      </trkpt>
      <trkpt lat="42.5449600909" lon="-0.6980227679">
        <ele>745.16</ele>
        <time>2022-04-16T07:55:42Z</time>
      </trkpt>
      <trkpt lat="42.5450015813" lon="-0.6980215106">
        <ele>745.16</ele>
        <time>2022-04-16T07:55:45Z</time>
      </trkpt>
      <trkpt lat="42.5452403817" lon="-0.6980530266">
        <ele>744.20</ele>
        <time>2022-04-16T07:56:03Z</time>
      </trkpt>
      <trkpt lat="42.5453692954" lon="-0.6981422100">
        <ele>744.20</ele>
        <time>2022-04-16T07:56:16Z</time>
      </trkpt>
      <trkpt lat="42.5455832016" lon="-0.6982909050">
        <ele>747.08</ele>
        <time>2022-04-16T07:56:34Z</time>
      </trkpt>
      <trkpt lat="42.5457527675" lon="-0.6985137798">
        <ele>749.97</ele>
        <time>2022-04-16T07:56:56Z</time>
      </trkpt>
      <trkpt lat="42.5458684377" lon="-0.6986415200">
        <ele>752.37</ele>
        <time>2022-04-16T07:57:11Z</time>
      </trkpt>
      <trkpt lat="42.5459913164" lon="-0.6987167895">
        <ele>755.25</ele>
        <time>2022-04-16T07:57:25Z</time>
      </trkpt>
      <trkpt lat="42.5460765604" lon="-0.6987676676">
        <ele>758.14</ele>
        <time>2022-04-16T07:57:37Z</time>
      </trkpt>
      <trkpt lat="42.5461484771" lon="-0.6988250837">
        <ele>760.54</ele>
        <time>2022-04-16T07:57:48Z</time>
      </trkpt>
      <trkpt lat="42.5461643189" lon="-0.6988384947">
        <ele>760.54</ele>
        <time>2022-04-16T07:57:50Z</time>
      </trkpt>
      <trkpt lat="42.5462156162" lon="-0.6988712680">
        <ele>761.02</ele>
        <time>2022-04-16T07:57:55Z</time>
      </trkpt>
      <trkpt lat="42.5462983456" lon="-0.6989613734">
        <ele>761.02</ele>
        <time>2022-04-16T07:58:04Z</time>
      </trkpt>
      <trkpt lat="42.5464453641" lon="-0.6990611181">
        <ele>761.02</ele>
        <time>2022-04-16T07:58:20Z</time>
      </trkpt>
      <trkpt lat="42.5465705059" lon="-0.6991062965">
        <ele>761.02</ele>
        <time>2022-04-16T07:58:33Z</time>
      </trkpt>
      <trkpt lat="42.5467392337" lon="-0.6990939751">
        <ele>761.50</ele>
        <time>2022-04-16T07:58:48Z</time>
      </trkpt>
      <trkpt lat="42.5469101407" lon="-0.6990626268">
        <ele>761.50</ele>
        <time>2022-04-16T07:59:03Z</time>
      </trkpt>
      <trkpt lat="42.5470357016" lon="-0.6990345474">
        <ele>760.54</ele>
        <time>2022-04-16T07:59:15Z</time>
      </trkpt>
      <trkpt lat="42.5471695606" lon="-0.6990135927">
        <ele>760.06</ele>
        <time>2022-04-16T07:59:27Z</time>
      </trkpt>
      <trkpt lat="42.5473682955" lon="-0.6990337931">
        <ele>759.10</ele>
        <time>2022-04-16T07:59:44Z</time>
      </trkpt>
      <trkpt lat="42.5476050004" lon="-0.6990361400">
        <ele>758.62</ele>
        <time>2022-04-16T08:00:04Z</time>
      </trkpt>
      <trkpt lat="42.5477759074" lon="-0.6990213878">
        <ele>756.69</ele>
        <time>2022-04-16T08:00:19Z</time>
      </trkpt>
      <trkpt lat="42.5478162244" lon="-0.6990197953">
        <ele>756.21</ele>
        <time>2022-04-16T08:00:23Z</time>
      </trkpt>
      <trkpt lat="42.5479233451" lon="-0.6990213878">
        <ele>755.73</ele>
        <time>2022-04-16T08:00:34Z</time>
      </trkpt>
      <trkpt lat="42.5481464714" lon="-0.6991339568">
        <ele>753.81</ele>
        <time>2022-04-16T08:00:55Z</time>
      </trkpt>
      <trkpt lat="42.5483416859" lon="-0.6992822327">
        <ele>752.37</ele>
        <time>2022-04-16T08:01:13Z</time>
      </trkpt>
      <trkpt lat="42.5485344697" lon="-0.6994414050">
        <ele>751.89</ele>
        <time>2022-04-16T08:01:35Z</time>
      </trkpt>
      <trkpt lat="42.5487185363" lon="-0.6996475998">
        <ele>750.93</ele>
        <time>2022-04-16T08:01:55Z</time>
      </trkpt>
      <trkpt lat="42.5488038640" lon="-0.6997046806">
        <ele>747.08</ele>
        <time>2022-04-16T08:02:06Z</time>
      </trkpt>
      <trkpt lat="42.5488057919" lon="-0.6997060217">
        <ele>753.33</ele>
        <time>2022-04-16T08:02:07Z</time>
      </trkpt>
      <trkpt lat="42.5488166045" lon="-0.6997061893">
        <ele>750.93</ele>
        <time>2022-04-16T08:02:08Z</time>
      </trkpt>
      <trkpt lat="42.5490347017" lon="-0.6998278107">
        <ele>749.49</ele>
        <time>2022-04-16T08:02:28Z</time>
      </trkpt>
      <trkpt lat="42.5492263120" lon="-0.6999106240">
        <ele>748.04</ele>
        <time>2022-04-16T08:02:46Z</time>
      </trkpt>
      <trkpt lat="42.5494211912" lon="-0.6999887433">
        <ele>747.08</ele>
        <time>2022-04-16T08:03:05Z</time>
      </trkpt>
      <trkpt lat="42.5496036652" lon="-0.7000816986">
        <ele>745.64</ele>
        <time>2022-04-16T08:03:21Z</time>
      </trkpt>
      <trkpt lat="42.5498424657" lon="-0.7002037391">
        <ele>744.68</ele>
        <time>2022-04-16T08:03:44Z</time>
      </trkpt>
      <trkpt lat="42.5500592217" lon="-0.7003638335">
        <ele>742.76</ele>
        <time>2022-04-16T08:04:06Z</time>
      </trkpt>
      <trkpt lat="42.5502702780" lon="-0.7005425356">
        <ele>741.31</ele>
        <time>2022-04-16T08:04:28Z</time>
      </trkpt>
      <trkpt lat="42.5503943302" lon="-0.7006320544">
        <ele>740.35</ele>
        <time>2022-04-16T08:04:47Z</time>
      </trkpt>
      <trkpt lat="42.5505013671" lon="-0.7006927393">
        <ele>739.87</ele>
        <time>2022-04-16T08:05:10Z</time>
      </trkpt>
      <trkpt lat="42.5507454481" lon="-0.7007298712">
        <ele>738.43</ele>
        <time>2022-04-16T08:05:33Z</time>
      </trkpt>
      <trkpt lat="42.5509284250" lon="-0.7007291168">
        <ele>737.47</ele>
        <time>2022-04-16T08:05:50Z</time>
      </trkpt>
      <trkpt lat="42.5511217117" lon="-0.7007292006">
        <ele>736.51</ele>
        <time>2022-04-16T08:06:08Z</time>
      </trkpt>
      <trkpt lat="42.5513292477" lon="-0.7006958406">
        <ele>735.55</ele>
        <time>2022-04-16T08:06:30Z</time>
      </trkpt>
      <trkpt lat="42.5515455008" lon="-0.7006493211">
        <ele>734.10</ele>
        <time>2022-04-16T08:06:49Z</time>
      </trkpt>
      <trkpt lat="42.5517704710" lon="-0.7005983591">
        <ele>731.70</ele>
        <time>2022-04-16T08:07:11Z</time>
      </trkpt>
      <trkpt lat="42.5519948546" lon="-0.7005693577">
        <ele>730.26</ele>
        <time>2022-04-16T08:07:33Z</time>
      </trkpt>
      <trkpt lat="42.5522095151" lon="-0.7005862892">
        <ele>728.34</ele>
        <time>2022-04-16T08:07:55Z</time>
      </trkpt>
      <trkpt lat="42.5522292964" lon="-0.7005867083">
        <ele>727.86</ele>
        <time>2022-04-16T08:07:57Z</time>
      </trkpt>
      <trkpt lat="42.5524545182" lon="-0.7006463036">
        <ele>726.41</ele>
        <time>2022-04-16T08:08:17Z</time>
      </trkpt>
      <trkpt lat="42.5526343938" lon="-0.7007291168">
        <ele>724.49</ele>
        <time>2022-04-16T08:08:37Z</time>
      </trkpt>
      <trkpt lat="42.5528620463" lon="-0.7008681726">
        <ele>722.57</ele>
        <time>2022-04-16T08:09:03Z</time>
      </trkpt>
      <trkpt lat="42.5530744437" lon="-0.7010070607">
        <ele>721.13</ele>
        <time>2022-04-16T08:09:24Z</time>
      </trkpt>
      <trkpt lat="42.5533244759" lon="-0.7011166122">
        <ele>719.20</ele>
        <time>2022-04-16T08:09:48Z</time>
      </trkpt>
      <trkpt lat="42.5535282400" lon="-0.7011665683">
        <ele>716.80</ele>
        <time>2022-04-16T08:10:10Z</time>
      </trkpt>
      <trkpt lat="42.5535261445" lon="-0.7011613715">
        <ele>716.80</ele>
        <time>2022-04-16T08:10:46Z</time>
      </trkpt>
      <trkpt lat="42.5536617637" lon="-0.7011715136">
        <ele>715.84</ele>
        <time>2022-04-16T08:11:04Z</time>
      </trkpt>
      <trkpt lat="42.5537911803" lon="-0.7009717729">
        <ele>712.95</ele>
        <time>2022-04-16T08:11:25Z</time>
      </trkpt>
      <trkpt lat="42.5537967961" lon="-0.7008895464">
        <ele>712.47</ele>
        <time>2022-04-16T08:11:31Z</time>
      </trkpt>
      <trkpt lat="42.5537794456" lon="-0.7005879655">
        <ele>711.03</ele>
        <time>2022-04-16T08:11:48Z</time>
      </trkpt>
      <trkpt lat="42.5537411403" lon="-0.7003109436">
        <ele>709.11</ele>
        <time>2022-04-16T08:12:09Z</time>
      </trkpt>
      <trkpt lat="42.5537158269" lon="-0.7000174094">
        <ele>708.15</ele>
        <time>2022-04-16T08:12:28Z</time>
      </trkpt>
      <trkpt lat="42.5536999851" lon="-0.6998321693">
        <ele>707.19</ele>
        <time>2022-04-16T08:12:43Z</time>
      </trkpt>
      <trkpt lat="42.5536869932" lon="-0.6995729171">
        <ele>706.71</ele>
        <time>2022-04-16T08:13:01Z</time>
      </trkpt>
      <trkpt lat="42.5536449999" lon="-0.6992357131">
        <ele>704.78</ele>
        <time>2022-04-16T08:13:25Z</time>
      </trkpt>
      <trkpt lat="42.5536154956" lon="-0.6989444420">
        <ele>703.34</ele>
        <time>2022-04-16T08:13:45Z</time>
      </trkpt>
      <trkpt lat="42.5535849854" lon="-0.6986812502">
        <ele>702.86</ele>
        <time>2022-04-16T08:14:03Z</time>
      </trkpt>
      <trkpt lat="42.5535741728" lon="-0.6984116882">
        <ele>700.94</ele>
        <time>2022-04-16T08:14:21Z</time>
      </trkpt>
      <trkpt lat="42.5535980612" lon="-0.6983645819">
        <ele>700.46</ele>
        <time>2022-04-16T08:14:25Z</time>
      </trkpt>
      <trkpt lat="42.5536497775" lon="-0.6983401906">
        <ele>698.53</ele>
        <time>2022-04-16T08:14:30Z</time>
      </trkpt>
      <trkpt lat="42.5537883304" lon="-0.6983979419">
        <ele>696.61</ele>
        <time>2022-04-16T08:14:43Z</time>
      </trkpt>
      <trkpt lat="42.5539412163" lon="-0.6985217426">
        <ele>695.17</ele>
        <time>2022-04-16T08:14:58Z</time>
      </trkpt>
      <trkpt lat="42.5541137159" lon="-0.6986183021">
        <ele>693.25</ele>
        <time>2022-04-16T08:15:16Z</time>
      </trkpt>
      <trkpt lat="42.5541909970" lon="-0.6986908894">
        <ele>691.81</ele>
        <time>2022-04-16T08:15:25Z</time>
      </trkpt>
      <trkpt lat="42.5544012990" lon="-0.6989072263">
        <ele>690.84</ele>
        <time>2022-04-16T08:15:46Z</time>
      </trkpt>
      <trkpt lat="42.5544749759" lon="-0.6989628822">
        <ele>690.36</ele>
        <time>2022-04-16T08:16:02Z</time>
      </trkpt>
      <trkpt lat="42.5544819329" lon="-0.6989207212">
        <ele>688.92</ele>
        <time>2022-04-16T08:16:05Z</time>
      </trkpt>
      <trkpt lat="42.5544820167" lon="-0.6988929771">
        <ele>688.92</ele>
        <time>2022-04-16T08:16:07Z</time>
      </trkpt>
      <trkpt lat="42.5544943381" lon="-0.6988353096">
        <ele>687.48</ele>
        <time>2022-04-16T08:16:11Z</time>
      </trkpt>
      <trkpt lat="42.5545192324" lon="-0.6986002810">
        <ele>686.04</ele>
        <time>2022-04-16T08:16:28Z</time>
      </trkpt>
      <trkpt lat="42.5545116048" lon="-0.6985460501">
        <ele>685.56</ele>
        <time>2022-04-16T08:16:48Z</time>
      </trkpt>
      <trkpt lat="42.5545111857" lon="-0.6983569544">
        <ele>684.12</ele>
        <time>2022-04-16T08:17:03Z</time>
      </trkpt>
      <trkpt lat="42.5545058213" lon="-0.6981232669">
        <ele>683.63</ele>
        <time>2022-04-16T08:17:20Z</time>
      </trkpt>
      <trkpt lat="42.5544950925" lon="-0.6979404576">
        <ele>685.08</ele>
        <time>2022-04-16T08:17:31Z</time>
      </trkpt>
      <trkpt lat="42.5544956792" lon="-0.6976330094">
        <ele>685.56</ele>
        <time>2022-04-16T08:17:51Z</time>
      </trkpt>
      <trkpt lat="42.5544886384" lon="-0.6973446719">
        <ele>685.56</ele>
        <time>2022-04-16T08:18:11Z</time>
      </trkpt>
      <trkpt lat="42.5544739701" lon="-0.6970938854">
        <ele>682.67</ele>
        <time>2022-04-16T08:18:28Z</time>
      </trkpt>
      <trkpt lat="42.5544505008" lon="-0.6967915501">
        <ele>682.19</ele>
        <time>2022-04-16T08:18:47Z</time>
      </trkpt>
      <trkpt lat="42.5544185657" lon="-0.6965576112">
        <ele>682.19</ele>
        <time>2022-04-16T08:19:05Z</time>
      </trkpt>
      <trkpt lat="42.5543937553" lon="-0.6963553559">
        <ele>682.19</ele>
        <time>2022-04-16T08:19:16Z</time>
      </trkpt>
      <trkpt lat="42.5543884747" lon="-0.6961437128">
        <ele>682.19</ele>
        <time>2022-04-16T08:19:31Z</time>
      </trkpt>
      <trkpt lat="42.5543887261" lon="-0.6961136218">
        <ele>682.19</ele>
        <time>2022-04-16T08:19:33Z</time>
      </trkpt>
      <trkpt lat="42.5543769915" lon="-0.6959540304">
        <ele>683.63</ele>
        <time>2022-04-16T08:19:42Z</time>
      </trkpt>
      <trkpt lat="42.5543679390" lon="-0.6956788525">
        <ele>683.63</ele>
        <time>2022-04-16T08:20:00Z</time>
      </trkpt>
      <trkpt lat="42.5543580484" lon="-0.6953610107">
        <ele>683.63</ele>
        <time>2022-04-16T08:20:21Z</time>
      </trkpt>
      <trkpt lat="42.5543423742" lon="-0.6951201987">
        <ele>682.19</ele>
        <time>2022-04-16T08:20:38Z</time>
      </trkpt>
      <trkpt lat="42.5543322321" lon="-0.6948997546">
        <ele>680.27</ele>
        <time>2022-04-16T08:20:52Z</time>
      </trkpt>
      <trkpt lat="42.5543135405" lon="-0.6946746167">
        <ele>678.35</ele>
        <time>2022-04-16T08:21:07Z</time>
      </trkpt>
      <trkpt lat="42.5543031469" lon="-0.6943888776">
        <ele>677.87</ele>
        <time>2022-04-16T08:21:24Z</time>
      </trkpt>
      <trkpt lat="42.5542999618" lon="-0.6943273544">
        <ele>676.42</ele>
        <time>2022-04-16T08:21:29Z</time>
      </trkpt>
      <trkpt lat="42.5542532746" lon="-0.6940769032">
        <ele>678.35</ele>
        <time>2022-04-16T08:21:46Z</time>
      </trkpt>
      <trkpt lat="42.5542440545" lon="-0.6938492507">
        <ele>679.31</ele>
        <time>2022-04-16T08:22:02Z</time>
      </trkpt>
      <trkpt lat="42.5541909970" lon="-0.6935929321">
        <ele>679.31</ele>
        <time>2022-04-16T08:22:22Z</time>
      </trkpt>
      <trkpt lat="42.5541400351" lon="-0.6933139823">
        <ele>679.31</ele>
        <time>2022-04-16T08:22:42Z</time>
      </trkpt>
      <trkpt lat="42.5540907495" lon="-0.6932387967">
        <ele>680.27</ele>
        <time>2022-04-16T08:22:55Z</time>
      </trkpt>
      <trkpt lat="42.5540751591" lon="-0.6932402216">
        <ele>675.94</ele>
        <time>2022-04-16T08:23:03Z</time>
      </trkpt>
      <trkpt lat="42.5540708844" lon="-0.6932396349">
        <ele>680.75</ele>
        <time>2022-04-16T08:23:04Z</time>
      </trkpt>
      <trkpt lat="42.5540574733" lon="-0.6932460889">
        <ele>680.75</ele>
        <time>2022-04-16T08:23:17Z</time>
      </trkpt>
      <trkpt lat="42.5540717226" lon="-0.6932364497">
        <ele>680.27</ele>
        <time>2022-04-16T08:23:33Z</time>
      </trkpt>
      <trkpt lat="42.5540744886" lon="-0.6932377070">
        <ele>679.79</ele>
        <time>2022-04-16T08:24:01Z</time>
      </trkpt>
      <trkpt lat="42.5540781766" lon="-0.6932293251">
        <ele>679.79</ele>
        <time>2022-04-16T08:24:44Z</time>
      </trkpt>
      <trkpt lat="42.5540683698" lon="-0.6932408921">
        <ele>680.27</ele>
        <time>2022-04-16T08:25:34Z</time>
      </trkpt>
      <trkpt lat="42.5540769193" lon="-0.6932219490">
        <ele>680.27</ele>
        <time>2022-04-16T08:26:18Z</time>
      </trkpt>
      <trkpt lat="42.5540635921" lon="-0.6932353601">
        <ele>680.27</ele>
        <time>2022-04-16T08:27:02Z</time>
      </trkpt>
      <trkpt lat="42.5540895760" lon="-0.6932178419">
        <ele>680.27</ele>
        <time>2022-04-16T08:27:51Z</time>
      </trkpt>
      <trkpt lat="42.5540748239" lon="-0.6932238769">
        <ele>680.27</ele>
        <time>2022-04-16T08:28:18Z</time>
      </trkpt>
      <trkpt lat="42.5540769193" lon="-0.6932334322">
        <ele>680.27</ele>
        <time>2022-04-16T08:29:04Z</time>
      </trkpt>
      <trkpt lat="42.5540559646" lon="-0.6932338513">
        <ele>680.27</ele>
        <time>2022-04-16T08:29:55Z</time>
      </trkpt>
      <trkpt lat="42.5540694594" lon="-0.6932361145">
        <ele>679.79</ele>
        <time>2022-04-16T08:30:50Z</time>
      </trkpt>
      <trkpt lat="42.5540811941" lon="-0.6932372041">
        <ele>679.79</ele>
        <time>2022-04-16T08:31:28Z</time>
      </trkpt>
      <trkpt lat="42.5540808588" lon="-0.6932298280">
        <ele>679.79</ele>
        <time>2022-04-16T08:32:04Z</time>
      </trkpt>
      <trkpt lat="42.5540736504" lon="-0.6932175905">
        <ele>679.79</ele>
        <time>2022-04-16T08:32:41Z</time>
      </trkpt>
      <trkpt lat="42.5540651847" lon="-0.6932535488">
        <ele>679.79</ele>
        <time>2022-04-16T08:33:25Z</time>
      </trkpt>
      <trkpt lat="42.5540577248" lon="-0.6932573207">
        <ele>679.79</ele>
        <time>2022-04-16T08:34:09Z</time>
      </trkpt>
      <trkpt lat="42.5540619157" lon="-0.6932345219">
        <ele>679.79</ele>
        <time>2022-04-16T08:34:35Z</time>
      </trkpt>
      <trkpt lat="42.5540777575" lon="-0.6932347734">
        <ele>681.23</ele>
        <time>2022-04-16T08:35:09Z</time>
      </trkpt>
      <trkpt lat="42.5540733989" lon="-0.6932405569">
        <ele>681.23</ele>
        <time>2022-04-16T08:35:37Z</time>
      </trkpt>
      <trkpt lat="42.5540798530" lon="-0.6932287384">
        <ele>680.27</ele>
        <time>2022-04-16T08:36:06Z</time>
      </trkpt>
      <trkpt lat="42.5540865585" lon="-0.6932322588">
        <ele>680.27</ele>
        <time>2022-04-16T08:36:37Z</time>
      </trkpt>
      <trkpt lat="42.5540882349" lon="-0.6932126451">
        <ele>680.27</ele>
        <time>2022-04-16T08:37:19Z</time>
      </trkpt>
      <trkpt lat="42.5540797692" lon="-0.6932091247">
        <ele>680.27</ele>
        <time>2022-04-16T08:37:55Z</time>
      </trkpt>
      <trkpt lat="42.5540917553" lon="-0.6932128128">
        <ele>680.75</ele>
        <time>2022-04-16T08:38:36Z</time>
      </trkpt>
      <trkpt lat="42.5540893245" lon="-0.6932183448">
        <ele>682.67</ele>
        <time>2022-04-16T08:38:55Z</time>
      </trkpt>
      <trkpt lat="42.5540903304" lon="-0.6932169199">
        <ele>680.27</ele>
        <time>2022-04-16T08:38:58Z</time>
      </trkpt>
      <trkpt lat="42.5540894084" lon="-0.6932193507">
        <ele>681.71</ele>
        <time>2022-04-16T08:39:00Z</time>
      </trkpt>
      <trkpt lat="42.5540735666" lon="-0.6932047661">
        <ele>681.71</ele>
        <time>2022-04-16T08:39:19Z</time>
      </trkpt>
      <trkpt lat="42.5540679507" lon="-0.6931964681">
        <ele>682.19</ele>
        <time>2022-04-16T08:39:45Z</time>
      </trkpt>
      <trkpt lat="42.5540752430" lon="-0.6932007428">
        <ele>682.19</ele>
        <time>2022-04-16T08:40:05Z</time>
      </trkpt>
      <trkpt lat="42.5541041605" lon="-0.6931511220">
        <ele>680.27</ele>
        <time>2022-04-16T08:40:20Z</time>
      </trkpt>
      <trkpt lat="42.5540487561" lon="-0.6929479446">
        <ele>679.31</ele>
        <time>2022-04-16T08:40:40Z</time>
      </trkpt>
      <trkpt lat="42.5540283881" lon="-0.6928087212">
        <ele>678.35</ele>
        <time>2022-04-16T08:40:51Z</time>
      </trkpt>
      <trkpt lat="42.5540097803" lon="-0.6925413385">
        <ele>675.46</ele>
        <time>2022-04-16T08:41:10Z</time>
      </trkpt>
      <trkpt lat="42.5540098641" lon="-0.6922848523">
        <ele>674.50</ele>
        <time>2022-04-16T08:41:28Z</time>
      </trkpt>
      <trkpt lat="42.5539988838" lon="-0.6920488179">
        <ele>673.54</ele>
        <time>2022-04-16T08:41:45Z</time>
      </trkpt>
      <trkpt lat="42.5539887417" lon="-0.6917726342">
        <ele>673.06</ele>
        <time>2022-04-16T08:42:03Z</time>
      </trkpt>
      <trkpt lat="42.5539662782" lon="-0.6916077621">
        <ele>672.58</ele>
        <time>2022-04-16T08:42:16Z</time>
      </trkpt>
      <trkpt lat="42.5539504364" lon="-0.6914736517">
        <ele>673.54</ele>
        <time>2022-04-16T08:42:25Z</time>
      </trkpt>
      <trkpt lat="42.5539437309" lon="-0.6914001424">
        <ele>672.10</ele>
        <time>2022-04-16T08:42:30Z</time>
      </trkpt>
      <trkpt lat="42.5539553817" lon="-0.6911981385">
        <ele>673.06</ele>
        <time>2022-04-16T08:42:44Z</time>
      </trkpt>
      <trkpt lat="42.5539413001" lon="-0.6911817938">
        <ele>672.10</ele>
        <time>2022-04-16T08:42:48Z</time>
      </trkpt>
      <trkpt lat="42.5539450720" lon="-0.6911396328">
        <ele>672.10</ele>
        <time>2022-04-16T08:42:51Z</time>
      </trkpt>
      <trkpt lat="42.5539601594" lon="-0.6910838932">
        <ele>671.62</ele>
        <time>2022-04-16T08:42:55Z</time>
      </trkpt>
      <trkpt lat="42.5539799407" lon="-0.6909983978">
        <ele>671.14</ele>
        <time>2022-04-16T08:43:01Z</time>
      </trkpt>
      <trkpt lat="42.5540096965" lon="-0.6908533070">
        <ele>671.62</ele>
        <time>2022-04-16T08:43:12Z</time>
      </trkpt>
      <trkpt lat="42.5540091936" lon="-0.6908266526">
        <ele>672.10</ele>
        <time>2022-04-16T08:43:15Z</time>
      </trkpt>
      <trkpt lat="42.5539770070" lon="-0.6905505527">
        <ele>673.06</ele>
        <time>2022-04-16T08:43:32Z</time>
      </trkpt>
      <trkpt lat="42.5539398752" lon="-0.6902151089">
        <ele>673.54</ele>
        <time>2022-04-16T08:43:55Z</time>
      </trkpt>
      <trkpt lat="42.5539255422" lon="-0.6899903063">
        <ele>675.46</ele>
        <time>2022-04-16T08:44:11Z</time>
      </trkpt>
      <trkpt lat="42.5538060162" lon="-0.6897902302">
        <ele>675.94</ele>
        <time>2022-04-16T08:44:28Z</time>
      </trkpt>
      <trkpt lat="42.5537589099" lon="-0.6896064151">
        <ele>677.39</ele>
        <time>2022-04-16T08:44:41Z</time>
      </trkpt>
      <trkpt lat="42.5537346024" lon="-0.6893956102">
        <ele>679.31</ele>
        <time>2022-04-16T08:44:57Z</time>
      </trkpt>
      <trkpt lat="42.5536622666" lon="-0.6891485117">
        <ele>680.75</ele>
        <time>2022-04-16T08:45:14Z</time>
      </trkpt>
      <trkpt lat="42.5536219496" lon="-0.6890962087">
        <ele>680.75</ele>
        <time>2022-04-16T08:45:20Z</time>
      </trkpt>
      <trkpt lat="42.5535156671" lon="-0.6888282392">
        <ele>680.75</ele>
        <time>2022-04-16T08:45:39Z</time>
      </trkpt>
      <trkpt lat="42.5534911081" lon="-0.6887793727">
        <ele>680.75</ele>
        <time>2022-04-16T08:45:43Z</time>
      </trkpt>
      <trkpt lat="42.5533955544" lon="-0.6884892751">
        <ele>681.23</ele>
        <time>2022-04-16T08:46:02Z</time>
      </trkpt>
      <trkpt lat="42.5533776172" lon="-0.6884078030">
        <ele>681.23</ele>
        <time>2022-04-16T08:46:08Z</time>
      </trkpt>
      <trkpt lat="42.5533024315" lon="-0.6881545018">
        <ele>681.23</ele>
        <time>2022-04-16T08:46:25Z</time>
      </trkpt>
      <trkpt lat="42.5532214623" lon="-0.6878745463">
        <ele>681.71</ele>
        <time>2022-04-16T08:46:45Z</time>
      </trkpt>
      <trkpt lat="42.5531339552" lon="-0.6875873823">
        <ele>681.71</ele>
        <time>2022-04-16T08:47:04Z</time>
      </trkpt>
      <trkpt lat="42.5530470349" lon="-0.6873084325">
        <ele>681.71</ele>
        <time>2022-04-16T08:47:24Z</time>
      </trkpt>
      <trkpt lat="42.5529641379" lon="-0.6870742422">
        <ele>682.19</ele>
        <time>2022-04-16T08:47:39Z</time>
      </trkpt>
      <trkpt lat="42.5529013574" lon="-0.6868012436">
        <ele>682.19</ele>
        <time>2022-04-16T08:47:56Z</time>
      </trkpt>
      <trkpt lat="42.5528260879" lon="-0.6865433324">
        <ele>682.19</ele>
        <time>2022-04-16T08:48:12Z</time>
      </trkpt>
      <trkpt lat="42.5527446996" lon="-0.6862904504">
        <ele>682.19</ele>
        <time>2022-04-16T08:48:28Z</time>
      </trkpt>
      <trkpt lat="42.5526622217" lon="-0.6860234030">
        <ele>682.67</ele>
        <time>2022-04-16T08:48:46Z</time>
      </trkpt>
      <trkpt lat="42.5526476372" lon="-0.6857758015">
        <ele>685.56</ele>
        <time>2022-04-16T08:49:04Z</time>
      </trkpt>
      <trkpt lat="42.5527959131" lon="-0.6856418587">
        <ele>683.15</ele>
        <time>2022-04-16T08:49:21Z</time>
      </trkpt>
      <trkpt lat="42.5529124215" lon="-0.6854338199">
        <ele>681.23</ele>
        <time>2022-04-16T08:49:38Z</time>
      </trkpt>
      <trkpt lat="42.5529191270" lon="-0.6853463128">
        <ele>683.15</ele>
        <time>2022-04-16T08:49:44Z</time>
      </trkpt>
      <trkpt lat="42.5528994296" lon="-0.6850988790">
        <ele>685.08</ele>
        <time>2022-04-16T08:50:02Z</time>
      </trkpt>
      <trkpt lat="42.5528496411" lon="-0.6847698055">
        <ele>687.96</ele>
        <time>2022-04-16T08:50:25Z</time>
      </trkpt>
      <trkpt lat="42.5528759602" lon="-0.6845115591">
        <ele>688.44</ele>
        <time>2022-04-16T08:50:42Z</time>
      </trkpt>
      <trkpt lat="42.5528822467" lon="-0.6842953060">
        <ele>688.44</ele>
        <time>2022-04-16T08:50:57Z</time>
      </trkpt>
      <trkpt lat="42.5528866053" lon="-0.6841407437">
        <ele>688.44</ele>
        <time>2022-04-16T08:51:10Z</time>
      </trkpt>
      <trkpt lat="42.5528563466" lon="-0.6839973293">
        <ele>688.92</ele>
        <time>2022-04-16T08:51:21Z</time>
      </trkpt>
      <trkpt lat="42.5528286025" lon="-0.6839320343">
        <ele>687.96</ele>
        <time>2022-04-16T08:51:25Z</time>
      </trkpt>
      <trkpt lat="42.5528051332" lon="-0.6838860177">
        <ele>690.36</ele>
        <time>2022-04-16T08:51:28Z</time>
      </trkpt>
      <trkpt lat="42.5527921412" lon="-0.6838560943">
        <ele>689.40</ele>
        <time>2022-04-16T08:51:30Z</time>
      </trkpt>
      <trkpt lat="42.5527812447" lon="-0.6837911345">
        <ele>688.44</ele>
        <time>2022-04-16T08:51:45Z</time>
      </trkpt>
      <trkpt lat="42.5527553447" lon="-0.6837487221">
        <ele>688.44</ele>
        <time>2022-04-16T08:52:10Z</time>
      </trkpt>
      <trkpt lat="42.5526863616" lon="-0.6835354865">
        <ele>688.44</ele>
        <time>2022-04-16T08:52:25Z</time>
      </trkpt>
      <trkpt lat="42.5526786502" lon="-0.6834235881">
        <ele>687.96</ele>
        <time>2022-04-16T08:52:34Z</time>
      </trkpt>
      <trkpt lat="42.5526914746" lon="-0.6831654254">
        <ele>686.04</ele>
        <time>2022-04-16T08:52:50Z</time>
      </trkpt>
      <trkpt lat="42.5526921451" lon="-0.6829550397">
        <ele>685.56</ele>
        <time>2022-04-16T08:53:06Z</time>
      </trkpt>
      <trkpt lat="42.5526709389" lon="-0.6827455759">
        <ele>687.00</ele>
        <time>2022-04-16T08:53:22Z</time>
      </trkpt>
      <trkpt lat="42.5527615473" lon="-0.6824698951">
        <ele>687.48</ele>
        <time>2022-04-16T08:53:40Z</time>
      </trkpt>
      <trkpt lat="42.5528483838" lon="-0.6821755227">
        <ele>687.96</ele>
        <time>2022-04-16T08:54:00Z</time>
      </trkpt>
      <trkpt lat="42.5529048778" lon="-0.6819074694">
        <ele>687.96</ele>
        <time>2022-04-16T08:54:17Z</time>
      </trkpt>
      <trkpt lat="42.5529169478" lon="-0.6818293501">
        <ele>687.96</ele>
        <time>2022-04-16T08:54:23Z</time>
      </trkpt>
      <trkpt lat="42.5529057160" lon="-0.6816650648">
        <ele>687.00</ele>
        <time>2022-04-16T08:54:34Z</time>
      </trkpt>
      <trkpt lat="42.5528969988" lon="-0.6815704331">
        <ele>685.56</ele>
        <time>2022-04-16T08:54:40Z</time>
      </trkpt>
      <trkpt lat="42.5528633036" lon="-0.6813503243">
        <ele>685.08</ele>
        <time>2022-04-16T08:54:55Z</time>
      </trkpt>
      <trkpt lat="42.5528990105" lon="-0.6812782399">
        <ele>683.63</ele>
        <time>2022-04-16T08:55:00Z</time>
      </trkpt>
      <trkpt lat="42.5529265869" lon="-0.6812240928">
        <ele>682.67</ele>
        <time>2022-04-16T08:55:05Z</time>
      </trkpt>
      <trkpt lat="42.5530871842" lon="-0.6810117792">
        <ele>681.23</ele>
        <time>2022-04-16T08:55:24Z</time>
      </trkpt>
      <trkpt lat="42.5531353801" lon="-0.6809580512">
        <ele>680.75</ele>
        <time>2022-04-16T08:55:29Z</time>
      </trkpt>
      <trkpt lat="42.5532404892" lon="-0.6808272097">
        <ele>679.79</ele>
        <time>2022-04-16T08:55:41Z</time>
      </trkpt>
      <trkpt lat="42.5532839913" lon="-0.6807637587">
        <ele>681.71</ele>
        <time>2022-04-16T08:55:47Z</time>
      </trkpt>
      <trkpt lat="42.5532998331" lon="-0.6807374395">
        <ele>680.27</ele>
        <time>2022-04-16T08:55:49Z</time>
      </trkpt>
      <trkpt lat="42.5533196982" lon="-0.6807146408">
        <ele>681.71</ele>
        <time>2022-04-16T08:55:51Z</time>
      </trkpt>
      <trkpt lat="42.5535419863" lon="-0.6804058515">
        <ele>681.23</ele>
        <time>2022-04-16T08:56:18Z</time>
      </trkpt>
      <trkpt lat="42.5535664614" lon="-0.6803539675">
        <ele>679.79</ele>
        <time>2022-04-16T08:56:22Z</time>
      </trkpt>
      <trkpt lat="42.5535743404" lon="-0.6803268101">
        <ele>681.23</ele>
        <time>2022-04-16T08:56:24Z</time>
      </trkpt>
      <trkpt lat="42.5536930282" lon="-0.6801306736">
        <ele>679.31</ele>
        <time>2022-04-16T08:56:39Z</time>
      </trkpt>
      <trkpt lat="42.5538694672" lon="-0.6798633747">
        <ele>679.31</ele>
        <time>2022-04-16T08:57:01Z</time>
      </trkpt>
      <trkpt lat="42.5539225247" lon="-0.6797811482">
        <ele>679.79</ele>
        <time>2022-04-16T08:57:08Z</time>
      </trkpt>
      <trkpt lat="42.5540179946" lon="-0.6796411704">
        <ele>679.31</ele>
        <time>2022-04-16T08:57:21Z</time>
      </trkpt>
      <trkpt lat="42.5541110337" lon="-0.6795020308">
        <ele>679.31</ele>
        <time>2022-04-16T08:57:33Z</time>
      </trkpt>
      <trkpt lat="42.5541975349" lon="-0.6793450378">
        <ele>680.75</ele>
        <time>2022-04-16T08:57:44Z</time>
      </trkpt>
      <trkpt lat="42.5542148855" lon="-0.6793163717">
        <ele>679.31</ele>
        <time>2022-04-16T08:57:46Z</time>
      </trkpt>
      <trkpt lat="42.5542585552" lon="-0.6792140286">
        <ele>678.83</ele>
        <time>2022-04-16T08:57:53Z</time>
      </trkpt>
      <trkpt lat="42.5543255266" lon="-0.6790328119">
        <ele>678.83</ele>
        <time>2022-04-16T08:58:08Z</time>
      </trkpt>
      <trkpt lat="42.5543346629" lon="-0.6789387669">
        <ele>680.27</ele>
        <time>2022-04-16T08:58:13Z</time>
      </trkpt>
      <trkpt lat="42.5543462299" lon="-0.6788866315">
        <ele>676.42</ele>
        <time>2022-04-16T08:58:16Z</time>
      </trkpt>
      <trkpt lat="42.5543478224" lon="-0.6788700353">
        <ele>676.42</ele>
        <time>2022-04-16T08:58:17Z</time>
      </trkpt>
      <trkpt lat="42.5543487445" lon="-0.6788515951">
        <ele>677.87</ele>
        <time>2022-04-16T08:58:18Z</time>
      </trkpt>
      <trkpt lat="42.5543745607" lon="-0.6787639204">
        <ele>676.91</ele>
        <time>2022-04-16T08:58:23Z</time>
      </trkpt>
      <trkpt lat="42.5543807633" lon="-0.6786723062">
        <ele>679.31</ele>
        <time>2022-04-16T08:58:29Z</time>
      </trkpt>
      <trkpt lat="42.5543770753" lon="-0.6786502618">
        <ele>674.50</ele>
        <time>2022-04-16T08:58:31Z</time>
      </trkpt>
      <trkpt lat="42.5543756504" lon="-0.6786401197">
        <ele>681.23</ele>
        <time>2022-04-16T08:58:32Z</time>
      </trkpt>
      <trkpt lat="42.5543732196" lon="-0.6786295585">
        <ele>681.23</ele>
        <time>2022-04-16T08:58:33Z</time>
      </trkpt>
      <trkpt lat="42.5543689448" lon="-0.6786095258">
        <ele>678.35</ele>
        <time>2022-04-16T08:58:35Z</time>
      </trkpt>
      <trkpt lat="42.5543577969" lon="-0.6785447337">
        <ele>678.35</ele>
        <time>2022-04-16T08:58:41Z</time>
      </trkpt>
      <trkpt lat="42.5543958507" lon="-0.6785055064">
        <ele>678.83</ele>
        <time>2022-04-16T08:58:45Z</time>
      </trkpt>
      <trkpt lat="42.5544564519" lon="-0.6784817856">
        <ele>678.83</ele>
        <time>2022-04-16T08:58:50Z</time>
      </trkpt>
      <trkpt lat="42.5544841960" lon="-0.6784397922">
        <ele>677.39</ele>
        <time>2022-04-16T08:58:53Z</time>
      </trkpt>
      <trkpt lat="42.5545945019" lon="-0.6783074420">
        <ele>674.50</ele>
        <time>2022-04-16T08:59:07Z</time>
      </trkpt>
      <trkpt lat="42.5546040572" lon="-0.6782850623">
        <ele>677.39</ele>
        <time>2022-04-16T08:59:09Z</time>
      </trkpt>
      <trkpt lat="42.5546474755" lon="-0.6781656202">
        <ele>675.46</ele>
        <time>2022-04-16T08:59:17Z</time>
      </trkpt>
      <trkpt lat="42.5546638202" lon="-0.6780460943">
        <ele>678.35</ele>
        <time>2022-04-16T08:59:28Z</time>
      </trkpt>
      <trkpt lat="42.5546426140" lon="-0.6779707409">
        <ele>679.31</ele>
        <time>2022-04-16T08:59:40Z</time>
      </trkpt>
      <trkpt lat="42.5545998663" lon="-0.6779194437">
        <ele>683.15</ele>
        <time>2022-04-16T08:59:51Z</time>
      </trkpt>
      <trkpt lat="42.5545923226" lon="-0.6779192761">
        <ele>679.79</ele>
        <time>2022-04-16T08:59:52Z</time>
      </trkpt>
      <trkpt lat="42.5545861199" lon="-0.6779181026">
        <ele>682.19</ele>
        <time>2022-04-16T08:59:53Z</time>
      </trkpt>
      <trkpt lat="42.5545504969" lon="-0.6779087149">
        <ele>681.71</ele>
        <time>2022-04-16T08:59:57Z</time>
      </trkpt>
      <trkpt lat="42.5545221660" lon="-0.6778784562">
        <ele>682.67</ele>
        <time>2022-04-16T09:00:02Z</time>
      </trkpt>
      <trkpt lat="42.5544842798" lon="-0.6777922064">
        <ele>683.63</ele>
        <time>2022-04-16T09:00:11Z</time>
      </trkpt>
      <trkpt lat="42.5544584636" lon="-0.6777433399">
        <ele>685.08</ele>
        <time>2022-04-16T09:00:15Z</time>
      </trkpt>
      <trkpt lat="42.5544389337" lon="-0.6777098123">
        <ele>683.63</ele>
        <time>2022-04-16T09:00:18Z</time>
      </trkpt>
      <trkpt lat="42.5543640833" lon="-0.6775368936">
        <ele>683.63</ele>
        <time>2022-04-16T09:00:31Z</time>
      </trkpt>
      <trkpt lat="42.5542613212" lon="-0.6772983447">
        <ele>684.60</ele>
        <time>2022-04-16T09:00:51Z</time>
      </trkpt>
      <trkpt lat="42.5542018097" lon="-0.6769672595">
        <ele>684.60</ele>
        <time>2022-04-16T09:01:13Z</time>
      </trkpt>
      <trkpt lat="42.5541860517" lon="-0.6769033056">
        <ele>683.63</ele>
        <time>2022-04-16T09:01:17Z</time>
      </trkpt>
      <trkpt lat="42.5541277137" lon="-0.6767471507">
        <ele>684.12</ele>
        <time>2022-04-16T09:01:30Z</time>
      </trkpt>
      <trkpt lat="42.5541133806" lon="-0.6767262798">
        <ele>686.52</ele>
        <time>2022-04-16T09:01:32Z</time>
      </trkpt>
      <trkpt lat="42.5540303160" lon="-0.6765685324">
        <ele>691.81</ele>
        <time>2022-04-16T09:01:48Z</time>
      </trkpt>
      <trkpt lat="42.5540298969" lon="-0.6765340827">
        <ele>687.96</ele>
        <time>2022-04-16T09:01:51Z</time>
      </trkpt>
      <trkpt lat="42.5540256221" lon="-0.6764944363">
        <ele>690.84</ele>
        <time>2022-04-16T09:01:55Z</time>
      </trkpt>
      <trkpt lat="42.5540382788" lon="-0.6763628405">
        <ele>691.81</ele>
        <time>2022-04-16T09:02:04Z</time>
      </trkpt>
      <trkpt lat="42.5540525280" lon="-0.6763347611">
        <ele>690.36</ele>
        <time>2022-04-16T09:02:06Z</time>
      </trkpt>
      <trkpt lat="42.5541266240" lon="-0.6761987228">
        <ele>690.84</ele>
        <time>2022-04-16T09:02:15Z</time>
      </trkpt>
      <trkpt lat="42.5541433878" lon="-0.6761749182">
        <ele>690.36</ele>
        <time>2022-04-16T09:02:17Z</time>
      </trkpt>
      <trkpt lat="42.5542094372" lon="-0.6759197731">
        <ele>689.88</ele>
        <time>2022-04-16T09:02:34Z</time>
      </trkpt>
      <trkpt lat="42.5542313978" lon="-0.6757139973">
        <ele>688.92</ele>
        <time>2022-04-16T09:02:49Z</time>
      </trkpt>
      <trkpt lat="42.5542508438" lon="-0.6754676532">
        <ele>687.96</ele>
        <time>2022-04-16T09:03:03Z</time>
      </trkpt>
      <trkpt lat="42.5542326551" lon="-0.6751855183">
        <ele>687.96</ele>
        <time>2022-04-16T09:03:23Z</time>
      </trkpt>
      <trkpt lat="42.5542339124" lon="-0.6751431059">
        <ele>686.52</ele>
        <time>2022-04-16T09:03:26Z</time>
      </trkpt>
      <trkpt lat="42.5542343315" lon="-0.6750908867">
        <ele>687.96</ele>
        <time>2022-04-16T09:03:30Z</time>
      </trkpt>
      <trkpt lat="42.5542344153" lon="-0.6750333868">
        <ele>686.52</ele>
        <time>2022-04-16T09:03:34Z</time>
      </trkpt>
      <trkpt lat="42.5542959385" lon="-0.6747344881">
        <ele>686.04</ele>
        <time>2022-04-16T09:03:50Z</time>
      </trkpt>
      <trkpt lat="42.5543099362" lon="-0.6745388545">
        <ele>685.08</ele>
        <time>2022-04-16T09:04:04Z</time>
      </trkpt>
      <trkpt lat="42.5543082599" lon="-0.6745055784">
        <ele>687.00</ele>
        <time>2022-04-16T09:04:07Z</time>
      </trkpt>
      <trkpt lat="42.5542945135" lon="-0.6743348390">
        <ele>687.96</ele>
        <time>2022-04-16T09:04:21Z</time>
      </trkpt>
      <trkpt lat="42.5542731397" lon="-0.6741786003">
        <ele>687.48</ele>
        <time>2022-04-16T09:04:31Z</time>
      </trkpt>
      <trkpt lat="42.5542524364" lon="-0.6740656961">
        <ele>690.36</ele>
        <time>2022-04-16T09:04:40Z</time>
      </trkpt>
      <trkpt lat="42.5542383548" lon="-0.6739338487">
        <ele>690.36</ele>
        <time>2022-04-16T09:04:50Z</time>
      </trkpt>
      <trkpt lat="42.5542273745" lon="-0.6738652848">
        <ele>691.33</ele>
        <time>2022-04-16T09:04:55Z</time>
      </trkpt>
      <trkpt lat="42.5542277936" lon="-0.6738462579">
        <ele>689.88</ele>
        <time>2022-04-16T09:04:57Z</time>
      </trkpt>
      <trkpt lat="42.5542273745" lon="-0.6738203578">
        <ele>693.73</ele>
        <time>2022-04-16T09:04:59Z</time>
      </trkpt>
      <trkpt lat="42.5542208366" lon="-0.6736559048">
        <ele>692.29</ele>
        <time>2022-04-16T09:05:14Z</time>
      </trkpt>
      <trkpt lat="42.5542177353" lon="-0.6736335251">
        <ele>694.21</ele>
        <time>2022-04-16T09:05:16Z</time>
      </trkpt>
      <trkpt lat="42.5542155560" lon="-0.6736143306">
        <ele>690.84</ele>
        <time>2022-04-16T09:05:19Z</time>
      </trkpt>
      <trkpt lat="42.5542143825" lon="-0.6736033503">
        <ele>698.53</ele>
        <time>2022-04-16T09:05:20Z</time>
      </trkpt>
      <trkpt lat="42.5542135444" lon="-0.6735919509">
        <ele>693.25</ele>
        <time>2022-04-16T09:05:21Z</time>
      </trkpt>
      <trkpt lat="42.5542095210" lon="-0.6735694036">
        <ele>696.61</ele>
        <time>2022-04-16T09:05:24Z</time>
      </trkpt>
      <trkpt lat="42.5542097725" lon="-0.6735614408">
        <ele>692.77</ele>
        <time>2022-04-16T09:05:25Z</time>
      </trkpt>
      <trkpt lat="42.5542101916" lon="-0.6735546514">
        <ele>697.57</ele>
        <time>2022-04-16T09:05:26Z</time>
      </trkpt>
      <trkpt lat="42.5542101916" lon="-0.6735422462">
        <ele>694.69</ele>
        <time>2022-04-16T09:05:27Z</time>
      </trkpt>
      <trkpt lat="42.5542073417" lon="-0.6734313536">
        <ele>699.98</ele>
        <time>2022-04-16T09:05:37Z</time>
      </trkpt>
      <trkpt lat="42.5542032346" lon="-0.6734243967">
        <ele>695.17</ele>
        <time>2022-04-16T09:05:38Z</time>
      </trkpt>
      <trkpt lat="42.5542000495" lon="-0.6733929645">
        <ele>698.53</ele>
        <time>2022-04-16T09:05:41Z</time>
      </trkpt>
      <trkpt lat="42.5541723054" lon="-0.6733377278">
        <ele>698.05</ele>
        <time>2022-04-16T09:05:48Z</time>
      </trkpt>
      <trkpt lat="42.5541620795" lon="-0.6733239815">
        <ele>699.02</ele>
        <time>2022-04-16T09:05:50Z</time>
      </trkpt>
      <trkpt lat="42.5541395321" lon="-0.6732582673">
        <ele>702.38</ele>
        <time>2022-04-16T09:05:57Z</time>
      </trkpt>
      <trkpt lat="42.5541360117" lon="-0.6732503884">
        <ele>699.02</ele>
        <time>2022-04-16T09:05:58Z</time>
      </trkpt>
      <trkpt lat="42.5541197509" lon="-0.6731734425">
        <ele>703.34</ele>
        <time>2022-04-16T09:06:06Z</time>
      </trkpt>
      <trkpt lat="42.5541051663" lon="-0.6731187087">
        <ele>699.98</ele>
        <time>2022-04-16T09:06:12Z</time>
      </trkpt>
      <trkpt lat="42.5541067589" lon="-0.6731062196">
        <ele>704.78</ele>
        <time>2022-04-16T09:06:13Z</time>
      </trkpt>
      <trkpt lat="42.5541075133" lon="-0.6730959937">
        <ele>703.34</ele>
        <time>2022-04-16T09:06:14Z</time>
      </trkpt>
      <trkpt lat="42.5541121233" lon="-0.6730742846">
        <ele>701.90</ele>
        <time>2022-04-16T09:06:16Z</time>
      </trkpt>
      <trkpt lat="42.5541362632" lon="-0.6730006915">
        <ele>705.75</ele>
        <time>2022-04-16T09:06:22Z</time>
      </trkpt>
      <trkpt lat="42.5541386101" lon="-0.6729917228">
        <ele>705.75</ele>
        <time>2022-04-16T09:06:23Z</time>
      </trkpt>
      <trkpt lat="42.5541434716" lon="-0.6729645655">
        <ele>703.34</ele>
        <time>2022-04-16T09:06:25Z</time>
      </trkpt>
      <trkpt lat="42.5541581400" lon="-0.6728897151">
        <ele>705.75</ele>
        <time>2022-04-16T09:06:30Z</time>
      </trkpt>
      <trkpt lat="42.5541513506" lon="-0.6727792416">
        <ele>705.75</ele>
        <time>2022-04-16T09:06:39Z</time>
      </trkpt>
      <trkpt lat="42.5541552901" lon="-0.6727552693">
        <ele>704.78</ele>
        <time>2022-04-16T09:06:41Z</time>
      </trkpt>
      <trkpt lat="42.5541785080" lon="-0.6726423651">
        <ele>708.15</ele>
        <time>2022-04-16T09:06:50Z</time>
      </trkpt>
      <trkpt lat="42.5541668572" lon="-0.6726063229">
        <ele>707.67</ele>
        <time>2022-04-16T09:06:54Z</time>
      </trkpt>
      <trkpt lat="42.5541734789" lon="-0.6725085899">
        <ele>706.71</ele>
        <time>2022-04-16T09:07:01Z</time>
      </trkpt>
      <trkpt lat="42.5541712157" lon="-0.6724630762">
        <ele>708.15</ele>
        <time>2022-04-16T09:07:04Z</time>
      </trkpt>
      <trkpt lat="42.5541472435" lon="-0.6722153910">
        <ele>708.63</ele>
        <time>2022-04-16T09:07:22Z</time>
      </trkpt>
      <trkpt lat="42.5541458186" lon="-0.6721840426">
        <ele>707.19</ele>
        <time>2022-04-16T09:07:24Z</time>
      </trkpt>
      <trkpt lat="42.5541292224" lon="-0.6720587332">
        <ele>710.55</ele>
        <time>2022-04-16T09:07:33Z</time>
      </trkpt>
      <trkpt lat="42.5541244447" lon="-0.6720435619">
        <ele>710.55</ele>
        <time>2022-04-16T09:07:34Z</time>
      </trkpt>
      <trkpt lat="42.5540736504" lon="-0.6718634348">
        <ele>711.99</ele>
        <time>2022-04-16T09:07:49Z</time>
      </trkpt>
      <trkpt lat="42.5540735666" lon="-0.6718392950">
        <ele>714.40</ele>
        <time>2022-04-16T09:07:51Z</time>
      </trkpt>
      <trkpt lat="42.5540524442" lon="-0.6718178373">
        <ele>712.95</ele>
        <time>2022-04-16T09:07:53Z</time>
      </trkpt>
      <trkpt lat="42.5540247839" lon="-0.6717695575">
        <ele>714.88</ele>
        <time>2022-04-16T09:07:57Z</time>
      </trkpt>
      <trkpt lat="42.5539741572" lon="-0.6716533843">
        <ele>718.72</ele>
        <time>2022-04-16T09:08:10Z</time>
      </trkpt>
      <trkpt lat="42.5539275538" lon="-0.6715975609">
        <ele>719.68</ele>
        <time>2022-04-16T09:08:20Z</time>
      </trkpt>
      <trkpt lat="42.5538990553" lon="-0.6715812162">
        <ele>718.24</ele>
        <time>2022-04-16T09:08:23Z</time>
      </trkpt>
      <trkpt lat="42.5538798608" lon="-0.6715705711">
        <ele>721.13</ele>
        <time>2022-04-16T09:08:25Z</time>
      </trkpt>
      <trkpt lat="42.5538764242" lon="-0.6715250574">
        <ele>719.20</ele>
        <time>2022-04-16T09:08:28Z</time>
      </trkpt>
      <trkpt lat="42.5538622588" lon="-0.6714730058">
        <ele>720.65</ele>
        <time>2022-04-16T09:08:35Z</time>
      </trkpt>
      <trkpt lat="42.5537978020" lon="-0.6714163441">
        <ele>722.57</ele>
        <time>2022-04-16T09:08:47Z</time>
      </trkpt>
      <trkpt lat="42.5537325907" lon="-0.6713424996">
        <ele>724.97</ele>
        <time>2022-04-16T09:09:00Z</time>
      </trkpt>
      <trkpt lat="42.5536601711" lon="-0.6712663919">
        <ele>725.93</ele>
        <time>2022-04-16T09:09:14Z</time>
      </trkpt>
      <trkpt lat="42.5536527112" lon="-0.6712498795">
        <ele>728.82</ele>
        <time>2022-04-16T09:09:16Z</time>
      </trkpt>
      <trkpt lat="42.5536284037" lon="-0.6711837463">
        <ele>728.82</ele>
        <time>2022-04-16T09:09:23Z</time>
      </trkpt>
      <trkpt lat="42.5535686407" lon="-0.6710165273">
        <ele>727.37</ele>
        <time>2022-04-16T09:09:36Z</time>
      </trkpt>
      <trkpt lat="42.5536449999" lon="-0.6709245779">
        <ele>729.78</ele>
        <time>2022-04-16T09:09:45Z</time>
      </trkpt>
      <trkpt lat="42.5536558125" lon="-0.6709233206">
        <ele>726.41</ele>
        <time>2022-04-16T09:09:46Z</time>
      </trkpt>
      <trkpt lat="42.5536770187" lon="-0.6709246617">
        <ele>729.78</ele>
        <time>2022-04-16T09:09:48Z</time>
      </trkpt>
      <trkpt lat="42.5536902621" lon="-0.6709244940">
        <ele>729.78</ele>
        <time>2022-04-16T09:09:49Z</time>
      </trkpt>
      <trkpt lat="42.5537275616" lon="-0.6709309481">
        <ele>728.34</ele>
        <time>2022-04-16T09:09:52Z</time>
      </trkpt>
      <trkpt lat="42.5537641067" lon="-0.6709327083">
        <ele>730.26</ele>
        <time>2022-04-16T09:09:56Z</time>
      </trkpt>
      <trkpt lat="42.5537884142" lon="-0.6709229015">
        <ele>727.86</ele>
        <time>2022-04-16T09:09:58Z</time>
      </trkpt>
      <trkpt lat="42.5538124703" lon="-0.6709109154">
        <ele>731.22</ele>
        <time>2022-04-16T09:10:00Z</time>
      </trkpt>
      <trkpt lat="42.5538250431" lon="-0.6709068082">
        <ele>731.22</ele>
        <time>2022-04-16T09:10:01Z</time>
      </trkpt>
      <trkpt lat="42.5538710598" lon="-0.6708680000">
        <ele>730.74</ele>
        <time>2022-04-16T09:10:06Z</time>
      </trkpt>
      <trkpt lat="42.5539490953" lon="-0.6707499828">
        <ele>734.10</ele>
        <time>2022-04-16T09:10:15Z</time>
      </trkpt>
      <trkpt lat="42.5539563037" lon="-0.6707403436">
        <ele>730.26</ele>
        <time>2022-04-16T09:10:16Z</time>
      </trkpt>
      <trkpt lat="42.5540750753" lon="-0.6706405990">
        <ele>733.14</ele>
        <time>2022-04-16T09:10:30Z</time>
      </trkpt>
      <trkpt lat="42.5543085113" lon="-0.6706068199">
        <ele>731.70</ele>
        <time>2022-04-16T09:10:49Z</time>
      </trkpt>
      <trkpt lat="42.5543188211" lon="-0.6705989409">
        <ele>731.70</ele>
        <time>2022-04-16T09:10:50Z</time>
      </trkpt>
      <trkpt lat="42.5543530192" lon="-0.6705842726">
        <ele>731.22</ele>
        <time>2022-04-16T09:10:55Z</time>
      </trkpt>
      <trkpt lat="42.5543752313" lon="-0.6705660839">
        <ele>733.14</ele>
        <time>2022-04-16T09:10:57Z</time>
      </trkpt>
      <trkpt lat="42.5543923303" lon="-0.6705409382">
        <ele>731.22</ele>
        <time>2022-04-16T09:10:59Z</time>
      </trkpt>
      <trkpt lat="42.5544318091" lon="-0.6704857014">
        <ele>727.37</ele>
        <time>2022-04-16T09:11:05Z</time>
      </trkpt>
      <trkpt lat="42.5544417836" lon="-0.6704715360">
        <ele>734.10</ele>
        <time>2022-04-16T09:11:06Z</time>
      </trkpt>
      <trkpt lat="42.5544506684" lon="-0.6704603881">
        <ele>730.26</ele>
        <time>2022-04-16T09:11:07Z</time>
      </trkpt>
      <trkpt lat="42.5545671768" lon="-0.6703105196">
        <ele>726.89</ele>
        <time>2022-04-16T09:11:20Z</time>
      </trkpt>
      <trkpt lat="42.5547126867" lon="-0.6701345835">
        <ele>724.49</ele>
        <time>2022-04-16T09:11:37Z</time>
      </trkpt>
      <trkpt lat="42.5547254272" lon="-0.6701100245">
        <ele>725.45</ele>
        <time>2022-04-16T09:11:39Z</time>
      </trkpt>
      <trkpt lat="42.5547343120" lon="-0.6700868905">
        <ele>724.49</ele>
        <time>2022-04-16T09:11:41Z</time>
      </trkpt>
      <trkpt lat="42.5547497347" lon="-0.6700567156">
        <ele>723.53</ele>
        <time>2022-04-16T09:11:43Z</time>
      </trkpt>
      <trkpt lat="42.5548028760" lon="-0.6699768361">
        <ele>724.01</ele>
        <time>2022-04-16T09:11:49Z</time>
      </trkpt>
      <trkpt lat="42.5548529159" lon="-0.6699098647">
        <ele>724.97</ele>
        <time>2022-04-16T09:11:56Z</time>
      </trkpt>
      <trkpt lat="42.5550050475" lon="-0.6697002333">
        <ele>723.53</ele>
        <time>2022-04-16T09:12:14Z</time>
      </trkpt>
      <trkpt lat="42.5551124196" lon="-0.6695227046">
        <ele>721.61</ele>
        <time>2022-04-16T09:12:28Z</time>
      </trkpt>
      <trkpt lat="42.5551643036" lon="-0.6693937909">
        <ele>721.13</ele>
        <time>2022-04-16T09:12:37Z</time>
      </trkpt>
      <trkpt lat="42.5551746134" lon="-0.6693375483">
        <ele>720.16</ele>
        <time>2022-04-16T09:12:40Z</time>
      </trkpt>
      <trkpt lat="42.5551835820" lon="-0.6692774501">
        <ele>721.13</ele>
        <time>2022-04-16T09:12:43Z</time>
      </trkpt>
      <trkpt lat="42.5551873539" lon="-0.6691653840">
        <ele>718.24</ele>
        <time>2022-04-16T09:12:51Z</time>
      </trkpt>
      <trkpt lat="42.5551992562" lon="-0.6691342033">
        <ele>719.68</ele>
        <time>2022-04-16T09:12:53Z</time>
      </trkpt>
      <trkpt lat="42.5552511401" lon="-0.6690264959">
        <ele>717.76</ele>
        <time>2022-04-16T09:13:00Z</time>
      </trkpt>
      <trkpt lat="42.5552652217" lon="-0.6689989194">
        <ele>718.72</ele>
        <time>2022-04-16T09:13:02Z</time>
      </trkpt>
      <trkpt lat="42.5553327799" lon="-0.6688377354">
        <ele>715.84</ele>
        <time>2022-04-16T09:13:15Z</time>
      </trkpt>
      <trkpt lat="42.5553377252" lon="-0.6687796488">
        <ele>714.40</ele>
        <time>2022-04-16T09:13:20Z</time>
      </trkpt>
      <trkpt lat="42.5553533994" lon="-0.6685227435">
        <ele>712.47</ele>
        <time>2022-04-16T09:13:39Z</time>
      </trkpt>
      <trkpt lat="42.5554318540" lon="-0.6682820991">
        <ele>710.55</ele>
        <time>2022-04-16T09:13:57Z</time>
      </trkpt>
      <trkpt lat="42.5554945506" lon="-0.6681888085">
        <ele>713.92</ele>
        <time>2022-04-16T09:14:05Z</time>
      </trkpt>
      <trkpt lat="42.5555019267" lon="-0.6681805942">
        <ele>713.92</ele>
        <time>2022-04-16T09:14:06Z</time>
      </trkpt>
      <trkpt lat="42.5555828121" lon="-0.6679567136">
        <ele>714.88</ele>
        <time>2022-04-16T09:14:25Z</time>
      </trkpt>
      <trkpt lat="42.5556369592" lon="-0.6677512731">
        <ele>713.44</ele>
        <time>2022-04-16T09:14:39Z</time>
      </trkpt>
      <trkpt lat="42.5557039306" lon="-0.6674419809">
        <ele>711.03</ele>
        <time>2022-04-16T09:15:01Z</time>
      </trkpt>
      <trkpt lat="42.5557739194" lon="-0.6672846526">
        <ele>710.07</ele>
        <time>2022-04-16T09:15:12Z</time>
      </trkpt>
      <trkpt lat="42.5559004862" lon="-0.6670914497">
        <ele>708.63</ele>
        <time>2022-04-16T09:15:30Z</time>
      </trkpt>
      <trkpt lat="42.5559713971" lon="-0.6669192016">
        <ele>710.07</ele>
        <time>2022-04-16T09:15:43Z</time>
      </trkpt>
      <trkpt lat="42.5559888314" lon="-0.6668907870">
        <ele>708.63</ele>
        <time>2022-04-16T09:15:45Z</time>
      </trkpt>
      <trkpt lat="42.5559890829" lon="-0.6668363046">
        <ele>710.55</ele>
        <time>2022-04-16T09:15:49Z</time>
      </trkpt>
      <trkpt lat="42.5559837185" lon="-0.6667786371">
        <ele>709.11</ele>
        <time>2022-04-16T09:15:53Z</time>
      </trkpt>
      <trkpt lat="42.5559778512" lon="-0.6667358894">
        <ele>710.55</ele>
        <time>2022-04-16T09:15:56Z</time>
      </trkpt>
      <trkpt lat="42.5560073555" lon="-0.6664762180">
        <ele>711.51</ele>
        <time>2022-04-16T09:16:14Z</time>
      </trkpt>
      <trkpt lat="42.5560270529" lon="-0.6664068997">
        <ele>711.99</ele>
        <time>2022-04-16T09:16:19Z</time>
      </trkpt>
      <trkpt lat="42.5560407992" lon="-0.6663763057">
        <ele>710.07</ele>
        <time>2022-04-16T09:16:21Z</time>
      </trkpt>
      <trkpt lat="42.5560638495" lon="-0.6662628986">
        <ele>709.11</ele>
        <time>2022-04-16T09:16:30Z</time>
      </trkpt>
      <trkpt lat="42.5560709741" lon="-0.6662315503">
        <ele>710.55</ele>
        <time>2022-04-16T09:16:32Z</time>
      </trkpt>
      <trkpt lat="42.5560945272" lon="-0.6659827754">
        <ele>711.51</ele>
        <time>2022-04-16T09:16:51Z</time>
      </trkpt>
      <trkpt lat="42.5561429746" lon="-0.6657889858">
        <ele>711.99</ele>
        <time>2022-04-16T09:17:06Z</time>
      </trkpt>
      <trkpt lat="42.5561576430" lon="-0.6657469925">
        <ele>713.44</ele>
        <time>2022-04-16T09:17:09Z</time>
      </trkpt>
      <trkpt lat="42.5561596546" lon="-0.6657130457">
        <ele>713.44</ele>
        <time>2022-04-16T09:17:11Z</time>
      </trkpt>
      <trkpt lat="42.5561671983" lon="-0.6656825356">
        <ele>713.44</ele>
        <time>2022-04-16T09:17:13Z</time>
      </trkpt>
      <trkpt lat="42.5562200882" lon="-0.6655299012">
        <ele>713.92</ele>
        <time>2022-04-16T09:17:24Z</time>
      </trkpt>
      <trkpt lat="42.5562277157" lon="-0.6654960383">
        <ele>713.92</ele>
        <time>2022-04-16T09:17:26Z</time>
      </trkpt>
      <trkpt lat="42.5562756602" lon="-0.6653859001">
        <ele>712.47</ele>
        <time>2022-04-16T09:17:33Z</time>
      </trkpt>
      <trkpt lat="42.5563508458" lon="-0.6652772706">
        <ele>714.40</ele>
        <time>2022-04-16T09:17:44Z</time>
      </trkpt>
      <trkpt lat="42.5563694537" lon="-0.6652451679">
        <ele>713.92</ele>
        <time>2022-04-16T09:17:47Z</time>
      </trkpt>
      <trkpt lat="42.5564649235" lon="-0.6650047749">
        <ele>714.88</ele>
        <time>2022-04-16T09:18:06Z</time>
      </trkpt>
      <trkpt lat="42.5564817712" lon="-0.6649353728">
        <ele>716.32</ele>
        <time>2022-04-16T09:18:12Z</time>
      </trkpt>
      <trkpt lat="42.5565049052" lon="-0.6646933034">
        <ele>718.24</ele>
        <time>2022-04-16T09:18:29Z</time>
      </trkpt>
      <trkpt lat="42.5565142091" lon="-0.6646671519">
        <ele>716.32</ele>
        <time>2022-04-16T09:18:31Z</time>
      </trkpt>
      <trkpt lat="42.5565212499" lon="-0.6646108255">
        <ele>717.76</ele>
        <time>2022-04-16T09:18:35Z</time>
      </trkpt>
      <trkpt lat="42.5565111078" lon="-0.6644453667">
        <ele>718.24</ele>
        <time>2022-04-16T09:18:46Z</time>
      </trkpt>
      <trkpt lat="42.5565214176" lon="-0.6643398385">
        <ele>717.28</ele>
        <time>2022-04-16T09:18:54Z</time>
      </trkpt>
      <trkpt lat="42.5565219205" lon="-0.6643195543">
        <ele>718.72</ele>
        <time>2022-04-16T09:18:56Z</time>
      </trkpt>
      <trkpt lat="42.5565236807" lon="-0.6642416026">
        <ele>718.72</ele>
        <time>2022-04-16T09:19:03Z</time>
      </trkpt>
      <trkpt lat="42.5565733016" lon="-0.6639301311">
        <ele>717.28</ele>
        <time>2022-04-16T09:19:21Z</time>
      </trkpt>
      <trkpt lat="42.5565873832" lon="-0.6638600584">
        <ele>718.24</ele>
        <time>2022-04-16T09:19:26Z</time>
      </trkpt>
      <trkpt lat="42.5566251855" lon="-0.6636212580">
        <ele>717.76</ele>
        <time>2022-04-16T09:19:42Z</time>
      </trkpt>
      <trkpt lat="42.5566283707" lon="-0.6635973696">
        <ele>715.84</ele>
        <time>2022-04-16T09:19:44Z</time>
      </trkpt>
      <trkpt lat="42.5566472299" lon="-0.6634807773">
        <ele>717.28</ele>
        <time>2022-04-16T09:19:52Z</time>
      </trkpt>
      <trkpt lat="42.5566512533" lon="-0.6634684559">
        <ele>712.95</ele>
        <time>2022-04-16T09:19:53Z</time>
      </trkpt>
      <trkpt lat="42.5566562824" lon="-0.6634531170">
        <ele>715.84</ele>
        <time>2022-04-16T09:19:54Z</time>
      </trkpt>
      <trkpt lat="42.5566677656" lon="-0.6634278037">
        <ele>716.80</ele>
        <time>2022-04-16T09:19:56Z</time>
      </trkpt>
      <trkpt lat="42.5566779077" lon="-0.6633943599">
        <ele>718.72</ele>
        <time>2022-04-16T09:19:58Z</time>
      </trkpt>
      <trkpt lat="42.5567059871" lon="-0.6632707268">
        <ele>715.84</ele>
        <time>2022-04-16T09:20:15Z</time>
      </trkpt>
      <trkpt lat="42.5567067415" lon="-0.6632625125">
        <ele>715.84</ele>
        <time>2022-04-16T09:20:16Z</time>
      </trkpt>
      <trkpt lat="42.5567169674" lon="-0.6632004026">
        <ele>715.84</ele>
        <time>2022-04-16T09:20:21Z</time>
      </trkpt>
      <trkpt lat="42.5567663368" lon="-0.6630263943">
        <ele>715.36</ele>
        <time>2022-04-16T09:20:35Z</time>
      </trkpt>
      <trkpt lat="42.5568262674" lon="-0.6628118176">
        <ele>715.36</ele>
        <time>2022-04-16T09:20:50Z</time>
      </trkpt>
      <trkpt lat="42.5568753853" lon="-0.6625428423">
        <ele>714.88</ele>
        <time>2022-04-16T09:21:06Z</time>
      </trkpt>
      <trkpt lat="42.5568821747" lon="-0.6622902956">
        <ele>713.44</ele>
        <time>2022-04-16T09:21:21Z</time>
      </trkpt>
      <trkpt lat="42.5569024589" lon="-0.6620588712">
        <ele>713.92</ele>
        <time>2022-04-16T09:21:35Z</time>
      </trkpt>
      <trkpt lat="42.5569282752" lon="-0.6619200669">
        <ele>714.88</ele>
        <time>2022-04-16T09:21:44Z</time>
      </trkpt>
      <trkpt lat="42.5569448713" lon="-0.6616495829">
        <ele>715.84</ele>
        <time>2022-04-16T09:22:04Z</time>
      </trkpt>
      <trkpt lat="42.5569410995" lon="-0.6616267003">
        <ele>716.32</ele>
        <time>2022-04-16T09:22:06Z</time>
      </trkpt>
      <trkpt lat="42.5568608847" lon="-0.6613750756">
        <ele>717.28</ele>
        <time>2022-04-16T09:22:24Z</time>
      </trkpt>
      <trkpt lat="42.5568258483" lon="-0.6612395402">
        <ele>717.28</ele>
        <time>2022-04-16T09:22:35Z</time>
      </trkpt>
      <trkpt lat="42.5568428636" lon="-0.6609767675">
        <ele>715.84</ele>
        <time>2022-04-16T09:22:52Z</time>
      </trkpt>
      <trkpt lat="42.5568660814" lon="-0.6606904417">
        <ele>715.84</ele>
        <time>2022-04-16T09:23:12Z</time>
      </trkpt>
      <trkpt lat="42.5568659976" lon="-0.6606637035">
        <ele>717.28</ele>
        <time>2022-04-16T09:23:14Z</time>
      </trkpt>
      <trkpt lat="42.5568750501" lon="-0.6605293415">
        <ele>717.28</ele>
        <time>2022-04-16T09:23:23Z</time>
      </trkpt>
      <trkpt lat="42.5568934903" lon="-0.6602565106">
        <ele>717.28</ele>
        <time>2022-04-16T09:23:39Z</time>
      </trkpt>
      <trkpt lat="42.5568830129" lon="-0.6600860227">
        <ele>715.36</ele>
        <time>2022-04-16T09:23:50Z</time>
      </trkpt>
      <trkpt lat="42.5568778161" lon="-0.6600555126">
        <ele>717.28</ele>
        <time>2022-04-16T09:23:52Z</time>
      </trkpt>
      <trkpt lat="42.5568343140" lon="-0.6597941648">
        <ele>716.32</ele>
        <time>2022-04-16T09:24:08Z</time>
      </trkpt>
      <trkpt lat="42.5568329729" lon="-0.6596932467">
        <ele>717.76</ele>
        <time>2022-04-16T09:24:14Z</time>
      </trkpt>
      <trkpt lat="42.5568920653" lon="-0.6594363414">
        <ele>718.72</ele>
        <time>2022-04-16T09:24:31Z</time>
      </trkpt>
      <trkpt lat="42.5568943284" lon="-0.6594169792">
        <ele>718.24</ele>
        <time>2022-04-16T09:24:32Z</time>
      </trkpt>
      <trkpt lat="42.5569146127" lon="-0.6590936892">
        <ele>720.65</ele>
        <time>2022-04-16T09:24:51Z</time>
      </trkpt>
      <trkpt lat="42.5569349807" lon="-0.6589926034">
        <ele>719.68</ele>
        <time>2022-04-16T09:24:58Z</time>
      </trkpt>
      <trkpt lat="42.5569653232" lon="-0.6587256398">
        <ele>721.61</ele>
        <time>2022-04-16T09:25:17Z</time>
      </trkpt>
      <trkpt lat="42.5569741242" lon="-0.6586032640">
        <ele>721.13</ele>
        <time>2022-04-16T09:25:25Z</time>
      </trkpt>
      <trkpt lat="42.5569997728" lon="-0.6584942993">
        <ele>722.57</ele>
        <time>2022-04-16T09:25:32Z</time>
      </trkpt>
      <trkpt lat="42.5570644811" lon="-0.6582702510">
        <ele>721.61</ele>
        <time>2022-04-16T09:25:47Z</time>
      </trkpt>
      <trkpt lat="42.5570524111" lon="-0.6582378969">
        <ele>723.53</ele>
        <time>2022-04-16T09:25:49Z</time>
      </trkpt>
      <trkpt lat="42.5570374075" lon="-0.6581650581">
        <ele>724.01</ele>
        <time>2022-04-16T09:25:53Z</time>
      </trkpt>
      <trkpt lat="42.5570203084" lon="-0.6580593623">
        <ele>724.49</ele>
        <time>2022-04-16T09:25:59Z</time>
      </trkpt>
      <trkpt lat="42.5570159499" lon="-0.6578248367">
        <ele>724.01</ele>
        <time>2022-04-16T09:26:16Z</time>
      </trkpt>
      <trkpt lat="42.5570030417" lon="-0.6576806679">
        <ele>722.57</ele>
        <time>2022-04-16T09:26:27Z</time>
      </trkpt>
      <trkpt lat="42.5569986831" lon="-0.6576416083">
        <ele>722.57</ele>
        <time>2022-04-16T09:26:29Z</time>
      </trkpt>
      <trkpt lat="42.5569828413" lon="-0.6575199869">
        <ele>722.57</ele>
        <time>2022-04-16T09:26:37Z</time>
      </trkpt>
      <trkpt lat="42.5569786504" lon="-0.6574827712">
        <ele>722.57</ele>
        <time>2022-04-16T09:26:39Z</time>
      </trkpt>
      <trkpt lat="42.5569494814" lon="-0.6574151292">
        <ele>720.65</ele>
        <time>2022-04-16T09:26:43Z</time>
      </trkpt>
      <trkpt lat="42.5569202285" lon="-0.6571424659">
        <ele>722.09</ele>
        <time>2022-04-16T09:27:02Z</time>
      </trkpt>
      <trkpt lat="42.5569271855" lon="-0.6570032425">
        <ele>721.13</ele>
        <time>2022-04-16T09:27:11Z</time>
      </trkpt>
      <trkpt lat="42.5569473859" lon="-0.6568905897">
        <ele>723.05</ele>
        <time>2022-04-16T09:27:18Z</time>
      </trkpt>
      <trkpt lat="42.5569550134" lon="-0.6568211876">
        <ele>723.53</ele>
        <time>2022-04-16T09:27:22Z</time>
      </trkpt>
      <trkpt lat="42.5569459610" lon="-0.6566906814">
        <ele>723.53</ele>
        <time>2022-04-16T09:27:29Z</time>
      </trkpt>
      <trkpt lat="42.5569414347" lon="-0.6566337682">
        <ele>722.09</ele>
        <time>2022-04-16T09:27:33Z</time>
      </trkpt>
      <trkpt lat="42.5569006987" lon="-0.6565096322">
        <ele>720.16</ele>
        <time>2022-04-16T09:27:43Z</time>
      </trkpt>
      <trkpt lat="42.5568401814" lon="-0.6564192753">
        <ele>719.68</ele>
        <time>2022-04-16T09:27:51Z</time>
      </trkpt>
      <trkpt lat="42.5567516685" lon="-0.6561294291">
        <ele>719.20</ele>
        <time>2022-04-16T09:28:11Z</time>
      </trkpt>
      <trkpt lat="42.5567520037" lon="-0.6559755374">
        <ele>718.24</ele>
        <time>2022-04-16T09:28:21Z</time>
      </trkpt>
      <trkpt lat="42.5567813404" lon="-0.6559137627">
        <ele>720.16</ele>
        <time>2022-04-16T09:28:26Z</time>
      </trkpt>
      <trkpt lat="42.5568067376" lon="-0.6558342185">
        <ele>718.72</ele>
        <time>2022-04-16T09:28:31Z</time>
      </trkpt>
      <trkpt lat="42.5568147842" lon="-0.6558004394">
        <ele>718.24</ele>
        <time>2022-04-16T09:28:33Z</time>
      </trkpt>
      <trkpt lat="42.5568198971" lon="-0.6557868607">
        <ele>721.61</ele>
        <time>2022-04-16T09:28:34Z</time>
      </trkpt>
      <trkpt lat="42.5568356551" lon="-0.6556827575">
        <ele>721.13</ele>
        <time>2022-04-16T09:28:41Z</time>
      </trkpt>
      <trkpt lat="42.5568169635" lon="-0.6555560231">
        <ele>720.16</ele>
        <time>2022-04-16T09:28:49Z</time>
      </trkpt>
      <trkpt lat="42.5568159577" lon="-0.6553644128">
        <ele>720.16</ele>
        <time>2022-04-16T09:29:04Z</time>
      </trkpt>
      <trkpt lat="42.5568012893" lon="-0.6552258600">
        <ele>721.61</ele>
        <time>2022-04-16T09:29:12Z</time>
      </trkpt>
      <trkpt lat="42.5567761436" lon="-0.6551458128">
        <ele>719.68</ele>
        <time>2022-04-16T09:29:17Z</time>
      </trkpt>
      <trkpt lat="42.5567539316" lon="-0.6550920010">
        <ele>721.13</ele>
        <time>2022-04-16T09:29:20Z</time>
      </trkpt>
      <trkpt lat="42.5567433704" lon="-0.6550738122">
        <ele>719.68</ele>
        <time>2022-04-16T09:29:21Z</time>
      </trkpt>
      <trkpt lat="42.5567351561" lon="-0.6549947709">
        <ele>720.16</ele>
        <time>2022-04-16T09:29:25Z</time>
      </trkpt>
      <trkpt lat="42.5567329768" lon="-0.6549329963">
        <ele>717.28</ele>
        <time>2022-04-16T09:29:29Z</time>
      </trkpt>
      <trkpt lat="42.5567135308" lon="-0.6548698805">
        <ele>722.09</ele>
        <time>2022-04-16T09:29:33Z</time>
      </trkpt>
      <trkpt lat="42.5567002036" lon="-0.6547107920">
        <ele>718.72</ele>
        <time>2022-04-16T09:29:46Z</time>
      </trkpt>
      <trkpt lat="42.5566965155" lon="-0.6546960399">
        <ele>724.97</ele>
        <time>2022-04-16T09:29:47Z</time>
      </trkpt>
      <trkpt lat="42.5566964317" lon="-0.6546772644">
        <ele>724.97</ele>
        <time>2022-04-16T09:29:48Z</time>
      </trkpt>
      <trkpt lat="42.5566917378" lon="-0.6546422280">
        <ele>721.61</ele>
        <time>2022-04-16T09:29:50Z</time>
      </trkpt>
      <trkpt lat="42.5567043945" lon="-0.6544093788">
        <ele>723.05</ele>
        <time>2022-04-16T09:30:06Z</time>
      </trkpt>
      <trkpt lat="42.5567079149" lon="-0.6541735120">
        <ele>722.09</ele>
        <time>2022-04-16T09:30:23Z</time>
      </trkpt>
      <trkpt lat="42.5567259360" lon="-0.6540808082">
        <ele>722.09</ele>
        <time>2022-04-16T09:30:29Z</time>
      </trkpt>
      <trkpt lat="42.5567350723" lon="-0.6538106594">
        <ele>721.61</ele>
        <time>2022-04-16T09:30:47Z</time>
      </trkpt>
      <trkpt lat="42.5567416102" lon="-0.6535317097">
        <ele>721.61</ele>
        <time>2022-04-16T09:31:05Z</time>
      </trkpt>
      <trkpt lat="42.5567283668" lon="-0.6532520056">
        <ele>720.16</ele>
        <time>2022-04-16T09:31:24Z</time>
      </trkpt>
      <trkpt lat="42.5566675980" lon="-0.6530831940">
        <ele>719.68</ele>
        <time>2022-04-16T09:31:42Z</time>
      </trkpt>
      <trkpt lat="42.5566319749" lon="-0.6529895682">
        <ele>717.76</ele>
        <time>2022-04-16T09:31:52Z</time>
      </trkpt>
      <trkpt lat="42.5566205755" lon="-0.6529435515">
        <ele>716.32</ele>
        <time>2022-04-16T09:31:57Z</time>
      </trkpt>
      <trkpt lat="42.5565704517" lon="-0.6528585590">
        <ele>717.28</ele>
        <time>2022-04-16T09:32:04Z</time>
      </trkpt>
      <trkpt lat="42.5565458927" lon="-0.6528292224">
        <ele>716.32</ele>
        <time>2022-04-16T09:32:07Z</time>
      </trkpt>
      <trkpt lat="42.5564492494" lon="-0.6526520289">
        <ele>714.88</ele>
        <time>2022-04-16T09:32:26Z</time>
      </trkpt>
      <trkpt lat="42.5564225949" lon="-0.6524103787">
        <ele>711.99</ele>
        <time>2022-04-16T09:32:43Z</time>
      </trkpt>
      <trkpt lat="42.5564252771" lon="-0.6523969676">
        <ele>711.99</ele>
        <time>2022-04-16T09:32:44Z</time>
      </trkpt>
      <trkpt lat="42.5564089324" lon="-0.6523369532">
        <ele>713.44</ele>
        <time>2022-04-16T09:32:49Z</time>
      </trkpt>
      <trkpt lat="42.5564038195" lon="-0.6523120590">
        <ele>711.51</ele>
        <time>2022-04-16T09:32:51Z</time>
      </trkpt>
      <trkpt lat="42.5563313998" lon="-0.6521004159">
        <ele>708.15</ele>
        <time>2022-04-16T09:33:07Z</time>
      </trkpt>
      <trkpt lat="42.5563240238" lon="-0.6520846579">
        <ele>711.51</ele>
        <time>2022-04-16T09:33:08Z</time>
      </trkpt>
      <trkpt lat="42.5563096907" lon="-0.6520537287">
        <ele>709.59</ele>
        <time>2022-04-16T09:33:10Z</time>
      </trkpt>
      <trkpt lat="42.5563038234" lon="-0.6520238891">
        <ele>708.63</ele>
        <time>2022-04-16T09:33:12Z</time>
      </trkpt>
      <trkpt lat="42.5562531967" lon="-0.6517782155">
        <ele>706.23</ele>
        <time>2022-04-16T09:33:31Z</time>
      </trkpt>
      <trkpt lat="42.5562498439" lon="-0.6517081428">
        <ele>704.78</ele>
        <time>2022-04-16T09:33:36Z</time>
      </trkpt>
      <trkpt lat="42.5563319027" lon="-0.6515870243">
        <ele>703.82</ele>
        <time>2022-04-16T09:33:48Z</time>
      </trkpt>
      <trkpt lat="42.5563483313" lon="-0.6515869405">
        <ele>699.98</ele>
        <time>2022-04-16T09:33:49Z</time>
      </trkpt>
      <trkpt lat="42.5563598145" lon="-0.6515857670">
        <ele>703.34</ele>
        <time>2022-04-16T09:33:50Z</time>
      </trkpt>
      <trkpt lat="42.5563755725" lon="-0.6515950710">
        <ele>704.30</ele>
        <time>2022-04-16T09:33:52Z</time>
      </trkpt>
      <trkpt lat="42.5563884806" lon="-0.6516083144">
        <ele>703.34</ele>
        <time>2022-04-16T09:33:54Z</time>
      </trkpt>
      <trkpt lat="42.5563956052" lon="-0.6516172830">
        <ele>702.38</ele>
        <time>2022-04-16T09:33:55Z</time>
      </trkpt>
      <trkpt lat="42.5565022230" lon="-0.6517416704">
        <ele>699.50</ele>
        <time>2022-04-16T09:34:08Z</time>
      </trkpt>
      <trkpt lat="42.5565513410" lon="-0.6517855916">
        <ele>699.02</ele>
        <time>2022-04-16T09:34:16Z</time>
      </trkpt>
      <trkpt lat="42.5565876346" lon="-0.6518005114">
        <ele>697.09</ele>
        <time>2022-04-16T09:34:21Z</time>
      </trkpt>
      <trkpt lat="42.5566142891" lon="-0.6518203765">
        <ele>697.09</ele>
        <time>2022-04-16T09:34:24Z</time>
      </trkpt>
      <trkpt lat="42.5566823501" lon="-0.6519087218">
        <ele>695.17</ele>
        <time>2022-04-16T09:34:34Z</time>
      </trkpt>
      <trkpt lat="42.5567088369" lon="-0.6519349571">
        <ele>697.09</ele>
        <time>2022-04-16T09:34:37Z</time>
      </trkpt>
      <trkpt lat="42.5567220803" lon="-0.6519483682">
        <ele>695.17</ele>
        <time>2022-04-16T09:34:39Z</time>
      </trkpt>
      <trkpt lat="42.5568501558" lon="-0.6518058758">
        <ele>694.21</ele>
        <time>2022-04-16T09:34:57Z</time>
      </trkpt>
      <trkpt lat="42.5568587892" lon="-0.6517772097">
        <ele>695.17</ele>
        <time>2022-04-16T09:34:59Z</time>
      </trkpt>
      <trkpt lat="42.5569102541" lon="-0.6514849328">
        <ele>694.21</ele>
        <time>2022-04-16T09:35:19Z</time>
      </trkpt>
      <trkpt lat="42.5569188036" lon="-0.6514042150">
        <ele>694.69</ele>
        <time>2022-04-16T09:35:25Z</time>
      </trkpt>
      <trkpt lat="42.5569156185" lon="-0.6513426080">
        <ele>693.73</ele>
        <time>2022-04-16T09:35:28Z</time>
      </trkpt>
      <trkpt lat="42.5569083262" lon="-0.6512647402">
        <ele>693.25</ele>
        <time>2022-04-16T09:35:32Z</time>
      </trkpt>
      <trkpt lat="42.5568889640" lon="-0.6510455534">
        <ele>691.81</ele>
        <time>2022-04-16T09:35:49Z</time>
      </trkpt>
      <trkpt lat="42.5568895508" lon="-0.6510132831">
        <ele>693.25</ele>
        <time>2022-04-16T09:35:51Z</time>
      </trkpt>
      <trkpt lat="42.5568807498" lon="-0.6508779153">
        <ele>691.81</ele>
        <time>2022-04-16T09:35:59Z</time>
      </trkpt>
      <trkpt lat="42.5568734575" lon="-0.6507738121">
        <ele>692.77</ele>
        <time>2022-04-16T09:36:06Z</time>
      </trkpt>
      <trkpt lat="42.5568691827" lon="-0.6507400330">
        <ele>691.33</ele>
        <time>2022-04-16T09:36:08Z</time>
      </trkpt>
      <trkpt lat="42.5568796601" lon="-0.6505135540">
        <ele>692.77</ele>
        <time>2022-04-16T09:36:26Z</time>
      </trkpt>
      <trkpt lat="42.5568399299" lon="-0.6502196006">
        <ele>691.81</ele>
        <time>2022-04-16T09:36:42Z</time>
      </trkpt>
      <trkpt lat="42.5568240043" lon="-0.6500393059">
        <ele>692.77</ele>
        <time>2022-04-16T09:36:54Z</time>
      </trkpt>
      <trkpt lat="42.5568053965" lon="-0.6497945543">
        <ele>691.81</ele>
        <time>2022-04-16T09:37:11Z</time>
      </trkpt>
      <trkpt lat="42.5568084978" lon="-0.6497167703">
        <ele>692.77</ele>
        <time>2022-04-16T09:37:16Z</time>
      </trkpt>
      <trkpt lat="42.5568138622" lon="-0.6496388186">
        <ele>691.81</ele>
        <time>2022-04-16T09:37:21Z</time>
      </trkpt>
      <trkpt lat="42.5568195619" lon="-0.6494020298">
        <ele>692.77</ele>
        <time>2022-04-16T09:37:37Z</time>
      </trkpt>
      <trkpt lat="42.5568248425" lon="-0.6491016224">
        <ele>693.25</ele>
        <time>2022-04-16T09:37:57Z</time>
      </trkpt>
      <trkpt lat="42.5568394270" lon="-0.6487712078">
        <ele>693.73</ele>
        <time>2022-04-16T09:38:20Z</time>
      </trkpt>
      <trkpt lat="42.5568334758" lon="-0.6485599838">
        <ele>694.69</ele>
        <time>2022-04-16T09:38:33Z</time>
      </trkpt>
      <trkpt lat="42.5568115152" lon="-0.6483081914">
        <ele>693.73</ele>
        <time>2022-04-16T09:38:48Z</time>
      </trkpt>
      <trkpt lat="42.5568330567" lon="-0.6480271462">
        <ele>694.69</ele>
        <time>2022-04-16T09:39:06Z</time>
      </trkpt>
      <trkpt lat="42.5568168797" lon="-0.6478247233">
        <ele>695.17</ele>
        <time>2022-04-16T09:39:19Z</time>
      </trkpt>
      <trkpt lat="42.5568199810" lon="-0.6476017646">
        <ele>695.17</ele>
        <time>2022-04-16T09:39:36Z</time>
      </trkpt>
      <trkpt lat="42.5568224117" lon="-0.6472534966">
        <ele>694.21</ele>
        <time>2022-04-16T09:39:55Z</time>
      </trkpt>
      <trkpt lat="42.5568131078" lon="-0.6471193023">
        <ele>694.21</ele>
        <time>2022-04-16T09:40:06Z</time>
      </trkpt>
      <trkpt lat="42.5568095874" lon="-0.6470014527">
        <ele>695.65</ele>
        <time>2022-04-16T09:40:15Z</time>
      </trkpt>
      <trkpt lat="42.5568079948" lon="-0.6469489820">
        <ele>694.21</ele>
        <time>2022-04-16T09:40:18Z</time>
      </trkpt>
      <trkpt lat="42.5567986909" lon="-0.6469261833">
        <ele>696.13</ele>
        <time>2022-04-16T09:40:20Z</time>
      </trkpt>
      <trkpt lat="42.5567838550" lon="-0.6468741316">
        <ele>696.61</ele>
        <time>2022-04-16T09:40:24Z</time>
      </trkpt>
      <trkpt lat="42.5567633193" lon="-0.6467209943">
        <ele>697.57</ele>
        <time>2022-04-16T09:40:36Z</time>
      </trkpt>
      <trkpt lat="42.5567507464" lon="-0.6465108600">
        <ele>698.05</ele>
        <time>2022-04-16T09:40:52Z</time>
      </trkpt>
      <trkpt lat="42.5567334797" lon="-0.6464084331">
        <ele>697.57</ele>
        <time>2022-04-16T09:40:59Z</time>
      </trkpt>
      <trkpt lat="42.5567317195" lon="-0.6463824492">
        <ele>699.50</ele>
        <time>2022-04-16T09:41:01Z</time>
      </trkpt>
      <trkpt lat="42.5567317195" lon="-0.6463349238">
        <ele>699.02</ele>
        <time>2022-04-16T09:41:05Z</time>
      </trkpt>
      <trkpt lat="42.5567314681" lon="-0.6460955366">
        <ele>697.57</ele>
        <time>2022-04-16T09:41:22Z</time>
      </trkpt>
      <trkpt lat="42.5566749740" lon="-0.6458188500">
        <ele>699.98</ele>
        <time>2022-04-16T09:41:39Z</time>
      </trkpt>
      <trkpt lat="42.5566917378" lon="-0.6455667224">
        <ele>700.46</ele>
        <time>2022-04-16T09:41:58Z</time>
      </trkpt>
      <trkpt lat="42.5566791650" lon="-0.6453218870">
        <ele>699.02</ele>
        <time>2022-04-16T09:42:13Z</time>
      </trkpt>
      <trkpt lat="42.5566717889" lon="-0.6452881917">
        <ele>700.46</ele>
        <time>2022-04-16T09:42:15Z</time>
      </trkpt>
      <trkpt lat="42.5566665083" lon="-0.6450230721">
        <ele>700.46</ele>
        <time>2022-04-16T09:42:31Z</time>
      </trkpt>
      <trkpt lat="42.5566582941" lon="-0.6449542567">
        <ele>700.46</ele>
        <time>2022-04-16T09:42:47Z</time>
      </trkpt>
      <trkpt lat="42.5566644967" lon="-0.6449535862">
        <ele>700.46</ele>
        <time>2022-04-16T09:43:15Z</time>
      </trkpt>
      <trkpt lat="42.5566715375" lon="-0.6449607946">
        <ele>701.90</ele>
        <time>2022-04-16T09:43:25Z</time>
      </trkpt>
      <trkpt lat="42.5566600543" lon="-0.6448167935">
        <ele>700.46</ele>
        <time>2022-04-16T09:43:38Z</time>
      </trkpt>
      <trkpt lat="42.5566093437" lon="-0.6445705332">
        <ele>701.42</ele>
        <time>2022-04-16T09:43:54Z</time>
      </trkpt>
      <trkpt lat="42.5565596391" lon="-0.6443156395">
        <ele>701.90</ele>
        <time>2022-04-16T09:44:11Z</time>
      </trkpt>
      <trkpt lat="42.5565395225" lon="-0.6441195030">
        <ele>702.86</ele>
        <time>2022-04-16T09:44:27Z</time>
      </trkpt>
      <trkpt lat="42.5565050729" lon="-0.6438680459">
        <ele>704.30</ele>
        <time>2022-04-16T09:44:45Z</time>
      </trkpt>
      <trkpt lat="42.5564706232" lon="-0.6437483523">
        <ele>705.26</ele>
        <time>2022-04-16T09:44:54Z</time>
      </trkpt>
      <trkpt lat="42.5564372633" lon="-0.6434911117">
        <ele>705.75</ele>
        <time>2022-04-16T09:45:11Z</time>
      </trkpt>
      <trkpt lat="42.5564430468" lon="-0.6433742680">
        <ele>704.30</ele>
        <time>2022-04-16T09:45:20Z</time>
      </trkpt>
      <trkpt lat="42.5564301386" lon="-0.6432007626">
        <ele>703.82</ele>
        <time>2022-04-16T09:45:31Z</time>
      </trkpt>
      <trkpt lat="42.5564722996" lon="-0.6429609563">
        <ele>702.86</ele>
        <time>2022-04-16T09:45:48Z</time>
      </trkpt>
      <trkpt lat="42.5565031450" lon="-0.6428054720">
        <ele>701.90</ele>
        <time>2022-04-16T09:45:58Z</time>
      </trkpt>
      <trkpt lat="42.5565176457" lon="-0.6425972655">
        <ele>700.94</ele>
        <time>2022-04-16T09:46:11Z</time>
      </trkpt>
      <trkpt lat="42.5565357506" lon="-0.6424369197">
        <ele>700.94</ele>
        <time>2022-04-16T09:46:23Z</time>
      </trkpt>
      <trkpt lat="42.5565349963" lon="-0.6422996242">
        <ele>700.46</ele>
        <time>2022-04-16T09:46:30Z</time>
      </trkpt>
      <trkpt lat="42.5565580465" lon="-0.6421439722">
        <ele>700.46</ele>
        <time>2022-04-16T09:46:41Z</time>
      </trkpt>
      <trkpt lat="42.5565852877" lon="-0.6418731529">
        <ele>700.46</ele>
        <time>2022-04-16T09:46:58Z</time>
      </trkpt>
      <trkpt lat="42.5565883052" lon="-0.6416438241">
        <ele>702.38</ele>
        <time>2022-04-16T09:47:13Z</time>
      </trkpt>
      <trkpt lat="42.5565753132" lon="-0.6413778663">
        <ele>702.38</ele>
        <time>2022-04-16T09:47:31Z</time>
      </trkpt>
      <trkpt lat="42.5565684400" lon="-0.6411238946">
        <ele>702.86</ele>
        <time>2022-04-16T09:47:49Z</time>
      </trkpt>
      <trkpt lat="42.5565643329" lon="-0.6410253234">
        <ele>702.86</ele>
        <time>2022-04-16T09:47:54Z</time>
      </trkpt>
      <trkpt lat="42.5565702841" lon="-0.6409760378">
        <ele>702.86</ele>
        <time>2022-04-16T09:47:57Z</time>
      </trkpt>
      <trkpt lat="42.5565679371" lon="-0.6409024447">
        <ele>702.86</ele>
        <time>2022-04-16T09:48:02Z</time>
      </trkpt>
      <trkpt lat="42.5565800909" lon="-0.6406680029">
        <ele>702.86</ele>
        <time>2022-04-16T09:48:19Z</time>
      </trkpt>
      <trkpt lat="42.5565965194" lon="-0.6404581200">
        <ele>703.34</ele>
        <time>2022-04-16T09:48:34Z</time>
      </trkpt>
      <trkpt lat="42.5566088408" lon="-0.6402390171">
        <ele>704.30</ele>
        <time>2022-04-16T09:48:50Z</time>
      </trkpt>
      <trkpt lat="42.5566085894" lon="-0.6399946008">
        <ele>705.26</ele>
        <time>2022-04-16T09:49:06Z</time>
      </trkpt>
      <trkpt lat="42.5566248503" lon="-0.6398032419">
        <ele>705.26</ele>
        <time>2022-04-16T09:49:19Z</time>
      </trkpt>
      <trkpt lat="42.5566193182" lon="-0.6396938581">
        <ele>705.75</ele>
        <time>2022-04-16T09:49:26Z</time>
      </trkpt>
      <trkpt lat="42.5566093437" lon="-0.6393865775">
        <ele>705.75</ele>
        <time>2022-04-16T09:49:45Z</time>
      </trkpt>
      <trkpt lat="42.5565979443" lon="-0.6391801313">
        <ele>705.75</ele>
        <time>2022-04-16T09:50:00Z</time>
      </trkpt>
      <trkpt lat="42.5565956812" lon="-0.6389561668">
        <ele>706.23</ele>
        <time>2022-04-16T09:50:14Z</time>
      </trkpt>
      <trkpt lat="42.5565866288" lon="-0.6386914663">
        <ele>706.71</ele>
        <time>2022-04-16T09:50:30Z</time>
      </trkpt>
      <trkpt lat="42.5565870479" lon="-0.6384689268">
        <ele>706.71</ele>
        <time>2022-04-16T09:50:46Z</time>
      </trkpt>
      <trkpt lat="42.5565902330" lon="-0.6382176373">
        <ele>706.71</ele>
        <time>2022-04-16T09:51:02Z</time>
      </trkpt>
      <trkpt lat="42.5565876346" lon="-0.6379945949">
        <ele>706.71</ele>
        <time>2022-04-16T09:51:17Z</time>
      </trkpt>
      <trkpt lat="42.5565769058" lon="-0.6377521902">
        <ele>706.71</ele>
        <time>2022-04-16T09:51:33Z</time>
      </trkpt>
      <trkpt lat="42.5565572083" lon="-0.6375290640">
        <ele>705.26</ele>
        <time>2022-04-16T09:51:49Z</time>
      </trkpt>
      <trkpt lat="42.5565496646" lon="-0.6374481786">
        <ele>705.26</ele>
        <time>2022-04-16T09:51:55Z</time>
      </trkpt>
      <trkpt lat="42.5565087609" lon="-0.6371336896">
        <ele>705.26</ele>
        <time>2022-04-16T09:52:14Z</time>
      </trkpt>
      <trkpt lat="42.5564681087" lon="-0.6368462741">
        <ele>705.26</ele>
        <time>2022-04-16T09:52:33Z</time>
      </trkpt>
      <trkpt lat="42.5564176496" lon="-0.6366767082">
        <ele>706.71</ele>
        <time>2022-04-16T09:52:47Z</time>
      </trkpt>
      <trkpt lat="42.5563488342" lon="-0.6364314537">
        <ele>707.67</ele>
        <time>2022-04-16T09:53:06Z</time>
      </trkpt>
      <trkpt lat="42.5563131273" lon="-0.6362162903">
        <ele>708.15</ele>
        <time>2022-04-16T09:53:23Z</time>
      </trkpt>
      <trkpt lat="42.5562868919" lon="-0.6359604746">
        <ele>708.15</ele>
        <time>2022-04-16T09:53:39Z</time>
      </trkpt>
      <trkpt lat="42.5562305655" lon="-0.6356747355">
        <ele>708.15</ele>
        <time>2022-04-16T09:53:57Z</time>
      </trkpt>
      <trkpt lat="42.5561921764" lon="-0.6354039162">
        <ele>708.63</ele>
        <time>2022-04-16T09:54:15Z</time>
      </trkpt>
      <trkpt lat="42.5561597385" lon="-0.6351616792">
        <ele>709.59</ele>
        <time>2022-04-16T09:54:31Z</time>
      </trkpt>
      <trkpt lat="42.5560762547" lon="-0.6348462682">
        <ele>709.59</ele>
        <time>2022-04-16T09:54:50Z</time>
      </trkpt>
      <trkpt lat="42.5561026577" lon="-0.6348148361">
        <ele>707.67</ele>
        <time>2022-04-16T09:55:04Z</time>
      </trkpt>
      <trkpt lat="42.5561241154" lon="-0.6347854156">
        <ele>709.11</ele>
        <time>2022-04-16T09:55:22Z</time>
      </trkpt>
      <trkpt lat="42.5561341736" lon="-0.6347689033">
        <ele>708.15</ele>
        <time>2022-04-16T09:55:24Z</time>
      </trkpt>
      <trkpt lat="42.5561457407" lon="-0.6346682366">
        <ele>707.19</ele>
        <time>2022-04-16T09:55:36Z</time>
      </trkpt>
      <trkpt lat="42.5561452378" lon="-0.6346597709">
        <ele>708.63</ele>
        <time>2022-04-16T09:55:48Z</time>
      </trkpt>
      <trkpt lat="42.5561546255" lon="-0.6346285064">
        <ele>707.19</ele>
        <time>2022-04-16T09:56:10Z</time>
      </trkpt>
      <trkpt lat="42.5561531167" lon="-0.6346347928">
        <ele>707.19</ele>
        <time>2022-04-16T09:56:35Z</time>
      </trkpt>
      <trkpt lat="42.5561416335" lon="-0.6346367206">
        <ele>706.71</ele>
        <time>2022-04-16T09:56:58Z</time>
      </trkpt>
      <trkpt lat="42.5561412983" lon="-0.6346341223">
        <ele>706.71</ele>
        <time>2022-04-16T09:57:31Z</time>
      </trkpt>
      <trkpt lat="42.5561362691" lon="-0.6346238963">
        <ele>706.71</ele>
        <time>2022-04-16T09:58:06Z</time>
      </trkpt>
      <trkpt lat="42.5561390352" lon="-0.6346417498">
        <ele>706.71</ele>
        <time>2022-04-16T09:58:35Z</time>
      </trkpt>
      <trkpt lat="42.5561420526" lon="-0.6346560828">
        <ele>706.71</ele>
        <time>2022-04-16T09:59:01Z</time>
      </trkpt>
      <trkpt lat="42.5561405439" lon="-0.6346271653">
        <ele>706.71</ele>
        <time>2022-04-16T09:59:30Z</time>
      </trkpt>
      <trkpt lat="42.5561429746" lon="-0.6346085574">
        <ele>707.19</ele>
        <time>2022-04-16T10:00:00Z</time>
      </trkpt>
      <trkpt lat="42.5561530329" lon="-0.6346272491">
        <ele>707.19</ele>
        <time>2022-04-16T10:00:36Z</time>
      </trkpt>
      <trkpt lat="42.5561392028" lon="-0.6346487068">
        <ele>708.15</ele>
        <time>2022-04-16T10:01:02Z</time>
      </trkpt>
      <trkpt lat="42.5561391190" lon="-0.6346478686">
        <ele>708.15</ele>
        <time>2022-04-16T10:01:30Z</time>
      </trkpt>
      <trkpt lat="42.5561433099" lon="-0.6346312724">
        <ele>708.15</ele>
        <time>2022-04-16T10:01:49Z</time>
      </trkpt>
      <trkpt lat="42.5561578106" lon="-0.6346487068">
        <ele>708.15</ele>
        <time>2022-04-16T10:02:11Z</time>
      </trkpt>
      <trkpt lat="42.5561655220" lon="-0.6346554961">
        <ele>708.15</ele>
        <time>2022-04-16T10:02:34Z</time>
      </trkpt>
      <trkpt lat="42.5561644323" lon="-0.6346622854">
        <ele>708.15</ele>
        <time>2022-04-16T10:02:57Z</time>
      </trkpt>
      <trkpt lat="42.5561477523" lon="-0.6346378103">
        <ele>708.15</ele>
        <time>2022-04-16T10:03:16Z</time>
      </trkpt>
      <trkpt lat="42.5561583135" lon="-0.6346361339">
        <ele>708.15</ele>
        <time>2022-04-16T10:03:42Z</time>
      </trkpt>
      <trkpt lat="42.5561164878" lon="-0.6346408278">
        <ele>708.15</ele>
        <time>2022-04-16T10:04:06Z</time>
      </trkpt>
      <trkpt lat="42.5561354309" lon="-0.6346382294">
        <ele>708.15</ele>
        <time>2022-04-16T10:04:34Z</time>
      </trkpt>
      <trkpt lat="42.5561363529" lon="-0.6346727628">
        <ele>701.90</ele>
        <time>2022-04-16T10:04:53Z</time>
      </trkpt>
      <trkpt lat="42.5561330840" lon="-0.6346764509">
        <ele>713.44</ele>
        <time>2022-04-16T10:04:54Z</time>
      </trkpt>
      <trkpt lat="42.5561323296" lon="-0.6346699968">
        <ele>710.07</ele>
        <time>2022-04-16T10:04:55Z</time>
      </trkpt>
      <trkpt lat="42.5561358500" lon="-0.6346707512">
        <ele>708.63</ele>
        <time>2022-04-16T10:04:57Z</time>
      </trkpt>
      <trkpt lat="42.5561196730" lon="-0.6346778758">
        <ele>707.67</ele>
        <time>2022-04-16T10:05:12Z</time>
      </trkpt>
      <trkpt lat="42.5560607482" lon="-0.6346728466">
        <ele>709.59</ele>
        <time>2022-04-16T10:05:27Z</time>
      </trkpt>
      <trkpt lat="42.5560598262" lon="-0.6345680729">
        <ele>709.59</ele>
        <time>2022-04-16T10:05:37Z</time>
      </trkpt>
      <trkpt lat="42.5560287293" lon="-0.6344156060">
        <ele>709.59</ele>
        <time>2022-04-16T10:05:51Z</time>
      </trkpt>
      <trkpt lat="42.5560180005" lon="-0.6342897099">
        <ele>709.59</ele>
        <time>2022-04-16T10:06:00Z</time>
      </trkpt>
      <trkpt lat="42.5559799466" lon="-0.6341138575">
        <ele>704.30</ele>
        <time>2022-04-16T10:06:15Z</time>
      </trkpt>
      <trkpt lat="42.5559768453" lon="-0.6341021229">
        <ele>711.51</ele>
        <time>2022-04-16T10:06:16Z</time>
      </trkpt>
      <trkpt lat="42.5559404679" lon="-0.6338981073">
        <ele>708.63</ele>
        <time>2022-04-16T10:06:31Z</time>
      </trkpt>
      <trkpt lat="42.5559087843" lon="-0.6337300502">
        <ele>708.15</ele>
        <time>2022-04-16T10:06:45Z</time>
      </trkpt>
      <trkpt lat="42.5558748376" lon="-0.6335420441">
        <ele>707.19</ele>
        <time>2022-04-16T10:07:00Z</time>
      </trkpt>
      <trkpt lat="42.5558632705" lon="-0.6333047524">
        <ele>706.71</ele>
        <time>2022-04-16T10:07:17Z</time>
      </trkpt>
      <trkpt lat="42.5558450818" lon="-0.6332093664">
        <ele>706.23</ele>
        <time>2022-04-16T10:07:31Z</time>
      </trkpt>
      <trkpt lat="42.5557760149" lon="-0.6331362762">
        <ele>706.23</ele>
        <time>2022-04-16T10:07:41Z</time>
      </trkpt>
      <trkpt lat="42.5556070358" lon="-0.6329921912">
        <ele>707.19</ele>
        <time>2022-04-16T10:07:57Z</time>
      </trkpt>
      <trkpt lat="42.5555476919" lon="-0.6329016667">
        <ele>706.71</ele>
        <time>2022-04-16T10:08:05Z</time>
      </trkpt>
      <trkpt lat="42.5554871745" lon="-0.6327919476">
        <ele>705.26</ele>
        <time>2022-04-16T10:08:14Z</time>
      </trkpt>
      <trkpt lat="42.5554689858" lon="-0.6327595934">
        <ele>706.23</ele>
        <time>2022-04-16T10:08:17Z</time>
      </trkpt>
      <trkpt lat="42.5553892739" lon="-0.6325228885">
        <ele>706.71</ele>
        <time>2022-04-16T10:08:32Z</time>
      </trkpt>
      <trkpt lat="42.5553560816" lon="-0.6323732715">
        <ele>703.82</ele>
        <time>2022-04-16T10:08:44Z</time>
      </trkpt>
      <trkpt lat="42.5553652178" lon="-0.6323271710">
        <ele>705.26</ele>
        <time>2022-04-16T10:08:53Z</time>
      </trkpt>
      <trkpt lat="42.5553623680" lon="-0.6323283445">
        <ele>703.34</ele>
        <time>2022-04-16T10:08:56Z</time>
      </trkpt>
      <trkpt lat="42.5553357974" lon="-0.6323098205">
        <ele>705.75</ele>
        <time>2022-04-16T10:08:59Z</time>
      </trkpt>
      <trkpt lat="42.5553211290" lon="-0.6322985049">
        <ele>703.82</ele>
        <time>2022-04-16T10:09:01Z</time>
      </trkpt>
      <trkpt lat="42.5552843325" lon="-0.6320554297">
        <ele>702.86</ele>
        <time>2022-04-16T10:09:17Z</time>
      </trkpt>
      <trkpt lat="42.5552705862" lon="-0.6319081597">
        <ele>703.82</ele>
        <time>2022-04-16T10:09:30Z</time>
      </trkpt>
      <trkpt lat="42.5551966578" lon="-0.6317613926">
        <ele>705.75</ele>
        <time>2022-04-16T10:09:46Z</time>
      </trkpt>
      <trkpt lat="42.5551630463" lon="-0.6317580398">
        <ele>706.71</ele>
        <time>2022-04-16T10:09:50Z</time>
      </trkpt>
      <trkpt lat="42.5551325362" lon="-0.6317580398">
        <ele>707.67</ele>
        <time>2022-04-16T10:09:53Z</time>
      </trkpt>
      <trkpt lat="42.5550910458" lon="-0.6317506637">
        <ele>705.26</ele>
        <time>2022-04-16T10:09:57Z</time>
      </trkpt>
      <trkpt lat="42.5550708454" lon="-0.6317497417">
        <ele>707.19</ele>
        <time>2022-04-16T10:09:59Z</time>
      </trkpt>
      <trkpt lat="42.5550542492" lon="-0.6317464728">
        <ele>705.75</ele>
        <time>2022-04-16T10:10:01Z</time>
      </trkpt>
      <trkpt lat="42.5550400838" lon="-0.6317498256">
        <ele>708.63</ele>
        <time>2022-04-16T10:10:03Z</time>
      </trkpt>
      <trkpt lat="42.5549839251" lon="-0.6317444611">
        <ele>706.71</ele>
        <time>2022-04-16T10:10:09Z</time>
      </trkpt>
      <trkpt lat="42.5549751241" lon="-0.6317441259">
        <ele>708.15</ele>
        <time>2022-04-16T10:10:10Z</time>
      </trkpt>
      <trkpt lat="42.5549312029" lon="-0.6317348219">
        <ele>709.11</ele>
        <time>2022-04-16T10:10:15Z</time>
      </trkpt>
      <trkpt lat="42.5548550114" lon="-0.6316969357">
        <ele>710.07</ele>
        <time>2022-04-16T10:10:24Z</time>
      </trkpt>
      <trkpt lat="42.5548130181" lon="-0.6316619832">
        <ele>711.51</ele>
        <time>2022-04-16T10:10:29Z</time>
      </trkpt>
      <trkpt lat="42.5547809992" lon="-0.6316138711">
        <ele>711.51</ele>
        <time>2022-04-16T10:10:33Z</time>
      </trkpt>
      <trkpt lat="42.5547556020" lon="-0.6315646693">
        <ele>710.55</ele>
        <time>2022-04-16T10:10:36Z</time>
      </trkpt>
      <trkpt lat="42.5547238346" lon="-0.6314603146">
        <ele>710.55</ele>
        <time>2022-04-16T10:10:43Z</time>
      </trkpt>
      <trkpt lat="42.5547266845" lon="-0.6314263679">
        <ele>712.47</ele>
        <time>2022-04-16T10:10:46Z</time>
      </trkpt>
      <trkpt lat="42.5547225773" lon="-0.6313661858">
        <ele>712.95</ele>
        <time>2022-04-16T10:10:51Z</time>
      </trkpt>
      <trkpt lat="42.5547188893" lon="-0.6311146449">
        <ele>713.44</ele>
        <time>2022-04-16T10:11:08Z</time>
      </trkpt>
      <trkpt lat="42.5547148660" lon="-0.6309279799">
        <ele>713.44</ele>
        <time>2022-04-16T10:11:19Z</time>
      </trkpt>
      <trkpt lat="42.5547166262" lon="-0.6308768503">
        <ele>714.40</ele>
        <time>2022-04-16T10:11:22Z</time>
      </trkpt>
      <trkpt lat="42.5547219906" lon="-0.6307842303">
        <ele>716.32</ele>
        <time>2022-04-16T10:11:28Z</time>
      </trkpt>
      <trkpt lat="42.5547264330" lon="-0.6307525467">
        <ele>714.88</ele>
        <time>2022-04-16T10:11:30Z</time>
      </trkpt>
      <trkpt lat="42.5547256786" lon="-0.6306622736">
        <ele>716.32</ele>
        <time>2022-04-16T10:11:35Z</time>
      </trkpt>
      <trkpt lat="42.5547218230" lon="-0.6306269858">
        <ele>714.88</ele>
        <time>2022-04-16T10:11:37Z</time>
      </trkpt>
      <trkpt lat="42.5547338091" lon="-0.6303698290">
        <ele>716.32</ele>
        <time>2022-04-16T10:11:54Z</time>
      </trkpt>
      <trkpt lat="42.5547428615" lon="-0.6301518157">
        <ele>716.32</ele>
        <time>2022-04-16T10:12:09Z</time>
      </trkpt>
      <trkpt lat="42.5547523331" lon="-0.6299410947">
        <ele>716.32</ele>
        <time>2022-04-16T10:12:25Z</time>
      </trkpt>
      <trkpt lat="42.5547612179" lon="-0.6296887156">
        <ele>716.32</ele>
        <time>2022-04-16T10:12:39Z</time>
      </trkpt>
      <trkpt lat="42.5547631457" lon="-0.6296614744">
        <ele>716.32</ele>
        <time>2022-04-16T10:12:41Z</time>
      </trkpt>
      <trkpt lat="42.5547620561" lon="-0.6296331435">
        <ele>716.32</ele>
        <time>2022-04-16T10:12:43Z</time>
      </trkpt>
      <trkpt lat="42.5547664985" lon="-0.6295256037">
        <ele>717.76</ele>
        <time>2022-04-16T10:12:50Z</time>
      </trkpt>
      <trkpt lat="42.5547709409" lon="-0.6295017153">
        <ele>716.32</ele>
        <time>2022-04-16T10:12:52Z</time>
      </trkpt>
      <trkpt lat="42.5547990203" lon="-0.6292650942">
        <ele>716.32</ele>
        <time>2022-04-16T10:13:07Z</time>
      </trkpt>
      <trkpt lat="42.5548000261" lon="-0.6292376854">
        <ele>715.84</ele>
        <time>2022-04-16T10:13:08Z</time>
      </trkpt>
      <trkpt lat="42.5547868665" lon="-0.6291770842">
        <ele>717.28</ele>
        <time>2022-04-16T10:13:12Z</time>
      </trkpt>
      <trkpt lat="42.5548083242" lon="-0.6289997231">
        <ele>716.80</ele>
        <time>2022-04-16T10:13:28Z</time>
      </trkpt>
      <trkpt lat="42.5548136048" lon="-0.6287031714">
        <ele>717.76</ele>
        <time>2022-04-16T10:13:44Z</time>
      </trkpt>
      <trkpt lat="42.5548047200" lon="-0.6284514628">
        <ele>717.28</ele>
        <time>2022-04-16T10:14:01Z</time>
      </trkpt>
      <trkpt lat="42.5548043009" lon="-0.6284315139">
        <ele>717.28</ele>
        <time>2022-04-16T10:14:02Z</time>
      </trkpt>
      <trkpt lat="42.5548034627" lon="-0.6281818170">
        <ele>717.28</ele>
        <time>2022-04-16T10:14:14Z</time>
      </trkpt>
      <trkpt lat="42.5548008643" lon="-0.6279568467">
        <ele>718.72</ele>
        <time>2022-04-16T10:14:34Z</time>
      </trkpt>
      <trkpt lat="42.5547864474" lon="-0.6278296094">
        <ele>715.84</ele>
        <time>2022-04-16T10:14:40Z</time>
      </trkpt>
      <trkpt lat="42.5547778979" lon="-0.6277493108">
        <ele>718.72</ele>
        <time>2022-04-16T10:14:44Z</time>
      </trkpt>
      <trkpt lat="42.5547515787" lon="-0.6274886336">
        <ele>718.72</ele>
        <time>2022-04-16T10:15:03Z</time>
      </trkpt>
      <trkpt lat="42.5547305401" lon="-0.6274144538">
        <ele>719.20</ele>
        <time>2022-04-16T10:15:07Z</time>
      </trkpt>
      <trkpt lat="42.5547129381" lon="-0.6272006314">
        <ele>717.76</ele>
        <time>2022-04-16T10:15:19Z</time>
      </trkpt>
      <trkpt lat="42.5547192246" lon="-0.6271657627">
        <ele>720.16</ele>
        <time>2022-04-16T10:15:22Z</time>
      </trkpt>
      <trkpt lat="42.5547204819" lon="-0.6271145493">
        <ele>718.24</ele>
        <time>2022-04-16T10:15:25Z</time>
      </trkpt>
      <trkpt lat="42.5547239184" lon="-0.6270648446">
        <ele>719.20</ele>
        <time>2022-04-16T10:15:28Z</time>
      </trkpt>
      <trkpt lat="42.5547252595" lon="-0.6270349212">
        <ele>719.20</ele>
        <time>2022-04-16T10:15:30Z</time>
      </trkpt>
      <trkpt lat="42.5547255110" lon="-0.6269402057">
        <ele>717.28</ele>
        <time>2022-04-16T10:15:36Z</time>
      </trkpt>
      <trkpt lat="42.5547331385" lon="-0.6268484239">
        <ele>718.72</ele>
        <time>2022-04-16T10:15:42Z</time>
      </trkpt>
      <trkpt lat="42.5547354855" lon="-0.6268125493">
        <ele>717.28</ele>
        <time>2022-04-16T10:15:45Z</time>
      </trkpt>
      <trkpt lat="42.5547416043" lon="-0.6267522834">
        <ele>717.28</ele>
        <time>2022-04-16T10:15:49Z</time>
      </trkpt>
      <trkpt lat="42.5547674205" lon="-0.6266762596">
        <ele>717.28</ele>
        <time>2022-04-16T10:15:55Z</time>
      </trkpt>
      <trkpt lat="42.5548084918" lon="-0.6266010739">
        <ele>715.84</ele>
        <time>2022-04-16T10:16:00Z</time>
      </trkpt>
      <trkpt lat="42.5549397524" lon="-0.6264139898">
        <ele>714.40</ele>
        <time>2022-04-16T10:16:17Z</time>
      </trkpt>
      <trkpt lat="42.5550083164" lon="-0.6262865849">
        <ele>714.40</ele>
        <time>2022-04-16T10:16:34Z</time>
      </trkpt>
      <trkpt lat="42.5549772196" lon="-0.6262699887">
        <ele>712.95</ele>
        <time>2022-04-16T10:16:55Z</time>
      </trkpt>
      <trkpt lat="42.5550821610" lon="-0.6261040270">
        <ele>712.47</ele>
        <time>2022-04-16T10:17:12Z</time>
      </trkpt>
      <trkpt lat="42.5551689975" lon="-0.6260133348">
        <ele>711.03</ele>
        <time>2022-04-16T10:17:27Z</time>
      </trkpt>
      <trkpt lat="42.5551785529" lon="-0.6259882730">
        <ele>712.47</ele>
        <time>2022-04-16T10:17:29Z</time>
      </trkpt>
      <trkpt lat="42.5552432612" lon="-0.6257518195">
        <ele>712.47</ele>
        <time>2022-04-16T10:17:46Z</time>
      </trkpt>
      <trkpt lat="42.5552401599" lon="-0.6257262547">
        <ele>711.03</ele>
        <time>2022-04-16T10:17:48Z</time>
      </trkpt>
      <trkpt lat="42.5552295987" lon="-0.6256804056">
        <ele>714.88</ele>
        <time>2022-04-16T10:17:52Z</time>
      </trkpt>
      <trkpt lat="42.5552295148" lon="-0.6256779749">
        <ele>712.47</ele>
        <time>2022-04-16T10:17:53Z</time>
      </trkpt>
      <trkpt lat="42.5552350469" lon="-0.6256742869">
        <ele>711.51</ele>
        <time>2022-04-16T10:17:59Z</time>
      </trkpt>
      <trkpt lat="42.5552433450" lon="-0.6254790723">
        <ele>712.47</ele>
        <time>2022-04-16T10:18:12Z</time>
      </trkpt>
      <trkpt lat="42.5552144274" lon="-0.6253069919">
        <ele>711.99</ele>
        <time>2022-04-16T10:18:24Z</time>
      </trkpt>
      <trkpt lat="42.5551870186" lon="-0.6249339134">
        <ele>712.95</ele>
        <time>2022-04-16T10:18:48Z</time>
      </trkpt>
      <trkpt lat="42.5551487971" lon="-0.6247159000">
        <ele>712.47</ele>
        <time>2022-04-16T10:19:01Z</time>
      </trkpt>
      <trkpt lat="42.5551400799" lon="-0.6246204302">
        <ele>713.44</ele>
        <time>2022-04-16T10:19:07Z</time>
      </trkpt>
      <trkpt lat="42.5550965779" lon="-0.6243004091">
        <ele>714.40</ele>
        <time>2022-04-16T10:19:27Z</time>
      </trkpt>
      <trkpt lat="42.5550683308" lon="-0.6240142509">
        <ele>715.36</ele>
        <time>2022-04-16T10:19:44Z</time>
      </trkpt>
      <trkpt lat="42.5550610386" lon="-0.6239808071">
        <ele>713.44</ele>
        <time>2022-04-16T10:19:46Z</time>
      </trkpt>
      <trkpt lat="42.5550533272" lon="-0.6239475310">
        <ele>714.88</ele>
        <time>2022-04-16T10:19:48Z</time>
      </trkpt>
      <trkpt lat="42.5550079811" lon="-0.6236065552">
        <ele>716.32</ele>
        <time>2022-04-16T10:20:09Z</time>
      </trkpt>
      <trkpt lat="42.5549959112" lon="-0.6235610414">
        <ele>714.88</ele>
        <time>2022-04-16T10:20:12Z</time>
      </trkpt>
      <trkpt lat="42.5549882837" lon="-0.6235261727">
        <ele>716.32</ele>
        <time>2022-04-16T10:20:14Z</time>
      </trkpt>
      <trkpt lat="42.5549850985" lon="-0.6234924775">
        <ele>714.40</ele>
        <time>2022-04-16T10:20:16Z</time>
      </trkpt>
      <trkpt lat="42.5549888704" lon="-0.6234630570">
        <ele>715.84</ele>
        <time>2022-04-16T10:20:18Z</time>
      </trkpt>
      <trkpt lat="42.5549773034" lon="-0.6233160384">
        <ele>716.80</ele>
        <time>2022-04-16T10:20:27Z</time>
      </trkpt>
      <trkpt lat="42.5549643114" lon="-0.6232631486">
        <ele>715.84</ele>
        <time>2022-04-16T10:20:31Z</time>
      </trkpt>
      <trkpt lat="42.5549366511" lon="-0.6230930798">
        <ele>716.32</ele>
        <time>2022-04-16T10:20:43Z</time>
      </trkpt>
      <trkpt lat="42.5548921432" lon="-0.6228414550">
        <ele>715.36</ele>
        <time>2022-04-16T10:20:58Z</time>
      </trkpt>
      <trkpt lat="42.5548332185" lon="-0.6224725675">
        <ele>716.32</ele>
        <time>2022-04-16T10:21:21Z</time>
      </trkpt>
      <trkpt lat="42.5547850225" lon="-0.6221085414">
        <ele>716.32</ele>
        <time>2022-04-16T10:21:44Z</time>
      </trkpt>
      <trkpt lat="42.5547487289" lon="-0.6217642128">
        <ele>714.40</ele>
        <time>2022-04-16T10:22:06Z</time>
      </trkpt>
      <trkpt lat="42.5547489803" lon="-0.6216336228">
        <ele>714.88</ele>
        <time>2022-04-16T10:22:14Z</time>
      </trkpt>
      <trkpt lat="42.5547024608" lon="-0.6212690938">
        <ele>713.44</ele>
        <time>2022-04-16T10:22:38Z</time>
      </trkpt>
      <trkpt lat="42.5546975993" lon="-0.6212384999">
        <ele>715.36</ele>
        <time>2022-04-16T10:22:40Z</time>
      </trkpt>
      <trkpt lat="42.5546781532" lon="-0.6211280264">
        <ele>713.92</ele>
        <time>2022-04-16T10:22:47Z</time>
      </trkpt>
      <trkpt lat="42.5546568632" lon="-0.6209938321">
        <ele>715.36</ele>
        <time>2022-04-16T10:22:56Z</time>
      </trkpt>
      <trkpt lat="42.5546093378" lon="-0.6207284611">
        <ele>716.32</ele>
        <time>2022-04-16T10:23:14Z</time>
      </trkpt>
      <trkpt lat="42.5545121916" lon="-0.6204559654">
        <ele>716.80</ele>
        <time>2022-04-16T10:23:33Z</time>
      </trkpt>
      <trkpt lat="42.5544595532" lon="-0.6200906821">
        <ele>718.24</ele>
        <time>2022-04-16T10:23:55Z</time>
      </trkpt>
      <trkpt lat="42.5544808432" lon="-0.6200277340">
        <ele>717.28</ele>
        <time>2022-04-16T10:24:00Z</time>
      </trkpt>
      <trkpt lat="42.5544978585" lon="-0.6199395563">
        <ele>716.80</ele>
        <time>2022-04-16T10:24:07Z</time>
      </trkpt>
      <trkpt lat="42.5544647500" lon="-0.6196030229">
        <ele>717.28</ele>
        <time>2022-04-16T10:24:28Z</time>
      </trkpt>
      <trkpt lat="42.5544152129" lon="-0.6193049625">
        <ele>718.72</ele>
        <time>2022-04-16T10:24:44Z</time>
      </trkpt>
      <trkpt lat="42.5543937553" lon="-0.6192587782">
        <ele>716.80</ele>
        <time>2022-04-16T10:24:47Z</time>
      </trkpt>
      <trkpt lat="42.5543790869" lon="-0.6191135198">
        <ele>717.28</ele>
        <time>2022-04-16T10:24:56Z</time>
      </trkpt>
      <trkpt lat="42.5543262810" lon="-0.6188988592">
        <ele>716.80</ele>
        <time>2022-04-16T10:25:08Z</time>
      </trkpt>
      <trkpt lat="42.5542971119" lon="-0.6185580511">
        <ele>716.80</ele>
        <time>2022-04-16T10:25:28Z</time>
      </trkpt>
      <trkpt lat="42.5542699546" lon="-0.6182384491">
        <ele>716.32</ele>
        <time>2022-04-16T10:25:48Z</time>
      </trkpt>
      <trkpt lat="42.5542681105" lon="-0.6180951186">
        <ele>717.76</ele>
        <time>2022-04-16T10:25:57Z</time>
      </trkpt>
      <trkpt lat="42.5542418752" lon="-0.6179367006">
        <ele>718.24</ele>
        <time>2022-04-16T10:26:06Z</time>
      </trkpt>
      <trkpt lat="42.5542064197" lon="-0.6175928749">
        <ele>718.24</ele>
        <time>2022-04-16T10:26:25Z</time>
      </trkpt>
      <trkpt lat="42.5542230997" lon="-0.6173994206">
        <ele>717.28</ele>
        <time>2022-04-16T10:26:37Z</time>
      </trkpt>
      <trkpt lat="42.5541933440" lon="-0.6171470415">
        <ele>718.72</ele>
        <time>2022-04-16T10:26:53Z</time>
      </trkpt>
      <trkpt lat="42.5541741494" lon="-0.6170494761">
        <ele>717.28</ele>
        <time>2022-04-16T10:26:59Z</time>
      </trkpt>
      <trkpt lat="42.5541487522" lon="-0.6169825885">
        <ele>718.72</ele>
        <time>2022-04-16T10:27:03Z</time>
      </trkpt>
      <trkpt lat="42.5541359279" lon="-0.6169525813">
        <ele>718.24</ele>
        <time>2022-04-16T10:27:05Z</time>
      </trkpt>
      <trkpt lat="42.5540979579" lon="-0.6168766413">
        <ele>719.20</ele>
        <time>2022-04-16T10:27:10Z</time>
      </trkpt>
      <trkpt lat="42.5540814456" lon="-0.6167892180">
        <ele>719.68</ele>
        <time>2022-04-16T10:27:16Z</time>
      </trkpt>
      <trkpt lat="42.5540432241" lon="-0.6166531797">
        <ele>720.16</ele>
        <time>2022-04-16T10:27:24Z</time>
      </trkpt>
      <trkpt lat="42.5540428888" lon="-0.6163325720">
        <ele>721.13</ele>
        <time>2022-04-16T10:27:44Z</time>
      </trkpt>
      <trkpt lat="42.5540529471" lon="-0.6162812747">
        <ele>719.68</ele>
        <time>2022-04-16T10:27:47Z</time>
      </trkpt>
      <trkpt lat="42.5540716387" lon="-0.6161344238">
        <ele>720.65</ele>
        <time>2022-04-16T10:27:55Z</time>
      </trkpt>
      <trkpt lat="42.5540447328" lon="-0.6158825476">
        <ele>722.09</ele>
        <time>2022-04-16T10:28:10Z</time>
      </trkpt>
      <trkpt lat="42.5540526956" lon="-0.6157217827">
        <ele>721.61</ele>
        <time>2022-04-16T10:28:19Z</time>
      </trkpt>
      <trkpt lat="42.5540368538" lon="-0.6155223772">
        <ele>721.61</ele>
        <time>2022-04-16T10:28:33Z</time>
      </trkpt>
      <trkpt lat="42.5540332496" lon="-0.6152197905">
        <ele>722.57</ele>
        <time>2022-04-16T10:28:52Z</time>
      </trkpt>
      <trkpt lat="42.5540019013" lon="-0.6148991827">
        <ele>721.61</ele>
        <time>2022-04-16T10:29:12Z</time>
      </trkpt>
      <trkpt lat="42.5540106185" lon="-0.6146703567">
        <ele>721.13</ele>
        <time>2022-04-16T10:29:30Z</time>
      </trkpt>
      <trkpt lat="42.5539682060" lon="-0.6143937539">
        <ele>723.05</ele>
        <time>2022-04-16T10:29:49Z</time>
      </trkpt>
      <trkpt lat="42.5539556332" lon="-0.6143154670">
        <ele>721.61</ele>
        <time>2022-04-16T10:29:54Z</time>
      </trkpt>
      <trkpt lat="42.5539290626" lon="-0.6141769141">
        <ele>721.13</ele>
        <time>2022-04-16T10:30:00Z</time>
      </trkpt>
      <trkpt lat="42.5539196748" lon="-0.6141339149">
        <ele>722.57</ele>
        <time>2022-04-16T10:30:02Z</time>
      </trkpt>
      <trkpt lat="42.5538915116" lon="-0.6140319072">
        <ele>721.13</ele>
        <time>2022-04-16T10:30:08Z</time>
      </trkpt>
      <trkpt lat="42.5538574811" lon="-0.6139774248">
        <ele>720.16</ele>
        <time>2022-04-16T10:30:12Z</time>
      </trkpt>
      <trkpt lat="42.5538486801" lon="-0.6139440648">
        <ele>722.57</ele>
        <time>2022-04-16T10:30:14Z</time>
      </trkpt>
      <trkpt lat="42.5538102072" lon="-0.6137295719">
        <ele>721.13</ele>
        <time>2022-04-16T10:30:27Z</time>
      </trkpt>
      <trkpt lat="42.5537941977" lon="-0.6134681404">
        <ele>721.13</ele>
        <time>2022-04-16T10:30:45Z</time>
      </trkpt>
      <trkpt lat="42.5538221095" lon="-0.6131616980">
        <ele>721.61</ele>
        <time>2022-04-16T10:31:07Z</time>
      </trkpt>
      <trkpt lat="42.5538666174" lon="-0.6129239872">
        <ele>721.13</ele>
        <time>2022-04-16T10:31:24Z</time>
      </trkpt>
      <trkpt lat="42.5539094489" lon="-0.6126515754">
        <ele>720.16</ele>
        <time>2022-04-16T10:31:42Z</time>
      </trkpt>
      <trkpt lat="42.5539133884" lon="-0.6125070713">
        <ele>721.61</ele>
        <time>2022-04-16T10:31:51Z</time>
      </trkpt>
      <trkpt lat="42.5539705530" lon="-0.6121543609">
        <ele>722.57</ele>
        <time>2022-04-16T10:32:14Z</time>
      </trkpt>
      <trkpt lat="42.5538993068" lon="-0.6119127106">
        <ele>723.05</ele>
        <time>2022-04-16T10:32:34Z</time>
      </trkpt>
      <trkpt lat="42.5538748316" lon="-0.6119103637">
        <ele>724.01</ele>
        <time>2022-04-16T10:32:37Z</time>
      </trkpt>
      <trkpt lat="42.5539067667" lon="-0.6118121278">
        <ele>722.57</ele>
        <time>2022-04-16T10:32:54Z</time>
      </trkpt>
      <trkpt lat="42.5539030787" lon="-0.6114074495">
        <ele>722.57</ele>
        <time>2022-04-16T10:33:18Z</time>
      </trkpt>
      <trkpt lat="42.5539396238" lon="-0.6110632047">
        <ele>724.01</ele>
        <time>2022-04-16T10:33:41Z</time>
      </trkpt>
      <trkpt lat="42.5539651886" lon="-0.6107297726">
        <ele>724.49</ele>
        <time>2022-04-16T10:34:02Z</time>
      </trkpt>
      <trkpt lat="42.5540074334" lon="-0.6104306225">
        <ele>724.49</ele>
        <time>2022-04-16T10:34:23Z</time>
      </trkpt>
      <trkpt lat="42.5540245324" lon="-0.6103639863">
        <ele>724.49</ele>
        <time>2022-04-16T10:34:28Z</time>
      </trkpt>
      <trkpt lat="42.5540987123" lon="-0.6102508307">
        <ele>723.53</ele>
        <time>2022-04-16T10:34:40Z</time>
      </trkpt>
      <trkpt lat="42.5541674439" lon="-0.6100520957">
        <ele>720.16</ele>
        <time>2022-04-16T10:34:53Z</time>
      </trkpt>
      <trkpt lat="42.5542859640" lon="-0.6098695379">
        <ele>720.65</ele>
        <time>2022-04-16T10:35:08Z</time>
      </trkpt>
      <trkpt lat="42.5544834416" lon="-0.6097009778">
        <ele>721.13</ele>
        <time>2022-04-16T10:35:29Z</time>
      </trkpt>
      <trkpt lat="42.5545224175" lon="-0.6096440647">
        <ele>720.16</ele>
        <time>2022-04-16T10:35:33Z</time>
      </trkpt>
      <trkpt lat="42.5546548516" lon="-0.6093459204">
        <ele>719.68</ele>
        <time>2022-04-16T10:35:55Z</time>
      </trkpt>
      <trkpt lat="42.5548343919" lon="-0.6091300026">
        <ele>718.24</ele>
        <time>2022-04-16T10:36:15Z</time>
      </trkpt>
      <trkpt lat="42.5550023653" lon="-0.6089728419">
        <ele>719.20</ele>
        <time>2022-04-16T10:36:38Z</time>
      </trkpt>
      <trkpt lat="42.5550727732" lon="-0.6086699199">
        <ele>718.72</ele>
        <time>2022-04-16T10:37:00Z</time>
      </trkpt>
      <trkpt lat="42.5550859328" lon="-0.6083990168">
        <ele>718.72</ele>
        <time>2022-04-16T10:37:18Z</time>
      </trkpt>
      <trkpt lat="42.5551458634" lon="-0.6081245933">
        <ele>718.72</ele>
        <time>2022-04-16T10:37:36Z</time>
      </trkpt>
      <trkpt lat="42.5551206339" lon="-0.6077822763">
        <ele>718.72</ele>
        <time>2022-04-16T10:37:55Z</time>
      </trkpt>
      <trkpt lat="42.5551037025" lon="-0.6077161431">
        <ele>718.72</ele>
        <time>2022-04-16T10:37:56Z</time>
      </trkpt>
      <trkpt lat="42.5551113300" lon="-0.6075987127">
        <ele>718.72</ele>
        <time>2022-04-16T10:38:01Z</time>
      </trkpt>
      <trkpt lat="42.5551229808" lon="-0.6075607426">
        <ele>718.72</ele>
        <time>2022-04-16T10:38:04Z</time>
      </trkpt>
      <trkpt lat="42.5551577657" lon="-0.6074506883">
        <ele>717.28</ele>
        <time>2022-04-16T10:38:17Z</time>
      </trkpt>
      <trkpt lat="42.5551636331" lon="-0.6074395403">
        <ele>717.28</ele>
        <time>2022-04-16T10:38:18Z</time>
      </trkpt>
      <trkpt lat="42.5551929697" lon="-0.6073595770">
        <ele>717.28</ele>
        <time>2022-04-16T10:38:25Z</time>
      </trkpt>
      <trkpt lat="42.5551948976" lon="-0.6071352772">
        <ele>717.28</ele>
        <time>2022-04-16T10:38:40Z</time>
      </trkpt>
      <trkpt lat="42.5552194566" lon="-0.6069750991">
        <ele>717.28</ele>
        <time>2022-04-16T10:38:52Z</time>
      </trkpt>
      <trkpt lat="42.5553171057" lon="-0.6066517252">
        <ele>717.28</ele>
        <time>2022-04-16T10:39:08Z</time>
      </trkpt>
      <trkpt lat="42.5553418323" lon="-0.6065679062">
        <ele>717.28</ele>
        <time>2022-04-16T10:39:15Z</time>
      </trkpt>
      <trkpt lat="42.5553157646" lon="-0.6063987594">
        <ele>717.28</ele>
        <time>2022-04-16T10:39:28Z</time>
      </trkpt>
      <trkpt lat="42.5553566683" lon="-0.6062317081">
        <ele>718.72</ele>
        <time>2022-04-16T10:39:39Z</time>
      </trkpt>
      <trkpt lat="42.5553285051" lon="-0.6059242599">
        <ele>718.72</ele>
        <time>2022-04-16T10:39:57Z</time>
      </trkpt>
      <trkpt lat="42.5553553272" lon="-0.6055683643">
        <ele>718.72</ele>
        <time>2022-04-16T10:40:20Z</time>
      </trkpt>
      <trkpt lat="42.5554377213" lon="-0.6052547973">
        <ele>718.72</ele>
        <time>2022-04-16T10:40:41Z</time>
      </trkpt>
      <trkpt lat="42.5555435009" lon="-0.6048832275">
        <ele>719.20</ele>
        <time>2022-04-16T10:41:07Z</time>
      </trkpt>
      <trkpt lat="42.5556317624" lon="-0.6045777071">
        <ele>720.16</ele>
        <time>2022-04-16T10:41:29Z</time>
      </trkpt>
      <trkpt lat="42.5557535514" lon="-0.6041982584">
        <ele>721.13</ele>
        <time>2022-04-16T10:41:54Z</time>
      </trkpt>
      <trkpt lat="42.5558581576" lon="-0.6038611382">
        <ele>721.61</ele>
        <time>2022-04-16T10:42:19Z</time>
      </trkpt>
      <trkpt lat="42.5559532922" lon="-0.6035541929">
        <ele>721.13</ele>
        <time>2022-04-16T10:42:38Z</time>
      </trkpt>
      <trkpt lat="42.5559559744" lon="-0.6035387702">
        <ele>721.13</ele>
        <time>2022-04-16T10:42:39Z</time>
      </trkpt>
      <trkpt lat="42.5559945311" lon="-0.6034064200">
        <ele>722.57</ele>
        <time>2022-04-16T10:42:48Z</time>
      </trkpt>
      <trkpt lat="42.5560444035" lon="-0.6032776739">
        <ele>722.09</ele>
        <time>2022-04-16T10:42:58Z</time>
      </trkpt>
      <trkpt lat="42.5560801104" lon="-0.6031975430">
        <ele>720.65</ele>
        <time>2022-04-16T10:43:04Z</time>
      </trkpt>
      <trkpt lat="42.5561127998" lon="-0.6029587425">
        <ele>722.09</ele>
        <time>2022-04-16T10:43:20Z</time>
      </trkpt>
      <trkpt lat="42.5562209263" lon="-0.6026664656">
        <ele>721.61</ele>
        <time>2022-04-16T10:43:39Z</time>
      </trkpt>
      <trkpt lat="42.5562254526" lon="-0.6026543956">
        <ele>721.61</ele>
        <time>2022-04-16T10:43:40Z</time>
      </trkpt>
      <trkpt lat="42.5562309008" lon="-0.6026241370">
        <ele>722.57</ele>
        <time>2022-04-16T10:43:45Z</time>
      </trkpt>
      <trkpt lat="42.5562466588" lon="-0.6026002485">
        <ele>721.61</ele>
        <time>2022-04-16T10:43:53Z</time>
      </trkpt>
      <trkpt lat="42.5562874787" lon="-0.6025294214">
        <ele>721.61</ele>
        <time>2022-04-16T10:44:05Z</time>
      </trkpt>
      <trkpt lat="42.5562886521" lon="-0.6025528908">
        <ele>721.61</ele>
        <time>2022-04-16T10:44:12Z</time>
      </trkpt>
      <trkpt lat="42.5562775880" lon="-0.6027653720">
        <ele>722.57</ele>
        <time>2022-04-16T10:44:24Z</time>
      </trkpt>
      <trkpt lat="42.5562564656" lon="-0.6028558966">
        <ele>722.57</ele>
        <time>2022-04-16T10:44:30Z</time>
      </trkpt>
      <trkpt lat="42.5563205872" lon="-0.6030026637">
        <ele>722.57</ele>
        <time>2022-04-16T10:44:42Z</time>
      </trkpt>
      <trkpt lat="42.5563426316" lon="-0.6030287314">
        <ele>721.61</ele>
        <time>2022-04-16T10:44:45Z</time>
      </trkpt>
      <trkpt lat="42.5563780032" lon="-0.6030490994">
        <ele>722.57</ele>
        <time>2022-04-16T10:44:54Z</time>
      </trkpt>
      <trkpt lat="42.5563794281" lon="-0.6030215230">
        <ele>722.57</ele>
        <time>2022-04-16T10:45:09Z</time>
      </trkpt>
      <trkpt lat="42.5563765783" lon="-0.6030116323">
        <ele>722.57</ele>
        <time>2022-04-16T10:45:10Z</time>
      </trkpt>
      <trkpt lat="42.5563404523" lon="-0.6029467564">
        <ele>722.57</ele>
        <time>2022-04-16T10:45:21Z</time>
      </trkpt>
      <trkpt lat="42.5563315675" lon="-0.6029315013">
        <ele>722.57</ele>
        <time>2022-04-16T10:45:23Z</time>
      </trkpt>
      <trkpt lat="42.5563031528" lon="-0.6028829701">
        <ele>722.57</ele>
        <time>2022-04-16T10:45:29Z</time>
      </trkpt>
      <trkpt lat="42.5563183241" lon="-0.6028584950">
        <ele>722.57</ele>
        <time>2022-04-16T10:45:31Z</time>
      </trkpt>
      <trkpt lat="42.5563649274" lon="-0.6026385538">
        <ele>722.57</ele>
        <time>2022-04-16T10:45:45Z</time>
      </trkpt>
      <trkpt lat="42.5563834514" lon="-0.6025934592">
        <ele>722.57</ele>
        <time>2022-04-16T10:45:49Z</time>
      </trkpt>
      <trkpt lat="42.5564785860" lon="-0.6025506277">
        <ele>722.57</ele>
        <time>2022-04-16T10:45:59Z</time>
      </trkpt>
      <trkpt lat="42.5564895663" lon="-0.6025429163">
        <ele>722.57</ele>
        <time>2022-04-16T10:46:04Z</time>
      </trkpt>
      <trkpt lat="42.5563905761" lon="-0.6024593487">
        <ele>722.57</ele>
        <time>2022-04-16T10:46:12Z</time>
      </trkpt>
      <trkpt lat="42.5563547853" lon="-0.6023735180">
        <ele>722.57</ele>
        <time>2022-04-16T10:46:18Z</time>
      </trkpt>
      <trkpt lat="42.5563791767" lon="-0.6023244001">
        <ele>719.20</ele>
        <time>2022-04-16T10:46:26Z</time>
      </trkpt>
      <trkpt lat="42.5563810207" lon="-0.6023237295">
        <ele>725.93</ele>
        <time>2022-04-16T10:46:27Z</time>
      </trkpt>
      <trkpt lat="42.5563799310" lon="-0.6023174431">
        <ele>722.57</ele>
        <time>2022-04-16T10:46:28Z</time>
      </trkpt>
      <trkpt lat="42.5564561225" lon="-0.6020906288">
        <ele>723.05</ele>
        <time>2022-04-16T10:46:46Z</time>
      </trkpt>
      <trkpt lat="42.5564791728" lon="-0.6020550057">
        <ele>723.05</ele>
        <time>2022-04-16T10:46:49Z</time>
      </trkpt>
      <trkpt lat="42.5565440487" lon="-0.6020030379">
        <ele>723.53</ele>
        <time>2022-04-16T10:46:55Z</time>
      </trkpt>
      <trkpt lat="42.5566224195" lon="-0.6019496452">
        <ele>724.49</ele>
        <time>2022-04-16T10:47:02Z</time>
      </trkpt>
      <trkpt lat="42.5567789935" lon="-0.6018120982">
        <ele>724.01</ele>
        <time>2022-04-16T10:47:17Z</time>
      </trkpt>
      <trkpt lat="42.5569296163" lon="-0.6016686000">
        <ele>724.49</ele>
        <time>2022-04-16T10:47:33Z</time>
      </trkpt>
      <trkpt lat="42.5570030417" lon="-0.6015823502">
        <ele>724.49</ele>
        <time>2022-04-16T10:47:43Z</time>
      </trkpt>
      <trkpt lat="42.5570209790" lon="-0.6015442964">
        <ele>724.49</ele>
        <time>2022-04-16T10:47:46Z</time>
      </trkpt>
      <trkpt lat="42.5571138505" lon="-0.6013261154">
        <ele>724.49</ele>
        <time>2022-04-16T10:48:03Z</time>
      </trkpt>
      <trkpt lat="42.5571990106" lon="-0.6010921765">
        <ele>724.97</ele>
        <time>2022-04-16T10:48:20Z</time>
      </trkpt>
      <trkpt lat="42.5572750345" lon="-0.6008521188">
        <ele>724.49</ele>
        <time>2022-04-16T10:48:37Z</time>
      </trkpt>
      <trkpt lat="42.5572995096" lon="-0.6006541383">
        <ele>724.49</ele>
        <time>2022-04-16T10:48:50Z</time>
      </trkpt>
      <trkpt lat="42.5572974142" lon="-0.6003630348">
        <ele>723.53</ele>
        <time>2022-04-16T10:49:07Z</time>
      </trkpt>
      <trkpt lat="42.5573131721" lon="-0.6002737675">
        <ele>724.97</ele>
        <time>2022-04-16T10:49:15Z</time>
      </trkpt>
      <trkpt lat="42.5573174469" lon="-0.6002491247">
        <ele>723.53</ele>
        <time>2022-04-16T10:49:17Z</time>
      </trkpt>
      <trkpt lat="42.5573293492" lon="-0.6001885235">
        <ele>724.97</ele>
        <time>2022-04-16T10:49:21Z</time>
      </trkpt>
      <trkpt lat="42.5573841669" lon="-0.5998827517">
        <ele>724.97</ele>
        <time>2022-04-16T10:49:40Z</time>
      </trkpt>
      <trkpt lat="42.5573929679" lon="-0.5998735316">
        <ele>725.45</ele>
        <time>2022-04-16T10:49:41Z</time>
      </trkpt>
      <trkpt lat="42.5575352088" lon="-0.5997078214">
        <ele>726.41</ele>
        <time>2022-04-16T10:50:01Z</time>
      </trkpt>
      <trkpt lat="42.5575818960" lon="-0.5997483060">
        <ele>726.41</ele>
        <time>2022-04-16T10:50:05Z</time>
      </trkpt>
      <trkpt lat="42.5577985682" lon="-0.5998594500">
        <ele>726.89</ele>
        <time>2022-04-16T10:50:25Z</time>
      </trkpt>
      <trkpt lat="42.5579132326" lon="-0.5995994434">
        <ele>725.45</ele>
        <time>2022-04-16T10:50:45Z</time>
      </trkpt>
      <trkpt lat="42.5579211954" lon="-0.5995721184">
        <ele>726.89</ele>
        <time>2022-04-16T10:50:47Z</time>
      </trkpt>
      <trkpt lat="42.5579353608" lon="-0.5995401833">
        <ele>726.89</ele>
        <time>2022-04-16T10:50:49Z</time>
      </trkpt>
      <trkpt lat="42.5580351893" lon="-0.5992258620">
        <ele>726.89</ele>
        <time>2022-04-16T10:51:11Z</time>
      </trkpt>
      <trkpt lat="42.5581330899" lon="-0.5989950243">
        <ele>725.93</ele>
        <time>2022-04-16T10:51:28Z</time>
      </trkpt>
      <trkpt lat="42.5581668690" lon="-0.5989375245">
        <ele>727.86</ele>
        <time>2022-04-16T10:51:34Z</time>
      </trkpt>
      <trkpt lat="42.5581469201" lon="-0.5988886580">
        <ele>727.86</ele>
        <time>2022-04-16T10:51:54Z</time>
      </trkpt>
      <trkpt lat="42.5581509434" lon="-0.5988876522">
        <ele>726.41</ele>
        <time>2022-04-16T10:52:00Z</time>
      </trkpt>
      <trkpt lat="42.5582433958" lon="-0.5987099558">
        <ele>727.37</ele>
        <time>2022-04-16T10:52:16Z</time>
      </trkpt>
      <trkpt lat="42.5583766680" lon="-0.5984309223">
        <ele>728.82</ele>
        <time>2022-04-16T10:52:36Z</time>
      </trkpt>
      <trkpt lat="42.5585204177" lon="-0.5980757810">
        <ele>728.34</ele>
        <time>2022-04-16T10:53:00Z</time>
      </trkpt>
      <trkpt lat="42.5586169772" lon="-0.5977896228">
        <ele>728.34</ele>
        <time>2022-04-16T10:53:19Z</time>
      </trkpt>
      <trkpt lat="42.5587168895" lon="-0.5975100864">
        <ele>728.82</ele>
        <time>2022-04-16T10:53:38Z</time>
      </trkpt>
      <trkpt lat="42.5587987807" lon="-0.5972758122">
        <ele>729.78</ele>
        <time>2022-04-16T10:53:55Z</time>
      </trkpt>
      <trkpt lat="42.5589167140" lon="-0.5969712138">
        <ele>729.78</ele>
        <time>2022-04-16T10:54:15Z</time>
      </trkpt>
      <trkpt lat="42.5590177160" lon="-0.5966352671">
        <ele>729.78</ele>
        <time>2022-04-16T10:54:36Z</time>
      </trkpt>
      <trkpt lat="42.5590974279" lon="-0.5964704789">
        <ele>729.78</ele>
        <time>2022-04-16T10:54:49Z</time>
      </trkpt>
      <trkpt lat="42.5591257587" lon="-0.5963321775">
        <ele>731.22</ele>
        <time>2022-04-16T10:54:57Z</time>
      </trkpt>
      <trkpt lat="42.5591990165" lon="-0.5961377174">
        <ele>729.30</ele>
        <time>2022-04-16T10:55:12Z</time>
      </trkpt>
      <trkpt lat="42.5592251681" lon="-0.5958456080">
        <ele>730.74</ele>
        <time>2022-04-16T10:55:29Z</time>
      </trkpt>
      <trkpt lat="42.5592669938" lon="-0.5955820810">
        <ele>731.22</ele>
        <time>2022-04-16T10:55:47Z</time>
      </trkpt>
      <trkpt lat="42.5593370665" lon="-0.5953499023">
        <ele>731.70</ele>
        <time>2022-04-16T10:56:02Z</time>
      </trkpt>
      <trkpt lat="42.5593672413" lon="-0.5952424463">
        <ele>730.74</ele>
        <time>2022-04-16T10:56:10Z</time>
      </trkpt>
      <trkpt lat="42.5594036188" lon="-0.5950654205">
        <ele>732.18</ele>
        <time>2022-04-16T10:56:20Z</time>
      </trkpt>
      <trkpt lat="42.5594610348" lon="-0.5949052423">
        <ele>730.74</ele>
        <time>2022-04-16T10:56:31Z</time>
      </trkpt>
      <trkpt lat="42.5594732724" lon="-0.5948852096">
        <ele>732.18</ele>
        <time>2022-04-16T10:56:33Z</time>
      </trkpt>
      <trkpt lat="42.5594788045" lon="-0.5948756542">
        <ele>732.18</ele>
        <time>2022-04-16T10:56:34Z</time>
      </trkpt>
      <trkpt lat="42.5595079735" lon="-0.5946407933">
        <ele>732.66</ele>
        <time>2022-04-16T10:56:53Z</time>
      </trkpt>
      <trkpt lat="42.5595462788" lon="-0.5943962093">
        <ele>733.14</ele>
        <time>2022-04-16T10:57:13Z</time>
      </trkpt>
      <trkpt lat="42.5595477875" lon="-0.5943957064">
        <ele>734.58</ele>
        <time>2022-04-16T10:57:16Z</time>
      </trkpt>
      <trkpt lat="42.5595395733" lon="-0.5943623465">
        <ele>732.18</ele>
        <time>2022-04-16T10:57:23Z</time>
      </trkpt>
      <trkpt lat="42.5595347956" lon="-0.5943395477">
        <ele>733.62</ele>
        <time>2022-04-16T10:57:25Z</time>
      </trkpt>
      <trkpt lat="42.5595383998" lon="-0.5940818880">
        <ele>734.10</ele>
        <time>2022-04-16T10:57:46Z</time>
      </trkpt>
      <trkpt lat="42.5595999230" lon="-0.5937949754">
        <ele>734.58</ele>
        <time>2022-04-16T10:58:08Z</time>
      </trkpt>
      <trkpt lat="42.5596259907" lon="-0.5934021994">
        <ele>734.58</ele>
        <time>2022-04-16T10:58:30Z</time>
      </trkpt>
      <trkpt lat="42.5596800540" lon="-0.5931121856">
        <ele>735.07</ele>
        <time>2022-04-16T10:58:49Z</time>
      </trkpt>
      <trkpt lat="42.5597249810" lon="-0.5930041429">
        <ele>735.07</ele>
        <time>2022-04-16T10:58:58Z</time>
      </trkpt>
      <trkpt lat="42.5598711614" lon="-0.5931019597">
        <ele>734.10</ele>
        <time>2022-04-16T10:59:14Z</time>
      </trkpt>
      <trkpt lat="42.5599030964" lon="-0.5931561068">
        <ele>734.10</ele>
        <time>2022-04-16T10:59:18Z</time>
      </trkpt>
      <trkpt lat="42.5599237997" lon="-0.5932478886">
        <ele>734.10</ele>
        <time>2022-04-16T10:59:34Z</time>
      </trkpt>
      <trkpt lat="42.5599621888" lon="-0.5932730343">
        <ele>734.10</ele>
        <time>2022-04-16T10:59:40Z</time>
      </trkpt>
      <trkpt lat="42.5599879213" lon="-0.5931903049">
        <ele>733.14</ele>
        <time>2022-04-16T10:59:45Z</time>
      </trkpt>
      <trkpt lat="42.5599713251" lon="-0.5930881295">
        <ele>731.70</ele>
        <time>2022-04-16T10:59:57Z</time>
      </trkpt>
      <trkpt lat="42.5599506218" lon="-0.5929499958">
        <ele>730.74</ele>
        <time>2022-04-16T11:00:11Z</time>
      </trkpt>
      <trkpt lat="42.5599495322" lon="-0.5928626563">
        <ele>730.74</ele>
        <time>2022-04-16T11:00:21Z</time>
      </trkpt>
      <trkpt lat="42.5599688943" lon="-0.5927994568">
        <ele>731.70</ele>
        <time>2022-04-16T11:00:29Z</time>
      </trkpt>
      <trkpt lat="42.5599628594" lon="-0.5927689467">
        <ele>732.18</ele>
        <time>2022-04-16T11:00:37Z</time>
      </trkpt>
      <trkpt lat="42.5599631947" lon="-0.5927098542">
        <ele>730.74</ele>
        <time>2022-04-16T11:00:41Z</time>
      </trkpt>
      <trkpt lat="42.5599676371" lon="-0.5926719680">
        <ele>730.74</ele>
        <time>2022-04-16T11:00:45Z</time>
      </trkpt>
      <trkpt lat="42.5599939562" lon="-0.5924950261">
        <ele>731.70</ele>
        <time>2022-04-16T11:00:58Z</time>
      </trkpt>
      <trkpt lat="42.5600098819" lon="-0.5922542978">
        <ele>732.66</ele>
        <time>2022-04-16T11:01:15Z</time>
      </trkpt>
      <trkpt lat="42.5600171741" lon="-0.5922323372">
        <ele>734.10</ele>
        <time>2022-04-16T11:01:17Z</time>
      </trkpt>
      <trkpt lat="42.5600323454" lon="-0.5920538865">
        <ele>734.58</ele>
        <time>2022-04-16T11:01:30Z</time>
      </trkpt>
      <trkpt lat="42.5600346085" lon="-0.5920248013">
        <ele>736.51</ele>
        <time>2022-04-16T11:01:32Z</time>
      </trkpt>
      <trkpt lat="42.5600137375" lon="-0.5916926265">
        <ele>735.55</ele>
        <time>2022-04-16T11:01:52Z</time>
      </trkpt>
      <trkpt lat="42.5600104686" lon="-0.5916632060">
        <ele>736.99</ele>
        <time>2022-04-16T11:01:54Z</time>
      </trkpt>
      <trkpt lat="42.5600346923" lon="-0.5914669018">
        <ele>736.99</ele>
        <time>2022-04-16T11:02:10Z</time>
      </trkpt>
      <trkpt lat="42.5600959640" lon="-0.5911820848">
        <ele>737.47</ele>
        <time>2022-04-16T11:02:29Z</time>
      </trkpt>
      <trkpt lat="42.5601024181" lon="-0.5911376607">
        <ele>736.51</ele>
        <time>2022-04-16T11:02:32Z</time>
      </trkpt>
      <trkpt lat="42.5601320062" lon="-0.5908479821">
        <ele>737.47</ele>
        <time>2022-04-16T11:02:52Z</time>
      </trkpt>
      <trkpt lat="42.5602694694" lon="-0.5905801803">
        <ele>735.55</ele>
        <time>2022-04-16T11:03:12Z</time>
      </trkpt>
      <trkpt lat="42.5603834633" lon="-0.5904379394">
        <ele>736.99</ele>
        <time>2022-04-16T11:03:27Z</time>
      </trkpt>
      <trkpt lat="42.5604864769" lon="-0.5903695431">
        <ele>735.55</ele>
        <time>2022-04-16T11:03:35Z</time>
      </trkpt>
      <trkpt lat="42.5606033206" lon="-0.5902126338">
        <ele>736.03</ele>
        <time>2022-04-16T11:03:52Z</time>
      </trkpt>
      <trkpt lat="42.5607535243" lon="-0.5899497773">
        <ele>736.03</ele>
        <time>2022-04-16T11:04:12Z</time>
      </trkpt>
      <trkpt lat="42.5609404407" lon="-0.5897781160">
        <ele>736.99</ele>
        <time>2022-04-16T11:04:31Z</time>
      </trkpt>
      <trkpt lat="42.5609607249" lon="-0.5897590891">
        <ele>735.55</ele>
        <time>2022-04-16T11:04:34Z</time>
      </trkpt>
      <trkpt lat="42.5609720405" lon="-0.5897424091">
        <ele>736.99</ele>
        <time>2022-04-16T11:04:36Z</time>
      </trkpt>
      <trkpt lat="42.5611043070" lon="-0.5894953106">
        <ele>736.99</ele>
        <time>2022-04-16T11:04:57Z</time>
      </trkpt>
      <trkpt lat="42.5611245073" lon="-0.5894707516">
        <ele>736.99</ele>
        <time>2022-04-16T11:04:59Z</time>
      </trkpt>
      <trkpt lat="42.5611866172" lon="-0.5893648043">
        <ele>737.47</ele>
        <time>2022-04-16T11:05:06Z</time>
      </trkpt>
      <trkpt lat="42.5612540077" lon="-0.5892519001">
        <ele>736.03</ele>
        <time>2022-04-16T11:05:14Z</time>
      </trkpt>
      <trkpt lat="42.5612702686" lon="-0.5892130081">
        <ele>737.47</ele>
        <time>2022-04-16T11:05:16Z</time>
      </trkpt>
      <trkpt lat="42.5613330491" lon="-0.5890534166">
        <ele>737.95</ele>
        <time>2022-04-16T11:05:26Z</time>
      </trkpt>
      <trkpt lat="42.5614141021" lon="-0.5888485629">
        <ele>736.51</ele>
        <time>2022-04-16T11:05:42Z</time>
      </trkpt>
      <trkpt lat="42.5614210591" lon="-0.5888190586">
        <ele>738.43</ele>
        <time>2022-04-16T11:05:44Z</time>
      </trkpt>
      <trkpt lat="42.5614934787" lon="-0.5886126962">
        <ele>736.99</ele>
        <time>2022-04-16T11:05:57Z</time>
      </trkpt>
      <trkpt lat="42.5615700893" lon="-0.5883858819">
        <ele>737.95</ele>
        <time>2022-04-16T11:06:16Z</time>
      </trkpt>
      <trkpt lat="42.5616466161" lon="-0.5882878974">
        <ele>736.99</ele>
        <time>2022-04-16T11:06:27Z</time>
      </trkpt>
      <trkpt lat="42.5616684929" lon="-0.5882398691">
        <ele>738.91</ele>
        <time>2022-04-16T11:06:31Z</time>
      </trkpt>
      <trkpt lat="42.5617026910" lon="-0.5881594867">
        <ele>737.47</ele>
        <time>2022-04-16T11:06:37Z</time>
      </trkpt>
      <trkpt lat="42.5617332850" lon="-0.5880543776">
        <ele>738.43</ele>
        <time>2022-04-16T11:06:44Z</time>
      </trkpt>
      <trkpt lat="42.5618270785" lon="-0.5877053551">
        <ele>738.43</ele>
        <time>2022-04-16T11:07:06Z</time>
      </trkpt>
      <trkpt lat="42.5618484523" lon="-0.5873713363">
        <ele>739.39</ele>
        <time>2022-04-16T11:07:27Z</time>
      </trkpt>
      <trkpt lat="42.5618587621" lon="-0.5871316977">
        <ele>737.95</ele>
        <time>2022-04-16T11:07:43Z</time>
      </trkpt>
      <trkpt lat="42.5618441775" lon="-0.5869950727">
        <ele>738.91</ele>
        <time>2022-04-16T11:07:51Z</time>
      </trkpt>
      <trkpt lat="42.5618151762" lon="-0.5867223255">
        <ele>738.43</ele>
        <time>2022-04-16T11:08:07Z</time>
      </trkpt>
      <trkpt lat="42.5617567543" lon="-0.5864945892">
        <ele>738.43</ele>
        <time>2022-04-16T11:08:23Z</time>
      </trkpt>
      <trkpt lat="42.5617523957" lon="-0.5864648335">
        <ele>739.39</ele>
        <time>2022-04-16T11:08:25Z</time>
      </trkpt>
      <trkpt lat="42.5617537368" lon="-0.5862303078">
        <ele>739.39</ele>
        <time>2022-04-16T11:08:40Z</time>
      </trkpt>
      <trkpt lat="42.5617389847" lon="-0.5860300642">
        <ele>739.87</ele>
        <time>2022-04-16T11:08:51Z</time>
      </trkpt>
      <trkpt lat="42.5618299283" lon="-0.5858272221">
        <ele>738.91</ele>
        <time>2022-04-16T11:09:08Z</time>
      </trkpt>
      <trkpt lat="42.5619160943" lon="-0.5856429040">
        <ele>740.83</ele>
        <time>2022-04-16T11:09:22Z</time>
      </trkpt>
      <trkpt lat="42.5619242247" lon="-0.5854411516">
        <ele>741.79</ele>
        <time>2022-04-16T11:09:35Z</time>
      </trkpt>
      <trkpt lat="42.5619352050" lon="-0.5853508785">
        <ele>742.28</ele>
        <time>2022-04-16T11:09:40Z</time>
      </trkpt>
      <trkpt lat="42.5619439222" lon="-0.5851423368">
        <ele>745.16</ele>
        <time>2022-04-16T11:09:51Z</time>
      </trkpt>
      <trkpt lat="42.5619443413" lon="-0.5850950629">
        <ele>742.28</ele>
        <time>2022-04-16T11:09:54Z</time>
      </trkpt>
      <trkpt lat="42.5619576685" lon="-0.5849223956">
        <ele>743.72</ele>
        <time>2022-04-16T11:10:07Z</time>
      </trkpt>
      <trkpt lat="42.5619554054" lon="-0.5846514925">
        <ele>745.16</ele>
        <time>2022-04-16T11:10:28Z</time>
      </trkpt>
      <trkpt lat="42.5619519688" lon="-0.5844167154">
        <ele>746.60</ele>
        <time>2022-04-16T11:10:46Z</time>
      </trkpt>
      <trkpt lat="42.5619528908" lon="-0.5844044778">
        <ele>743.24</ele>
        <time>2022-04-16T11:10:47Z</time>
      </trkpt>
      <trkpt lat="42.5619531423" lon="-0.5843903963">
        <ele>747.56</ele>
        <time>2022-04-16T11:10:48Z</time>
      </trkpt>
      <trkpt lat="42.5619612727" lon="-0.5841163080">
        <ele>747.56</ele>
        <time>2022-04-16T11:11:06Z</time>
      </trkpt>
      <trkpt lat="42.5619416591" lon="-0.5839871429">
        <ele>749.00</ele>
        <time>2022-04-16T11:11:16Z</time>
      </trkpt>
      <trkpt lat="42.5619281642" lon="-0.5836450774">
        <ele>749.97</ele>
        <time>2022-04-16T11:11:37Z</time>
      </trkpt>
      <trkpt lat="42.5619339477" lon="-0.5836021621">
        <ele>750.93</ele>
        <time>2022-04-16T11:11:40Z</time>
      </trkpt>
      <trkpt lat="42.5619907770" lon="-0.5833003297">
        <ele>753.33</ele>
        <time>2022-04-16T11:11:59Z</time>
      </trkpt>
      <trkpt lat="42.5619742647" lon="-0.5830505490">
        <ele>754.77</ele>
        <time>2022-04-16T11:12:17Z</time>
      </trkpt>
      <trkpt lat="42.5619713310" lon="-0.5829370581">
        <ele>757.66</ele>
        <time>2022-04-16T11:12:24Z</time>
      </trkpt>
      <trkpt lat="42.5619679783" lon="-0.5829175282">
        <ele>757.66</ele>
        <time>2022-04-16T11:12:25Z</time>
      </trkpt>
      <trkpt lat="42.5619651284" lon="-0.5828994233">
        <ele>754.29</ele>
        <time>2022-04-16T11:12:26Z</time>
      </trkpt>
      <trkpt lat="42.5619657990" lon="-0.5828798097">
        <ele>757.66</ele>
        <time>2022-04-16T11:12:27Z</time>
      </trkpt>
      <trkpt lat="42.5619746000" lon="-0.5828090664">
        <ele>755.73</ele>
        <time>2022-04-16T11:12:31Z</time>
      </trkpt>
      <trkpt lat="42.5619856641" lon="-0.5827562604">
        <ele>758.62</ele>
        <time>2022-04-16T11:12:34Z</time>
      </trkpt>
      <trkpt lat="42.5619961414" lon="-0.5827083997">
        <ele>757.18</ele>
        <time>2022-04-16T11:12:37Z</time>
      </trkpt>
      <trkpt lat="42.5619963929" lon="-0.5826818291">
        <ele>758.62</ele>
        <time>2022-04-16T11:12:39Z</time>
      </trkpt>
      <trkpt lat="42.5620027632" lon="-0.5825359002">
        <ele>760.06</ele>
        <time>2022-04-16T11:12:49Z</time>
      </trkpt>
      <trkpt lat="42.5619935431" lon="-0.5824512430">
        <ele>758.62</ele>
        <time>2022-04-16T11:12:56Z</time>
      </trkpt>
      <trkpt lat="42.5619931240" lon="-0.5823468044">
        <ele>761.02</ele>
        <time>2022-04-16T11:13:04Z</time>
      </trkpt>
      <trkpt lat="42.5619932916" lon="-0.5821945053">
        <ele>762.46</ele>
        <time>2022-04-16T11:13:16Z</time>
      </trkpt>
      <trkpt lat="42.5619930401" lon="-0.5818673596">
        <ele>763.90</ele>
        <time>2022-04-16T11:13:39Z</time>
      </trkpt>
      <trkpt lat="42.5619914476" lon="-0.5818246957">
        <ele>764.87</ele>
        <time>2022-04-16T11:13:42Z</time>
      </trkpt>
      <trkpt lat="42.5620002486" lon="-0.5817660224">
        <ele>763.42</ele>
        <time>2022-04-16T11:13:47Z</time>
      </trkpt>
      <trkpt lat="42.5620030146" lon="-0.5817056727">
        <ele>767.27</ele>
        <time>2022-04-16T11:13:51Z</time>
      </trkpt>
      <trkpt lat="42.5620016735" lon="-0.5816922616">
        <ele>767.27</ele>
        <time>2022-04-16T11:13:52Z</time>
      </trkpt>
      <trkpt lat="42.5620061997" lon="-0.5816463288">
        <ele>765.83</ele>
        <time>2022-04-16T11:13:55Z</time>
      </trkpt>
      <trkpt lat="42.5620473549" lon="-0.5815055966">
        <ele>767.27</ele>
        <time>2022-04-16T11:14:06Z</time>
      </trkpt>
      <trkpt lat="42.5620694831" lon="-0.5812261440">
        <ele>768.71</ele>
        <time>2022-04-16T11:14:24Z</time>
      </trkpt>
      <trkpt lat="42.5620656274" lon="-0.5810034368">
        <ele>772.08</ele>
        <time>2022-04-16T11:14:40Z</time>
      </trkpt>
      <trkpt lat="42.5620594248" lon="-0.5809738487">
        <ele>769.19</ele>
        <time>2022-04-16T11:14:42Z</time>
      </trkpt>
      <trkpt lat="42.5620590895" lon="-0.5809493735">
        <ele>771.60</ele>
        <time>2022-04-16T11:14:44Z</time>
      </trkpt>
      <trkpt lat="42.5620592572" lon="-0.5809249822">
        <ele>770.63</ele>
        <time>2022-04-16T11:14:46Z</time>
      </trkpt>
      <trkpt lat="42.5620391406" lon="-0.5807611998">
        <ele>773.04</ele>
        <time>2022-04-16T11:14:58Z</time>
      </trkpt>
      <trkpt lat="42.5620462652" lon="-0.5806116667">
        <ele>775.44</ele>
        <time>2022-04-16T11:15:10Z</time>
      </trkpt>
      <trkpt lat="42.5620605145" lon="-0.5805477966">
        <ele>774.00</ele>
        <time>2022-04-16T11:15:15Z</time>
      </trkpt>
      <trkpt lat="42.5620637834" lon="-0.5804822501">
        <ele>775.92</ele>
        <time>2022-04-16T11:15:20Z</time>
      </trkpt>
      <trkpt lat="42.5620662980" lon="-0.5803766381">
        <ele>775.44</ele>
        <time>2022-04-16T11:15:28Z</time>
      </trkpt>
      <trkpt lat="42.5620725844" lon="-0.5803531688">
        <ele>776.88</ele>
        <time>2022-04-16T11:15:30Z</time>
      </trkpt>
      <trkpt lat="42.5621222053" lon="-0.5801789090">
        <ele>777.36</ele>
        <time>2022-04-16T11:15:42Z</time>
      </trkpt>
      <trkpt lat="42.5621258933" lon="-0.5801323056">
        <ele>779.29</ele>
        <time>2022-04-16T11:15:45Z</time>
      </trkpt>
      <trkpt lat="42.5621317606" lon="-0.5800744705">
        <ele>778.81</ele>
        <time>2022-04-16T11:15:49Z</time>
      </trkpt>
      <trkpt lat="42.5621335208" lon="-0.5800453853">
        <ele>780.25</ele>
        <time>2022-04-16T11:15:51Z</time>
      </trkpt>
      <trkpt lat="42.5621362869" lon="-0.5800178088">
        <ele>779.29</ele>
        <time>2022-04-16T11:15:53Z</time>
      </trkpt>
      <trkpt lat="42.5621510390" lon="-0.5797924194">
        <ele>780.73</ele>
        <time>2022-04-16T11:16:09Z</time>
      </trkpt>
      <trkpt lat="42.5621644501" lon="-0.5795851350">
        <ele>779.29</ele>
        <time>2022-04-16T11:16:22Z</time>
      </trkpt>
      <trkpt lat="42.5621668808" lon="-0.5795512721">
        <ele>782.17</ele>
        <time>2022-04-16T11:16:24Z</time>
      </trkpt>
      <trkpt lat="42.5622007437" lon="-0.5793200154">
        <ele>782.65</ele>
        <time>2022-04-16T11:16:40Z</time>
      </trkpt>
      <trkpt lat="42.5622045156" lon="-0.5792689696">
        <ele>781.21</ele>
        <time>2022-04-16T11:16:43Z</time>
      </trkpt>
      <trkpt lat="42.5622221176" lon="-0.5789989047">
        <ele>783.61</ele>
        <time>2022-04-16T11:16:57Z</time>
      </trkpt>
      <trkpt lat="42.5622244645" lon="-0.5789330229">
        <ele>784.57</ele>
        <time>2022-04-16T11:17:01Z</time>
      </trkpt>
      <trkpt lat="42.5622500293" lon="-0.5787150934">
        <ele>783.13</ele>
        <time>2022-04-16T11:17:19Z</time>
      </trkpt>
      <trkpt lat="42.5622537173" lon="-0.5786953960">
        <ele>785.05</ele>
        <time>2022-04-16T11:17:21Z</time>
      </trkpt>
      <trkpt lat="42.5622797012" lon="-0.5785505567">
        <ele>784.57</ele>
        <time>2022-04-16T11:17:37Z</time>
      </trkpt>
      <trkpt lat="42.5623136479" lon="-0.5781707726">
        <ele>786.02</ele>
        <time>2022-04-16T11:18:00Z</time>
      </trkpt>
      <trkpt lat="42.5623791944" lon="-0.5778327305">
        <ele>787.46</ele>
        <time>2022-04-16T11:18:22Z</time>
      </trkpt>
      <trkpt lat="42.5624520332" lon="-0.5775919184">
        <ele>788.42</ele>
        <time>2022-04-16T11:18:41Z</time>
      </trkpt>
      <trkpt lat="42.5624575652" lon="-0.5775795970">
        <ele>788.90</ele>
        <time>2022-04-16T11:18:42Z</time>
      </trkpt>
      <trkpt lat="42.5625219382" lon="-0.5774063431">
        <ele>788.90</ele>
        <time>2022-04-16T11:18:56Z</time>
      </trkpt>
      <trkpt lat="42.5626161508" lon="-0.5771013256">
        <ele>789.86</ele>
        <time>2022-04-16T11:19:16Z</time>
      </trkpt>
      <trkpt lat="42.5627506804" lon="-0.5767807178">
        <ele>789.86</ele>
        <time>2022-04-16T11:19:36Z</time>
      </trkpt>
      <trkpt lat="42.5628179871" lon="-0.5766123254">
        <ele>789.86</ele>
        <time>2022-04-16T11:19:48Z</time>
      </trkpt>
      <trkpt lat="42.5628267881" lon="-0.5765504669">
        <ele>791.78</ele>
        <time>2022-04-16T11:19:52Z</time>
      </trkpt>
      <trkpt lat="42.5628996268" lon="-0.5763033684">
        <ele>792.26</ele>
        <time>2022-04-16T11:20:10Z</time>
      </trkpt>
      <trkpt lat="42.5630346593" lon="-0.5760334712">
        <ele>791.78</ele>
        <time>2022-04-16T11:20:31Z</time>
      </trkpt>
      <trkpt lat="42.5631194003" lon="-0.5758228339">
        <ele>789.86</ele>
        <time>2022-04-16T11:20:49Z</time>
      </trkpt>
      <trkpt lat="42.5631564483" lon="-0.5757532641">
        <ele>788.90</ele>
        <time>2022-04-16T11:20:56Z</time>
      </trkpt>
      <trkpt lat="42.5632566120" lon="-0.5755641684">
        <ele>790.34</ele>
        <time>2022-04-16T11:21:13Z</time>
      </trkpt>
      <trkpt lat="42.5632685144" lon="-0.5755466502">
        <ele>788.42</ele>
        <time>2022-04-16T11:21:15Z</time>
      </trkpt>
      <trkpt lat="42.5634550117" lon="-0.5753417127">
        <ele>792.74</ele>
        <time>2022-04-16T11:21:36Z</time>
      </trkpt>
      <trkpt lat="42.5634927303" lon="-0.5753128789">
        <ele>790.34</ele>
        <time>2022-04-16T11:21:39Z</time>
      </trkpt>
      <trkpt lat="42.5635053869" lon="-0.5753006414">
        <ele>789.38</ele>
        <time>2022-04-16T11:21:40Z</time>
      </trkpt>
      <trkpt lat="42.5635272637" lon="-0.5752820335">
        <ele>791.30</ele>
        <time>2022-04-16T11:21:42Z</time>
      </trkpt>
      <trkpt lat="42.5635649823" lon="-0.5751675367">
        <ele>789.86</ele>
        <time>2022-04-16T11:21:53Z</time>
      </trkpt>
      <trkpt lat="42.5635902118" lon="-0.5749723222">
        <ele>789.86</ele>
        <time>2022-04-16T11:22:03Z</time>
      </trkpt>
      <trkpt lat="42.5635911338" lon="-0.5749440752">
        <ele>789.86</ele>
        <time>2022-04-16T11:22:05Z</time>
      </trkpt>
      <trkpt lat="42.5635914691" lon="-0.5749282334">
        <ele>789.38</ele>
        <time>2022-04-16T11:22:07Z</time>
      </trkpt>
      <trkpt lat="42.5635938160" lon="-0.5748806242">
        <ele>789.86</ele>
        <time>2022-04-16T11:22:11Z</time>
      </trkpt>
      <trkpt lat="42.5636015274" lon="-0.5747909378">
        <ele>788.42</ele>
        <time>2022-04-16T11:22:19Z</time>
      </trkpt>
      <trkpt lat="42.5636117533" lon="-0.5745208729">
        <ele>788.90</ele>
        <time>2022-04-16T11:22:36Z</time>
      </trkpt>
      <trkpt lat="42.5636197161" lon="-0.5744850822">
        <ele>787.46</ele>
        <time>2022-04-16T11:22:39Z</time>
      </trkpt>
      <trkpt lat="42.5636240747" lon="-0.5744583439">
        <ele>789.86</ele>
        <time>2022-04-16T11:22:41Z</time>
      </trkpt>
      <trkpt lat="42.5636080652" lon="-0.5742184538">
        <ele>789.86</ele>
        <time>2022-04-16T11:22:56Z</time>
      </trkpt>
      <trkpt lat="42.5636343844" lon="-0.5741118360">
        <ele>789.38</ele>
        <time>2022-04-16T11:23:03Z</time>
      </trkpt>
      <trkpt lat="42.5636476278" lon="-0.5739769712">
        <ele>790.34</ele>
        <time>2022-04-16T11:23:14Z</time>
      </trkpt>
      <trkpt lat="42.5636410899" lon="-0.5737365782">
        <ele>790.34</ele>
        <time>2022-04-16T11:23:30Z</time>
      </trkpt>
      <trkpt lat="42.5636924710" lon="-0.5735054892">
        <ele>791.30</ele>
        <time>2022-04-16T11:23:47Z</time>
      </trkpt>
      <trkpt lat="42.5636959914" lon="-0.5734889768">
        <ele>791.30</ele>
        <time>2022-04-16T11:23:48Z</time>
      </trkpt>
      <trkpt lat="42.5638226420" lon="-0.5731721409">
        <ele>791.78</ele>
        <time>2022-04-16T11:24:09Z</time>
      </trkpt>
      <trkpt lat="42.5638583489" lon="-0.5729112122">
        <ele>791.30</ele>
        <time>2022-04-16T11:24:27Z</time>
      </trkpt>
      <trkpt lat="42.5638873503" lon="-0.5727742519">
        <ele>792.74</ele>
        <time>2022-04-16T11:24:36Z</time>
      </trkpt>
      <trkpt lat="42.5639049523" lon="-0.5725191906">
        <ele>793.22</ele>
        <time>2022-04-16T11:24:49Z</time>
      </trkpt>
      <trkpt lat="42.5639471970" lon="-0.5722447671">
        <ele>792.26</ele>
        <time>2022-04-16T11:25:06Z</time>
      </trkpt>
      <trkpt lat="42.5639502984" lon="-0.5722036120">
        <ele>791.78</ele>
        <time>2022-04-16T11:25:08Z</time>
      </trkpt>
      <trkpt lat="42.5639575906" lon="-0.5721526500">
        <ele>795.63</ele>
        <time>2022-04-16T11:25:10Z</time>
      </trkpt>
      <trkpt lat="42.5639791321" lon="-0.5720916297">
        <ele>793.71</ele>
        <time>2022-04-16T11:25:13Z</time>
      </trkpt>
      <trkpt lat="42.5639975723" lon="-0.5720575992">
        <ele>793.71</ele>
        <time>2022-04-16T11:25:15Z</time>
      </trkpt>
      <trkpt lat="42.5639848318" lon="-0.5719886161">
        <ele>793.71</ele>
        <time>2022-04-16T11:25:19Z</time>
      </trkpt>
      <trkpt lat="42.5639958959" lon="-0.5718994327">
        <ele>793.71</ele>
        <time>2022-04-16T11:25:24Z</time>
      </trkpt>
      <trkpt lat="42.5640584249" lon="-0.5717343930">
        <ele>793.71</ele>
        <time>2022-04-16T11:25:38Z</time>
      </trkpt>
      <trkpt lat="42.5640987419" lon="-0.5716088321">
        <ele>795.15</ele>
        <time>2022-04-16T11:25:49Z</time>
      </trkpt>
      <trkpt lat="42.5641274918" lon="-0.5714885518">
        <ele>794.19</ele>
        <time>2022-04-16T11:25:59Z</time>
      </trkpt>
      <trkpt lat="42.5642382167" lon="-0.5711842887">
        <ele>795.15</ele>
        <time>2022-04-16T11:26:20Z</time>
      </trkpt>
      <trkpt lat="42.5642978121" lon="-0.5708945263">
        <ele>794.19</ele>
        <time>2022-04-16T11:26:39Z</time>
      </trkpt>
      <trkpt lat="42.5643122289" lon="-0.5707760062">
        <ele>795.15</ele>
        <time>2022-04-16T11:26:47Z</time>
      </trkpt>
      <trkpt lat="42.5643289089" lon="-0.5707127228">
        <ele>793.71</ele>
        <time>2022-04-16T11:26:51Z</time>
      </trkpt>
      <trkpt lat="42.5643631071" lon="-0.5705294106">
        <ele>794.67</ele>
        <time>2022-04-16T11:27:04Z</time>
      </trkpt>
      <trkpt lat="42.5643853191" lon="-0.5702982377">
        <ele>794.67</ele>
        <time>2022-04-16T11:27:19Z</time>
      </trkpt>
      <trkpt lat="42.5643667113" lon="-0.5702065397">
        <ele>795.15</ele>
        <time>2022-04-16T11:27:26Z</time>
      </trkpt>
      <trkpt lat="42.5643688906" lon="-0.5701672286">
        <ele>791.78</ele>
        <time>2022-04-16T11:27:29Z</time>
      </trkpt>
      <trkpt lat="42.5643712375" lon="-0.5701557454">
        <ele>797.07</ele>
        <time>2022-04-16T11:27:30Z</time>
      </trkpt>
      <trkpt lat="42.5643720757" lon="-0.5701436754">
        <ele>797.07</ele>
        <time>2022-04-16T11:27:31Z</time>
      </trkpt>
      <trkpt lat="42.5643703155" lon="-0.5701176077">
        <ele>795.15</ele>
        <time>2022-04-16T11:27:33Z</time>
      </trkpt>
      <trkpt lat="42.5643817987" lon="-0.5700607784">
        <ele>796.11</ele>
        <time>2022-04-16T11:27:37Z</time>
      </trkpt>
      <trkpt lat="42.5644238759" lon="-0.5699030310">
        <ele>796.11</ele>
        <time>2022-04-16T11:27:47Z</time>
      </trkpt>
      <trkpt lat="42.5644271448" lon="-0.5698762927">
        <ele>796.11</ele>
        <time>2022-04-16T11:27:49Z</time>
      </trkpt>
      <trkpt lat="42.5644317549" lon="-0.5697455350">
        <ele>794.67</ele>
        <time>2022-04-16T11:27:56Z</time>
      </trkpt>
      <trkpt lat="42.5644596666" lon="-0.5696578603">
        <ele>794.67</ele>
        <time>2022-04-16T11:28:04Z</time>
      </trkpt>
      <trkpt lat="42.5645433180" lon="-0.5695769750">
        <ele>795.63</ele>
        <time>2022-04-16T11:28:07Z</time>
      </trkpt>
      <trkpt lat="42.5646296516" lon="-0.5694034696">
        <ele>794.19</ele>
        <time>2022-04-16T11:28:14Z</time>
      </trkpt>
      <trkpt lat="42.5646394584" lon="-0.5693575367">
        <ele>796.11</ele>
        <time>2022-04-16T11:28:17Z</time>
      </trkpt>
      <trkpt lat="42.5646516122" lon="-0.5693220813">
        <ele>794.67</ele>
        <time>2022-04-16T11:28:19Z</time>
      </trkpt>
      <trkpt lat="42.5646605808" lon="-0.5692863744">
        <ele>795.63</ele>
        <time>2022-04-16T11:28:21Z</time>
      </trkpt>
      <trkpt lat="42.5646755844" lon="-0.5692130327">
        <ele>794.19</ele>
        <time>2022-04-16T11:28:26Z</time>
      </trkpt>
      <trkpt lat="42.5646823738" lon="-0.5691868812">
        <ele>795.15</ele>
        <time>2022-04-16T11:28:28Z</time>
      </trkpt>
      <trkpt lat="42.5647033285" lon="-0.5690658465">
        <ele>794.19</ele>
        <time>2022-04-16T11:28:37Z</time>
      </trkpt>
      <trkpt lat="42.5647167396" lon="-0.5690248590">
        <ele>796.11</ele>
        <time>2022-04-16T11:28:40Z</time>
      </trkpt>
      <trkpt lat="42.5647917576" lon="-0.5687126331">
        <ele>795.15</ele>
        <time>2022-04-16T11:28:58Z</time>
      </trkpt>
      <trkpt lat="42.5647894945" lon="-0.5685615074">
        <ele>793.22</ele>
        <time>2022-04-16T11:29:07Z</time>
      </trkpt>
      <trkpt lat="42.5648052525" lon="-0.5682889279">
        <ele>794.19</ele>
        <time>2022-04-16T11:29:25Z</time>
      </trkpt>
      <trkpt lat="42.5648454856" lon="-0.5680080503">
        <ele>792.74</ele>
        <time>2022-04-16T11:29:46Z</time>
      </trkpt>
      <trkpt lat="42.5648428034" lon="-0.5679768696">
        <ele>795.15</ele>
        <time>2022-04-16T11:29:48Z</time>
      </trkpt>
      <trkpt lat="42.5648539513" lon="-0.5677564256">
        <ele>795.15</ele>
        <time>2022-04-16T11:30:02Z</time>
      </trkpt>
      <trkpt lat="42.5648767501" lon="-0.5676288530">
        <ele>793.71</ele>
        <time>2022-04-16T11:30:10Z</time>
      </trkpt>
      <trkpt lat="42.5648769177" lon="-0.5675982591">
        <ele>795.63</ele>
        <time>2022-04-16T11:30:12Z</time>
      </trkpt>
      <trkpt lat="42.5648447312" lon="-0.5673514120">
        <ele>795.15</ele>
        <time>2022-04-16T11:30:31Z</time>
      </trkpt>
      <trkpt lat="42.5648443121" lon="-0.5673442874">
        <ele>798.99</ele>
        <time>2022-04-16T11:30:32Z</time>
      </trkpt>
      <trkpt lat="42.5648442283" lon="-0.5673385877">
        <ele>798.99</ele>
        <time>2022-04-16T11:30:33Z</time>
      </trkpt>
      <trkpt lat="42.5648465753" lon="-0.5673271883">
        <ele>793.22</ele>
        <time>2022-04-16T11:30:36Z</time>
      </trkpt>
      <trkpt lat="42.5648470782" lon="-0.5673231650">
        <ele>795.63</ele>
        <time>2022-04-16T11:30:37Z</time>
      </trkpt>
      <trkpt lat="42.5648812763" lon="-0.5673013721">
        <ele>798.99</ele>
        <time>2022-04-16T11:30:39Z</time>
      </trkpt>
      <trkpt lat="42.5648429710" lon="-0.5671846122">
        <ele>800.92</ele>
        <time>2022-04-16T11:30:55Z</time>
      </trkpt>
      <trkpt lat="42.5649261195" lon="-0.5670661759">
        <ele>802.36</ele>
        <time>2022-04-16T11:31:08Z</time>
      </trkpt>
      <trkpt lat="42.5649212580" lon="-0.5669609830">
        <ele>803.32</ele>
        <time>2022-04-16T11:31:14Z</time>
      </trkpt>
      <trkpt lat="42.5649061706" lon="-0.5669353344">
        <ele>801.40</ele>
        <time>2022-04-16T11:31:16Z</time>
      </trkpt>
      <trkpt lat="42.5647910871" lon="-0.5668717157">
        <ele>800.44</ele>
        <time>2022-04-16T11:31:27Z</time>
      </trkpt>
      <trkpt lat="42.5647569727" lon="-0.5668647587">
        <ele>801.88</ele>
        <time>2022-04-16T11:31:30Z</time>
      </trkpt>
      <trkpt lat="42.5646097865" lon="-0.5668865517">
        <ele>803.80</ele>
        <time>2022-04-16T11:31:43Z</time>
      </trkpt>
      <trkpt lat="42.5645677932" lon="-0.5669052433">
        <ele>800.92</ele>
        <time>2022-04-16T11:31:47Z</time>
      </trkpt>
      <trkpt lat="42.5645290688" lon="-0.5669314787">
        <ele>798.03</ele>
        <time>2022-04-16T11:31:51Z</time>
      </trkpt>
      <trkpt lat="42.5639932137" lon="-0.5667489208">
        <ele>802.84</ele>
        <time>2022-04-16T11:49:04Z</time>
      </trkpt>
      <trkpt lat="42.5639995001" lon="-0.5667374376">
        <ele>802.84</ele>
        <time>2022-04-16T11:49:05Z</time>
      </trkpt>
      <trkpt lat="42.5640601013" lon="-0.5664936919">
        <ele>805.72</ele>
        <time>2022-04-16T11:49:22Z</time>
      </trkpt>
      <trkpt lat="42.5642061979" lon="-0.5665296502">
        <ele>807.64</ele>
        <time>2022-04-16T11:49:35Z</time>
      </trkpt>
      <trkpt lat="42.5642279908" lon="-0.5665195081">
        <ele>808.13</ele>
        <time>2022-04-16T11:49:37Z</time>
      </trkpt>
      <trkpt lat="42.5643065292" lon="-0.5662126467">
        <ele>808.13</ele>
        <time>2022-04-16T11:49:59Z</time>
      </trkpt>
      <trkpt lat="42.5643546414" lon="-0.5659836531">
        <ele>808.61</ele>
        <time>2022-04-16T11:50:15Z</time>
      </trkpt>
      <trkpt lat="42.5644116383" lon="-0.5657000933">
        <ele>808.61</ele>
        <time>2022-04-16T11:50:34Z</time>
      </trkpt>
    </trkseg>
  </trk>
</gpx>
